<?xml version="1.0" encoding="UTF-8" standalone="no" ?>
<gpx xmlns="http://www.topografix.com/GPX/1/1" xmlns:xsi="http://www.w3.org/2001/XMLSchema-instance" xsi:schemaLocation="http://www.topografix.com/GPX/1/1 http://www.topografix.com/GPX/1/1/gpx.xsd" version="1.1" creator="VisuGPX - https://www.visugpx.com">
  <metadata>
    <name>Chauvigny 25 Km</name>
    <desc><![CDATA[Randonnée pédestre en boucle à Chauvigny]]></desc>
  </metadata>
  <trk>
    <name><![CDATA[Chauvigny 25 Km_1]]></name>
    <extensions>
      <line xmlns="http://www.topografix.com/GPX/gpx_style/0/2">
        <color>0000FF</color>
        <width>4</width>
      </line>
    </extensions>
    <trkseg>
      <trkpt lat="46.5089" lon="0.63474">
        <ele>71.42639428284</ele>
        <time>2021-11-17T07:52:04Z</time>
      </trkpt>
      <trkpt lat="46.50889" lon="0.63476">
        <ele>71.415534947999</ele>
        <time>2021-11-17T07:52:06Z</time>
      </trkpt>
      <trkpt lat="46.50889" lon="0.63477">
        <ele>71.402264797129</ele>
        <time>2021-11-17T07:52:07Z</time>
      </trkpt>
      <trkpt lat="46.50887" lon="0.63478">
        <ele>71.429267341271</ele>
        <time>2021-11-17T07:52:10Z</time>
      </trkpt>
      <trkpt lat="46.50889" lon="0.63475">
        <ele>71.448919850402</ele>
        <time>2021-11-17T07:52:16Z</time>
      </trkpt>
      <trkpt lat="46.50891" lon="0.63477">
        <ele>71.449170571752</ele>
        <time>2021-11-17T07:52:17Z</time>
      </trkpt>
      <trkpt lat="46.50891" lon="0.6348">
        <ele>71.437400791794</ele>
        <time>2021-11-17T07:52:18Z</time>
      </trkpt>
      <trkpt lat="46.50891" lon="0.63483">
        <ele>71.44226148352</ele>
        <time>2021-11-17T07:52:19Z</time>
      </trkpt>
      <trkpt lat="46.50892" lon="0.63477">
        <ele>71.462056208402</ele>
        <time>2021-11-17T07:52:21Z</time>
      </trkpt>
      <trkpt lat="46.50893" lon="0.63478">
        <ele>71.280576587655</ele>
        <time>2021-11-17T07:52:24Z</time>
      </trkpt>
      <trkpt lat="46.50892" lon="0.63478">
        <ele>71.354383414611</ele>
        <time>2021-11-17T07:52:33Z</time>
      </trkpt>
      <trkpt lat="46.50892" lon="0.63475">
        <ele>71.665099288337</ele>
        <time>2021-11-17T07:52:44Z</time>
      </trkpt>
      <trkpt lat="46.50891" lon="0.63477">
        <ele>71.750472272746</ele>
        <time>2021-11-17T07:52:51Z</time>
      </trkpt>
      <trkpt lat="46.50892" lon="0.63475">
        <ele>71.445266494527</ele>
        <time>2021-11-17T07:52:52Z</time>
      </trkpt>
      <trkpt lat="46.50894" lon="0.63476">
        <ele>71.660599494353</ele>
        <time>2021-11-17T07:53:09Z</time>
      </trkpt>
      <trkpt lat="46.50893" lon="0.63473">
        <ele>72.101189765148</ele>
        <time>2021-11-17T07:53:41Z</time>
      </trkpt>
      <trkpt lat="46.50891" lon="0.63471">
        <ele>71.742504989728</ele>
        <time>2021-11-17T07:53:51Z</time>
      </trkpt>
      <trkpt lat="46.5089" lon="0.63474">
        <ele>71.404676442035</ele>
        <time>2021-11-17T07:54:27Z</time>
      </trkpt>
      <trkpt lat="46.5089" lon="0.63478">
        <ele>71.581967554055</ele>
        <time>2021-11-17T07:54:37Z</time>
      </trkpt>
      <trkpt lat="46.50889" lon="0.63481">
        <ele>71.5842573829</ele>
        <time>2021-11-17T07:54:41Z</time>
      </trkpt>
      <trkpt lat="46.50891" lon="0.6348">
        <ele>71.514277237467</ele>
        <time>2021-11-17T07:55:08Z</time>
      </trkpt>
      <trkpt lat="46.50893" lon="0.63471">
        <ele>71.670018076897</ele>
        <time>2021-11-17T07:55:40Z</time>
      </trkpt>
      <trkpt lat="46.50894" lon="0.63474">
        <ele>71.65041636955</ele>
        <time>2021-11-17T07:56:01Z</time>
      </trkpt>
      <trkpt lat="46.50895" lon="0.63471">
        <ele>71.347283562645</ele>
        <time>2021-11-17T07:56:19Z</time>
      </trkpt>
      <trkpt lat="46.50896" lon="0.63469">
        <ele>71.716428439133</ele>
        <time>2021-11-17T07:56:33Z</time>
      </trkpt>
      <trkpt lat="46.50896" lon="0.63472">
        <ele>71.472563785501</ele>
        <time>2021-11-17T07:56:51Z</time>
      </trkpt>
      <trkpt lat="46.50892" lon="0.63467">
        <ele>71.958274438977</ele>
        <time>2021-11-17T07:57:11Z</time>
      </trkpt>
      <trkpt lat="46.50893" lon="0.63465">
        <ele>71.583296491764</ele>
        <time>2021-11-17T07:57:25Z</time>
      </trkpt>
      <trkpt lat="46.50894" lon="0.63467">
        <ele>71.56821965985</ele>
        <time>2021-11-17T07:57:27Z</time>
      </trkpt>
      <trkpt lat="46.50895" lon="0.6347">
        <ele>71.44197634887</ele>
        <time>2021-11-17T07:57:35Z</time>
      </trkpt>
      <trkpt lat="46.50893" lon="0.63472">
        <ele>71.511440692469</ele>
        <time>2021-11-17T07:57:55Z</time>
      </trkpt>
      <trkpt lat="46.50896" lon="0.63471">
        <ele>71.429844517261</ele>
        <time>2021-11-17T07:58:15Z</time>
      </trkpt>
      <trkpt lat="46.50894" lon="0.63471">
        <ele>71.388717975467</ele>
        <time>2021-11-17T07:58:35Z</time>
      </trkpt>
      <trkpt lat="46.50896" lon="0.63468">
        <ele>71.437117261812</ele>
        <time>2021-11-17T07:58:58Z</time>
      </trkpt>
      <trkpt lat="46.50896" lon="0.63471">
        <ele>71.682293547317</ele>
        <time>2021-11-17T07:59:16Z</time>
      </trkpt>
      <trkpt lat="46.50895" lon="0.63474">
        <ele>71.559351344593</ele>
        <time>2021-11-17T07:59:36Z</time>
      </trkpt>
      <trkpt lat="46.50896" lon="0.63471">
        <ele>71.491199988872</ele>
        <time>2021-11-17T07:59:59Z</time>
      </trkpt>
      <trkpt lat="46.50895" lon="0.63475">
        <ele>71.426485938951</ele>
        <time>2021-11-17T08:00:26Z</time>
      </trkpt>
      <trkpt lat="46.50896" lon="0.63472">
        <ele>71.481368152425</ele>
        <time>2021-11-17T08:00:55Z</time>
      </trkpt>
      <trkpt lat="46.50899" lon="0.63473">
        <ele>71.52833850868</ele>
        <time>2021-11-17T08:00:59Z</time>
      </trkpt>
      <trkpt lat="46.50901" lon="0.63475">
        <ele>71.292695789598</ele>
        <time>2021-11-17T08:01:02Z</time>
      </trkpt>
      <trkpt lat="46.50903" lon="0.63475">
        <ele>71.288488034159</ele>
        <time>2021-11-17T08:01:06Z</time>
      </trkpt>
      <trkpt lat="46.50906" lon="0.63474">
        <ele>71.160598272458</ele>
        <time>2021-11-17T08:01:09Z</time>
      </trkpt>
      <trkpt lat="46.50909" lon="0.63475">
        <ele>71.182372269221</ele>
        <time>2021-11-17T08:01:12Z</time>
      </trkpt>
      <trkpt lat="46.50911" lon="0.63475">
        <ele>71.54673877079</ele>
        <time>2021-11-17T08:01:14Z</time>
      </trkpt>
      <trkpt lat="46.50913" lon="0.63475">
        <ele>71.188381156884</ele>
        <time>2021-11-17T08:01:16Z</time>
      </trkpt>
      <trkpt lat="46.50917" lon="0.63475">
        <ele>71.296371635981</ele>
        <time>2021-11-17T08:01:18Z</time>
      </trkpt>
      <trkpt lat="46.50919" lon="0.63474">
        <ele>71.068172455765</ele>
        <time>2021-11-17T08:01:20Z</time>
      </trkpt>
      <trkpt lat="46.50922" lon="0.63472">
        <ele>71.252210928127</ele>
        <time>2021-11-17T08:01:22Z</time>
      </trkpt>
      <trkpt lat="46.50924" lon="0.6347">
        <ele>71.470077233389</ele>
        <time>2021-11-17T08:01:24Z</time>
      </trkpt>
      <trkpt lat="46.50925" lon="0.63468">
        <ele>71.365763842128</ele>
        <time>2021-11-17T08:01:26Z</time>
      </trkpt>
      <trkpt lat="46.50926" lon="0.63464">
        <ele>71.931189459749</ele>
        <time>2021-11-17T08:01:29Z</time>
      </trkpt>
      <trkpt lat="46.50926" lon="0.6346">
        <ele>71.172503786162</ele>
        <time>2021-11-17T08:01:32Z</time>
      </trkpt>
      <trkpt lat="46.50926" lon="0.63457">
        <ele>71.096826668829</ele>
        <time>2021-11-17T08:01:34Z</time>
      </trkpt>
      <trkpt lat="46.50926" lon="0.63454">
        <ele>71.278545581736</ele>
        <time>2021-11-17T08:01:36Z</time>
      </trkpt>
      <trkpt lat="46.50927" lon="0.6345">
        <ele>71.068367375061</ele>
        <time>2021-11-17T08:01:38Z</time>
      </trkpt>
      <trkpt lat="46.50928" lon="0.63448">
        <ele>71.062828744762</ele>
        <time>2021-11-17T08:01:40Z</time>
      </trkpt>
      <trkpt lat="46.50928" lon="0.63445">
        <ele>71.063715315424</ele>
        <time>2021-11-17T08:01:42Z</time>
      </trkpt>
      <trkpt lat="46.50928" lon="0.63441">
        <ele>71.554403919727</ele>
        <time>2021-11-17T08:01:44Z</time>
      </trkpt>
      <trkpt lat="46.50928" lon="0.63438">
        <ele>70.943009334616</ele>
        <time>2021-11-17T08:01:46Z</time>
      </trkpt>
      <trkpt lat="46.50929" lon="0.63434">
        <ele>70.472742096521</ele>
        <time>2021-11-17T08:01:48Z</time>
      </trkpt>
      <trkpt lat="46.50929" lon="0.63431">
        <ele>70.471960620955</ele>
        <time>2021-11-17T08:01:50Z</time>
      </trkpt>
      <trkpt lat="46.50929" lon="0.63427">
        <ele>70.305110124871</ele>
        <time>2021-11-17T08:01:52Z</time>
      </trkpt>
      <trkpt lat="46.5093" lon="0.63424">
        <ele>69.932633156888</ele>
        <time>2021-11-17T08:01:54Z</time>
      </trkpt>
      <trkpt lat="46.5093" lon="0.6342">
        <ele>69.549079802819</ele>
        <time>2021-11-17T08:01:56Z</time>
      </trkpt>
      <trkpt lat="46.5093" lon="0.63415">
        <ele>69.079689607024</ele>
        <time>2021-11-17T08:01:59Z</time>
      </trkpt>
      <trkpt lat="46.50931" lon="0.63412">
        <ele>68.850045241416</ele>
        <time>2021-11-17T08:02:01Z</time>
      </trkpt>
      <trkpt lat="46.50931" lon="0.63407">
        <ele>68.610237760469</ele>
        <time>2021-11-17T08:02:04Z</time>
      </trkpt>
      <trkpt lat="46.50931" lon="0.63402">
        <ele>68.156400792301</ele>
        <time>2021-11-17T08:02:06Z</time>
      </trkpt>
      <trkpt lat="46.5093" lon="0.63399">
        <ele>67.988634579815</ele>
        <time>2021-11-17T08:02:07Z</time>
      </trkpt>
      <trkpt lat="46.50931" lon="0.63396">
        <ele>67.424476420507</ele>
        <time>2021-11-17T08:02:09Z</time>
      </trkpt>
      <trkpt lat="46.50931" lon="0.63394">
        <ele>67.359050759114</ele>
        <time>2021-11-17T08:02:10Z</time>
      </trkpt>
      <trkpt lat="46.50931" lon="0.63391">
        <ele>66.414241670631</ele>
        <time>2021-11-17T08:02:12Z</time>
      </trkpt>
      <trkpt lat="46.50932" lon="0.63387">
        <ele>66.561570076272</ele>
        <time>2021-11-17T08:02:14Z</time>
      </trkpt>
      <trkpt lat="46.50932" lon="0.63383">
        <ele>66.024999625981</ele>
        <time>2021-11-17T08:02:17Z</time>
      </trkpt>
      <trkpt lat="46.50932" lon="0.63379">
        <ele>65.881159496494</ele>
        <time>2021-11-17T08:02:19Z</time>
      </trkpt>
      <trkpt lat="46.50933" lon="0.63377">
        <ele>66.066717021167</ele>
        <time>2021-11-17T08:02:21Z</time>
      </trkpt>
      <trkpt lat="46.50933" lon="0.63374">
        <ele>65.974772805348</ele>
        <time>2021-11-17T08:02:22Z</time>
      </trkpt>
      <trkpt lat="46.50933" lon="0.63372">
        <ele>65.657006551512</ele>
        <time>2021-11-17T08:02:24Z</time>
      </trkpt>
      <trkpt lat="46.50933" lon="0.63369">
        <ele>65.371784705669</ele>
        <time>2021-11-17T08:02:26Z</time>
      </trkpt>
      <trkpt lat="46.50934" lon="0.63366">
        <ele>65.640988528728</ele>
        <time>2021-11-17T08:02:28Z</time>
      </trkpt>
      <trkpt lat="46.50934" lon="0.63363">
        <ele>65.507464234717</ele>
        <time>2021-11-17T08:02:30Z</time>
      </trkpt>
      <trkpt lat="46.50934" lon="0.63359">
        <ele>65.97484764643</ele>
        <time>2021-11-17T08:02:32Z</time>
      </trkpt>
      <trkpt lat="46.50934" lon="0.63355">
        <ele>65.816024567932</ele>
        <time>2021-11-17T08:02:34Z</time>
      </trkpt>
      <trkpt lat="46.50934" lon="0.63352">
        <ele>65.463256016374</ele>
        <time>2021-11-17T08:02:36Z</time>
      </trkpt>
      <trkpt lat="46.50934" lon="0.63348">
        <ele>65.693428261206</ele>
        <time>2021-11-17T08:02:38Z</time>
      </trkpt>
      <trkpt lat="46.50934" lon="0.63345">
        <ele>65.776407793164</ele>
        <time>2021-11-17T08:02:40Z</time>
      </trkpt>
      <trkpt lat="46.50935" lon="0.63341">
        <ele>65.552461541258</ele>
        <time>2021-11-17T08:02:42Z</time>
      </trkpt>
      <trkpt lat="46.50934" lon="0.63338">
        <ele>65.673106148839</ele>
        <time>2021-11-17T08:02:44Z</time>
      </trkpt>
      <trkpt lat="46.50934" lon="0.63334">
        <ele>65.537443621084</ele>
        <time>2021-11-17T08:02:46Z</time>
      </trkpt>
      <trkpt lat="46.50935" lon="0.63332">
        <ele>65.884397397749</ele>
        <time>2021-11-17T08:02:47Z</time>
      </trkpt>
      <trkpt lat="46.50935" lon="0.63329">
        <ele>65.401245024055</ele>
        <time>2021-11-17T08:02:49Z</time>
      </trkpt>
      <trkpt lat="46.50935" lon="0.63325">
        <ele>65.627920312807</ele>
        <time>2021-11-17T08:02:51Z</time>
      </trkpt>
      <trkpt lat="46.50935" lon="0.63322">
        <ele>65.489243336953</ele>
        <time>2021-11-17T08:02:53Z</time>
      </trkpt>
      <trkpt lat="46.50935" lon="0.63318">
        <ele>65.510643041693</ele>
        <time>2021-11-17T08:02:56Z</time>
      </trkpt>
      <trkpt lat="46.50935" lon="0.63315">
        <ele>66.011670128442</ele>
        <time>2021-11-17T08:02:58Z</time>
      </trkpt>
      <trkpt lat="46.50935" lon="0.63311">
        <ele>65.370150011033</ele>
        <time>2021-11-17T08:03:00Z</time>
      </trkpt>
      <trkpt lat="46.50935" lon="0.63308">
        <ele>65.513333708979</ele>
        <time>2021-11-17T08:03:02Z</time>
      </trkpt>
      <trkpt lat="46.50935" lon="0.63303">
        <ele>65.292863875628</ele>
        <time>2021-11-17T08:03:05Z</time>
      </trkpt>
      <trkpt lat="46.50935" lon="0.633">
        <ele>65.591964895837</ele>
        <time>2021-11-17T08:03:07Z</time>
      </trkpt>
      <trkpt lat="46.50936" lon="0.63296">
        <ele>65.511480842717</ele>
        <time>2021-11-17T08:03:09Z</time>
      </trkpt>
      <trkpt lat="46.50937" lon="0.63292">
        <ele>65.795396156609</ele>
        <time>2021-11-17T08:03:11Z</time>
      </trkpt>
      <trkpt lat="46.50937" lon="0.63289">
        <ele>65.598402331583</ele>
        <time>2021-11-17T08:03:13Z</time>
      </trkpt>
      <trkpt lat="46.50937" lon="0.63285">
        <ele>65.771131100133</ele>
        <time>2021-11-17T08:03:15Z</time>
      </trkpt>
      <trkpt lat="46.50938" lon="0.63281">
        <ele>65.619326638058</ele>
        <time>2021-11-17T08:03:17Z</time>
      </trkpt>
      <trkpt lat="46.50938" lon="0.63278">
        <ele>65.41098197829</ele>
        <time>2021-11-17T08:03:19Z</time>
      </trkpt>
      <trkpt lat="46.50939" lon="0.63275">
        <ele>65.54034642037</ele>
        <time>2021-11-17T08:03:21Z</time>
      </trkpt>
      <trkpt lat="46.50939" lon="0.63272">
        <ele>66.023042043671</ele>
        <time>2021-11-17T08:03:23Z</time>
      </trkpt>
      <trkpt lat="46.5094" lon="0.63269">
        <ele>65.298470163718</ele>
        <time>2021-11-17T08:03:25Z</time>
      </trkpt>
      <trkpt lat="46.5094" lon="0.63265">
        <ele>65.443117007613</ele>
        <time>2021-11-17T08:03:27Z</time>
      </trkpt>
      <trkpt lat="46.50941" lon="0.63261">
        <ele>65.462927970104</ele>
        <time>2021-11-17T08:03:29Z</time>
      </trkpt>
      <trkpt lat="46.50941" lon="0.63258">
        <ele>65.187736636028</ele>
        <time>2021-11-17T08:03:31Z</time>
      </trkpt>
      <trkpt lat="46.50941" lon="0.63254">
        <ele>65.549724935554</ele>
        <time>2021-11-17T08:03:33Z</time>
      </trkpt>
      <trkpt lat="46.50942" lon="0.6325">
        <ele>65.469970480539</ele>
        <time>2021-11-17T08:03:35Z</time>
      </trkpt>
      <trkpt lat="46.50942" lon="0.63247">
        <ele>65.423899670132</ele>
        <time>2021-11-17T08:03:37Z</time>
      </trkpt>
      <trkpt lat="46.50943" lon="0.63243">
        <ele>65.763449957594</ele>
        <time>2021-11-17T08:03:40Z</time>
      </trkpt>
      <trkpt lat="46.50943" lon="0.6324">
        <ele>65.606772053987</ele>
        <time>2021-11-17T08:03:42Z</time>
      </trkpt>
      <trkpt lat="46.50944" lon="0.63237">
        <ele>65.786537680775</ele>
        <time>2021-11-17T08:03:44Z</time>
      </trkpt>
      <trkpt lat="46.50944" lon="0.63234">
        <ele>66.44746850431</ele>
        <time>2021-11-17T08:03:46Z</time>
      </trkpt>
      <trkpt lat="46.50944" lon="0.6323">
        <ele>66.126033119857</ele>
        <time>2021-11-17T08:03:48Z</time>
      </trkpt>
      <trkpt lat="46.50945" lon="0.63226">
        <ele>66.44330896344</ele>
        <time>2021-11-17T08:03:50Z</time>
      </trkpt>
      <trkpt lat="46.50946" lon="0.63223">
        <ele>66.671508278698</ele>
        <time>2021-11-17T08:03:53Z</time>
      </trkpt>
      <trkpt lat="46.50946" lon="0.63221">
        <ele>66.904099293053</ele>
        <time>2021-11-17T08:03:54Z</time>
      </trkpt>
      <trkpt lat="46.50947" lon="0.63217">
        <ele>66.91570792906</ele>
        <time>2021-11-17T08:03:56Z</time>
      </trkpt>
      <trkpt lat="46.50948" lon="0.63214">
        <ele>67.457435404882</ele>
        <time>2021-11-17T08:03:58Z</time>
      </trkpt>
      <trkpt lat="46.50949" lon="0.63212">
        <ele>66.747872405685</ele>
        <time>2021-11-17T08:04:00Z</time>
      </trkpt>
      <trkpt lat="46.50951" lon="0.6321">
        <ele>67.192812163383</ele>
        <time>2021-11-17T08:04:02Z</time>
      </trkpt>
      <trkpt lat="46.50953" lon="0.63208">
        <ele>67.159995353781</ele>
        <time>2021-11-17T08:04:04Z</time>
      </trkpt>
      <trkpt lat="46.50955" lon="0.63207">
        <ele>67.107403655536</ele>
        <time>2021-11-17T08:04:06Z</time>
      </trkpt>
      <trkpt lat="46.50957" lon="0.63205">
        <ele>67.145120191388</ele>
        <time>2021-11-17T08:04:08Z</time>
      </trkpt>
      <trkpt lat="46.50958" lon="0.63202">
        <ele>67.567347121425</ele>
        <time>2021-11-17T08:04:13Z</time>
      </trkpt>
      <trkpt lat="46.50958" lon="0.63199">
        <ele>67.668368689716</ele>
        <time>2021-11-17T08:04:15Z</time>
      </trkpt>
      <trkpt lat="46.50959" lon="0.63196">
        <ele>67.825418812223</ele>
        <time>2021-11-17T08:04:16Z</time>
      </trkpt>
      <trkpt lat="46.50959" lon="0.63192">
        <ele>67.791769898497</ele>
        <time>2021-11-17T08:04:18Z</time>
      </trkpt>
      <trkpt lat="46.50959" lon="0.63188">
        <ele>67.322748180479</ele>
        <time>2021-11-17T08:04:20Z</time>
      </trkpt>
      <trkpt lat="46.50958" lon="0.63184">
        <ele>67.502585051581</ele>
        <time>2021-11-17T08:04:22Z</time>
      </trkpt>
      <trkpt lat="46.50956" lon="0.63182">
        <ele>67.254021082073</ele>
        <time>2021-11-17T08:04:24Z</time>
      </trkpt>
      <trkpt lat="46.50954" lon="0.6318">
        <ele>67.458009588532</ele>
        <time>2021-11-17T08:04:26Z</time>
      </trkpt>
      <trkpt lat="46.50951" lon="0.63178">
        <ele>67.374456259422</ele>
        <time>2021-11-17T08:04:28Z</time>
      </trkpt>
      <trkpt lat="46.50948" lon="0.63177">
        <ele>67.493480558507</ele>
        <time>2021-11-17T08:04:30Z</time>
      </trkpt>
      <trkpt lat="46.50946" lon="0.63177">
        <ele>67.485866397619</ele>
        <time>2021-11-17T08:04:32Z</time>
      </trkpt>
      <trkpt lat="46.50942" lon="0.63176">
        <ele>67.494044488296</ele>
        <time>2021-11-17T08:04:34Z</time>
      </trkpt>
      <trkpt lat="46.5094" lon="0.63175">
        <ele>67.338091573678</ele>
        <time>2021-11-17T08:04:36Z</time>
      </trkpt>
      <trkpt lat="46.50937" lon="0.63175">
        <ele>67.277340110391</ele>
        <time>2021-11-17T08:04:38Z</time>
      </trkpt>
      <trkpt lat="46.50934" lon="0.63175">
        <ele>67.219158764929</ele>
        <time>2021-11-17T08:04:40Z</time>
      </trkpt>
      <trkpt lat="46.50932" lon="0.63174">
        <ele>66.885056565516</ele>
        <time>2021-11-17T08:04:42Z</time>
      </trkpt>
      <trkpt lat="46.50929" lon="0.63173">
        <ele>67.824402960949</ele>
        <time>2021-11-17T08:04:44Z</time>
      </trkpt>
      <trkpt lat="46.50926" lon="0.63173">
        <ele>66.924436641857</ele>
        <time>2021-11-17T08:04:46Z</time>
      </trkpt>
      <trkpt lat="46.50923" lon="0.63172">
        <ele>67.375883664936</ele>
        <time>2021-11-17T08:04:48Z</time>
      </trkpt>
      <trkpt lat="46.5092" lon="0.63171">
        <ele>66.735210119747</ele>
        <time>2021-11-17T08:04:51Z</time>
      </trkpt>
      <trkpt lat="46.50917" lon="0.6317">
        <ele>66.945908841677</ele>
        <time>2021-11-17T08:04:53Z</time>
      </trkpt>
      <trkpt lat="46.50914" lon="0.63169">
        <ele>66.978417925537</ele>
        <time>2021-11-17T08:04:55Z</time>
      </trkpt>
      <trkpt lat="46.50911" lon="0.63169">
        <ele>67.194261504337</ele>
        <time>2021-11-17T08:04:57Z</time>
      </trkpt>
      <trkpt lat="46.50909" lon="0.63168">
        <ele>67.264841704629</ele>
        <time>2021-11-17T08:04:59Z</time>
      </trkpt>
      <trkpt lat="46.50906" lon="0.63168">
        <ele>67.178885556757</ele>
        <time>2021-11-17T08:05:01Z</time>
      </trkpt>
      <trkpt lat="46.50904" lon="0.63166">
        <ele>67.479266627692</ele>
        <time>2021-11-17T08:05:02Z</time>
      </trkpt>
      <trkpt lat="46.50902" lon="0.63164">
        <ele>67.200516975485</ele>
        <time>2021-11-17T08:05:04Z</time>
      </trkpt>
      <trkpt lat="46.509" lon="0.63161">
        <ele>66.8238795707</ele>
        <time>2021-11-17T08:05:06Z</time>
      </trkpt>
      <trkpt lat="46.50898" lon="0.63158">
        <ele>67.200924510136</ele>
        <time>2021-11-17T08:05:08Z</time>
      </trkpt>
      <trkpt lat="46.50898" lon="0.63154">
        <ele>66.967320841737</ele>
        <time>2021-11-17T08:05:10Z</time>
      </trkpt>
      <trkpt lat="46.50897" lon="0.63151">
        <ele>67.102247361094</ele>
        <time>2021-11-17T08:05:12Z</time>
      </trkpt>
      <trkpt lat="46.50896" lon="0.63147">
        <ele>67.069707525894</ele>
        <time>2021-11-17T08:05:14Z</time>
      </trkpt>
      <trkpt lat="46.50895" lon="0.63143">
        <ele>67.412354360335</ele>
        <time>2021-11-17T08:05:16Z</time>
      </trkpt>
      <trkpt lat="46.50895" lon="0.6314">
        <ele>67.195885174908</ele>
        <time>2021-11-17T08:05:18Z</time>
      </trkpt>
      <trkpt lat="46.50895" lon="0.63136">
        <ele>67.37788432464</ele>
        <time>2021-11-17T08:05:20Z</time>
      </trkpt>
      <trkpt lat="46.50895" lon="0.63133">
        <ele>67.70700427331</ele>
        <time>2021-11-17T08:05:22Z</time>
      </trkpt>
      <trkpt lat="46.50895" lon="0.6313">
        <ele>67.091545740142</ele>
        <time>2021-11-17T08:05:24Z</time>
      </trkpt>
      <trkpt lat="46.50894" lon="0.63127">
        <ele>67.138734971173</ele>
        <time>2021-11-17T08:05:26Z</time>
      </trkpt>
      <trkpt lat="46.50895" lon="0.63123">
        <ele>67.506116149947</ele>
        <time>2021-11-17T08:05:28Z</time>
      </trkpt>
      <trkpt lat="46.50895" lon="0.6312">
        <ele>67.695647031069</ele>
        <time>2021-11-17T08:05:30Z</time>
      </trkpt>
      <trkpt lat="46.50894" lon="0.63117">
        <ele>67.603744391352</ele>
        <time>2021-11-17T08:05:32Z</time>
      </trkpt>
      <trkpt lat="46.50894" lon="0.63113">
        <ele>67.677010809071</ele>
        <time>2021-11-17T08:05:34Z</time>
      </trkpt>
      <trkpt lat="46.50894" lon="0.6311">
        <ele>67.732038855553</ele>
        <time>2021-11-17T08:05:36Z</time>
      </trkpt>
      <trkpt lat="46.50894" lon="0.63107">
        <ele>67.539041261189</ele>
        <time>2021-11-17T08:05:38Z</time>
      </trkpt>
      <trkpt lat="46.50894" lon="0.63104">
        <ele>67.37888105493</ele>
        <time>2021-11-17T08:05:40Z</time>
      </trkpt>
      <trkpt lat="46.50894" lon="0.631">
        <ele>67.619809946045</ele>
        <time>2021-11-17T08:05:42Z</time>
      </trkpt>
      <trkpt lat="46.50894" lon="0.63097">
        <ele>67.91352415178</ele>
        <time>2021-11-17T08:05:44Z</time>
      </trkpt>
      <trkpt lat="46.50894" lon="0.63094">
        <ele>68.00909762457</ele>
        <time>2021-11-17T08:05:46Z</time>
      </trkpt>
      <trkpt lat="46.50894" lon="0.63091">
        <ele>68.065104749054</ele>
        <time>2021-11-17T08:05:48Z</time>
      </trkpt>
      <trkpt lat="46.50894" lon="0.63086">
        <ele>68.307746443897</ele>
        <time>2021-11-17T08:05:50Z</time>
      </trkpt>
      <trkpt lat="46.50893" lon="0.63082">
        <ele>68.367655843496</ele>
        <time>2021-11-17T08:05:52Z</time>
      </trkpt>
      <trkpt lat="46.50893" lon="0.63078">
        <ele>68.594931321219</ele>
        <time>2021-11-17T08:05:54Z</time>
      </trkpt>
      <trkpt lat="46.50894" lon="0.63075">
        <ele>68.550898874179</ele>
        <time>2021-11-17T08:05:56Z</time>
      </trkpt>
      <trkpt lat="46.50895" lon="0.6307">
        <ele>68.595577219501</ele>
        <time>2021-11-17T08:05:58Z</time>
      </trkpt>
      <trkpt lat="46.50896" lon="0.63066">
        <ele>68.593408584595</ele>
        <time>2021-11-17T08:06:00Z</time>
      </trkpt>
      <trkpt lat="46.50896" lon="0.63063">
        <ele>68.559446875937</ele>
        <time>2021-11-17T08:06:02Z</time>
      </trkpt>
      <trkpt lat="46.50896" lon="0.6306">
        <ele>68.580156882294</ele>
        <time>2021-11-17T08:06:03Z</time>
      </trkpt>
      <trkpt lat="46.50896" lon="0.63055">
        <ele>68.734172370285</ele>
        <time>2021-11-17T08:06:05Z</time>
      </trkpt>
      <trkpt lat="46.50897" lon="0.63051">
        <ele>68.515714613721</ele>
        <time>2021-11-17T08:06:07Z</time>
      </trkpt>
      <trkpt lat="46.50897" lon="0.63045">
        <ele>68.758077175356</ele>
        <time>2021-11-17T08:06:10Z</time>
      </trkpt>
      <trkpt lat="46.50897" lon="0.63042">
        <ele>68.852559461258</ele>
        <time>2021-11-17T08:06:12Z</time>
      </trkpt>
      <trkpt lat="46.50898" lon="0.63039">
        <ele>68.692229609936</ele>
        <time>2021-11-17T08:06:14Z</time>
      </trkpt>
      <trkpt lat="46.50898" lon="0.63036">
        <ele>68.615473940969</ele>
        <time>2021-11-17T08:06:16Z</time>
      </trkpt>
      <trkpt lat="46.50899" lon="0.63032">
        <ele>68.427108655684</ele>
        <time>2021-11-17T08:06:18Z</time>
      </trkpt>
      <trkpt lat="46.50899" lon="0.63029">
        <ele>68.567461976781</ele>
        <time>2021-11-17T08:06:20Z</time>
      </trkpt>
      <trkpt lat="46.509" lon="0.63025">
        <ele>68.527412659489</ele>
        <time>2021-11-17T08:06:22Z</time>
      </trkpt>
      <trkpt lat="46.509" lon="0.63021">
        <ele>69.278076447546</ele>
        <time>2021-11-17T08:06:24Z</time>
      </trkpt>
      <trkpt lat="46.509" lon="0.63017">
        <ele>68.392843988724</ele>
        <time>2021-11-17T08:06:26Z</time>
      </trkpt>
      <trkpt lat="46.50901" lon="0.63011">
        <ele>69.050905105658</ele>
        <time>2021-11-17T08:06:29Z</time>
      </trkpt>
      <trkpt lat="46.50902" lon="0.63009">
        <ele>69.200796964578</ele>
        <time>2021-11-17T08:06:30Z</time>
      </trkpt>
      <trkpt lat="46.50902" lon="0.63005">
        <ele>69.286577870138</ele>
        <time>2021-11-17T08:06:32Z</time>
      </trkpt>
      <trkpt lat="46.50902" lon="0.63001">
        <ele>69.528195368126</ele>
        <time>2021-11-17T08:06:34Z</time>
      </trkpt>
      <trkpt lat="46.50902" lon="0.62998">
        <ele>69.318879993632</ele>
        <time>2021-11-17T08:06:36Z</time>
      </trkpt>
      <trkpt lat="46.50903" lon="0.62993">
        <ele>69.874777233228</ele>
        <time>2021-11-17T08:06:38Z</time>
      </trkpt>
      <trkpt lat="46.50903" lon="0.6299">
        <ele>69.683814129792</ele>
        <time>2021-11-17T08:06:40Z</time>
      </trkpt>
      <trkpt lat="46.50904" lon="0.62987">
        <ele>70.094104134478</ele>
        <time>2021-11-17T08:06:42Z</time>
      </trkpt>
      <trkpt lat="46.50904" lon="0.62984">
        <ele>69.88259930443</ele>
        <time>2021-11-17T08:06:44Z</time>
      </trkpt>
      <trkpt lat="46.50904" lon="0.62981">
        <ele>69.807361563668</ele>
        <time>2021-11-17T08:06:45Z</time>
      </trkpt>
      <trkpt lat="46.50903" lon="0.62978">
        <ele>70.291495361365</ele>
        <time>2021-11-17T08:06:48Z</time>
      </trkpt>
      <trkpt lat="46.50903" lon="0.62974">
        <ele>70.509259862825</ele>
        <time>2021-11-17T08:06:50Z</time>
      </trkpt>
      <trkpt lat="46.50904" lon="0.62971">
        <ele>70.224963949062</ele>
        <time>2021-11-17T08:06:52Z</time>
      </trkpt>
      <trkpt lat="46.50904" lon="0.62968">
        <ele>70.553205550648</ele>
        <time>2021-11-17T08:06:54Z</time>
      </trkpt>
      <trkpt lat="46.50903" lon="0.62965">
        <ele>70.897937538102</ele>
        <time>2021-11-17T08:06:55Z</time>
      </trkpt>
      <trkpt lat="46.50904" lon="0.62961">
        <ele>70.769794992171</ele>
        <time>2021-11-17T08:06:56Z</time>
      </trkpt>
      <trkpt lat="46.50905" lon="0.62956">
        <ele>70.986693366431</ele>
        <time>2021-11-17T08:06:58Z</time>
      </trkpt>
      <trkpt lat="46.50906" lon="0.62951">
        <ele>70.865827488713</ele>
        <time>2021-11-17T08:07:00Z</time>
      </trkpt>
      <trkpt lat="46.50906" lon="0.62948">
        <ele>71.43384305574</ele>
        <time>2021-11-17T08:07:02Z</time>
      </trkpt>
      <trkpt lat="46.50907" lon="0.62944">
        <ele>71.415599274449</ele>
        <time>2021-11-17T08:07:04Z</time>
      </trkpt>
      <trkpt lat="46.50909" lon="0.62941">
        <ele>71.540306435898</ele>
        <time>2021-11-17T08:07:06Z</time>
      </trkpt>
      <trkpt lat="46.5091" lon="0.62939">
        <ele>71.719118175097</ele>
        <time>2021-11-17T08:07:08Z</time>
      </trkpt>
      <trkpt lat="46.50912" lon="0.62937">
        <ele>71.909360332415</ele>
        <time>2021-11-17T08:07:10Z</time>
      </trkpt>
      <trkpt lat="46.50913" lon="0.62934">
        <ele>71.940659567714</ele>
        <time>2021-11-17T08:07:11Z</time>
      </trkpt>
      <trkpt lat="46.50915" lon="0.62931">
        <ele>72.367957383394</ele>
        <time>2021-11-17T08:07:13Z</time>
      </trkpt>
      <trkpt lat="46.50916" lon="0.62927">
        <ele>72.550647375174</ele>
        <time>2021-11-17T08:07:15Z</time>
      </trkpt>
      <trkpt lat="46.50918" lon="0.62925">
        <ele>73.072852970101</ele>
        <time>2021-11-17T08:07:17Z</time>
      </trkpt>
      <trkpt lat="46.5092" lon="0.62923">
        <ele>73.002038512379</ele>
        <time>2021-11-17T08:07:19Z</time>
      </trkpt>
      <trkpt lat="46.50922" lon="0.62921">
        <ele>73.229927341454</ele>
        <time>2021-11-17T08:07:21Z</time>
      </trkpt>
      <trkpt lat="46.50924" lon="0.62917">
        <ele>74.039664731361</ele>
        <time>2021-11-17T08:07:23Z</time>
      </trkpt>
      <trkpt lat="46.50926" lon="0.62915">
        <ele>73.83267331589</ele>
        <time>2021-11-17T08:07:25Z</time>
      </trkpt>
      <trkpt lat="46.50928" lon="0.62911">
        <ele>74.345555243082</ele>
        <time>2021-11-17T08:07:27Z</time>
      </trkpt>
      <trkpt lat="46.5093" lon="0.62909">
        <ele>74.343479789793</ele>
        <time>2021-11-17T08:07:29Z</time>
      </trkpt>
      <trkpt lat="46.50933" lon="0.62909">
        <ele>75.179627685808</ele>
        <time>2021-11-17T08:07:32Z</time>
      </trkpt>
      <trkpt lat="46.50935" lon="0.62909">
        <ele>75.091526733711</ele>
        <time>2021-11-17T08:07:34Z</time>
      </trkpt>
      <trkpt lat="46.50936" lon="0.62911">
        <ele>75.250028664246</ele>
        <time>2021-11-17T08:07:36Z</time>
      </trkpt>
      <trkpt lat="46.50939" lon="0.62913">
        <ele>74.945834359154</ele>
        <time>2021-11-17T08:07:38Z</time>
      </trkpt>
      <trkpt lat="46.50941" lon="0.62915">
        <ele>74.853185759857</ele>
        <time>2021-11-17T08:07:40Z</time>
      </trkpt>
      <trkpt lat="46.50942" lon="0.62917">
        <ele>75.466307639144</ele>
        <time>2021-11-17T08:07:41Z</time>
      </trkpt>
      <trkpt lat="46.50944" lon="0.62919">
        <ele>74.835165039636</ele>
        <time>2021-11-17T08:07:43Z</time>
      </trkpt>
      <trkpt lat="46.50946" lon="0.62921">
        <ele>75.074530254118</ele>
        <time>2021-11-17T08:07:45Z</time>
      </trkpt>
      <trkpt lat="46.50947" lon="0.62924">
        <ele>75.018734436482</ele>
        <time>2021-11-17T08:07:47Z</time>
      </trkpt>
      <trkpt lat="46.50948" lon="0.62927">
        <ele>75.041962479241</ele>
        <time>2021-11-17T08:07:49Z</time>
      </trkpt>
      <trkpt lat="46.5095" lon="0.62929">
        <ele>74.966061226092</ele>
        <time>2021-11-17T08:07:51Z</time>
      </trkpt>
      <trkpt lat="46.50951" lon="0.62931">
        <ele>74.879655483179</ele>
        <time>2021-11-17T08:07:53Z</time>
      </trkpt>
      <trkpt lat="46.50953" lon="0.62934">
        <ele>75.102713651024</ele>
        <time>2021-11-17T08:07:55Z</time>
      </trkpt>
      <trkpt lat="46.50954" lon="0.62936">
        <ele>74.785791297443</ele>
        <time>2021-11-17T08:07:57Z</time>
      </trkpt>
      <trkpt lat="46.50956" lon="0.62938">
        <ele>74.897175638936</ele>
        <time>2021-11-17T08:07:59Z</time>
      </trkpt>
      <trkpt lat="46.50957" lon="0.62941">
        <ele>74.649331071414</ele>
        <time>2021-11-17T08:08:02Z</time>
      </trkpt>
      <trkpt lat="46.50959" lon="0.62944">
        <ele>74.604203823023</ele>
        <time>2021-11-17T08:08:04Z</time>
      </trkpt>
      <trkpt lat="46.50961" lon="0.62945">
        <ele>74.717973493971</ele>
        <time>2021-11-17T08:08:06Z</time>
      </trkpt>
      <trkpt lat="46.50963" lon="0.62945">
        <ele>74.683420854621</ele>
        <time>2021-11-17T08:08:08Z</time>
      </trkpt>
      <trkpt lat="46.50965" lon="0.62945">
        <ele>74.592226327397</ele>
        <time>2021-11-17T08:08:10Z</time>
      </trkpt>
      <trkpt lat="46.50968" lon="0.62946">
        <ele>74.901235762984</ele>
        <time>2021-11-17T08:08:12Z</time>
      </trkpt>
      <trkpt lat="46.5097" lon="0.62946">
        <ele>74.410694667138</ele>
        <time>2021-11-17T08:08:14Z</time>
      </trkpt>
      <trkpt lat="46.50972" lon="0.62947">
        <ele>74.723994662054</ele>
        <time>2021-11-17T08:08:16Z</time>
      </trkpt>
      <trkpt lat="46.50974" lon="0.62946">
        <ele>74.721153100021</ele>
        <time>2021-11-17T08:08:18Z</time>
      </trkpt>
      <trkpt lat="46.50976" lon="0.62944">
        <ele>74.615342487581</ele>
        <time>2021-11-17T08:08:20Z</time>
      </trkpt>
      <trkpt lat="46.50979" lon="0.62944">
        <ele>74.755032663234</ele>
        <time>2021-11-17T08:08:22Z</time>
      </trkpt>
      <trkpt lat="46.50981" lon="0.62943">
        <ele>74.824388656765</ele>
        <time>2021-11-17T08:08:24Z</time>
      </trkpt>
      <trkpt lat="46.50983" lon="0.62942">
        <ele>75.005837927572</ele>
        <time>2021-11-17T08:08:26Z</time>
      </trkpt>
      <trkpt lat="46.50985" lon="0.6294">
        <ele>74.982177324593</ele>
        <time>2021-11-17T08:08:28Z</time>
      </trkpt>
      <trkpt lat="46.50987" lon="0.62938">
        <ele>75.178872914053</ele>
        <time>2021-11-17T08:08:30Z</time>
      </trkpt>
      <trkpt lat="46.50989" lon="0.62937">
        <ele>75.861326487735</ele>
        <time>2021-11-17T08:08:32Z</time>
      </trkpt>
      <trkpt lat="46.5099" lon="0.62934">
        <ele>75.623515511863</ele>
        <time>2021-11-17T08:08:34Z</time>
      </trkpt>
      <trkpt lat="46.50992" lon="0.62931">
        <ele>75.932616243139</ele>
        <time>2021-11-17T08:08:36Z</time>
      </trkpt>
      <trkpt lat="46.50993" lon="0.62928">
        <ele>75.870924203657</ele>
        <time>2021-11-17T08:08:38Z</time>
      </trkpt>
      <trkpt lat="46.50995" lon="0.62924">
        <ele>76.199516447261</ele>
        <time>2021-11-17T08:08:40Z</time>
      </trkpt>
      <trkpt lat="46.50997" lon="0.62921">
        <ele>76.786797109991</ele>
        <time>2021-11-17T08:08:42Z</time>
      </trkpt>
      <trkpt lat="46.50999" lon="0.62917">
        <ele>76.903473217972</ele>
        <time>2021-11-17T08:08:44Z</time>
      </trkpt>
      <trkpt lat="46.51001" lon="0.62915">
        <ele>77.080668468028</ele>
        <time>2021-11-17T08:08:46Z</time>
      </trkpt>
      <trkpt lat="46.51004" lon="0.62914">
        <ele>77.381688577123</ele>
        <time>2021-11-17T08:08:48Z</time>
      </trkpt>
      <trkpt lat="46.51006" lon="0.62913">
        <ele>77.888016893528</ele>
        <time>2021-11-17T08:08:50Z</time>
      </trkpt>
      <trkpt lat="46.51009" lon="0.62911">
        <ele>77.892050617374</ele>
        <time>2021-11-17T08:08:52Z</time>
      </trkpt>
      <trkpt lat="46.5101" lon="0.62909">
        <ele>78.193306074478</ele>
        <time>2021-11-17T08:08:54Z</time>
      </trkpt>
      <trkpt lat="46.51013" lon="0.62907">
        <ele>78.037225835957</ele>
        <time>2021-11-17T08:08:56Z</time>
      </trkpt>
      <trkpt lat="46.51015" lon="0.62905">
        <ele>78.827830533497</ele>
        <time>2021-11-17T08:08:58Z</time>
      </trkpt>
      <trkpt lat="46.51018" lon="0.62904">
        <ele>78.724264209159</ele>
        <time>2021-11-17T08:09:00Z</time>
      </trkpt>
      <trkpt lat="46.51021" lon="0.62903">
        <ele>79.395474984311</ele>
        <time>2021-11-17T08:09:02Z</time>
      </trkpt>
      <trkpt lat="46.51023" lon="0.62901">
        <ele>79.130541888997</ele>
        <time>2021-11-17T08:09:04Z</time>
      </trkpt>
      <trkpt lat="46.51025" lon="0.629">
        <ele>79.26632827241</ele>
        <time>2021-11-17T08:09:06Z</time>
      </trkpt>
      <trkpt lat="46.51029" lon="0.62899">
        <ele>79.518808826804</ele>
        <time>2021-11-17T08:09:08Z</time>
      </trkpt>
      <trkpt lat="46.51031" lon="0.62899">
        <ele>79.808808218688</ele>
        <time>2021-11-17T08:09:10Z</time>
      </trkpt>
      <trkpt lat="46.51032" lon="0.62898">
        <ele>79.615941239521</ele>
        <time>2021-11-17T08:09:12Z</time>
      </trkpt>
      <trkpt lat="46.51035" lon="0.62898">
        <ele>79.885478117503</ele>
        <time>2021-11-17T08:09:14Z</time>
      </trkpt>
      <trkpt lat="46.51037" lon="0.62897">
        <ele>79.758686033078</ele>
        <time>2021-11-17T08:09:16Z</time>
      </trkpt>
      <trkpt lat="46.5104" lon="0.62896">
        <ele>80.312694236636</ele>
        <time>2021-11-17T08:09:18Z</time>
      </trkpt>
      <trkpt lat="46.51042" lon="0.62895">
        <ele>79.948008419015</ele>
        <time>2021-11-17T08:09:20Z</time>
      </trkpt>
      <trkpt lat="46.51045" lon="0.62893">
        <ele>79.760248521343</ele>
        <time>2021-11-17T08:09:22Z</time>
      </trkpt>
      <trkpt lat="46.51046" lon="0.62892">
        <ele>80.239445710555</ele>
        <time>2021-11-17T08:09:24Z</time>
      </trkpt>
      <trkpt lat="46.51049" lon="0.6289">
        <ele>80.475828225724</ele>
        <time>2021-11-17T08:09:26Z</time>
      </trkpt>
      <trkpt lat="46.51051" lon="0.62889">
        <ele>80.652460286394</ele>
        <time>2021-11-17T08:09:28Z</time>
      </trkpt>
      <trkpt lat="46.51054" lon="0.62888">
        <ele>80.403646064922</ele>
        <time>2021-11-17T08:09:30Z</time>
      </trkpt>
      <trkpt lat="46.51056" lon="0.62887">
        <ele>80.329884580337</ele>
        <time>2021-11-17T08:09:32Z</time>
      </trkpt>
      <trkpt lat="46.51058" lon="0.62885">
        <ele>80.747554456815</ele>
        <time>2021-11-17T08:09:34Z</time>
      </trkpt>
      <trkpt lat="46.5106" lon="0.62883">
        <ele>80.831975023262</ele>
        <time>2021-11-17T08:09:36Z</time>
      </trkpt>
      <trkpt lat="46.51063" lon="0.62881">
        <ele>81.305059667677</ele>
        <time>2021-11-17T08:09:38Z</time>
      </trkpt>
      <trkpt lat="46.51065" lon="0.62878">
        <ele>81.032371557318</ele>
        <time>2021-11-17T08:09:40Z</time>
      </trkpt>
      <trkpt lat="46.51065" lon="0.62875">
        <ele>81.162052947097</ele>
        <time>2021-11-17T08:09:42Z</time>
      </trkpt>
      <trkpt lat="46.51067" lon="0.62871">
        <ele>81.296381968074</ele>
        <time>2021-11-17T08:09:44Z</time>
      </trkpt>
      <trkpt lat="46.51068" lon="0.62869">
        <ele>81.616971869953</ele>
        <time>2021-11-17T08:09:46Z</time>
      </trkpt>
      <trkpt lat="46.51069" lon="0.62866">
        <ele>81.420624104328</ele>
        <time>2021-11-17T08:09:48Z</time>
      </trkpt>
      <trkpt lat="46.5107" lon="0.62863">
        <ele>81.593976743519</ele>
        <time>2021-11-17T08:09:50Z</time>
      </trkpt>
      <trkpt lat="46.5107" lon="0.6286">
        <ele>81.432197287679</ele>
        <time>2021-11-17T08:09:52Z</time>
      </trkpt>
      <trkpt lat="46.51071" lon="0.62857">
        <ele>81.84694778733</ele>
        <time>2021-11-17T08:09:54Z</time>
      </trkpt>
      <trkpt lat="46.51072" lon="0.62853">
        <ele>82.166510188952</ele>
        <time>2021-11-17T08:09:56Z</time>
      </trkpt>
      <trkpt lat="46.51072" lon="0.6285">
        <ele>82.128410888836</ele>
        <time>2021-11-17T08:09:57Z</time>
      </trkpt>
      <trkpt lat="46.51074" lon="0.62847">
        <ele>82.331817841157</ele>
        <time>2021-11-17T08:09:59Z</time>
      </trkpt>
      <trkpt lat="46.51074" lon="0.62843">
        <ele>82.64584013354</ele>
        <time>2021-11-17T08:10:01Z</time>
      </trkpt>
      <trkpt lat="46.51075" lon="0.6284">
        <ele>82.979587319307</ele>
        <time>2021-11-17T08:10:03Z</time>
      </trkpt>
      <trkpt lat="46.51076" lon="0.62837">
        <ele>82.672198929824</ele>
        <time>2021-11-17T08:10:05Z</time>
      </trkpt>
      <trkpt lat="46.51077" lon="0.62833">
        <ele>83.115988322534</ele>
        <time>2021-11-17T08:10:07Z</time>
      </trkpt>
      <trkpt lat="46.51078" lon="0.62829">
        <ele>83.421251407824</ele>
        <time>2021-11-17T08:10:09Z</time>
      </trkpt>
      <trkpt lat="46.51079" lon="0.62826">
        <ele>83.436881922185</ele>
        <time>2021-11-17T08:10:11Z</time>
      </trkpt>
      <trkpt lat="46.5108" lon="0.62824">
        <ele>83.639591749758</ele>
        <time>2021-11-17T08:10:13Z</time>
      </trkpt>
      <trkpt lat="46.51082" lon="0.62821">
        <ele>83.675084812567</ele>
        <time>2021-11-17T08:10:15Z</time>
      </trkpt>
      <trkpt lat="46.51083" lon="0.62818">
        <ele>83.80912000034</ele>
        <time>2021-11-17T08:10:17Z</time>
      </trkpt>
      <trkpt lat="46.51085" lon="0.62814">
        <ele>84.026058737189</ele>
        <time>2021-11-17T08:10:19Z</time>
      </trkpt>
      <trkpt lat="46.51087" lon="0.62811">
        <ele>84.328728142194</ele>
        <time>2021-11-17T08:10:21Z</time>
      </trkpt>
      <trkpt lat="46.51089" lon="0.62809">
        <ele>84.516271482222</ele>
        <time>2021-11-17T08:10:23Z</time>
      </trkpt>
      <trkpt lat="46.51092" lon="0.62808">
        <ele>84.4033942651</ele>
        <time>2021-11-17T08:10:25Z</time>
      </trkpt>
      <trkpt lat="46.51093" lon="0.62806">
        <ele>84.309236130677</ele>
        <time>2021-11-17T08:10:27Z</time>
      </trkpt>
      <trkpt lat="46.51096" lon="0.62803">
        <ele>84.814275106415</ele>
        <time>2021-11-17T08:10:29Z</time>
      </trkpt>
      <trkpt lat="46.51098" lon="0.62802">
        <ele>84.602544358</ele>
        <time>2021-11-17T08:10:31Z</time>
      </trkpt>
      <trkpt lat="46.51099" lon="0.628">
        <ele>84.833410699852</ele>
        <time>2021-11-17T08:10:32Z</time>
      </trkpt>
      <trkpt lat="46.51101" lon="0.62799">
        <ele>84.592415847816</ele>
        <time>2021-11-17T08:10:34Z</time>
      </trkpt>
      <trkpt lat="46.51104" lon="0.62797">
        <ele>84.948896510527</ele>
        <time>2021-11-17T08:10:36Z</time>
      </trkpt>
      <trkpt lat="46.51106" lon="0.62795">
        <ele>85.0319146486</ele>
        <time>2021-11-17T08:10:38Z</time>
      </trkpt>
      <trkpt lat="46.51109" lon="0.62793">
        <ele>85.259430747479</ele>
        <time>2021-11-17T08:10:40Z</time>
      </trkpt>
      <trkpt lat="46.51111" lon="0.6279">
        <ele>85.317708291113</ele>
        <time>2021-11-17T08:10:43Z</time>
      </trkpt>
      <trkpt lat="46.51112" lon="0.62788">
        <ele>85.091308126226</ele>
        <time>2021-11-17T08:10:45Z</time>
      </trkpt>
      <trkpt lat="46.51114" lon="0.62785">
        <ele>85.162761800922</ele>
        <time>2021-11-17T08:10:47Z</time>
      </trkpt>
      <trkpt lat="46.51116" lon="0.62783">
        <ele>85.384537306614</ele>
        <time>2021-11-17T08:10:49Z</time>
      </trkpt>
      <trkpt lat="46.51117" lon="0.62779">
        <ele>85.418513845652</ele>
        <time>2021-11-17T08:10:51Z</time>
      </trkpt>
      <trkpt lat="46.51118" lon="0.62777">
        <ele>85.347306812182</ele>
        <time>2021-11-17T08:10:53Z</time>
      </trkpt>
      <trkpt lat="46.51119" lon="0.62774">
        <ele>85.495249753818</ele>
        <time>2021-11-17T08:10:55Z</time>
      </trkpt>
      <trkpt lat="46.5112" lon="0.62771">
        <ele>86.068847866729</ele>
        <time>2021-11-17T08:10:57Z</time>
      </trkpt>
      <trkpt lat="46.51121" lon="0.62767">
        <ele>85.920998433605</ele>
        <time>2021-11-17T08:10:59Z</time>
      </trkpt>
      <trkpt lat="46.51122" lon="0.62764">
        <ele>86.140934416093</ele>
        <time>2021-11-17T08:11:01Z</time>
      </trkpt>
      <trkpt lat="46.51123" lon="0.62762">
        <ele>86.494373327121</ele>
        <time>2021-11-17T08:11:03Z</time>
      </trkpt>
      <trkpt lat="46.51125" lon="0.62758">
        <ele>86.451176556759</ele>
        <time>2021-11-17T08:11:05Z</time>
      </trkpt>
      <trkpt lat="46.51126" lon="0.62755">
        <ele>86.711727567948</ele>
        <time>2021-11-17T08:11:07Z</time>
      </trkpt>
      <trkpt lat="46.51127" lon="0.62752">
        <ele>86.791667128913</ele>
        <time>2021-11-17T08:11:09Z</time>
      </trkpt>
      <trkpt lat="46.51127" lon="0.62749">
        <ele>86.752279391512</ele>
        <time>2021-11-17T08:11:11Z</time>
      </trkpt>
      <trkpt lat="46.51129" lon="0.62747">
        <ele>87.425149098039</ele>
        <time>2021-11-17T08:11:13Z</time>
      </trkpt>
      <trkpt lat="46.51129" lon="0.62743">
        <ele>87.376284922473</ele>
        <time>2021-11-17T08:11:15Z</time>
      </trkpt>
      <trkpt lat="46.5113" lon="0.62741">
        <ele>87.702635132708</ele>
        <time>2021-11-17T08:11:16Z</time>
      </trkpt>
      <trkpt lat="46.51131" lon="0.62738">
        <ele>87.41305764392</ele>
        <time>2021-11-17T08:11:18Z</time>
      </trkpt>
      <trkpt lat="46.51132" lon="0.62734">
        <ele>87.917805379257</ele>
        <time>2021-11-17T08:11:20Z</time>
      </trkpt>
      <trkpt lat="46.51132" lon="0.62731">
        <ele>88.286944333464</ele>
        <time>2021-11-17T08:11:22Z</time>
      </trkpt>
      <trkpt lat="46.51133" lon="0.62728">
        <ele>88.12266388908</ele>
        <time>2021-11-17T08:11:24Z</time>
      </trkpt>
      <trkpt lat="46.51134" lon="0.62726">
        <ele>88.357024004683</ele>
        <time>2021-11-17T08:11:26Z</time>
      </trkpt>
      <trkpt lat="46.51136" lon="0.62722">
        <ele>88.611719344743</ele>
        <time>2021-11-17T08:11:28Z</time>
      </trkpt>
      <trkpt lat="46.51136" lon="0.62718">
        <ele>88.533548922278</ele>
        <time>2021-11-17T08:11:30Z</time>
      </trkpt>
      <trkpt lat="46.51137" lon="0.62715">
        <ele>88.676570269279</ele>
        <time>2021-11-17T08:11:32Z</time>
      </trkpt>
      <trkpt lat="46.51138" lon="0.62712">
        <ele>88.848166038282</ele>
        <time>2021-11-17T08:11:34Z</time>
      </trkpt>
      <trkpt lat="46.51139" lon="0.62709">
        <ele>89.226825416088</ele>
        <time>2021-11-17T08:11:36Z</time>
      </trkpt>
      <trkpt lat="46.5114" lon="0.62705">
        <ele>89.628888668492</ele>
        <time>2021-11-17T08:11:38Z</time>
      </trkpt>
      <trkpt lat="46.51142" lon="0.62702">
        <ele>89.598066695966</ele>
        <time>2021-11-17T08:11:40Z</time>
      </trkpt>
      <trkpt lat="46.51143" lon="0.62698">
        <ele>89.5773069961</ele>
        <time>2021-11-17T08:11:42Z</time>
      </trkpt>
      <trkpt lat="46.51144" lon="0.62696">
        <ele>89.99094700627</ele>
        <time>2021-11-17T08:11:44Z</time>
      </trkpt>
      <trkpt lat="46.51146" lon="0.62692">
        <ele>90.389652182348</ele>
        <time>2021-11-17T08:11:46Z</time>
      </trkpt>
      <trkpt lat="46.51148" lon="0.62689">
        <ele>90.657122150995</ele>
        <time>2021-11-17T08:11:48Z</time>
      </trkpt>
      <trkpt lat="46.51149" lon="0.62686">
        <ele>90.693110965192</ele>
        <time>2021-11-17T08:11:50Z</time>
      </trkpt>
      <trkpt lat="46.5115" lon="0.62684">
        <ele>90.863849494606</ele>
        <time>2021-11-17T08:11:52Z</time>
      </trkpt>
      <trkpt lat="46.5115" lon="0.6268">
        <ele>91.169739924371</ele>
        <time>2021-11-17T08:11:54Z</time>
      </trkpt>
      <trkpt lat="46.51152" lon="0.62677">
        <ele>91.200568986125</ele>
        <time>2021-11-17T08:11:56Z</time>
      </trkpt>
      <trkpt lat="46.51153" lon="0.62674">
        <ele>91.481608358212</ele>
        <time>2021-11-17T08:11:58Z</time>
      </trkpt>
      <trkpt lat="46.51155" lon="0.62671">
        <ele>92.042635969818</ele>
        <time>2021-11-17T08:12:00Z</time>
      </trkpt>
      <trkpt lat="46.51156" lon="0.62668">
        <ele>91.654568637721</ele>
        <time>2021-11-17T08:12:02Z</time>
      </trkpt>
      <trkpt lat="46.51157" lon="0.62665">
        <ele>92.310660149902</ele>
        <time>2021-11-17T08:12:05Z</time>
      </trkpt>
      <trkpt lat="46.51158" lon="0.62662">
        <ele>92.374750239775</ele>
        <time>2021-11-17T08:12:07Z</time>
      </trkpt>
      <trkpt lat="46.5116" lon="0.6266">
        <ele>92.444355128333</ele>
        <time>2021-11-17T08:12:09Z</time>
      </trkpt>
      <trkpt lat="46.51162" lon="0.62657">
        <ele>92.367585790344</ele>
        <time>2021-11-17T08:12:11Z</time>
      </trkpt>
      <trkpt lat="46.51163" lon="0.62654">
        <ele>92.877814494073</ele>
        <time>2021-11-17T08:12:13Z</time>
      </trkpt>
      <trkpt lat="46.51164" lon="0.62651">
        <ele>93.146251309663</ele>
        <time>2021-11-17T08:12:15Z</time>
      </trkpt>
      <trkpt lat="46.51167" lon="0.62649">
        <ele>93.120029240847</ele>
        <time>2021-11-17T08:12:17Z</time>
      </trkpt>
      <trkpt lat="46.51168" lon="0.62648">
        <ele>93.243428650312</ele>
        <time>2021-11-17T08:12:19Z</time>
      </trkpt>
      <trkpt lat="46.5117" lon="0.62646">
        <ele>93.062289216556</ele>
        <time>2021-11-17T08:12:20Z</time>
      </trkpt>
      <trkpt lat="46.51171" lon="0.62643">
        <ele>93.351468686014</ele>
        <time>2021-11-17T08:12:23Z</time>
      </trkpt>
      <trkpt lat="46.51173" lon="0.6264">
        <ele>93.798704587854</ele>
        <time>2021-11-17T08:12:26Z</time>
      </trkpt>
      <trkpt lat="46.51174" lon="0.62638">
        <ele>93.574602393433</ele>
        <time>2021-11-17T08:12:28Z</time>
      </trkpt>
      <trkpt lat="46.51176" lon="0.62636">
        <ele>93.788141401485</ele>
        <time>2021-11-17T08:12:30Z</time>
      </trkpt>
      <trkpt lat="46.51177" lon="0.62632">
        <ele>94.618676573969</ele>
        <time>2021-11-17T08:12:32Z</time>
      </trkpt>
      <trkpt lat="46.51179" lon="0.62629">
        <ele>94.076773196459</ele>
        <time>2021-11-17T08:12:34Z</time>
      </trkpt>
      <trkpt lat="46.5118" lon="0.62626">
        <ele>94.420534452423</ele>
        <time>2021-11-17T08:12:37Z</time>
      </trkpt>
      <trkpt lat="46.51181" lon="0.62623">
        <ele>94.905161140487</ele>
        <time>2021-11-17T08:12:39Z</time>
      </trkpt>
      <trkpt lat="46.51183" lon="0.6262">
        <ele>94.821624576114</ele>
        <time>2021-11-17T08:12:41Z</time>
      </trkpt>
      <trkpt lat="46.51184" lon="0.62616">
        <ele>95.236635308713</ele>
        <time>2021-11-17T08:12:43Z</time>
      </trkpt>
      <trkpt lat="46.51186" lon="0.62613">
        <ele>95.322377587669</ele>
        <time>2021-11-17T08:12:46Z</time>
      </trkpt>
      <trkpt lat="46.51188" lon="0.62611">
        <ele>96.169038354419</ele>
        <time>2021-11-17T08:12:48Z</time>
      </trkpt>
      <trkpt lat="46.5119" lon="0.62607">
        <ele>95.984235508367</ele>
        <time>2021-11-17T08:12:51Z</time>
      </trkpt>
      <trkpt lat="46.51191" lon="0.62604">
        <ele>96.01539873518</ele>
        <time>2021-11-17T08:12:53Z</time>
      </trkpt>
      <trkpt lat="46.51193" lon="0.62601">
        <ele>96.398668084294</ele>
        <time>2021-11-17T08:12:55Z</time>
      </trkpt>
      <trkpt lat="46.51195" lon="0.62598">
        <ele>96.398924385197</ele>
        <time>2021-11-17T08:12:57Z</time>
      </trkpt>
      <trkpt lat="46.51196" lon="0.62595">
        <ele>96.804275488481</ele>
        <time>2021-11-17T08:12:59Z</time>
      </trkpt>
      <trkpt lat="46.51198" lon="0.62593">
        <ele>96.66718270909</ele>
        <time>2021-11-17T08:13:01Z</time>
      </trkpt>
      <trkpt lat="46.512" lon="0.62591">
        <ele>97.411945291795</ele>
        <time>2021-11-17T08:13:03Z</time>
      </trkpt>
      <trkpt lat="46.51201" lon="0.62588">
        <ele>97.030751571991</ele>
        <time>2021-11-17T08:13:05Z</time>
      </trkpt>
      <trkpt lat="46.51202" lon="0.62586">
        <ele>97.443221697584</ele>
        <time>2021-11-17T08:13:07Z</time>
      </trkpt>
      <trkpt lat="46.51204" lon="0.62583">
        <ele>97.557612709701</ele>
        <time>2021-11-17T08:13:09Z</time>
      </trkpt>
      <trkpt lat="46.51206" lon="0.6258">
        <ele>97.561027737334</ele>
        <time>2021-11-17T08:13:11Z</time>
      </trkpt>
      <trkpt lat="46.51207" lon="0.62577">
        <ele>98.059511069208</ele>
        <time>2021-11-17T08:13:13Z</time>
      </trkpt>
      <trkpt lat="46.51208" lon="0.62575">
        <ele>98.622589243576</ele>
        <time>2021-11-17T08:13:15Z</time>
      </trkpt>
      <trkpt lat="46.5121" lon="0.62572">
        <ele>98.283804005012</ele>
        <time>2021-11-17T08:13:17Z</time>
      </trkpt>
      <trkpt lat="46.51211" lon="0.6257">
        <ele>99.114149812609</ele>
        <time>2021-11-17T08:13:19Z</time>
      </trkpt>
      <trkpt lat="46.51214" lon="0.62567">
        <ele>98.67264523264</ele>
        <time>2021-11-17T08:13:21Z</time>
      </trkpt>
      <trkpt lat="46.51215" lon="0.62564">
        <ele>99.288385249674</ele>
        <time>2021-11-17T08:13:23Z</time>
      </trkpt>
      <trkpt lat="46.51217" lon="0.62562">
        <ele>99.21403756924</ele>
        <time>2021-11-17T08:13:25Z</time>
      </trkpt>
      <trkpt lat="46.51218" lon="0.62559">
        <ele>99.138019777834</ele>
        <time>2021-11-17T08:13:27Z</time>
      </trkpt>
      <trkpt lat="46.5122" lon="0.62558">
        <ele>99.385083226487</ele>
        <time>2021-11-17T08:13:28Z</time>
      </trkpt>
      <trkpt lat="46.51221" lon="0.62556">
        <ele>99.15794947464</ele>
        <time>2021-11-17T08:13:30Z</time>
      </trkpt>
      <trkpt lat="46.51223" lon="0.62553">
        <ele>99.877837829292</ele>
        <time>2021-11-17T08:13:32Z</time>
      </trkpt>
      <trkpt lat="46.51224" lon="0.6255">
        <ele>99.882217364386</ele>
        <time>2021-11-17T08:13:34Z</time>
      </trkpt>
      <trkpt lat="46.51226" lon="0.62548">
        <ele>99.880621347576</ele>
        <time>2021-11-17T08:13:36Z</time>
      </trkpt>
      <trkpt lat="46.51228" lon="0.62544">
        <ele>99.819739108905</ele>
        <time>2021-11-17T08:13:38Z</time>
      </trkpt>
      <trkpt lat="46.51229" lon="0.62541">
        <ele>100.70086682867</ele>
        <time>2021-11-17T08:13:40Z</time>
      </trkpt>
      <trkpt lat="46.5123" lon="0.62538">
        <ele>99.992949740961</ele>
        <time>2021-11-17T08:13:42Z</time>
      </trkpt>
      <trkpt lat="46.51231" lon="0.62535">
        <ele>100.37718760967</ele>
        <time>2021-11-17T08:13:44Z</time>
      </trkpt>
      <trkpt lat="46.51233" lon="0.62532">
        <ele>99.963442023844</ele>
        <time>2021-11-17T08:13:46Z</time>
      </trkpt>
      <trkpt lat="46.51233" lon="0.62529">
        <ele>100.03323719185</ele>
        <time>2021-11-17T08:13:48Z</time>
      </trkpt>
      <trkpt lat="46.51234" lon="0.62527">
        <ele>100.3922950644</ele>
        <time>2021-11-17T08:13:50Z</time>
      </trkpt>
      <trkpt lat="46.51236" lon="0.62523">
        <ele>99.905599093996</ele>
        <time>2021-11-17T08:13:52Z</time>
      </trkpt>
      <trkpt lat="46.51238" lon="0.6252">
        <ele>100.24239333719</ele>
        <time>2021-11-17T08:13:54Z</time>
      </trkpt>
      <trkpt lat="46.51239" lon="0.62517">
        <ele>99.962073841132</ele>
        <time>2021-11-17T08:13:56Z</time>
      </trkpt>
      <trkpt lat="46.51241" lon="0.62514">
        <ele>100.02871335763</ele>
        <time>2021-11-17T08:13:58Z</time>
      </trkpt>
      <trkpt lat="46.51242" lon="0.62511">
        <ele>100.41740689985</ele>
        <time>2021-11-17T08:14:00Z</time>
      </trkpt>
      <trkpt lat="46.51243" lon="0.62508">
        <ele>100.28403130919</ele>
        <time>2021-11-17T08:14:02Z</time>
      </trkpt>
      <trkpt lat="46.51245" lon="0.62505">
        <ele>100.59686046187</ele>
        <time>2021-11-17T08:14:04Z</time>
      </trkpt>
      <trkpt lat="46.51246" lon="0.62502">
        <ele>100.61386707332</ele>
        <time>2021-11-17T08:14:06Z</time>
      </trkpt>
      <trkpt lat="46.51247" lon="0.62499">
        <ele>100.61034927331</ele>
        <time>2021-11-17T08:14:08Z</time>
      </trkpt>
      <trkpt lat="46.51248" lon="0.62495">
        <ele>100.64847952873</ele>
        <time>2021-11-17T08:14:10Z</time>
      </trkpt>
      <trkpt lat="46.5125" lon="0.62492">
        <ele>100.5258845659</ele>
        <time>2021-11-17T08:14:12Z</time>
      </trkpt>
      <trkpt lat="46.51251" lon="0.62489">
        <ele>100.73166812211</ele>
        <time>2021-11-17T08:14:14Z</time>
      </trkpt>
      <trkpt lat="46.51252" lon="0.62486">
        <ele>100.86756190844</ele>
        <time>2021-11-17T08:14:16Z</time>
      </trkpt>
      <trkpt lat="46.51254" lon="0.62483">
        <ele>100.99575343262</ele>
        <time>2021-11-17T08:14:18Z</time>
      </trkpt>
      <trkpt lat="46.51255" lon="0.6248">
        <ele>100.76811507437</ele>
        <time>2021-11-17T08:14:20Z</time>
      </trkpt>
      <trkpt lat="46.51257" lon="0.62477">
        <ele>101.16765903309</ele>
        <time>2021-11-17T08:14:22Z</time>
      </trkpt>
      <trkpt lat="46.51259" lon="0.62474">
        <ele>101.39949140698</ele>
        <time>2021-11-17T08:14:24Z</time>
      </trkpt>
      <trkpt lat="46.51259" lon="0.6247">
        <ele>101.24806231074</ele>
        <time>2021-11-17T08:14:26Z</time>
      </trkpt>
      <trkpt lat="46.51261" lon="0.62467">
        <ele>101.39969487209</ele>
        <time>2021-11-17T08:14:28Z</time>
      </trkpt>
      <trkpt lat="46.51262" lon="0.62464">
        <ele>101.65270639677</ele>
        <time>2021-11-17T08:14:30Z</time>
      </trkpt>
      <trkpt lat="46.51264" lon="0.6246">
        <ele>101.87948773243</ele>
        <time>2021-11-17T08:14:32Z</time>
      </trkpt>
      <trkpt lat="46.51265" lon="0.62458">
        <ele>101.7366923485</ele>
        <time>2021-11-17T08:14:34Z</time>
      </trkpt>
      <trkpt lat="46.51266" lon="0.62455">
        <ele>102.005532749</ele>
        <time>2021-11-17T08:14:36Z</time>
      </trkpt>
      <trkpt lat="46.51267" lon="0.62452">
        <ele>102.01015702635</ele>
        <time>2021-11-17T08:14:38Z</time>
      </trkpt>
      <trkpt lat="46.51269" lon="0.62449">
        <ele>102.04527536407</ele>
        <time>2021-11-17T08:14:40Z</time>
      </trkpt>
      <trkpt lat="46.51271" lon="0.62446">
        <ele>102.30094424076</ele>
        <time>2021-11-17T08:14:42Z</time>
      </trkpt>
      <trkpt lat="46.51273" lon="0.62443">
        <ele>102.19233123306</ele>
        <time>2021-11-17T08:14:44Z</time>
      </trkpt>
      <trkpt lat="46.51274" lon="0.6244">
        <ele>102.53393843677</ele>
        <time>2021-11-17T08:14:47Z</time>
      </trkpt>
      <trkpt lat="46.51275" lon="0.62437">
        <ele>102.78335094638</ele>
        <time>2021-11-17T08:14:49Z</time>
      </trkpt>
      <trkpt lat="46.51276" lon="0.62434">
        <ele>102.95590374526</ele>
        <time>2021-11-17T08:14:51Z</time>
      </trkpt>
      <trkpt lat="46.51277" lon="0.62431">
        <ele>102.8604480233</ele>
        <time>2021-11-17T08:14:53Z</time>
      </trkpt>
      <trkpt lat="46.51278" lon="0.62428">
        <ele>103.41704706289</ele>
        <time>2021-11-17T08:14:55Z</time>
      </trkpt>
      <trkpt lat="46.5128" lon="0.62426">
        <ele>103.43044721056</ele>
        <time>2021-11-17T08:14:57Z</time>
      </trkpt>
      <trkpt lat="46.51281" lon="0.62423">
        <ele>103.55714394804</ele>
        <time>2021-11-17T08:14:59Z</time>
      </trkpt>
      <trkpt lat="46.51282" lon="0.62421">
        <ele>103.64264629781</ele>
        <time>2021-11-17T08:15:01Z</time>
      </trkpt>
      <trkpt lat="46.51284" lon="0.62418">
        <ele>103.60318234749</ele>
        <time>2021-11-17T08:15:03Z</time>
      </trkpt>
      <trkpt lat="46.51284" lon="0.62415">
        <ele>104.10230148211</ele>
        <time>2021-11-17T08:15:05Z</time>
      </trkpt>
      <trkpt lat="46.51286" lon="0.62413">
        <ele>103.78152942564</ele>
        <time>2021-11-17T08:15:06Z</time>
      </trkpt>
      <trkpt lat="46.51287" lon="0.6241">
        <ele>104.52236867603</ele>
        <time>2021-11-17T08:15:08Z</time>
      </trkpt>
      <trkpt lat="46.51288" lon="0.62408">
        <ele>104.25348372944</ele>
        <time>2021-11-17T08:15:10Z</time>
      </trkpt>
      <trkpt lat="46.51289" lon="0.62404">
        <ele>104.61144078989</ele>
        <time>2021-11-17T08:15:12Z</time>
      </trkpt>
      <trkpt lat="46.5129" lon="0.62401">
        <ele>104.67848371249</ele>
        <time>2021-11-17T08:15:14Z</time>
      </trkpt>
      <trkpt lat="46.51291" lon="0.62397">
        <ele>105.06534675974</ele>
        <time>2021-11-17T08:15:16Z</time>
      </trkpt>
      <trkpt lat="46.51291" lon="0.62394">
        <ele>105.25172067806</ele>
        <time>2021-11-17T08:15:18Z</time>
      </trkpt>
      <trkpt lat="46.51291" lon="0.62391">
        <ele>105.12692684121</ele>
        <time>2021-11-17T08:15:20Z</time>
      </trkpt>
      <trkpt lat="46.51291" lon="0.62387">
        <ele>105.40148728434</ele>
        <time>2021-11-17T08:15:22Z</time>
      </trkpt>
      <trkpt lat="46.51291" lon="0.62383">
        <ele>105.35735232662</ele>
        <time>2021-11-17T08:15:24Z</time>
      </trkpt>
      <trkpt lat="46.51292" lon="0.6238">
        <ele>105.85846549738</ele>
        <time>2021-11-17T08:15:26Z</time>
      </trkpt>
      <trkpt lat="46.51292" lon="0.62377">
        <ele>105.70546748117</ele>
        <time>2021-11-17T08:15:28Z</time>
      </trkpt>
      <trkpt lat="46.51293" lon="0.62372">
        <ele>106.19151238538</ele>
        <time>2021-11-17T08:15:30Z</time>
      </trkpt>
      <trkpt lat="46.51293" lon="0.62369">
        <ele>106.66537715402</ele>
        <time>2021-11-17T08:15:32Z</time>
      </trkpt>
      <trkpt lat="46.51293" lon="0.62366">
        <ele>106.46182572469</ele>
        <time>2021-11-17T08:15:34Z</time>
      </trkpt>
      <trkpt lat="46.51292" lon="0.62362">
        <ele>106.60376503877</ele>
        <time>2021-11-17T08:15:37Z</time>
      </trkpt>
      <trkpt lat="46.51293" lon="0.62358">
        <ele>106.72550685052</ele>
        <time>2021-11-17T08:15:39Z</time>
      </trkpt>
      <trkpt lat="46.51292" lon="0.62354">
        <ele>106.92751052603</ele>
        <time>2021-11-17T08:15:42Z</time>
      </trkpt>
      <trkpt lat="46.51292" lon="0.6235">
        <ele>107.26206468139</ele>
        <time>2021-11-17T08:15:44Z</time>
      </trkpt>
      <trkpt lat="46.51293" lon="0.62346">
        <ele>107.11504442431</ele>
        <time>2021-11-17T08:15:46Z</time>
      </trkpt>
      <trkpt lat="46.51293" lon="0.62343">
        <ele>107.83179816231</ele>
        <time>2021-11-17T08:15:48Z</time>
      </trkpt>
      <trkpt lat="46.51294" lon="0.62341">
        <ele>107.73074602522</ele>
        <time>2021-11-17T08:15:50Z</time>
      </trkpt>
      <trkpt lat="46.51295" lon="0.62337">
        <ele>108.20646429155</ele>
        <time>2021-11-17T08:15:52Z</time>
      </trkpt>
      <trkpt lat="46.51295" lon="0.62332">
        <ele>108.06673363317</ele>
        <time>2021-11-17T08:15:54Z</time>
      </trkpt>
      <trkpt lat="46.51295" lon="0.62329">
        <ele>109.02950526215</ele>
        <time>2021-11-17T08:15:57Z</time>
      </trkpt>
      <trkpt lat="46.51296" lon="0.62326">
        <ele>108.67429010756</ele>
        <time>2021-11-17T08:15:59Z</time>
      </trkpt>
      <trkpt lat="46.51297" lon="0.62322">
        <ele>109.14140138775</ele>
        <time>2021-11-17T08:16:01Z</time>
      </trkpt>
      <trkpt lat="46.51298" lon="0.62319">
        <ele>109.0844967179</ele>
        <time>2021-11-17T08:16:03Z</time>
      </trkpt>
      <trkpt lat="46.51299" lon="0.62315">
        <ele>109.64210724086</ele>
        <time>2021-11-17T08:16:05Z</time>
      </trkpt>
      <trkpt lat="46.51299" lon="0.62313">
        <ele>109.18004372902</ele>
        <time>2021-11-17T08:16:07Z</time>
      </trkpt>
      <trkpt lat="46.513" lon="0.62309">
        <ele>109.51174195856</ele>
        <time>2021-11-17T08:16:09Z</time>
      </trkpt>
      <trkpt lat="46.51301" lon="0.62307">
        <ele>109.56517889258</ele>
        <time>2021-11-17T08:16:10Z</time>
      </trkpt>
      <trkpt lat="46.51302" lon="0.62302">
        <ele>109.55345166102</ele>
        <time>2021-11-17T08:16:13Z</time>
      </trkpt>
      <trkpt lat="46.51303" lon="0.623">
        <ele>109.71968817711</ele>
        <time>2021-11-17T08:16:15Z</time>
      </trkpt>
      <trkpt lat="46.51305" lon="0.62297">
        <ele>109.78371816035</ele>
        <time>2021-11-17T08:16:17Z</time>
      </trkpt>
      <trkpt lat="46.51306" lon="0.62292">
        <ele>109.89737125486</ele>
        <time>2021-11-17T08:16:19Z</time>
      </trkpt>
      <trkpt lat="46.51307" lon="0.6229">
        <ele>110.50735054165</ele>
        <time>2021-11-17T08:16:21Z</time>
      </trkpt>
      <trkpt lat="46.51309" lon="0.62286">
        <ele>110.31620555371</ele>
        <time>2021-11-17T08:16:23Z</time>
      </trkpt>
      <trkpt lat="46.5131" lon="0.62284">
        <ele>110.78028418496</ele>
        <time>2021-11-17T08:16:25Z</time>
      </trkpt>
      <trkpt lat="46.51312" lon="0.6228">
        <ele>110.79590851348</ele>
        <time>2021-11-17T08:16:27Z</time>
      </trkpt>
      <trkpt lat="46.51313" lon="0.62277">
        <ele>111.02497270703</ele>
        <time>2021-11-17T08:16:29Z</time>
      </trkpt>
      <trkpt lat="46.51315" lon="0.62274">
        <ele>111.68527446687</ele>
        <time>2021-11-17T08:16:31Z</time>
      </trkpt>
      <trkpt lat="46.51316" lon="0.62271">
        <ele>111.54849973693</ele>
        <time>2021-11-17T08:16:33Z</time>
      </trkpt>
      <trkpt lat="46.51318" lon="0.62269">
        <ele>111.81304903235</ele>
        <time>2021-11-17T08:16:35Z</time>
      </trkpt>
      <trkpt lat="46.51319" lon="0.62265">
        <ele>111.3711546436</ele>
        <time>2021-11-17T08:16:37Z</time>
      </trkpt>
      <trkpt lat="46.51321" lon="0.62263">
        <ele>112.22762747668</ele>
        <time>2021-11-17T08:16:39Z</time>
      </trkpt>
      <trkpt lat="46.51323" lon="0.6226">
        <ele>112.3224790981</ele>
        <time>2021-11-17T08:16:41Z</time>
      </trkpt>
      <trkpt lat="46.51325" lon="0.62258">
        <ele>112.33477300312</ele>
        <time>2021-11-17T08:16:43Z</time>
      </trkpt>
      <trkpt lat="46.51327" lon="0.62255">
        <ele>112.05945196748</ele>
        <time>2021-11-17T08:16:45Z</time>
      </trkpt>
      <trkpt lat="46.51329" lon="0.62252">
        <ele>112.17698468734</ele>
        <time>2021-11-17T08:16:47Z</time>
      </trkpt>
      <trkpt lat="46.51331" lon="0.6225">
        <ele>112.34419128764</ele>
        <time>2021-11-17T08:16:49Z</time>
      </trkpt>
      <trkpt lat="46.51333" lon="0.62248">
        <ele>112.72856888827</ele>
        <time>2021-11-17T08:16:51Z</time>
      </trkpt>
      <trkpt lat="46.51335" lon="0.62245">
        <ele>112.52341356222</ele>
        <time>2021-11-17T08:16:53Z</time>
      </trkpt>
      <trkpt lat="46.51336" lon="0.62243">
        <ele>112.88749871869</ele>
        <time>2021-11-17T08:16:55Z</time>
      </trkpt>
      <trkpt lat="46.51338" lon="0.62241">
        <ele>112.63669910468</ele>
        <time>2021-11-17T08:16:57Z</time>
      </trkpt>
      <trkpt lat="46.5134" lon="0.62238">
        <ele>112.84331603069</ele>
        <time>2021-11-17T08:16:59Z</time>
      </trkpt>
      <trkpt lat="46.51341" lon="0.62236">
        <ele>113.18945591338</ele>
        <time>2021-11-17T08:17:01Z</time>
      </trkpt>
      <trkpt lat="46.51343" lon="0.62233">
        <ele>113.30241271853</ele>
        <time>2021-11-17T08:17:03Z</time>
      </trkpt>
      <trkpt lat="46.51344" lon="0.62231">
        <ele>113.26565867476</ele>
        <time>2021-11-17T08:17:05Z</time>
      </trkpt>
      <trkpt lat="46.51346" lon="0.62228">
        <ele>113.28215407487</ele>
        <time>2021-11-17T08:17:07Z</time>
      </trkpt>
      <trkpt lat="46.51348" lon="0.62226">
        <ele>113.21786233876</ele>
        <time>2021-11-17T08:17:09Z</time>
      </trkpt>
      <trkpt lat="46.5135" lon="0.62223">
        <ele>113.44048336893</ele>
        <time>2021-11-17T08:17:11Z</time>
      </trkpt>
      <trkpt lat="46.51352" lon="0.62221">
        <ele>113.37141891476</ele>
        <time>2021-11-17T08:17:13Z</time>
      </trkpt>
      <trkpt lat="46.51354" lon="0.62219">
        <ele>113.90059314203</ele>
        <time>2021-11-17T08:17:15Z</time>
      </trkpt>
      <trkpt lat="46.51356" lon="0.62216">
        <ele>113.85328445211</ele>
        <time>2021-11-17T08:17:17Z</time>
      </trkpt>
      <trkpt lat="46.51357" lon="0.62214">
        <ele>113.76320522372</ele>
        <time>2021-11-17T08:17:18Z</time>
      </trkpt>
      <trkpt lat="46.51358" lon="0.62212">
        <ele>113.92668101192</ele>
        <time>2021-11-17T08:17:20Z</time>
      </trkpt>
      <trkpt lat="46.51361" lon="0.6221">
        <ele>114.44679554645</ele>
        <time>2021-11-17T08:17:22Z</time>
      </trkpt>
      <trkpt lat="46.51362" lon="0.62207">
        <ele>114.14924246818</ele>
        <time>2021-11-17T08:17:24Z</time>
      </trkpt>
      <trkpt lat="46.51364" lon="0.62205">
        <ele>114.4787927391</ele>
        <time>2021-11-17T08:17:26Z</time>
      </trkpt>
      <trkpt lat="46.51366" lon="0.62203">
        <ele>114.59158088826</ele>
        <time>2021-11-17T08:17:28Z</time>
      </trkpt>
      <trkpt lat="46.51368" lon="0.622">
        <ele>114.66742597613</ele>
        <time>2021-11-17T08:17:30Z</time>
      </trkpt>
      <trkpt lat="46.5137" lon="0.62198">
        <ele>114.83432717621</ele>
        <time>2021-11-17T08:17:32Z</time>
      </trkpt>
      <trkpt lat="46.51372" lon="0.62196">
        <ele>115.90274528507</ele>
        <time>2021-11-17T08:17:34Z</time>
      </trkpt>
      <trkpt lat="46.51373" lon="0.62194">
        <ele>115.19274881296</ele>
        <time>2021-11-17T08:17:36Z</time>
      </trkpt>
      <trkpt lat="46.51375" lon="0.62191">
        <ele>115.69143103901</ele>
        <time>2021-11-17T08:17:38Z</time>
      </trkpt>
      <trkpt lat="46.51376" lon="0.62189">
        <ele>115.44253603369</ele>
        <time>2021-11-17T08:17:39Z</time>
      </trkpt>
      <trkpt lat="46.51378" lon="0.62185">
        <ele>115.55901651364</ele>
        <time>2021-11-17T08:17:42Z</time>
      </trkpt>
      <trkpt lat="46.51381" lon="0.62181">
        <ele>116.18767547607</ele>
        <time>2021-11-17T08:17:45Z</time>
      </trkpt>
      <trkpt lat="46.51382" lon="0.62177">
        <ele>115.924996824</ele>
        <time>2021-11-17T08:17:47Z</time>
      </trkpt>
      <trkpt lat="46.51383" lon="0.62174">
        <ele>116.39855871163</ele>
        <time>2021-11-17T08:17:49Z</time>
      </trkpt>
      <trkpt lat="46.51384" lon="0.62172">
        <ele>116.16694324929</ele>
        <time>2021-11-17T08:17:51Z</time>
      </trkpt>
      <trkpt lat="46.51386" lon="0.62168">
        <ele>116.52273846418</ele>
        <time>2021-11-17T08:17:53Z</time>
      </trkpt>
      <trkpt lat="46.51388" lon="0.62165">
        <ele>117.10779845901</ele>
        <time>2021-11-17T08:17:56Z</time>
      </trkpt>
      <trkpt lat="46.5139" lon="0.62163">
        <ele>117.25349248294</ele>
        <time>2021-11-17T08:17:57Z</time>
      </trkpt>
      <trkpt lat="46.51391" lon="0.62159">
        <ele>117.10411868058</ele>
        <time>2021-11-17T08:18:00Z</time>
      </trkpt>
      <trkpt lat="46.51392" lon="0.62156">
        <ele>117.40235239826</ele>
        <time>2021-11-17T08:18:02Z</time>
      </trkpt>
      <trkpt lat="46.51393" lon="0.62152">
        <ele>117.44494148996</ele>
        <time>2021-11-17T08:18:04Z</time>
      </trkpt>
      <trkpt lat="46.51394" lon="0.6215">
        <ele>117.47838366963</ele>
        <time>2021-11-17T08:18:06Z</time>
      </trkpt>
      <trkpt lat="46.51395" lon="0.62146">
        <ele>118.23941481486</ele>
        <time>2021-11-17T08:18:08Z</time>
      </trkpt>
      <trkpt lat="46.51395" lon="0.62143">
        <ele>117.87547430024</ele>
        <time>2021-11-17T08:18:10Z</time>
      </trkpt>
      <trkpt lat="46.51397" lon="0.62139">
        <ele>118.11685171165</ele>
        <time>2021-11-17T08:18:12Z</time>
      </trkpt>
      <trkpt lat="46.51398" lon="0.62136">
        <ele>118.53750062548</ele>
        <time>2021-11-17T08:18:14Z</time>
      </trkpt>
      <trkpt lat="46.51399" lon="0.62133">
        <ele>118.49231751077</ele>
        <time>2021-11-17T08:18:16Z</time>
      </trkpt>
      <trkpt lat="46.51399" lon="0.62129">
        <ele>118.90988693014</ele>
        <time>2021-11-17T08:18:18Z</time>
      </trkpt>
      <trkpt lat="46.51401" lon="0.62127">
        <ele>119.24411337078</ele>
        <time>2021-11-17T08:18:20Z</time>
      </trkpt>
      <trkpt lat="46.51402" lon="0.62123">
        <ele>118.90323327482</ele>
        <time>2021-11-17T08:18:22Z</time>
      </trkpt>
      <trkpt lat="46.51403" lon="0.6212">
        <ele>119.29187723808</ele>
        <time>2021-11-17T08:18:24Z</time>
      </trkpt>
      <trkpt lat="46.51404" lon="0.62116">
        <ele>119.26271800417</ele>
        <time>2021-11-17T08:18:27Z</time>
      </trkpt>
      <trkpt lat="46.51405" lon="0.62112">
        <ele>119.74033246469</ele>
        <time>2021-11-17T08:18:29Z</time>
      </trkpt>
      <trkpt lat="46.51406" lon="0.62109">
        <ele>119.60214908142</ele>
        <time>2021-11-17T08:18:31Z</time>
      </trkpt>
      <trkpt lat="46.51408" lon="0.62106">
        <ele>119.85104456544</ele>
        <time>2021-11-17T08:18:33Z</time>
      </trkpt>
      <trkpt lat="46.51409" lon="0.62102">
        <ele>119.96225439478</ele>
        <time>2021-11-17T08:18:35Z</time>
      </trkpt>
      <trkpt lat="46.5141" lon="0.62099">
        <ele>120.21035028063</ele>
        <time>2021-11-17T08:18:37Z</time>
      </trkpt>
      <trkpt lat="46.51412" lon="0.62096">
        <ele>120.6167805763</ele>
        <time>2021-11-17T08:18:39Z</time>
      </trkpt>
      <trkpt lat="46.51413" lon="0.62093">
        <ele>120.5715223765</ele>
        <time>2021-11-17T08:18:41Z</time>
      </trkpt>
      <trkpt lat="46.51414" lon="0.62091">
        <ele>120.87845847663</ele>
        <time>2021-11-17T08:18:43Z</time>
      </trkpt>
      <trkpt lat="46.51416" lon="0.62088">
        <ele>121.0007622093</ele>
        <time>2021-11-17T08:18:45Z</time>
      </trkpt>
      <trkpt lat="46.51417" lon="0.62086">
        <ele>121.17299386393</ele>
        <time>2021-11-17T08:18:47Z</time>
      </trkpt>
      <trkpt lat="46.51419" lon="0.62083">
        <ele>121.65653139539</ele>
        <time>2021-11-17T08:18:49Z</time>
      </trkpt>
      <trkpt lat="46.51421" lon="0.62081">
        <ele>121.24169100076</ele>
        <time>2021-11-17T08:18:51Z</time>
      </trkpt>
      <trkpt lat="46.51422" lon="0.62078">
        <ele>121.80496003199</ele>
        <time>2021-11-17T08:18:53Z</time>
      </trkpt>
      <trkpt lat="46.51423" lon="0.62075">
        <ele>121.7108621439</ele>
        <time>2021-11-17T08:18:55Z</time>
      </trkpt>
      <trkpt lat="46.51425" lon="0.62073">
        <ele>122.05671853386</ele>
        <time>2021-11-17T08:18:57Z</time>
      </trkpt>
      <trkpt lat="46.51427" lon="0.6207">
        <ele>122.19727860764</ele>
        <time>2021-11-17T08:18:59Z</time>
      </trkpt>
      <trkpt lat="46.51429" lon="0.62068">
        <ele>122.48810705543</ele>
        <time>2021-11-17T08:19:01Z</time>
      </trkpt>
      <trkpt lat="46.51431" lon="0.62066">
        <ele>122.54414134286</ele>
        <time>2021-11-17T08:19:03Z</time>
      </trkpt>
      <trkpt lat="46.51432" lon="0.62064">
        <ele>123.07557760272</ele>
        <time>2021-11-17T08:19:05Z</time>
      </trkpt>
      <trkpt lat="46.51434" lon="0.62061">
        <ele>122.96476466209</ele>
        <time>2021-11-17T08:19:07Z</time>
      </trkpt>
      <trkpt lat="46.51435" lon="0.62058">
        <ele>123.20711542014</ele>
        <time>2021-11-17T08:19:09Z</time>
      </trkpt>
      <trkpt lat="46.51437" lon="0.62055">
        <ele>123.45528668445</ele>
        <time>2021-11-17T08:19:11Z</time>
      </trkpt>
      <trkpt lat="46.51439" lon="0.62054">
        <ele>123.3968861755</ele>
        <time>2021-11-17T08:19:13Z</time>
      </trkpt>
      <trkpt lat="46.51441" lon="0.6205">
        <ele>123.89667136129</ele>
        <time>2021-11-17T08:19:15Z</time>
      </trkpt>
      <trkpt lat="46.51443" lon="0.62048">
        <ele>123.76488693524</ele>
        <time>2021-11-17T08:19:18Z</time>
      </trkpt>
      <trkpt lat="46.51445" lon="0.62046">
        <ele>123.95679686032</ele>
        <time>2021-11-17T08:19:19Z</time>
      </trkpt>
      <trkpt lat="46.51446" lon="0.62044">
        <ele>123.85653459001</ele>
        <time>2021-11-17T08:19:21Z</time>
      </trkpt>
      <trkpt lat="46.51448" lon="0.62041">
        <ele>124.45732061937</ele>
        <time>2021-11-17T08:19:23Z</time>
      </trkpt>
      <trkpt lat="46.5145" lon="0.62039">
        <ele>124.3160314532</ele>
        <time>2021-11-17T08:19:25Z</time>
      </trkpt>
      <trkpt lat="46.51451" lon="0.62036">
        <ele>124.30669079255</ele>
        <time>2021-11-17T08:19:27Z</time>
      </trkpt>
      <trkpt lat="46.51454" lon="0.62034">
        <ele>124.37817772012</ele>
        <time>2021-11-17T08:19:29Z</time>
      </trkpt>
      <trkpt lat="46.51455" lon="0.62031">
        <ele>125.11286858376</ele>
        <time>2021-11-17T08:19:31Z</time>
      </trkpt>
      <trkpt lat="46.51456" lon="0.62029">
        <ele>124.72700762935</ele>
        <time>2021-11-17T08:19:33Z</time>
      </trkpt>
      <trkpt lat="46.51458" lon="0.62026">
        <ele>125.05498504266</ele>
        <time>2021-11-17T08:19:35Z</time>
      </trkpt>
      <trkpt lat="46.5146" lon="0.62024">
        <ele>124.98257605918</ele>
        <time>2021-11-17T08:19:37Z</time>
      </trkpt>
      <trkpt lat="46.51461" lon="0.62021">
        <ele>124.94155712426</ele>
        <time>2021-11-17T08:19:39Z</time>
      </trkpt>
      <trkpt lat="46.51463" lon="0.62018">
        <ele>125.14129808079</ele>
        <time>2021-11-17T08:19:41Z</time>
      </trkpt>
      <trkpt lat="46.51464" lon="0.62014">
        <ele>125.43218692392</ele>
        <time>2021-11-17T08:19:43Z</time>
      </trkpt>
      <trkpt lat="46.51465" lon="0.62011">
        <ele>125.17017661035</ele>
        <time>2021-11-17T08:19:45Z</time>
      </trkpt>
      <trkpt lat="46.51467" lon="0.62009">
        <ele>125.61860066373</ele>
        <time>2021-11-17T08:19:47Z</time>
      </trkpt>
      <trkpt lat="46.51468" lon="0.62007">
        <ele>125.73863493465</ele>
        <time>2021-11-17T08:19:48Z</time>
      </trkpt>
      <trkpt lat="46.51469" lon="0.62002">
        <ele>125.81381743681</ele>
        <time>2021-11-17T08:19:51Z</time>
      </trkpt>
      <trkpt lat="46.5147" lon="0.61999">
        <ele>125.75974213239</ele>
        <time>2021-11-17T08:19:53Z</time>
      </trkpt>
      <trkpt lat="46.5147" lon="0.61996">
        <ele>125.7159166066</ele>
        <time>2021-11-17T08:19:55Z</time>
      </trkpt>
      <trkpt lat="46.51471" lon="0.61994">
        <ele>125.49430192914</ele>
        <time>2021-11-17T08:19:57Z</time>
      </trkpt>
      <trkpt lat="46.51472" lon="0.6199">
        <ele>125.8673728928</ele>
        <time>2021-11-17T08:19:59Z</time>
      </trkpt>
      <trkpt lat="46.51472" lon="0.61985">
        <ele>125.82407606952</ele>
        <time>2021-11-17T08:20:02Z</time>
      </trkpt>
      <trkpt lat="46.51472" lon="0.61982">
        <ele>125.62085695565</ele>
        <time>2021-11-17T08:20:04Z</time>
      </trkpt>
      <trkpt lat="46.51472" lon="0.61978">
        <ele>125.8078143904</ele>
        <time>2021-11-17T08:20:06Z</time>
      </trkpt>
      <trkpt lat="46.51473" lon="0.61975">
        <ele>125.49405806884</ele>
        <time>2021-11-17T08:20:08Z</time>
      </trkpt>
      <trkpt lat="46.51473" lon="0.61971">
        <ele>125.55537495576</ele>
        <time>2021-11-17T08:20:10Z</time>
      </trkpt>
      <trkpt lat="46.51473" lon="0.61967">
        <ele>125.67735814024</ele>
        <time>2021-11-17T08:20:12Z</time>
      </trkpt>
      <trkpt lat="46.51474" lon="0.61964">
        <ele>125.94153548405</ele>
        <time>2021-11-17T08:20:14Z</time>
      </trkpt>
      <trkpt lat="46.51474" lon="0.61961">
        <ele>125.75492986944</ele>
        <time>2021-11-17T08:20:16Z</time>
      </trkpt>
      <trkpt lat="46.51474" lon="0.61958">
        <ele>125.73425690737</ele>
        <time>2021-11-17T08:20:18Z</time>
      </trkpt>
      <trkpt lat="46.51475" lon="0.61955">
        <ele>125.83989139087</ele>
        <time>2021-11-17T08:20:19Z</time>
      </trkpt>
      <trkpt lat="46.51474" lon="0.61953">
        <ele>125.75004421733</ele>
        <time>2021-11-17T08:20:21Z</time>
      </trkpt>
      <trkpt lat="46.51475" lon="0.61949">
        <ele>125.90516778082</ele>
        <time>2021-11-17T08:20:23Z</time>
      </trkpt>
      <trkpt lat="46.51475" lon="0.61946">
        <ele>126.11309386976</ele>
        <time>2021-11-17T08:20:25Z</time>
      </trkpt>
      <trkpt lat="46.51476" lon="0.61942">
        <ele>126.61843820848</ele>
        <time>2021-11-17T08:20:27Z</time>
      </trkpt>
      <trkpt lat="46.51476" lon="0.61938">
        <ele>126.34234841168</ele>
        <time>2021-11-17T08:20:29Z</time>
      </trkpt>
      <trkpt lat="46.51477" lon="0.61933">
        <ele>126.48417201359</ele>
        <time>2021-11-17T08:20:32Z</time>
      </trkpt>
      <trkpt lat="46.51476" lon="0.6193">
        <ele>126.42958400678</ele>
        <time>2021-11-17T08:20:34Z</time>
      </trkpt>
      <trkpt lat="46.51477" lon="0.61927">
        <ele>126.36017146055</ele>
        <time>2021-11-17T08:20:36Z</time>
      </trkpt>
      <trkpt lat="46.51477" lon="0.61924">
        <ele>126.60665594134</ele>
        <time>2021-11-17T08:20:38Z</time>
      </trkpt>
      <trkpt lat="46.51477" lon="0.6192">
        <ele>126.24977980088</ele>
        <time>2021-11-17T08:20:40Z</time>
      </trkpt>
      <trkpt lat="46.51477" lon="0.61916">
        <ele>126.7017575549</ele>
        <time>2021-11-17T08:20:42Z</time>
      </trkpt>
      <trkpt lat="46.51477" lon="0.61912">
        <ele>126.63933415618</ele>
        <time>2021-11-17T08:20:44Z</time>
      </trkpt>
      <trkpt lat="46.51477" lon="0.61908">
        <ele>126.6431505587</ele>
        <time>2021-11-17T08:20:46Z</time>
      </trkpt>
      <trkpt lat="46.51477" lon="0.61904">
        <ele>126.56492342427</ele>
        <time>2021-11-17T08:20:48Z</time>
      </trkpt>
      <trkpt lat="46.51477" lon="0.619">
        <ele>126.643111418</ele>
        <time>2021-11-17T08:20:50Z</time>
      </trkpt>
      <trkpt lat="46.51477" lon="0.61896">
        <ele>126.6492107613</ele>
        <time>2021-11-17T08:20:52Z</time>
      </trkpt>
      <trkpt lat="46.51477" lon="0.61893">
        <ele>126.56400808878</ele>
        <time>2021-11-17T08:20:54Z</time>
      </trkpt>
      <trkpt lat="46.51477" lon="0.61888">
        <ele>126.17222371511</ele>
        <time>2021-11-17T08:20:56Z</time>
      </trkpt>
      <trkpt lat="46.51477" lon="0.61884">
        <ele>126.30312457215</ele>
        <time>2021-11-17T08:20:58Z</time>
      </trkpt>
      <trkpt lat="46.51477" lon="0.61881">
        <ele>126.61905846372</ele>
        <time>2021-11-17T08:21:00Z</time>
      </trkpt>
      <trkpt lat="46.51477" lon="0.61877">
        <ele>126.31540277414</ele>
        <time>2021-11-17T08:21:02Z</time>
      </trkpt>
      <trkpt lat="46.51477" lon="0.61872">
        <ele>126.50671780668</ele>
        <time>2021-11-17T08:21:04Z</time>
      </trkpt>
      <trkpt lat="46.51477" lon="0.61868">
        <ele>126.10221492313</ele>
        <time>2021-11-17T08:21:07Z</time>
      </trkpt>
      <trkpt lat="46.51477" lon="0.61864">
        <ele>126.42494913656</ele>
        <time>2021-11-17T08:21:09Z</time>
      </trkpt>
      <trkpt lat="46.51477" lon="0.61859">
        <ele>126.45187828876</ele>
        <time>2021-11-17T08:21:12Z</time>
      </trkpt>
      <trkpt lat="46.51477" lon="0.61856">
        <ele>126.37728935108</ele>
        <time>2021-11-17T08:21:14Z</time>
      </trkpt>
      <trkpt lat="46.51476" lon="0.61852">
        <ele>126.31129406206</ele>
        <time>2021-11-17T08:21:16Z</time>
      </trkpt>
      <trkpt lat="46.51476" lon="0.61847">
        <ele>126.11200204678</ele>
        <time>2021-11-17T08:21:18Z</time>
      </trkpt>
      <trkpt lat="46.51477" lon="0.61843">
        <ele>126.2183030108</ele>
        <time>2021-11-17T08:21:21Z</time>
      </trkpt>
      <trkpt lat="46.51476" lon="0.61838">
        <ele>125.96933058463</ele>
        <time>2021-11-17T08:21:23Z</time>
      </trkpt>
      <trkpt lat="46.51476" lon="0.61835">
        <ele>125.91183847841</ele>
        <time>2021-11-17T08:21:25Z</time>
      </trkpt>
      <trkpt lat="46.51476" lon="0.61831">
        <ele>125.84971106146</ele>
        <time>2021-11-17T08:21:27Z</time>
      </trkpt>
      <trkpt lat="46.51476" lon="0.61828">
        <ele>125.72766432445</ele>
        <time>2021-11-17T08:21:29Z</time>
      </trkpt>
      <trkpt lat="46.51476" lon="0.61822">
        <ele>125.68948654365</ele>
        <time>2021-11-17T08:21:31Z</time>
      </trkpt>
      <trkpt lat="46.51476" lon="0.61818">
        <ele>125.63996916264</ele>
        <time>2021-11-17T08:21:34Z</time>
      </trkpt>
      <trkpt lat="46.51475" lon="0.61814">
        <ele>125.42381701246</ele>
        <time>2021-11-17T08:21:36Z</time>
      </trkpt>
      <trkpt lat="46.51475" lon="0.61812">
        <ele>125.36013251916</ele>
        <time>2021-11-17T08:21:37Z</time>
      </trkpt>
      <trkpt lat="46.51475" lon="0.61809">
        <ele>125.32871752605</ele>
        <time>2021-11-17T08:21:39Z</time>
      </trkpt>
      <trkpt lat="46.51475" lon="0.61804">
        <ele>125.45489820186</ele>
        <time>2021-11-17T08:21:41Z</time>
      </trkpt>
      <trkpt lat="46.51474" lon="0.618">
        <ele>125.32735675294</ele>
        <time>2021-11-17T08:21:43Z</time>
      </trkpt>
      <trkpt lat="46.51474" lon="0.61795">
        <ele>125.2027670322</ele>
        <time>2021-11-17T08:21:45Z</time>
      </trkpt>
      <trkpt lat="46.51474" lon="0.61793">
        <ele>125.48547425866</ele>
        <time>2021-11-17T08:21:47Z</time>
      </trkpt>
      <trkpt lat="46.51473" lon="0.61788">
        <ele>125.13621760439</ele>
        <time>2021-11-17T08:21:49Z</time>
      </trkpt>
      <trkpt lat="46.51473" lon="0.61785">
        <ele>125.34083041735</ele>
        <time>2021-11-17T08:21:51Z</time>
      </trkpt>
      <trkpt lat="46.51473" lon="0.61781">
        <ele>125.33661093563</ele>
        <time>2021-11-17T08:21:53Z</time>
      </trkpt>
      <trkpt lat="46.51473" lon="0.61776">
        <ele>124.88978700992</ele>
        <time>2021-11-17T08:21:55Z</time>
      </trkpt>
      <trkpt lat="46.51472" lon="0.61771">
        <ele>124.95191982575</ele>
        <time>2021-11-17T08:21:58Z</time>
      </trkpt>
      <trkpt lat="46.51472" lon="0.61768">
        <ele>125.16284880135</ele>
        <time>2021-11-17T08:22:00Z</time>
      </trkpt>
      <trkpt lat="46.51472" lon="0.61765">
        <ele>125.42927979119</ele>
        <time>2021-11-17T08:22:01Z</time>
      </trkpt>
      <trkpt lat="46.51472" lon="0.61761">
        <ele>125.20570907928</ele>
        <time>2021-11-17T08:22:04Z</time>
      </trkpt>
      <trkpt lat="46.51472" lon="0.61757">
        <ele>125.25447970536</ele>
        <time>2021-11-17T08:22:05Z</time>
      </trkpt>
      <trkpt lat="46.51472" lon="0.61753">
        <ele>125.06011351477</ele>
        <time>2021-11-17T08:22:08Z</time>
      </trkpt>
      <trkpt lat="46.51472" lon="0.6175">
        <ele>124.94201721996</ele>
        <time>2021-11-17T08:22:09Z</time>
      </trkpt>
      <trkpt lat="46.51472" lon="0.61745">
        <ele>124.91209783033</ele>
        <time>2021-11-17T08:22:11Z</time>
      </trkpt>
      <trkpt lat="46.51471" lon="0.61741">
        <ele>125.15132462792</ele>
        <time>2021-11-17T08:22:14Z</time>
      </trkpt>
      <trkpt lat="46.51471" lon="0.61737">
        <ele>125.14123267587</ele>
        <time>2021-11-17T08:22:16Z</time>
      </trkpt>
      <trkpt lat="46.51471" lon="0.61732">
        <ele>124.73442806955</ele>
        <time>2021-11-17T08:22:18Z</time>
      </trkpt>
      <trkpt lat="46.51471" lon="0.61729">
        <ele>124.99796405714</ele>
        <time>2021-11-17T08:22:20Z</time>
      </trkpt>
      <trkpt lat="46.5147" lon="0.61725">
        <ele>125.07177661173</ele>
        <time>2021-11-17T08:22:22Z</time>
      </trkpt>
      <trkpt lat="46.5147" lon="0.61721">
        <ele>124.80552957673</ele>
        <time>2021-11-17T08:22:24Z</time>
      </trkpt>
      <trkpt lat="46.5147" lon="0.61716">
        <ele>124.68007675</ele>
        <time>2021-11-17T08:22:26Z</time>
      </trkpt>
      <trkpt lat="46.5147" lon="0.61713">
        <ele>124.70084614865</ele>
        <time>2021-11-17T08:22:28Z</time>
      </trkpt>
      <trkpt lat="46.5147" lon="0.6171">
        <ele>124.72583557386</ele>
        <time>2021-11-17T08:22:29Z</time>
      </trkpt>
      <trkpt lat="46.51469" lon="0.61706">
        <ele>124.44945944939</ele>
        <time>2021-11-17T08:22:31Z</time>
      </trkpt>
      <trkpt lat="46.51469" lon="0.61701">
        <ele>124.31861088052</ele>
        <time>2021-11-17T08:22:34Z</time>
      </trkpt>
      <trkpt lat="46.51469" lon="0.61698">
        <ele>124.32776394766</ele>
        <time>2021-11-17T08:22:36Z</time>
      </trkpt>
      <trkpt lat="46.51469" lon="0.61693">
        <ele>123.84076987486</ele>
        <time>2021-11-17T08:22:38Z</time>
      </trkpt>
      <trkpt lat="46.51469" lon="0.6169">
        <ele>124.24848028831</ele>
        <time>2021-11-17T08:22:40Z</time>
      </trkpt>
      <trkpt lat="46.51469" lon="0.61684">
        <ele>124.2375625018</ele>
        <time>2021-11-17T08:22:42Z</time>
      </trkpt>
      <trkpt lat="46.51469" lon="0.6168">
        <ele>124.34750578087</ele>
        <time>2021-11-17T08:22:46Z</time>
      </trkpt>
      <trkpt lat="46.51468" lon="0.61677">
        <ele>124.02565226238</ele>
        <time>2021-11-17T08:22:48Z</time>
      </trkpt>
      <trkpt lat="46.51466" lon="0.61675">
        <ele>124.03531666473</ele>
        <time>2021-11-17T08:22:50Z</time>
      </trkpt>
      <trkpt lat="46.51463" lon="0.61673">
        <ele>123.72067636065</ele>
        <time>2021-11-17T08:22:52Z</time>
      </trkpt>
      <trkpt lat="46.51461" lon="0.61673">
        <ele>123.78245245665</ele>
        <time>2021-11-17T08:22:54Z</time>
      </trkpt>
      <trkpt lat="46.51459" lon="0.61672">
        <ele>123.95916044805</ele>
        <time>2021-11-17T08:22:55Z</time>
      </trkpt>
      <trkpt lat="46.51457" lon="0.61672">
        <ele>123.99576100707</ele>
        <time>2021-11-17T08:22:57Z</time>
      </trkpt>
      <trkpt lat="46.51454" lon="0.61672">
        <ele>123.93153741863</ele>
        <time>2021-11-17T08:22:59Z</time>
      </trkpt>
      <trkpt lat="46.51452" lon="0.61671">
        <ele>124.00645437092</ele>
        <time>2021-11-17T08:23:01Z</time>
      </trkpt>
      <trkpt lat="46.51449" lon="0.61671">
        <ele>124.01241207123</ele>
        <time>2021-11-17T08:23:03Z</time>
      </trkpt>
      <trkpt lat="46.51446" lon="0.6167">
        <ele>123.43440810032</ele>
        <time>2021-11-17T08:23:05Z</time>
      </trkpt>
      <trkpt lat="46.51443" lon="0.6167">
        <ele>123.74337139167</ele>
        <time>2021-11-17T08:23:07Z</time>
      </trkpt>
      <trkpt lat="46.51441" lon="0.6167">
        <ele>123.48563796468</ele>
        <time>2021-11-17T08:23:09Z</time>
      </trkpt>
      <trkpt lat="46.51438" lon="0.61669">
        <ele>123.58396695834</ele>
        <time>2021-11-17T08:23:11Z</time>
      </trkpt>
      <trkpt lat="46.51435" lon="0.61669">
        <ele>123.33291048463</ele>
        <time>2021-11-17T08:23:13Z</time>
      </trkpt>
      <trkpt lat="46.51431" lon="0.61668">
        <ele>123.85093522165</ele>
        <time>2021-11-17T08:23:15Z</time>
      </trkpt>
      <trkpt lat="46.51428" lon="0.61668">
        <ele>123.47548258677</ele>
        <time>2021-11-17T08:23:18Z</time>
      </trkpt>
      <trkpt lat="46.51425" lon="0.61667">
        <ele>123.23044851981</ele>
        <time>2021-11-17T08:23:20Z</time>
      </trkpt>
      <trkpt lat="46.51422" lon="0.61667">
        <ele>123.42020530719</ele>
        <time>2021-11-17T08:23:22Z</time>
      </trkpt>
      <trkpt lat="46.51419" lon="0.61666">
        <ele>123.30235603638</ele>
        <time>2021-11-17T08:23:25Z</time>
      </trkpt>
      <trkpt lat="46.51417" lon="0.61666">
        <ele>123.51943506114</ele>
        <time>2021-11-17T08:23:27Z</time>
      </trkpt>
      <trkpt lat="46.51414" lon="0.61665">
        <ele>122.79040792212</ele>
        <time>2021-11-17T08:23:29Z</time>
      </trkpt>
      <trkpt lat="46.51412" lon="0.61664">
        <ele>122.98864973243</ele>
        <time>2021-11-17T08:23:31Z</time>
      </trkpt>
      <trkpt lat="46.5141" lon="0.61663">
        <ele>122.86423138622</ele>
        <time>2021-11-17T08:23:33Z</time>
      </trkpt>
      <trkpt lat="46.51407" lon="0.61662">
        <ele>123.1469965186</ele>
        <time>2021-11-17T08:23:35Z</time>
      </trkpt>
      <trkpt lat="46.51404" lon="0.61662">
        <ele>123.02731082588</ele>
        <time>2021-11-17T08:23:37Z</time>
      </trkpt>
      <trkpt lat="46.51401" lon="0.61661">
        <ele>122.80744289607</ele>
        <time>2021-11-17T08:23:40Z</time>
      </trkpt>
      <trkpt lat="46.51399" lon="0.6166">
        <ele>122.6766732987</ele>
        <time>2021-11-17T08:23:41Z</time>
      </trkpt>
      <trkpt lat="46.51396" lon="0.61659">
        <ele>122.40883549396</ele>
        <time>2021-11-17T08:23:44Z</time>
      </trkpt>
      <trkpt lat="46.51393" lon="0.61658">
        <ele>122.43851469364</ele>
        <time>2021-11-17T08:23:46Z</time>
      </trkpt>
      <trkpt lat="46.51391" lon="0.61658">
        <ele>122.3196017025</ele>
        <time>2021-11-17T08:23:48Z</time>
      </trkpt>
      <trkpt lat="46.51388" lon="0.61657">
        <ele>122.09016253706</ele>
        <time>2021-11-17T08:23:50Z</time>
      </trkpt>
      <trkpt lat="46.51386" lon="0.61656">
        <ele>121.94590335526</ele>
        <time>2021-11-17T08:23:52Z</time>
      </trkpt>
      <trkpt lat="46.51383" lon="0.61655">
        <ele>121.74000848085</ele>
        <time>2021-11-17T08:23:54Z</time>
      </trkpt>
      <trkpt lat="46.51381" lon="0.61654">
        <ele>122.06444586068</ele>
        <time>2021-11-17T08:23:56Z</time>
      </trkpt>
      <trkpt lat="46.51378" lon="0.61652">
        <ele>122.06463279948</ele>
        <time>2021-11-17T08:23:58Z</time>
      </trkpt>
      <trkpt lat="46.51376" lon="0.61652">
        <ele>122.00337659102</ele>
        <time>2021-11-17T08:24:00Z</time>
      </trkpt>
      <trkpt lat="46.51373" lon="0.6165">
        <ele>121.81764261704</ele>
        <time>2021-11-17T08:24:02Z</time>
      </trkpt>
      <trkpt lat="46.5137" lon="0.61649">
        <ele>121.54521976784</ele>
        <time>2021-11-17T08:24:04Z</time>
      </trkpt>
      <trkpt lat="46.51368" lon="0.61649">
        <ele>121.37674290501</ele>
        <time>2021-11-17T08:24:06Z</time>
      </trkpt>
      <trkpt lat="46.51365" lon="0.61647">
        <ele>121.36939517315</ele>
        <time>2021-11-17T08:24:08Z</time>
      </trkpt>
      <trkpt lat="46.51363" lon="0.61647">
        <ele>121.50720416103</ele>
        <time>2021-11-17T08:24:10Z</time>
      </trkpt>
      <trkpt lat="46.5136" lon="0.61645">
        <ele>121.26893433463</ele>
        <time>2021-11-17T08:24:12Z</time>
      </trkpt>
      <trkpt lat="46.51358" lon="0.61644">
        <ele>121.39677021466</ele>
        <time>2021-11-17T08:24:14Z</time>
      </trkpt>
      <trkpt lat="46.51355" lon="0.61643">
        <ele>121.30737026967</ele>
        <time>2021-11-17T08:24:16Z</time>
      </trkpt>
      <trkpt lat="46.51353" lon="0.61642">
        <ele>121.13201846182</ele>
        <time>2021-11-17T08:24:18Z</time>
      </trkpt>
      <trkpt lat="46.5135" lon="0.6164">
        <ele>120.97837927844</ele>
        <time>2021-11-17T08:24:20Z</time>
      </trkpt>
      <trkpt lat="46.51348" lon="0.61639">
        <ele>120.86578296032</ele>
        <time>2021-11-17T08:24:22Z</time>
      </trkpt>
      <trkpt lat="46.51345" lon="0.61638">
        <ele>121.16939653549</ele>
        <time>2021-11-17T08:24:24Z</time>
      </trkpt>
      <trkpt lat="46.51343" lon="0.61637">
        <ele>120.87162663881</ele>
        <time>2021-11-17T08:24:26Z</time>
      </trkpt>
      <trkpt lat="46.5134" lon="0.61636">
        <ele>120.82206269447</ele>
        <time>2021-11-17T08:24:28Z</time>
      </trkpt>
      <trkpt lat="46.51337" lon="0.61635">
        <ele>120.77444977593</ele>
        <time>2021-11-17T08:24:30Z</time>
      </trkpt>
      <trkpt lat="46.51335" lon="0.61634">
        <ele>120.3487339979</ele>
        <time>2021-11-17T08:24:32Z</time>
      </trkpt>
      <trkpt lat="46.51332" lon="0.61632">
        <ele>119.95400839299</ele>
        <time>2021-11-17T08:24:34Z</time>
      </trkpt>
      <trkpt lat="46.5133" lon="0.61631">
        <ele>120.02549355384</ele>
        <time>2021-11-17T08:24:36Z</time>
      </trkpt>
      <trkpt lat="46.51327" lon="0.6163">
        <ele>120.11298906151</ele>
        <time>2021-11-17T08:24:38Z</time>
      </trkpt>
      <trkpt lat="46.51324" lon="0.61629">
        <ele>120.07101925462</ele>
        <time>2021-11-17T08:24:40Z</time>
      </trkpt>
      <trkpt lat="46.51321" lon="0.61628">
        <ele>119.59591720905</ele>
        <time>2021-11-17T08:24:43Z</time>
      </trkpt>
      <trkpt lat="46.51318" lon="0.61626">
        <ele>120.13653802592</ele>
        <time>2021-11-17T08:24:45Z</time>
      </trkpt>
      <trkpt lat="46.51315" lon="0.61625">
        <ele>119.79950389545</ele>
        <time>2021-11-17T08:24:47Z</time>
      </trkpt>
      <trkpt lat="46.51312" lon="0.61626">
        <ele>119.63103898428</ele>
        <time>2021-11-17T08:24:50Z</time>
      </trkpt>
      <trkpt lat="46.5131" lon="0.61624">
        <ele>119.6305007888</ele>
        <time>2021-11-17T08:24:52Z</time>
      </trkpt>
      <trkpt lat="46.51307" lon="0.61621">
        <ele>119.29109010659</ele>
        <time>2021-11-17T08:24:54Z</time>
      </trkpt>
      <trkpt lat="46.51305" lon="0.61622">
        <ele>119.50234484486</ele>
        <time>2021-11-17T08:24:56Z</time>
      </trkpt>
      <trkpt lat="46.51303" lon="0.61621">
        <ele>119.37499010004</ele>
        <time>2021-11-17T08:24:58Z</time>
      </trkpt>
      <trkpt lat="46.51299" lon="0.6162">
        <ele>119.28526582848</ele>
        <time>2021-11-17T08:25:00Z</time>
      </trkpt>
      <trkpt lat="46.51298" lon="0.61619">
        <ele>119.07355593424</ele>
        <time>2021-11-17T08:25:02Z</time>
      </trkpt>
      <trkpt lat="46.51295" lon="0.61617">
        <ele>119.18998201843</ele>
        <time>2021-11-17T08:25:04Z</time>
      </trkpt>
      <trkpt lat="46.51294" lon="0.61614">
        <ele>119.11821506545</ele>
        <time>2021-11-17T08:25:06Z</time>
      </trkpt>
      <trkpt lat="46.51293" lon="0.61611">
        <ele>118.96590499114</ele>
        <time>2021-11-17T08:25:08Z</time>
      </trkpt>
      <trkpt lat="46.51293" lon="0.61607">
        <ele>119.34933872893</ele>
        <time>2021-11-17T08:25:10Z</time>
      </trkpt>
      <trkpt lat="46.51294" lon="0.61603">
        <ele>118.66069005243</ele>
        <time>2021-11-17T08:25:12Z</time>
      </trkpt>
      <trkpt lat="46.51295" lon="0.616">
        <ele>118.79623537511</ele>
        <time>2021-11-17T08:25:14Z</time>
      </trkpt>
      <trkpt lat="46.51297" lon="0.61596">
        <ele>118.21332158148</ele>
        <time>2021-11-17T08:25:16Z</time>
      </trkpt>
      <trkpt lat="46.51299" lon="0.61593">
        <ele>118.19686266594</ele>
        <time>2021-11-17T08:25:18Z</time>
      </trkpt>
      <trkpt lat="46.51301" lon="0.6159">
        <ele>118.44735106453</ele>
        <time>2021-11-17T08:25:20Z</time>
      </trkpt>
      <trkpt lat="46.51302" lon="0.61586">
        <ele>118.42968473583</ele>
        <time>2021-11-17T08:25:22Z</time>
      </trkpt>
      <trkpt lat="46.51303" lon="0.61583">
        <ele>118.33988979552</ele>
        <time>2021-11-17T08:25:24Z</time>
      </trkpt>
      <trkpt lat="46.51305" lon="0.6158">
        <ele>118.32217396516</ele>
        <time>2021-11-17T08:25:26Z</time>
      </trkpt>
      <trkpt lat="46.51306" lon="0.61577">
        <ele>118.15599200502</ele>
        <time>2021-11-17T08:25:28Z</time>
      </trkpt>
      <trkpt lat="46.51308" lon="0.61573">
        <ele>118.21653442085</ele>
        <time>2021-11-17T08:25:30Z</time>
      </trkpt>
      <trkpt lat="46.51309" lon="0.61569">
        <ele>118.3485107217</ele>
        <time>2021-11-17T08:25:32Z</time>
      </trkpt>
      <trkpt lat="46.5131" lon="0.61567">
        <ele>117.97651072033</ele>
        <time>2021-11-17T08:25:34Z</time>
      </trkpt>
      <trkpt lat="46.51311" lon="0.61564">
        <ele>117.77979206014</ele>
        <time>2021-11-17T08:25:36Z</time>
      </trkpt>
      <trkpt lat="46.51313" lon="0.6156">
        <ele>117.69116193336</ele>
        <time>2021-11-17T08:25:38Z</time>
      </trkpt>
      <trkpt lat="46.51314" lon="0.61557">
        <ele>117.53759208415</ele>
        <time>2021-11-17T08:25:40Z</time>
      </trkpt>
      <trkpt lat="46.51315" lon="0.61554">
        <ele>117.48147034273</ele>
        <time>2021-11-17T08:25:42Z</time>
      </trkpt>
      <trkpt lat="46.51316" lon="0.6155">
        <ele>117.78057763074</ele>
        <time>2021-11-17T08:25:44Z</time>
      </trkpt>
      <trkpt lat="46.51317" lon="0.61547">
        <ele>117.6753555201</ele>
        <time>2021-11-17T08:25:46Z</time>
      </trkpt>
      <trkpt lat="46.51319" lon="0.61543">
        <ele>117.34401370492</ele>
        <time>2021-11-17T08:25:48Z</time>
      </trkpt>
      <trkpt lat="46.5132" lon="0.6154">
        <ele>117.41280093137</ele>
        <time>2021-11-17T08:25:50Z</time>
      </trkpt>
      <trkpt lat="46.51321" lon="0.61536">
        <ele>117.15968812164</ele>
        <time>2021-11-17T08:25:52Z</time>
      </trkpt>
      <trkpt lat="46.51322" lon="0.61533">
        <ele>117.2985168295</ele>
        <time>2021-11-17T08:25:54Z</time>
      </trkpt>
      <trkpt lat="46.51323" lon="0.61531">
        <ele>116.96316478215</ele>
        <time>2021-11-17T08:25:55Z</time>
      </trkpt>
      <trkpt lat="46.51324" lon="0.61528">
        <ele>117.25635125861</ele>
        <time>2021-11-17T08:25:57Z</time>
      </trkpt>
      <trkpt lat="46.51325" lon="0.61525">
        <ele>117.11769967433</ele>
        <time>2021-11-17T08:25:59Z</time>
      </trkpt>
      <trkpt lat="46.51326" lon="0.61521">
        <ele>117.09928967152</ele>
        <time>2021-11-17T08:26:01Z</time>
      </trkpt>
      <trkpt lat="46.51328" lon="0.61518">
        <ele>117.47842250019</ele>
        <time>2021-11-17T08:26:03Z</time>
      </trkpt>
      <trkpt lat="46.51328" lon="0.61515">
        <ele>117.24688151665</ele>
        <time>2021-11-17T08:26:05Z</time>
      </trkpt>
      <trkpt lat="46.5133" lon="0.61511">
        <ele>117.31394740287</ele>
        <time>2021-11-17T08:26:07Z</time>
      </trkpt>
      <trkpt lat="46.5133" lon="0.61508">
        <ele>117.34930462949</ele>
        <time>2021-11-17T08:26:08Z</time>
      </trkpt>
      <trkpt lat="46.51332" lon="0.61504">
        <ele>117.94593413454</ele>
        <time>2021-11-17T08:26:11Z</time>
      </trkpt>
      <trkpt lat="46.51333" lon="0.615">
        <ele>117.30314878654</ele>
        <time>2021-11-17T08:26:13Z</time>
      </trkpt>
      <trkpt lat="46.51334" lon="0.61497">
        <ele>117.46510552429</ele>
        <time>2021-11-17T08:26:15Z</time>
      </trkpt>
      <trkpt lat="46.51335" lon="0.61493">
        <ele>117.4185468927</ele>
        <time>2021-11-17T08:26:17Z</time>
      </trkpt>
      <trkpt lat="46.51336" lon="0.61489">
        <ele>117.48707651813</ele>
        <time>2021-11-17T08:26:19Z</time>
      </trkpt>
      <trkpt lat="46.51337" lon="0.61486">
        <ele>117.36901187338</ele>
        <time>2021-11-17T08:26:21Z</time>
      </trkpt>
      <trkpt lat="46.51338" lon="0.61483">
        <ele>117.515085347</ele>
        <time>2021-11-17T08:26:23Z</time>
      </trkpt>
      <trkpt lat="46.51339" lon="0.61479">
        <ele>117.76631929819</ele>
        <time>2021-11-17T08:26:25Z</time>
      </trkpt>
      <trkpt lat="46.5134" lon="0.61475">
        <ele>117.92762182001</ele>
        <time>2021-11-17T08:26:27Z</time>
      </trkpt>
      <trkpt lat="46.51341" lon="0.6147">
        <ele>118.55856316537</ele>
        <time>2021-11-17T08:26:30Z</time>
      </trkpt>
      <trkpt lat="46.51342" lon="0.61467">
        <ele>117.99765471276</ele>
        <time>2021-11-17T08:26:32Z</time>
      </trkpt>
      <trkpt lat="46.51343" lon="0.61463">
        <ele>118.44159455411</ele>
        <time>2021-11-17T08:26:34Z</time>
      </trkpt>
      <trkpt lat="46.51344" lon="0.61459">
        <ele>118.39663746674</ele>
        <time>2021-11-17T08:26:36Z</time>
      </trkpt>
      <trkpt lat="46.51345" lon="0.61456">
        <ele>118.42767923139</ele>
        <time>2021-11-17T08:26:38Z</time>
      </trkpt>
      <trkpt lat="46.51345" lon="0.61452">
        <ele>118.43002947606</ele>
        <time>2021-11-17T08:26:40Z</time>
      </trkpt>
      <trkpt lat="46.51346" lon="0.61448">
        <ele>118.93917363603</ele>
        <time>2021-11-17T08:26:42Z</time>
      </trkpt>
      <trkpt lat="46.51347" lon="0.61445">
        <ele>119.11367155705</ele>
        <time>2021-11-17T08:26:44Z</time>
      </trkpt>
      <trkpt lat="46.51347" lon="0.61442">
        <ele>119.05769464467</ele>
        <time>2021-11-17T08:26:46Z</time>
      </trkpt>
      <trkpt lat="46.51348" lon="0.61438">
        <ele>119.21217701863</ele>
        <time>2021-11-17T08:26:48Z</time>
      </trkpt>
      <trkpt lat="46.51349" lon="0.61434">
        <ele>119.19852103386</ele>
        <time>2021-11-17T08:26:50Z</time>
      </trkpt>
      <trkpt lat="46.5135" lon="0.6143">
        <ele>119.37150066067</ele>
        <time>2021-11-17T08:26:52Z</time>
      </trkpt>
      <trkpt lat="46.51351" lon="0.61426">
        <ele>119.5086791506</ele>
        <time>2021-11-17T08:26:54Z</time>
      </trkpt>
      <trkpt lat="46.51352" lon="0.61422">
        <ele>120.26780371089</ele>
        <time>2021-11-17T08:26:56Z</time>
      </trkpt>
      <trkpt lat="46.51353" lon="0.61418">
        <ele>119.85884498525</ele>
        <time>2021-11-17T08:26:59Z</time>
      </trkpt>
      <trkpt lat="46.51354" lon="0.61415">
        <ele>120.05076029897</ele>
        <time>2021-11-17T08:27:01Z</time>
      </trkpt>
      <trkpt lat="46.51354" lon="0.6141">
        <ele>119.9653750835</ele>
        <time>2021-11-17T08:27:03Z</time>
      </trkpt>
      <trkpt lat="46.51355" lon="0.61408">
        <ele>119.89343997929</ele>
        <time>2021-11-17T08:27:05Z</time>
      </trkpt>
      <trkpt lat="46.51356" lon="0.61404">
        <ele>120.10481240787</ele>
        <time>2021-11-17T08:27:07Z</time>
      </trkpt>
      <trkpt lat="46.51357" lon="0.61401">
        <ele>120.66234683897</ele>
        <time>2021-11-17T08:27:09Z</time>
      </trkpt>
      <trkpt lat="46.51357" lon="0.61398">
        <ele>120.36759371869</ele>
        <time>2021-11-17T08:27:10Z</time>
      </trkpt>
      <trkpt lat="46.51357" lon="0.61394">
        <ele>120.34090447892</ele>
        <time>2021-11-17T08:27:12Z</time>
      </trkpt>
      <trkpt lat="46.51358" lon="0.61392">
        <ele>120.37433353905</ele>
        <time>2021-11-17T08:27:14Z</time>
      </trkpt>
      <trkpt lat="46.51359" lon="0.61387">
        <ele>120.33883830905</ele>
        <time>2021-11-17T08:27:16Z</time>
      </trkpt>
      <trkpt lat="46.51359" lon="0.61384">
        <ele>120.49441920035</ele>
        <time>2021-11-17T08:27:18Z</time>
      </trkpt>
      <trkpt lat="46.5136" lon="0.6138">
        <ele>120.80297358334</ele>
        <time>2021-11-17T08:27:20Z</time>
      </trkpt>
      <trkpt lat="46.51361" lon="0.61376">
        <ele>120.92266912293</ele>
        <time>2021-11-17T08:27:22Z</time>
      </trkpt>
      <trkpt lat="46.51361" lon="0.61373">
        <ele>121.01969916467</ele>
        <time>2021-11-17T08:27:24Z</time>
      </trkpt>
      <trkpt lat="46.51362" lon="0.61368">
        <ele>121.57920316979</ele>
        <time>2021-11-17T08:27:26Z</time>
      </trkpt>
      <trkpt lat="46.51363" lon="0.61366">
        <ele>121.34180808533</ele>
        <time>2021-11-17T08:27:28Z</time>
      </trkpt>
      <trkpt lat="46.51364" lon="0.61362">
        <ele>121.45417768788</ele>
        <time>2021-11-17T08:27:30Z</time>
      </trkpt>
      <trkpt lat="46.51365" lon="0.61358">
        <ele>121.5805588793</ele>
        <time>2021-11-17T08:27:32Z</time>
      </trkpt>
      <trkpt lat="46.51366" lon="0.61354">
        <ele>121.62581012957</ele>
        <time>2021-11-17T08:27:35Z</time>
      </trkpt>
      <trkpt lat="46.51367" lon="0.6135">
        <ele>122.19316207059</ele>
        <time>2021-11-17T08:27:37Z</time>
      </trkpt>
      <trkpt lat="46.51367" lon="0.61347">
        <ele>122.16506196465</ele>
        <time>2021-11-17T08:27:39Z</time>
      </trkpt>
      <trkpt lat="46.51368" lon="0.61344">
        <ele>121.99100420624</ele>
        <time>2021-11-17T08:27:41Z</time>
      </trkpt>
      <trkpt lat="46.51369" lon="0.6134">
        <ele>121.98417496216</ele>
        <time>2021-11-17T08:27:43Z</time>
      </trkpt>
      <trkpt lat="46.51369" lon="0.61337">
        <ele>122.35733047966</ele>
        <time>2021-11-17T08:27:45Z</time>
      </trkpt>
      <trkpt lat="46.5137" lon="0.61334">
        <ele>122.15358856414</ele>
        <time>2021-11-17T08:27:46Z</time>
      </trkpt>
      <trkpt lat="46.51371" lon="0.61331">
        <ele>122.28388266917</ele>
        <time>2021-11-17T08:27:48Z</time>
      </trkpt>
      <trkpt lat="46.51372" lon="0.61328">
        <ele>122.70958789065</ele>
        <time>2021-11-17T08:27:50Z</time>
      </trkpt>
      <trkpt lat="46.51373" lon="0.61324">
        <ele>122.73890810832</ele>
        <time>2021-11-17T08:27:52Z</time>
      </trkpt>
      <trkpt lat="46.51373" lon="0.6132">
        <ele>123.01095242053</ele>
        <time>2021-11-17T08:27:54Z</time>
      </trkpt>
      <trkpt lat="46.51374" lon="0.61317">
        <ele>122.89828976989</ele>
        <time>2021-11-17T08:27:56Z</time>
      </trkpt>
      <trkpt lat="46.51375" lon="0.61314">
        <ele>122.76776744705</ele>
        <time>2021-11-17T08:27:58Z</time>
      </trkpt>
      <trkpt lat="46.51376" lon="0.61311">
        <ele>123.06151993107</ele>
        <time>2021-11-17T08:28:00Z</time>
      </trkpt>
      <trkpt lat="46.51377" lon="0.61308">
        <ele>123.94910084642</ele>
        <time>2021-11-17T08:28:02Z</time>
      </trkpt>
      <trkpt lat="46.51378" lon="0.61303">
        <ele>123.44753956236</ele>
        <time>2021-11-17T08:28:04Z</time>
      </trkpt>
      <trkpt lat="46.51379" lon="0.61301">
        <ele>123.52019993588</ele>
        <time>2021-11-17T08:28:06Z</time>
      </trkpt>
      <trkpt lat="46.5138" lon="0.61297">
        <ele>123.61004785355</ele>
        <time>2021-11-17T08:28:08Z</time>
      </trkpt>
      <trkpt lat="46.51381" lon="0.61293">
        <ele>123.74411883485</ele>
        <time>2021-11-17T08:28:10Z</time>
      </trkpt>
      <trkpt lat="46.51381" lon="0.61291">
        <ele>123.91021622811</ele>
        <time>2021-11-17T08:28:12Z</time>
      </trkpt>
      <trkpt lat="46.51383" lon="0.61287">
        <ele>124.12292517349</ele>
        <time>2021-11-17T08:28:14Z</time>
      </trkpt>
      <trkpt lat="46.51384" lon="0.61284">
        <ele>123.99516964611</ele>
        <time>2021-11-17T08:28:16Z</time>
      </trkpt>
      <trkpt lat="46.51385" lon="0.61281">
        <ele>124.22778977081</ele>
        <time>2021-11-17T08:28:18Z</time>
      </trkpt>
      <trkpt lat="46.51386" lon="0.61277">
        <ele>124.25908601657</ele>
        <time>2021-11-17T08:28:20Z</time>
      </trkpt>
      <trkpt lat="46.51387" lon="0.61273">
        <ele>124.21627400909</ele>
        <time>2021-11-17T08:28:22Z</time>
      </trkpt>
      <trkpt lat="46.51389" lon="0.6127">
        <ele>124.20361178368</ele>
        <time>2021-11-17T08:28:24Z</time>
      </trkpt>
      <trkpt lat="46.51389" lon="0.61267">
        <ele>124.46853284165</ele>
        <time>2021-11-17T08:28:26Z</time>
      </trkpt>
      <trkpt lat="46.51391" lon="0.61264">
        <ele>125.27275295556</ele>
        <time>2021-11-17T08:28:28Z</time>
      </trkpt>
      <trkpt lat="46.51392" lon="0.6126">
        <ele>124.96100329515</ele>
        <time>2021-11-17T08:28:30Z</time>
      </trkpt>
      <trkpt lat="46.51393" lon="0.61256">
        <ele>124.92534798104</ele>
        <time>2021-11-17T08:28:32Z</time>
      </trkpt>
      <trkpt lat="46.51395" lon="0.61252">
        <ele>125.25627200305</ele>
        <time>2021-11-17T08:28:35Z</time>
      </trkpt>
      <trkpt lat="46.51396" lon="0.61248">
        <ele>125.1361039253</ele>
        <time>2021-11-17T08:28:37Z</time>
      </trkpt>
      <trkpt lat="46.51397" lon="0.61245">
        <ele>125.35772640351</ele>
        <time>2021-11-17T08:28:39Z</time>
      </trkpt>
      <trkpt lat="46.51399" lon="0.61241">
        <ele>125.78224607185</ele>
        <time>2021-11-17T08:28:41Z</time>
      </trkpt>
      <trkpt lat="46.514" lon="0.61238">
        <ele>126.05433959048</ele>
        <time>2021-11-17T08:28:43Z</time>
      </trkpt>
      <trkpt lat="46.51401" lon="0.61234">
        <ele>125.98124527559</ele>
        <time>2021-11-17T08:28:45Z</time>
      </trkpt>
      <trkpt lat="46.51402" lon="0.61231">
        <ele>125.76416505687</ele>
        <time>2021-11-17T08:28:47Z</time>
      </trkpt>
      <trkpt lat="46.51403" lon="0.61227">
        <ele>125.74979999382</ele>
        <time>2021-11-17T08:28:49Z</time>
      </trkpt>
      <trkpt lat="46.51405" lon="0.61224">
        <ele>125.65944915358</ele>
        <time>2021-11-17T08:28:51Z</time>
      </trkpt>
      <trkpt lat="46.51406" lon="0.61221">
        <ele>125.61748077068</ele>
        <time>2021-11-17T08:28:53Z</time>
      </trkpt>
      <trkpt lat="46.51408" lon="0.61218">
        <ele>126.16732726898</ele>
        <time>2021-11-17T08:28:55Z</time>
      </trkpt>
      <trkpt lat="46.51409" lon="0.61215">
        <ele>125.71299501229</ele>
        <time>2021-11-17T08:28:57Z</time>
      </trkpt>
      <trkpt lat="46.5141" lon="0.61212">
        <ele>125.65394928586</ele>
        <time>2021-11-17T08:28:59Z</time>
      </trkpt>
      <trkpt lat="46.51412" lon="0.61209">
        <ele>125.8370400453</ele>
        <time>2021-11-17T08:29:01Z</time>
      </trkpt>
      <trkpt lat="46.51414" lon="0.61205">
        <ele>125.62416338082</ele>
        <time>2021-11-17T08:29:03Z</time>
      </trkpt>
      <trkpt lat="46.51415" lon="0.61202">
        <ele>125.82266209181</ele>
        <time>2021-11-17T08:29:05Z</time>
      </trkpt>
      <trkpt lat="46.51416" lon="0.61199">
        <ele>126.01685687993</ele>
        <time>2021-11-17T08:29:07Z</time>
      </trkpt>
      <trkpt lat="46.51418" lon="0.61197">
        <ele>126.50710954703</ele>
        <time>2021-11-17T08:29:09Z</time>
      </trkpt>
      <trkpt lat="46.51419" lon="0.61194">
        <ele>126.18209754676</ele>
        <time>2021-11-17T08:29:11Z</time>
      </trkpt>
      <trkpt lat="46.5142" lon="0.6119">
        <ele>126.42238736339</ele>
        <time>2021-11-17T08:29:13Z</time>
      </trkpt>
      <trkpt lat="46.51422" lon="0.61187">
        <ele>126.63686412573</ele>
        <time>2021-11-17T08:29:15Z</time>
      </trkpt>
      <trkpt lat="46.51423" lon="0.61184">
        <ele>126.36081324238</ele>
        <time>2021-11-17T08:29:17Z</time>
      </trkpt>
      <trkpt lat="46.51425" lon="0.61182">
        <ele>126.46052748524</ele>
        <time>2021-11-17T08:29:19Z</time>
      </trkpt>
      <trkpt lat="46.51426" lon="0.61178">
        <ele>126.55704438034</ele>
        <time>2021-11-17T08:29:21Z</time>
      </trkpt>
      <trkpt lat="46.51428" lon="0.61175">
        <ele>126.99554109108</ele>
        <time>2021-11-17T08:29:23Z</time>
      </trkpt>
      <trkpt lat="46.5143" lon="0.61172">
        <ele>126.63746112119</ele>
        <time>2021-11-17T08:29:25Z</time>
      </trkpt>
      <trkpt lat="46.51432" lon="0.6117">
        <ele>126.63706195075</ele>
        <time>2021-11-17T08:29:27Z</time>
      </trkpt>
      <trkpt lat="46.51433" lon="0.61166">
        <ele>126.35291844513</ele>
        <time>2021-11-17T08:29:29Z</time>
      </trkpt>
      <trkpt lat="46.51435" lon="0.61163">
        <ele>126.38118836936</ele>
        <time>2021-11-17T08:29:31Z</time>
      </trkpt>
      <trkpt lat="46.51437" lon="0.6116">
        <ele>126.48149463441</ele>
        <time>2021-11-17T08:29:33Z</time>
      </trkpt>
      <trkpt lat="46.51438" lon="0.61157">
        <ele>126.55299624614</ele>
        <time>2021-11-17T08:29:35Z</time>
      </trkpt>
      <trkpt lat="46.5144" lon="0.61154">
        <ele>127.14815674908</ele>
        <time>2021-11-17T08:29:37Z</time>
      </trkpt>
      <trkpt lat="46.51441" lon="0.61151">
        <ele>126.46671907138</ele>
        <time>2021-11-17T08:29:39Z</time>
      </trkpt>
      <trkpt lat="46.51443" lon="0.61148">
        <ele>126.66639700532</ele>
        <time>2021-11-17T08:29:41Z</time>
      </trkpt>
      <trkpt lat="46.51444" lon="0.61146">
        <ele>126.68808375951</ele>
        <time>2021-11-17T08:29:43Z</time>
      </trkpt>
      <trkpt lat="46.51446" lon="0.61142">
        <ele>126.48579870258</ele>
        <time>2021-11-17T08:29:45Z</time>
      </trkpt>
      <trkpt lat="46.51447" lon="0.61139">
        <ele>126.51256474294</ele>
        <time>2021-11-17T08:29:47Z</time>
      </trkpt>
      <trkpt lat="46.51449" lon="0.61137">
        <ele>126.55745656602</ele>
        <time>2021-11-17T08:29:49Z</time>
      </trkpt>
      <trkpt lat="46.51451" lon="0.61134">
        <ele>126.58487181831</ele>
        <time>2021-11-17T08:29:51Z</time>
      </trkpt>
      <trkpt lat="46.51453" lon="0.61131">
        <ele>126.60387180559</ele>
        <time>2021-11-17T08:29:53Z</time>
      </trkpt>
      <trkpt lat="46.51454" lon="0.61129">
        <ele>127.12016149424</ele>
        <time>2021-11-17T08:29:55Z</time>
      </trkpt>
      <trkpt lat="46.51456" lon="0.61125">
        <ele>127.10091994889</ele>
        <time>2021-11-17T08:29:57Z</time>
      </trkpt>
      <trkpt lat="46.51457" lon="0.61122">
        <ele>126.7609357778</ele>
        <time>2021-11-17T08:29:59Z</time>
      </trkpt>
      <trkpt lat="46.5146" lon="0.61119">
        <ele>127.03017772269</ele>
        <time>2021-11-17T08:30:01Z</time>
      </trkpt>
      <trkpt lat="46.51461" lon="0.61117">
        <ele>127.04513175134</ele>
        <time>2021-11-17T08:30:03Z</time>
      </trkpt>
      <trkpt lat="46.51462" lon="0.61113">
        <ele>127.33390401118</ele>
        <time>2021-11-17T08:30:05Z</time>
      </trkpt>
      <trkpt lat="46.51463" lon="0.6111">
        <ele>127.29058679659</ele>
        <time>2021-11-17T08:30:07Z</time>
      </trkpt>
      <trkpt lat="46.51466" lon="0.61106">
        <ele>127.3891752176</ele>
        <time>2021-11-17T08:30:09Z</time>
      </trkpt>
      <trkpt lat="46.51466" lon="0.61104">
        <ele>127.5056234831</ele>
        <time>2021-11-17T08:30:11Z</time>
      </trkpt>
      <trkpt lat="46.51468" lon="0.61101">
        <ele>127.42770167999</ele>
        <time>2021-11-17T08:30:13Z</time>
      </trkpt>
      <trkpt lat="46.5147" lon="0.61097">
        <ele>127.58965186682</ele>
        <time>2021-11-17T08:30:15Z</time>
      </trkpt>
      <trkpt lat="46.51472" lon="0.61094">
        <ele>127.78069093917</ele>
        <time>2021-11-17T08:30:17Z</time>
      </trkpt>
      <trkpt lat="46.51473" lon="0.61091">
        <ele>128.05583488103</ele>
        <time>2021-11-17T08:30:19Z</time>
      </trkpt>
      <trkpt lat="46.51475" lon="0.61088">
        <ele>127.75106617529</ele>
        <time>2021-11-17T08:30:21Z</time>
      </trkpt>
      <trkpt lat="46.51477" lon="0.61086">
        <ele>127.48875836842</ele>
        <time>2021-11-17T08:30:23Z</time>
      </trkpt>
      <trkpt lat="46.51478" lon="0.61083">
        <ele>127.48440228961</ele>
        <time>2021-11-17T08:30:25Z</time>
      </trkpt>
      <trkpt lat="46.5148" lon="0.6108">
        <ele>127.15872759651</ele>
        <time>2021-11-17T08:30:27Z</time>
      </trkpt>
      <trkpt lat="46.51482" lon="0.61079">
        <ele>127.5340680778</ele>
        <time>2021-11-17T08:30:30Z</time>
      </trkpt>
      <trkpt lat="46.51484" lon="0.61079">
        <ele>127.2420900939</ele>
        <time>2021-11-17T08:30:34Z</time>
      </trkpt>
      <trkpt lat="46.51486" lon="0.6108">
        <ele>127.13046008069</ele>
        <time>2021-11-17T08:30:36Z</time>
      </trkpt>
      <trkpt lat="46.51488" lon="0.6108">
        <ele>127.52964016981</ele>
        <time>2021-11-17T08:30:40Z</time>
      </trkpt>
      <trkpt lat="46.5149" lon="0.6108">
        <ele>127.55286320765</ele>
        <time>2021-11-17T08:30:43Z</time>
      </trkpt>
      <trkpt lat="46.51493" lon="0.61082">
        <ele>127.19638160057</ele>
        <time>2021-11-17T08:30:46Z</time>
      </trkpt>
      <trkpt lat="46.51494" lon="0.61084">
        <ele>127.42739060055</ele>
        <time>2021-11-17T08:30:48Z</time>
      </trkpt>
      <trkpt lat="46.51497" lon="0.61085">
        <ele>127.2891062405</ele>
        <time>2021-11-17T08:30:50Z</time>
      </trkpt>
      <trkpt lat="46.51499" lon="0.61087">
        <ele>127.2375809513</ele>
        <time>2021-11-17T08:30:52Z</time>
      </trkpt>
      <trkpt lat="46.51501" lon="0.61088">
        <ele>127.36299998313</ele>
        <time>2021-11-17T08:30:54Z</time>
      </trkpt>
      <trkpt lat="46.51504" lon="0.61089">
        <ele>127.43195752706</ele>
        <time>2021-11-17T08:30:56Z</time>
      </trkpt>
      <trkpt lat="46.51506" lon="0.6109">
        <ele>127.48173992708</ele>
        <time>2021-11-17T08:30:58Z</time>
      </trkpt>
      <trkpt lat="46.51508" lon="0.61091">
        <ele>127.32933474332</ele>
        <time>2021-11-17T08:31:00Z</time>
      </trkpt>
      <trkpt lat="46.5151" lon="0.61093">
        <ele>127.40046168398</ele>
        <time>2021-11-17T08:31:02Z</time>
      </trkpt>
      <trkpt lat="46.51513" lon="0.61095">
        <ele>127.44745912775</ele>
        <time>2021-11-17T08:31:04Z</time>
      </trkpt>
      <trkpt lat="46.51515" lon="0.61096">
        <ele>127.40502663702</ele>
        <time>2021-11-17T08:31:05Z</time>
      </trkpt>
      <trkpt lat="46.51516" lon="0.61098">
        <ele>127.9454412302</ele>
        <time>2021-11-17T08:31:07Z</time>
      </trkpt>
      <trkpt lat="46.51518" lon="0.61099">
        <ele>127.36197156366</ele>
        <time>2021-11-17T08:31:09Z</time>
      </trkpt>
      <trkpt lat="46.51521" lon="0.61101">
        <ele>127.38752300479</ele>
        <time>2021-11-17T08:31:11Z</time>
      </trkpt>
      <trkpt lat="46.51523" lon="0.61102">
        <ele>127.6493302919</ele>
        <time>2021-11-17T08:31:13Z</time>
      </trkpt>
      <trkpt lat="46.51525" lon="0.61103">
        <ele>127.49325115792</ele>
        <time>2021-11-17T08:31:15Z</time>
      </trkpt>
      <trkpt lat="46.51527" lon="0.61104">
        <ele>127.69688264281</ele>
        <time>2021-11-17T08:31:16Z</time>
      </trkpt>
      <trkpt lat="46.51529" lon="0.61106">
        <ele>127.59394909441</ele>
        <time>2021-11-17T08:31:18Z</time>
      </trkpt>
      <trkpt lat="46.51532" lon="0.61108">
        <ele>127.27932902426</ele>
        <time>2021-11-17T08:31:20Z</time>
      </trkpt>
      <trkpt lat="46.51534" lon="0.61109">
        <ele>127.14433466643</ele>
        <time>2021-11-17T08:31:22Z</time>
      </trkpt>
      <trkpt lat="46.51536" lon="0.61111">
        <ele>127.51209319476</ele>
        <time>2021-11-17T08:31:23Z</time>
      </trkpt>
      <trkpt lat="46.51538" lon="0.61113">
        <ele>127.41168960929</ele>
        <time>2021-11-17T08:31:25Z</time>
      </trkpt>
      <trkpt lat="46.51541" lon="0.61115">
        <ele>127.48720328696</ele>
        <time>2021-11-17T08:31:27Z</time>
      </trkpt>
      <trkpt lat="46.51543" lon="0.61118">
        <ele>127.52742106561</ele>
        <time>2021-11-17T08:31:29Z</time>
      </trkpt>
      <trkpt lat="46.51545" lon="0.61119">
        <ele>127.4683834482</ele>
        <time>2021-11-17T08:31:31Z</time>
      </trkpt>
      <trkpt lat="46.51548" lon="0.61122">
        <ele>127.49453064054</ele>
        <time>2021-11-17T08:31:33Z</time>
      </trkpt>
      <trkpt lat="46.5155" lon="0.61123">
        <ele>127.58366798889</ele>
        <time>2021-11-17T08:31:35Z</time>
      </trkpt>
      <trkpt lat="46.51553" lon="0.61125">
        <ele>127.84439224191</ele>
        <time>2021-11-17T08:31:37Z</time>
      </trkpt>
      <trkpt lat="46.51555" lon="0.61126">
        <ele>127.41406821832</ele>
        <time>2021-11-17T08:31:39Z</time>
      </trkpt>
      <trkpt lat="46.51558" lon="0.61127">
        <ele>127.39514690358</ele>
        <time>2021-11-17T08:31:41Z</time>
      </trkpt>
      <trkpt lat="46.5156" lon="0.61129">
        <ele>127.12962382194</ele>
        <time>2021-11-17T08:31:43Z</time>
      </trkpt>
      <trkpt lat="46.51562" lon="0.6113">
        <ele>127.40695491061</ele>
        <time>2021-11-17T08:31:45Z</time>
      </trkpt>
      <trkpt lat="46.51565" lon="0.61132">
        <ele>127.53257941548</ele>
        <time>2021-11-17T08:31:47Z</time>
      </trkpt>
      <trkpt lat="46.51568" lon="0.61134">
        <ele>127.39008640032</ele>
        <time>2021-11-17T08:31:49Z</time>
      </trkpt>
      <trkpt lat="46.5157" lon="0.61135">
        <ele>127.21826406848</ele>
        <time>2021-11-17T08:31:51Z</time>
      </trkpt>
      <trkpt lat="46.51573" lon="0.61137">
        <ele>127.15392418578</ele>
        <time>2021-11-17T08:31:53Z</time>
      </trkpt>
      <trkpt lat="46.51575" lon="0.61138">
        <ele>127.07841236144</ele>
        <time>2021-11-17T08:31:55Z</time>
      </trkpt>
      <trkpt lat="46.51577" lon="0.6114">
        <ele>127.15323273931</ele>
        <time>2021-11-17T08:31:57Z</time>
      </trkpt>
      <trkpt lat="46.5158" lon="0.61143">
        <ele>127.29899724387</ele>
        <time>2021-11-17T08:31:59Z</time>
      </trkpt>
      <trkpt lat="46.51581" lon="0.61143">
        <ele>127.32276139315</ele>
        <time>2021-11-17T08:32:00Z</time>
      </trkpt>
      <trkpt lat="46.51583" lon="0.61145">
        <ele>127.0602445174</ele>
        <time>2021-11-17T08:32:02Z</time>
      </trkpt>
      <trkpt lat="46.51586" lon="0.61146">
        <ele>127.18872657605</ele>
        <time>2021-11-17T08:32:04Z</time>
      </trkpt>
      <trkpt lat="46.51588" lon="0.61148">
        <ele>126.92804757319</ele>
        <time>2021-11-17T08:32:06Z</time>
      </trkpt>
      <trkpt lat="46.51591" lon="0.61149">
        <ele>126.97282817215</ele>
        <time>2021-11-17T08:32:08Z</time>
      </trkpt>
      <trkpt lat="46.51593" lon="0.61151">
        <ele>126.86040040106</ele>
        <time>2021-11-17T08:32:10Z</time>
      </trkpt>
      <trkpt lat="46.51596" lon="0.61153">
        <ele>127.09957893379</ele>
        <time>2021-11-17T08:32:12Z</time>
      </trkpt>
      <trkpt lat="46.51598" lon="0.61155">
        <ele>126.49966298509</ele>
        <time>2021-11-17T08:32:14Z</time>
      </trkpt>
      <trkpt lat="46.51601" lon="0.61157">
        <ele>126.76980785094</ele>
        <time>2021-11-17T08:32:16Z</time>
      </trkpt>
      <trkpt lat="46.51603" lon="0.61159">
        <ele>126.96364892274</ele>
        <time>2021-11-17T08:32:18Z</time>
      </trkpt>
      <trkpt lat="46.51605" lon="0.61161">
        <ele>126.61231240537</ele>
        <time>2021-11-17T08:32:20Z</time>
      </trkpt>
      <trkpt lat="46.51607" lon="0.61162">
        <ele>126.311368322</ele>
        <time>2021-11-17T08:32:22Z</time>
      </trkpt>
      <trkpt lat="46.5161" lon="0.61164">
        <ele>126.27857340034</ele>
        <time>2021-11-17T08:32:24Z</time>
      </trkpt>
      <trkpt lat="46.51613" lon="0.61166">
        <ele>126.31872819178</ele>
        <time>2021-11-17T08:32:26Z</time>
      </trkpt>
      <trkpt lat="46.51615" lon="0.61167">
        <ele>126.15214139316</ele>
        <time>2021-11-17T08:32:28Z</time>
      </trkpt>
      <trkpt lat="46.51618" lon="0.61169">
        <ele>126.23772628885</ele>
        <time>2021-11-17T08:32:30Z</time>
      </trkpt>
      <trkpt lat="46.51621" lon="0.61171">
        <ele>125.98805826716</ele>
        <time>2021-11-17T08:32:32Z</time>
      </trkpt>
      <trkpt lat="46.51623" lon="0.61173">
        <ele>125.70726668742</ele>
        <time>2021-11-17T08:32:34Z</time>
      </trkpt>
      <trkpt lat="46.51626" lon="0.61175">
        <ele>125.57048064563</ele>
        <time>2021-11-17T08:32:36Z</time>
      </trkpt>
      <trkpt lat="46.51628" lon="0.61176">
        <ele>125.3205764778</ele>
        <time>2021-11-17T08:32:38Z</time>
      </trkpt>
      <trkpt lat="46.5163" lon="0.61178">
        <ele>125.30321892444</ele>
        <time>2021-11-17T08:32:40Z</time>
      </trkpt>
      <trkpt lat="46.51633" lon="0.61179">
        <ele>124.9566979371</ele>
        <time>2021-11-17T08:32:42Z</time>
      </trkpt>
      <trkpt lat="46.51635" lon="0.61181">
        <ele>124.82902476843</ele>
        <time>2021-11-17T08:32:44Z</time>
      </trkpt>
      <trkpt lat="46.51637" lon="0.61182">
        <ele>124.53668044321</ele>
        <time>2021-11-17T08:32:46Z</time>
      </trkpt>
      <trkpt lat="46.5164" lon="0.61185">
        <ele>124.16815222055</ele>
        <time>2021-11-17T08:32:48Z</time>
      </trkpt>
      <trkpt lat="46.51643" lon="0.61186">
        <ele>124.12169622537</ele>
        <time>2021-11-17T08:32:50Z</time>
      </trkpt>
      <trkpt lat="46.51645" lon="0.61188">
        <ele>123.66459902469</ele>
        <time>2021-11-17T08:32:52Z</time>
      </trkpt>
      <trkpt lat="46.51647" lon="0.61189">
        <ele>123.59456760716</ele>
        <time>2021-11-17T08:32:54Z</time>
      </trkpt>
      <trkpt lat="46.5165" lon="0.61191">
        <ele>123.57642797846</ele>
        <time>2021-11-17T08:32:56Z</time>
      </trkpt>
      <trkpt lat="46.51653" lon="0.61192">
        <ele>123.21282291505</ele>
        <time>2021-11-17T08:32:58Z</time>
      </trkpt>
      <trkpt lat="46.51655" lon="0.61194">
        <ele>122.97280667908</ele>
        <time>2021-11-17T08:33:00Z</time>
      </trkpt>
      <trkpt lat="46.51658" lon="0.61196">
        <ele>122.88562749047</ele>
        <time>2021-11-17T08:33:02Z</time>
      </trkpt>
      <trkpt lat="46.5166" lon="0.61197">
        <ele>122.75632628426</ele>
        <time>2021-11-17T08:33:04Z</time>
      </trkpt>
      <trkpt lat="46.51662" lon="0.61199">
        <ele>122.54188062344</ele>
        <time>2021-11-17T08:33:06Z</time>
      </trkpt>
      <trkpt lat="46.51664" lon="0.61201">
        <ele>122.49604269955</ele>
        <time>2021-11-17T08:33:08Z</time>
      </trkpt>
      <trkpt lat="46.51667" lon="0.61202">
        <ele>122.07192053273</ele>
        <time>2021-11-17T08:33:10Z</time>
      </trkpt>
      <trkpt lat="46.51668" lon="0.61203">
        <ele>122.11550328415</ele>
        <time>2021-11-17T08:33:11Z</time>
      </trkpt>
      <trkpt lat="46.5167" lon="0.61205">
        <ele>121.8741290858</ele>
        <time>2021-11-17T08:33:13Z</time>
      </trkpt>
      <trkpt lat="46.51672" lon="0.61206">
        <ele>121.61029863637</ele>
        <time>2021-11-17T08:33:15Z</time>
      </trkpt>
      <trkpt lat="46.51675" lon="0.61208">
        <ele>121.47835909016</ele>
        <time>2021-11-17T08:33:17Z</time>
      </trkpt>
      <trkpt lat="46.51677" lon="0.61209">
        <ele>121.53451736644</ele>
        <time>2021-11-17T08:33:19Z</time>
      </trkpt>
      <trkpt lat="46.51679" lon="0.61211">
        <ele>121.30729337223</ele>
        <time>2021-11-17T08:33:21Z</time>
      </trkpt>
      <trkpt lat="46.51681" lon="0.61213">
        <ele>120.79655717406</ele>
        <time>2021-11-17T08:33:23Z</time>
      </trkpt>
      <trkpt lat="46.51684" lon="0.61214">
        <ele>120.95804357901</ele>
        <time>2021-11-17T08:33:25Z</time>
      </trkpt>
      <trkpt lat="46.51686" lon="0.61216">
        <ele>120.69623688422</ele>
        <time>2021-11-17T08:33:27Z</time>
      </trkpt>
      <trkpt lat="46.51688" lon="0.61218">
        <ele>120.49139304087</ele>
        <time>2021-11-17T08:33:29Z</time>
      </trkpt>
      <trkpt lat="46.51691" lon="0.6122">
        <ele>120.46378776245</ele>
        <time>2021-11-17T08:33:31Z</time>
      </trkpt>
      <trkpt lat="46.51692" lon="0.61221">
        <ele>120.31905305758</ele>
        <time>2021-11-17T08:33:33Z</time>
      </trkpt>
      <trkpt lat="46.51695" lon="0.61223">
        <ele>120.32901571598</ele>
        <time>2021-11-17T08:33:35Z</time>
      </trkpt>
      <trkpt lat="46.51697" lon="0.61224">
        <ele>120.12597565725</ele>
        <time>2021-11-17T08:33:37Z</time>
      </trkpt>
      <trkpt lat="46.517" lon="0.61226">
        <ele>119.85914693307</ele>
        <time>2021-11-17T08:33:39Z</time>
      </trkpt>
      <trkpt lat="46.51703" lon="0.61228">
        <ele>119.69217790663</ele>
        <time>2021-11-17T08:33:41Z</time>
      </trkpt>
      <trkpt lat="46.51706" lon="0.6123">
        <ele>119.43703625537</ele>
        <time>2021-11-17T08:33:43Z</time>
      </trkpt>
      <trkpt lat="46.51709" lon="0.61231">
        <ele>119.12454567477</ele>
        <time>2021-11-17T08:33:45Z</time>
      </trkpt>
      <trkpt lat="46.51712" lon="0.61234">
        <ele>119.21210697573</ele>
        <time>2021-11-17T08:33:47Z</time>
      </trkpt>
      <trkpt lat="46.51714" lon="0.61235">
        <ele>118.50879547559</ele>
        <time>2021-11-17T08:33:49Z</time>
      </trkpt>
      <trkpt lat="46.51717" lon="0.61237">
        <ele>118.83489942551</ele>
        <time>2021-11-17T08:33:51Z</time>
      </trkpt>
      <trkpt lat="46.51719" lon="0.61239">
        <ele>118.35597264208</ele>
        <time>2021-11-17T08:33:53Z</time>
      </trkpt>
      <trkpt lat="46.51722" lon="0.61241">
        <ele>118.27769217454</ele>
        <time>2021-11-17T08:33:55Z</time>
      </trkpt>
      <trkpt lat="46.51723" lon="0.61242">
        <ele>118.18963849172</ele>
        <time>2021-11-17T08:33:56Z</time>
      </trkpt>
      <trkpt lat="46.51725" lon="0.61243">
        <ele>117.8875965625</ele>
        <time>2021-11-17T08:33:58Z</time>
      </trkpt>
      <trkpt lat="46.51728" lon="0.61245">
        <ele>117.88502719626</ele>
        <time>2021-11-17T08:34:00Z</time>
      </trkpt>
      <trkpt lat="46.5173" lon="0.61247">
        <ele>117.73023682088</ele>
        <time>2021-11-17T08:34:02Z</time>
      </trkpt>
      <trkpt lat="46.51732" lon="0.61249">
        <ele>117.64049794897</ele>
        <time>2021-11-17T08:34:04Z</time>
      </trkpt>
      <trkpt lat="46.51734" lon="0.6125">
        <ele>117.73978107236</ele>
        <time>2021-11-17T08:34:05Z</time>
      </trkpt>
      <trkpt lat="46.51736" lon="0.61251">
        <ele>117.88813040592</ele>
        <time>2021-11-17T08:34:07Z</time>
      </trkpt>
      <trkpt lat="46.51738" lon="0.61254">
        <ele>117.72289338987</ele>
        <time>2021-11-17T08:34:09Z</time>
      </trkpt>
      <trkpt lat="46.5174" lon="0.61255">
        <ele>117.29783815425</ele>
        <time>2021-11-17T08:34:10Z</time>
      </trkpt>
      <trkpt lat="46.51742" lon="0.61257">
        <ele>117.34001465421</ele>
        <time>2021-11-17T08:34:12Z</time>
      </trkpt>
      <trkpt lat="46.51745" lon="0.61258">
        <ele>117.81452035345</ele>
        <time>2021-11-17T08:34:14Z</time>
      </trkpt>
      <trkpt lat="46.51747" lon="0.6126">
        <ele>117.57324966975</ele>
        <time>2021-11-17T08:34:16Z</time>
      </trkpt>
      <trkpt lat="46.5175" lon="0.61261">
        <ele>117.30405209493</ele>
        <time>2021-11-17T08:34:18Z</time>
      </trkpt>
      <trkpt lat="46.51751" lon="0.61262">
        <ele>117.63831695262</ele>
        <time>2021-11-17T08:34:19Z</time>
      </trkpt>
      <trkpt lat="46.51754" lon="0.61263">
        <ele>117.35721930303</ele>
        <time>2021-11-17T08:34:21Z</time>
      </trkpt>
      <trkpt lat="46.51755" lon="0.61265">
        <ele>117.795967496</ele>
        <time>2021-11-17T08:34:22Z</time>
      </trkpt>
      <trkpt lat="46.51757" lon="0.61266">
        <ele>117.66017633583</ele>
        <time>2021-11-17T08:34:24Z</time>
      </trkpt>
      <trkpt lat="46.5176" lon="0.61269">
        <ele>117.91585815791</ele>
        <time>2021-11-17T08:34:26Z</time>
      </trkpt>
      <trkpt lat="46.51762" lon="0.61271">
        <ele>117.40352842305</ele>
        <time>2021-11-17T08:34:28Z</time>
      </trkpt>
      <trkpt lat="46.51764" lon="0.61271">
        <ele>117.36790700536</ele>
        <time>2021-11-17T08:34:29Z</time>
      </trkpt>
      <trkpt lat="46.51766" lon="0.61273">
        <ele>117.37612078805</ele>
        <time>2021-11-17T08:34:31Z</time>
      </trkpt>
      <trkpt lat="46.51769" lon="0.61275">
        <ele>117.68574288208</ele>
        <time>2021-11-17T08:34:33Z</time>
      </trkpt>
      <trkpt lat="46.51772" lon="0.61276">
        <ele>117.95348869171</ele>
        <time>2021-11-17T08:34:35Z</time>
      </trkpt>
      <trkpt lat="46.51775" lon="0.61278">
        <ele>118.09433218371</ele>
        <time>2021-11-17T08:34:37Z</time>
      </trkpt>
      <trkpt lat="46.51777" lon="0.61279">
        <ele>118.20870018564</ele>
        <time>2021-11-17T08:34:39Z</time>
      </trkpt>
      <trkpt lat="46.51778" lon="0.61281">
        <ele>118.3452832615</ele>
        <time>2021-11-17T08:34:40Z</time>
      </trkpt>
      <trkpt lat="46.5178" lon="0.61282">
        <ele>118.45608932339</ele>
        <time>2021-11-17T08:34:42Z</time>
      </trkpt>
      <trkpt lat="46.51783" lon="0.61284">
        <ele>118.18183575571</ele>
        <time>2021-11-17T08:34:44Z</time>
      </trkpt>
      <trkpt lat="46.51785" lon="0.61285">
        <ele>118.38764266949</ele>
        <time>2021-11-17T08:34:46Z</time>
      </trkpt>
      <trkpt lat="46.51788" lon="0.61287">
        <ele>118.29205545504</ele>
        <time>2021-11-17T08:34:48Z</time>
      </trkpt>
      <trkpt lat="46.5179" lon="0.61289">
        <ele>118.38030407764</ele>
        <time>2021-11-17T08:34:50Z</time>
      </trkpt>
      <trkpt lat="46.51793" lon="0.61291">
        <ele>118.44989855122</ele>
        <time>2021-11-17T08:34:52Z</time>
      </trkpt>
      <trkpt lat="46.51796" lon="0.61292">
        <ele>118.71281998046</ele>
        <time>2021-11-17T08:34:54Z</time>
      </trkpt>
      <trkpt lat="46.51798" lon="0.61294">
        <ele>118.51526384056</ele>
        <time>2021-11-17T08:34:56Z</time>
      </trkpt>
      <trkpt lat="46.51801" lon="0.61296">
        <ele>118.52637530118</ele>
        <time>2021-11-17T08:34:58Z</time>
      </trkpt>
      <trkpt lat="46.51803" lon="0.61298">
        <ele>118.52538914885</ele>
        <time>2021-11-17T08:35:00Z</time>
      </trkpt>
      <trkpt lat="46.51805" lon="0.61299">
        <ele>118.34497850016</ele>
        <time>2021-11-17T08:35:02Z</time>
      </trkpt>
      <trkpt lat="46.51807" lon="0.61301">
        <ele>118.54332224932</ele>
        <time>2021-11-17T08:35:04Z</time>
      </trkpt>
      <trkpt lat="46.5181" lon="0.61302">
        <ele>118.29522897676</ele>
        <time>2021-11-17T08:35:06Z</time>
      </trkpt>
      <trkpt lat="46.51813" lon="0.61304">
        <ele>118.59508885164</ele>
        <time>2021-11-17T08:35:08Z</time>
      </trkpt>
      <trkpt lat="46.51815" lon="0.61306">
        <ele>118.40456998535</ele>
        <time>2021-11-17T08:35:10Z</time>
      </trkpt>
      <trkpt lat="46.51817" lon="0.61307">
        <ele>118.52770886011</ele>
        <time>2021-11-17T08:35:12Z</time>
      </trkpt>
      <trkpt lat="46.5182" lon="0.61309">
        <ele>118.62513435353</ele>
        <time>2021-11-17T08:35:14Z</time>
      </trkpt>
      <trkpt lat="46.51822" lon="0.6131">
        <ele>118.76436779369</ele>
        <time>2021-11-17T08:35:16Z</time>
      </trkpt>
      <trkpt lat="46.51824" lon="0.61312">
        <ele>118.92732284125</ele>
        <time>2021-11-17T08:35:18Z</time>
      </trkpt>
      <trkpt lat="46.51827" lon="0.61314">
        <ele>118.99576146342</ele>
        <time>2021-11-17T08:35:20Z</time>
      </trkpt>
      <trkpt lat="46.51829" lon="0.61316">
        <ele>119.13738291059</ele>
        <time>2021-11-17T08:35:22Z</time>
      </trkpt>
      <trkpt lat="46.51832" lon="0.61317">
        <ele>119.08830409683</ele>
        <time>2021-11-17T08:35:24Z</time>
      </trkpt>
      <trkpt lat="46.51835" lon="0.61319">
        <ele>119.54870106466</ele>
        <time>2021-11-17T08:35:26Z</time>
      </trkpt>
      <trkpt lat="46.51837" lon="0.61321">
        <ele>119.53833581973</ele>
        <time>2021-11-17T08:35:29Z</time>
      </trkpt>
      <trkpt lat="46.5184" lon="0.61321">
        <ele>119.18752091751</ele>
        <time>2021-11-17T08:35:31Z</time>
      </trkpt>
      <trkpt lat="46.51843" lon="0.6132">
        <ele>119.13194692414</ele>
        <time>2021-11-17T08:35:33Z</time>
      </trkpt>
      <trkpt lat="46.51844" lon="0.61317">
        <ele>119.23814784177</ele>
        <time>2021-11-17T08:35:35Z</time>
      </trkpt>
      <trkpt lat="46.51846" lon="0.61313">
        <ele>119.50369537156</ele>
        <time>2021-11-17T08:35:37Z</time>
      </trkpt>
      <trkpt lat="46.51846" lon="0.6131">
        <ele>118.89840111695</ele>
        <time>2021-11-17T08:35:39Z</time>
      </trkpt>
      <trkpt lat="46.51847" lon="0.61306">
        <ele>119.10802856088</ele>
        <time>2021-11-17T08:35:41Z</time>
      </trkpt>
      <trkpt lat="46.51849" lon="0.61302">
        <ele>119.24364174809</ele>
        <time>2021-11-17T08:35:44Z</time>
      </trkpt>
      <trkpt lat="46.5185" lon="0.61298">
        <ele>119.40712168906</ele>
        <time>2021-11-17T08:35:46Z</time>
      </trkpt>
      <trkpt lat="46.51851" lon="0.61294">
        <ele>119.31013947632</ele>
        <time>2021-11-17T08:35:48Z</time>
      </trkpt>
      <trkpt lat="46.51852" lon="0.6129">
        <ele>119.01950906496</ele>
        <time>2021-11-17T08:35:50Z</time>
      </trkpt>
      <trkpt lat="46.51853" lon="0.61287">
        <ele>118.83207933977</ele>
        <time>2021-11-17T08:35:52Z</time>
      </trkpt>
      <trkpt lat="46.51854" lon="0.61283">
        <ele>118.42687479407</ele>
        <time>2021-11-17T08:35:54Z</time>
      </trkpt>
      <trkpt lat="46.51855" lon="0.6128">
        <ele>118.66579732206</ele>
        <time>2021-11-17T08:35:56Z</time>
      </trkpt>
      <trkpt lat="46.51856" lon="0.61276">
        <ele>118.6006001886</ele>
        <time>2021-11-17T08:35:58Z</time>
      </trkpt>
      <trkpt lat="46.51858" lon="0.61272">
        <ele>118.50310508162</ele>
        <time>2021-11-17T08:36:00Z</time>
      </trkpt>
      <trkpt lat="46.51859" lon="0.61269">
        <ele>118.70016735513</ele>
        <time>2021-11-17T08:36:02Z</time>
      </trkpt>
      <trkpt lat="46.5186" lon="0.61265">
        <ele>118.48127689958</ele>
        <time>2021-11-17T08:36:04Z</time>
      </trkpt>
      <trkpt lat="46.51861" lon="0.61262">
        <ele>118.3426895123</ele>
        <time>2021-11-17T08:36:06Z</time>
      </trkpt>
      <trkpt lat="46.51862" lon="0.61259">
        <ele>118.30588810146</ele>
        <time>2021-11-17T08:36:08Z</time>
      </trkpt>
      <trkpt lat="46.51863" lon="0.61255">
        <ele>118.08274174109</ele>
        <time>2021-11-17T08:36:10Z</time>
      </trkpt>
      <trkpt lat="46.51865" lon="0.61251">
        <ele>118.23536711931</ele>
        <time>2021-11-17T08:36:12Z</time>
      </trkpt>
      <trkpt lat="46.51866" lon="0.61247">
        <ele>118.05608139932</ele>
        <time>2021-11-17T08:36:15Z</time>
      </trkpt>
      <trkpt lat="46.51867" lon="0.61243">
        <ele>117.94872946013</ele>
        <time>2021-11-17T08:36:17Z</time>
      </trkpt>
      <trkpt lat="46.51869" lon="0.6124">
        <ele>117.783361407</ele>
        <time>2021-11-17T08:36:19Z</time>
      </trkpt>
      <trkpt lat="46.5187" lon="0.61236">
        <ele>117.5963044567</ele>
        <time>2021-11-17T08:36:21Z</time>
      </trkpt>
      <trkpt lat="46.51871" lon="0.61234">
        <ele>117.67262606416</ele>
        <time>2021-11-17T08:36:23Z</time>
      </trkpt>
      <trkpt lat="46.51873" lon="0.6123">
        <ele>117.4225773206</ele>
        <time>2021-11-17T08:36:25Z</time>
      </trkpt>
      <trkpt lat="46.51874" lon="0.61226">
        <ele>117.42142638937</ele>
        <time>2021-11-17T08:36:27Z</time>
      </trkpt>
      <trkpt lat="46.51876" lon="0.61223">
        <ele>117.0199865913</ele>
        <time>2021-11-17T08:36:29Z</time>
      </trkpt>
      <trkpt lat="46.51877" lon="0.6122">
        <ele>116.98362803459</ele>
        <time>2021-11-17T08:36:31Z</time>
      </trkpt>
      <trkpt lat="46.51878" lon="0.61217">
        <ele>116.78715673462</ele>
        <time>2021-11-17T08:36:33Z</time>
      </trkpt>
      <trkpt lat="46.5188" lon="0.61214">
        <ele>116.49413691182</ele>
        <time>2021-11-17T08:36:35Z</time>
      </trkpt>
      <trkpt lat="46.51882" lon="0.61211">
        <ele>116.5076425327</ele>
        <time>2021-11-17T08:36:37Z</time>
      </trkpt>
      <trkpt lat="46.51883" lon="0.61207">
        <ele>116.41755749937</ele>
        <time>2021-11-17T08:36:39Z</time>
      </trkpt>
      <trkpt lat="46.51884" lon="0.61204">
        <ele>116.01321490388</ele>
        <time>2021-11-17T08:36:41Z</time>
      </trkpt>
      <trkpt lat="46.51886" lon="0.61202">
        <ele>115.98852958623</ele>
        <time>2021-11-17T08:36:43Z</time>
      </trkpt>
      <trkpt lat="46.51887" lon="0.61198">
        <ele>115.77542210836</ele>
        <time>2021-11-17T08:36:45Z</time>
      </trkpt>
      <trkpt lat="46.51888" lon="0.61196">
        <ele>115.34275631607</ele>
        <time>2021-11-17T08:36:47Z</time>
      </trkpt>
      <trkpt lat="46.5189" lon="0.61193">
        <ele>115.3129242789</ele>
        <time>2021-11-17T08:36:49Z</time>
      </trkpt>
      <trkpt lat="46.51892" lon="0.61191">
        <ele>115.01442896668</ele>
        <time>2021-11-17T08:36:51Z</time>
      </trkpt>
      <trkpt lat="46.51894" lon="0.61188">
        <ele>114.65361142717</ele>
        <time>2021-11-17T08:36:54Z</time>
      </trkpt>
      <trkpt lat="46.51896" lon="0.61186">
        <ele>114.82878948469</ele>
        <time>2021-11-17T08:36:56Z</time>
      </trkpt>
      <trkpt lat="46.51897" lon="0.61184">
        <ele>114.22955996171</ele>
        <time>2021-11-17T08:36:58Z</time>
      </trkpt>
      <trkpt lat="46.51899" lon="0.6118">
        <ele>113.8148226114</ele>
        <time>2021-11-17T08:37:00Z</time>
      </trkpt>
      <trkpt lat="46.519" lon="0.61178">
        <ele>114.14047704265</ele>
        <time>2021-11-17T08:37:02Z</time>
      </trkpt>
      <trkpt lat="46.51903" lon="0.61176">
        <ele>113.41221132688</ele>
        <time>2021-11-17T08:37:04Z</time>
      </trkpt>
      <trkpt lat="46.51905" lon="0.61173">
        <ele>113.2742380444</ele>
        <time>2021-11-17T08:37:06Z</time>
      </trkpt>
      <trkpt lat="46.51906" lon="0.61169">
        <ele>113.25138006732</ele>
        <time>2021-11-17T08:37:08Z</time>
      </trkpt>
      <trkpt lat="46.51908" lon="0.61168">
        <ele>112.74133038707</ele>
        <time>2021-11-17T08:37:10Z</time>
      </trkpt>
      <trkpt lat="46.51909" lon="0.61165">
        <ele>112.74912380427</ele>
        <time>2021-11-17T08:37:11Z</time>
      </trkpt>
      <trkpt lat="46.5191" lon="0.61161">
        <ele>112.65669551305</ele>
        <time>2021-11-17T08:37:13Z</time>
      </trkpt>
      <trkpt lat="46.51911" lon="0.61158">
        <ele>112.46720590722</ele>
        <time>2021-11-17T08:37:14Z</time>
      </trkpt>
      <trkpt lat="46.51913" lon="0.61155">
        <ele>112.59595862124</ele>
        <time>2021-11-17T08:37:15Z</time>
      </trkpt>
      <trkpt lat="46.51914" lon="0.61152">
        <ele>112.27438610606</ele>
        <time>2021-11-17T08:37:17Z</time>
      </trkpt>
      <trkpt lat="46.51915" lon="0.61149">
        <ele>112.22623336688</ele>
        <time>2021-11-17T08:37:19Z</time>
      </trkpt>
      <trkpt lat="46.51917" lon="0.61145">
        <ele>111.93064432126</ele>
        <time>2021-11-17T08:37:21Z</time>
      </trkpt>
      <trkpt lat="46.51919" lon="0.61141">
        <ele>111.81832091231</ele>
        <time>2021-11-17T08:37:23Z</time>
      </trkpt>
      <trkpt lat="46.5192" lon="0.61137">
        <ele>111.25931959413</ele>
        <time>2021-11-17T08:37:25Z</time>
      </trkpt>
      <trkpt lat="46.51921" lon="0.61134">
        <ele>111.2651822241</ele>
        <time>2021-11-17T08:37:26Z</time>
      </trkpt>
      <trkpt lat="46.51922" lon="0.61132">
        <ele>111.14670293219</ele>
        <time>2021-11-17T08:37:28Z</time>
      </trkpt>
      <trkpt lat="46.51924" lon="0.61128">
        <ele>111.44861355983</ele>
        <time>2021-11-17T08:37:30Z</time>
      </trkpt>
      <trkpt lat="46.51925" lon="0.61125">
        <ele>111.31772221625</ele>
        <time>2021-11-17T08:37:32Z</time>
      </trkpt>
      <trkpt lat="46.51927" lon="0.61122">
        <ele>110.90773558617</ele>
        <time>2021-11-17T08:37:34Z</time>
      </trkpt>
      <trkpt lat="46.51929" lon="0.61118">
        <ele>111.18985321186</ele>
        <time>2021-11-17T08:37:36Z</time>
      </trkpt>
      <trkpt lat="46.51931" lon="0.61114">
        <ele>111.38437493145</ele>
        <time>2021-11-17T08:37:38Z</time>
      </trkpt>
      <trkpt lat="46.51931" lon="0.61112">
        <ele>111.37544619013</ele>
        <time>2021-11-17T08:37:39Z</time>
      </trkpt>
      <trkpt lat="46.51932" lon="0.61109">
        <ele>110.72506544646</ele>
        <time>2021-11-17T08:37:41Z</time>
      </trkpt>
      <trkpt lat="46.51934" lon="0.61107">
        <ele>110.7560738232</ele>
        <time>2021-11-17T08:37:42Z</time>
      </trkpt>
      <trkpt lat="46.51935" lon="0.61105">
        <ele>111.08307830431</ele>
        <time>2021-11-17T08:37:44Z</time>
      </trkpt>
      <trkpt lat="46.51936" lon="0.61101">
        <ele>110.81713049021</ele>
        <time>2021-11-17T08:37:46Z</time>
      </trkpt>
      <trkpt lat="46.51939" lon="0.61097">
        <ele>110.78417393751</ele>
        <time>2021-11-17T08:37:49Z</time>
      </trkpt>
      <trkpt lat="46.5194" lon="0.61094">
        <ele>110.68841963448</ele>
        <time>2021-11-17T08:37:51Z</time>
      </trkpt>
      <trkpt lat="46.51942" lon="0.6109">
        <ele>111.26064772438</ele>
        <time>2021-11-17T08:37:53Z</time>
      </trkpt>
      <trkpt lat="46.51942" lon="0.61087">
        <ele>111.13570708875</ele>
        <time>2021-11-17T08:37:54Z</time>
      </trkpt>
      <trkpt lat="46.51944" lon="0.61085">
        <ele>111.41078783013</ele>
        <time>2021-11-17T08:37:56Z</time>
      </trkpt>
      <trkpt lat="46.51945" lon="0.61081">
        <ele>111.25031797495</ele>
        <time>2021-11-17T08:37:58Z</time>
      </trkpt>
      <trkpt lat="46.51947" lon="0.61077">
        <ele>111.33831178024</ele>
        <time>2021-11-17T08:38:00Z</time>
      </trkpt>
      <trkpt lat="46.51948" lon="0.61074">
        <ele>111.0877986867</ele>
        <time>2021-11-17T08:38:02Z</time>
      </trkpt>
      <trkpt lat="46.5195" lon="0.6107">
        <ele>111.30009192321</ele>
        <time>2021-11-17T08:38:04Z</time>
      </trkpt>
      <trkpt lat="46.51952" lon="0.61068">
        <ele>111.4133394463</ele>
        <time>2021-11-17T08:38:06Z</time>
      </trkpt>
      <trkpt lat="46.51953" lon="0.61064">
        <ele>111.99935332965</ele>
        <time>2021-11-17T08:38:08Z</time>
      </trkpt>
      <trkpt lat="46.51955" lon="0.6106">
        <ele>111.41925223172</ele>
        <time>2021-11-17T08:38:11Z</time>
      </trkpt>
      <trkpt lat="46.51957" lon="0.61056">
        <ele>111.71357341763</ele>
        <time>2021-11-17T08:38:13Z</time>
      </trkpt>
      <trkpt lat="46.51958" lon="0.61053">
        <ele>111.38402812369</ele>
        <time>2021-11-17T08:38:15Z</time>
      </trkpt>
      <trkpt lat="46.5196" lon="0.61049">
        <ele>111.44518560357</ele>
        <time>2021-11-17T08:38:17Z</time>
      </trkpt>
      <trkpt lat="46.51961" lon="0.61047">
        <ele>111.54854452331</ele>
        <time>2021-11-17T08:38:19Z</time>
      </trkpt>
      <trkpt lat="46.51963" lon="0.61045">
        <ele>111.99240252282</ele>
        <time>2021-11-17T08:38:20Z</time>
      </trkpt>
      <trkpt lat="46.51964" lon="0.61041">
        <ele>111.7385167582</ele>
        <time>2021-11-17T08:38:22Z</time>
      </trkpt>
      <trkpt lat="46.51966" lon="0.61038">
        <ele>111.82261771802</ele>
        <time>2021-11-17T08:38:24Z</time>
      </trkpt>
      <trkpt lat="46.51967" lon="0.61035">
        <ele>112.20990719181</ele>
        <time>2021-11-17T08:38:26Z</time>
      </trkpt>
      <trkpt lat="46.51969" lon="0.61032">
        <ele>111.93158113211</ele>
        <time>2021-11-17T08:38:28Z</time>
      </trkpt>
      <trkpt lat="46.51971" lon="0.61028">
        <ele>112.17281662021</ele>
        <time>2021-11-17T08:38:30Z</time>
      </trkpt>
      <trkpt lat="46.51972" lon="0.61025">
        <ele>113.1609723838</ele>
        <time>2021-11-17T08:38:32Z</time>
      </trkpt>
      <trkpt lat="46.51973" lon="0.61021">
        <ele>112.62377683632</ele>
        <time>2021-11-17T08:38:34Z</time>
      </trkpt>
      <trkpt lat="46.51975" lon="0.61018">
        <ele>112.62247912865</ele>
        <time>2021-11-17T08:38:36Z</time>
      </trkpt>
      <trkpt lat="46.51976" lon="0.61015">
        <ele>113.29438910447</ele>
        <time>2021-11-17T08:38:38Z</time>
      </trkpt>
      <trkpt lat="46.51977" lon="0.61013">
        <ele>113.31257354282</ele>
        <time>2021-11-17T08:38:40Z</time>
      </trkpt>
      <trkpt lat="46.51979" lon="0.61009">
        <ele>113.43753733672</ele>
        <time>2021-11-17T08:38:42Z</time>
      </trkpt>
      <trkpt lat="46.51981" lon="0.61005">
        <ele>113.48899241071</ele>
        <time>2021-11-17T08:38:45Z</time>
      </trkpt>
      <trkpt lat="46.51983" lon="0.61003">
        <ele>113.9156392226</ele>
        <time>2021-11-17T08:38:47Z</time>
      </trkpt>
      <trkpt lat="46.51984" lon="0.61">
        <ele>113.98289106693</ele>
        <time>2021-11-17T08:38:49Z</time>
      </trkpt>
      <trkpt lat="46.51986" lon="0.60997">
        <ele>114.11909283884</ele>
        <time>2021-11-17T08:38:51Z</time>
      </trkpt>
      <trkpt lat="46.51987" lon="0.60993">
        <ele>114.36910220142</ele>
        <time>2021-11-17T08:38:53Z</time>
      </trkpt>
      <trkpt lat="46.51989" lon="0.6099">
        <ele>114.26802692376</ele>
        <time>2021-11-17T08:38:55Z</time>
      </trkpt>
      <trkpt lat="46.51991" lon="0.60988">
        <ele>114.59693531133</ele>
        <time>2021-11-17T08:38:57Z</time>
      </trkpt>
      <trkpt lat="46.51992" lon="0.60985">
        <ele>115.04457694665</ele>
        <time>2021-11-17T08:38:59Z</time>
      </trkpt>
      <trkpt lat="46.51994" lon="0.60982">
        <ele>114.86874878034</ele>
        <time>2021-11-17T08:39:01Z</time>
      </trkpt>
      <trkpt lat="46.51995" lon="0.60979">
        <ele>115.12807938643</ele>
        <time>2021-11-17T08:39:03Z</time>
      </trkpt>
      <trkpt lat="46.51997" lon="0.60976">
        <ele>115.33696254995</ele>
        <time>2021-11-17T08:39:05Z</time>
      </trkpt>
      <trkpt lat="46.51998" lon="0.60973">
        <ele>115.30348031782</ele>
        <time>2021-11-17T08:39:07Z</time>
      </trkpt>
      <trkpt lat="46.52" lon="0.6097">
        <ele>115.27441310231</ele>
        <time>2021-11-17T08:39:09Z</time>
      </trkpt>
      <trkpt lat="46.52001" lon="0.60967">
        <ele>115.74637795612</ele>
        <time>2021-11-17T08:39:11Z</time>
      </trkpt>
      <trkpt lat="46.52003" lon="0.60963">
        <ele>115.98083686456</ele>
        <time>2021-11-17T08:39:13Z</time>
      </trkpt>
      <trkpt lat="46.52005" lon="0.6096">
        <ele>116.18543519266</ele>
        <time>2021-11-17T08:39:16Z</time>
      </trkpt>
      <trkpt lat="46.52007" lon="0.60957">
        <ele>116.80180647783</ele>
        <time>2021-11-17T08:39:18Z</time>
      </trkpt>
      <trkpt lat="46.52008" lon="0.60955">
        <ele>116.34371487424</ele>
        <time>2021-11-17T08:39:20Z</time>
      </trkpt>
      <trkpt lat="46.5201" lon="0.60952">
        <ele>116.52311563306</ele>
        <time>2021-11-17T08:39:22Z</time>
      </trkpt>
      <trkpt lat="46.52012" lon="0.60951">
        <ele>116.6253257636</ele>
        <time>2021-11-17T08:39:23Z</time>
      </trkpt>
      <trkpt lat="46.52013" lon="0.60948">
        <ele>116.69404082652</ele>
        <time>2021-11-17T08:39:25Z</time>
      </trkpt>
      <trkpt lat="46.52015" lon="0.60945">
        <ele>117.20050587319</ele>
        <time>2021-11-17T08:39:27Z</time>
      </trkpt>
      <trkpt lat="46.52016" lon="0.60943">
        <ele>117.04960347153</ele>
        <time>2021-11-17T08:39:29Z</time>
      </trkpt>
      <trkpt lat="46.52018" lon="0.6094">
        <ele>117.42175592761</ele>
        <time>2021-11-17T08:39:31Z</time>
      </trkpt>
      <trkpt lat="46.5202" lon="0.60937">
        <ele>116.95871327072</ele>
        <time>2021-11-17T08:39:33Z</time>
      </trkpt>
      <trkpt lat="46.52022" lon="0.60935">
        <ele>117.159208172</ele>
        <time>2021-11-17T08:39:35Z</time>
      </trkpt>
      <trkpt lat="46.52023" lon="0.60932">
        <ele>117.33648633491</ele>
        <time>2021-11-17T08:39:37Z</time>
      </trkpt>
      <trkpt lat="46.52025" lon="0.60931">
        <ele>117.72954709455</ele>
        <time>2021-11-17T08:39:39Z</time>
      </trkpt>
      <trkpt lat="46.52027" lon="0.60929">
        <ele>117.70273857098</ele>
        <time>2021-11-17T08:39:40Z</time>
      </trkpt>
      <trkpt lat="46.52028" lon="0.60927">
        <ele>117.52953264862</ele>
        <time>2021-11-17T08:39:42Z</time>
      </trkpt>
      <trkpt lat="46.5203" lon="0.60925">
        <ele>117.3781014448</ele>
        <time>2021-11-17T08:39:44Z</time>
      </trkpt>
      <trkpt lat="46.52032" lon="0.60922">
        <ele>117.43336317595</ele>
        <time>2021-11-17T08:39:46Z</time>
      </trkpt>
      <trkpt lat="46.52034" lon="0.6092">
        <ele>117.30103463586</ele>
        <time>2021-11-17T08:39:48Z</time>
      </trkpt>
      <trkpt lat="46.52037" lon="0.60919">
        <ele>117.56654167734</ele>
        <time>2021-11-17T08:39:50Z</time>
      </trkpt>
      <trkpt lat="46.52038" lon="0.60916">
        <ele>117.79735680483</ele>
        <time>2021-11-17T08:39:52Z</time>
      </trkpt>
      <trkpt lat="46.5204" lon="0.60914">
        <ele>117.38476478867</ele>
        <time>2021-11-17T08:39:54Z</time>
      </trkpt>
      <trkpt lat="46.52042" lon="0.60912">
        <ele>117.70278262813</ele>
        <time>2021-11-17T08:39:56Z</time>
      </trkpt>
      <trkpt lat="46.52044" lon="0.6091">
        <ele>118.1702513136</ele>
        <time>2021-11-17T08:39:58Z</time>
      </trkpt>
      <trkpt lat="46.52046" lon="0.60907">
        <ele>117.88522444386</ele>
        <time>2021-11-17T08:40:00Z</time>
      </trkpt>
      <trkpt lat="46.52047" lon="0.60905">
        <ele>117.93903925177</ele>
        <time>2021-11-17T08:40:02Z</time>
      </trkpt>
      <trkpt lat="46.5205" lon="0.60903">
        <ele>118.09396447148</ele>
        <time>2021-11-17T08:40:04Z</time>
      </trkpt>
      <trkpt lat="46.52051" lon="0.60902">
        <ele>117.86546409409</ele>
        <time>2021-11-17T08:40:06Z</time>
      </trkpt>
      <trkpt lat="46.52054" lon="0.60899">
        <ele>117.98648000974</ele>
        <time>2021-11-17T08:40:08Z</time>
      </trkpt>
      <trkpt lat="46.52056" lon="0.60897">
        <ele>117.95196999796</ele>
        <time>2021-11-17T08:40:10Z</time>
      </trkpt>
      <trkpt lat="46.52058" lon="0.60895">
        <ele>118.76494763605</ele>
        <time>2021-11-17T08:40:12Z</time>
      </trkpt>
      <trkpt lat="46.5206" lon="0.60893">
        <ele>118.11831324361</ele>
        <time>2021-11-17T08:40:14Z</time>
      </trkpt>
      <trkpt lat="46.52063" lon="0.60891">
        <ele>118.47002318315</ele>
        <time>2021-11-17T08:40:16Z</time>
      </trkpt>
      <trkpt lat="46.52065" lon="0.60889">
        <ele>118.52567316312</ele>
        <time>2021-11-17T08:40:18Z</time>
      </trkpt>
      <trkpt lat="46.52067" lon="0.60887">
        <ele>118.66400837526</ele>
        <time>2021-11-17T08:40:20Z</time>
      </trkpt>
      <trkpt lat="46.5207" lon="0.60884">
        <ele>118.8124814909</ele>
        <time>2021-11-17T08:40:22Z</time>
      </trkpt>
      <trkpt lat="46.52071" lon="0.60882">
        <ele>118.6973787332</ele>
        <time>2021-11-17T08:40:24Z</time>
      </trkpt>
      <trkpt lat="46.52074" lon="0.6088">
        <ele>119.45788165648</ele>
        <time>2021-11-17T08:40:26Z</time>
      </trkpt>
      <trkpt lat="46.52075" lon="0.60878">
        <ele>119.19599518366</ele>
        <time>2021-11-17T08:40:28Z</time>
      </trkpt>
      <trkpt lat="46.52077" lon="0.60876">
        <ele>119.31096599996</ele>
        <time>2021-11-17T08:40:30Z</time>
      </trkpt>
      <trkpt lat="46.5208" lon="0.60873">
        <ele>119.85567875858</ele>
        <time>2021-11-17T08:40:32Z</time>
      </trkpt>
      <trkpt lat="46.52082" lon="0.60872">
        <ele>119.88411912695</ele>
        <time>2021-11-17T08:40:34Z</time>
      </trkpt>
      <trkpt lat="46.52084" lon="0.6087">
        <ele>119.95124169718</ele>
        <time>2021-11-17T08:40:36Z</time>
      </trkpt>
      <trkpt lat="46.52086" lon="0.60868">
        <ele>119.95915075392</ele>
        <time>2021-11-17T08:40:38Z</time>
      </trkpt>
      <trkpt lat="46.52088" lon="0.60866">
        <ele>120.21172687039</ele>
        <time>2021-11-17T08:40:39Z</time>
      </trkpt>
      <trkpt lat="46.5209" lon="0.60864">
        <ele>120.47898903769</ele>
        <time>2021-11-17T08:40:42Z</time>
      </trkpt>
      <trkpt lat="46.52093" lon="0.60862">
        <ele>120.07764381077</ele>
        <time>2021-11-17T08:40:44Z</time>
      </trkpt>
      <trkpt lat="46.52095" lon="0.60861">
        <ele>120.56134918146</ele>
        <time>2021-11-17T08:40:46Z</time>
      </trkpt>
      <trkpt lat="46.52096" lon="0.60858">
        <ele>120.46365304571</ele>
        <time>2021-11-17T08:40:48Z</time>
      </trkpt>
      <trkpt lat="46.52099" lon="0.60856">
        <ele>120.73276228458</ele>
        <time>2021-11-17T08:40:50Z</time>
      </trkpt>
      <trkpt lat="46.52101" lon="0.60854">
        <ele>120.57967761904</ele>
        <time>2021-11-17T08:40:52Z</time>
      </trkpt>
      <trkpt lat="46.52103" lon="0.60852">
        <ele>120.69926345162</ele>
        <time>2021-11-17T08:40:54Z</time>
      </trkpt>
      <trkpt lat="46.52106" lon="0.6085">
        <ele>121.31750136707</ele>
        <time>2021-11-17T08:40:56Z</time>
      </trkpt>
      <trkpt lat="46.52108" lon="0.60847">
        <ele>121.40295139421</ele>
        <time>2021-11-17T08:40:58Z</time>
      </trkpt>
      <trkpt lat="46.5211" lon="0.60845">
        <ele>120.94848966785</ele>
        <time>2021-11-17T08:41:00Z</time>
      </trkpt>
      <trkpt lat="46.52113" lon="0.60843">
        <ele>121.13594403118</ele>
        <time>2021-11-17T08:41:02Z</time>
      </trkpt>
      <trkpt lat="46.52115" lon="0.60841">
        <ele>121.03315082192</ele>
        <time>2021-11-17T08:41:04Z</time>
      </trkpt>
      <trkpt lat="46.52117" lon="0.60838">
        <ele>121.23314750753</ele>
        <time>2021-11-17T08:41:06Z</time>
      </trkpt>
      <trkpt lat="46.52119" lon="0.60837">
        <ele>121.19036848564</ele>
        <time>2021-11-17T08:41:07Z</time>
      </trkpt>
      <trkpt lat="46.52121" lon="0.60835">
        <ele>121.06096543092</ele>
        <time>2021-11-17T08:41:09Z</time>
      </trkpt>
      <trkpt lat="46.52123" lon="0.60833">
        <ele>121.10308707971</ele>
        <time>2021-11-17T08:41:11Z</time>
      </trkpt>
      <trkpt lat="46.52125" lon="0.60832">
        <ele>121.25546905492</ele>
        <time>2021-11-17T08:41:13Z</time>
      </trkpt>
      <trkpt lat="46.52128" lon="0.6083">
        <ele>121.67114497814</ele>
        <time>2021-11-17T08:41:15Z</time>
      </trkpt>
      <trkpt lat="46.5213" lon="0.60828">
        <ele>121.16853110492</ele>
        <time>2021-11-17T08:41:17Z</time>
      </trkpt>
      <trkpt lat="46.52132" lon="0.60825">
        <ele>120.89393450785</ele>
        <time>2021-11-17T08:41:19Z</time>
      </trkpt>
      <trkpt lat="46.52134" lon="0.60824">
        <ele>121.08717866056</ele>
        <time>2021-11-17T08:41:21Z</time>
      </trkpt>
      <trkpt lat="46.52136" lon="0.60822">
        <ele>121.10114588588</ele>
        <time>2021-11-17T08:41:23Z</time>
      </trkpt>
      <trkpt lat="46.52138" lon="0.6082">
        <ele>120.90138344839</ele>
        <time>2021-11-17T08:41:25Z</time>
      </trkpt>
      <trkpt lat="46.5214" lon="0.60818">
        <ele>120.83808074147</ele>
        <time>2021-11-17T08:41:27Z</time>
      </trkpt>
      <trkpt lat="46.52143" lon="0.60816">
        <ele>120.88181235734</ele>
        <time>2021-11-17T08:41:29Z</time>
      </trkpt>
      <trkpt lat="46.52145" lon="0.60815">
        <ele>121.05878108647</ele>
        <time>2021-11-17T08:41:31Z</time>
      </trkpt>
      <trkpt lat="46.52148" lon="0.60813">
        <ele>121.35990499146</ele>
        <time>2021-11-17T08:41:33Z</time>
      </trkpt>
      <trkpt lat="46.5215" lon="0.60812">
        <ele>121.32836558018</ele>
        <time>2021-11-17T08:41:35Z</time>
      </trkpt>
      <trkpt lat="46.52152" lon="0.60809">
        <ele>120.83367905766</ele>
        <time>2021-11-17T08:41:37Z</time>
      </trkpt>
      <trkpt lat="46.52155" lon="0.60808">
        <ele>121.31985193118</ele>
        <time>2021-11-17T08:41:39Z</time>
      </trkpt>
      <trkpt lat="46.52158" lon="0.60806">
        <ele>121.38808007352</ele>
        <time>2021-11-17T08:41:41Z</time>
      </trkpt>
      <trkpt lat="46.5216" lon="0.60805">
        <ele>121.3613260733</ele>
        <time>2021-11-17T08:41:43Z</time>
      </trkpt>
      <trkpt lat="46.52162" lon="0.60804">
        <ele>121.25440956</ele>
        <time>2021-11-17T08:41:45Z</time>
      </trkpt>
      <trkpt lat="46.52164" lon="0.60802">
        <ele>121.09333147667</ele>
        <time>2021-11-17T08:41:47Z</time>
      </trkpt>
      <trkpt lat="46.52167" lon="0.60801">
        <ele>121.43744280562</ele>
        <time>2021-11-17T08:41:49Z</time>
      </trkpt>
      <trkpt lat="46.52169" lon="0.608">
        <ele>121.39951761253</ele>
        <time>2021-11-17T08:41:51Z</time>
      </trkpt>
      <trkpt lat="46.52172" lon="0.60799">
        <ele>121.95849731471</ele>
        <time>2021-11-17T08:41:53Z</time>
      </trkpt>
      <trkpt lat="46.52174" lon="0.60798">
        <ele>121.02853896189</ele>
        <time>2021-11-17T08:41:55Z</time>
      </trkpt>
      <trkpt lat="46.52177" lon="0.60796">
        <ele>121.39752091933</ele>
        <time>2021-11-17T08:41:57Z</time>
      </trkpt>
      <trkpt lat="46.52179" lon="0.60795">
        <ele>121.33037976827</ele>
        <time>2021-11-17T08:41:59Z</time>
      </trkpt>
      <trkpt lat="46.52182" lon="0.60794">
        <ele>121.42997012939</ele>
        <time>2021-11-17T08:42:01Z</time>
      </trkpt>
      <trkpt lat="46.52185" lon="0.60792">
        <ele>121.42046422511</ele>
        <time>2021-11-17T08:42:03Z</time>
      </trkpt>
      <trkpt lat="46.52187" lon="0.60791">
        <ele>121.08765594009</ele>
        <time>2021-11-17T08:42:05Z</time>
      </trkpt>
      <trkpt lat="46.5219" lon="0.6079">
        <ele>121.55628353916</ele>
        <time>2021-11-17T08:42:07Z</time>
      </trkpt>
      <trkpt lat="46.52192" lon="0.60788">
        <ele>121.99965656083</ele>
        <time>2021-11-17T08:42:09Z</time>
      </trkpt>
      <trkpt lat="46.52194" lon="0.60787">
        <ele>121.65685369354</ele>
        <time>2021-11-17T08:42:11Z</time>
      </trkpt>
      <trkpt lat="46.52197" lon="0.60786">
        <ele>121.36464480311</ele>
        <time>2021-11-17T08:42:13Z</time>
      </trkpt>
      <trkpt lat="46.522" lon="0.60785">
        <ele>121.3758205222</ele>
        <time>2021-11-17T08:42:15Z</time>
      </trkpt>
      <trkpt lat="46.52202" lon="0.60784">
        <ele>121.20013362262</ele>
        <time>2021-11-17T08:42:17Z</time>
      </trkpt>
      <trkpt lat="46.52204" lon="0.60782">
        <ele>121.46562128048</ele>
        <time>2021-11-17T08:42:19Z</time>
      </trkpt>
      <trkpt lat="46.52207" lon="0.60781">
        <ele>121.45356081333</ele>
        <time>2021-11-17T08:42:21Z</time>
      </trkpt>
      <trkpt lat="46.52209" lon="0.6078">
        <ele>121.17123267427</ele>
        <time>2021-11-17T08:42:23Z</time>
      </trkpt>
      <trkpt lat="46.52212" lon="0.60779">
        <ele>121.48845531978</ele>
        <time>2021-11-17T08:42:25Z</time>
      </trkpt>
      <trkpt lat="46.52215" lon="0.60778">
        <ele>121.562083859</ele>
        <time>2021-11-17T08:42:27Z</time>
      </trkpt>
      <trkpt lat="46.52217" lon="0.60777">
        <ele>121.56641328521</ele>
        <time>2021-11-17T08:42:29Z</time>
      </trkpt>
      <trkpt lat="46.52219" lon="0.60776">
        <ele>121.25680510979</ele>
        <time>2021-11-17T08:42:31Z</time>
      </trkpt>
      <trkpt lat="46.52222" lon="0.60775">
        <ele>121.22226885334</ele>
        <time>2021-11-17T08:42:33Z</time>
      </trkpt>
      <trkpt lat="46.52225" lon="0.60775">
        <ele>121.31844308879</ele>
        <time>2021-11-17T08:42:35Z</time>
      </trkpt>
      <trkpt lat="46.52228" lon="0.60774">
        <ele>121.58828163799</ele>
        <time>2021-11-17T08:42:37Z</time>
      </trkpt>
      <trkpt lat="46.5223" lon="0.60773">
        <ele>121.50493610837</ele>
        <time>2021-11-17T08:42:39Z</time>
      </trkpt>
      <trkpt lat="46.52233" lon="0.60773">
        <ele>121.50599787105</ele>
        <time>2021-11-17T08:42:41Z</time>
      </trkpt>
      <trkpt lat="46.52235" lon="0.60772">
        <ele>121.71053454652</ele>
        <time>2021-11-17T08:42:43Z</time>
      </trkpt>
      <trkpt lat="46.52238" lon="0.60772">
        <ele>122.09856408928</ele>
        <time>2021-11-17T08:42:45Z</time>
      </trkpt>
      <trkpt lat="46.52241" lon="0.60771">
        <ele>121.29057111964</ele>
        <time>2021-11-17T08:42:47Z</time>
      </trkpt>
      <trkpt lat="46.52243" lon="0.60771">
        <ele>121.77397534344</ele>
        <time>2021-11-17T08:42:49Z</time>
      </trkpt>
      <trkpt lat="46.52245" lon="0.60771">
        <ele>121.74873720389</ele>
        <time>2021-11-17T08:42:51Z</time>
      </trkpt>
      <trkpt lat="46.52248" lon="0.60771">
        <ele>121.69411472231</ele>
        <time>2021-11-17T08:42:53Z</time>
      </trkpt>
      <trkpt lat="46.52251" lon="0.60772">
        <ele>121.51777445059</ele>
        <time>2021-11-17T08:42:55Z</time>
      </trkpt>
      <trkpt lat="46.52253" lon="0.60773">
        <ele>121.5763312038</ele>
        <time>2021-11-17T08:42:57Z</time>
      </trkpt>
      <trkpt lat="46.52255" lon="0.60774">
        <ele>121.79022940621</ele>
        <time>2021-11-17T08:42:59Z</time>
      </trkpt>
      <trkpt lat="46.52257" lon="0.60776">
        <ele>121.32047079131</ele>
        <time>2021-11-17T08:43:15Z</time>
      </trkpt>
      <trkpt lat="46.52258" lon="0.60779">
        <ele>121.28395371325</ele>
        <time>2021-11-17T08:43:17Z</time>
      </trkpt>
      <trkpt lat="46.52259" lon="0.60783">
        <ele>121.34278809372</ele>
        <time>2021-11-17T08:43:19Z</time>
      </trkpt>
      <trkpt lat="46.5226" lon="0.60787">
        <ele>121.66229737736</ele>
        <time>2021-11-17T08:43:21Z</time>
      </trkpt>
      <trkpt lat="46.52261" lon="0.60789">
        <ele>121.44814219326</ele>
        <time>2021-11-17T08:43:22Z</time>
      </trkpt>
      <trkpt lat="46.52262" lon="0.60792">
        <ele>121.04427855555</ele>
        <time>2021-11-17T08:43:24Z</time>
      </trkpt>
      <trkpt lat="46.52263" lon="0.60795">
        <ele>120.92345084436</ele>
        <time>2021-11-17T08:43:26Z</time>
      </trkpt>
      <trkpt lat="46.52265" lon="0.60799">
        <ele>121.11504077725</ele>
        <time>2021-11-17T08:43:28Z</time>
      </trkpt>
      <trkpt lat="46.52266" lon="0.60802">
        <ele>121.0761318272</ele>
        <time>2021-11-17T08:43:30Z</time>
      </trkpt>
      <trkpt lat="46.52267" lon="0.60805">
        <ele>121.16333224997</ele>
        <time>2021-11-17T08:43:32Z</time>
      </trkpt>
      <trkpt lat="46.52268" lon="0.60808">
        <ele>121.17344712373</ele>
        <time>2021-11-17T08:43:34Z</time>
      </trkpt>
      <trkpt lat="46.5227" lon="0.60811">
        <ele>120.77092984784</ele>
        <time>2021-11-17T08:43:36Z</time>
      </trkpt>
      <trkpt lat="46.52271" lon="0.60815">
        <ele>120.7559884144</ele>
        <time>2021-11-17T08:43:38Z</time>
      </trkpt>
      <trkpt lat="46.52272" lon="0.60818">
        <ele>120.91448772885</ele>
        <time>2021-11-17T08:43:40Z</time>
      </trkpt>
      <trkpt lat="46.52273" lon="0.6082">
        <ele>120.82934171241</ele>
        <time>2021-11-17T08:43:42Z</time>
      </trkpt>
      <trkpt lat="46.52274" lon="0.60824">
        <ele>120.58771750424</ele>
        <time>2021-11-17T08:43:44Z</time>
      </trkpt>
      <trkpt lat="46.52275" lon="0.60827">
        <ele>120.68119297642</ele>
        <time>2021-11-17T08:43:46Z</time>
      </trkpt>
      <trkpt lat="46.52277" lon="0.60831">
        <ele>120.72588859312</ele>
        <time>2021-11-17T08:43:48Z</time>
      </trkpt>
      <trkpt lat="46.52278" lon="0.60834">
        <ele>120.30872685555</ele>
        <time>2021-11-17T08:43:50Z</time>
      </trkpt>
      <trkpt lat="46.52279" lon="0.60837">
        <ele>120.51098436676</ele>
        <time>2021-11-17T08:43:52Z</time>
      </trkpt>
      <trkpt lat="46.52281" lon="0.6084">
        <ele>120.15231897775</ele>
        <time>2021-11-17T08:43:54Z</time>
      </trkpt>
      <trkpt lat="46.52282" lon="0.60843">
        <ele>120.00317720044</ele>
        <time>2021-11-17T08:43:56Z</time>
      </trkpt>
      <trkpt lat="46.52284" lon="0.60846">
        <ele>119.87603496294</ele>
        <time>2021-11-17T08:43:58Z</time>
      </trkpt>
      <trkpt lat="46.52285" lon="0.6085">
        <ele>120.04440462496</ele>
        <time>2021-11-17T08:44:00Z</time>
      </trkpt>
      <trkpt lat="46.52286" lon="0.60853">
        <ele>119.79665247537</ele>
        <time>2021-11-17T08:44:02Z</time>
      </trkpt>
      <trkpt lat="46.52287" lon="0.60856">
        <ele>119.52010074165</ele>
        <time>2021-11-17T08:44:04Z</time>
      </trkpt>
      <trkpt lat="46.52289" lon="0.6086">
        <ele>119.11327726115</ele>
        <time>2021-11-17T08:44:06Z</time>
      </trkpt>
      <trkpt lat="46.5229" lon="0.60863">
        <ele>119.3831242444</ele>
        <time>2021-11-17T08:44:08Z</time>
      </trkpt>
      <trkpt lat="46.52292" lon="0.60866">
        <ele>119.31350365374</ele>
        <time>2021-11-17T08:44:10Z</time>
      </trkpt>
      <trkpt lat="46.52293" lon="0.6087">
        <ele>119.41097434703</ele>
        <time>2021-11-17T08:44:12Z</time>
      </trkpt>
      <trkpt lat="46.52294" lon="0.60874">
        <ele>119.23293768987</ele>
        <time>2021-11-17T08:44:14Z</time>
      </trkpt>
      <trkpt lat="46.52296" lon="0.60877">
        <ele>118.9515235154</ele>
        <time>2021-11-17T08:44:16Z</time>
      </trkpt>
      <trkpt lat="46.52297" lon="0.6088">
        <ele>119.11501652561</ele>
        <time>2021-11-17T08:44:18Z</time>
      </trkpt>
      <trkpt lat="46.52298" lon="0.60884">
        <ele>119.0111781843</ele>
        <time>2021-11-17T08:44:20Z</time>
      </trkpt>
      <trkpt lat="46.52299" lon="0.60888">
        <ele>119.29766132403</ele>
        <time>2021-11-17T08:44:22Z</time>
      </trkpt>
      <trkpt lat="46.523" lon="0.60891">
        <ele>119.12371429056</ele>
        <time>2021-11-17T08:44:24Z</time>
      </trkpt>
      <trkpt lat="46.52301" lon="0.60894">
        <ele>119.08454235364</ele>
        <time>2021-11-17T08:44:26Z</time>
      </trkpt>
      <trkpt lat="46.52302" lon="0.60897">
        <ele>119.45959782321</ele>
        <time>2021-11-17T08:44:28Z</time>
      </trkpt>
      <trkpt lat="46.52303" lon="0.60901">
        <ele>118.6260103751</ele>
        <time>2021-11-17T08:44:30Z</time>
      </trkpt>
      <trkpt lat="46.52304" lon="0.60905">
        <ele>118.51695703249</ele>
        <time>2021-11-17T08:44:32Z</time>
      </trkpt>
      <trkpt lat="46.52305" lon="0.60909">
        <ele>118.64189311117</ele>
        <time>2021-11-17T08:44:34Z</time>
      </trkpt>
      <trkpt lat="46.52306" lon="0.60913">
        <ele>118.30818138551</ele>
        <time>2021-11-17T08:44:36Z</time>
      </trkpt>
      <trkpt lat="46.52307" lon="0.60916">
        <ele>118.09587940853</ele>
        <time>2021-11-17T08:44:38Z</time>
      </trkpt>
      <trkpt lat="46.52308" lon="0.6092">
        <ele>117.71695084963</ele>
        <time>2021-11-17T08:44:40Z</time>
      </trkpt>
      <trkpt lat="46.52308" lon="0.60924">
        <ele>117.65993842203</ele>
        <time>2021-11-17T08:44:42Z</time>
      </trkpt>
      <trkpt lat="46.52309" lon="0.60928">
        <ele>117.64212797023</ele>
        <time>2021-11-17T08:44:44Z</time>
      </trkpt>
      <trkpt lat="46.5231" lon="0.60932">
        <ele>117.065315919</ele>
        <time>2021-11-17T08:44:46Z</time>
      </trkpt>
      <trkpt lat="46.52311" lon="0.60935">
        <ele>117.20609365311</ele>
        <time>2021-11-17T08:44:48Z</time>
      </trkpt>
      <trkpt lat="46.52312" lon="0.60939">
        <ele>116.88498554938</ele>
        <time>2021-11-17T08:44:50Z</time>
      </trkpt>
      <trkpt lat="46.52312" lon="0.60942">
        <ele>116.95511236321</ele>
        <time>2021-11-17T08:44:52Z</time>
      </trkpt>
      <trkpt lat="46.52312" lon="0.60946">
        <ele>116.94471910782</ele>
        <time>2021-11-17T08:44:54Z</time>
      </trkpt>
      <trkpt lat="46.52313" lon="0.6095">
        <ele>116.75856910739</ele>
        <time>2021-11-17T08:44:56Z</time>
      </trkpt>
      <trkpt lat="46.52313" lon="0.60953">
        <ele>116.4071878409</ele>
        <time>2021-11-17T08:44:58Z</time>
      </trkpt>
      <trkpt lat="46.52314" lon="0.60957">
        <ele>116.26543253288</ele>
        <time>2021-11-17T08:45:00Z</time>
      </trkpt>
      <trkpt lat="46.52315" lon="0.60961">
        <ele>116.08273056243</ele>
        <time>2021-11-17T08:45:02Z</time>
      </trkpt>
      <trkpt lat="46.52316" lon="0.60965">
        <ele>116.13872217108</ele>
        <time>2021-11-17T08:45:04Z</time>
      </trkpt>
      <trkpt lat="46.52316" lon="0.60969">
        <ele>115.79791511316</ele>
        <time>2021-11-17T08:45:06Z</time>
      </trkpt>
      <trkpt lat="46.52316" lon="0.60972">
        <ele>115.26235346124</ele>
        <time>2021-11-17T08:45:08Z</time>
      </trkpt>
      <trkpt lat="46.52317" lon="0.60976">
        <ele>115.20007068105</ele>
        <time>2021-11-17T08:45:10Z</time>
      </trkpt>
      <trkpt lat="46.52318" lon="0.60981">
        <ele>114.99496091343</ele>
        <time>2021-11-17T08:45:12Z</time>
      </trkpt>
      <trkpt lat="46.52319" lon="0.60984">
        <ele>114.64498602413</ele>
        <time>2021-11-17T08:45:14Z</time>
      </trkpt>
      <trkpt lat="46.52319" lon="0.60987">
        <ele>114.30558131076</ele>
        <time>2021-11-17T08:45:16Z</time>
      </trkpt>
      <trkpt lat="46.52319" lon="0.60991">
        <ele>114.18877642322</ele>
        <time>2021-11-17T08:45:18Z</time>
      </trkpt>
      <trkpt lat="46.5232" lon="0.60995">
        <ele>113.96552271768</ele>
        <time>2021-11-17T08:45:20Z</time>
      </trkpt>
      <trkpt lat="46.52321" lon="0.60999">
        <ele>113.4936920777</ele>
        <time>2021-11-17T08:45:22Z</time>
      </trkpt>
      <trkpt lat="46.52321" lon="0.61003">
        <ele>113.37778700329</ele>
        <time>2021-11-17T08:45:24Z</time>
      </trkpt>
      <trkpt lat="46.52322" lon="0.61008">
        <ele>113.13401150703</ele>
        <time>2021-11-17T08:45:26Z</time>
      </trkpt>
      <trkpt lat="46.52323" lon="0.61011">
        <ele>112.79996178858</ele>
        <time>2021-11-17T08:45:28Z</time>
      </trkpt>
      <trkpt lat="46.52323" lon="0.61015">
        <ele>112.50706660375</ele>
        <time>2021-11-17T08:45:30Z</time>
      </trkpt>
      <trkpt lat="46.52324" lon="0.61018">
        <ele>112.79174912255</ele>
        <time>2021-11-17T08:45:32Z</time>
      </trkpt>
      <trkpt lat="46.52325" lon="0.61021">
        <ele>112.48612489086</ele>
        <time>2021-11-17T08:45:33Z</time>
      </trkpt>
      <trkpt lat="46.52326" lon="0.61025">
        <ele>112.30079127941</ele>
        <time>2021-11-17T08:45:35Z</time>
      </trkpt>
      <trkpt lat="46.52326" lon="0.61029">
        <ele>112.31505106762</ele>
        <time>2021-11-17T08:45:37Z</time>
      </trkpt>
      <trkpt lat="46.52328" lon="0.61033">
        <ele>112.21604142245</ele>
        <time>2021-11-17T08:45:39Z</time>
      </trkpt>
      <trkpt lat="46.52328" lon="0.61036">
        <ele>111.87133944873</ele>
        <time>2021-11-17T08:45:41Z</time>
      </trkpt>
      <trkpt lat="46.52329" lon="0.61041">
        <ele>111.85232201125</ele>
        <time>2021-11-17T08:45:43Z</time>
      </trkpt>
      <trkpt lat="46.5233" lon="0.61045">
        <ele>111.53438929282</ele>
        <time>2021-11-17T08:45:45Z</time>
      </trkpt>
      <trkpt lat="46.52332" lon="0.61048">
        <ele>111.87730069831</ele>
        <time>2021-11-17T08:45:47Z</time>
      </trkpt>
      <trkpt lat="46.52333" lon="0.61051">
        <ele>111.58298237436</ele>
        <time>2021-11-17T08:45:49Z</time>
      </trkpt>
      <trkpt lat="46.52334" lon="0.61056">
        <ele>111.55629790574</ele>
        <time>2021-11-17T08:45:51Z</time>
      </trkpt>
      <trkpt lat="46.52335" lon="0.61059">
        <ele>111.23971493635</ele>
        <time>2021-11-17T08:45:53Z</time>
      </trkpt>
      <trkpt lat="46.52337" lon="0.61062">
        <ele>111.28462186921</ele>
        <time>2021-11-17T08:45:55Z</time>
      </trkpt>
      <trkpt lat="46.52338" lon="0.61065">
        <ele>111.18304142077</ele>
        <time>2021-11-17T08:45:56Z</time>
      </trkpt>
      <trkpt lat="46.52339" lon="0.61067">
        <ele>111.03869758453</ele>
        <time>2021-11-17T08:45:58Z</time>
      </trkpt>
      <trkpt lat="46.52341" lon="0.6107">
        <ele>111.02475933172</ele>
        <time>2021-11-17T08:46:00Z</time>
      </trkpt>
      <trkpt lat="46.52343" lon="0.61074">
        <ele>110.88156110793</ele>
        <time>2021-11-17T08:46:02Z</time>
      </trkpt>
      <trkpt lat="46.52344" lon="0.61077">
        <ele>110.74943379872</ele>
        <time>2021-11-17T08:46:04Z</time>
      </trkpt>
      <trkpt lat="46.52346" lon="0.61079">
        <ele>110.43515270855</ele>
        <time>2021-11-17T08:46:06Z</time>
      </trkpt>
      <trkpt lat="46.52347" lon="0.61081">
        <ele>110.3791845981</ele>
        <time>2021-11-17T08:46:07Z</time>
      </trkpt>
      <trkpt lat="46.52349" lon="0.61084">
        <ele>110.34977630991</ele>
        <time>2021-11-17T08:46:09Z</time>
      </trkpt>
      <trkpt lat="46.5235" lon="0.61086">
        <ele>110.46469964366</ele>
        <time>2021-11-17T08:46:10Z</time>
      </trkpt>
      <trkpt lat="46.52352" lon="0.61089">
        <ele>110.51549884211</ele>
        <time>2021-11-17T08:46:12Z</time>
      </trkpt>
      <trkpt lat="46.52354" lon="0.61092">
        <ele>110.2405296918</ele>
        <time>2021-11-17T08:46:14Z</time>
      </trkpt>
      <trkpt lat="46.52356" lon="0.61094">
        <ele>110.1471210774</ele>
        <time>2021-11-17T08:46:16Z</time>
      </trkpt>
      <trkpt lat="46.52359" lon="0.61096">
        <ele>110.31122237351</ele>
        <time>2021-11-17T08:46:18Z</time>
      </trkpt>
      <trkpt lat="46.5236" lon="0.61099">
        <ele>110.28875913005</ele>
        <time>2021-11-17T08:46:20Z</time>
      </trkpt>
      <trkpt lat="46.52362" lon="0.61102">
        <ele>110.5232505044</ele>
        <time>2021-11-17T08:46:22Z</time>
      </trkpt>
      <trkpt lat="46.52364" lon="0.61104">
        <ele>110.06926439051</ele>
        <time>2021-11-17T08:46:24Z</time>
      </trkpt>
      <trkpt lat="46.52365" lon="0.61106">
        <ele>110.38056638837</ele>
        <time>2021-11-17T08:46:26Z</time>
      </trkpt>
      <trkpt lat="46.52368" lon="0.61108">
        <ele>110.77965872642</ele>
        <time>2021-11-17T08:46:28Z</time>
      </trkpt>
      <trkpt lat="46.52369" lon="0.61111">
        <ele>110.70498871058</ele>
        <time>2021-11-17T08:46:30Z</time>
      </trkpt>
      <trkpt lat="46.52372" lon="0.61113">
        <ele>110.53431959264</ele>
        <time>2021-11-17T08:46:32Z</time>
      </trkpt>
      <trkpt lat="46.52374" lon="0.61116">
        <ele>110.51651598234</ele>
        <time>2021-11-17T08:46:34Z</time>
      </trkpt>
      <trkpt lat="46.52375" lon="0.61118">
        <ele>110.67009638902</ele>
        <time>2021-11-17T08:46:36Z</time>
      </trkpt>
      <trkpt lat="46.52377" lon="0.61121">
        <ele>111.03077144455</ele>
        <time>2021-11-17T08:46:38Z</time>
      </trkpt>
      <trkpt lat="46.52379" lon="0.61125">
        <ele>110.89819382969</ele>
        <time>2021-11-17T08:46:40Z</time>
      </trkpt>
      <trkpt lat="46.5238" lon="0.61128">
        <ele>110.82138885185</ele>
        <time>2021-11-17T08:46:42Z</time>
      </trkpt>
      <trkpt lat="46.52382" lon="0.6113">
        <ele>110.89063587319</ele>
        <time>2021-11-17T08:46:44Z</time>
      </trkpt>
      <trkpt lat="46.52383" lon="0.61133">
        <ele>110.91615640279</ele>
        <time>2021-11-17T08:46:46Z</time>
      </trkpt>
      <trkpt lat="46.52386" lon="0.61136">
        <ele>111.25428918377</ele>
        <time>2021-11-17T08:46:48Z</time>
      </trkpt>
      <trkpt lat="46.52387" lon="0.61138">
        <ele>111.40602815896</ele>
        <time>2021-11-17T08:46:50Z</time>
      </trkpt>
      <trkpt lat="46.52389" lon="0.61141">
        <ele>111.4431446474</ele>
        <time>2021-11-17T08:46:52Z</time>
      </trkpt>
      <trkpt lat="46.52391" lon="0.61142">
        <ele>111.44047721941</ele>
        <time>2021-11-17T08:46:53Z</time>
      </trkpt>
      <trkpt lat="46.52393" lon="0.61146">
        <ele>111.73853653204</ele>
        <time>2021-11-17T08:46:55Z</time>
      </trkpt>
      <trkpt lat="46.52395" lon="0.61148">
        <ele>111.81561067235</ele>
        <time>2021-11-17T08:46:57Z</time>
      </trkpt>
      <trkpt lat="46.52397" lon="0.6115">
        <ele>111.48452982586</ele>
        <time>2021-11-17T08:46:59Z</time>
      </trkpt>
      <trkpt lat="46.52399" lon="0.61153">
        <ele>111.69616504014</ele>
        <time>2021-11-17T08:47:01Z</time>
      </trkpt>
      <trkpt lat="46.52401" lon="0.61155">
        <ele>112.00279138517</ele>
        <time>2021-11-17T08:47:03Z</time>
      </trkpt>
      <trkpt lat="46.52403" lon="0.61158">
        <ele>111.44409505464</ele>
        <time>2021-11-17T08:47:05Z</time>
      </trkpt>
      <trkpt lat="46.52405" lon="0.61161">
        <ele>112.25778580643</ele>
        <time>2021-11-17T08:47:07Z</time>
      </trkpt>
      <trkpt lat="46.52407" lon="0.61164">
        <ele>111.83800053876</ele>
        <time>2021-11-17T08:47:09Z</time>
      </trkpt>
      <trkpt lat="46.52408" lon="0.61166">
        <ele>111.87797681522</ele>
        <time>2021-11-17T08:47:11Z</time>
      </trkpt>
      <trkpt lat="46.52411" lon="0.61168">
        <ele>111.94762823638</ele>
        <time>2021-11-17T08:47:13Z</time>
      </trkpt>
      <trkpt lat="46.52413" lon="0.61171">
        <ele>112.56951107178</ele>
        <time>2021-11-17T08:47:15Z</time>
      </trkpt>
      <trkpt lat="46.52415" lon="0.61174">
        <ele>112.38464273605</ele>
        <time>2021-11-17T08:47:17Z</time>
      </trkpt>
      <trkpt lat="46.52417" lon="0.61177">
        <ele>112.08565255161</ele>
        <time>2021-11-17T08:47:19Z</time>
      </trkpt>
      <trkpt lat="46.52419" lon="0.61179">
        <ele>112.2301048981</ele>
        <time>2021-11-17T08:47:21Z</time>
      </trkpt>
      <trkpt lat="46.52421" lon="0.61183">
        <ele>112.51950504072</ele>
        <time>2021-11-17T08:47:23Z</time>
      </trkpt>
      <trkpt lat="46.52423" lon="0.61185">
        <ele>112.52374713775</ele>
        <time>2021-11-17T08:47:25Z</time>
      </trkpt>
      <trkpt lat="46.52425" lon="0.61187">
        <ele>112.83621669188</ele>
        <time>2021-11-17T08:47:27Z</time>
      </trkpt>
      <trkpt lat="46.52427" lon="0.61189">
        <ele>112.72198580671</ele>
        <time>2021-11-17T08:47:29Z</time>
      </trkpt>
      <trkpt lat="46.52429" lon="0.61192">
        <ele>113.01355338935</ele>
        <time>2021-11-17T08:47:31Z</time>
      </trkpt>
      <trkpt lat="46.52431" lon="0.61193">
        <ele>113.16978973523</ele>
        <time>2021-11-17T08:47:33Z</time>
      </trkpt>
      <trkpt lat="46.52433" lon="0.61196">
        <ele>113.4744017059</ele>
        <time>2021-11-17T08:47:35Z</time>
      </trkpt>
      <trkpt lat="46.52434" lon="0.61198">
        <ele>113.48564577755</ele>
        <time>2021-11-17T08:47:37Z</time>
      </trkpt>
      <trkpt lat="46.52436" lon="0.61201">
        <ele>113.27240532264</ele>
        <time>2021-11-17T08:47:39Z</time>
      </trkpt>
      <trkpt lat="46.52438" lon="0.61204">
        <ele>113.51807131525</ele>
        <time>2021-11-17T08:47:41Z</time>
      </trkpt>
      <trkpt lat="46.52439" lon="0.61207">
        <ele>113.38543485664</ele>
        <time>2021-11-17T08:47:43Z</time>
      </trkpt>
      <trkpt lat="46.52441" lon="0.6121">
        <ele>113.67317553051</ele>
        <time>2021-11-17T08:47:45Z</time>
      </trkpt>
      <trkpt lat="46.52443" lon="0.61214">
        <ele>113.74276383221</ele>
        <time>2021-11-17T08:47:47Z</time>
      </trkpt>
      <trkpt lat="46.52445" lon="0.61217">
        <ele>113.63561400771</ele>
        <time>2021-11-17T08:47:49Z</time>
      </trkpt>
      <trkpt lat="46.52447" lon="0.6122">
        <ele>113.84935601801</ele>
        <time>2021-11-17T08:47:51Z</time>
      </trkpt>
      <trkpt lat="46.52448" lon="0.61222">
        <ele>114.02210007794</ele>
        <time>2021-11-17T08:47:52Z</time>
      </trkpt>
      <trkpt lat="46.52449" lon="0.61225">
        <ele>113.62830841355</ele>
        <time>2021-11-17T08:47:54Z</time>
      </trkpt>
      <trkpt lat="46.5245" lon="0.61228">
        <ele>113.55552333873</ele>
        <time>2021-11-17T08:47:56Z</time>
      </trkpt>
      <trkpt lat="46.52452" lon="0.6123">
        <ele>113.91937654186</ele>
        <time>2021-11-17T08:47:57Z</time>
      </trkpt>
      <trkpt lat="46.52453" lon="0.61233">
        <ele>113.86394513398</ele>
        <time>2021-11-17T08:47:59Z</time>
      </trkpt>
      <trkpt lat="46.52454" lon="0.61235">
        <ele>113.65980718378</ele>
        <time>2021-11-17T08:48:01Z</time>
      </trkpt>
      <trkpt lat="46.52456" lon="0.61238">
        <ele>113.70937571861</ele>
        <time>2021-11-17T08:48:03Z</time>
      </trkpt>
      <trkpt lat="46.52458" lon="0.61241">
        <ele>113.3540005805</ele>
        <time>2021-11-17T08:48:05Z</time>
      </trkpt>
      <trkpt lat="46.5246" lon="0.61245">
        <ele>113.56247082539</ele>
        <time>2021-11-17T08:48:07Z</time>
      </trkpt>
      <trkpt lat="46.52461" lon="0.61248">
        <ele>113.43822872359</ele>
        <time>2021-11-17T08:48:09Z</time>
      </trkpt>
      <trkpt lat="46.52463" lon="0.61251">
        <ele>113.32668488566</ele>
        <time>2021-11-17T08:48:11Z</time>
      </trkpt>
      <trkpt lat="46.52465" lon="0.61254">
        <ele>113.4292892348</ele>
        <time>2021-11-17T08:48:13Z</time>
      </trkpt>
      <trkpt lat="46.52466" lon="0.61258">
        <ele>113.85343801882</ele>
        <time>2021-11-17T08:48:15Z</time>
      </trkpt>
      <trkpt lat="46.52468" lon="0.61259">
        <ele>113.71806745045</ele>
        <time>2021-11-17T08:48:16Z</time>
      </trkpt>
      <trkpt lat="46.52469" lon="0.61262">
        <ele>113.23940127715</ele>
        <time>2021-11-17T08:48:18Z</time>
      </trkpt>
      <trkpt lat="46.52471" lon="0.61266">
        <ele>113.60283223819</ele>
        <time>2021-11-17T08:48:20Z</time>
      </trkpt>
      <trkpt lat="46.52472" lon="0.61269">
        <ele>113.60957789421</ele>
        <time>2021-11-17T08:48:22Z</time>
      </trkpt>
      <trkpt lat="46.52473" lon="0.61272">
        <ele>113.67070327047</ele>
        <time>2021-11-17T08:48:24Z</time>
      </trkpt>
      <trkpt lat="46.52474" lon="0.61275">
        <ele>113.56583574135</ele>
        <time>2021-11-17T08:48:26Z</time>
      </trkpt>
      <trkpt lat="46.52475" lon="0.61277">
        <ele>113.54095515236</ele>
        <time>2021-11-17T08:48:27Z</time>
      </trkpt>
      <trkpt lat="46.52477" lon="0.6128">
        <ele>113.55743564945</ele>
        <time>2021-11-17T08:48:29Z</time>
      </trkpt>
      <trkpt lat="46.52478" lon="0.61284">
        <ele>113.49907095172</ele>
        <time>2021-11-17T08:48:31Z</time>
      </trkpt>
      <trkpt lat="46.52479" lon="0.61286">
        <ele>113.349428243</ele>
        <time>2021-11-17T08:48:32Z</time>
      </trkpt>
      <trkpt lat="46.5248" lon="0.6129">
        <ele>113.45288938936</ele>
        <time>2021-11-17T08:48:34Z</time>
      </trkpt>
      <trkpt lat="46.52481" lon="0.61293">
        <ele>113.38833035342</ele>
        <time>2021-11-17T08:48:36Z</time>
      </trkpt>
      <trkpt lat="46.52482" lon="0.61297">
        <ele>113.19000536948</ele>
        <time>2021-11-17T08:48:38Z</time>
      </trkpt>
      <trkpt lat="46.52483" lon="0.613">
        <ele>113.06292284094</ele>
        <time>2021-11-17T08:48:40Z</time>
      </trkpt>
      <trkpt lat="46.52483" lon="0.61303">
        <ele>113.33535523899</ele>
        <time>2021-11-17T08:48:42Z</time>
      </trkpt>
      <trkpt lat="46.52483" lon="0.61307">
        <ele>113.02878339402</ele>
        <time>2021-11-17T08:48:44Z</time>
      </trkpt>
      <trkpt lat="46.52483" lon="0.6131">
        <ele>112.6585871242</ele>
        <time>2021-11-17T08:48:46Z</time>
      </trkpt>
      <trkpt lat="46.52484" lon="0.61315">
        <ele>112.6746429326</ele>
        <time>2021-11-17T08:48:48Z</time>
      </trkpt>
      <trkpt lat="46.52485" lon="0.61319">
        <ele>112.28839780949</ele>
        <time>2021-11-17T08:48:50Z</time>
      </trkpt>
      <trkpt lat="46.52485" lon="0.61323">
        <ele>112.35422634892</ele>
        <time>2021-11-17T08:48:52Z</time>
      </trkpt>
      <trkpt lat="46.52485" lon="0.61327">
        <ele>112.25342986546</ele>
        <time>2021-11-17T08:48:54Z</time>
      </trkpt>
      <trkpt lat="46.52485" lon="0.61332">
        <ele>112.12846455071</ele>
        <time>2021-11-17T08:48:56Z</time>
      </trkpt>
      <trkpt lat="46.52485" lon="0.61336">
        <ele>111.99123557005</ele>
        <time>2021-11-17T08:48:58Z</time>
      </trkpt>
      <trkpt lat="46.52484" lon="0.61339">
        <ele>111.80156421289</ele>
        <time>2021-11-17T08:49:00Z</time>
      </trkpt>
      <trkpt lat="46.52484" lon="0.61343">
        <ele>112.02417543717</ele>
        <time>2021-11-17T08:49:02Z</time>
      </trkpt>
      <trkpt lat="46.52484" lon="0.61347">
        <ele>111.81070085987</ele>
        <time>2021-11-17T08:49:04Z</time>
      </trkpt>
      <trkpt lat="46.52483" lon="0.61352">
        <ele>111.65031150356</ele>
        <time>2021-11-17T08:49:06Z</time>
      </trkpt>
      <trkpt lat="46.52483" lon="0.61355">
        <ele>111.56410758384</ele>
        <time>2021-11-17T08:49:08Z</time>
      </trkpt>
      <trkpt lat="46.52483" lon="0.61358">
        <ele>111.37805479951</ele>
        <time>2021-11-17T08:49:10Z</time>
      </trkpt>
      <trkpt lat="46.52483" lon="0.6136">
        <ele>111.6451765364</ele>
        <time>2021-11-17T08:49:11Z</time>
      </trkpt>
      <trkpt lat="46.52483" lon="0.61364">
        <ele>111.52491989918</ele>
        <time>2021-11-17T08:49:13Z</time>
      </trkpt>
      <trkpt lat="46.52483" lon="0.61369">
        <ele>111.46711530257</ele>
        <time>2021-11-17T08:49:15Z</time>
      </trkpt>
      <trkpt lat="46.52482" lon="0.61372">
        <ele>111.22910065018</ele>
        <time>2021-11-17T08:49:16Z</time>
      </trkpt>
      <trkpt lat="46.52482" lon="0.61377">
        <ele>111.29464605078</ele>
        <time>2021-11-17T08:49:19Z</time>
      </trkpt>
      <trkpt lat="46.52482" lon="0.6138">
        <ele>110.99789701588</ele>
        <time>2021-11-17T08:49:21Z</time>
      </trkpt>
      <trkpt lat="46.52482" lon="0.61384">
        <ele>111.00786773954</ele>
        <time>2021-11-17T08:49:23Z</time>
      </trkpt>
      <trkpt lat="46.52482" lon="0.61388">
        <ele>110.86049841251</ele>
        <time>2021-11-17T08:49:25Z</time>
      </trkpt>
      <trkpt lat="46.52482" lon="0.61391">
        <ele>110.58850840852</ele>
        <time>2021-11-17T08:49:27Z</time>
      </trkpt>
      <trkpt lat="46.52482" lon="0.61395">
        <ele>110.21346895769</ele>
        <time>2021-11-17T08:49:29Z</time>
      </trkpt>
      <trkpt lat="46.52482" lon="0.61399">
        <ele>110.3191113472</ele>
        <time>2021-11-17T08:49:31Z</time>
      </trkpt>
      <trkpt lat="46.52482" lon="0.61403">
        <ele>110.17898710165</ele>
        <time>2021-11-17T08:49:33Z</time>
      </trkpt>
      <trkpt lat="46.52482" lon="0.61407">
        <ele>109.94417029805</ele>
        <time>2021-11-17T08:49:35Z</time>
      </trkpt>
      <trkpt lat="46.52481" lon="0.6141">
        <ele>109.87387988344</ele>
        <time>2021-11-17T08:49:37Z</time>
      </trkpt>
      <trkpt lat="46.52482" lon="0.61413">
        <ele>110.08972043265</ele>
        <time>2021-11-17T08:49:39Z</time>
      </trkpt>
      <trkpt lat="46.52482" lon="0.61418">
        <ele>109.69443215523</ele>
        <time>2021-11-17T08:49:41Z</time>
      </trkpt>
      <trkpt lat="46.52482" lon="0.61422">
        <ele>109.89144073892</ele>
        <time>2021-11-17T08:49:43Z</time>
      </trkpt>
      <trkpt lat="46.52482" lon="0.61426">
        <ele>109.92237504479</ele>
        <time>2021-11-17T08:49:45Z</time>
      </trkpt>
      <trkpt lat="46.52481" lon="0.6143">
        <ele>109.83124800585</ele>
        <time>2021-11-17T08:49:47Z</time>
      </trkpt>
      <trkpt lat="46.52481" lon="0.61434">
        <ele>109.80189775117</ele>
        <time>2021-11-17T08:49:49Z</time>
      </trkpt>
      <trkpt lat="46.52481" lon="0.61438">
        <ele>109.68379071262</ele>
        <time>2021-11-17T08:49:51Z</time>
      </trkpt>
      <trkpt lat="46.5248" lon="0.61442">
        <ele>109.72600695956</ele>
        <time>2021-11-17T08:49:53Z</time>
      </trkpt>
      <trkpt lat="46.5248" lon="0.61445">
        <ele>109.68049058877</ele>
        <time>2021-11-17T08:49:55Z</time>
      </trkpt>
      <trkpt lat="46.5248" lon="0.6145">
        <ele>109.5295339264</ele>
        <time>2021-11-17T08:49:57Z</time>
      </trkpt>
      <trkpt lat="46.5248" lon="0.61453">
        <ele>109.0672265254</ele>
        <time>2021-11-17T08:49:59Z</time>
      </trkpt>
      <trkpt lat="46.5248" lon="0.61457">
        <ele>109.36845122557</ele>
        <time>2021-11-17T08:50:01Z</time>
      </trkpt>
      <trkpt lat="46.52479" lon="0.61461">
        <ele>109.04995051213</ele>
        <time>2021-11-17T08:50:03Z</time>
      </trkpt>
      <trkpt lat="46.52479" lon="0.61465">
        <ele>109.24329539668</ele>
        <time>2021-11-17T08:50:05Z</time>
      </trkpt>
      <trkpt lat="46.5248" lon="0.61469">
        <ele>108.97635777388</ele>
        <time>2021-11-17T08:50:07Z</time>
      </trkpt>
      <trkpt lat="46.52479" lon="0.61472">
        <ele>109.07266161405</ele>
        <time>2021-11-17T08:50:09Z</time>
      </trkpt>
      <trkpt lat="46.5248" lon="0.61475">
        <ele>108.76687969826</ele>
        <time>2021-11-17T08:50:11Z</time>
      </trkpt>
      <trkpt lat="46.5248" lon="0.6148">
        <ele>108.80995113123</ele>
        <time>2021-11-17T08:50:13Z</time>
      </trkpt>
      <trkpt lat="46.5248" lon="0.61484">
        <ele>108.76561384182</ele>
        <time>2021-11-17T08:50:15Z</time>
      </trkpt>
      <trkpt lat="46.52479" lon="0.61489">
        <ele>108.63883227855</ele>
        <time>2021-11-17T08:50:17Z</time>
      </trkpt>
      <trkpt lat="46.5248" lon="0.61493">
        <ele>108.71625568811</ele>
        <time>2021-11-17T08:50:19Z</time>
      </trkpt>
      <trkpt lat="46.5248" lon="0.61496">
        <ele>108.51330613997</ele>
        <time>2021-11-17T08:50:21Z</time>
      </trkpt>
      <trkpt lat="46.52479" lon="0.615">
        <ele>108.6692337282</ele>
        <time>2021-11-17T08:50:23Z</time>
      </trkpt>
      <trkpt lat="46.5248" lon="0.61503">
        <ele>108.78008501977</ele>
        <time>2021-11-17T08:50:25Z</time>
      </trkpt>
      <trkpt lat="46.5248" lon="0.61507">
        <ele>108.33054956608</ele>
        <time>2021-11-17T08:50:27Z</time>
      </trkpt>
      <trkpt lat="46.5248" lon="0.61511">
        <ele>108.53966079932</ele>
        <time>2021-11-17T08:50:29Z</time>
      </trkpt>
      <trkpt lat="46.52481" lon="0.61514">
        <ele>108.37773208413</ele>
        <time>2021-11-17T08:50:31Z</time>
      </trkpt>
      <trkpt lat="46.52482" lon="0.61518">
        <ele>108.38621459249</ele>
        <time>2021-11-17T08:50:33Z</time>
      </trkpt>
      <trkpt lat="46.52484" lon="0.6152">
        <ele>108.32315718476</ele>
        <time>2021-11-17T08:50:35Z</time>
      </trkpt>
      <trkpt lat="46.52486" lon="0.61522">
        <ele>108.44290504511</ele>
        <time>2021-11-17T08:50:37Z</time>
      </trkpt>
      <trkpt lat="46.52488" lon="0.61522">
        <ele>108.72772479896</ele>
        <time>2021-11-17T08:50:39Z</time>
      </trkpt>
      <trkpt lat="46.5249" lon="0.61523">
        <ele>108.86602566484</ele>
        <time>2021-11-17T08:50:41Z</time>
      </trkpt>
      <trkpt lat="46.52493" lon="0.61523">
        <ele>108.89735349454</ele>
        <time>2021-11-17T08:50:43Z</time>
      </trkpt>
      <trkpt lat="46.52495" lon="0.61522">
        <ele>109.20455818158</ele>
        <time>2021-11-17T08:50:45Z</time>
      </trkpt>
      <trkpt lat="46.52497" lon="0.61521">
        <ele>109.29419940617</ele>
        <time>2021-11-17T08:50:47Z</time>
      </trkpt>
      <trkpt lat="46.525" lon="0.6152">
        <ele>109.26061076298</ele>
        <time>2021-11-17T08:50:50Z</time>
      </trkpt>
      <trkpt lat="46.52502" lon="0.61519">
        <ele>109.49284381606</ele>
        <time>2021-11-17T08:50:52Z</time>
      </trkpt>
      <trkpt lat="46.52505" lon="0.61519">
        <ele>109.57038417086</ele>
        <time>2021-11-17T08:50:55Z</time>
      </trkpt>
      <trkpt lat="46.52508" lon="0.61518">
        <ele>109.97334482707</ele>
        <time>2021-11-17T08:50:57Z</time>
      </trkpt>
      <trkpt lat="46.52511" lon="0.61517">
        <ele>109.69799289666</ele>
        <time>2021-11-17T08:50:59Z</time>
      </trkpt>
      <trkpt lat="46.52514" lon="0.61515">
        <ele>110.03041158803</ele>
        <time>2021-11-17T08:51:01Z</time>
      </trkpt>
      <trkpt lat="46.52516" lon="0.61514">
        <ele>110.13471954782</ele>
        <time>2021-11-17T08:51:03Z</time>
      </trkpt>
      <trkpt lat="46.52519" lon="0.61512">
        <ele>110.18807572499</ele>
        <time>2021-11-17T08:51:05Z</time>
      </trkpt>
      <trkpt lat="46.52521" lon="0.61511">
        <ele>110.22396545485</ele>
        <time>2021-11-17T08:51:07Z</time>
      </trkpt>
      <trkpt lat="46.52523" lon="0.6151">
        <ele>110.53198322654</ele>
        <time>2021-11-17T08:51:09Z</time>
      </trkpt>
      <trkpt lat="46.52525" lon="0.61508">
        <ele>110.20851775631</ele>
        <time>2021-11-17T08:51:11Z</time>
      </trkpt>
      <trkpt lat="46.52527" lon="0.61507">
        <ele>110.47471587174</ele>
        <time>2021-11-17T08:51:13Z</time>
      </trkpt>
      <trkpt lat="46.52529" lon="0.61506">
        <ele>110.50585194305</ele>
        <time>2021-11-17T08:51:14Z</time>
      </trkpt>
      <trkpt lat="46.52531" lon="0.61506">
        <ele>110.5477860719</ele>
        <time>2021-11-17T08:51:16Z</time>
      </trkpt>
      <trkpt lat="46.52533" lon="0.61504">
        <ele>110.89317192882</ele>
        <time>2021-11-17T08:51:18Z</time>
      </trkpt>
      <trkpt lat="46.52535" lon="0.61503">
        <ele>110.4618596239</ele>
        <time>2021-11-17T08:51:20Z</time>
      </trkpt>
      <trkpt lat="46.52538" lon="0.61502">
        <ele>110.65647803154</ele>
        <time>2021-11-17T08:51:22Z</time>
      </trkpt>
      <trkpt lat="46.5254" lon="0.615">
        <ele>110.2942484282</ele>
        <time>2021-11-17T08:51:24Z</time>
      </trkpt>
      <trkpt lat="46.52542" lon="0.615">
        <ele>110.64168664906</ele>
        <time>2021-11-17T08:51:26Z</time>
      </trkpt>
      <trkpt lat="46.52546" lon="0.61499">
        <ele>110.88839949854</ele>
        <time>2021-11-17T08:51:28Z</time>
      </trkpt>
      <trkpt lat="46.52548" lon="0.61498">
        <ele>110.51095795725</ele>
        <time>2021-11-17T08:51:30Z</time>
      </trkpt>
      <trkpt lat="46.52549" lon="0.61496">
        <ele>110.37666867953</ele>
        <time>2021-11-17T08:51:32Z</time>
      </trkpt>
      <trkpt lat="46.52552" lon="0.61495">
        <ele>110.75215588603</ele>
        <time>2021-11-17T08:51:34Z</time>
      </trkpt>
      <trkpt lat="46.52555" lon="0.61494">
        <ele>110.72980272584</ele>
        <time>2021-11-17T08:51:36Z</time>
      </trkpt>
      <trkpt lat="46.52557" lon="0.61493">
        <ele>110.62183839269</ele>
        <time>2021-11-17T08:51:38Z</time>
      </trkpt>
      <trkpt lat="46.5256" lon="0.61492">
        <ele>110.56194982491</ele>
        <time>2021-11-17T08:51:40Z</time>
      </trkpt>
      <trkpt lat="46.52562" lon="0.61491">
        <ele>110.8588560354</ele>
        <time>2021-11-17T08:51:42Z</time>
      </trkpt>
      <trkpt lat="46.52564" lon="0.6149">
        <ele>110.99570705649</ele>
        <time>2021-11-17T08:51:44Z</time>
      </trkpt>
      <trkpt lat="46.52566" lon="0.61489">
        <ele>110.75027018134</ele>
        <time>2021-11-17T08:51:46Z</time>
      </trkpt>
      <trkpt lat="46.52569" lon="0.61489">
        <ele>110.87104068324</ele>
        <time>2021-11-17T08:51:48Z</time>
      </trkpt>
      <trkpt lat="46.52572" lon="0.61487">
        <ele>110.83963891119</ele>
        <time>2021-11-17T08:51:50Z</time>
      </trkpt>
      <trkpt lat="46.52574" lon="0.61486">
        <ele>110.70459233876</ele>
        <time>2021-11-17T08:51:52Z</time>
      </trkpt>
      <trkpt lat="46.52577" lon="0.61485">
        <ele>110.39139394555</ele>
        <time>2021-11-17T08:51:54Z</time>
      </trkpt>
      <trkpt lat="46.52579" lon="0.61483">
        <ele>110.45553585049</ele>
        <time>2021-11-17T08:51:56Z</time>
      </trkpt>
      <trkpt lat="46.52582" lon="0.61481">
        <ele>110.68530461565</ele>
        <time>2021-11-17T08:51:58Z</time>
      </trkpt>
      <trkpt lat="46.52585" lon="0.61479">
        <ele>110.47714730911</ele>
        <time>2021-11-17T08:52:00Z</time>
      </trkpt>
      <trkpt lat="46.52586" lon="0.61478">
        <ele>110.59091943782</ele>
        <time>2021-11-17T08:52:01Z</time>
      </trkpt>
      <trkpt lat="46.52589" lon="0.61477">
        <ele>110.58230577223</ele>
        <time>2021-11-17T08:52:03Z</time>
      </trkpt>
      <trkpt lat="46.52591" lon="0.61476">
        <ele>110.16614935454</ele>
        <time>2021-11-17T08:52:05Z</time>
      </trkpt>
      <trkpt lat="46.52593" lon="0.61474">
        <ele>109.55273601133</ele>
        <time>2021-11-17T08:52:07Z</time>
      </trkpt>
      <trkpt lat="46.52595" lon="0.61474">
        <ele>109.45437556785</ele>
        <time>2021-11-17T08:52:09Z</time>
      </trkpt>
      <trkpt lat="46.52597" lon="0.61473">
        <ele>109.51370676327</ele>
        <time>2021-11-17T08:52:10Z</time>
      </trkpt>
      <trkpt lat="46.52599" lon="0.61471">
        <ele>109.35081417486</ele>
        <time>2021-11-17T08:52:12Z</time>
      </trkpt>
      <trkpt lat="46.52602" lon="0.6147">
        <ele>109.36379372887</ele>
        <time>2021-11-17T08:52:14Z</time>
      </trkpt>
      <trkpt lat="46.52604" lon="0.61469">
        <ele>109.42594762892</ele>
        <time>2021-11-17T08:52:16Z</time>
      </trkpt>
      <trkpt lat="46.52607" lon="0.6147">
        <ele>109.02085474506</ele>
        <time>2021-11-17T08:52:19Z</time>
      </trkpt>
      <trkpt lat="46.5261" lon="0.61469">
        <ele>109.27776784822</ele>
        <time>2021-11-17T08:52:22Z</time>
      </trkpt>
      <trkpt lat="46.52612" lon="0.61467">
        <ele>108.69948375039</ele>
        <time>2021-11-17T08:52:25Z</time>
      </trkpt>
      <trkpt lat="46.52615" lon="0.61466">
        <ele>108.68909199815</ele>
        <time>2021-11-17T08:52:27Z</time>
      </trkpt>
      <trkpt lat="46.52618" lon="0.61465">
        <ele>108.35949328169</ele>
        <time>2021-11-17T08:52:30Z</time>
      </trkpt>
      <trkpt lat="46.5262" lon="0.61463">
        <ele>108.94571039081</ele>
        <time>2021-11-17T08:52:32Z</time>
      </trkpt>
      <trkpt lat="46.52623" lon="0.61462">
        <ele>108.13921677973</ele>
        <time>2021-11-17T08:52:34Z</time>
      </trkpt>
      <trkpt lat="46.52625" lon="0.6146">
        <ele>108.30738592613</ele>
        <time>2021-11-17T08:52:37Z</time>
      </trkpt>
      <trkpt lat="46.52628" lon="0.6146">
        <ele>108.00664346945</ele>
        <time>2021-11-17T08:52:40Z</time>
      </trkpt>
      <trkpt lat="46.52631" lon="0.61457">
        <ele>107.94122857507</ele>
        <time>2021-11-17T08:52:42Z</time>
      </trkpt>
      <trkpt lat="46.52633" lon="0.61457">
        <ele>107.83616666216</ele>
        <time>2021-11-17T08:52:44Z</time>
      </trkpt>
      <trkpt lat="46.52636" lon="0.61456">
        <ele>107.86583822686</ele>
        <time>2021-11-17T08:52:46Z</time>
      </trkpt>
      <trkpt lat="46.52639" lon="0.61454">
        <ele>107.65143315867</ele>
        <time>2021-11-17T08:52:48Z</time>
      </trkpt>
      <trkpt lat="46.52641" lon="0.61453">
        <ele>107.88104603812</ele>
        <time>2021-11-17T08:52:50Z</time>
      </trkpt>
      <trkpt lat="46.52644" lon="0.61452">
        <ele>107.55890757591</ele>
        <time>2021-11-17T08:52:52Z</time>
      </trkpt>
      <trkpt lat="46.52647" lon="0.61451">
        <ele>107.50049329735</ele>
        <time>2021-11-17T08:52:54Z</time>
      </trkpt>
      <trkpt lat="46.52649" lon="0.61451">
        <ele>107.46890732087</ele>
        <time>2021-11-17T08:52:56Z</time>
      </trkpt>
      <trkpt lat="46.52651" lon="0.61449">
        <ele>107.41083728522</ele>
        <time>2021-11-17T08:52:58Z</time>
      </trkpt>
      <trkpt lat="46.52653" lon="0.61448">
        <ele>107.38425583113</ele>
        <time>2021-11-17T08:52:59Z</time>
      </trkpt>
      <trkpt lat="46.52655" lon="0.61448">
        <ele>107.21508466266</ele>
        <time>2021-11-17T08:53:01Z</time>
      </trkpt>
      <trkpt lat="46.52657" lon="0.61447">
        <ele>107.26728840638</ele>
        <time>2021-11-17T08:53:02Z</time>
      </trkpt>
      <trkpt lat="46.5266" lon="0.61446">
        <ele>107.49483675044</ele>
        <time>2021-11-17T08:53:04Z</time>
      </trkpt>
      <trkpt lat="46.52663" lon="0.61445">
        <ele>107.45532184932</ele>
        <time>2021-11-17T08:53:06Z</time>
      </trkpt>
      <trkpt lat="46.52665" lon="0.61444">
        <ele>107.78571617138</ele>
        <time>2021-11-17T08:53:08Z</time>
      </trkpt>
      <trkpt lat="46.52667" lon="0.61443">
        <ele>107.4169230666</ele>
        <time>2021-11-17T08:53:10Z</time>
      </trkpt>
      <trkpt lat="46.5267" lon="0.61442">
        <ele>107.21603363939</ele>
        <time>2021-11-17T08:53:12Z</time>
      </trkpt>
      <trkpt lat="46.52672" lon="0.61441">
        <ele>107.8709699288</ele>
        <time>2021-11-17T08:53:14Z</time>
      </trkpt>
      <trkpt lat="46.52675" lon="0.61439">
        <ele>107.90597749781</ele>
        <time>2021-11-17T08:53:16Z</time>
      </trkpt>
      <trkpt lat="46.52677" lon="0.61437">
        <ele>108.15225851815</ele>
        <time>2021-11-17T08:53:18Z</time>
      </trkpt>
      <trkpt lat="46.5268" lon="0.61436">
        <ele>107.95216904394</ele>
        <time>2021-11-17T08:53:21Z</time>
      </trkpt>
      <trkpt lat="46.52683" lon="0.61436">
        <ele>108.46248212829</ele>
        <time>2021-11-17T08:53:23Z</time>
      </trkpt>
      <trkpt lat="46.52685" lon="0.61434">
        <ele>108.38699458353</ele>
        <time>2021-11-17T08:53:25Z</time>
      </trkpt>
      <trkpt lat="46.52688" lon="0.61433">
        <ele>108.38911122549</ele>
        <time>2021-11-17T08:53:27Z</time>
      </trkpt>
      <trkpt lat="46.5269" lon="0.61432">
        <ele>108.60165632609</ele>
        <time>2021-11-17T08:53:29Z</time>
      </trkpt>
      <trkpt lat="46.52692" lon="0.61431">
        <ele>108.88841096405</ele>
        <time>2021-11-17T08:53:31Z</time>
      </trkpt>
      <trkpt lat="46.52694" lon="0.61431">
        <ele>108.98263283446</ele>
        <time>2021-11-17T08:53:32Z</time>
      </trkpt>
      <trkpt lat="46.52696" lon="0.61429">
        <ele>108.81344735343</ele>
        <time>2021-11-17T08:53:34Z</time>
      </trkpt>
      <trkpt lat="46.52699" lon="0.61429">
        <ele>109.32672571391</ele>
        <time>2021-11-17T08:53:36Z</time>
      </trkpt>
      <trkpt lat="46.52702" lon="0.61429">
        <ele>109.31412749738</ele>
        <time>2021-11-17T08:53:38Z</time>
      </trkpt>
      <trkpt lat="46.52705" lon="0.61428">
        <ele>109.77692645695</ele>
        <time>2021-11-17T08:53:40Z</time>
      </trkpt>
      <trkpt lat="46.52707" lon="0.61428">
        <ele>109.34280735534</ele>
        <time>2021-11-17T08:53:42Z</time>
      </trkpt>
      <trkpt lat="46.52709" lon="0.61429">
        <ele>109.61811692081</ele>
        <time>2021-11-17T08:53:44Z</time>
      </trkpt>
      <trkpt lat="46.52712" lon="0.61429">
        <ele>109.88682604115</ele>
        <time>2021-11-17T08:53:46Z</time>
      </trkpt>
      <trkpt lat="46.52715" lon="0.61431">
        <ele>109.97870187461</ele>
        <time>2021-11-17T08:53:48Z</time>
      </trkpt>
      <trkpt lat="46.52716" lon="0.61432">
        <ele>109.90852267947</ele>
        <time>2021-11-17T08:53:50Z</time>
      </trkpt>
      <trkpt lat="46.52719" lon="0.61435">
        <ele>110.2621329464</ele>
        <time>2021-11-17T08:53:52Z</time>
      </trkpt>
      <trkpt lat="46.52721" lon="0.61437">
        <ele>109.86239368469</ele>
        <time>2021-11-17T08:53:54Z</time>
      </trkpt>
      <trkpt lat="46.52722" lon="0.6144">
        <ele>110.27078486234</ele>
        <time>2021-11-17T08:53:56Z</time>
      </trkpt>
      <trkpt lat="46.52724" lon="0.61443">
        <ele>110.64456698298</ele>
        <time>2021-11-17T08:53:58Z</time>
      </trkpt>
      <trkpt lat="46.52725" lon="0.61446">
        <ele>110.46147012711</ele>
        <time>2021-11-17T08:54:00Z</time>
      </trkpt>
      <trkpt lat="46.52726" lon="0.61448">
        <ele>110.64734834898</ele>
        <time>2021-11-17T08:54:02Z</time>
      </trkpt>
      <trkpt lat="46.52727" lon="0.61451">
        <ele>110.59246407542</ele>
        <time>2021-11-17T08:54:04Z</time>
      </trkpt>
      <trkpt lat="46.52728" lon="0.61452">
        <ele>110.5838636728</ele>
        <time>2021-11-17T08:54:06Z</time>
      </trkpt>
      <trkpt lat="46.52732" lon="0.61453">
        <ele>110.89593132306</ele>
        <time>2021-11-17T08:54:09Z</time>
      </trkpt>
      <trkpt lat="46.52733" lon="0.61455">
        <ele>110.84645374771</ele>
        <time>2021-11-17T08:54:10Z</time>
      </trkpt>
      <trkpt lat="46.52735" lon="0.61457">
        <ele>111.12846413441</ele>
        <time>2021-11-17T08:54:12Z</time>
      </trkpt>
      <trkpt lat="46.52737" lon="0.6146">
        <ele>110.89176959265</ele>
        <time>2021-11-17T08:54:15Z</time>
      </trkpt>
      <trkpt lat="46.52738" lon="0.61463">
        <ele>110.90056098346</ele>
        <time>2021-11-17T08:54:17Z</time>
      </trkpt>
      <trkpt lat="46.5274" lon="0.61465">
        <ele>111.48698092066</ele>
        <time>2021-11-17T08:54:19Z</time>
      </trkpt>
      <trkpt lat="46.52742" lon="0.61467">
        <ele>111.30037288368</ele>
        <time>2021-11-17T08:54:21Z</time>
      </trkpt>
      <trkpt lat="46.52744" lon="0.6147">
        <ele>111.18291980866</ele>
        <time>2021-11-17T08:54:23Z</time>
      </trkpt>
      <trkpt lat="46.52746" lon="0.61472">
        <ele>111.45922235306</ele>
        <time>2021-11-17T08:54:25Z</time>
      </trkpt>
      <trkpt lat="46.52747" lon="0.61474">
        <ele>111.19318337273</ele>
        <time>2021-11-17T08:54:27Z</time>
      </trkpt>
      <trkpt lat="46.52749" lon="0.61476">
        <ele>111.13740985468</ele>
        <time>2021-11-17T08:54:29Z</time>
      </trkpt>
      <trkpt lat="46.52751" lon="0.61478">
        <ele>111.45788635779</ele>
        <time>2021-11-17T08:54:31Z</time>
      </trkpt>
      <trkpt lat="46.52752" lon="0.61481">
        <ele>111.42866460141</ele>
        <time>2021-11-17T08:54:33Z</time>
      </trkpt>
      <trkpt lat="46.52754" lon="0.61482">
        <ele>111.52823313978</ele>
        <time>2021-11-17T08:54:35Z</time>
      </trkpt>
      <trkpt lat="46.52756" lon="0.61485">
        <ele>111.46733186953</ele>
        <time>2021-11-17T08:54:37Z</time>
      </trkpt>
      <trkpt lat="46.52759" lon="0.61487">
        <ele>111.78576486278</ele>
        <time>2021-11-17T08:54:39Z</time>
      </trkpt>
      <trkpt lat="46.52761" lon="0.61489">
        <ele>111.83991403133</ele>
        <time>2021-11-17T08:54:41Z</time>
      </trkpt>
      <trkpt lat="46.52763" lon="0.61492">
        <ele>111.77128345054</ele>
        <time>2021-11-17T08:54:43Z</time>
      </trkpt>
      <trkpt lat="46.52766" lon="0.61493">
        <ele>111.91440313775</ele>
        <time>2021-11-17T08:54:45Z</time>
      </trkpt>
      <trkpt lat="46.52769" lon="0.61495">
        <ele>112.23042694665</ele>
        <time>2021-11-17T08:54:47Z</time>
      </trkpt>
      <trkpt lat="46.52771" lon="0.61496">
        <ele>112.09365009516</ele>
        <time>2021-11-17T08:54:49Z</time>
      </trkpt>
      <trkpt lat="46.52773" lon="0.61497">
        <ele>111.8878384307</ele>
        <time>2021-11-17T08:54:51Z</time>
      </trkpt>
      <trkpt lat="46.52775" lon="0.61498">
        <ele>112.07918850891</ele>
        <time>2021-11-17T08:54:53Z</time>
      </trkpt>
      <trkpt lat="46.52778" lon="0.61499">
        <ele>112.85682027973</ele>
        <time>2021-11-17T08:54:55Z</time>
      </trkpt>
      <trkpt lat="46.52781" lon="0.61501">
        <ele>112.86177106947</ele>
        <time>2021-11-17T08:54:57Z</time>
      </trkpt>
      <trkpt lat="46.52783" lon="0.61501">
        <ele>112.60174613073</ele>
        <time>2021-11-17T08:54:59Z</time>
      </trkpt>
      <trkpt lat="46.52786" lon="0.61501">
        <ele>113.060505528</ele>
        <time>2021-11-17T08:55:02Z</time>
      </trkpt>
      <trkpt lat="46.52789" lon="0.61501">
        <ele>113.07875190116</ele>
        <time>2021-11-17T08:55:04Z</time>
      </trkpt>
      <trkpt lat="46.52791" lon="0.61502">
        <ele>113.14122632518</ele>
        <time>2021-11-17T08:55:06Z</time>
      </trkpt>
      <trkpt lat="46.52793" lon="0.61501">
        <ele>113.48300744686</ele>
        <time>2021-11-17T08:55:07Z</time>
      </trkpt>
      <trkpt lat="46.52795" lon="0.61501">
        <ele>113.21879467834</ele>
        <time>2021-11-17T08:55:10Z</time>
      </trkpt>
      <trkpt lat="46.52797" lon="0.61502">
        <ele>113.33701354079</ele>
        <time>2021-11-17T08:55:13Z</time>
      </trkpt>
      <trkpt lat="46.52799" lon="0.61502">
        <ele>113.28356380947</ele>
        <time>2021-11-17T08:55:15Z</time>
      </trkpt>
      <trkpt lat="46.52802" lon="0.61503">
        <ele>113.01078940276</ele>
        <time>2021-11-17T08:55:17Z</time>
      </trkpt>
      <trkpt lat="46.52804" lon="0.61503">
        <ele>113.46037771273</ele>
        <time>2021-11-17T08:55:19Z</time>
      </trkpt>
      <trkpt lat="46.52806" lon="0.61503">
        <ele>113.24035788421</ele>
        <time>2021-11-17T08:55:21Z</time>
      </trkpt>
      <trkpt lat="46.52809" lon="0.61503">
        <ele>113.53778645769</ele>
        <time>2021-11-17T08:55:22Z</time>
      </trkpt>
      <trkpt lat="46.52811" lon="0.61503">
        <ele>113.82830778789</ele>
        <time>2021-11-17T08:55:24Z</time>
      </trkpt>
      <trkpt lat="46.52814" lon="0.61503">
        <ele>113.74813348614</ele>
        <time>2021-11-17T08:55:26Z</time>
      </trkpt>
      <trkpt lat="46.52818" lon="0.61503">
        <ele>113.71817509178</ele>
        <time>2021-11-17T08:55:28Z</time>
      </trkpt>
      <trkpt lat="46.52821" lon="0.61503">
        <ele>113.74793590698</ele>
        <time>2021-11-17T08:55:30Z</time>
      </trkpt>
      <trkpt lat="46.52824" lon="0.61503">
        <ele>113.90528751072</ele>
        <time>2021-11-17T08:55:32Z</time>
      </trkpt>
      <trkpt lat="46.52827" lon="0.61503">
        <ele>113.85793322232</ele>
        <time>2021-11-17T08:55:34Z</time>
      </trkpt>
      <trkpt lat="46.5283" lon="0.61504">
        <ele>113.6241842797</ele>
        <time>2021-11-17T08:55:36Z</time>
      </trkpt>
      <trkpt lat="46.52832" lon="0.61503">
        <ele>113.76051972993</ele>
        <time>2021-11-17T08:55:38Z</time>
      </trkpt>
      <trkpt lat="46.52834" lon="0.61504">
        <ele>113.51773176715</ele>
        <time>2021-11-17T08:55:40Z</time>
      </trkpt>
      <trkpt lat="46.52836" lon="0.61504">
        <ele>113.53908287827</ele>
        <time>2021-11-17T08:55:41Z</time>
      </trkpt>
      <trkpt lat="46.52839" lon="0.61506">
        <ele>113.28946212213</ele>
        <time>2021-11-17T08:55:43Z</time>
      </trkpt>
      <trkpt lat="46.52842" lon="0.61506">
        <ele>113.75801599678</ele>
        <time>2021-11-17T08:55:45Z</time>
      </trkpt>
      <trkpt lat="46.52844" lon="0.61505">
        <ele>113.6457758788</ele>
        <time>2021-11-17T08:55:47Z</time>
      </trkpt>
      <trkpt lat="46.52846" lon="0.61506">
        <ele>113.18572722096</ele>
        <time>2021-11-17T08:55:49Z</time>
      </trkpt>
      <trkpt lat="46.52849" lon="0.61507">
        <ele>113.1493639145</ele>
        <time>2021-11-17T08:55:51Z</time>
      </trkpt>
      <trkpt lat="46.52851" lon="0.61508">
        <ele>113.32054287009</ele>
        <time>2021-11-17T08:55:53Z</time>
      </trkpt>
      <trkpt lat="46.52854" lon="0.61509">
        <ele>113.48437668663</ele>
        <time>2021-11-17T08:55:55Z</time>
      </trkpt>
      <trkpt lat="46.52856" lon="0.61509">
        <ele>112.8974618027</ele>
        <time>2021-11-17T08:55:57Z</time>
      </trkpt>
      <trkpt lat="46.52859" lon="0.6151">
        <ele>113.16317152046</ele>
        <time>2021-11-17T08:55:59Z</time>
      </trkpt>
      <trkpt lat="46.52862" lon="0.61509">
        <ele>113.48396374471</ele>
        <time>2021-11-17T08:56:01Z</time>
      </trkpt>
      <trkpt lat="46.52864" lon="0.6151">
        <ele>112.79379036091</ele>
        <time>2021-11-17T08:56:03Z</time>
      </trkpt>
      <trkpt lat="46.52867" lon="0.61511">
        <ele>113.73956975527</ele>
        <time>2021-11-17T08:56:05Z</time>
      </trkpt>
      <trkpt lat="46.52869" lon="0.61511">
        <ele>113.78920728806</ele>
        <time>2021-11-17T08:56:07Z</time>
      </trkpt>
      <trkpt lat="46.52871" lon="0.61512">
        <ele>113.48477648385</ele>
        <time>2021-11-17T08:56:09Z</time>
      </trkpt>
      <trkpt lat="46.52873" lon="0.61512">
        <ele>113.10337805748</ele>
        <time>2021-11-17T08:56:10Z</time>
      </trkpt>
      <trkpt lat="46.52875" lon="0.61513">
        <ele>113.09205892123</ele>
        <time>2021-11-17T08:56:12Z</time>
      </trkpt>
      <trkpt lat="46.52878" lon="0.61514">
        <ele>113.37144743092</ele>
        <time>2021-11-17T08:56:14Z</time>
      </trkpt>
      <trkpt lat="46.5288" lon="0.61514">
        <ele>113.32130285073</ele>
        <time>2021-11-17T08:56:16Z</time>
      </trkpt>
      <trkpt lat="46.52882" lon="0.61514">
        <ele>113.34405596554</ele>
        <time>2021-11-17T08:56:18Z</time>
      </trkpt>
      <trkpt lat="46.52885" lon="0.61515">
        <ele>113.43522998411</ele>
        <time>2021-11-17T08:56:20Z</time>
      </trkpt>
      <trkpt lat="46.52887" lon="0.61515">
        <ele>113.09207088687</ele>
        <time>2021-11-17T08:56:22Z</time>
      </trkpt>
      <trkpt lat="46.52889" lon="0.61515">
        <ele>113.14191426709</ele>
        <time>2021-11-17T08:56:24Z</time>
      </trkpt>
      <trkpt lat="46.52892" lon="0.61516">
        <ele>113.2284935331</ele>
        <time>2021-11-17T08:56:26Z</time>
      </trkpt>
      <trkpt lat="46.52895" lon="0.61517">
        <ele>113.3293501446</ele>
        <time>2021-11-17T08:56:29Z</time>
      </trkpt>
      <trkpt lat="46.52897" lon="0.61517">
        <ele>113.35342152696</ele>
        <time>2021-11-17T08:56:31Z</time>
      </trkpt>
      <trkpt lat="46.52899" lon="0.61518">
        <ele>112.71471135132</ele>
        <time>2021-11-17T08:56:33Z</time>
      </trkpt>
      <trkpt lat="46.52901" lon="0.61519">
        <ele>113.26464472711</ele>
        <time>2021-11-17T08:56:35Z</time>
      </trkpt>
      <trkpt lat="46.52904" lon="0.61519">
        <ele>112.91619033646</ele>
        <time>2021-11-17T08:56:37Z</time>
      </trkpt>
      <trkpt lat="46.52906" lon="0.6152">
        <ele>112.96819081809</ele>
        <time>2021-11-17T08:56:39Z</time>
      </trkpt>
      <trkpt lat="46.52909" lon="0.61521">
        <ele>112.91152466089</ele>
        <time>2021-11-17T08:56:41Z</time>
      </trkpt>
      <trkpt lat="46.52912" lon="0.61521">
        <ele>112.69519682508</ele>
        <time>2021-11-17T08:56:43Z</time>
      </trkpt>
      <trkpt lat="46.52914" lon="0.61522">
        <ele>112.74131865054</ele>
        <time>2021-11-17T08:56:45Z</time>
      </trkpt>
      <trkpt lat="46.52917" lon="0.61522">
        <ele>112.43997173011</ele>
        <time>2021-11-17T08:56:47Z</time>
      </trkpt>
      <trkpt lat="46.5292" lon="0.61523">
        <ele>112.86170732789</ele>
        <time>2021-11-17T08:56:49Z</time>
      </trkpt>
      <trkpt lat="46.52922" lon="0.61524">
        <ele>112.57551689819</ele>
        <time>2021-11-17T08:56:51Z</time>
      </trkpt>
      <trkpt lat="46.52925" lon="0.61525">
        <ele>112.67522466835</ele>
        <time>2021-11-17T08:56:53Z</time>
      </trkpt>
      <trkpt lat="46.52928" lon="0.61525">
        <ele>112.72274984233</ele>
        <time>2021-11-17T08:56:55Z</time>
      </trkpt>
      <trkpt lat="46.52931" lon="0.61526">
        <ele>112.37707698252</ele>
        <time>2021-11-17T08:56:57Z</time>
      </trkpt>
      <trkpt lat="46.52933" lon="0.61526">
        <ele>112.18984604813</ele>
        <time>2021-11-17T08:56:59Z</time>
      </trkpt>
      <trkpt lat="46.52935" lon="0.61527">
        <ele>112.1518786205</ele>
        <time>2021-11-17T08:57:01Z</time>
      </trkpt>
      <trkpt lat="46.52938" lon="0.61528">
        <ele>112.28256468661</ele>
        <time>2021-11-17T08:57:03Z</time>
      </trkpt>
      <trkpt lat="46.5294" lon="0.61529">
        <ele>112.59934915788</ele>
        <time>2021-11-17T08:57:05Z</time>
      </trkpt>
      <trkpt lat="46.52944" lon="0.61529">
        <ele>112.15489526652</ele>
        <time>2021-11-17T08:57:07Z</time>
      </trkpt>
      <trkpt lat="46.52947" lon="0.61531">
        <ele>112.07613664959</ele>
        <time>2021-11-17T08:57:09Z</time>
      </trkpt>
      <trkpt lat="46.5295" lon="0.61531">
        <ele>112.190059416</ele>
        <time>2021-11-17T08:57:11Z</time>
      </trkpt>
      <trkpt lat="46.52953" lon="0.61532">
        <ele>112.33236878831</ele>
        <time>2021-11-17T08:57:13Z</time>
      </trkpt>
      <trkpt lat="46.52955" lon="0.61533">
        <ele>112.42632458452</ele>
        <time>2021-11-17T08:57:15Z</time>
      </trkpt>
      <trkpt lat="46.52958" lon="0.61534">
        <ele>112.11014340725</ele>
        <time>2021-11-17T08:57:17Z</time>
      </trkpt>
      <trkpt lat="46.5296" lon="0.61534">
        <ele>111.66731108353</ele>
        <time>2021-11-17T08:57:19Z</time>
      </trkpt>
      <trkpt lat="46.52962" lon="0.61535">
        <ele>111.91256262548</ele>
        <time>2021-11-17T08:57:20Z</time>
      </trkpt>
      <trkpt lat="46.52965" lon="0.61535">
        <ele>111.96872641146</ele>
        <time>2021-11-17T08:57:22Z</time>
      </trkpt>
      <trkpt lat="46.52967" lon="0.61536">
        <ele>111.86039319169</ele>
        <time>2021-11-17T08:57:24Z</time>
      </trkpt>
      <trkpt lat="46.5297" lon="0.61537">
        <ele>111.75072210934</ele>
        <time>2021-11-17T08:57:26Z</time>
      </trkpt>
      <trkpt lat="46.52973" lon="0.61537">
        <ele>111.85100151133</ele>
        <time>2021-11-17T08:57:28Z</time>
      </trkpt>
      <trkpt lat="46.52975" lon="0.61538">
        <ele>111.66188212764</ele>
        <time>2021-11-17T08:57:30Z</time>
      </trkpt>
      <trkpt lat="46.52978" lon="0.61539">
        <ele>111.69658902474</ele>
        <time>2021-11-17T08:57:32Z</time>
      </trkpt>
      <trkpt lat="46.52981" lon="0.61539">
        <ele>111.52316040918</ele>
        <time>2021-11-17T08:57:34Z</time>
      </trkpt>
      <trkpt lat="46.52983" lon="0.6154">
        <ele>111.27677533496</ele>
        <time>2021-11-17T08:57:36Z</time>
      </trkpt>
      <trkpt lat="46.52986" lon="0.61541">
        <ele>110.99472703133</ele>
        <time>2021-11-17T08:57:38Z</time>
      </trkpt>
      <trkpt lat="46.52988" lon="0.61542">
        <ele>111.10857006256</ele>
        <time>2021-11-17T08:57:40Z</time>
      </trkpt>
      <trkpt lat="46.52991" lon="0.61542">
        <ele>111.14696041774</ele>
        <time>2021-11-17T08:57:42Z</time>
      </trkpt>
      <trkpt lat="46.52994" lon="0.61543">
        <ele>110.79738763161</ele>
        <time>2021-11-17T08:57:45Z</time>
      </trkpt>
      <trkpt lat="46.52996" lon="0.61544">
        <ele>110.82520425785</ele>
        <time>2021-11-17T08:57:47Z</time>
      </trkpt>
      <trkpt lat="46.52999" lon="0.61544">
        <ele>110.71238245443</ele>
        <time>2021-11-17T08:57:49Z</time>
      </trkpt>
      <trkpt lat="46.53001" lon="0.61545">
        <ele>111.13155464642</ele>
        <time>2021-11-17T08:57:51Z</time>
      </trkpt>
      <trkpt lat="46.53004" lon="0.61546">
        <ele>110.65350772999</ele>
        <time>2021-11-17T08:57:53Z</time>
      </trkpt>
      <trkpt lat="46.53006" lon="0.61547">
        <ele>110.76598575152</ele>
        <time>2021-11-17T08:57:55Z</time>
      </trkpt>
      <trkpt lat="46.53009" lon="0.61548">
        <ele>110.58692302555</ele>
        <time>2021-11-17T08:57:57Z</time>
      </trkpt>
      <trkpt lat="46.53012" lon="0.61548">
        <ele>110.47617071774</ele>
        <time>2021-11-17T08:57:59Z</time>
      </trkpt>
      <trkpt lat="46.53014" lon="0.61549">
        <ele>110.53164268658</ele>
        <time>2021-11-17T08:58:01Z</time>
      </trkpt>
      <trkpt lat="46.53016" lon="0.61549">
        <ele>110.29719029926</ele>
        <time>2021-11-17T08:58:02Z</time>
      </trkpt>
      <trkpt lat="46.5302" lon="0.6155">
        <ele>109.98470230773</ele>
        <time>2021-11-17T08:58:04Z</time>
      </trkpt>
      <trkpt lat="46.53022" lon="0.61551">
        <ele>109.94529698603</ele>
        <time>2021-11-17T08:58:06Z</time>
      </trkpt>
      <trkpt lat="46.53024" lon="0.61552">
        <ele>109.69384258334</ele>
        <time>2021-11-17T08:58:08Z</time>
      </trkpt>
      <trkpt lat="46.53027" lon="0.61552">
        <ele>109.39252635837</ele>
        <time>2021-11-17T08:58:10Z</time>
      </trkpt>
      <trkpt lat="46.5303" lon="0.61553">
        <ele>109.4140761774</ele>
        <time>2021-11-17T08:58:12Z</time>
      </trkpt>
      <trkpt lat="46.53033" lon="0.61554">
        <ele>109.57814319991</ele>
        <time>2021-11-17T08:58:14Z</time>
      </trkpt>
      <trkpt lat="46.53036" lon="0.61554">
        <ele>109.16703320853</ele>
        <time>2021-11-17T08:58:16Z</time>
      </trkpt>
      <trkpt lat="46.53039" lon="0.61555">
        <ele>108.9270583773</ele>
        <time>2021-11-17T08:58:18Z</time>
      </trkpt>
      <trkpt lat="46.53041" lon="0.61555">
        <ele>108.93556411564</ele>
        <time>2021-11-17T08:58:20Z</time>
      </trkpt>
      <trkpt lat="46.53044" lon="0.61557">
        <ele>108.86133320909</ele>
        <time>2021-11-17T08:58:22Z</time>
      </trkpt>
      <trkpt lat="46.53047" lon="0.61557">
        <ele>108.92640214227</ele>
        <time>2021-11-17T08:58:24Z</time>
      </trkpt>
      <trkpt lat="46.53049" lon="0.61557">
        <ele>108.85830138903</ele>
        <time>2021-11-17T08:58:26Z</time>
      </trkpt>
      <trkpt lat="46.53052" lon="0.61559">
        <ele>108.62859019451</ele>
        <time>2021-11-17T08:58:28Z</time>
      </trkpt>
      <trkpt lat="46.53054" lon="0.6156">
        <ele>108.56206266303</ele>
        <time>2021-11-17T08:58:30Z</time>
      </trkpt>
      <trkpt lat="46.53057" lon="0.61561">
        <ele>108.28542089835</ele>
        <time>2021-11-17T08:58:32Z</time>
      </trkpt>
      <trkpt lat="46.53059" lon="0.61561">
        <ele>108.46187926736</ele>
        <time>2021-11-17T08:58:34Z</time>
      </trkpt>
      <trkpt lat="46.53062" lon="0.61564">
        <ele>107.97830616683</ele>
        <time>2021-11-17T08:58:36Z</time>
      </trkpt>
      <trkpt lat="46.53064" lon="0.61564">
        <ele>107.70354757272</ele>
        <time>2021-11-17T08:58:38Z</time>
      </trkpt>
      <trkpt lat="46.53067" lon="0.61566">
        <ele>107.53387338575</ele>
        <time>2021-11-17T08:58:40Z</time>
      </trkpt>
      <trkpt lat="46.53069" lon="0.61568">
        <ele>107.57075881772</ele>
        <time>2021-11-17T08:58:42Z</time>
      </trkpt>
      <trkpt lat="46.53071" lon="0.61569">
        <ele>107.12994712219</ele>
        <time>2021-11-17T08:58:44Z</time>
      </trkpt>
      <trkpt lat="46.53074" lon="0.6157">
        <ele>107.20244926587</ele>
        <time>2021-11-17T08:58:46Z</time>
      </trkpt>
      <trkpt lat="46.53076" lon="0.61572">
        <ele>106.50122634321</ele>
        <time>2021-11-17T08:58:48Z</time>
      </trkpt>
      <trkpt lat="46.53078" lon="0.61575">
        <ele>106.59107231442</ele>
        <time>2021-11-17T08:58:50Z</time>
      </trkpt>
      <trkpt lat="46.53081" lon="0.61576">
        <ele>106.46495472733</ele>
        <time>2021-11-17T08:58:52Z</time>
      </trkpt>
      <trkpt lat="46.53083" lon="0.61578">
        <ele>106.32440047245</ele>
        <time>2021-11-17T08:58:54Z</time>
      </trkpt>
      <trkpt lat="46.53085" lon="0.6158">
        <ele>106.01387474034</ele>
        <time>2021-11-17T08:58:56Z</time>
      </trkpt>
      <trkpt lat="46.53088" lon="0.61582">
        <ele>106.713230839</ele>
        <time>2021-11-17T08:58:58Z</time>
      </trkpt>
      <trkpt lat="46.5309" lon="0.61585">
        <ele>105.82312283106</ele>
        <time>2021-11-17T08:59:00Z</time>
      </trkpt>
      <trkpt lat="46.53092" lon="0.61587">
        <ele>105.97275974508</ele>
        <time>2021-11-17T08:59:02Z</time>
      </trkpt>
      <trkpt lat="46.53094" lon="0.6159">
        <ele>105.97811275069</ele>
        <time>2021-11-17T08:59:04Z</time>
      </trkpt>
      <trkpt lat="46.53096" lon="0.61592">
        <ele>105.77064709552</ele>
        <time>2021-11-17T08:59:06Z</time>
      </trkpt>
      <trkpt lat="46.53099" lon="0.61594">
        <ele>105.44937219191</ele>
        <time>2021-11-17T08:59:08Z</time>
      </trkpt>
      <trkpt lat="46.53101" lon="0.61597">
        <ele>105.60764847882</ele>
        <time>2021-11-17T08:59:10Z</time>
      </trkpt>
      <trkpt lat="46.53102" lon="0.616">
        <ele>105.58571804315</ele>
        <time>2021-11-17T08:59:12Z</time>
      </trkpt>
      <trkpt lat="46.53104" lon="0.61602">
        <ele>105.47459996305</ele>
        <time>2021-11-17T08:59:14Z</time>
      </trkpt>
      <trkpt lat="46.53105" lon="0.61605">
        <ele>105.45423569158</ele>
        <time>2021-11-17T08:59:15Z</time>
      </trkpt>
      <trkpt lat="46.53107" lon="0.61607">
        <ele>105.44483993109</ele>
        <time>2021-11-17T08:59:17Z</time>
      </trkpt>
      <trkpt lat="46.53109" lon="0.61609">
        <ele>105.43965437915</ele>
        <time>2021-11-17T08:59:19Z</time>
      </trkpt>
      <trkpt lat="46.53111" lon="0.61612">
        <ele>105.51342413388</ele>
        <time>2021-11-17T08:59:21Z</time>
      </trkpt>
      <trkpt lat="46.53113" lon="0.61614">
        <ele>105.66367508378</ele>
        <time>2021-11-17T08:59:23Z</time>
      </trkpt>
      <trkpt lat="46.53115" lon="0.61617">
        <ele>105.14836802706</ele>
        <time>2021-11-17T08:59:25Z</time>
      </trkpt>
      <trkpt lat="46.53117" lon="0.61619">
        <ele>105.110849794</ele>
        <time>2021-11-17T08:59:27Z</time>
      </trkpt>
      <trkpt lat="46.53119" lon="0.61622">
        <ele>104.95116260741</ele>
        <time>2021-11-17T08:59:29Z</time>
      </trkpt>
      <trkpt lat="46.53121" lon="0.61625">
        <ele>105.04907333665</ele>
        <time>2021-11-17T08:59:31Z</time>
      </trkpt>
      <trkpt lat="46.53123" lon="0.61627">
        <ele>105.23959914315</ele>
        <time>2021-11-17T08:59:33Z</time>
      </trkpt>
      <trkpt lat="46.53125" lon="0.61629">
        <ele>105.27314689849</ele>
        <time>2021-11-17T08:59:35Z</time>
      </trkpt>
      <trkpt lat="46.53128" lon="0.61631">
        <ele>105.039661441</ele>
        <time>2021-11-17T08:59:37Z</time>
      </trkpt>
      <trkpt lat="46.5313" lon="0.61634">
        <ele>105.00088927057</ele>
        <time>2021-11-17T08:59:39Z</time>
      </trkpt>
      <trkpt lat="46.53132" lon="0.61635">
        <ele>105.11586525291</ele>
        <time>2021-11-17T08:59:41Z</time>
      </trkpt>
      <trkpt lat="46.53134" lon="0.61637">
        <ele>105.1501928838</ele>
        <time>2021-11-17T08:59:43Z</time>
      </trkpt>
      <trkpt lat="46.53137" lon="0.61639">
        <ele>105.30555697531</ele>
        <time>2021-11-17T08:59:45Z</time>
      </trkpt>
      <trkpt lat="46.53139" lon="0.6164">
        <ele>105.46176043339</ele>
        <time>2021-11-17T08:59:47Z</time>
      </trkpt>
      <trkpt lat="46.53142" lon="0.61643">
        <ele>105.31522928737</ele>
        <time>2021-11-17T08:59:49Z</time>
      </trkpt>
      <trkpt lat="46.53144" lon="0.61644">
        <ele>105.3702948112</ele>
        <time>2021-11-17T08:59:51Z</time>
      </trkpt>
      <trkpt lat="46.53146" lon="0.61646">
        <ele>105.33974822424</ele>
        <time>2021-11-17T08:59:53Z</time>
      </trkpt>
      <trkpt lat="46.53148" lon="0.61647">
        <ele>105.51311657019</ele>
        <time>2021-11-17T08:59:55Z</time>
      </trkpt>
      <trkpt lat="46.53151" lon="0.61648">
        <ele>105.68304088619</ele>
        <time>2021-11-17T08:59:57Z</time>
      </trkpt>
      <trkpt lat="46.53154" lon="0.6165">
        <ele>105.85983150173</ele>
        <time>2021-11-17T08:59:59Z</time>
      </trkpt>
      <trkpt lat="46.53156" lon="0.61651">
        <ele>106.04199293349</ele>
        <time>2021-11-17T09:00:01Z</time>
      </trkpt>
      <trkpt lat="46.53158" lon="0.61652">
        <ele>105.95537042432</ele>
        <time>2021-11-17T09:00:03Z</time>
      </trkpt>
      <trkpt lat="46.53161" lon="0.61654">
        <ele>106.05049787275</ele>
        <time>2021-11-17T09:00:05Z</time>
      </trkpt>
      <trkpt lat="46.53164" lon="0.61655">
        <ele>106.26874691155</ele>
        <time>2021-11-17T09:00:07Z</time>
      </trkpt>
      <trkpt lat="46.53166" lon="0.61656">
        <ele>106.42248293571</ele>
        <time>2021-11-17T09:00:09Z</time>
      </trkpt>
      <trkpt lat="46.53168" lon="0.61657">
        <ele>106.38980975281</ele>
        <time>2021-11-17T09:00:11Z</time>
      </trkpt>
      <trkpt lat="46.53172" lon="0.61659">
        <ele>106.8858087603</ele>
        <time>2021-11-17T09:00:13Z</time>
      </trkpt>
      <trkpt lat="46.53174" lon="0.6166">
        <ele>107.04833351169</ele>
        <time>2021-11-17T09:00:15Z</time>
      </trkpt>
      <trkpt lat="46.53176" lon="0.61661">
        <ele>107.16294381395</ele>
        <time>2021-11-17T09:00:17Z</time>
      </trkpt>
      <trkpt lat="46.53179" lon="0.61662">
        <ele>107.11350198742</ele>
        <time>2021-11-17T09:00:19Z</time>
      </trkpt>
      <trkpt lat="46.53181" lon="0.61664">
        <ele>107.02095786668</ele>
        <time>2021-11-17T09:00:21Z</time>
      </trkpt>
      <trkpt lat="46.53184" lon="0.61665">
        <ele>107.16533282027</ele>
        <time>2021-11-17T09:00:23Z</time>
      </trkpt>
      <trkpt lat="46.53186" lon="0.61666">
        <ele>107.09604442678</ele>
        <time>2021-11-17T09:00:25Z</time>
      </trkpt>
      <trkpt lat="46.53188" lon="0.61667">
        <ele>107.23032520618</ele>
        <time>2021-11-17T09:00:27Z</time>
      </trkpt>
      <trkpt lat="46.53191" lon="0.61668">
        <ele>107.52389645018</ele>
        <time>2021-11-17T09:00:29Z</time>
      </trkpt>
      <trkpt lat="46.53193" lon="0.6167">
        <ele>107.74592073355</ele>
        <time>2021-11-17T09:00:31Z</time>
      </trkpt>
      <trkpt lat="46.53195" lon="0.61671">
        <ele>107.70729584806</ele>
        <time>2021-11-17T09:00:33Z</time>
      </trkpt>
      <trkpt lat="46.53198" lon="0.61672">
        <ele>107.69536238536</ele>
        <time>2021-11-17T09:00:35Z</time>
      </trkpt>
      <trkpt lat="46.532" lon="0.61673">
        <ele>107.95358147938</ele>
        <time>2021-11-17T09:00:37Z</time>
      </trkpt>
      <trkpt lat="46.53202" lon="0.61674">
        <ele>108.18322157022</ele>
        <time>2021-11-17T09:00:39Z</time>
      </trkpt>
      <trkpt lat="46.53204" lon="0.61675">
        <ele>108.23478651512</ele>
        <time>2021-11-17T09:00:41Z</time>
      </trkpt>
      <trkpt lat="46.53207" lon="0.61676">
        <ele>108.66749943141</ele>
        <time>2021-11-17T09:00:43Z</time>
      </trkpt>
      <trkpt lat="46.53209" lon="0.61677">
        <ele>108.57378648873</ele>
        <time>2021-11-17T09:00:45Z</time>
      </trkpt>
      <trkpt lat="46.53211" lon="0.61679">
        <ele>109.00159769412</ele>
        <time>2021-11-17T09:00:47Z</time>
      </trkpt>
      <trkpt lat="46.53212" lon="0.61679">
        <ele>109.05163446348</ele>
        <time>2021-11-17T09:00:49Z</time>
      </trkpt>
      <trkpt lat="46.53214" lon="0.61679">
        <ele>108.75809119269</ele>
        <time>2021-11-17T09:00:51Z</time>
      </trkpt>
      <trkpt lat="46.53216" lon="0.6168">
        <ele>108.93980389833</ele>
        <time>2021-11-17T09:00:52Z</time>
      </trkpt>
      <trkpt lat="46.53219" lon="0.61681">
        <ele>109.45748417173</ele>
        <time>2021-11-17T09:00:54Z</time>
      </trkpt>
      <trkpt lat="46.53221" lon="0.61683">
        <ele>109.95181304775</ele>
        <time>2021-11-17T09:00:57Z</time>
      </trkpt>
      <trkpt lat="46.53223" lon="0.61683">
        <ele>110.26369954925</ele>
        <time>2021-11-17T09:00:58Z</time>
      </trkpt>
      <trkpt lat="46.53226" lon="0.61685">
        <ele>110.13543166593</ele>
        <time>2021-11-17T09:01:01Z</time>
      </trkpt>
      <trkpt lat="46.53228" lon="0.61686">
        <ele>110.24959074613</ele>
        <time>2021-11-17T09:01:03Z</time>
      </trkpt>
      <trkpt lat="46.5323" lon="0.61687">
        <ele>110.30819331575</ele>
        <time>2021-11-17T09:01:04Z</time>
      </trkpt>
      <trkpt lat="46.53233" lon="0.61688">
        <ele>110.61890489049</ele>
        <time>2021-11-17T09:01:06Z</time>
      </trkpt>
      <trkpt lat="46.53235" lon="0.61689">
        <ele>110.70575853996</ele>
        <time>2021-11-17T09:01:08Z</time>
      </trkpt>
      <trkpt lat="46.53237" lon="0.6169">
        <ele>111.29031798244</ele>
        <time>2021-11-17T09:01:10Z</time>
      </trkpt>
      <trkpt lat="46.5324" lon="0.61692">
        <ele>111.75900627021</ele>
        <time>2021-11-17T09:01:12Z</time>
      </trkpt>
      <trkpt lat="46.53242" lon="0.61693">
        <ele>111.80872770771</ele>
        <time>2021-11-17T09:01:14Z</time>
      </trkpt>
      <trkpt lat="46.53245" lon="0.61693">
        <ele>112.00881837308</ele>
        <time>2021-11-17T09:01:16Z</time>
      </trkpt>
      <trkpt lat="46.53247" lon="0.61694">
        <ele>112.11410079803</ele>
        <time>2021-11-17T09:01:18Z</time>
      </trkpt>
      <trkpt lat="46.5325" lon="0.61695">
        <ele>112.33923688158</ele>
        <time>2021-11-17T09:01:20Z</time>
      </trkpt>
      <trkpt lat="46.53252" lon="0.61696">
        <ele>112.28572975565</ele>
        <time>2021-11-17T09:01:22Z</time>
      </trkpt>
      <trkpt lat="46.53254" lon="0.61698">
        <ele>112.62871575821</ele>
        <time>2021-11-17T09:01:24Z</time>
      </trkpt>
      <trkpt lat="46.53257" lon="0.61699">
        <ele>113.21475457121</ele>
        <time>2021-11-17T09:01:26Z</time>
      </trkpt>
      <trkpt lat="46.5326" lon="0.61701">
        <ele>113.6526853228</ele>
        <time>2021-11-17T09:01:29Z</time>
      </trkpt>
      <trkpt lat="46.53261" lon="0.61702">
        <ele>113.71775568184</ele>
        <time>2021-11-17T09:01:31Z</time>
      </trkpt>
      <trkpt lat="46.53264" lon="0.61703">
        <ele>113.83014624007</ele>
        <time>2021-11-17T09:01:33Z</time>
      </trkpt>
      <trkpt lat="46.53266" lon="0.61704">
        <ele>114.26274298318</ele>
        <time>2021-11-17T09:01:35Z</time>
      </trkpt>
      <trkpt lat="46.53268" lon="0.61705">
        <ele>114.75795528479</ele>
        <time>2021-11-17T09:01:37Z</time>
      </trkpt>
      <trkpt lat="46.5327" lon="0.61706">
        <ele>114.79385810439</ele>
        <time>2021-11-17T09:01:39Z</time>
      </trkpt>
      <trkpt lat="46.53273" lon="0.61707">
        <ele>115.37541457359</ele>
        <time>2021-11-17T09:01:41Z</time>
      </trkpt>
      <trkpt lat="46.53275" lon="0.61709">
        <ele>115.62706137449</ele>
        <time>2021-11-17T09:01:43Z</time>
      </trkpt>
      <trkpt lat="46.53278" lon="0.6171">
        <ele>115.95553877018</ele>
        <time>2021-11-17T09:01:46Z</time>
      </trkpt>
      <trkpt lat="46.5328" lon="0.61712">
        <ele>116.3676432604</ele>
        <time>2021-11-17T09:01:48Z</time>
      </trkpt>
      <trkpt lat="46.53282" lon="0.61712">
        <ele>116.58659305051</ele>
        <time>2021-11-17T09:01:50Z</time>
      </trkpt>
      <trkpt lat="46.53284" lon="0.61713">
        <ele>116.37617032137</ele>
        <time>2021-11-17T09:01:52Z</time>
      </trkpt>
      <trkpt lat="46.53286" lon="0.61715">
        <ele>117.26459965017</ele>
        <time>2021-11-17T09:01:54Z</time>
      </trkpt>
      <trkpt lat="46.53289" lon="0.61715">
        <ele>117.09688259661</ele>
        <time>2021-11-17T09:01:56Z</time>
      </trkpt>
      <trkpt lat="46.53291" lon="0.61716">
        <ele>117.31983207166</ele>
        <time>2021-11-17T09:01:59Z</time>
      </trkpt>
      <trkpt lat="46.53293" lon="0.61717">
        <ele>117.97140209936</ele>
        <time>2021-11-17T09:02:01Z</time>
      </trkpt>
      <trkpt lat="46.53295" lon="0.61718">
        <ele>118.35541029926</ele>
        <time>2021-11-17T09:02:03Z</time>
      </trkpt>
      <trkpt lat="46.53297" lon="0.61719">
        <ele>118.28047119733</ele>
        <time>2021-11-17T09:02:05Z</time>
      </trkpt>
      <trkpt lat="46.53299" lon="0.6172">
        <ele>118.49015425239</ele>
        <time>2021-11-17T09:02:07Z</time>
      </trkpt>
      <trkpt lat="46.53301" lon="0.61721">
        <ele>118.79482849967</ele>
        <time>2021-11-17T09:02:10Z</time>
      </trkpt>
      <trkpt lat="46.53303" lon="0.61722">
        <ele>119.08423434105</ele>
        <time>2021-11-17T09:02:12Z</time>
      </trkpt>
      <trkpt lat="46.53305" lon="0.61723">
        <ele>119.44732378703</ele>
        <time>2021-11-17T09:02:14Z</time>
      </trkpt>
      <trkpt lat="46.53307" lon="0.61724">
        <ele>119.39245983399</ele>
        <time>2021-11-17T09:02:16Z</time>
      </trkpt>
      <trkpt lat="46.53309" lon="0.61726">
        <ele>119.8814172633</ele>
        <time>2021-11-17T09:02:18Z</time>
      </trkpt>
      <trkpt lat="46.53312" lon="0.61727">
        <ele>120.0375079168</ele>
        <time>2021-11-17T09:02:20Z</time>
      </trkpt>
      <trkpt lat="46.53314" lon="0.61728">
        <ele>120.21484245732</ele>
        <time>2021-11-17T09:02:22Z</time>
      </trkpt>
      <trkpt lat="46.53316" lon="0.6173">
        <ele>120.80258726235</ele>
        <time>2021-11-17T09:02:24Z</time>
      </trkpt>
      <trkpt lat="46.53318" lon="0.61731">
        <ele>121.45787008759</ele>
        <time>2021-11-17T09:02:26Z</time>
      </trkpt>
      <trkpt lat="46.5332" lon="0.61732">
        <ele>121.29278475512</ele>
        <time>2021-11-17T09:02:28Z</time>
      </trkpt>
      <trkpt lat="46.53322" lon="0.61733">
        <ele>121.27932757046</ele>
        <time>2021-11-17T09:02:30Z</time>
      </trkpt>
      <trkpt lat="46.53324" lon="0.61734">
        <ele>121.74529384635</ele>
        <time>2021-11-17T09:02:32Z</time>
      </trkpt>
      <trkpt lat="46.53327" lon="0.61735">
        <ele>121.37552089524</ele>
        <time>2021-11-17T09:02:34Z</time>
      </trkpt>
      <trkpt lat="46.53329" lon="0.61736">
        <ele>121.93817112129</ele>
        <time>2021-11-17T09:02:36Z</time>
      </trkpt>
      <trkpt lat="46.53331" lon="0.61737">
        <ele>122.2540974794</ele>
        <time>2021-11-17T09:02:39Z</time>
      </trkpt>
      <trkpt lat="46.53333" lon="0.61738">
        <ele>122.20080395043</ele>
        <time>2021-11-17T09:02:41Z</time>
      </trkpt>
      <trkpt lat="46.53336" lon="0.61739">
        <ele>122.55152781028</ele>
        <time>2021-11-17T09:02:43Z</time>
      </trkpt>
      <trkpt lat="46.53338" lon="0.6174">
        <ele>122.98070715554</ele>
        <time>2021-11-17T09:02:45Z</time>
      </trkpt>
      <trkpt lat="46.5334" lon="0.61741">
        <ele>123.11415443663</ele>
        <time>2021-11-17T09:02:47Z</time>
      </trkpt>
      <trkpt lat="46.53342" lon="0.61743">
        <ele>123.47138870228</ele>
        <time>2021-11-17T09:02:50Z</time>
      </trkpt>
      <trkpt lat="46.53345" lon="0.61742">
        <ele>123.99087898806</ele>
        <time>2021-11-17T09:02:52Z</time>
      </trkpt>
      <trkpt lat="46.53347" lon="0.61744">
        <ele>123.95198372938</ele>
        <time>2021-11-17T09:02:54Z</time>
      </trkpt>
      <trkpt lat="46.53348" lon="0.61745">
        <ele>124.17596490774</ele>
        <time>2021-11-17T09:02:56Z</time>
      </trkpt>
      <trkpt lat="46.53351" lon="0.61746">
        <ele>124.5665544197</ele>
        <time>2021-11-17T09:02:58Z</time>
      </trkpt>
      <trkpt lat="46.53353" lon="0.61747">
        <ele>124.92958090268</ele>
        <time>2021-11-17T09:03:00Z</time>
      </trkpt>
      <trkpt lat="46.53355" lon="0.61748">
        <ele>124.87244250067</ele>
        <time>2021-11-17T09:03:02Z</time>
      </trkpt>
      <trkpt lat="46.53358" lon="0.61749">
        <ele>125.17487278953</ele>
        <time>2021-11-17T09:03:04Z</time>
      </trkpt>
      <trkpt lat="46.5336" lon="0.6175">
        <ele>125.64400991239</ele>
        <time>2021-11-17T09:03:06Z</time>
      </trkpt>
      <trkpt lat="46.53362" lon="0.61751">
        <ele>125.92998163402</ele>
        <time>2021-11-17T09:03:08Z</time>
      </trkpt>
      <trkpt lat="46.53364" lon="0.61753">
        <ele>126.16127910931</ele>
        <time>2021-11-17T09:03:10Z</time>
      </trkpt>
      <trkpt lat="46.53366" lon="0.61754">
        <ele>126.49557498563</ele>
        <time>2021-11-17T09:03:12Z</time>
      </trkpt>
      <trkpt lat="46.53368" lon="0.61755">
        <ele>126.59569456894</ele>
        <time>2021-11-17T09:03:14Z</time>
      </trkpt>
      <trkpt lat="46.5337" lon="0.61756">
        <ele>126.27686266415</ele>
        <time>2021-11-17T09:03:16Z</time>
      </trkpt>
      <trkpt lat="46.53372" lon="0.61757">
        <ele>126.84634926356</ele>
        <time>2021-11-17T09:03:18Z</time>
      </trkpt>
      <trkpt lat="46.53375" lon="0.61758">
        <ele>126.67798201554</ele>
        <time>2021-11-17T09:03:20Z</time>
      </trkpt>
      <trkpt lat="46.53376" lon="0.61759">
        <ele>127.40145348851</ele>
        <time>2021-11-17T09:03:22Z</time>
      </trkpt>
      <trkpt lat="46.53379" lon="0.61759">
        <ele>126.80940257013</ele>
        <time>2021-11-17T09:03:24Z</time>
      </trkpt>
      <trkpt lat="46.53382" lon="0.6176">
        <ele>127.31645669881</ele>
        <time>2021-11-17T09:03:26Z</time>
      </trkpt>
      <trkpt lat="46.53384" lon="0.61762">
        <ele>127.42121645156</ele>
        <time>2021-11-17T09:03:28Z</time>
      </trkpt>
      <trkpt lat="46.53386" lon="0.61763">
        <ele>127.67092209216</ele>
        <time>2021-11-17T09:03:30Z</time>
      </trkpt>
      <trkpt lat="46.53388" lon="0.61764">
        <ele>127.43218956701</ele>
        <time>2021-11-17T09:03:33Z</time>
      </trkpt>
      <trkpt lat="46.53391" lon="0.61765">
        <ele>128.02876270749</ele>
        <time>2021-11-17T09:03:35Z</time>
      </trkpt>
      <trkpt lat="46.53393" lon="0.61766">
        <ele>127.99995234795</ele>
        <time>2021-11-17T09:03:37Z</time>
      </trkpt>
      <trkpt lat="46.53394" lon="0.61768">
        <ele>128.1431648396</ele>
        <time>2021-11-17T09:03:40Z</time>
      </trkpt>
      <trkpt lat="46.53397" lon="0.6177">
        <ele>128.33532426041</ele>
        <time>2021-11-17T09:03:42Z</time>
      </trkpt>
      <trkpt lat="46.53399" lon="0.61772">
        <ele>128.67681896407</ele>
        <time>2021-11-17T09:03:44Z</time>
      </trkpt>
      <trkpt lat="46.53401" lon="0.61774">
        <ele>128.6036235271</ele>
        <time>2021-11-17T09:03:46Z</time>
      </trkpt>
      <trkpt lat="46.53403" lon="0.61775">
        <ele>128.35492536332</ele>
        <time>2021-11-17T09:03:48Z</time>
      </trkpt>
      <trkpt lat="46.53405" lon="0.61777">
        <ele>128.84942328651</ele>
        <time>2021-11-17T09:03:50Z</time>
      </trkpt>
      <trkpt lat="46.53407" lon="0.61777">
        <ele>128.85307374876</ele>
        <time>2021-11-17T09:03:51Z</time>
      </trkpt>
      <trkpt lat="46.53409" lon="0.61779">
        <ele>129.11035407986</ele>
        <time>2021-11-17T09:03:53Z</time>
      </trkpt>
      <trkpt lat="46.53411" lon="0.6178">
        <ele>129.04937538411</ele>
        <time>2021-11-17T09:03:55Z</time>
      </trkpt>
      <trkpt lat="46.53414" lon="0.61781">
        <ele>129.5493108239</ele>
        <time>2021-11-17T09:03:57Z</time>
      </trkpt>
      <trkpt lat="46.53416" lon="0.61782">
        <ele>129.59483570978</ele>
        <time>2021-11-17T09:03:59Z</time>
      </trkpt>
      <trkpt lat="46.53419" lon="0.61784">
        <ele>129.49046996329</ele>
        <time>2021-11-17T09:04:01Z</time>
      </trkpt>
      <trkpt lat="46.53421" lon="0.61785">
        <ele>129.69520455599</ele>
        <time>2021-11-17T09:04:03Z</time>
      </trkpt>
      <trkpt lat="46.53423" lon="0.61786">
        <ele>129.84148135409</ele>
        <time>2021-11-17T09:04:05Z</time>
      </trkpt>
      <trkpt lat="46.53425" lon="0.61787">
        <ele>129.75298839062</ele>
        <time>2021-11-17T09:04:07Z</time>
      </trkpt>
      <trkpt lat="46.53428" lon="0.61787">
        <ele>130.01150594931</ele>
        <time>2021-11-17T09:04:09Z</time>
      </trkpt>
      <trkpt lat="46.53431" lon="0.61788">
        <ele>130.14189226832</ele>
        <time>2021-11-17T09:04:11Z</time>
      </trkpt>
      <trkpt lat="46.53433" lon="0.61789">
        <ele>129.88333176263</ele>
        <time>2021-11-17T09:04:13Z</time>
      </trkpt>
      <trkpt lat="46.53436" lon="0.6179">
        <ele>130.47833139729</ele>
        <time>2021-11-17T09:04:15Z</time>
      </trkpt>
      <trkpt lat="46.53438" lon="0.61792">
        <ele>130.26781769376</ele>
        <time>2021-11-17T09:04:17Z</time>
      </trkpt>
      <trkpt lat="46.5344" lon="0.61794">
        <ele>130.19617253914</ele>
        <time>2021-11-17T09:04:19Z</time>
      </trkpt>
      <trkpt lat="46.53441" lon="0.61796">
        <ele>130.22351844236</ele>
        <time>2021-11-17T09:04:21Z</time>
      </trkpt>
      <trkpt lat="46.53443" lon="0.61797">
        <ele>130.24485361297</ele>
        <time>2021-11-17T09:04:22Z</time>
      </trkpt>
      <trkpt lat="46.53445" lon="0.61798">
        <ele>130.46422863007</ele>
        <time>2021-11-17T09:04:24Z</time>
      </trkpt>
      <trkpt lat="46.53447" lon="0.61799">
        <ele>130.42625171319</ele>
        <time>2021-11-17T09:04:26Z</time>
      </trkpt>
      <trkpt lat="46.53449" lon="0.61801">
        <ele>130.69137663022</ele>
        <time>2021-11-17T09:04:28Z</time>
      </trkpt>
      <trkpt lat="46.53451" lon="0.61802">
        <ele>130.96417301241</ele>
        <time>2021-11-17T09:04:30Z</time>
      </trkpt>
      <trkpt lat="46.53452" lon="0.61804">
        <ele>131.14898595959</ele>
        <time>2021-11-17T09:04:32Z</time>
      </trkpt>
      <trkpt lat="46.53453" lon="0.61806">
        <ele>130.53843602911</ele>
        <time>2021-11-17T09:04:34Z</time>
      </trkpt>
      <trkpt lat="46.53454" lon="0.61809">
        <ele>131.17552141659</ele>
        <time>2021-11-17T09:04:36Z</time>
      </trkpt>
      <trkpt lat="46.53455" lon="0.61813">
        <ele>130.94461651985</ele>
        <time>2021-11-17T09:04:38Z</time>
      </trkpt>
      <trkpt lat="46.53454" lon="0.61815">
        <ele>130.83803460468</ele>
        <time>2021-11-17T09:04:40Z</time>
      </trkpt>
      <trkpt lat="46.53454" lon="0.61818">
        <ele>130.87347306125</ele>
        <time>2021-11-17T09:04:42Z</time>
      </trkpt>
      <trkpt lat="46.53453" lon="0.61821">
        <ele>130.98711727466</ele>
        <time>2021-11-17T09:04:44Z</time>
      </trkpt>
      <trkpt lat="46.53453" lon="0.61824">
        <ele>130.40467795543</ele>
        <time>2021-11-17T09:04:46Z</time>
      </trkpt>
      <trkpt lat="46.53452" lon="0.61827">
        <ele>130.78555915318</ele>
        <time>2021-11-17T09:04:48Z</time>
      </trkpt>
      <trkpt lat="46.5345" lon="0.6183">
        <ele>130.55572948884</ele>
        <time>2021-11-17T09:04:50Z</time>
      </trkpt>
      <trkpt lat="46.5345" lon="0.61833">
        <ele>130.67120574508</ele>
        <time>2021-11-17T09:04:52Z</time>
      </trkpt>
      <trkpt lat="46.53449" lon="0.61836">
        <ele>130.6428338727</ele>
        <time>2021-11-17T09:04:54Z</time>
      </trkpt>
      <trkpt lat="46.53449" lon="0.6184">
        <ele>131.11946348846</ele>
        <time>2021-11-17T09:04:56Z</time>
      </trkpt>
      <trkpt lat="46.53448" lon="0.61844">
        <ele>130.69108089339</ele>
        <time>2021-11-17T09:04:58Z</time>
      </trkpt>
      <trkpt lat="46.53447" lon="0.61846">
        <ele>130.4575346075</ele>
        <time>2021-11-17T09:05:00Z</time>
      </trkpt>
      <trkpt lat="46.53448" lon="0.61849">
        <ele>130.80658889189</ele>
        <time>2021-11-17T09:05:02Z</time>
      </trkpt>
      <trkpt lat="46.53447" lon="0.61854">
        <ele>130.21559232287</ele>
        <time>2021-11-17T09:05:04Z</time>
      </trkpt>
      <trkpt lat="46.53445" lon="0.61858">
        <ele>130.35734680854</ele>
        <time>2021-11-17T09:05:07Z</time>
      </trkpt>
      <trkpt lat="46.53444" lon="0.61861">
        <ele>130.17345982045</ele>
        <time>2021-11-17T09:05:09Z</time>
      </trkpt>
      <trkpt lat="46.53444" lon="0.61865">
        <ele>130.36658535432</ele>
        <time>2021-11-17T09:05:11Z</time>
      </trkpt>
      <trkpt lat="46.53443" lon="0.61868">
        <ele>130.23725346755</ele>
        <time>2021-11-17T09:05:13Z</time>
      </trkpt>
      <trkpt lat="46.53442" lon="0.61871">
        <ele>130.7415803764</ele>
        <time>2021-11-17T09:05:15Z</time>
      </trkpt>
      <trkpt lat="46.53441" lon="0.61875">
        <ele>130.53326796181</ele>
        <time>2021-11-17T09:05:17Z</time>
      </trkpt>
      <trkpt lat="46.5344" lon="0.61879">
        <ele>130.42786322813</ele>
        <time>2021-11-17T09:05:19Z</time>
      </trkpt>
      <trkpt lat="46.53439" lon="0.61882">
        <ele>130.21635133401</ele>
        <time>2021-11-17T09:05:21Z</time>
      </trkpt>
      <trkpt lat="46.53438" lon="0.61885">
        <ele>130.37703687418</ele>
        <time>2021-11-17T09:05:23Z</time>
      </trkpt>
      <trkpt lat="46.53437" lon="0.61888">
        <ele>130.16833057255</ele>
        <time>2021-11-17T09:05:25Z</time>
      </trkpt>
      <trkpt lat="46.53436" lon="0.61892">
        <ele>130.21317645349</ele>
        <time>2021-11-17T09:05:27Z</time>
      </trkpt>
      <trkpt lat="46.53435" lon="0.61895">
        <ele>129.75794768613</ele>
        <time>2021-11-17T09:05:29Z</time>
      </trkpt>
      <trkpt lat="46.53434" lon="0.61899">
        <ele>130.22212191392</ele>
        <time>2021-11-17T09:05:32Z</time>
      </trkpt>
      <trkpt lat="46.53434" lon="0.61903">
        <ele>130.04967636149</ele>
        <time>2021-11-17T09:05:34Z</time>
      </trkpt>
      <trkpt lat="46.53434" lon="0.61906">
        <ele>129.89860669989</ele>
        <time>2021-11-17T09:05:36Z</time>
      </trkpt>
      <trkpt lat="46.53433" lon="0.61909">
        <ele>129.72403578088</ele>
        <time>2021-11-17T09:05:38Z</time>
      </trkpt>
      <trkpt lat="46.53433" lon="0.61913">
        <ele>129.71723730676</ele>
        <time>2021-11-17T09:05:41Z</time>
      </trkpt>
      <trkpt lat="46.53433" lon="0.61915">
        <ele>129.63613985293</ele>
        <time>2021-11-17T09:05:43Z</time>
      </trkpt>
      <trkpt lat="46.53435" lon="0.61918">
        <ele>129.27509978227</ele>
        <time>2021-11-17T09:05:47Z</time>
      </trkpt>
      <trkpt lat="46.53436" lon="0.61922">
        <ele>129.48905563634</ele>
        <time>2021-11-17T09:05:49Z</time>
      </trkpt>
      <trkpt lat="46.53438" lon="0.61924">
        <ele>129.68174105324</ele>
        <time>2021-11-17T09:05:51Z</time>
      </trkpt>
      <trkpt lat="46.5344" lon="0.61927">
        <ele>129.66416823119</ele>
        <time>2021-11-17T09:05:53Z</time>
      </trkpt>
      <trkpt lat="46.53442" lon="0.61929">
        <ele>129.79536685627</ele>
        <time>2021-11-17T09:05:55Z</time>
      </trkpt>
      <trkpt lat="46.53444" lon="0.6193">
        <ele>129.62129964493</ele>
        <time>2021-11-17T09:05:57Z</time>
      </trkpt>
      <trkpt lat="46.53446" lon="0.61932">
        <ele>129.48686701246</ele>
        <time>2021-11-17T09:05:59Z</time>
      </trkpt>
      <trkpt lat="46.53449" lon="0.61934">
        <ele>129.39549963176</ele>
        <time>2021-11-17T09:06:02Z</time>
      </trkpt>
      <trkpt lat="46.53451" lon="0.61936">
        <ele>129.11833364703</ele>
        <time>2021-11-17T09:06:04Z</time>
      </trkpt>
      <trkpt lat="46.53454" lon="0.61938">
        <ele>129.00691375881</ele>
        <time>2021-11-17T09:06:07Z</time>
      </trkpt>
      <trkpt lat="46.53455" lon="0.61939">
        <ele>129.49480314739</ele>
        <time>2021-11-17T09:06:09Z</time>
      </trkpt>
      <trkpt lat="46.53457" lon="0.61941">
        <ele>129.28993571922</ele>
        <time>2021-11-17T09:06:11Z</time>
      </trkpt>
      <trkpt lat="46.53459" lon="0.61943">
        <ele>129.11432711594</ele>
        <time>2021-11-17T09:06:14Z</time>
      </trkpt>
      <trkpt lat="46.53462" lon="0.61945">
        <ele>129.42721702438</ele>
        <time>2021-11-17T09:06:16Z</time>
      </trkpt>
      <trkpt lat="46.53465" lon="0.61946">
        <ele>129.22591835633</ele>
        <time>2021-11-17T09:06:19Z</time>
      </trkpt>
      <trkpt lat="46.53467" lon="0.61949">
        <ele>129.48233315069</ele>
        <time>2021-11-17T09:06:21Z</time>
      </trkpt>
      <trkpt lat="46.53468" lon="0.61951">
        <ele>129.37440776918</ele>
        <time>2021-11-17T09:06:23Z</time>
      </trkpt>
      <trkpt lat="46.53471" lon="0.61952">
        <ele>129.40416032355</ele>
        <time>2021-11-17T09:06:25Z</time>
      </trkpt>
      <trkpt lat="46.53473" lon="0.61953">
        <ele>129.24080840778</ele>
        <time>2021-11-17T09:06:27Z</time>
      </trkpt>
      <trkpt lat="46.53473" lon="0.61956">
        <ele>129.36057085078</ele>
        <time>2021-11-17T09:06:46Z</time>
      </trkpt>
      <trkpt lat="46.53472" lon="0.61954">
        <ele>129.46960029006</ele>
        <time>2021-11-17T09:07:47Z</time>
      </trkpt>
      <trkpt lat="46.53473" lon="0.61952">
        <ele>130.84981842432</ele>
        <time>2021-11-17T09:08:08Z</time>
      </trkpt>
      <trkpt lat="46.53472" lon="0.61954">
        <ele>129.32897252124</ele>
        <time>2021-11-17T09:08:43Z</time>
      </trkpt>
      <trkpt lat="46.53474" lon="0.61954">
        <ele>129.67627467588</ele>
        <time>2021-11-17T09:09:50Z</time>
      </trkpt>
      <trkpt lat="46.53476" lon="0.61957">
        <ele>129.74751721043</ele>
        <time>2021-11-17T09:09:58Z</time>
      </trkpt>
      <trkpt lat="46.53479" lon="0.61958">
        <ele>130.06026544608</ele>
        <time>2021-11-17T09:10:11Z</time>
      </trkpt>
      <trkpt lat="46.5348" lon="0.61959">
        <ele>129.61275853217</ele>
        <time>2021-11-17T09:10:14Z</time>
      </trkpt>
      <trkpt lat="46.53482" lon="0.6196">
        <ele>129.87604991812</ele>
        <time>2021-11-17T09:10:17Z</time>
      </trkpt>
      <trkpt lat="46.53484" lon="0.61962">
        <ele>129.50879953708</ele>
        <time>2021-11-17T09:10:19Z</time>
      </trkpt>
      <trkpt lat="46.53486" lon="0.61964">
        <ele>129.63109175768</ele>
        <time>2021-11-17T09:10:21Z</time>
      </trkpt>
      <trkpt lat="46.53488" lon="0.61967">
        <ele>129.90205684863</ele>
        <time>2021-11-17T09:10:25Z</time>
      </trkpt>
      <trkpt lat="46.5349" lon="0.61969">
        <ele>129.53622714803</ele>
        <time>2021-11-17T09:10:28Z</time>
      </trkpt>
      <trkpt lat="46.53491" lon="0.6197">
        <ele>129.48319006059</ele>
        <time>2021-11-17T09:10:30Z</time>
      </trkpt>
      <trkpt lat="46.53494" lon="0.61972">
        <ele>129.3257445097</ele>
        <time>2021-11-17T09:10:32Z</time>
      </trkpt>
      <trkpt lat="46.53496" lon="0.61973">
        <ele>128.99085494038</ele>
        <time>2021-11-17T09:10:34Z</time>
      </trkpt>
      <trkpt lat="46.53499" lon="0.61975">
        <ele>129.21764407866</ele>
        <time>2021-11-17T09:10:36Z</time>
      </trkpt>
      <trkpt lat="46.53502" lon="0.61977">
        <ele>129.40087782685</ele>
        <time>2021-11-17T09:10:38Z</time>
      </trkpt>
      <trkpt lat="46.53504" lon="0.6198">
        <ele>129.80889285635</ele>
        <time>2021-11-17T09:10:40Z</time>
      </trkpt>
      <trkpt lat="46.53506" lon="0.61983">
        <ele>129.72014773265</ele>
        <time>2021-11-17T09:10:42Z</time>
      </trkpt>
      <trkpt lat="46.53509" lon="0.61985">
        <ele>129.63036386762</ele>
        <time>2021-11-17T09:10:44Z</time>
      </trkpt>
      <trkpt lat="46.53511" lon="0.61988">
        <ele>130.0420203926</ele>
        <time>2021-11-17T09:10:46Z</time>
      </trkpt>
      <trkpt lat="46.53513" lon="0.61991">
        <ele>129.67269906681</ele>
        <time>2021-11-17T09:10:48Z</time>
      </trkpt>
      <trkpt lat="46.53514" lon="0.61994">
        <ele>129.98651671223</ele>
        <time>2021-11-17T09:10:50Z</time>
      </trkpt>
      <trkpt lat="46.53517" lon="0.61996">
        <ele>130.1568178609</ele>
        <time>2021-11-17T09:10:52Z</time>
      </trkpt>
      <trkpt lat="46.53519" lon="0.61998">
        <ele>129.86662254948</ele>
        <time>2021-11-17T09:10:54Z</time>
      </trkpt>
      <trkpt lat="46.53521" lon="0.62001">
        <ele>129.90316665079</ele>
        <time>2021-11-17T09:10:56Z</time>
      </trkpt>
      <trkpt lat="46.53523" lon="0.62004">
        <ele>129.84207427874</ele>
        <time>2021-11-17T09:10:58Z</time>
      </trkpt>
      <trkpt lat="46.53525" lon="0.62007">
        <ele>130.1669311868</ele>
        <time>2021-11-17T09:11:00Z</time>
      </trkpt>
      <trkpt lat="46.53527" lon="0.62009">
        <ele>130.27913224697</ele>
        <time>2021-11-17T09:11:02Z</time>
      </trkpt>
      <trkpt lat="46.53529" lon="0.62012">
        <ele>129.77621178702</ele>
        <time>2021-11-17T09:11:04Z</time>
      </trkpt>
      <trkpt lat="46.53531" lon="0.62015">
        <ele>129.96520915069</ele>
        <time>2021-11-17T09:11:06Z</time>
      </trkpt>
      <trkpt lat="46.53533" lon="0.62017">
        <ele>130.0785663994</ele>
        <time>2021-11-17T09:11:08Z</time>
      </trkpt>
      <trkpt lat="46.53535" lon="0.62019">
        <ele>130.20881230943</ele>
        <time>2021-11-17T09:11:10Z</time>
      </trkpt>
      <trkpt lat="46.53537" lon="0.62021">
        <ele>130.36921482813</ele>
        <time>2021-11-17T09:11:12Z</time>
      </trkpt>
      <trkpt lat="46.53539" lon="0.62023">
        <ele>130.30787291843</ele>
        <time>2021-11-17T09:11:13Z</time>
      </trkpt>
      <trkpt lat="46.5354" lon="0.62027">
        <ele>129.72337129433</ele>
        <time>2021-11-17T09:11:16Z</time>
      </trkpt>
      <trkpt lat="46.53542" lon="0.62029">
        <ele>129.75960993487</ele>
        <time>2021-11-17T09:11:17Z</time>
      </trkpt>
      <trkpt lat="46.53544" lon="0.62031">
        <ele>129.44119114429</ele>
        <time>2021-11-17T09:11:19Z</time>
      </trkpt>
      <trkpt lat="46.53546" lon="0.62034">
        <ele>129.57232231274</ele>
        <time>2021-11-17T09:11:21Z</time>
      </trkpt>
      <trkpt lat="46.53547" lon="0.62037">
        <ele>129.3129172381</ele>
        <time>2021-11-17T09:11:23Z</time>
      </trkpt>
      <trkpt lat="46.53549" lon="0.6204">
        <ele>128.94556541461</ele>
        <time>2021-11-17T09:11:25Z</time>
      </trkpt>
      <trkpt lat="46.53551" lon="0.62041">
        <ele>128.82480108086</ele>
        <time>2021-11-17T09:11:27Z</time>
      </trkpt>
      <trkpt lat="46.53553" lon="0.62044">
        <ele>128.43388850335</ele>
        <time>2021-11-17T09:11:29Z</time>
      </trkpt>
      <trkpt lat="46.53556" lon="0.62047">
        <ele>128.65271006338</ele>
        <time>2021-11-17T09:11:31Z</time>
      </trkpt>
      <trkpt lat="46.53557" lon="0.62049">
        <ele>128.84851122182</ele>
        <time>2021-11-17T09:11:33Z</time>
      </trkpt>
      <trkpt lat="46.53559" lon="0.62052">
        <ele>128.90683451109</ele>
        <time>2021-11-17T09:11:34Z</time>
      </trkpt>
      <trkpt lat="46.53561" lon="0.62053">
        <ele>128.40358421113</ele>
        <time>2021-11-17T09:11:36Z</time>
      </trkpt>
      <trkpt lat="46.53563" lon="0.62057">
        <ele>128.78472129162</ele>
        <time>2021-11-17T09:11:38Z</time>
      </trkpt>
      <trkpt lat="46.53565" lon="0.62059">
        <ele>128.48183372151</ele>
        <time>2021-11-17T09:11:40Z</time>
      </trkpt>
      <trkpt lat="46.53567" lon="0.62061">
        <ele>128.54048584681</ele>
        <time>2021-11-17T09:11:42Z</time>
      </trkpt>
      <trkpt lat="46.53568" lon="0.62063">
        <ele>128.36719391402</ele>
        <time>2021-11-17T09:11:43Z</time>
      </trkpt>
      <trkpt lat="46.5357" lon="0.62064">
        <ele>128.40444991738</ele>
        <time>2021-11-17T09:11:45Z</time>
      </trkpt>
      <trkpt lat="46.53573" lon="0.62067">
        <ele>128.93299732823</ele>
        <time>2021-11-17T09:11:47Z</time>
      </trkpt>
      <trkpt lat="46.53574" lon="0.6207">
        <ele>128.65692376718</ele>
        <time>2021-11-17T09:11:49Z</time>
      </trkpt>
      <trkpt lat="46.53576" lon="0.62073">
        <ele>128.2703694785</ele>
        <time>2021-11-17T09:11:51Z</time>
      </trkpt>
      <trkpt lat="46.53578" lon="0.62077">
        <ele>128.24593004584</ele>
        <time>2021-11-17T09:11:53Z</time>
      </trkpt>
      <trkpt lat="46.5358" lon="0.6208">
        <ele>128.14371462259</ele>
        <time>2021-11-17T09:11:55Z</time>
      </trkpt>
      <trkpt lat="46.53582" lon="0.62082">
        <ele>128.05618899222</ele>
        <time>2021-11-17T09:11:57Z</time>
      </trkpt>
      <trkpt lat="46.53583" lon="0.62086">
        <ele>128.14378976915</ele>
        <time>2021-11-17T09:11:59Z</time>
      </trkpt>
      <trkpt lat="46.53584" lon="0.6209">
        <ele>128.35796400905</ele>
        <time>2021-11-17T09:12:01Z</time>
      </trkpt>
      <trkpt lat="46.53585" lon="0.62094">
        <ele>128.48966801725</ele>
        <time>2021-11-17T09:12:03Z</time>
      </trkpt>
      <trkpt lat="46.53586" lon="0.62098">
        <ele>128.50330473762</ele>
        <time>2021-11-17T09:12:05Z</time>
      </trkpt>
      <trkpt lat="46.53587" lon="0.62101">
        <ele>127.91240563896</ele>
        <time>2021-11-17T09:12:07Z</time>
      </trkpt>
      <trkpt lat="46.53588" lon="0.62105">
        <ele>127.97489728872</ele>
        <time>2021-11-17T09:12:09Z</time>
      </trkpt>
      <trkpt lat="46.53588" lon="0.6211">
        <ele>127.84384472948</ele>
        <time>2021-11-17T09:12:11Z</time>
      </trkpt>
      <trkpt lat="46.53589" lon="0.62113">
        <ele>128.02651606034</ele>
        <time>2021-11-17T09:12:13Z</time>
      </trkpt>
      <trkpt lat="46.53589" lon="0.62117">
        <ele>127.99427299295</ele>
        <time>2021-11-17T09:12:15Z</time>
      </trkpt>
      <trkpt lat="46.5359" lon="0.62121">
        <ele>127.96788259782</ele>
        <time>2021-11-17T09:12:17Z</time>
      </trkpt>
      <trkpt lat="46.53589" lon="0.62125">
        <ele>127.60874310415</ele>
        <time>2021-11-17T09:12:19Z</time>
      </trkpt>
      <trkpt lat="46.53589" lon="0.62129">
        <ele>127.17661598977</ele>
        <time>2021-11-17T09:12:21Z</time>
      </trkpt>
      <trkpt lat="46.53589" lon="0.62132">
        <ele>126.91934082191</ele>
        <time>2021-11-17T09:12:23Z</time>
      </trkpt>
      <trkpt lat="46.5359" lon="0.62136">
        <ele>127.07771596778</ele>
        <time>2021-11-17T09:12:25Z</time>
      </trkpt>
      <trkpt lat="46.5359" lon="0.6214">
        <ele>126.88257532287</ele>
        <time>2021-11-17T09:12:27Z</time>
      </trkpt>
      <trkpt lat="46.53591" lon="0.62144">
        <ele>126.98097071052</ele>
        <time>2021-11-17T09:12:29Z</time>
      </trkpt>
      <trkpt lat="46.53591" lon="0.62146">
        <ele>127.13107962348</ele>
        <time>2021-11-17T09:12:30Z</time>
      </trkpt>
      <trkpt lat="46.53592" lon="0.62149">
        <ele>126.74813735113</ele>
        <time>2021-11-17T09:12:32Z</time>
      </trkpt>
      <trkpt lat="46.53592" lon="0.62154">
        <ele>126.86570458487</ele>
        <time>2021-11-17T09:12:34Z</time>
      </trkpt>
      <trkpt lat="46.53592" lon="0.62158">
        <ele>126.81849830691</ele>
        <time>2021-11-17T09:12:36Z</time>
      </trkpt>
      <trkpt lat="46.53592" lon="0.62161">
        <ele>126.74468633812</ele>
        <time>2021-11-17T09:12:38Z</time>
      </trkpt>
      <trkpt lat="46.53593" lon="0.62164">
        <ele>126.29070809018</ele>
        <time>2021-11-17T09:12:40Z</time>
      </trkpt>
      <trkpt lat="46.53593" lon="0.62169">
        <ele>126.6876731338</ele>
        <time>2021-11-17T09:12:42Z</time>
      </trkpt>
      <trkpt lat="46.53594" lon="0.62173">
        <ele>126.15295666829</ele>
        <time>2021-11-17T09:12:44Z</time>
      </trkpt>
      <trkpt lat="46.53594" lon="0.62176">
        <ele>126.0083249677</ele>
        <time>2021-11-17T09:12:46Z</time>
      </trkpt>
      <trkpt lat="46.53594" lon="0.6218">
        <ele>126.13632559683</ele>
        <time>2021-11-17T09:12:48Z</time>
      </trkpt>
      <trkpt lat="46.53595" lon="0.62184">
        <ele>125.99273259006</ele>
        <time>2021-11-17T09:12:50Z</time>
      </trkpt>
      <trkpt lat="46.53595" lon="0.62188">
        <ele>125.83546656743</ele>
        <time>2021-11-17T09:12:52Z</time>
      </trkpt>
      <trkpt lat="46.53596" lon="0.62193">
        <ele>125.32282111049</ele>
        <time>2021-11-17T09:12:55Z</time>
      </trkpt>
      <trkpt lat="46.53596" lon="0.62197">
        <ele>125.20991422888</ele>
        <time>2021-11-17T09:12:58Z</time>
      </trkpt>
      <trkpt lat="46.53596" lon="0.622">
        <ele>125.01749983244</ele>
        <time>2021-11-17T09:13:00Z</time>
      </trkpt>
      <trkpt lat="46.53596" lon="0.62204">
        <ele>124.90791239031</ele>
        <time>2021-11-17T09:13:02Z</time>
      </trkpt>
      <trkpt lat="46.53597" lon="0.62207">
        <ele>124.82719640899</ele>
        <time>2021-11-17T09:13:04Z</time>
      </trkpt>
      <trkpt lat="46.53597" lon="0.62211">
        <ele>124.93330000527</ele>
        <time>2021-11-17T09:13:06Z</time>
      </trkpt>
      <trkpt lat="46.53597" lon="0.62216">
        <ele>124.66017621197</ele>
        <time>2021-11-17T09:13:08Z</time>
      </trkpt>
      <trkpt lat="46.53597" lon="0.62219">
        <ele>124.53878578357</ele>
        <time>2021-11-17T09:13:10Z</time>
      </trkpt>
      <trkpt lat="46.53598" lon="0.62224">
        <ele>124.43430341594</ele>
        <time>2021-11-17T09:13:12Z</time>
      </trkpt>
      <trkpt lat="46.53598" lon="0.62228">
        <ele>124.30151380226</ele>
        <time>2021-11-17T09:13:14Z</time>
      </trkpt>
      <trkpt lat="46.53599" lon="0.62232">
        <ele>124.16943674069</ele>
        <time>2021-11-17T09:13:16Z</time>
      </trkpt>
      <trkpt lat="46.53599" lon="0.62236">
        <ele>123.64217123389</ele>
        <time>2021-11-17T09:13:18Z</time>
      </trkpt>
      <trkpt lat="46.53599" lon="0.6224">
        <ele>123.4878700478</ele>
        <time>2021-11-17T09:13:20Z</time>
      </trkpt>
      <trkpt lat="46.536" lon="0.62243">
        <ele>123.74929259531</ele>
        <time>2021-11-17T09:13:21Z</time>
      </trkpt>
      <trkpt lat="46.536" lon="0.62246">
        <ele>123.34453019686</ele>
        <time>2021-11-17T09:13:23Z</time>
      </trkpt>
      <trkpt lat="46.536" lon="0.62251">
        <ele>123.19437758159</ele>
        <time>2021-11-17T09:13:25Z</time>
      </trkpt>
      <trkpt lat="46.53601" lon="0.62255">
        <ele>122.83169011213</ele>
        <time>2021-11-17T09:13:27Z</time>
      </trkpt>
      <trkpt lat="46.53601" lon="0.62258">
        <ele>123.10744456295</ele>
        <time>2021-11-17T09:13:29Z</time>
      </trkpt>
      <trkpt lat="46.53602" lon="0.62263">
        <ele>123.04994033277</ele>
        <time>2021-11-17T09:13:31Z</time>
      </trkpt>
      <trkpt lat="46.53602" lon="0.62266">
        <ele>123.20697324909</ele>
        <time>2021-11-17T09:13:33Z</time>
      </trkpt>
      <trkpt lat="46.53602" lon="0.6227">
        <ele>123.35976773407</ele>
        <time>2021-11-17T09:13:35Z</time>
      </trkpt>
      <trkpt lat="46.53603" lon="0.62274">
        <ele>123.51404229738</ele>
        <time>2021-11-17T09:13:37Z</time>
      </trkpt>
      <trkpt lat="46.53603" lon="0.62277">
        <ele>123.33334604278</ele>
        <time>2021-11-17T09:13:39Z</time>
      </trkpt>
      <trkpt lat="46.53604" lon="0.62281">
        <ele>123.01622011978</ele>
        <time>2021-11-17T09:13:41Z</time>
      </trkpt>
      <trkpt lat="46.53604" lon="0.62285">
        <ele>123.31382825784</ele>
        <time>2021-11-17T09:13:43Z</time>
      </trkpt>
      <trkpt lat="46.53605" lon="0.62288">
        <ele>123.272202502</ele>
        <time>2021-11-17T09:13:44Z</time>
      </trkpt>
      <trkpt lat="46.53605" lon="0.62291">
        <ele>123.19270096626</ele>
        <time>2021-11-17T09:13:46Z</time>
      </trkpt>
      <trkpt lat="46.53605" lon="0.62296">
        <ele>123.23185165878</ele>
        <time>2021-11-17T09:13:48Z</time>
      </trkpt>
      <trkpt lat="46.53605" lon="0.62299">
        <ele>122.86981171556</ele>
        <time>2021-11-17T09:13:50Z</time>
      </trkpt>
      <trkpt lat="46.53606" lon="0.62301">
        <ele>122.93561561033</ele>
        <time>2021-11-17T09:13:51Z</time>
      </trkpt>
      <trkpt lat="46.53607" lon="0.62304">
        <ele>122.60032269545</ele>
        <time>2021-11-17T09:13:53Z</time>
      </trkpt>
      <trkpt lat="46.53608" lon="0.62309">
        <ele>122.79110683408</ele>
        <time>2021-11-17T09:13:55Z</time>
      </trkpt>
      <trkpt lat="46.53609" lon="0.62312">
        <ele>122.88250319753</ele>
        <time>2021-11-17T09:13:57Z</time>
      </trkpt>
      <trkpt lat="46.53609" lon="0.62317">
        <ele>122.70829120651</ele>
        <time>2021-11-17T09:13:59Z</time>
      </trkpt>
      <trkpt lat="46.5361" lon="0.62321">
        <ele>122.43306601699</ele>
        <time>2021-11-17T09:14:01Z</time>
      </trkpt>
      <trkpt lat="46.53611" lon="0.62324">
        <ele>122.45584006794</ele>
        <time>2021-11-17T09:14:03Z</time>
      </trkpt>
      <trkpt lat="46.53611" lon="0.62328">
        <ele>122.45072895568</ele>
        <time>2021-11-17T09:14:05Z</time>
      </trkpt>
      <trkpt lat="46.53612" lon="0.62332">
        <ele>122.42315427307</ele>
        <time>2021-11-17T09:14:07Z</time>
      </trkpt>
      <trkpt lat="46.53613" lon="0.62336">
        <ele>122.44323687442</ele>
        <time>2021-11-17T09:14:09Z</time>
      </trkpt>
      <trkpt lat="46.53614" lon="0.6234">
        <ele>122.20349794906</ele>
        <time>2021-11-17T09:14:11Z</time>
      </trkpt>
      <trkpt lat="46.53614" lon="0.62343">
        <ele>122.05209952872</ele>
        <time>2021-11-17T09:14:13Z</time>
      </trkpt>
      <trkpt lat="46.53615" lon="0.62347">
        <ele>121.8292523101</ele>
        <time>2021-11-17T09:14:15Z</time>
      </trkpt>
      <trkpt lat="46.53616" lon="0.62351">
        <ele>121.69231866486</ele>
        <time>2021-11-17T09:14:17Z</time>
      </trkpt>
      <trkpt lat="46.53617" lon="0.62354">
        <ele>122.12206846103</ele>
        <time>2021-11-17T09:14:19Z</time>
      </trkpt>
      <trkpt lat="46.53617" lon="0.62359">
        <ele>121.95964733977</ele>
        <time>2021-11-17T09:14:21Z</time>
      </trkpt>
      <trkpt lat="46.53618" lon="0.62362">
        <ele>121.69645833969</ele>
        <time>2021-11-17T09:14:23Z</time>
      </trkpt>
      <trkpt lat="46.53618" lon="0.62366">
        <ele>121.56389491539</ele>
        <time>2021-11-17T09:14:25Z</time>
      </trkpt>
      <trkpt lat="46.53619" lon="0.6237">
        <ele>121.4670461053</ele>
        <time>2021-11-17T09:14:27Z</time>
      </trkpt>
      <trkpt lat="46.53619" lon="0.62373">
        <ele>121.31461454183</ele>
        <time>2021-11-17T09:14:29Z</time>
      </trkpt>
      <trkpt lat="46.5362" lon="0.62377">
        <ele>121.05720103718</ele>
        <time>2021-11-17T09:14:31Z</time>
      </trkpt>
      <trkpt lat="46.53621" lon="0.62381">
        <ele>121.28561295196</ele>
        <time>2021-11-17T09:14:33Z</time>
      </trkpt>
      <trkpt lat="46.53622" lon="0.62386">
        <ele>121.24603335746</ele>
        <time>2021-11-17T09:14:35Z</time>
      </trkpt>
      <trkpt lat="46.53623" lon="0.62389">
        <ele>120.85961784143</ele>
        <time>2021-11-17T09:14:37Z</time>
      </trkpt>
      <trkpt lat="46.53624" lon="0.62393">
        <ele>120.6201880984</ele>
        <time>2021-11-17T09:14:39Z</time>
      </trkpt>
      <trkpt lat="46.53625" lon="0.62397">
        <ele>120.78728771023</ele>
        <time>2021-11-17T09:14:41Z</time>
      </trkpt>
      <trkpt lat="46.53626" lon="0.624">
        <ele>120.81071450934</ele>
        <time>2021-11-17T09:14:43Z</time>
      </trkpt>
      <trkpt lat="46.53626" lon="0.62404">
        <ele>121.06882218737</ele>
        <time>2021-11-17T09:14:45Z</time>
      </trkpt>
      <trkpt lat="46.53628" lon="0.62408">
        <ele>120.7850707937</ele>
        <time>2021-11-17T09:14:47Z</time>
      </trkpt>
      <trkpt lat="46.53629" lon="0.62412">
        <ele>120.56282853894</ele>
        <time>2021-11-17T09:14:49Z</time>
      </trkpt>
      <trkpt lat="46.5363" lon="0.62416">
        <ele>120.32669362333</ele>
        <time>2021-11-17T09:14:51Z</time>
      </trkpt>
      <trkpt lat="46.53631" lon="0.62419">
        <ele>120.1662093997</ele>
        <time>2021-11-17T09:14:53Z</time>
      </trkpt>
      <trkpt lat="46.53632" lon="0.62423">
        <ele>120.25473586004</ele>
        <time>2021-11-17T09:14:55Z</time>
      </trkpt>
      <trkpt lat="46.53633" lon="0.62427">
        <ele>119.79834720585</ele>
        <time>2021-11-17T09:14:57Z</time>
      </trkpt>
      <trkpt lat="46.53634" lon="0.62431">
        <ele>119.85727162194</ele>
        <time>2021-11-17T09:14:59Z</time>
      </trkpt>
      <trkpt lat="46.53635" lon="0.62433">
        <ele>119.75302956533</ele>
        <time>2021-11-17T09:15:00Z</time>
      </trkpt>
      <trkpt lat="46.53635" lon="0.62436">
        <ele>119.37575152982</ele>
        <time>2021-11-17T09:15:02Z</time>
      </trkpt>
      <trkpt lat="46.53637" lon="0.62439">
        <ele>119.26448974852</ele>
        <time>2021-11-17T09:15:04Z</time>
      </trkpt>
      <trkpt lat="46.53637" lon="0.62442">
        <ele>119.0547632426</ele>
        <time>2021-11-17T09:15:06Z</time>
      </trkpt>
      <trkpt lat="46.53639" lon="0.62447">
        <ele>119.13159779739</ele>
        <time>2021-11-17T09:15:08Z</time>
      </trkpt>
      <trkpt lat="46.53639" lon="0.62449">
        <ele>119.12891465053</ele>
        <time>2021-11-17T09:15:09Z</time>
      </trkpt>
      <trkpt lat="46.53641" lon="0.62452">
        <ele>118.86009401735</ele>
        <time>2021-11-17T09:15:11Z</time>
      </trkpt>
      <trkpt lat="46.53642" lon="0.62456">
        <ele>118.72672219668</ele>
        <time>2021-11-17T09:15:13Z</time>
      </trkpt>
      <trkpt lat="46.53642" lon="0.6246">
        <ele>118.16988015547</ele>
        <time>2021-11-17T09:15:15Z</time>
      </trkpt>
      <trkpt lat="46.53643" lon="0.62464">
        <ele>118.56886625849</ele>
        <time>2021-11-17T09:15:17Z</time>
      </trkpt>
      <trkpt lat="46.53644" lon="0.62468">
        <ele>117.59994086251</ele>
        <time>2021-11-17T09:15:19Z</time>
      </trkpt>
      <trkpt lat="46.53645" lon="0.62472">
        <ele>116.92039655335</ele>
        <time>2021-11-17T09:15:21Z</time>
      </trkpt>
      <trkpt lat="46.53646" lon="0.62477">
        <ele>116.83945411816</ele>
        <time>2021-11-17T09:15:23Z</time>
      </trkpt>
      <trkpt lat="46.53647" lon="0.6248">
        <ele>116.36281567439</ele>
        <time>2021-11-17T09:15:25Z</time>
      </trkpt>
      <trkpt lat="46.53648" lon="0.62483">
        <ele>116.09616958816</ele>
        <time>2021-11-17T09:15:27Z</time>
      </trkpt>
      <trkpt lat="46.53649" lon="0.62487">
        <ele>115.5687227603</ele>
        <time>2021-11-17T09:15:29Z</time>
      </trkpt>
      <trkpt lat="46.5365" lon="0.62491">
        <ele>115.16636478156</ele>
        <time>2021-11-17T09:15:31Z</time>
      </trkpt>
      <trkpt lat="46.5365" lon="0.62494">
        <ele>114.6733622402</ele>
        <time>2021-11-17T09:15:33Z</time>
      </trkpt>
      <trkpt lat="46.53652" lon="0.62498">
        <ele>114.19401000813</ele>
        <time>2021-11-17T09:15:35Z</time>
      </trkpt>
      <trkpt lat="46.53653" lon="0.62501">
        <ele>114.10883180425</ele>
        <time>2021-11-17T09:15:37Z</time>
      </trkpt>
      <trkpt lat="46.53654" lon="0.62504">
        <ele>113.67226717807</ele>
        <time>2021-11-17T09:15:39Z</time>
      </trkpt>
      <trkpt lat="46.53655" lon="0.62508">
        <ele>113.30557197891</ele>
        <time>2021-11-17T09:15:41Z</time>
      </trkpt>
      <trkpt lat="46.53656" lon="0.62511">
        <ele>112.72037051152</ele>
        <time>2021-11-17T09:15:43Z</time>
      </trkpt>
      <trkpt lat="46.53657" lon="0.62515">
        <ele>112.56815766916</ele>
        <time>2021-11-17T09:15:45Z</time>
      </trkpt>
      <trkpt lat="46.53658" lon="0.62518">
        <ele>112.47645153478</ele>
        <time>2021-11-17T09:15:47Z</time>
      </trkpt>
      <trkpt lat="46.53658" lon="0.62522">
        <ele>112.07939681504</ele>
        <time>2021-11-17T09:15:49Z</time>
      </trkpt>
      <trkpt lat="46.53659" lon="0.62526">
        <ele>111.679540799</ele>
        <time>2021-11-17T09:15:51Z</time>
      </trkpt>
      <trkpt lat="46.5366" lon="0.62528">
        <ele>111.65972554218</ele>
        <time>2021-11-17T09:15:53Z</time>
      </trkpt>
      <trkpt lat="46.53662" lon="0.62532">
        <ele>111.33786875103</ele>
        <time>2021-11-17T09:15:55Z</time>
      </trkpt>
      <trkpt lat="46.53663" lon="0.62535">
        <ele>111.24966495577</ele>
        <time>2021-11-17T09:15:57Z</time>
      </trkpt>
      <trkpt lat="46.53664" lon="0.62538">
        <ele>110.96468954254</ele>
        <time>2021-11-17T09:15:59Z</time>
      </trkpt>
      <trkpt lat="46.53665" lon="0.62542">
        <ele>110.65785827115</ele>
        <time>2021-11-17T09:16:01Z</time>
      </trkpt>
      <trkpt lat="46.53666" lon="0.62545">
        <ele>110.37080880068</ele>
        <time>2021-11-17T09:16:03Z</time>
      </trkpt>
      <trkpt lat="46.53667" lon="0.62548">
        <ele>109.96651455574</ele>
        <time>2021-11-17T09:16:05Z</time>
      </trkpt>
      <trkpt lat="46.53668" lon="0.62552">
        <ele>109.65899473056</ele>
        <time>2021-11-17T09:16:07Z</time>
      </trkpt>
      <trkpt lat="46.53669" lon="0.62555">
        <ele>109.46462333202</ele>
        <time>2021-11-17T09:16:09Z</time>
      </trkpt>
      <trkpt lat="46.5367" lon="0.62559">
        <ele>109.16237763967</ele>
        <time>2021-11-17T09:16:11Z</time>
      </trkpt>
      <trkpt lat="46.53671" lon="0.62563">
        <ele>109.02638162021</ele>
        <time>2021-11-17T09:16:13Z</time>
      </trkpt>
      <trkpt lat="46.53672" lon="0.62566">
        <ele>108.83619860373</ele>
        <time>2021-11-17T09:16:15Z</time>
      </trkpt>
      <trkpt lat="46.53673" lon="0.6257">
        <ele>108.5666179508</ele>
        <time>2021-11-17T09:16:17Z</time>
      </trkpt>
      <trkpt lat="46.53674" lon="0.62573">
        <ele>108.29898749385</ele>
        <time>2021-11-17T09:16:19Z</time>
      </trkpt>
      <trkpt lat="46.53675" lon="0.62577">
        <ele>108.13170241565</ele>
        <time>2021-11-17T09:16:21Z</time>
      </trkpt>
      <trkpt lat="46.53676" lon="0.6258">
        <ele>108.01808360964</ele>
        <time>2021-11-17T09:16:23Z</time>
      </trkpt>
      <trkpt lat="46.53678" lon="0.62583">
        <ele>107.59087087121</ele>
        <time>2021-11-17T09:16:25Z</time>
      </trkpt>
      <trkpt lat="46.53679" lon="0.62587">
        <ele>107.63842074387</ele>
        <time>2021-11-17T09:16:27Z</time>
      </trkpt>
      <trkpt lat="46.5368" lon="0.6259">
        <ele>107.35751365498</ele>
        <time>2021-11-17T09:16:29Z</time>
      </trkpt>
      <trkpt lat="46.53681" lon="0.62594">
        <ele>107.28155290056</ele>
        <time>2021-11-17T09:16:31Z</time>
      </trkpt>
      <trkpt lat="46.53682" lon="0.62597">
        <ele>107.49747895729</ele>
        <time>2021-11-17T09:16:33Z</time>
      </trkpt>
      <trkpt lat="46.53683" lon="0.626">
        <ele>106.99440151732</ele>
        <time>2021-11-17T09:16:35Z</time>
      </trkpt>
      <trkpt lat="46.53684" lon="0.62604">
        <ele>106.94034455623</ele>
        <time>2021-11-17T09:16:37Z</time>
      </trkpt>
      <trkpt lat="46.53684" lon="0.62607">
        <ele>107.56367237121</ele>
        <time>2021-11-17T09:16:39Z</time>
      </trkpt>
      <trkpt lat="46.53686" lon="0.62609">
        <ele>107.1737731155</ele>
        <time>2021-11-17T09:16:41Z</time>
      </trkpt>
      <trkpt lat="46.53688" lon="0.6261">
        <ele>107.89527274854</ele>
        <time>2021-11-17T09:16:43Z</time>
      </trkpt>
      <trkpt lat="46.53691" lon="0.62611">
        <ele>108.0075098807</ele>
        <time>2021-11-17T09:16:45Z</time>
      </trkpt>
      <trkpt lat="46.53692" lon="0.62609">
        <ele>108.33425690979</ele>
        <time>2021-11-17T09:16:47Z</time>
      </trkpt>
      <trkpt lat="46.53694" lon="0.62608">
        <ele>108.370943252</ele>
        <time>2021-11-17T09:16:49Z</time>
      </trkpt>
      <trkpt lat="46.53696" lon="0.62607">
        <ele>108.70191339217</ele>
        <time>2021-11-17T09:16:51Z</time>
      </trkpt>
      <trkpt lat="46.53698" lon="0.62605">
        <ele>108.83551901858</ele>
        <time>2021-11-17T09:16:53Z</time>
      </trkpt>
      <trkpt lat="46.53699" lon="0.62602">
        <ele>108.91094992962</ele>
        <time>2021-11-17T09:16:55Z</time>
      </trkpt>
      <trkpt lat="46.53701" lon="0.626">
        <ele>108.8029089896</ele>
        <time>2021-11-17T09:16:57Z</time>
      </trkpt>
      <trkpt lat="46.53703" lon="0.62599">
        <ele>108.89182857983</ele>
        <time>2021-11-17T09:16:59Z</time>
      </trkpt>
      <trkpt lat="46.53705" lon="0.62597">
        <ele>108.85194043256</ele>
        <time>2021-11-17T09:17:01Z</time>
      </trkpt>
      <trkpt lat="46.53708" lon="0.62594">
        <ele>109.0159177212</ele>
        <time>2021-11-17T09:17:03Z</time>
      </trkpt>
      <trkpt lat="46.5371" lon="0.62592">
        <ele>108.90813281853</ele>
        <time>2021-11-17T09:17:05Z</time>
      </trkpt>
      <trkpt lat="46.53712" lon="0.62589">
        <ele>108.88931792043</ele>
        <time>2021-11-17T09:17:07Z</time>
      </trkpt>
      <trkpt lat="46.53714" lon="0.62587">
        <ele>108.78266663104</ele>
        <time>2021-11-17T09:17:09Z</time>
      </trkpt>
      <trkpt lat="46.53716" lon="0.62585">
        <ele>109.12691824697</ele>
        <time>2021-11-17T09:17:11Z</time>
      </trkpt>
      <trkpt lat="46.53718" lon="0.62583">
        <ele>109.29052164219</ele>
        <time>2021-11-17T09:17:15Z</time>
      </trkpt>
      <trkpt lat="46.53719" lon="0.62581">
        <ele>109.40782354027</ele>
        <time>2021-11-17T09:17:17Z</time>
      </trkpt>
      <trkpt lat="46.53721" lon="0.62579">
        <ele>109.56256504823</ele>
        <time>2021-11-17T09:17:19Z</time>
      </trkpt>
      <trkpt lat="46.53723" lon="0.62577">
        <ele>109.19555738755</ele>
        <time>2021-11-17T09:17:21Z</time>
      </trkpt>
      <trkpt lat="46.53725" lon="0.62575">
        <ele>109.16625742149</ele>
        <time>2021-11-17T09:17:23Z</time>
      </trkpt>
      <trkpt lat="46.53727" lon="0.62573">
        <ele>109.14073381852</ele>
        <time>2021-11-17T09:17:25Z</time>
      </trkpt>
      <trkpt lat="46.53729" lon="0.62571">
        <ele>109.48968038149</ele>
        <time>2021-11-17T09:17:27Z</time>
      </trkpt>
      <trkpt lat="46.53731" lon="0.62569">
        <ele>109.38873257022</ele>
        <time>2021-11-17T09:17:29Z</time>
      </trkpt>
      <trkpt lat="46.53733" lon="0.62566">
        <ele>109.83884253912</ele>
        <time>2021-11-17T09:17:31Z</time>
      </trkpt>
      <trkpt lat="46.53735" lon="0.62564">
        <ele>109.63230438344</ele>
        <time>2021-11-17T09:17:33Z</time>
      </trkpt>
      <trkpt lat="46.53737" lon="0.62562">
        <ele>109.74707929138</ele>
        <time>2021-11-17T09:17:35Z</time>
      </trkpt>
      <trkpt lat="46.53739" lon="0.6256">
        <ele>109.75666280463</ele>
        <time>2021-11-17T09:17:37Z</time>
      </trkpt>
      <trkpt lat="46.53742" lon="0.62558">
        <ele>109.53426914196</ele>
        <time>2021-11-17T09:17:39Z</time>
      </trkpt>
      <trkpt lat="46.53745" lon="0.62557">
        <ele>109.5053974716</ele>
        <time>2021-11-17T09:17:41Z</time>
      </trkpt>
      <trkpt lat="46.53747" lon="0.62555">
        <ele>109.62034573592</ele>
        <time>2021-11-17T09:17:43Z</time>
      </trkpt>
      <trkpt lat="46.5375" lon="0.62553">
        <ele>109.45440320391</ele>
        <time>2021-11-17T09:17:45Z</time>
      </trkpt>
      <trkpt lat="46.53751" lon="0.62552">
        <ele>109.54491076991</ele>
        <time>2021-11-17T09:17:46Z</time>
      </trkpt>
      <trkpt lat="46.53754" lon="0.62551">
        <ele>109.6945874067</ele>
        <time>2021-11-17T09:17:49Z</time>
      </trkpt>
      <trkpt lat="46.53756" lon="0.62549">
        <ele>109.41303022765</ele>
        <time>2021-11-17T09:17:51Z</time>
      </trkpt>
      <trkpt lat="46.53758" lon="0.62547">
        <ele>109.61525569297</ele>
        <time>2021-11-17T09:17:53Z</time>
      </trkpt>
      <trkpt lat="46.53762" lon="0.62546">
        <ele>109.74124362227</ele>
        <time>2021-11-17T09:17:55Z</time>
      </trkpt>
      <trkpt lat="46.53764" lon="0.62545">
        <ele>109.32470775023</ele>
        <time>2021-11-17T09:17:57Z</time>
      </trkpt>
      <trkpt lat="46.53766" lon="0.62543">
        <ele>109.58320732415</ele>
        <time>2021-11-17T09:17:59Z</time>
      </trkpt>
      <trkpt lat="46.53769" lon="0.62541">
        <ele>109.45830880105</ele>
        <time>2021-11-17T09:18:01Z</time>
      </trkpt>
      <trkpt lat="46.53771" lon="0.6254">
        <ele>109.56765063852</ele>
        <time>2021-11-17T09:18:03Z</time>
      </trkpt>
      <trkpt lat="46.53774" lon="0.62538">
        <ele>109.50679482706</ele>
        <time>2021-11-17T09:18:05Z</time>
      </trkpt>
      <trkpt lat="46.53775" lon="0.62536">
        <ele>109.50213596132</ele>
        <time>2021-11-17T09:18:07Z</time>
      </trkpt>
      <trkpt lat="46.53778" lon="0.62535">
        <ele>109.4546919018</ele>
        <time>2021-11-17T09:18:09Z</time>
      </trkpt>
      <trkpt lat="46.5378" lon="0.62533">
        <ele>109.66484067682</ele>
        <time>2021-11-17T09:18:11Z</time>
      </trkpt>
      <trkpt lat="46.53782" lon="0.62531">
        <ele>109.47049933579</ele>
        <time>2021-11-17T09:18:13Z</time>
      </trkpt>
      <trkpt lat="46.53785" lon="0.6253">
        <ele>109.29744390585</ele>
        <time>2021-11-17T09:18:15Z</time>
      </trkpt>
      <trkpt lat="46.53787" lon="0.62529">
        <ele>109.43755737599</ele>
        <time>2021-11-17T09:18:17Z</time>
      </trkpt>
      <trkpt lat="46.5379" lon="0.62528">
        <ele>109.70553492196</ele>
        <time>2021-11-17T09:18:19Z</time>
      </trkpt>
      <trkpt lat="46.53791" lon="0.62526">
        <ele>109.86896058172</ele>
        <time>2021-11-17T09:18:21Z</time>
      </trkpt>
      <trkpt lat="46.53793" lon="0.62525">
        <ele>110.04968645796</ele>
        <time>2021-11-17T09:18:23Z</time>
      </trkpt>
      <trkpt lat="46.53796" lon="0.62523">
        <ele>110.00896036811</ele>
        <time>2021-11-17T09:18:25Z</time>
      </trkpt>
      <trkpt lat="46.53798" lon="0.62521">
        <ele>110.3143532807</ele>
        <time>2021-11-17T09:18:27Z</time>
      </trkpt>
      <trkpt lat="46.538" lon="0.6252">
        <ele>110.73226354271</ele>
        <time>2021-11-17T09:18:29Z</time>
      </trkpt>
      <trkpt lat="46.53802" lon="0.62517">
        <ele>110.88648650609</ele>
        <time>2021-11-17T09:18:31Z</time>
      </trkpt>
      <trkpt lat="46.53804" lon="0.62516">
        <ele>111.1410418814</ele>
        <time>2021-11-17T09:18:33Z</time>
      </trkpt>
      <trkpt lat="46.53806" lon="0.62514">
        <ele>111.2113766158</ele>
        <time>2021-11-17T09:18:35Z</time>
      </trkpt>
      <trkpt lat="46.53808" lon="0.62513">
        <ele>111.40606695972</ele>
        <time>2021-11-17T09:18:37Z</time>
      </trkpt>
      <trkpt lat="46.5381" lon="0.6251">
        <ele>111.75840965752</ele>
        <time>2021-11-17T09:18:39Z</time>
      </trkpt>
      <trkpt lat="46.53812" lon="0.62509">
        <ele>112.02012209035</ele>
        <time>2021-11-17T09:18:41Z</time>
      </trkpt>
      <trkpt lat="46.53814" lon="0.62507">
        <ele>112.11642632633</ele>
        <time>2021-11-17T09:18:43Z</time>
      </trkpt>
      <trkpt lat="46.53816" lon="0.62505">
        <ele>112.4253429547</ele>
        <time>2021-11-17T09:18:45Z</time>
      </trkpt>
      <trkpt lat="46.53818" lon="0.62503">
        <ele>112.84492706973</ele>
        <time>2021-11-17T09:18:47Z</time>
      </trkpt>
      <trkpt lat="46.53819" lon="0.62501">
        <ele>113.14492729306</ele>
        <time>2021-11-17T09:18:49Z</time>
      </trkpt>
      <trkpt lat="46.53821" lon="0.62499">
        <ele>113.5687399311</ele>
        <time>2021-11-17T09:18:51Z</time>
      </trkpt>
      <trkpt lat="46.53823" lon="0.62497">
        <ele>113.77840473969</ele>
        <time>2021-11-17T09:18:53Z</time>
      </trkpt>
      <trkpt lat="46.53824" lon="0.62495">
        <ele>113.92851341702</ele>
        <time>2021-11-17T09:18:55Z</time>
      </trkpt>
      <trkpt lat="46.53825" lon="0.62493">
        <ele>114.38864031341</ele>
        <time>2021-11-17T09:18:57Z</time>
      </trkpt>
      <trkpt lat="46.53826" lon="0.6249">
        <ele>114.77673194651</ele>
        <time>2021-11-17T09:19:00Z</time>
      </trkpt>
      <trkpt lat="46.53828" lon="0.62487">
        <ele>115.47889491729</ele>
        <time>2021-11-17T09:19:03Z</time>
      </trkpt>
      <trkpt lat="46.53829" lon="0.62486">
        <ele>115.46940256935</ele>
        <time>2021-11-17T09:19:05Z</time>
      </trkpt>
      <trkpt lat="46.53832" lon="0.62483">
        <ele>115.94436736405</ele>
        <time>2021-11-17T09:19:08Z</time>
      </trkpt>
      <trkpt lat="46.53833" lon="0.62482">
        <ele>116.1525029866</ele>
        <time>2021-11-17T09:19:10Z</time>
      </trkpt>
      <trkpt lat="46.53835" lon="0.62481">
        <ele>116.55952905957</ele>
        <time>2021-11-17T09:19:12Z</time>
      </trkpt>
      <trkpt lat="46.53837" lon="0.6248">
        <ele>116.57341025304</ele>
        <time>2021-11-17T09:19:14Z</time>
      </trkpt>
      <trkpt lat="46.53838" lon="0.62477">
        <ele>117.28595834877</ele>
        <time>2021-11-17T09:19:17Z</time>
      </trkpt>
      <trkpt lat="46.5384" lon="0.62475">
        <ele>117.63220841717</ele>
        <time>2021-11-17T09:19:19Z</time>
      </trkpt>
      <trkpt lat="46.53842" lon="0.62474">
        <ele>117.41240561754</ele>
        <time>2021-11-17T09:19:21Z</time>
      </trkpt>
      <trkpt lat="46.53844" lon="0.62472">
        <ele>117.65872501303</ele>
        <time>2021-11-17T09:19:24Z</time>
      </trkpt>
      <trkpt lat="46.53847" lon="0.6247">
        <ele>118.12260224484</ele>
        <time>2021-11-17T09:19:27Z</time>
      </trkpt>
      <trkpt lat="46.53849" lon="0.62468">
        <ele>118.35389189329</ele>
        <time>2021-11-17T09:19:29Z</time>
      </trkpt>
      <trkpt lat="46.53851" lon="0.62465">
        <ele>118.59029489104</ele>
        <time>2021-11-17T09:19:32Z</time>
      </trkpt>
      <trkpt lat="46.53852" lon="0.62463">
        <ele>118.83647197857</ele>
        <time>2021-11-17T09:19:34Z</time>
      </trkpt>
      <trkpt lat="46.53854" lon="0.62462">
        <ele>119.04350937624</ele>
        <time>2021-11-17T09:19:36Z</time>
      </trkpt>
      <trkpt lat="46.53856" lon="0.6246">
        <ele>119.59236266278</ele>
        <time>2021-11-17T09:19:38Z</time>
      </trkpt>
      <trkpt lat="46.53857" lon="0.62458">
        <ele>119.94881186634</ele>
        <time>2021-11-17T09:19:41Z</time>
      </trkpt>
      <trkpt lat="46.53859" lon="0.62456">
        <ele>119.96097197849</ele>
        <time>2021-11-17T09:19:43Z</time>
      </trkpt>
      <trkpt lat="46.53862" lon="0.62455">
        <ele>120.35282376874</ele>
        <time>2021-11-17T09:19:46Z</time>
      </trkpt>
      <trkpt lat="46.53863" lon="0.62453">
        <ele>120.55180137698</ele>
        <time>2021-11-17T09:19:48Z</time>
      </trkpt>
      <trkpt lat="46.53865" lon="0.62452">
        <ele>120.88552467898</ele>
        <time>2021-11-17T09:19:50Z</time>
      </trkpt>
      <trkpt lat="46.53867" lon="0.62449">
        <ele>120.87550244294</ele>
        <time>2021-11-17T09:19:53Z</time>
      </trkpt>
      <trkpt lat="46.53869" lon="0.62449">
        <ele>121.45809037518</ele>
        <time>2021-11-17T09:19:56Z</time>
      </trkpt>
      <trkpt lat="46.53871" lon="0.62448">
        <ele>121.42533814441</ele>
        <time>2021-11-17T09:20:00Z</time>
      </trkpt>
      <trkpt lat="46.53873" lon="0.62446">
        <ele>121.74390737526</ele>
        <time>2021-11-17T09:20:02Z</time>
      </trkpt>
      <trkpt lat="46.53875" lon="0.62446">
        <ele>121.74743411504</ele>
        <time>2021-11-17T09:20:04Z</time>
      </trkpt>
      <trkpt lat="46.53877" lon="0.62445">
        <ele>121.84593850467</ele>
        <time>2021-11-17T09:20:06Z</time>
      </trkpt>
      <trkpt lat="46.53879" lon="0.62444">
        <ele>121.84116450604</ele>
        <time>2021-11-17T09:20:07Z</time>
      </trkpt>
      <trkpt lat="46.53882" lon="0.62442">
        <ele>122.10402337555</ele>
        <time>2021-11-17T09:20:10Z</time>
      </trkpt>
      <trkpt lat="46.53884" lon="0.6244">
        <ele>122.06134120282</ele>
        <time>2021-11-17T09:20:13Z</time>
      </trkpt>
      <trkpt lat="46.53886" lon="0.62439">
        <ele>122.179622069</ele>
        <time>2021-11-17T09:20:15Z</time>
      </trkpt>
      <trkpt lat="46.53888" lon="0.62437">
        <ele>122.06895108987</ele>
        <time>2021-11-17T09:20:17Z</time>
      </trkpt>
      <trkpt lat="46.5389" lon="0.62436">
        <ele>121.96408380475</ele>
        <time>2021-11-17T09:20:19Z</time>
      </trkpt>
      <trkpt lat="46.53892" lon="0.62434">
        <ele>122.44308600482</ele>
        <time>2021-11-17T09:20:21Z</time>
      </trkpt>
      <trkpt lat="46.53894" lon="0.62432">
        <ele>122.46419905499</ele>
        <time>2021-11-17T09:20:23Z</time>
      </trkpt>
      <trkpt lat="46.53896" lon="0.62431">
        <ele>122.24261383153</ele>
        <time>2021-11-17T09:20:25Z</time>
      </trkpt>
      <trkpt lat="46.53898" lon="0.6243">
        <ele>122.19473253284</ele>
        <time>2021-11-17T09:20:26Z</time>
      </trkpt>
      <trkpt lat="46.53901" lon="0.6243">
        <ele>122.23015809897</ele>
        <time>2021-11-17T09:20:28Z</time>
      </trkpt>
      <trkpt lat="46.53903" lon="0.62431">
        <ele>121.94579453114</ele>
        <time>2021-11-17T09:20:30Z</time>
      </trkpt>
      <trkpt lat="46.53904" lon="0.62432">
        <ele>121.52679083589</ele>
        <time>2021-11-17T09:20:34Z</time>
      </trkpt>
      <trkpt lat="46.53908" lon="0.62432">
        <ele>121.52994193137</ele>
        <time>2021-11-17T09:20:36Z</time>
      </trkpt>
      <trkpt lat="46.5391" lon="0.62433">
        <ele>121.41742128506</ele>
        <time>2021-11-17T09:20:38Z</time>
      </trkpt>
      <trkpt lat="46.53913" lon="0.62432">
        <ele>121.13375258725</ele>
        <time>2021-11-17T09:20:40Z</time>
      </trkpt>
      <trkpt lat="46.53916" lon="0.62432">
        <ele>121.23694504797</ele>
        <time>2021-11-17T09:20:42Z</time>
      </trkpt>
      <trkpt lat="46.53918" lon="0.62431">
        <ele>120.86434273515</ele>
        <time>2021-11-17T09:20:45Z</time>
      </trkpt>
      <trkpt lat="46.5392" lon="0.62431">
        <ele>120.62276720442</ele>
        <time>2021-11-17T09:20:48Z</time>
      </trkpt>
      <trkpt lat="46.53922" lon="0.6243">
        <ele>120.37253278308</ele>
        <time>2021-11-17T09:20:50Z</time>
      </trkpt>
      <trkpt lat="46.53924" lon="0.62429">
        <ele>120.46107995789</ele>
        <time>2021-11-17T09:20:51Z</time>
      </trkpt>
      <trkpt lat="46.53927" lon="0.62427">
        <ele>120.49378423486</ele>
        <time>2021-11-17T09:20:53Z</time>
      </trkpt>
      <trkpt lat="46.5393" lon="0.62426">
        <ele>119.85612291191</ele>
        <time>2021-11-17T09:20:55Z</time>
      </trkpt>
      <trkpt lat="46.53932" lon="0.62425">
        <ele>120.43220711686</ele>
        <time>2021-11-17T09:20:57Z</time>
      </trkpt>
      <trkpt lat="46.53934" lon="0.62424">
        <ele>120.09603423998</ele>
        <time>2021-11-17T09:20:59Z</time>
      </trkpt>
      <trkpt lat="46.53936" lon="0.62423">
        <ele>120.24413829669</ele>
        <time>2021-11-17T09:21:01Z</time>
      </trkpt>
      <trkpt lat="46.53938" lon="0.62422">
        <ele>120.08173206355</ele>
        <time>2021-11-17T09:21:04Z</time>
      </trkpt>
      <trkpt lat="46.5394" lon="0.62421">
        <ele>119.8221585257</ele>
        <time>2021-11-17T09:21:07Z</time>
      </trkpt>
      <trkpt lat="46.53943" lon="0.6242">
        <ele>119.47737443727</ele>
        <time>2021-11-17T09:21:10Z</time>
      </trkpt>
      <trkpt lat="46.53945" lon="0.62419">
        <ele>119.57480531</ele>
        <time>2021-11-17T09:21:12Z</time>
      </trkpt>
      <trkpt lat="46.53947" lon="0.62418">
        <ele>119.1018695822</ele>
        <time>2021-11-17T09:21:14Z</time>
      </trkpt>
      <trkpt lat="46.53949" lon="0.62419">
        <ele>119.12657858524</ele>
        <time>2021-11-17T09:21:17Z</time>
      </trkpt>
      <trkpt lat="46.53951" lon="0.62417">
        <ele>118.94166922197</ele>
        <time>2021-11-17T09:21:20Z</time>
      </trkpt>
      <trkpt lat="46.53953" lon="0.62416">
        <ele>118.70703720581</ele>
        <time>2021-11-17T09:21:22Z</time>
      </trkpt>
      <trkpt lat="46.53955" lon="0.62414">
        <ele>118.43032822013</ele>
        <time>2021-11-17T09:21:25Z</time>
      </trkpt>
      <trkpt lat="46.53957" lon="0.62413">
        <ele>118.2763561504</ele>
        <time>2021-11-17T09:21:28Z</time>
      </trkpt>
      <trkpt lat="46.53958" lon="0.62411">
        <ele>118.19530847669</ele>
        <time>2021-11-17T09:21:31Z</time>
      </trkpt>
      <trkpt lat="46.53959" lon="0.62409">
        <ele>117.98655809928</ele>
        <time>2021-11-17T09:21:40Z</time>
      </trkpt>
      <trkpt lat="46.5396" lon="0.62411">
        <ele>117.93253720831</ele>
        <time>2021-11-17T09:21:44Z</time>
      </trkpt>
      <trkpt lat="46.53963" lon="0.62408">
        <ele>117.96672505978</ele>
        <time>2021-11-17T09:21:52Z</time>
      </trkpt>
      <trkpt lat="46.53962" lon="0.6241">
        <ele>117.83524608798</ele>
        <time>2021-11-17T09:22:01Z</time>
      </trkpt>
      <trkpt lat="46.53959" lon="0.62412">
        <ele>117.84712093603</ele>
        <time>2021-11-17T09:22:12Z</time>
      </trkpt>
      <trkpt lat="46.53958" lon="0.62414">
        <ele>117.95485305134</ele>
        <time>2021-11-17T09:22:21Z</time>
      </trkpt>
      <trkpt lat="46.53961" lon="0.62415">
        <ele>118.17666609585</ele>
        <time>2021-11-17T09:22:30Z</time>
      </trkpt>
      <trkpt lat="46.53958" lon="0.62411">
        <ele>118.05453778524</ele>
        <time>2021-11-17T09:22:43Z</time>
      </trkpt>
      <trkpt lat="46.53959" lon="0.6241">
        <ele>118.49612152297</ele>
        <time>2021-11-17T09:22:46Z</time>
      </trkpt>
      <trkpt lat="46.53961" lon="0.62409">
        <ele>117.87690880708</ele>
        <time>2021-11-17T09:22:59Z</time>
      </trkpt>
      <trkpt lat="46.53963" lon="0.62407">
        <ele>117.94683026336</ele>
        <time>2021-11-17T09:23:00Z</time>
      </trkpt>
      <trkpt lat="46.53964" lon="0.62404">
        <ele>117.62621905096</ele>
        <time>2021-11-17T09:23:02Z</time>
      </trkpt>
      <trkpt lat="46.53965" lon="0.62402">
        <ele>117.57153585088</ele>
        <time>2021-11-17T09:23:05Z</time>
      </trkpt>
      <trkpt lat="46.53967" lon="0.62399">
        <ele>117.12750054151</ele>
        <time>2021-11-17T09:23:08Z</time>
      </trkpt>
      <trkpt lat="46.53969" lon="0.62395">
        <ele>117.0431897901</ele>
        <time>2021-11-17T09:23:11Z</time>
      </trkpt>
      <trkpt lat="46.53971" lon="0.62392">
        <ele>116.66776433773</ele>
        <time>2021-11-17T09:23:14Z</time>
      </trkpt>
      <trkpt lat="46.53973" lon="0.62391">
        <ele>116.47902927548</ele>
        <time>2021-11-17T09:23:16Z</time>
      </trkpt>
      <trkpt lat="46.53975" lon="0.6239">
        <ele>116.26476172172</ele>
        <time>2021-11-17T09:23:18Z</time>
      </trkpt>
      <trkpt lat="46.53977" lon="0.62388">
        <ele>115.73532059882</ele>
        <time>2021-11-17T09:23:19Z</time>
      </trkpt>
      <trkpt lat="46.53978" lon="0.62386">
        <ele>115.97703668568</ele>
        <time>2021-11-17T09:23:21Z</time>
      </trkpt>
      <trkpt lat="46.5398" lon="0.62384">
        <ele>115.84861279838</ele>
        <time>2021-11-17T09:23:23Z</time>
      </trkpt>
      <trkpt lat="46.53982" lon="0.62381">
        <ele>115.65664819442</ele>
        <time>2021-11-17T09:23:25Z</time>
      </trkpt>
      <trkpt lat="46.53984" lon="0.62378">
        <ele>115.15548165608</ele>
        <time>2021-11-17T09:23:28Z</time>
      </trkpt>
      <trkpt lat="46.53986" lon="0.62374">
        <ele>115.39520149492</ele>
        <time>2021-11-17T09:23:30Z</time>
      </trkpt>
      <trkpt lat="46.53987" lon="0.62371">
        <ele>115.02033326495</ele>
        <time>2021-11-17T09:23:32Z</time>
      </trkpt>
      <trkpt lat="46.53989" lon="0.62368">
        <ele>115.00732223131</ele>
        <time>2021-11-17T09:23:34Z</time>
      </trkpt>
      <trkpt lat="46.5399" lon="0.62365">
        <ele>114.63068570755</ele>
        <time>2021-11-17T09:23:36Z</time>
      </trkpt>
      <trkpt lat="46.53992" lon="0.62361">
        <ele>114.5776001662</ele>
        <time>2021-11-17T09:23:38Z</time>
      </trkpt>
      <trkpt lat="46.53994" lon="0.6236">
        <ele>114.56000811048</ele>
        <time>2021-11-17T09:23:42Z</time>
      </trkpt>
      <trkpt lat="46.53996" lon="0.62356">
        <ele>114.19570364337</ele>
        <time>2021-11-17T09:23:44Z</time>
      </trkpt>
      <trkpt lat="46.53996" lon="0.62352">
        <ele>114.26168468501</ele>
        <time>2021-11-17T09:23:47Z</time>
      </trkpt>
      <trkpt lat="46.53996" lon="0.62349">
        <ele>114.03434286173</ele>
        <time>2021-11-17T09:23:49Z</time>
      </trkpt>
      <trkpt lat="46.53996" lon="0.62346">
        <ele>114.19785731658</ele>
        <time>2021-11-17T09:23:51Z</time>
      </trkpt>
      <trkpt lat="46.53995" lon="0.62342">
        <ele>114.39766466524</ele>
        <time>2021-11-17T09:23:53Z</time>
      </trkpt>
      <trkpt lat="46.53995" lon="0.62339">
        <ele>113.83193597663</ele>
        <time>2021-11-17T09:23:55Z</time>
      </trkpt>
      <trkpt lat="46.53995" lon="0.62335">
        <ele>114.03760401253</ele>
        <time>2021-11-17T09:23:58Z</time>
      </trkpt>
      <trkpt lat="46.53996" lon="0.62332">
        <ele>114.12337411474</ele>
        <time>2021-11-17T09:24:00Z</time>
      </trkpt>
      <trkpt lat="46.53997" lon="0.62329">
        <ele>113.86371181346</ele>
        <time>2021-11-17T09:24:02Z</time>
      </trkpt>
      <trkpt lat="46.53998" lon="0.62326">
        <ele>113.80784610379</ele>
        <time>2021-11-17T09:24:04Z</time>
      </trkpt>
      <trkpt lat="46.53999" lon="0.62323">
        <ele>113.89641765039</ele>
        <time>2021-11-17T09:24:06Z</time>
      </trkpt>
      <trkpt lat="46.54" lon="0.6232">
        <ele>113.91774968524</ele>
        <time>2021-11-17T09:24:08Z</time>
      </trkpt>
      <trkpt lat="46.54001" lon="0.62316">
        <ele>113.84241282195</ele>
        <time>2021-11-17T09:24:10Z</time>
      </trkpt>
      <trkpt lat="46.54002" lon="0.62312">
        <ele>113.34566871449</ele>
        <time>2021-11-17T09:24:12Z</time>
      </trkpt>
      <trkpt lat="46.54004" lon="0.6231">
        <ele>114.13250473328</ele>
        <time>2021-11-17T09:24:14Z</time>
      </trkpt>
      <trkpt lat="46.54005" lon="0.62306">
        <ele>113.59740707837</ele>
        <time>2021-11-17T09:24:17Z</time>
      </trkpt>
      <trkpt lat="46.54006" lon="0.62305">
        <ele>113.72974794451</ele>
        <time>2021-11-17T09:24:19Z</time>
      </trkpt>
      <trkpt lat="46.54007" lon="0.62302">
        <ele>113.50905606337</ele>
        <time>2021-11-17T09:24:20Z</time>
      </trkpt>
      <trkpt lat="46.54009" lon="0.62298">
        <ele>113.81682839338</ele>
        <time>2021-11-17T09:24:22Z</time>
      </trkpt>
      <trkpt lat="46.54011" lon="0.62295">
        <ele>113.48162033129</ele>
        <time>2021-11-17T09:24:24Z</time>
      </trkpt>
      <trkpt lat="46.54013" lon="0.62293">
        <ele>113.57299019117</ele>
        <time>2021-11-17T09:24:26Z</time>
      </trkpt>
      <trkpt lat="46.54014" lon="0.6229">
        <ele>113.59212650545</ele>
        <time>2021-11-17T09:24:28Z</time>
      </trkpt>
      <trkpt lat="46.54015" lon="0.62286">
        <ele>113.55123908352</ele>
        <time>2021-11-17T09:24:30Z</time>
      </trkpt>
      <trkpt lat="46.54015" lon="0.62283">
        <ele>113.4872266883</ele>
        <time>2021-11-17T09:24:32Z</time>
      </trkpt>
      <trkpt lat="46.54017" lon="0.6228">
        <ele>113.41683258954</ele>
        <time>2021-11-17T09:24:34Z</time>
      </trkpt>
      <trkpt lat="46.54019" lon="0.62276">
        <ele>113.35799630173</ele>
        <time>2021-11-17T09:24:36Z</time>
      </trkpt>
      <trkpt lat="46.5402" lon="0.62273">
        <ele>113.61307350453</ele>
        <time>2021-11-17T09:24:38Z</time>
      </trkpt>
      <trkpt lat="46.54021" lon="0.6227">
        <ele>113.50986641645</ele>
        <time>2021-11-17T09:24:40Z</time>
      </trkpt>
      <trkpt lat="46.54022" lon="0.62267">
        <ele>113.58340682928</ele>
        <time>2021-11-17T09:24:41Z</time>
      </trkpt>
      <trkpt lat="46.54023" lon="0.62264">
        <ele>113.43834521901</ele>
        <time>2021-11-17T09:24:43Z</time>
      </trkpt>
      <trkpt lat="46.54023" lon="0.62261">
        <ele>113.22330285423</ele>
        <time>2021-11-17T09:24:45Z</time>
      </trkpt>
      <trkpt lat="46.54025" lon="0.62257">
        <ele>113.28559031337</ele>
        <time>2021-11-17T09:24:47Z</time>
      </trkpt>
      <trkpt lat="46.54026" lon="0.62255">
        <ele>113.61429555248</ele>
        <time>2021-11-17T09:24:49Z</time>
      </trkpt>
      <trkpt lat="46.54028" lon="0.62253">
        <ele>112.99281681702</ele>
        <time>2021-11-17T09:24:51Z</time>
      </trkpt>
      <trkpt lat="46.5403" lon="0.62253">
        <ele>112.93371200468</ele>
        <time>2021-11-17T09:24:54Z</time>
      </trkpt>
      <trkpt lat="46.54032" lon="0.62253">
        <ele>112.87268434744</ele>
        <time>2021-11-17T09:24:56Z</time>
      </trkpt>
      <trkpt lat="46.54034" lon="0.62252">
        <ele>112.76699847728</ele>
        <time>2021-11-17T09:24:58Z</time>
      </trkpt>
      <trkpt lat="46.54036" lon="0.6225">
        <ele>112.48347461969</ele>
        <time>2021-11-17T09:24:59Z</time>
      </trkpt>
      <trkpt lat="46.54037" lon="0.62249">
        <ele>112.3485469874</ele>
        <time>2021-11-17T09:25:01Z</time>
      </trkpt>
      <trkpt lat="46.5404" lon="0.62246">
        <ele>112.05586740375</ele>
        <time>2021-11-17T09:25:04Z</time>
      </trkpt>
      <trkpt lat="46.54041" lon="0.62245">
        <ele>111.89065742493</ele>
        <time>2021-11-17T09:25:07Z</time>
      </trkpt>
      <trkpt lat="46.54044" lon="0.62246">
        <ele>111.80744837224</ele>
        <time>2021-11-17T09:25:10Z</time>
      </trkpt>
      <trkpt lat="46.54046" lon="0.62247">
        <ele>111.34174394701</ele>
        <time>2021-11-17T09:25:12Z</time>
      </trkpt>
      <trkpt lat="46.54048" lon="0.62247">
        <ele>111.07528673857</ele>
        <time>2021-11-17T09:25:15Z</time>
      </trkpt>
      <trkpt lat="46.5405" lon="0.62247">
        <ele>111.0317981597</ele>
        <time>2021-11-17T09:25:17Z</time>
      </trkpt>
      <trkpt lat="46.54053" lon="0.62247">
        <ele>110.49422162399</ele>
        <time>2021-11-17T09:25:20Z</time>
      </trkpt>
      <trkpt lat="46.54056" lon="0.62246">
        <ele>110.48305903282</ele>
        <time>2021-11-17T09:25:22Z</time>
      </trkpt>
      <trkpt lat="46.54058" lon="0.62247">
        <ele>110.0585819697</ele>
        <time>2021-11-17T09:25:25Z</time>
      </trkpt>
      <trkpt lat="46.5406" lon="0.62246">
        <ele>110.02938009985</ele>
        <time>2021-11-17T09:25:27Z</time>
      </trkpt>
      <trkpt lat="46.54062" lon="0.62245">
        <ele>109.97745611425</ele>
        <time>2021-11-17T09:25:29Z</time>
      </trkpt>
      <trkpt lat="46.54064" lon="0.62243">
        <ele>109.93257451802</ele>
        <time>2021-11-17T09:25:31Z</time>
      </trkpt>
      <trkpt lat="46.54066" lon="0.62242">
        <ele>109.86736645643</ele>
        <time>2021-11-17T09:25:33Z</time>
      </trkpt>
      <trkpt lat="46.54067" lon="0.6224">
        <ele>109.75524933729</ele>
        <time>2021-11-17T09:25:36Z</time>
      </trkpt>
      <trkpt lat="46.5407" lon="0.6224">
        <ele>109.85295577999</ele>
        <time>2021-11-17T09:25:39Z</time>
      </trkpt>
      <trkpt lat="46.54071" lon="0.62238">
        <ele>109.91141688451</ele>
        <time>2021-11-17T09:25:43Z</time>
      </trkpt>
      <trkpt lat="46.54073" lon="0.62235">
        <ele>109.63286327291</ele>
        <time>2021-11-17T09:25:45Z</time>
      </trkpt>
      <trkpt lat="46.54075" lon="0.62233">
        <ele>110.03249861952</ele>
        <time>2021-11-17T09:25:48Z</time>
      </trkpt>
      <trkpt lat="46.54077" lon="0.62232">
        <ele>110.6487079151</ele>
        <time>2021-11-17T09:25:50Z</time>
      </trkpt>
      <trkpt lat="46.54079" lon="0.62231">
        <ele>110.80711797718</ele>
        <time>2021-11-17T09:25:52Z</time>
      </trkpt>
      <trkpt lat="46.54079" lon="0.62229">
        <ele>110.72572195157</ele>
        <time>2021-11-17T09:25:54Z</time>
      </trkpt>
      <trkpt lat="46.54081" lon="0.62224">
        <ele>111.10626910813</ele>
        <time>2021-11-17T09:25:57Z</time>
      </trkpt>
      <trkpt lat="46.54081" lon="0.62221">
        <ele>111.44444646779</ele>
        <time>2021-11-17T09:25:59Z</time>
      </trkpt>
      <trkpt lat="46.5408" lon="0.62217">
        <ele>110.90776850004</ele>
        <time>2021-11-17T09:26:02Z</time>
      </trkpt>
      <trkpt lat="46.5408" lon="0.62212">
        <ele>111.07983299065</ele>
        <time>2021-11-17T09:26:04Z</time>
      </trkpt>
      <trkpt lat="46.5408" lon="0.62209">
        <ele>111.42858396284</ele>
        <time>2021-11-17T09:26:06Z</time>
      </trkpt>
      <trkpt lat="46.54079" lon="0.62207">
        <ele>111.15067702997</ele>
        <time>2021-11-17T09:26:08Z</time>
      </trkpt>
      <trkpt lat="46.54077" lon="0.62204">
        <ele>111.43632025272</ele>
        <time>2021-11-17T09:26:10Z</time>
      </trkpt>
      <trkpt lat="46.54076" lon="0.62201">
        <ele>111.30785357766</ele>
        <time>2021-11-17T09:26:12Z</time>
      </trkpt>
      <trkpt lat="46.54074" lon="0.62198">
        <ele>111.3322184477</ele>
        <time>2021-11-17T09:26:14Z</time>
      </trkpt>
      <trkpt lat="46.54074" lon="0.62194">
        <ele>111.54467020929</ele>
        <time>2021-11-17T09:26:16Z</time>
      </trkpt>
      <trkpt lat="46.54074" lon="0.6219">
        <ele>111.59383300692</ele>
        <time>2021-11-17T09:26:18Z</time>
      </trkpt>
      <trkpt lat="46.54074" lon="0.62186">
        <ele>111.6197130084</ele>
        <time>2021-11-17T09:26:20Z</time>
      </trkpt>
      <trkpt lat="46.54075" lon="0.62182">
        <ele>111.48698654585</ele>
        <time>2021-11-17T09:26:22Z</time>
      </trkpt>
      <trkpt lat="46.54076" lon="0.62181">
        <ele>112.04910503142</ele>
        <time>2021-11-17T09:26:24Z</time>
      </trkpt>
      <trkpt lat="46.54078" lon="0.62179">
        <ele>111.97661940102</ele>
        <time>2021-11-17T09:26:26Z</time>
      </trkpt>
      <trkpt lat="46.5408" lon="0.62177">
        <ele>111.65602422226</ele>
        <time>2021-11-17T09:26:28Z</time>
      </trkpt>
      <trkpt lat="46.54081" lon="0.62174">
        <ele>111.97817470413</ele>
        <time>2021-11-17T09:26:30Z</time>
      </trkpt>
      <trkpt lat="46.54083" lon="0.62172">
        <ele>112.05072069727</ele>
        <time>2021-11-17T09:26:32Z</time>
      </trkpt>
      <trkpt lat="46.54084" lon="0.62169">
        <ele>112.20807775296</ele>
        <time>2021-11-17T09:26:34Z</time>
      </trkpt>
      <trkpt lat="46.54086" lon="0.62167">
        <ele>112.2125351103</ele>
        <time>2021-11-17T09:26:36Z</time>
      </trkpt>
      <trkpt lat="46.54087" lon="0.62164">
        <ele>112.27413218748</ele>
        <time>2021-11-17T09:26:38Z</time>
      </trkpt>
      <trkpt lat="46.54089" lon="0.62162">
        <ele>112.27172388043</ele>
        <time>2021-11-17T09:26:40Z</time>
      </trkpt>
      <trkpt lat="46.5409" lon="0.62159">
        <ele>112.49986515939</ele>
        <time>2021-11-17T09:26:42Z</time>
      </trkpt>
      <trkpt lat="46.54091" lon="0.62157">
        <ele>112.60667687189</ele>
        <time>2021-11-17T09:26:44Z</time>
      </trkpt>
      <trkpt lat="46.54093" lon="0.62155">
        <ele>112.52639850881</ele>
        <time>2021-11-17T09:26:47Z</time>
      </trkpt>
      <trkpt lat="46.54093" lon="0.62151">
        <ele>112.60296425875</ele>
        <time>2021-11-17T09:26:50Z</time>
      </trkpt>
      <trkpt lat="46.54095" lon="0.62147">
        <ele>112.40292852744</ele>
        <time>2021-11-17T09:26:52Z</time>
      </trkpt>
      <trkpt lat="46.54097" lon="0.62143">
        <ele>112.53416934051</ele>
        <time>2021-11-17T09:26:54Z</time>
      </trkpt>
      <trkpt lat="46.54099" lon="0.6214">
        <ele>112.77740110736</ele>
        <time>2021-11-17T09:26:56Z</time>
      </trkpt>
      <trkpt lat="46.541" lon="0.62136">
        <ele>113.04914733116</ele>
        <time>2021-11-17T09:26:58Z</time>
      </trkpt>
      <trkpt lat="46.54102" lon="0.62134">
        <ele>112.97375805955</ele>
        <time>2021-11-17T09:27:00Z</time>
      </trkpt>
      <trkpt lat="46.54103" lon="0.62131">
        <ele>113.01429448463</ele>
        <time>2021-11-17T09:27:03Z</time>
      </trkpt>
      <trkpt lat="46.54105" lon="0.62128">
        <ele>113.3006755989</ele>
        <time>2021-11-17T09:27:07Z</time>
      </trkpt>
      <trkpt lat="46.54107" lon="0.62127">
        <ele>113.58969072253</ele>
        <time>2021-11-17T09:27:09Z</time>
      </trkpt>
      <trkpt lat="46.54109" lon="0.62127">
        <ele>113.50720772427</ele>
        <time>2021-11-17T09:27:12Z</time>
      </trkpt>
      <trkpt lat="46.54112" lon="0.62128">
        <ele>113.6777226571</ele>
        <time>2021-11-17T09:27:15Z</time>
      </trkpt>
      <trkpt lat="46.54114" lon="0.6213">
        <ele>113.59520108346</ele>
        <time>2021-11-17T09:27:18Z</time>
      </trkpt>
      <trkpt lat="46.54116" lon="0.62132">
        <ele>113.99999339506</ele>
        <time>2021-11-17T09:27:20Z</time>
      </trkpt>
      <trkpt lat="46.54117" lon="0.62134">
        <ele>114.24345161766</ele>
        <time>2021-11-17T09:27:22Z</time>
      </trkpt>
      <trkpt lat="46.54119" lon="0.62135">
        <ele>114.2657325482</ele>
        <time>2021-11-17T09:27:24Z</time>
      </trkpt>
      <trkpt lat="46.54121" lon="0.62137">
        <ele>114.108233165</ele>
        <time>2021-11-17T09:27:26Z</time>
      </trkpt>
      <trkpt lat="46.54123" lon="0.62137">
        <ele>114.66363972984</ele>
        <time>2021-11-17T09:27:29Z</time>
      </trkpt>
      <trkpt lat="46.54126" lon="0.62138">
        <ele>114.56083706673</ele>
        <time>2021-11-17T09:27:32Z</time>
      </trkpt>
      <trkpt lat="46.54128" lon="0.62141">
        <ele>114.70744009223</ele>
        <time>2021-11-17T09:27:34Z</time>
      </trkpt>
      <trkpt lat="46.5413" lon="0.62143">
        <ele>115.05815775134</ele>
        <time>2021-11-17T09:27:37Z</time>
      </trkpt>
      <trkpt lat="46.54133" lon="0.62146">
        <ele>115.17190128006</ele>
        <time>2021-11-17T09:27:39Z</time>
      </trkpt>
      <trkpt lat="46.54135" lon="0.62147">
        <ele>115.15830907691</ele>
        <time>2021-11-17T09:27:41Z</time>
      </trkpt>
      <trkpt lat="46.54137" lon="0.62147">
        <ele>115.2908260338</ele>
        <time>2021-11-17T09:27:43Z</time>
      </trkpt>
      <trkpt lat="46.54139" lon="0.62149">
        <ele>115.24472265225</ele>
        <time>2021-11-17T09:27:45Z</time>
      </trkpt>
      <trkpt lat="46.54142" lon="0.62152">
        <ele>115.92876962759</ele>
        <time>2021-11-17T09:27:48Z</time>
      </trkpt>
      <trkpt lat="46.54144" lon="0.62153">
        <ele>115.97008405253</ele>
        <time>2021-11-17T09:27:50Z</time>
      </trkpt>
      <trkpt lat="46.54145" lon="0.62154">
        <ele>116.26977135614</ele>
        <time>2021-11-17T09:27:52Z</time>
      </trkpt>
      <trkpt lat="46.54148" lon="0.62155">
        <ele>116.34489876311</ele>
        <time>2021-11-17T09:27:54Z</time>
      </trkpt>
      <trkpt lat="46.54151" lon="0.62157">
        <ele>116.48631959315</ele>
        <time>2021-11-17T09:27:57Z</time>
      </trkpt>
      <trkpt lat="46.54154" lon="0.62158">
        <ele>116.56128585711</ele>
        <time>2021-11-17T09:28:00Z</time>
      </trkpt>
      <trkpt lat="46.54157" lon="0.62158">
        <ele>116.85814616177</ele>
        <time>2021-11-17T09:28:03Z</time>
      </trkpt>
      <trkpt lat="46.54159" lon="0.62159">
        <ele>116.75121644046</ele>
        <time>2021-11-17T09:28:06Z</time>
      </trkpt>
      <trkpt lat="46.54161" lon="0.62159">
        <ele>116.99164801929</ele>
        <time>2021-11-17T09:28:08Z</time>
      </trkpt>
      <trkpt lat="46.54164" lon="0.62159">
        <ele>116.97516027279</ele>
        <time>2021-11-17T09:28:10Z</time>
      </trkpt>
      <trkpt lat="46.54166" lon="0.62158">
        <ele>117.35832329933</ele>
        <time>2021-11-17T09:28:12Z</time>
      </trkpt>
      <trkpt lat="46.54168" lon="0.62157">
        <ele>117.32729666587</ele>
        <time>2021-11-17T09:28:14Z</time>
      </trkpt>
      <trkpt lat="46.54171" lon="0.62156">
        <ele>117.4802199509</ele>
        <time>2021-11-17T09:28:16Z</time>
      </trkpt>
      <trkpt lat="46.54173" lon="0.62154">
        <ele>117.70590147004</ele>
        <time>2021-11-17T09:28:19Z</time>
      </trkpt>
      <trkpt lat="46.54176" lon="0.62152">
        <ele>117.75275063887</ele>
        <time>2021-11-17T09:28:21Z</time>
      </trkpt>
      <trkpt lat="46.54178" lon="0.62151">
        <ele>117.90501671471</ele>
        <time>2021-11-17T09:28:24Z</time>
      </trkpt>
      <trkpt lat="46.5418" lon="0.62149">
        <ele>118.17177909799</ele>
        <time>2021-11-17T09:28:26Z</time>
      </trkpt>
      <trkpt lat="46.54182" lon="0.62148">
        <ele>118.09793625958</ele>
        <time>2021-11-17T09:28:28Z</time>
      </trkpt>
      <trkpt lat="46.54184" lon="0.62146">
        <ele>118.50754295755</ele>
        <time>2021-11-17T09:28:30Z</time>
      </trkpt>
      <trkpt lat="46.54187" lon="0.62145">
        <ele>118.77281790134</ele>
        <time>2021-11-17T09:28:32Z</time>
      </trkpt>
      <trkpt lat="46.54189" lon="0.62144">
        <ele>118.73161187675</ele>
        <time>2021-11-17T09:28:35Z</time>
      </trkpt>
      <trkpt lat="46.54192" lon="0.62143">
        <ele>119.09365350567</ele>
        <time>2021-11-17T09:28:38Z</time>
      </trkpt>
      <trkpt lat="46.54194" lon="0.62141">
        <ele>119.26197130699</ele>
        <time>2021-11-17T09:28:40Z</time>
      </trkpt>
      <trkpt lat="46.54197" lon="0.6214">
        <ele>119.51163781155</ele>
        <time>2021-11-17T09:28:42Z</time>
      </trkpt>
      <trkpt lat="46.54199" lon="0.62138">
        <ele>119.56306212768</ele>
        <time>2021-11-17T09:28:44Z</time>
      </trkpt>
      <trkpt lat="46.54201" lon="0.62137">
        <ele>119.72495157924</ele>
        <time>2021-11-17T09:28:46Z</time>
      </trkpt>
      <trkpt lat="46.54204" lon="0.62136">
        <ele>119.81803511269</ele>
        <time>2021-11-17T09:28:48Z</time>
      </trkpt>
      <trkpt lat="46.54206" lon="0.62133">
        <ele>119.72880127467</ele>
        <time>2021-11-17T09:28:50Z</time>
      </trkpt>
      <trkpt lat="46.54209" lon="0.62131">
        <ele>120.04202997126</ele>
        <time>2021-11-17T09:28:52Z</time>
      </trkpt>
      <trkpt lat="46.54211" lon="0.6213">
        <ele>120.40104621742</ele>
        <time>2021-11-17T09:28:54Z</time>
      </trkpt>
      <trkpt lat="46.54212" lon="0.62128">
        <ele>120.30826088134</ele>
        <time>2021-11-17T09:28:56Z</time>
      </trkpt>
      <trkpt lat="46.54215" lon="0.62125">
        <ele>120.64101797063</ele>
        <time>2021-11-17T09:28:58Z</time>
      </trkpt>
      <trkpt lat="46.54217" lon="0.62124">
        <ele>120.82690028753</ele>
        <time>2021-11-17T09:29:00Z</time>
      </trkpt>
      <trkpt lat="46.54219" lon="0.62123">
        <ele>121.15291787498</ele>
        <time>2021-11-17T09:29:02Z</time>
      </trkpt>
      <trkpt lat="46.54222" lon="0.62121">
        <ele>121.47599272616</ele>
        <time>2021-11-17T09:29:04Z</time>
      </trkpt>
      <trkpt lat="46.54223" lon="0.6212">
        <ele>121.41876368225</ele>
        <time>2021-11-17T09:29:05Z</time>
      </trkpt>
      <trkpt lat="46.54226" lon="0.62118">
        <ele>121.10620658752</ele>
        <time>2021-11-17T09:29:07Z</time>
      </trkpt>
      <trkpt lat="46.54229" lon="0.62116">
        <ele>121.57923518121</ele>
        <time>2021-11-17T09:29:09Z</time>
      </trkpt>
      <trkpt lat="46.54231" lon="0.62115">
        <ele>121.93190209102</ele>
        <time>2021-11-17T09:29:12Z</time>
      </trkpt>
      <trkpt lat="46.54234" lon="0.62114">
        <ele>121.9969264362</ele>
        <time>2021-11-17T09:29:14Z</time>
      </trkpt>
      <trkpt lat="46.54236" lon="0.62113">
        <ele>122.16443346348</ele>
        <time>2021-11-17T09:29:16Z</time>
      </trkpt>
      <trkpt lat="46.54239" lon="0.62113">
        <ele>122.37824597675</ele>
        <time>2021-11-17T09:29:19Z</time>
      </trkpt>
      <trkpt lat="46.54241" lon="0.62112">
        <ele>122.8042957969</ele>
        <time>2021-11-17T09:29:21Z</time>
      </trkpt>
      <trkpt lat="46.54243" lon="0.62113">
        <ele>122.94314526394</ele>
        <time>2021-11-17T09:29:23Z</time>
      </trkpt>
      <trkpt lat="46.54246" lon="0.62112">
        <ele>122.67546290439</ele>
        <time>2021-11-17T09:29:25Z</time>
      </trkpt>
      <trkpt lat="46.54249" lon="0.62112">
        <ele>123.26386286691</ele>
        <time>2021-11-17T09:29:27Z</time>
      </trkpt>
      <trkpt lat="46.54251" lon="0.62111">
        <ele>123.1494125165</ele>
        <time>2021-11-17T09:29:29Z</time>
      </trkpt>
      <trkpt lat="46.54254" lon="0.6211">
        <ele>123.31861752551</ele>
        <time>2021-11-17T09:29:31Z</time>
      </trkpt>
      <trkpt lat="46.54255" lon="0.62108">
        <ele>123.70302588865</ele>
        <time>2021-11-17T09:29:33Z</time>
      </trkpt>
      <trkpt lat="46.54257" lon="0.62106">
        <ele>123.60719065648</ele>
        <time>2021-11-17T09:29:35Z</time>
      </trkpt>
      <trkpt lat="46.54259" lon="0.62103">
        <ele>123.87812799215</ele>
        <time>2021-11-17T09:29:37Z</time>
      </trkpt>
      <trkpt lat="46.5426" lon="0.621">
        <ele>123.87161125336</ele>
        <time>2021-11-17T09:29:39Z</time>
      </trkpt>
      <trkpt lat="46.54261" lon="0.62096">
        <ele>124.00467337668</ele>
        <time>2021-11-17T09:29:41Z</time>
      </trkpt>
      <trkpt lat="46.54262" lon="0.62093">
        <ele>123.80042831879</ele>
        <time>2021-11-17T09:29:43Z</time>
      </trkpt>
      <trkpt lat="46.54263" lon="0.62089">
        <ele>123.59893597197</ele>
        <time>2021-11-17T09:29:46Z</time>
      </trkpt>
      <trkpt lat="46.54264" lon="0.62087">
        <ele>123.78314639442</ele>
        <time>2021-11-17T09:29:47Z</time>
      </trkpt>
      <trkpt lat="46.54265" lon="0.62083">
        <ele>123.68752074614</ele>
        <time>2021-11-17T09:29:49Z</time>
      </trkpt>
      <trkpt lat="46.54265" lon="0.6208">
        <ele>123.73491617478</ele>
        <time>2021-11-17T09:29:51Z</time>
      </trkpt>
      <trkpt lat="46.54266" lon="0.62076">
        <ele>123.51612482872</ele>
        <time>2021-11-17T09:29:53Z</time>
      </trkpt>
      <trkpt lat="46.54266" lon="0.62073">
        <ele>123.92769229505</ele>
        <time>2021-11-17T09:29:55Z</time>
      </trkpt>
      <trkpt lat="46.54267" lon="0.62069">
        <ele>123.74678866472</ele>
        <time>2021-11-17T09:29:57Z</time>
      </trkpt>
      <trkpt lat="46.54269" lon="0.62068">
        <ele>123.77698613051</ele>
        <time>2021-11-17T09:29:58Z</time>
      </trkpt>
      <trkpt lat="46.5427" lon="0.62065">
        <ele>123.772180303</ele>
        <time>2021-11-17T09:30:00Z</time>
      </trkpt>
      <trkpt lat="46.54271" lon="0.62062">
        <ele>123.63496069144</ele>
        <time>2021-11-17T09:30:02Z</time>
      </trkpt>
      <trkpt lat="46.54272" lon="0.62059">
        <ele>124.0385078527</ele>
        <time>2021-11-17T09:30:04Z</time>
      </trkpt>
      <trkpt lat="46.54273" lon="0.62056">
        <ele>123.5433826223</ele>
        <time>2021-11-17T09:30:06Z</time>
      </trkpt>
      <trkpt lat="46.54275" lon="0.62052">
        <ele>123.39953547344</ele>
        <time>2021-11-17T09:30:08Z</time>
      </trkpt>
      <trkpt lat="46.54275" lon="0.62048">
        <ele>124.05705868546</ele>
        <time>2021-11-17T09:30:10Z</time>
      </trkpt>
      <trkpt lat="46.54276" lon="0.62045">
        <ele>123.80137284193</ele>
        <time>2021-11-17T09:30:12Z</time>
      </trkpt>
      <trkpt lat="46.54277" lon="0.62042">
        <ele>123.92898992449</ele>
        <time>2021-11-17T09:30:14Z</time>
      </trkpt>
      <trkpt lat="46.54278" lon="0.62038">
        <ele>123.40126777906</ele>
        <time>2021-11-17T09:30:16Z</time>
      </trkpt>
      <trkpt lat="46.54279" lon="0.62035">
        <ele>123.62439047731</ele>
        <time>2021-11-17T09:30:18Z</time>
      </trkpt>
      <trkpt lat="46.5428" lon="0.62032">
        <ele>123.65598388482</ele>
        <time>2021-11-17T09:30:20Z</time>
      </trkpt>
      <trkpt lat="46.54281" lon="0.62029">
        <ele>123.68464994524</ele>
        <time>2021-11-17T09:30:22Z</time>
      </trkpt>
      <trkpt lat="46.54282" lon="0.62026">
        <ele>123.4370612707</ele>
        <time>2021-11-17T09:30:24Z</time>
      </trkpt>
      <trkpt lat="46.54283" lon="0.62023">
        <ele>123.49676027335</ele>
        <time>2021-11-17T09:30:26Z</time>
      </trkpt>
      <trkpt lat="46.54285" lon="0.6202">
        <ele>123.61191674881</ele>
        <time>2021-11-17T09:30:28Z</time>
      </trkpt>
      <trkpt lat="46.54286" lon="0.62018">
        <ele>123.44192085508</ele>
        <time>2021-11-17T09:30:30Z</time>
      </trkpt>
      <trkpt lat="46.54288" lon="0.62015">
        <ele>123.67959485948</ele>
        <time>2021-11-17T09:30:32Z</time>
      </trkpt>
      <trkpt lat="46.5429" lon="0.62011">
        <ele>123.77667003591</ele>
        <time>2021-11-17T09:30:34Z</time>
      </trkpt>
      <trkpt lat="46.54291" lon="0.62009">
        <ele>123.6040576594</ele>
        <time>2021-11-17T09:30:35Z</time>
      </trkpt>
      <trkpt lat="46.54293" lon="0.62006">
        <ele>123.31779379584</ele>
        <time>2021-11-17T09:30:37Z</time>
      </trkpt>
      <trkpt lat="46.54295" lon="0.62002">
        <ele>122.95972624514</ele>
        <time>2021-11-17T09:30:39Z</time>
      </trkpt>
      <trkpt lat="46.54297" lon="0.62">
        <ele>123.52355395909</ele>
        <time>2021-11-17T09:30:41Z</time>
      </trkpt>
      <trkpt lat="46.54298" lon="0.61997">
        <ele>123.57305036392</ele>
        <time>2021-11-17T09:30:43Z</time>
      </trkpt>
      <trkpt lat="46.543" lon="0.61994">
        <ele>123.44369165041</ele>
        <time>2021-11-17T09:30:46Z</time>
      </trkpt>
      <trkpt lat="46.54301" lon="0.6199">
        <ele>123.33876346983</ele>
        <time>2021-11-17T09:30:48Z</time>
      </trkpt>
      <trkpt lat="46.54302" lon="0.61987">
        <ele>123.61676891986</ele>
        <time>2021-11-17T09:30:50Z</time>
      </trkpt>
      <trkpt lat="46.54303" lon="0.61985">
        <ele>123.16285177972</ele>
        <time>2021-11-17T09:30:51Z</time>
      </trkpt>
      <trkpt lat="46.54304" lon="0.61982">
        <ele>123.45739222877</ele>
        <time>2021-11-17T09:30:53Z</time>
      </trkpt>
      <trkpt lat="46.54305" lon="0.61979">
        <ele>123.35684968717</ele>
        <time>2021-11-17T09:30:55Z</time>
      </trkpt>
      <trkpt lat="46.54306" lon="0.61976">
        <ele>123.40359413251</ele>
        <time>2021-11-17T09:30:57Z</time>
      </trkpt>
      <trkpt lat="46.54307" lon="0.61974">
        <ele>123.21169361565</ele>
        <time>2021-11-17T09:30:59Z</time>
      </trkpt>
      <trkpt lat="46.54308" lon="0.61971">
        <ele>123.15654922836</ele>
        <time>2021-11-17T09:31:01Z</time>
      </trkpt>
      <trkpt lat="46.54309" lon="0.61967">
        <ele>123.29066510778</ele>
        <time>2021-11-17T09:31:03Z</time>
      </trkpt>
      <trkpt lat="46.54311" lon="0.61964">
        <ele>123.45219483972</ele>
        <time>2021-11-17T09:31:05Z</time>
      </trkpt>
      <trkpt lat="46.54312" lon="0.61961">
        <ele>123.21301932447</ele>
        <time>2021-11-17T09:31:07Z</time>
      </trkpt>
      <trkpt lat="46.54313" lon="0.61958">
        <ele>123.27367179375</ele>
        <time>2021-11-17T09:31:09Z</time>
      </trkpt>
      <trkpt lat="46.54314" lon="0.61956">
        <ele>122.94656920806</ele>
        <time>2021-11-17T09:31:11Z</time>
      </trkpt>
      <trkpt lat="46.54316" lon="0.61953">
        <ele>123.25319706928</ele>
        <time>2021-11-17T09:31:13Z</time>
      </trkpt>
      <trkpt lat="46.54317" lon="0.6195">
        <ele>123.17333149631</ele>
        <time>2021-11-17T09:31:15Z</time>
      </trkpt>
      <trkpt lat="46.54318" lon="0.61946">
        <ele>123.33841361105</ele>
        <time>2021-11-17T09:31:17Z</time>
      </trkpt>
      <trkpt lat="46.5432" lon="0.61943">
        <ele>122.86130804569</ele>
        <time>2021-11-17T09:31:19Z</time>
      </trkpt>
      <trkpt lat="46.54321" lon="0.6194">
        <ele>123.20130399987</ele>
        <time>2021-11-17T09:31:21Z</time>
      </trkpt>
      <trkpt lat="46.54323" lon="0.61937">
        <ele>123.07275588904</ele>
        <time>2021-11-17T09:31:23Z</time>
      </trkpt>
      <trkpt lat="46.54324" lon="0.61935">
        <ele>122.95231844205</ele>
        <time>2021-11-17T09:31:25Z</time>
      </trkpt>
      <trkpt lat="46.54325" lon="0.61932">
        <ele>122.82818996627</ele>
        <time>2021-11-17T09:31:27Z</time>
      </trkpt>
      <trkpt lat="46.54326" lon="0.61929">
        <ele>122.69242940936</ele>
        <time>2021-11-17T09:31:29Z</time>
      </trkpt>
      <trkpt lat="46.54327" lon="0.61926">
        <ele>122.23731737584</ele>
        <time>2021-11-17T09:31:31Z</time>
      </trkpt>
      <trkpt lat="46.54328" lon="0.61924">
        <ele>122.39886401407</ele>
        <time>2021-11-17T09:31:33Z</time>
      </trkpt>
      <trkpt lat="46.5433" lon="0.6192">
        <ele>121.84934866801</ele>
        <time>2021-11-17T09:31:35Z</time>
      </trkpt>
      <trkpt lat="46.54331" lon="0.61917">
        <ele>122.06671106257</ele>
        <time>2021-11-17T09:31:37Z</time>
      </trkpt>
      <trkpt lat="46.54332" lon="0.61914">
        <ele>121.60494519398</ele>
        <time>2021-11-17T09:31:40Z</time>
      </trkpt>
      <trkpt lat="46.54334" lon="0.61911">
        <ele>121.7340096347</ele>
        <time>2021-11-17T09:31:42Z</time>
      </trkpt>
      <trkpt lat="46.54336" lon="0.61909">
        <ele>121.5534544019</ele>
        <time>2021-11-17T09:31:44Z</time>
      </trkpt>
      <trkpt lat="46.54338" lon="0.61907">
        <ele>121.31121120136</ele>
        <time>2021-11-17T09:31:46Z</time>
      </trkpt>
      <trkpt lat="46.5434" lon="0.61906">
        <ele>121.32877142727</ele>
        <time>2021-11-17T09:31:48Z</time>
      </trkpt>
      <trkpt lat="46.54342" lon="0.61903">
        <ele>121.23419717234</ele>
        <time>2021-11-17T09:31:50Z</time>
      </trkpt>
      <trkpt lat="46.54345" lon="0.61902">
        <ele>121.16907264199</ele>
        <time>2021-11-17T09:31:52Z</time>
      </trkpt>
      <trkpt lat="46.54347" lon="0.61902">
        <ele>120.76441114023</ele>
        <time>2021-11-17T09:31:55Z</time>
      </trkpt>
      <trkpt lat="46.5435" lon="0.61903">
        <ele>121.15216946416</ele>
        <time>2021-11-17T09:31:58Z</time>
      </trkpt>
      <trkpt lat="46.54351" lon="0.61905">
        <ele>120.64079642016</ele>
        <time>2021-11-17T09:32:00Z</time>
      </trkpt>
      <trkpt lat="46.54353" lon="0.61908">
        <ele>121.02829246689</ele>
        <time>2021-11-17T09:32:02Z</time>
      </trkpt>
      <trkpt lat="46.54352" lon="0.61911">
        <ele>121.01978601329</ele>
        <time>2021-11-17T09:32:04Z</time>
      </trkpt>
      <trkpt lat="46.54351" lon="0.61914">
        <ele>120.47081182059</ele>
        <time>2021-11-17T09:32:07Z</time>
      </trkpt>
      <trkpt lat="46.54351" lon="0.61917">
        <ele>120.6428256724</ele>
        <time>2021-11-17T09:32:09Z</time>
      </trkpt>
      <trkpt lat="46.54351" lon="0.61921">
        <ele>120.80260999408</ele>
        <time>2021-11-17T09:32:11Z</time>
      </trkpt>
      <trkpt lat="46.54351" lon="0.61924">
        <ele>120.93791353144</ele>
        <time>2021-11-17T09:32:13Z</time>
      </trkpt>
      <trkpt lat="46.5435" lon="0.61927">
        <ele>120.71891622152</ele>
        <time>2021-11-17T09:32:15Z</time>
      </trkpt>
      <trkpt lat="46.5435" lon="0.61931">
        <ele>120.90731329564</ele>
        <time>2021-11-17T09:32:17Z</time>
      </trkpt>
      <trkpt lat="46.5435" lon="0.61934">
        <ele>121.10499036405</ele>
        <time>2021-11-17T09:32:19Z</time>
      </trkpt>
      <trkpt lat="46.54349" lon="0.61938">
        <ele>120.72163061611</ele>
        <time>2021-11-17T09:32:21Z</time>
      </trkpt>
      <trkpt lat="46.54348" lon="0.61941">
        <ele>121.38615519367</ele>
        <time>2021-11-17T09:32:24Z</time>
      </trkpt>
      <trkpt lat="46.54348" lon="0.61944">
        <ele>121.37612900604</ele>
        <time>2021-11-17T09:32:26Z</time>
      </trkpt>
      <trkpt lat="46.54348" lon="0.61948">
        <ele>121.50617066678</ele>
        <time>2021-11-17T09:32:28Z</time>
      </trkpt>
      <trkpt lat="46.54347" lon="0.61951">
        <ele>121.7112912545</ele>
        <time>2021-11-17T09:32:30Z</time>
      </trkpt>
      <trkpt lat="46.54348" lon="0.61955">
        <ele>121.72524090577</ele>
        <time>2021-11-17T09:32:32Z</time>
      </trkpt>
      <trkpt lat="46.54348" lon="0.61959">
        <ele>121.47923045978</ele>
        <time>2021-11-17T09:32:34Z</time>
      </trkpt>
      <trkpt lat="46.54348" lon="0.61962">
        <ele>121.66166077089</ele>
        <time>2021-11-17T09:32:36Z</time>
      </trkpt>
      <trkpt lat="46.54347" lon="0.61966">
        <ele>121.72763909213</ele>
        <time>2021-11-17T09:32:38Z</time>
      </trkpt>
      <trkpt lat="46.54346" lon="0.61969">
        <ele>121.41329150647</ele>
        <time>2021-11-17T09:32:40Z</time>
      </trkpt>
      <trkpt lat="46.54346" lon="0.61972">
        <ele>121.41287109349</ele>
        <time>2021-11-17T09:32:42Z</time>
      </trkpt>
      <trkpt lat="46.54346" lon="0.61976">
        <ele>121.58300492913</ele>
        <time>2021-11-17T09:32:44Z</time>
      </trkpt>
      <trkpt lat="46.54346" lon="0.61979">
        <ele>121.61263445485</ele>
        <time>2021-11-17T09:32:46Z</time>
      </trkpt>
      <trkpt lat="46.54347" lon="0.61983">
        <ele>121.47841894347</ele>
        <time>2021-11-17T09:32:48Z</time>
      </trkpt>
      <trkpt lat="46.54347" lon="0.61987">
        <ele>121.58546125703</ele>
        <time>2021-11-17T09:32:50Z</time>
      </trkpt>
      <trkpt lat="46.54346" lon="0.6199">
        <ele>121.81258954387</ele>
        <time>2021-11-17T09:32:52Z</time>
      </trkpt>
      <trkpt lat="46.54345" lon="0.61994">
        <ele>121.80013700947</ele>
        <time>2021-11-17T09:32:54Z</time>
      </trkpt>
      <trkpt lat="46.54346" lon="0.61998">
        <ele>121.89919392299</ele>
        <time>2021-11-17T09:32:56Z</time>
      </trkpt>
      <trkpt lat="46.54345" lon="0.62001">
        <ele>122.2077823421</ele>
        <time>2021-11-17T09:32:58Z</time>
      </trkpt>
      <trkpt lat="46.54345" lon="0.62005">
        <ele>121.97694963589</ele>
        <time>2021-11-17T09:33:00Z</time>
      </trkpt>
      <trkpt lat="46.54345" lon="0.62008">
        <ele>122.35933491588</ele>
        <time>2021-11-17T09:33:02Z</time>
      </trkpt>
      <trkpt lat="46.54344" lon="0.62012">
        <ele>122.41330512892</ele>
        <time>2021-11-17T09:33:04Z</time>
      </trkpt>
      <trkpt lat="46.54344" lon="0.62015">
        <ele>122.08477170486</ele>
        <time>2021-11-17T09:33:06Z</time>
      </trkpt>
      <trkpt lat="46.54344" lon="0.62018">
        <ele>122.7722223727</ele>
        <time>2021-11-17T09:33:08Z</time>
      </trkpt>
      <trkpt lat="46.54344" lon="0.62022">
        <ele>122.57615401782</ele>
        <time>2021-11-17T09:33:10Z</time>
      </trkpt>
      <trkpt lat="46.54344" lon="0.62025">
        <ele>123.01466508396</ele>
        <time>2021-11-17T09:33:12Z</time>
      </trkpt>
      <trkpt lat="46.54344" lon="0.62029">
        <ele>122.96459694952</ele>
        <time>2021-11-17T09:33:14Z</time>
      </trkpt>
      <trkpt lat="46.54343" lon="0.62033">
        <ele>122.85716213845</ele>
        <time>2021-11-17T09:33:16Z</time>
      </trkpt>
      <trkpt lat="46.54342" lon="0.62036">
        <ele>122.95315869898</ele>
        <time>2021-11-17T09:33:18Z</time>
      </trkpt>
      <trkpt lat="46.54341" lon="0.6204">
        <ele>123.11732055899</ele>
        <time>2021-11-17T09:33:20Z</time>
      </trkpt>
      <trkpt lat="46.54341" lon="0.62044">
        <ele>123.3946468439</ele>
        <time>2021-11-17T09:33:22Z</time>
      </trkpt>
      <trkpt lat="46.54342" lon="0.62047">
        <ele>123.22556295805</ele>
        <time>2021-11-17T09:33:24Z</time>
      </trkpt>
      <trkpt lat="46.54341" lon="0.62051">
        <ele>123.08572457172</ele>
        <time>2021-11-17T09:33:26Z</time>
      </trkpt>
      <trkpt lat="46.54341" lon="0.62053">
        <ele>123.35674440861</ele>
        <time>2021-11-17T09:33:28Z</time>
      </trkpt>
      <trkpt lat="46.54341" lon="0.62057">
        <ele>123.37123133615</ele>
        <time>2021-11-17T09:33:30Z</time>
      </trkpt>
      <trkpt lat="46.5434" lon="0.6206">
        <ele>123.16630278435</ele>
        <time>2021-11-17T09:33:32Z</time>
      </trkpt>
      <trkpt lat="46.5434" lon="0.62063">
        <ele>123.23524098843</ele>
        <time>2021-11-17T09:33:34Z</time>
      </trkpt>
      <trkpt lat="46.5434" lon="0.62066">
        <ele>123.48121882416</ele>
        <time>2021-11-17T09:33:36Z</time>
      </trkpt>
      <trkpt lat="46.54339" lon="0.62069">
        <ele>123.33915988915</ele>
        <time>2021-11-17T09:33:38Z</time>
      </trkpt>
      <trkpt lat="46.54339" lon="0.62072">
        <ele>123.520576532</ele>
        <time>2021-11-17T09:33:40Z</time>
      </trkpt>
      <trkpt lat="46.54339" lon="0.62075">
        <ele>123.38893726375</ele>
        <time>2021-11-17T09:33:42Z</time>
      </trkpt>
      <trkpt lat="46.54339" lon="0.62079">
        <ele>123.47800301481</ele>
        <time>2021-11-17T09:33:44Z</time>
      </trkpt>
      <trkpt lat="46.54338" lon="0.62082">
        <ele>123.30118073151</ele>
        <time>2021-11-17T09:33:46Z</time>
      </trkpt>
      <trkpt lat="46.54338" lon="0.62086">
        <ele>123.37331095058</ele>
        <time>2021-11-17T09:33:48Z</time>
      </trkpt>
      <trkpt lat="46.54338" lon="0.62089">
        <ele>123.57502538525</ele>
        <time>2021-11-17T09:33:50Z</time>
      </trkpt>
      <trkpt lat="46.54338" lon="0.62093">
        <ele>123.41048898082</ele>
        <time>2021-11-17T09:33:52Z</time>
      </trkpt>
      <trkpt lat="46.54337" lon="0.62096">
        <ele>123.63798267953</ele>
        <time>2021-11-17T09:33:54Z</time>
      </trkpt>
      <trkpt lat="46.54337" lon="0.62099">
        <ele>123.45737348869</ele>
        <time>2021-11-17T09:33:56Z</time>
      </trkpt>
      <trkpt lat="46.54336" lon="0.62102">
        <ele>123.24344406743</ele>
        <time>2021-11-17T09:33:58Z</time>
      </trkpt>
      <trkpt lat="46.54336" lon="0.62105">
        <ele>123.60624757502</ele>
        <time>2021-11-17T09:34:00Z</time>
      </trkpt>
      <trkpt lat="46.54336" lon="0.62107">
        <ele>124.03023063298</ele>
        <time>2021-11-17T09:34:02Z</time>
      </trkpt>
      <trkpt lat="46.54336" lon="0.62111">
        <ele>123.73285976704</ele>
        <time>2021-11-17T09:34:04Z</time>
      </trkpt>
      <trkpt lat="46.54335" lon="0.62114">
        <ele>123.50908661447</ele>
        <time>2021-11-17T09:34:06Z</time>
      </trkpt>
      <trkpt lat="46.54336" lon="0.62118">
        <ele>123.61603708379</ele>
        <time>2021-11-17T09:34:08Z</time>
      </trkpt>
      <trkpt lat="46.54337" lon="0.62122">
        <ele>123.20416634716</ele>
        <time>2021-11-17T09:34:10Z</time>
      </trkpt>
      <trkpt lat="46.54338" lon="0.62126">
        <ele>123.72623902</ele>
        <time>2021-11-17T09:34:12Z</time>
      </trkpt>
      <trkpt lat="46.5434" lon="0.62128">
        <ele>123.55597784929</ele>
        <time>2021-11-17T09:34:14Z</time>
      </trkpt>
      <trkpt lat="46.54343" lon="0.6213">
        <ele>123.3653544886</ele>
        <time>2021-11-17T09:34:16Z</time>
      </trkpt>
      <trkpt lat="46.54345" lon="0.62131">
        <ele>123.49059561361</ele>
        <time>2021-11-17T09:34:18Z</time>
      </trkpt>
      <trkpt lat="46.54348" lon="0.62133">
        <ele>123.53582639154</ele>
        <time>2021-11-17T09:34:20Z</time>
      </trkpt>
      <trkpt lat="46.54349" lon="0.62135">
        <ele>123.28085082304</ele>
        <time>2021-11-17T09:34:22Z</time>
      </trkpt>
      <trkpt lat="46.54352" lon="0.62136">
        <ele>123.58197840769</ele>
        <time>2021-11-17T09:34:25Z</time>
      </trkpt>
      <trkpt lat="46.54354" lon="0.62137">
        <ele>123.23051675688</ele>
        <time>2021-11-17T09:34:27Z</time>
      </trkpt>
      <trkpt lat="46.54357" lon="0.6214">
        <ele>123.43496044725</ele>
        <time>2021-11-17T09:34:29Z</time>
      </trkpt>
      <trkpt lat="46.54359" lon="0.62142">
        <ele>123.4891328495</ele>
        <time>2021-11-17T09:34:31Z</time>
      </trkpt>
      <trkpt lat="46.54361" lon="0.62144">
        <ele>123.51864760928</ele>
        <time>2021-11-17T09:34:33Z</time>
      </trkpt>
      <trkpt lat="46.54363" lon="0.62147">
        <ele>123.62553240545</ele>
        <time>2021-11-17T09:34:35Z</time>
      </trkpt>
      <trkpt lat="46.54364" lon="0.6215">
        <ele>123.54527939484</ele>
        <time>2021-11-17T09:34:37Z</time>
      </trkpt>
      <trkpt lat="46.54365" lon="0.62154">
        <ele>123.85262043774</ele>
        <time>2021-11-17T09:34:40Z</time>
      </trkpt>
      <trkpt lat="46.54367" lon="0.62156">
        <ele>123.70712124463</ele>
        <time>2021-11-17T09:34:42Z</time>
      </trkpt>
      <trkpt lat="46.54368" lon="0.62159">
        <ele>123.60918820929</ele>
        <time>2021-11-17T09:34:45Z</time>
      </trkpt>
      <trkpt lat="46.5437" lon="0.62161">
        <ele>123.56341364421</ele>
        <time>2021-11-17T09:34:47Z</time>
      </trkpt>
      <trkpt lat="46.54372" lon="0.62164">
        <ele>123.50524463505</ele>
        <time>2021-11-17T09:34:50Z</time>
      </trkpt>
      <trkpt lat="46.54374" lon="0.62166">
        <ele>123.66073678061</ele>
        <time>2021-11-17T09:34:53Z</time>
      </trkpt>
      <trkpt lat="46.54375" lon="0.62168">
        <ele>123.3089867942</ele>
        <time>2021-11-17T09:34:55Z</time>
      </trkpt>
      <trkpt lat="46.54377" lon="0.62171">
        <ele>123.81396704726</ele>
        <time>2021-11-17T09:34:58Z</time>
      </trkpt>
      <trkpt lat="46.54375" lon="0.62172">
        <ele>123.50567313004</ele>
        <time>2021-11-17T09:35:07Z</time>
      </trkpt>
      <trkpt lat="46.54376" lon="0.62174">
        <ele>123.53236314561</ele>
        <time>2021-11-17T09:35:13Z</time>
      </trkpt>
      <trkpt lat="46.54378" lon="0.62173">
        <ele>123.48658746481</ele>
        <time>2021-11-17T09:35:17Z</time>
      </trkpt>
      <trkpt lat="46.54379" lon="0.62171">
        <ele>123.58359200042</ele>
        <time>2021-11-17T09:35:20Z</time>
      </trkpt>
      <trkpt lat="46.54382" lon="0.62173">
        <ele>123.59998419601</ele>
        <time>2021-11-17T09:35:22Z</time>
      </trkpt>
      <trkpt lat="46.54383" lon="0.62174">
        <ele>123.7039077403</ele>
        <time>2021-11-17T09:35:29Z</time>
      </trkpt>
      <trkpt lat="46.54384" lon="0.62177">
        <ele>123.21436910331</ele>
        <time>2021-11-17T09:35:39Z</time>
      </trkpt>
      <trkpt lat="46.54383" lon="0.6218">
        <ele>123.64585352037</ele>
        <time>2021-11-17T09:35:48Z</time>
      </trkpt>
      <trkpt lat="46.54384" lon="0.62182">
        <ele>123.60996776167</ele>
        <time>2021-11-17T09:35:53Z</time>
      </trkpt>
      <trkpt lat="46.54385" lon="0.62184">
        <ele>123.71767687518</ele>
        <time>2021-11-17T09:36:14Z</time>
      </trkpt>
      <trkpt lat="46.54386" lon="0.62181">
        <ele>123.85813944694</ele>
        <time>2021-11-17T09:36:24Z</time>
      </trkpt>
      <trkpt lat="46.54386" lon="0.62178">
        <ele>123.79619019199</ele>
        <time>2021-11-17T09:36:28Z</time>
      </trkpt>
      <trkpt lat="46.54384" lon="0.62174">
        <ele>123.63218499441</ele>
        <time>2021-11-17T09:36:32Z</time>
      </trkpt>
      <trkpt lat="46.54383" lon="0.62172">
        <ele>123.54913916066</ele>
        <time>2021-11-17T09:36:37Z</time>
      </trkpt>
      <trkpt lat="46.54381" lon="0.62171">
        <ele>123.48538891785</ele>
        <time>2021-11-17T09:36:51Z</time>
      </trkpt>
      <trkpt lat="46.54381" lon="0.62169">
        <ele>123.58779011853</ele>
        <time>2021-11-17T09:36:56Z</time>
      </trkpt>
      <trkpt lat="46.54381" lon="0.62166">
        <ele>123.77855114825</ele>
        <time>2021-11-17T09:37:02Z</time>
      </trkpt>
      <trkpt lat="46.54379" lon="0.62167">
        <ele>123.67747102305</ele>
        <time>2021-11-17T09:37:18Z</time>
      </trkpt>
      <trkpt lat="46.5438" lon="0.62171">
        <ele>123.56789749395</ele>
        <time>2021-11-17T09:37:20Z</time>
      </trkpt>
      <trkpt lat="46.54378" lon="0.62174">
        <ele>123.6150505105</ele>
        <time>2021-11-17T09:37:23Z</time>
      </trkpt>
      <trkpt lat="46.54378" lon="0.62172">
        <ele>124.12629013229</ele>
        <time>2021-11-17T09:37:30Z</time>
      </trkpt>
      <trkpt lat="46.54377" lon="0.62169">
        <ele>123.69294469245</ele>
        <time>2021-11-17T09:37:41Z</time>
      </trkpt>
      <trkpt lat="46.5438" lon="0.62165">
        <ele>123.52284384333</ele>
        <time>2021-11-17T09:38:14Z</time>
      </trkpt>
      <trkpt lat="46.54378" lon="0.62165">
        <ele>123.48297681473</ele>
        <time>2021-11-17T09:38:27Z</time>
      </trkpt>
      <trkpt lat="46.5438" lon="0.62162">
        <ele>123.68239687849</ele>
        <time>2021-11-17T09:38:40Z</time>
      </trkpt>
      <trkpt lat="46.5438" lon="0.62166">
        <ele>123.81758209504</ele>
        <time>2021-11-17T09:38:45Z</time>
      </trkpt>
      <trkpt lat="46.54381" lon="0.62168">
        <ele>123.82734085806</ele>
        <time>2021-11-17T09:38:58Z</time>
      </trkpt>
      <trkpt lat="46.5438" lon="0.62166">
        <ele>123.6247219434</ele>
        <time>2021-11-17T09:39:26Z</time>
      </trkpt>
      <trkpt lat="46.54379" lon="0.62163">
        <ele>123.52235868014</ele>
        <time>2021-11-17T09:40:17Z</time>
      </trkpt>
      <trkpt lat="46.54381" lon="0.62164">
        <ele>123.71217534598</ele>
        <time>2021-11-17T09:40:20Z</time>
      </trkpt>
      <trkpt lat="46.54383" lon="0.6216">
        <ele>123.36762532312</ele>
        <time>2021-11-17T09:41:18Z</time>
      </trkpt>
      <trkpt lat="46.54383" lon="0.62164">
        <ele>123.61951660085</ele>
        <time>2021-11-17T09:41:23Z</time>
      </trkpt>
      <trkpt lat="46.54382" lon="0.62167">
        <ele>123.35313215386</ele>
        <time>2021-11-17T09:41:25Z</time>
      </trkpt>
      <trkpt lat="46.5438" lon="0.62168">
        <ele>123.55367720593</ele>
        <time>2021-11-17T09:41:27Z</time>
      </trkpt>
      <trkpt lat="46.54378" lon="0.62167">
        <ele>123.53339256998</ele>
        <time>2021-11-17T09:41:30Z</time>
      </trkpt>
      <trkpt lat="46.54379" lon="0.62164">
        <ele>123.64588324819</ele>
        <time>2021-11-17T09:42:03Z</time>
      </trkpt>
      <trkpt lat="46.54378" lon="0.62163">
        <ele>123.94283655845</ele>
        <time>2021-11-17T09:43:09Z</time>
      </trkpt>
      <trkpt lat="46.54376" lon="0.6216">
        <ele>123.57074346766</ele>
        <time>2021-11-17T09:44:01Z</time>
      </trkpt>
      <trkpt lat="46.54374" lon="0.62164">
        <ele>123.4605720304</ele>
        <time>2021-11-17T09:44:34Z</time>
      </trkpt>
      <trkpt lat="46.54376" lon="0.62166">
        <ele>123.42293640506</ele>
        <time>2021-11-17T09:44:41Z</time>
      </trkpt>
      <trkpt lat="46.54379" lon="0.62167">
        <ele>123.72849758528</ele>
        <time>2021-11-17T09:45:12Z</time>
      </trkpt>
      <trkpt lat="46.54379" lon="0.6217">
        <ele>123.35007489473</ele>
        <time>2021-11-17T09:45:27Z</time>
      </trkpt>
      <trkpt lat="46.54381" lon="0.62171">
        <ele>123.24595759809</ele>
        <time>2021-11-17T09:45:29Z</time>
      </trkpt>
      <trkpt lat="46.54384" lon="0.62173">
        <ele>123.13895949163</ele>
        <time>2021-11-17T09:45:36Z</time>
      </trkpt>
      <trkpt lat="46.54386" lon="0.62175">
        <ele>123.15096261632</ele>
        <time>2021-11-17T09:45:40Z</time>
      </trkpt>
      <trkpt lat="46.54383" lon="0.62174">
        <ele>123.51144468598</ele>
        <time>2021-11-17T09:45:54Z</time>
      </trkpt>
      <trkpt lat="46.54383" lon="0.62177">
        <ele>123.5405081166</ele>
        <time>2021-11-17T09:46:09Z</time>
      </trkpt>
      <trkpt lat="46.54381" lon="0.62178">
        <ele>123.48983803764</ele>
        <time>2021-11-17T09:46:30Z</time>
      </trkpt>
      <trkpt lat="46.54381" lon="0.62175">
        <ele>123.88572267164</ele>
        <time>2021-11-17T09:46:58Z</time>
      </trkpt>
      <trkpt lat="46.54383" lon="0.62176">
        <ele>123.69837269094</ele>
        <time>2021-11-17T09:47:07Z</time>
      </trkpt>
      <trkpt lat="46.54381" lon="0.62178">
        <ele>123.57508774661</ele>
        <time>2021-11-17T09:47:19Z</time>
      </trkpt>
      <trkpt lat="46.5438" lon="0.62177">
        <ele>123.67160073016</ele>
        <time>2021-11-17T09:47:52Z</time>
      </trkpt>
      <trkpt lat="46.54382" lon="0.62181">
        <ele>123.72297876514</ele>
        <time>2021-11-17T09:49:40Z</time>
      </trkpt>
      <trkpt lat="46.5438" lon="0.62179">
        <ele>123.35102105141</ele>
        <time>2021-11-17T09:49:46Z</time>
      </trkpt>
      <trkpt lat="46.54378" lon="0.62179">
        <ele>123.49613864813</ele>
        <time>2021-11-17T09:49:59Z</time>
      </trkpt>
      <trkpt lat="46.54377" lon="0.62182">
        <ele>123.70364261046</ele>
        <time>2021-11-17T09:50:52Z</time>
      </trkpt>
      <trkpt lat="46.54378" lon="0.62179">
        <ele>123.71392251179</ele>
        <time>2021-11-17T09:51:02Z</time>
      </trkpt>
      <trkpt lat="46.54382" lon="0.62177">
        <ele>123.53483393136</ele>
        <time>2021-11-17T09:51:42Z</time>
      </trkpt>
      <trkpt lat="46.54383" lon="0.62175">
        <ele>123.48162402492</ele>
        <time>2021-11-17T09:51:58Z</time>
      </trkpt>
      <trkpt lat="46.54382" lon="0.62172">
        <ele>124.49218693748</ele>
        <time>2021-11-17T09:52:05Z</time>
      </trkpt>
      <trkpt lat="46.5438" lon="0.62169">
        <ele>123.53567259386</ele>
        <time>2021-11-17T09:52:07Z</time>
      </trkpt>
      <trkpt lat="46.54377" lon="0.62166">
        <ele>123.27217656747</ele>
        <time>2021-11-17T09:52:09Z</time>
      </trkpt>
      <trkpt lat="46.54376" lon="0.62164">
        <ele>123.16332152858</ele>
        <time>2021-11-17T09:52:11Z</time>
      </trkpt>
      <trkpt lat="46.54374" lon="0.62161">
        <ele>123.2562127877</ele>
        <time>2021-11-17T09:52:13Z</time>
      </trkpt>
      <trkpt lat="46.54373" lon="0.62158">
        <ele>123.38474812359</ele>
        <time>2021-11-17T09:52:15Z</time>
      </trkpt>
      <trkpt lat="46.54373" lon="0.62154">
        <ele>123.36900139321</ele>
        <time>2021-11-17T09:52:18Z</time>
      </trkpt>
      <trkpt lat="46.54374" lon="0.6215">
        <ele>123.57744898275</ele>
        <time>2021-11-17T09:52:20Z</time>
      </trkpt>
      <trkpt lat="46.54376" lon="0.62148">
        <ele>123.07942332141</ele>
        <time>2021-11-17T09:52:23Z</time>
      </trkpt>
      <trkpt lat="46.54378" lon="0.62147">
        <ele>123.12141246535</ele>
        <time>2021-11-17T09:52:25Z</time>
      </trkpt>
      <trkpt lat="46.5438" lon="0.62147">
        <ele>122.69454379287</ele>
        <time>2021-11-17T09:52:27Z</time>
      </trkpt>
      <trkpt lat="46.54382" lon="0.62148">
        <ele>122.64558621217</ele>
        <time>2021-11-17T09:52:29Z</time>
      </trkpt>
      <trkpt lat="46.54384" lon="0.62148">
        <ele>122.90900311153</ele>
        <time>2021-11-17T09:52:31Z</time>
      </trkpt>
      <trkpt lat="46.54387" lon="0.62149">
        <ele>122.68558855075</ele>
        <time>2021-11-17T09:52:33Z</time>
      </trkpt>
      <trkpt lat="46.54389" lon="0.62149">
        <ele>122.62244406249</ele>
        <time>2021-11-17T09:52:35Z</time>
      </trkpt>
      <trkpt lat="46.54391" lon="0.62149">
        <ele>122.71932132915</ele>
        <time>2021-11-17T09:52:37Z</time>
      </trkpt>
      <trkpt lat="46.54394" lon="0.62149">
        <ele>122.44515283871</ele>
        <time>2021-11-17T09:52:39Z</time>
      </trkpt>
      <trkpt lat="46.54397" lon="0.62149">
        <ele>122.82179417741</ele>
        <time>2021-11-17T09:52:41Z</time>
      </trkpt>
      <trkpt lat="46.544" lon="0.6215">
        <ele>122.55223237909</ele>
        <time>2021-11-17T09:52:43Z</time>
      </trkpt>
      <trkpt lat="46.54402" lon="0.6215">
        <ele>122.45159787033</ele>
        <time>2021-11-17T09:52:45Z</time>
      </trkpt>
      <trkpt lat="46.54404" lon="0.62151">
        <ele>122.35727842711</ele>
        <time>2021-11-17T09:52:47Z</time>
      </trkpt>
      <trkpt lat="46.54406" lon="0.62151">
        <ele>122.17923904955</ele>
        <time>2021-11-17T09:52:49Z</time>
      </trkpt>
      <trkpt lat="46.54408" lon="0.62152">
        <ele>121.91795097664</ele>
        <time>2021-11-17T09:52:50Z</time>
      </trkpt>
      <trkpt lat="46.5441" lon="0.62152">
        <ele>122.44195005577</ele>
        <time>2021-11-17T09:52:52Z</time>
      </trkpt>
      <trkpt lat="46.54413" lon="0.62152">
        <ele>122.06347444188</ele>
        <time>2021-11-17T09:52:55Z</time>
      </trkpt>
      <trkpt lat="46.54415" lon="0.62153">
        <ele>122.04802200105</ele>
        <time>2021-11-17T09:52:56Z</time>
      </trkpt>
      <trkpt lat="46.54419" lon="0.62153">
        <ele>121.55877746176</ele>
        <time>2021-11-17T09:52:58Z</time>
      </trkpt>
      <trkpt lat="46.54423" lon="0.62153">
        <ele>121.45887005143</ele>
        <time>2021-11-17T09:53:00Z</time>
      </trkpt>
      <trkpt lat="46.54425" lon="0.62153">
        <ele>121.16065622866</ele>
        <time>2021-11-17T09:53:02Z</time>
      </trkpt>
      <trkpt lat="46.54427" lon="0.62154">
        <ele>121.2054049382</ele>
        <time>2021-11-17T09:53:04Z</time>
      </trkpt>
      <trkpt lat="46.5443" lon="0.62154">
        <ele>121.17982465122</ele>
        <time>2021-11-17T09:53:06Z</time>
      </trkpt>
      <trkpt lat="46.54432" lon="0.62153">
        <ele>120.92397547234</ele>
        <time>2021-11-17T09:53:08Z</time>
      </trkpt>
      <trkpt lat="46.54434" lon="0.62153">
        <ele>121.01183409151</ele>
        <time>2021-11-17T09:53:09Z</time>
      </trkpt>
      <trkpt lat="46.54436" lon="0.62153">
        <ele>120.66801520437</ele>
        <time>2021-11-17T09:53:11Z</time>
      </trkpt>
      <trkpt lat="46.54439" lon="0.62153">
        <ele>120.85021118447</ele>
        <time>2021-11-17T09:53:13Z</time>
      </trkpt>
      <trkpt lat="46.54441" lon="0.62153">
        <ele>120.57238997519</ele>
        <time>2021-11-17T09:53:14Z</time>
      </trkpt>
      <trkpt lat="46.54444" lon="0.62152">
        <ele>120.16373712569</ele>
        <time>2021-11-17T09:53:16Z</time>
      </trkpt>
      <trkpt lat="46.54446" lon="0.62153">
        <ele>120.06168625224</ele>
        <time>2021-11-17T09:53:18Z</time>
      </trkpt>
      <trkpt lat="46.54449" lon="0.62153">
        <ele>119.79877067544</ele>
        <time>2021-11-17T09:53:20Z</time>
      </trkpt>
      <trkpt lat="46.54452" lon="0.62154">
        <ele>119.47018755041</ele>
        <time>2021-11-17T09:53:22Z</time>
      </trkpt>
      <trkpt lat="46.54454" lon="0.62154">
        <ele>119.41933298577</ele>
        <time>2021-11-17T09:53:24Z</time>
      </trkpt>
      <trkpt lat="46.54457" lon="0.62155">
        <ele>119.25895306468</ele>
        <time>2021-11-17T09:53:26Z</time>
      </trkpt>
      <trkpt lat="46.5446" lon="0.62155">
        <ele>119.48150483239</ele>
        <time>2021-11-17T09:53:28Z</time>
      </trkpt>
      <trkpt lat="46.54462" lon="0.62154">
        <ele>119.18960415199</ele>
        <time>2021-11-17T09:53:29Z</time>
      </trkpt>
      <trkpt lat="46.54465" lon="0.62154">
        <ele>119.185752213</ele>
        <time>2021-11-17T09:53:32Z</time>
      </trkpt>
      <trkpt lat="46.54467" lon="0.62154">
        <ele>118.50207719114</ele>
        <time>2021-11-17T09:53:34Z</time>
      </trkpt>
      <trkpt lat="46.5447" lon="0.62155">
        <ele>118.3422780754</ele>
        <time>2021-11-17T09:53:37Z</time>
      </trkpt>
      <trkpt lat="46.54472" lon="0.62156">
        <ele>118.00332294032</ele>
        <time>2021-11-17T09:53:38Z</time>
      </trkpt>
      <trkpt lat="46.54474" lon="0.62156">
        <ele>117.9481357988</ele>
        <time>2021-11-17T09:53:39Z</time>
      </trkpt>
      <trkpt lat="46.54476" lon="0.62156">
        <ele>117.86816448811</ele>
        <time>2021-11-17T09:53:41Z</time>
      </trkpt>
      <trkpt lat="46.54479" lon="0.62156">
        <ele>117.59766942356</ele>
        <time>2021-11-17T09:53:43Z</time>
      </trkpt>
      <trkpt lat="46.54482" lon="0.62155">
        <ele>117.33651533537</ele>
        <time>2021-11-17T09:53:45Z</time>
      </trkpt>
      <trkpt lat="46.54485" lon="0.62156">
        <ele>117.58181365114</ele>
        <time>2021-11-17T09:53:47Z</time>
      </trkpt>
      <trkpt lat="46.54489" lon="0.62156">
        <ele>117.18629681785</ele>
        <time>2021-11-17T09:53:50Z</time>
      </trkpt>
      <trkpt lat="46.54492" lon="0.62156">
        <ele>117.06107932888</ele>
        <time>2021-11-17T09:53:52Z</time>
      </trkpt>
      <trkpt lat="46.54494" lon="0.62157">
        <ele>116.77365598455</ele>
        <time>2021-11-17T09:53:54Z</time>
      </trkpt>
      <trkpt lat="46.54496" lon="0.62156">
        <ele>116.78853383008</ele>
        <time>2021-11-17T09:53:56Z</time>
      </trkpt>
      <trkpt lat="46.54498" lon="0.62156">
        <ele>116.48679329734</ele>
        <time>2021-11-17T09:53:58Z</time>
      </trkpt>
      <trkpt lat="46.54501" lon="0.62156">
        <ele>116.28351335973</ele>
        <time>2021-11-17T09:54:00Z</time>
      </trkpt>
      <trkpt lat="46.54504" lon="0.62156">
        <ele>116.14385038801</ele>
        <time>2021-11-17T09:54:02Z</time>
      </trkpt>
      <trkpt lat="46.54507" lon="0.62158">
        <ele>115.90600576811</ele>
        <time>2021-11-17T09:54:05Z</time>
      </trkpt>
      <trkpt lat="46.54508" lon="0.62159">
        <ele>115.73796354048</ele>
        <time>2021-11-17T09:54:07Z</time>
      </trkpt>
      <trkpt lat="46.54511" lon="0.62158">
        <ele>115.67523746099</ele>
        <time>2021-11-17T09:54:09Z</time>
      </trkpt>
      <trkpt lat="46.54513" lon="0.62158">
        <ele>115.57862142008</ele>
        <time>2021-11-17T09:54:10Z</time>
      </trkpt>
      <trkpt lat="46.54515" lon="0.62158">
        <ele>115.60593080148</ele>
        <time>2021-11-17T09:54:11Z</time>
      </trkpt>
      <trkpt lat="46.54518" lon="0.62158">
        <ele>115.3340598708</ele>
        <time>2021-11-17T09:54:13Z</time>
      </trkpt>
      <trkpt lat="46.54521" lon="0.62158">
        <ele>114.92054323014</ele>
        <time>2021-11-17T09:54:15Z</time>
      </trkpt>
      <trkpt lat="46.54523" lon="0.62158">
        <ele>115.13307307847</ele>
        <time>2021-11-17T09:54:17Z</time>
      </trkpt>
      <trkpt lat="46.54526" lon="0.62159">
        <ele>114.30463175662</ele>
        <time>2021-11-17T09:54:19Z</time>
      </trkpt>
      <trkpt lat="46.54529" lon="0.62161">
        <ele>114.48753134627</ele>
        <time>2021-11-17T09:54:21Z</time>
      </trkpt>
      <trkpt lat="46.54532" lon="0.62162">
        <ele>114.25980701763</ele>
        <time>2021-11-17T09:54:23Z</time>
      </trkpt>
      <trkpt lat="46.54533" lon="0.62163">
        <ele>114.1701722471</ele>
        <time>2021-11-17T09:54:24Z</time>
      </trkpt>
      <trkpt lat="46.54536" lon="0.62165">
        <ele>113.8003300596</ele>
        <time>2021-11-17T09:54:26Z</time>
      </trkpt>
      <trkpt lat="46.54538" lon="0.62166">
        <ele>113.63701245375</ele>
        <time>2021-11-17T09:54:28Z</time>
      </trkpt>
      <trkpt lat="46.54541" lon="0.62168">
        <ele>113.51907914132</ele>
        <time>2021-11-17T09:54:30Z</time>
      </trkpt>
      <trkpt lat="46.54544" lon="0.6217">
        <ele>113.47055222746</ele>
        <time>2021-11-17T09:54:32Z</time>
      </trkpt>
      <trkpt lat="46.54546" lon="0.62172">
        <ele>113.41410437878</ele>
        <time>2021-11-17T09:54:34Z</time>
      </trkpt>
      <trkpt lat="46.54548" lon="0.62173">
        <ele>112.90350048337</ele>
        <time>2021-11-17T09:54:36Z</time>
      </trkpt>
      <trkpt lat="46.54551" lon="0.62174">
        <ele>113.19033370074</ele>
        <time>2021-11-17T09:54:38Z</time>
      </trkpt>
      <trkpt lat="46.54553" lon="0.62176">
        <ele>112.86638845876</ele>
        <time>2021-11-17T09:54:40Z</time>
      </trkpt>
      <trkpt lat="46.54555" lon="0.62178">
        <ele>113.01804860402</ele>
        <time>2021-11-17T09:54:42Z</time>
      </trkpt>
      <trkpt lat="46.54557" lon="0.62179">
        <ele>112.63607699797</ele>
        <time>2021-11-17T09:54:44Z</time>
      </trkpt>
      <trkpt lat="46.5456" lon="0.62181">
        <ele>112.39936803561</ele>
        <time>2021-11-17T09:54:46Z</time>
      </trkpt>
      <trkpt lat="46.54563" lon="0.62182">
        <ele>112.43567211181</ele>
        <time>2021-11-17T09:54:48Z</time>
      </trkpt>
      <trkpt lat="46.54565" lon="0.62183">
        <ele>112.43358394597</ele>
        <time>2021-11-17T09:54:50Z</time>
      </trkpt>
      <trkpt lat="46.54567" lon="0.62184">
        <ele>112.44329522364</ele>
        <time>2021-11-17T09:54:52Z</time>
      </trkpt>
      <trkpt lat="46.5457" lon="0.62186">
        <ele>112.16149245389</ele>
        <time>2021-11-17T09:54:54Z</time>
      </trkpt>
      <trkpt lat="46.54572" lon="0.62188">
        <ele>112.42286798358</ele>
        <time>2021-11-17T09:54:56Z</time>
      </trkpt>
      <trkpt lat="46.54574" lon="0.62189">
        <ele>111.85678500589</ele>
        <time>2021-11-17T09:54:58Z</time>
      </trkpt>
      <trkpt lat="46.54576" lon="0.6219">
        <ele>111.78378650546</ele>
        <time>2021-11-17T09:55:00Z</time>
      </trkpt>
      <trkpt lat="46.54578" lon="0.62191">
        <ele>111.91699230392</ele>
        <time>2021-11-17T09:55:02Z</time>
      </trkpt>
      <trkpt lat="46.54581" lon="0.62192">
        <ele>111.61392467562</ele>
        <time>2021-11-17T09:55:04Z</time>
      </trkpt>
      <trkpt lat="46.54583" lon="0.62194">
        <ele>111.60048013926</ele>
        <time>2021-11-17T09:55:06Z</time>
      </trkpt>
      <trkpt lat="46.54586" lon="0.62195">
        <ele>111.38335070014</ele>
        <time>2021-11-17T09:55:09Z</time>
      </trkpt>
      <trkpt lat="46.54589" lon="0.62197">
        <ele>111.60895844456</ele>
        <time>2021-11-17T09:55:11Z</time>
      </trkpt>
      <trkpt lat="46.54591" lon="0.62199">
        <ele>111.10304429196</ele>
        <time>2021-11-17T09:55:13Z</time>
      </trkpt>
      <trkpt lat="46.54593" lon="0.622">
        <ele>111.05431170296</ele>
        <time>2021-11-17T09:55:15Z</time>
      </trkpt>
      <trkpt lat="46.54595" lon="0.62202">
        <ele>111.06702421978</ele>
        <time>2021-11-17T09:55:17Z</time>
      </trkpt>
      <trkpt lat="46.54597" lon="0.62204">
        <ele>111.28330778889</ele>
        <time>2021-11-17T09:55:19Z</time>
      </trkpt>
      <trkpt lat="46.54599" lon="0.62206">
        <ele>111.12959779985</ele>
        <time>2021-11-17T09:55:21Z</time>
      </trkpt>
      <trkpt lat="46.54601" lon="0.62208">
        <ele>110.97141682636</ele>
        <time>2021-11-17T09:55:23Z</time>
      </trkpt>
      <trkpt lat="46.54603" lon="0.62209">
        <ele>111.22292141058</ele>
        <time>2021-11-17T09:55:25Z</time>
      </trkpt>
      <trkpt lat="46.54605" lon="0.62212">
        <ele>111.03302584402</ele>
        <time>2021-11-17T09:55:27Z</time>
      </trkpt>
      <trkpt lat="46.54607" lon="0.62214">
        <ele>111.32278793212</ele>
        <time>2021-11-17T09:55:29Z</time>
      </trkpt>
      <trkpt lat="46.54609" lon="0.62216">
        <ele>111.16735686176</ele>
        <time>2021-11-17T09:55:31Z</time>
      </trkpt>
      <trkpt lat="46.54611" lon="0.62218">
        <ele>111.10194508266</ele>
        <time>2021-11-17T09:55:34Z</time>
      </trkpt>
      <trkpt lat="46.54613" lon="0.6222">
        <ele>110.98861876782</ele>
        <time>2021-11-17T09:55:36Z</time>
      </trkpt>
      <trkpt lat="46.54615" lon="0.62221">
        <ele>111.35035475064</ele>
        <time>2021-11-17T09:55:38Z</time>
      </trkpt>
      <trkpt lat="46.54617" lon="0.62222">
        <ele>111.20118087064</ele>
        <time>2021-11-17T09:55:40Z</time>
      </trkpt>
      <trkpt lat="46.54619" lon="0.62224">
        <ele>110.86482106987</ele>
        <time>2021-11-17T09:55:42Z</time>
      </trkpt>
      <trkpt lat="46.54621" lon="0.62226">
        <ele>110.9979894748</ele>
        <time>2021-11-17T09:55:44Z</time>
      </trkpt>
      <trkpt lat="46.54623" lon="0.62228">
        <ele>110.92627031915</ele>
        <time>2021-11-17T09:55:46Z</time>
      </trkpt>
      <trkpt lat="46.54625" lon="0.62229">
        <ele>110.75383688137</ele>
        <time>2021-11-17T09:55:48Z</time>
      </trkpt>
      <trkpt lat="46.54627" lon="0.62232">
        <ele>110.81696166471</ele>
        <time>2021-11-17T09:55:50Z</time>
      </trkpt>
      <trkpt lat="46.54629" lon="0.62233">
        <ele>110.39721609</ele>
        <time>2021-11-17T09:55:52Z</time>
      </trkpt>
      <trkpt lat="46.54631" lon="0.62235">
        <ele>110.35586952604</ele>
        <time>2021-11-17T09:55:54Z</time>
      </trkpt>
      <trkpt lat="46.54633" lon="0.62237">
        <ele>110.54636065848</ele>
        <time>2021-11-17T09:55:56Z</time>
      </trkpt>
      <trkpt lat="46.54636" lon="0.62239">
        <ele>110.32098667976</ele>
        <time>2021-11-17T09:55:58Z</time>
      </trkpt>
      <trkpt lat="46.54638" lon="0.62241">
        <ele>110.32311113086</ele>
        <time>2021-11-17T09:56:00Z</time>
      </trkpt>
      <trkpt lat="46.54642" lon="0.62244">
        <ele>110.20457564574</ele>
        <time>2021-11-17T09:56:02Z</time>
      </trkpt>
      <trkpt lat="46.54644" lon="0.62245">
        <ele>109.90255201235</ele>
        <time>2021-11-17T09:56:04Z</time>
      </trkpt>
      <trkpt lat="46.54646" lon="0.62246">
        <ele>109.97260130756</ele>
        <time>2021-11-17T09:56:06Z</time>
      </trkpt>
      <trkpt lat="46.54649" lon="0.62248">
        <ele>110.19885833934</ele>
        <time>2021-11-17T09:56:08Z</time>
      </trkpt>
      <trkpt lat="46.54651" lon="0.6225">
        <ele>109.35904214717</ele>
        <time>2021-11-17T09:56:10Z</time>
      </trkpt>
      <trkpt lat="46.54653" lon="0.62252">
        <ele>109.3505311273</ele>
        <time>2021-11-17T09:56:12Z</time>
      </trkpt>
      <trkpt lat="46.54655" lon="0.62253">
        <ele>109.55574204959</ele>
        <time>2021-11-17T09:56:14Z</time>
      </trkpt>
      <trkpt lat="46.54657" lon="0.62255">
        <ele>109.21884570457</ele>
        <time>2021-11-17T09:56:16Z</time>
      </trkpt>
      <trkpt lat="46.54659" lon="0.62256">
        <ele>109.40393641498</ele>
        <time>2021-11-17T09:56:18Z</time>
      </trkpt>
      <trkpt lat="46.54661" lon="0.62257">
        <ele>109.11181874014</ele>
        <time>2021-11-17T09:56:20Z</time>
      </trkpt>
      <trkpt lat="46.54663" lon="0.62259">
        <ele>109.26765580289</ele>
        <time>2021-11-17T09:56:22Z</time>
      </trkpt>
      <trkpt lat="46.54666" lon="0.62261">
        <ele>109.32825213578</ele>
        <time>2021-11-17T09:56:24Z</time>
      </trkpt>
      <trkpt lat="46.54668" lon="0.62263">
        <ele>108.86507438589</ele>
        <time>2021-11-17T09:56:26Z</time>
      </trkpt>
      <trkpt lat="46.5467" lon="0.62265">
        <ele>108.7882645186</ele>
        <time>2021-11-17T09:56:28Z</time>
      </trkpt>
      <trkpt lat="46.54672" lon="0.62266">
        <ele>108.87508455291</ele>
        <time>2021-11-17T09:56:31Z</time>
      </trkpt>
      <trkpt lat="46.54674" lon="0.62267">
        <ele>108.50059439428</ele>
        <time>2021-11-17T09:56:33Z</time>
      </trkpt>
      <trkpt lat="46.54677" lon="0.62268">
        <ele>108.73716627434</ele>
        <time>2021-11-17T09:56:35Z</time>
      </trkpt>
      <trkpt lat="46.54679" lon="0.6227">
        <ele>108.32969652303</ele>
        <time>2021-11-17T09:56:37Z</time>
      </trkpt>
      <trkpt lat="46.54682" lon="0.62273">
        <ele>108.67129758373</ele>
        <time>2021-11-17T09:56:39Z</time>
      </trkpt>
      <trkpt lat="46.54685" lon="0.62273">
        <ele>108.56701022759</ele>
        <time>2021-11-17T09:56:41Z</time>
      </trkpt>
      <trkpt lat="46.54686" lon="0.62274">
        <ele>108.42796158232</ele>
        <time>2021-11-17T09:56:42Z</time>
      </trkpt>
      <trkpt lat="46.54689" lon="0.62275">
        <ele>108.29616252985</ele>
        <time>2021-11-17T09:56:44Z</time>
      </trkpt>
      <trkpt lat="46.54691" lon="0.62277">
        <ele>108.50418647565</ele>
        <time>2021-11-17T09:56:46Z</time>
      </trkpt>
      <trkpt lat="46.54693" lon="0.62278">
        <ele>108.63934378512</ele>
        <time>2021-11-17T09:56:48Z</time>
      </trkpt>
      <trkpt lat="46.54696" lon="0.62279">
        <ele>108.51529246569</ele>
        <time>2021-11-17T09:56:50Z</time>
      </trkpt>
      <trkpt lat="46.54699" lon="0.6228">
        <ele>108.40723553021</ele>
        <time>2021-11-17T09:56:52Z</time>
      </trkpt>
      <trkpt lat="46.54702" lon="0.62282">
        <ele>108.07663865387</ele>
        <time>2021-11-17T09:56:55Z</time>
      </trkpt>
      <trkpt lat="46.54705" lon="0.62283">
        <ele>108.33250007499</ele>
        <time>2021-11-17T09:56:58Z</time>
      </trkpt>
      <trkpt lat="46.54708" lon="0.62284">
        <ele>107.92850663792</ele>
        <time>2021-11-17T09:57:00Z</time>
      </trkpt>
      <trkpt lat="46.54711" lon="0.62285">
        <ele>107.83948258031</ele>
        <time>2021-11-17T09:57:02Z</time>
      </trkpt>
      <trkpt lat="46.54713" lon="0.62286">
        <ele>107.6991433762</ele>
        <time>2021-11-17T09:57:04Z</time>
      </trkpt>
      <trkpt lat="46.54715" lon="0.62288">
        <ele>107.97097409144</ele>
        <time>2021-11-17T09:57:06Z</time>
      </trkpt>
      <trkpt lat="46.54717" lon="0.62289">
        <ele>108.01470829267</ele>
        <time>2021-11-17T09:57:08Z</time>
      </trkpt>
      <trkpt lat="46.54719" lon="0.62291">
        <ele>107.97392673232</ele>
        <time>2021-11-17T09:57:10Z</time>
      </trkpt>
      <trkpt lat="46.54721" lon="0.62292">
        <ele>108.08399448078</ele>
        <time>2021-11-17T09:57:12Z</time>
      </trkpt>
      <trkpt lat="46.54724" lon="0.62294">
        <ele>107.78339966945</ele>
        <time>2021-11-17T09:57:14Z</time>
      </trkpt>
      <trkpt lat="46.54725" lon="0.62295">
        <ele>107.8497946579</ele>
        <time>2021-11-17T09:57:15Z</time>
      </trkpt>
      <trkpt lat="46.54728" lon="0.62296">
        <ele>107.78255057707</ele>
        <time>2021-11-17T09:57:17Z</time>
      </trkpt>
      <trkpt lat="46.5473" lon="0.62297">
        <ele>107.70161149837</ele>
        <time>2021-11-17T09:57:19Z</time>
      </trkpt>
      <trkpt lat="46.54732" lon="0.62299">
        <ele>107.6303687254</ele>
        <time>2021-11-17T09:57:21Z</time>
      </trkpt>
      <trkpt lat="46.54735" lon="0.623">
        <ele>107.26767137181</ele>
        <time>2021-11-17T09:57:23Z</time>
      </trkpt>
      <trkpt lat="46.54737" lon="0.62301">
        <ele>107.17503606621</ele>
        <time>2021-11-17T09:57:25Z</time>
      </trkpt>
      <trkpt lat="46.5474" lon="0.62303">
        <ele>106.72866307758</ele>
        <time>2021-11-17T09:57:27Z</time>
      </trkpt>
      <trkpt lat="46.54742" lon="0.62305">
        <ele>107.34234874696</ele>
        <time>2021-11-17T09:57:29Z</time>
      </trkpt>
      <trkpt lat="46.54744" lon="0.62306">
        <ele>106.61675153859</ele>
        <time>2021-11-17T09:57:31Z</time>
      </trkpt>
      <trkpt lat="46.54746" lon="0.62307">
        <ele>106.71644548699</ele>
        <time>2021-11-17T09:57:33Z</time>
      </trkpt>
      <trkpt lat="46.54749" lon="0.62309">
        <ele>106.88949171081</ele>
        <time>2021-11-17T09:57:35Z</time>
      </trkpt>
      <trkpt lat="46.54751" lon="0.6231">
        <ele>106.68473653495</ele>
        <time>2021-11-17T09:57:38Z</time>
      </trkpt>
      <trkpt lat="46.54754" lon="0.62311">
        <ele>106.59910225309</ele>
        <time>2021-11-17T09:57:40Z</time>
      </trkpt>
      <trkpt lat="46.54756" lon="0.62312">
        <ele>106.53280864935</ele>
        <time>2021-11-17T09:57:41Z</time>
      </trkpt>
      <trkpt lat="46.54758" lon="0.62313">
        <ele>106.51281052455</ele>
        <time>2021-11-17T09:57:43Z</time>
      </trkpt>
      <trkpt lat="46.54761" lon="0.62315">
        <ele>107.02487920783</ele>
        <time>2021-11-17T09:57:45Z</time>
      </trkpt>
      <trkpt lat="46.54764" lon="0.62316">
        <ele>106.68984914105</ele>
        <time>2021-11-17T09:57:47Z</time>
      </trkpt>
      <trkpt lat="46.54767" lon="0.62317">
        <ele>106.62093871739</ele>
        <time>2021-11-17T09:57:49Z</time>
      </trkpt>
      <trkpt lat="46.54771" lon="0.62317">
        <ele>106.43089255877</ele>
        <time>2021-11-17T09:57:51Z</time>
      </trkpt>
      <trkpt lat="46.54774" lon="0.62317">
        <ele>106.49714468792</ele>
        <time>2021-11-17T09:57:54Z</time>
      </trkpt>
      <trkpt lat="46.54776" lon="0.62318">
        <ele>106.54743328504</ele>
        <time>2021-11-17T09:57:56Z</time>
      </trkpt>
      <trkpt lat="46.54778" lon="0.62319">
        <ele>106.33160380181</ele>
        <time>2021-11-17T09:57:57Z</time>
      </trkpt>
      <trkpt lat="46.54781" lon="0.62319">
        <ele>106.34566042945</ele>
        <time>2021-11-17T09:57:59Z</time>
      </trkpt>
      <trkpt lat="46.54784" lon="0.6232">
        <ele>106.3185074497</ele>
        <time>2021-11-17T09:58:01Z</time>
      </trkpt>
      <trkpt lat="46.54786" lon="0.6232">
        <ele>105.95738885365</ele>
        <time>2021-11-17T09:58:03Z</time>
      </trkpt>
      <trkpt lat="46.54789" lon="0.62322">
        <ele>106.21157254837</ele>
        <time>2021-11-17T09:58:06Z</time>
      </trkpt>
      <trkpt lat="46.54791" lon="0.62322">
        <ele>106.05503510125</ele>
        <time>2021-11-17T09:58:08Z</time>
      </trkpt>
      <trkpt lat="46.54794" lon="0.62323">
        <ele>105.71486472338</ele>
        <time>2021-11-17T09:58:11Z</time>
      </trkpt>
      <trkpt lat="46.54796" lon="0.62324">
        <ele>105.71404602379</ele>
        <time>2021-11-17T09:58:13Z</time>
      </trkpt>
      <trkpt lat="46.54798" lon="0.62325">
        <ele>105.44184013549</ele>
        <time>2021-11-17T09:58:15Z</time>
      </trkpt>
      <trkpt lat="46.54801" lon="0.62326">
        <ele>105.48422163725</ele>
        <time>2021-11-17T09:58:17Z</time>
      </trkpt>
      <trkpt lat="46.54803" lon="0.62327">
        <ele>105.35073351394</ele>
        <time>2021-11-17T09:58:19Z</time>
      </trkpt>
      <trkpt lat="46.54806" lon="0.62329">
        <ele>105.19445832167</ele>
        <time>2021-11-17T09:58:21Z</time>
      </trkpt>
      <trkpt lat="46.54808" lon="0.6233">
        <ele>105.66150510591</ele>
        <time>2021-11-17T09:58:23Z</time>
      </trkpt>
      <trkpt lat="46.54811" lon="0.62331">
        <ele>104.96464709099</ele>
        <time>2021-11-17T09:58:25Z</time>
      </trkpt>
      <trkpt lat="46.54813" lon="0.62333">
        <ele>105.46868051495</ele>
        <time>2021-11-17T09:58:27Z</time>
      </trkpt>
      <trkpt lat="46.54815" lon="0.62334">
        <ele>105.06454692502</ele>
        <time>2021-11-17T09:58:30Z</time>
      </trkpt>
      <trkpt lat="46.54817" lon="0.62335">
        <ele>105.3267643759</ele>
        <time>2021-11-17T09:58:33Z</time>
      </trkpt>
      <trkpt lat="46.5482" lon="0.62336">
        <ele>105.35463356134</ele>
        <time>2021-11-17T09:58:35Z</time>
      </trkpt>
      <trkpt lat="46.54823" lon="0.62337">
        <ele>105.26244203374</ele>
        <time>2021-11-17T09:58:38Z</time>
      </trkpt>
      <trkpt lat="46.54826" lon="0.62338">
        <ele>105.71324368566</ele>
        <time>2021-11-17T09:58:40Z</time>
      </trkpt>
      <trkpt lat="46.54828" lon="0.62338">
        <ele>105.70396133233</ele>
        <time>2021-11-17T09:58:41Z</time>
      </trkpt>
      <trkpt lat="46.5483" lon="0.62339">
        <ele>105.44717548601</ele>
        <time>2021-11-17T09:58:43Z</time>
      </trkpt>
      <trkpt lat="46.54833" lon="0.62339">
        <ele>105.26382626873</ele>
        <time>2021-11-17T09:58:45Z</time>
      </trkpt>
      <trkpt lat="46.54835" lon="0.6234">
        <ele>105.29133620206</ele>
        <time>2021-11-17T09:58:47Z</time>
      </trkpt>
      <trkpt lat="46.54837" lon="0.62342">
        <ele>105.66286434047</ele>
        <time>2021-11-17T09:58:49Z</time>
      </trkpt>
      <trkpt lat="46.54839" lon="0.62342">
        <ele>105.41184564959</ele>
        <time>2021-11-17T09:58:51Z</time>
      </trkpt>
      <trkpt lat="46.54842" lon="0.62343">
        <ele>105.44771893322</ele>
        <time>2021-11-17T09:58:52Z</time>
      </trkpt>
      <trkpt lat="46.54845" lon="0.62344">
        <ele>105.23907979019</ele>
        <time>2021-11-17T09:58:54Z</time>
      </trkpt>
      <trkpt lat="46.54847" lon="0.62343">
        <ele>105.01150239166</ele>
        <time>2021-11-17T09:58:56Z</time>
      </trkpt>
      <trkpt lat="46.54851" lon="0.62345">
        <ele>104.98297131993</ele>
        <time>2021-11-17T09:58:59Z</time>
      </trkpt>
      <trkpt lat="46.54853" lon="0.62348">
        <ele>104.84062615316</ele>
        <time>2021-11-17T09:59:01Z</time>
      </trkpt>
      <trkpt lat="46.54855" lon="0.62349">
        <ele>104.99100558925</ele>
        <time>2021-11-17T09:59:02Z</time>
      </trkpt>
      <trkpt lat="46.54857" lon="0.62351">
        <ele>104.955177119</ele>
        <time>2021-11-17T09:59:04Z</time>
      </trkpt>
      <trkpt lat="46.54859" lon="0.62352">
        <ele>104.91146241315</ele>
        <time>2021-11-17T09:59:06Z</time>
      </trkpt>
      <trkpt lat="46.54862" lon="0.62354">
        <ele>104.66698419303</ele>
        <time>2021-11-17T09:59:08Z</time>
      </trkpt>
      <trkpt lat="46.54865" lon="0.62355">
        <ele>104.77705937997</ele>
        <time>2021-11-17T09:59:10Z</time>
      </trkpt>
      <trkpt lat="46.54867" lon="0.62357">
        <ele>104.68655014224</ele>
        <time>2021-11-17T09:59:12Z</time>
      </trkpt>
      <trkpt lat="46.5487" lon="0.62359">
        <ele>104.54754263815</ele>
        <time>2021-11-17T09:59:14Z</time>
      </trkpt>
      <trkpt lat="46.54872" lon="0.6236">
        <ele>104.45847825892</ele>
        <time>2021-11-17T09:59:16Z</time>
      </trkpt>
      <trkpt lat="46.54875" lon="0.62362">
        <ele>104.1942120688</ele>
        <time>2021-11-17T09:59:18Z</time>
      </trkpt>
      <trkpt lat="46.54877" lon="0.62364">
        <ele>104.78895245679</ele>
        <time>2021-11-17T09:59:20Z</time>
      </trkpt>
      <trkpt lat="46.54878" lon="0.62367">
        <ele>104.34580311272</ele>
        <time>2021-11-17T09:59:22Z</time>
      </trkpt>
      <trkpt lat="46.5488" lon="0.62369">
        <ele>104.35821247101</ele>
        <time>2021-11-17T09:59:24Z</time>
      </trkpt>
      <trkpt lat="46.54882" lon="0.62371">
        <ele>104.71050429717</ele>
        <time>2021-11-17T09:59:26Z</time>
      </trkpt>
      <trkpt lat="46.54883" lon="0.62372">
        <ele>104.28864241671</ele>
        <time>2021-11-17T09:59:28Z</time>
      </trkpt>
      <trkpt lat="46.54886" lon="0.62374">
        <ele>104.40441801865</ele>
        <time>2021-11-17T09:59:30Z</time>
      </trkpt>
      <trkpt lat="46.54888" lon="0.62376">
        <ele>104.25891785137</ele>
        <time>2021-11-17T09:59:32Z</time>
      </trkpt>
      <trkpt lat="46.5489" lon="0.62379">
        <ele>104.53334963694</ele>
        <time>2021-11-17T09:59:35Z</time>
      </trkpt>
      <trkpt lat="46.54891" lon="0.62381">
        <ele>104.48300813697</ele>
        <time>2021-11-17T09:59:36Z</time>
      </trkpt>
      <trkpt lat="46.54892" lon="0.62383">
        <ele>104.45119695924</ele>
        <time>2021-11-17T09:59:37Z</time>
      </trkpt>
      <trkpt lat="46.54895" lon="0.62386">
        <ele>104.41989444103</ele>
        <time>2021-11-17T09:59:39Z</time>
      </trkpt>
      <trkpt lat="46.54897" lon="0.62388">
        <ele>104.4664704958</ele>
        <time>2021-11-17T09:59:41Z</time>
      </trkpt>
      <trkpt lat="46.54899" lon="0.6239">
        <ele>103.88139521331</ele>
        <time>2021-11-17T09:59:43Z</time>
      </trkpt>
      <trkpt lat="46.549" lon="0.62392">
        <ele>104.18072115723</ele>
        <time>2021-11-17T09:59:45Z</time>
      </trkpt>
      <trkpt lat="46.54902" lon="0.62394">
        <ele>104.17469061352</ele>
        <time>2021-11-17T09:59:47Z</time>
      </trkpt>
      <trkpt lat="46.54904" lon="0.62397">
        <ele>103.92894644663</ele>
        <time>2021-11-17T09:59:49Z</time>
      </trkpt>
      <trkpt lat="46.54905" lon="0.62399">
        <ele>103.8329697866</ele>
        <time>2021-11-17T09:59:50Z</time>
      </trkpt>
      <trkpt lat="46.54907" lon="0.62402">
        <ele>104.25047672912</ele>
        <time>2021-11-17T09:59:52Z</time>
      </trkpt>
      <trkpt lat="46.54909" lon="0.62405">
        <ele>103.93110679649</ele>
        <time>2021-11-17T09:59:54Z</time>
      </trkpt>
      <trkpt lat="46.54911" lon="0.62407">
        <ele>103.86491779611</ele>
        <time>2021-11-17T09:59:56Z</time>
      </trkpt>
      <trkpt lat="46.54913" lon="0.62409">
        <ele>103.67081389297</ele>
        <time>2021-11-17T09:59:58Z</time>
      </trkpt>
      <trkpt lat="46.54915" lon="0.6241">
        <ele>103.74248467665</ele>
        <time>2021-11-17T10:00:00Z</time>
      </trkpt>
      <trkpt lat="46.54916" lon="0.62412">
        <ele>103.55821040832</ele>
        <time>2021-11-17T10:00:02Z</time>
      </trkpt>
      <trkpt lat="46.54918" lon="0.62413">
        <ele>103.61830675323</ele>
        <time>2021-11-17T10:00:04Z</time>
      </trkpt>
      <trkpt lat="46.5492" lon="0.62415">
        <ele>102.97238123044</ele>
        <time>2021-11-17T10:00:06Z</time>
      </trkpt>
      <trkpt lat="46.54922" lon="0.62417">
        <ele>103.13447596505</ele>
        <time>2021-11-17T10:00:09Z</time>
      </trkpt>
      <trkpt lat="46.54924" lon="0.62419">
        <ele>103.10298155155</ele>
        <time>2021-11-17T10:00:11Z</time>
      </trkpt>
      <trkpt lat="46.54927" lon="0.62421">
        <ele>102.95086189266</ele>
        <time>2021-11-17T10:00:13Z</time>
      </trkpt>
      <trkpt lat="46.5493" lon="0.62422">
        <ele>102.87733855657</ele>
        <time>2021-11-17T10:00:15Z</time>
      </trkpt>
      <trkpt lat="46.54932" lon="0.62423">
        <ele>102.33486976475</ele>
        <time>2021-11-17T10:00:17Z</time>
      </trkpt>
      <trkpt lat="46.54934" lon="0.62423">
        <ele>102.81435996853</ele>
        <time>2021-11-17T10:00:19Z</time>
      </trkpt>
      <trkpt lat="46.54935" lon="0.62425">
        <ele>102.66026028618</ele>
        <time>2021-11-17T10:00:21Z</time>
      </trkpt>
      <trkpt lat="46.54938" lon="0.62425">
        <ele>102.57359076757</ele>
        <time>2021-11-17T10:00:23Z</time>
      </trkpt>
      <trkpt lat="46.54941" lon="0.62425">
        <ele>102.27982512303</ele>
        <time>2021-11-17T10:00:25Z</time>
      </trkpt>
      <trkpt lat="46.54943" lon="0.62425">
        <ele>102.52420554776</ele>
        <time>2021-11-17T10:00:27Z</time>
      </trkpt>
      <trkpt lat="46.54945" lon="0.62425">
        <ele>102.26675692108</ele>
        <time>2021-11-17T10:00:29Z</time>
      </trkpt>
      <trkpt lat="46.54947" lon="0.62425">
        <ele>102.07678232249</ele>
        <time>2021-11-17T10:00:31Z</time>
      </trkpt>
      <trkpt lat="46.5495" lon="0.62425">
        <ele>102.26417538151</ele>
        <time>2021-11-17T10:00:32Z</time>
      </trkpt>
      <trkpt lat="46.54952" lon="0.62425">
        <ele>102.35994121805</ele>
        <time>2021-11-17T10:00:34Z</time>
      </trkpt>
      <trkpt lat="46.54955" lon="0.62426">
        <ele>102.39429761376</ele>
        <time>2021-11-17T10:00:36Z</time>
      </trkpt>
      <trkpt lat="46.54958" lon="0.62426">
        <ele>102.08378619328</ele>
        <time>2021-11-17T10:00:38Z</time>
      </trkpt>
      <trkpt lat="46.54961" lon="0.62426">
        <ele>102.18490518071</ele>
        <time>2021-11-17T10:00:40Z</time>
      </trkpt>
      <trkpt lat="46.54963" lon="0.62427">
        <ele>101.97555543389</ele>
        <time>2021-11-17T10:00:41Z</time>
      </trkpt>
      <trkpt lat="46.54965" lon="0.62429">
        <ele>102.08751459699</ele>
        <time>2021-11-17T10:00:43Z</time>
      </trkpt>
      <trkpt lat="46.54966" lon="0.6243">
        <ele>102.14251267631</ele>
        <time>2021-11-17T10:00:45Z</time>
      </trkpt>
      <trkpt lat="46.54969" lon="0.62431">
        <ele>102.12843382824</ele>
        <time>2021-11-17T10:00:47Z</time>
      </trkpt>
      <trkpt lat="46.54972" lon="0.62432">
        <ele>101.94588839263</ele>
        <time>2021-11-17T10:00:49Z</time>
      </trkpt>
      <trkpt lat="46.54974" lon="0.62434">
        <ele>102.04245629814</ele>
        <time>2021-11-17T10:00:52Z</time>
      </trkpt>
      <trkpt lat="46.54977" lon="0.62434">
        <ele>101.89042306598</ele>
        <time>2021-11-17T10:00:54Z</time>
      </trkpt>
      <trkpt lat="46.54979" lon="0.62434">
        <ele>101.90027090721</ele>
        <time>2021-11-17T10:00:55Z</time>
      </trkpt>
      <trkpt lat="46.54981" lon="0.62435">
        <ele>101.59843610041</ele>
        <time>2021-11-17T10:00:57Z</time>
      </trkpt>
      <trkpt lat="46.54984" lon="0.62435">
        <ele>101.45031458419</ele>
        <time>2021-11-17T10:00:59Z</time>
      </trkpt>
      <trkpt lat="46.54985" lon="0.62437">
        <ele>101.58827838767</ele>
        <time>2021-11-17T10:01:01Z</time>
      </trkpt>
      <trkpt lat="46.54988" lon="0.62437">
        <ele>101.44661874883</ele>
        <time>2021-11-17T10:01:03Z</time>
      </trkpt>
      <trkpt lat="46.54992" lon="0.62438">
        <ele>101.12674823217</ele>
        <time>2021-11-17T10:01:05Z</time>
      </trkpt>
      <trkpt lat="46.54993" lon="0.62438">
        <ele>101.25725979079</ele>
        <time>2021-11-17T10:01:07Z</time>
      </trkpt>
      <trkpt lat="46.54996" lon="0.62438">
        <ele>101.0322280582</ele>
        <time>2021-11-17T10:01:09Z</time>
      </trkpt>
      <trkpt lat="46.54999" lon="0.62439">
        <ele>101.00135141145</ele>
        <time>2021-11-17T10:01:11Z</time>
      </trkpt>
      <trkpt lat="46.55" lon="0.6244">
        <ele>101.10186050273</ele>
        <time>2021-11-17T10:01:12Z</time>
      </trkpt>
      <trkpt lat="46.55002" lon="0.62441">
        <ele>100.98079228867</ele>
        <time>2021-11-17T10:01:14Z</time>
      </trkpt>
      <trkpt lat="46.55004" lon="0.62441">
        <ele>100.8847768316</ele>
        <time>2021-11-17T10:01:16Z</time>
      </trkpt>
      <trkpt lat="46.55008" lon="0.62442">
        <ele>100.71342150029</ele>
        <time>2021-11-17T10:01:18Z</time>
      </trkpt>
      <trkpt lat="46.55011" lon="0.62444">
        <ele>100.37444692757</ele>
        <time>2021-11-17T10:01:21Z</time>
      </trkpt>
      <trkpt lat="46.55013" lon="0.62444">
        <ele>100.46951681189</ele>
        <time>2021-11-17T10:01:22Z</time>
      </trkpt>
      <trkpt lat="46.55015" lon="0.62445">
        <ele>100.21979639586</ele>
        <time>2021-11-17T10:01:23Z</time>
      </trkpt>
      <trkpt lat="46.55017" lon="0.62446">
        <ele>99.706121178344</ele>
        <time>2021-11-17T10:01:25Z</time>
      </trkpt>
      <trkpt lat="46.5502" lon="0.62447">
        <ele>99.487583953887</ele>
        <time>2021-11-17T10:01:27Z</time>
      </trkpt>
      <trkpt lat="46.55021" lon="0.62449">
        <ele>99.492253741249</ele>
        <time>2021-11-17T10:01:29Z</time>
      </trkpt>
      <trkpt lat="46.55023" lon="0.62451">
        <ele>99.180809540674</ele>
        <time>2021-11-17T10:01:31Z</time>
      </trkpt>
      <trkpt lat="46.55024" lon="0.62454">
        <ele>98.671444701962</ele>
        <time>2021-11-17T10:01:34Z</time>
      </trkpt>
      <trkpt lat="46.55026" lon="0.62457">
        <ele>98.901120749302</ele>
        <time>2021-11-17T10:01:37Z</time>
      </trkpt>
      <trkpt lat="46.55028" lon="0.62461">
        <ele>98.618970628828</ele>
        <time>2021-11-17T10:01:40Z</time>
      </trkpt>
      <trkpt lat="46.55029" lon="0.62464">
        <ele>98.499812214635</ele>
        <time>2021-11-17T10:01:42Z</time>
      </trkpt>
      <trkpt lat="46.55031" lon="0.62465">
        <ele>98.344165928662</ele>
        <time>2021-11-17T10:01:44Z</time>
      </trkpt>
      <trkpt lat="46.55033" lon="0.62468">
        <ele>98.479454496875</ele>
        <time>2021-11-17T10:01:46Z</time>
      </trkpt>
      <trkpt lat="46.55035" lon="0.6247">
        <ele>98.184648179449</ele>
        <time>2021-11-17T10:01:48Z</time>
      </trkpt>
      <trkpt lat="46.55037" lon="0.62473">
        <ele>97.792973513715</ele>
        <time>2021-11-17T10:01:50Z</time>
      </trkpt>
      <trkpt lat="46.55038" lon="0.62475">
        <ele>97.865357943811</ele>
        <time>2021-11-17T10:01:52Z</time>
      </trkpt>
      <trkpt lat="46.55041" lon="0.62477">
        <ele>97.881396529265</ele>
        <time>2021-11-17T10:01:54Z</time>
      </trkpt>
      <trkpt lat="46.55043" lon="0.62479">
        <ele>97.598462502472</ele>
        <time>2021-11-17T10:01:56Z</time>
      </trkpt>
      <trkpt lat="46.55045" lon="0.62481">
        <ele>97.39640758466</ele>
        <time>2021-11-17T10:01:58Z</time>
      </trkpt>
      <trkpt lat="46.55047" lon="0.62482">
        <ele>97.329724346288</ele>
        <time>2021-11-17T10:02:00Z</time>
      </trkpt>
      <trkpt lat="46.55049" lon="0.62484">
        <ele>97.148736103438</ele>
        <time>2021-11-17T10:02:02Z</time>
      </trkpt>
      <trkpt lat="46.5505" lon="0.62486">
        <ele>97.064771666192</ele>
        <time>2021-11-17T10:02:04Z</time>
      </trkpt>
      <trkpt lat="46.55052" lon="0.62488">
        <ele>96.865164290182</ele>
        <time>2021-11-17T10:02:06Z</time>
      </trkpt>
      <trkpt lat="46.55054" lon="0.6249">
        <ele>97.105238276534</ele>
        <time>2021-11-17T10:02:08Z</time>
      </trkpt>
      <trkpt lat="46.55056" lon="0.62492">
        <ele>96.677650372498</ele>
        <time>2021-11-17T10:02:11Z</time>
      </trkpt>
      <trkpt lat="46.5506" lon="0.62493">
        <ele>96.418870500289</ele>
        <time>2021-11-17T10:02:14Z</time>
      </trkpt>
      <trkpt lat="46.55062" lon="0.62494">
        <ele>96.434312147088</ele>
        <time>2021-11-17T10:02:16Z</time>
      </trkpt>
      <trkpt lat="46.55064" lon="0.62496">
        <ele>96.408169226721</ele>
        <time>2021-11-17T10:02:18Z</time>
      </trkpt>
      <trkpt lat="46.55066" lon="0.62498">
        <ele>95.904172352515</ele>
        <time>2021-11-17T10:02:20Z</time>
      </trkpt>
      <trkpt lat="46.55069" lon="0.62499">
        <ele>96.12341794651</ele>
        <time>2021-11-17T10:02:22Z</time>
      </trkpt>
      <trkpt lat="46.5507" lon="0.625">
        <ele>95.952955434099</ele>
        <time>2021-11-17T10:02:23Z</time>
      </trkpt>
      <trkpt lat="46.55072" lon="0.62502">
        <ele>95.485717575997</ele>
        <time>2021-11-17T10:02:25Z</time>
      </trkpt>
      <trkpt lat="46.55075" lon="0.62503">
        <ele>95.546231675893</ele>
        <time>2021-11-17T10:02:27Z</time>
      </trkpt>
      <trkpt lat="46.55077" lon="0.62504">
        <ele>95.344711610116</ele>
        <time>2021-11-17T10:02:29Z</time>
      </trkpt>
      <trkpt lat="46.5508" lon="0.62507">
        <ele>94.881072640419</ele>
        <time>2021-11-17T10:02:32Z</time>
      </trkpt>
      <trkpt lat="46.55081" lon="0.62508">
        <ele>94.705061300658</ele>
        <time>2021-11-17T10:02:34Z</time>
      </trkpt>
      <trkpt lat="46.55083" lon="0.62509">
        <ele>94.424624382518</ele>
        <time>2021-11-17T10:02:36Z</time>
      </trkpt>
      <trkpt lat="46.55085" lon="0.62512">
        <ele>94.261107255705</ele>
        <time>2021-11-17T10:02:39Z</time>
      </trkpt>
      <trkpt lat="46.55087" lon="0.62512">
        <ele>93.948494118638</ele>
        <time>2021-11-17T10:02:42Z</time>
      </trkpt>
      <trkpt lat="46.5509" lon="0.62513">
        <ele>93.89543778263</ele>
        <time>2021-11-17T10:02:45Z</time>
      </trkpt>
      <trkpt lat="46.55093" lon="0.62514">
        <ele>93.82337119896</ele>
        <time>2021-11-17T10:02:46Z</time>
      </trkpt>
      <trkpt lat="46.55095" lon="0.62515">
        <ele>93.879819550551</ele>
        <time>2021-11-17T10:02:47Z</time>
      </trkpt>
      <trkpt lat="46.55097" lon="0.62516">
        <ele>93.857960896567</ele>
        <time>2021-11-17T10:02:48Z</time>
      </trkpt>
      <trkpt lat="46.55098" lon="0.62518">
        <ele>93.435645740479</ele>
        <time>2021-11-17T10:02:50Z</time>
      </trkpt>
      <trkpt lat="46.55101" lon="0.6252">
        <ele>93.223464460112</ele>
        <time>2021-11-17T10:02:52Z</time>
      </trkpt>
      <trkpt lat="46.55102" lon="0.62522">
        <ele>92.973738484085</ele>
        <time>2021-11-17T10:02:54Z</time>
      </trkpt>
      <trkpt lat="46.55105" lon="0.62525">
        <ele>92.483191602863</ele>
        <time>2021-11-17T10:02:57Z</time>
      </trkpt>
      <trkpt lat="46.55107" lon="0.62526">
        <ele>92.175174129196</ele>
        <time>2021-11-17T10:02:59Z</time>
      </trkpt>
      <trkpt lat="46.55109" lon="0.62528">
        <ele>91.784251571633</ele>
        <time>2021-11-17T10:03:01Z</time>
      </trkpt>
      <trkpt lat="46.55112" lon="0.62529">
        <ele>91.859437615611</ele>
        <time>2021-11-17T10:03:03Z</time>
      </trkpt>
      <trkpt lat="46.55115" lon="0.62529">
        <ele>91.373287075199</ele>
        <time>2021-11-17T10:03:05Z</time>
      </trkpt>
      <trkpt lat="46.55117" lon="0.6253">
        <ele>91.640708293766</ele>
        <time>2021-11-17T10:03:07Z</time>
      </trkpt>
      <trkpt lat="46.5512" lon="0.62529">
        <ele>91.170839072205</ele>
        <time>2021-11-17T10:03:09Z</time>
      </trkpt>
      <trkpt lat="46.55122" lon="0.62528">
        <ele>91.097970427945</ele>
        <time>2021-11-17T10:03:11Z</time>
      </trkpt>
      <trkpt lat="46.55125" lon="0.62527">
        <ele>91.267931470647</ele>
        <time>2021-11-17T10:03:13Z</time>
      </trkpt>
      <trkpt lat="46.55128" lon="0.62528">
        <ele>90.895630905405</ele>
        <time>2021-11-17T10:03:16Z</time>
      </trkpt>
      <trkpt lat="46.55131" lon="0.62528">
        <ele>90.783648422919</ele>
        <time>2021-11-17T10:03:18Z</time>
      </trkpt>
      <trkpt lat="46.55132" lon="0.62528">
        <ele>90.842349108309</ele>
        <time>2021-11-17T10:03:19Z</time>
      </trkpt>
      <trkpt lat="46.55134" lon="0.6253">
        <ele>90.730679869652</ele>
        <time>2021-11-17T10:03:20Z</time>
      </trkpt>
      <trkpt lat="46.55137" lon="0.62529">
        <ele>90.751066292636</ele>
        <time>2021-11-17T10:03:22Z</time>
      </trkpt>
      <trkpt lat="46.5514" lon="0.62529">
        <ele>90.454134983942</ele>
        <time>2021-11-17T10:03:24Z</time>
      </trkpt>
      <trkpt lat="46.55142" lon="0.6253">
        <ele>90.187334674411</ele>
        <time>2021-11-17T10:03:26Z</time>
      </trkpt>
      <trkpt lat="46.55144" lon="0.62532">
        <ele>90.272777235135</ele>
        <time>2021-11-17T10:03:28Z</time>
      </trkpt>
      <trkpt lat="46.55146" lon="0.62532">
        <ele>90.331926921383</ele>
        <time>2021-11-17T10:03:30Z</time>
      </trkpt>
      <trkpt lat="46.55148" lon="0.62532">
        <ele>90.280634927563</ele>
        <time>2021-11-17T10:03:31Z</time>
      </trkpt>
      <trkpt lat="46.5515" lon="0.62534">
        <ele>90.242434952408</ele>
        <time>2021-11-17T10:03:34Z</time>
      </trkpt>
      <trkpt lat="46.55152" lon="0.62536">
        <ele>90.068550215103</ele>
        <time>2021-11-17T10:03:35Z</time>
      </trkpt>
      <trkpt lat="46.55154" lon="0.62536">
        <ele>89.964632056653</ele>
        <time>2021-11-17T10:03:37Z</time>
      </trkpt>
      <trkpt lat="46.55156" lon="0.62538">
        <ele>89.892699533142</ele>
        <time>2021-11-17T10:03:40Z</time>
      </trkpt>
      <trkpt lat="46.55159" lon="0.6254">
        <ele>89.577522971667</ele>
        <time>2021-11-17T10:03:42Z</time>
      </trkpt>
      <trkpt lat="46.55162" lon="0.62542">
        <ele>89.458893672563</ele>
        <time>2021-11-17T10:03:45Z</time>
      </trkpt>
      <trkpt lat="46.55164" lon="0.62544">
        <ele>89.536925400607</ele>
        <time>2021-11-17T10:03:47Z</time>
      </trkpt>
      <trkpt lat="46.55166" lon="0.62545">
        <ele>89.27374420315</ele>
        <time>2021-11-17T10:03:49Z</time>
      </trkpt>
      <trkpt lat="46.55168" lon="0.62548">
        <ele>89.253197447397</ele>
        <time>2021-11-17T10:03:51Z</time>
      </trkpt>
      <trkpt lat="46.55169" lon="0.6255">
        <ele>89.047055366449</ele>
        <time>2021-11-17T10:03:54Z</time>
      </trkpt>
      <trkpt lat="46.55171" lon="0.62552">
        <ele>88.666300299577</ele>
        <time>2021-11-17T10:03:56Z</time>
      </trkpt>
      <trkpt lat="46.55173" lon="0.62553">
        <ele>88.833149404265</ele>
        <time>2021-11-17T10:03:58Z</time>
      </trkpt>
      <trkpt lat="46.55175" lon="0.62555">
        <ele>88.588074237108</ele>
        <time>2021-11-17T10:04:00Z</time>
      </trkpt>
      <trkpt lat="46.55177" lon="0.62556">
        <ele>88.183774028905</ele>
        <time>2021-11-17T10:04:02Z</time>
      </trkpt>
      <trkpt lat="46.55179" lon="0.62557">
        <ele>88.588698468171</ele>
        <time>2021-11-17T10:04:04Z</time>
      </trkpt>
      <trkpt lat="46.55182" lon="0.62558">
        <ele>88.058329906315</ele>
        <time>2021-11-17T10:04:06Z</time>
      </trkpt>
      <trkpt lat="46.55184" lon="0.62559">
        <ele>88.044680579565</ele>
        <time>2021-11-17T10:04:08Z</time>
      </trkpt>
      <trkpt lat="46.55186" lon="0.62561">
        <ele>87.970903353766</ele>
        <time>2021-11-17T10:04:11Z</time>
      </trkpt>
      <trkpt lat="46.55188" lon="0.62562">
        <ele>88.051146816462</ele>
        <time>2021-11-17T10:04:14Z</time>
      </trkpt>
      <trkpt lat="46.5519" lon="0.62564">
        <ele>87.679056763649</ele>
        <time>2021-11-17T10:04:16Z</time>
      </trkpt>
      <trkpt lat="46.55193" lon="0.62566">
        <ele>87.99924967438</ele>
        <time>2021-11-17T10:04:18Z</time>
      </trkpt>
      <trkpt lat="46.55195" lon="0.62568">
        <ele>87.664471546188</ele>
        <time>2021-11-17T10:04:20Z</time>
      </trkpt>
      <trkpt lat="46.55197" lon="0.6257">
        <ele>87.590169869363</ele>
        <time>2021-11-17T10:04:22Z</time>
      </trkpt>
      <trkpt lat="46.552" lon="0.62572">
        <ele>87.232946065255</ele>
        <time>2021-11-17T10:04:24Z</time>
      </trkpt>
      <trkpt lat="46.55201" lon="0.62573">
        <ele>87.077446211129</ele>
        <time>2021-11-17T10:04:25Z</time>
      </trkpt>
      <trkpt lat="46.55203" lon="0.62575">
        <ele>87.395554954186</ele>
        <time>2021-11-17T10:04:27Z</time>
      </trkpt>
      <trkpt lat="46.55205" lon="0.62577">
        <ele>87.082361223176</ele>
        <time>2021-11-17T10:04:30Z</time>
      </trkpt>
      <trkpt lat="46.55207" lon="0.62578">
        <ele>87.106058557518</ele>
        <time>2021-11-17T10:04:32Z</time>
      </trkpt>
      <trkpt lat="46.55209" lon="0.6258">
        <ele>86.791660349816</ele>
        <time>2021-11-17T10:04:34Z</time>
      </trkpt>
      <trkpt lat="46.5521" lon="0.62582">
        <ele>86.614043591544</ele>
        <time>2021-11-17T10:04:36Z</time>
      </trkpt>
      <trkpt lat="46.55212" lon="0.62584">
        <ele>86.33247700613</ele>
        <time>2021-11-17T10:04:39Z</time>
      </trkpt>
      <trkpt lat="46.55215" lon="0.62586">
        <ele>85.971744157374</ele>
        <time>2021-11-17T10:04:41Z</time>
      </trkpt>
      <trkpt lat="46.55217" lon="0.62589">
        <ele>85.689905151725</ele>
        <time>2021-11-17T10:04:43Z</time>
      </trkpt>
      <trkpt lat="46.55218" lon="0.62589">
        <ele>85.577736726962</ele>
        <time>2021-11-17T10:04:44Z</time>
      </trkpt>
      <trkpt lat="46.5522" lon="0.6259">
        <ele>85.732677527703</ele>
        <time>2021-11-17T10:04:46Z</time>
      </trkpt>
      <trkpt lat="46.55222" lon="0.62592">
        <ele>85.760705896653</ele>
        <time>2021-11-17T10:04:48Z</time>
      </trkpt>
      <trkpt lat="46.55225" lon="0.62594">
        <ele>84.897475831211</ele>
        <time>2021-11-17T10:04:50Z</time>
      </trkpt>
      <trkpt lat="46.55227" lon="0.62595">
        <ele>85.205483868718</ele>
        <time>2021-11-17T10:04:52Z</time>
      </trkpt>
      <trkpt lat="46.55229" lon="0.62597">
        <ele>85.00177098345</ele>
        <time>2021-11-17T10:04:54Z</time>
      </trkpt>
      <trkpt lat="46.55231" lon="0.62601">
        <ele>84.827518186532</ele>
        <time>2021-11-17T10:04:56Z</time>
      </trkpt>
      <trkpt lat="46.55233" lon="0.62602">
        <ele>84.995480529033</ele>
        <time>2021-11-17T10:04:57Z</time>
      </trkpt>
      <trkpt lat="46.55234" lon="0.62604">
        <ele>84.880143912509</ele>
        <time>2021-11-17T10:04:58Z</time>
      </trkpt>
      <trkpt lat="46.55235" lon="0.62608">
        <ele>84.945325301029</ele>
        <time>2021-11-17T10:05:00Z</time>
      </trkpt>
      <trkpt lat="46.55236" lon="0.62611">
        <ele>84.788228470832</ele>
        <time>2021-11-17T10:05:02Z</time>
      </trkpt>
      <trkpt lat="46.55237" lon="0.62614">
        <ele>84.508766644634</ele>
        <time>2021-11-17T10:05:04Z</time>
      </trkpt>
      <trkpt lat="46.55239" lon="0.62617">
        <ele>84.002118104137</ele>
        <time>2021-11-17T10:05:06Z</time>
      </trkpt>
      <trkpt lat="46.55241" lon="0.62619">
        <ele>84.076743942685</ele>
        <time>2021-11-17T10:05:08Z</time>
      </trkpt>
      <trkpt lat="46.55242" lon="0.62621">
        <ele>83.94293512404</ele>
        <time>2021-11-17T10:05:10Z</time>
      </trkpt>
      <trkpt lat="46.55244" lon="0.62623">
        <ele>83.894271072</ele>
        <time>2021-11-17T10:05:12Z</time>
      </trkpt>
      <trkpt lat="46.55245" lon="0.62625">
        <ele>83.344701752998</ele>
        <time>2021-11-17T10:05:14Z</time>
      </trkpt>
      <trkpt lat="46.55247" lon="0.6263">
        <ele>83.158848470077</ele>
        <time>2021-11-17T10:05:17Z</time>
      </trkpt>
      <trkpt lat="46.55248" lon="0.62632">
        <ele>83.374080381356</ele>
        <time>2021-11-17T10:05:20Z</time>
      </trkpt>
      <trkpt lat="46.55248" lon="0.62635">
        <ele>82.887511834502</ele>
        <time>2021-11-17T10:05:22Z</time>
      </trkpt>
      <trkpt lat="46.55248" lon="0.62639">
        <ele>82.561707341112</ele>
        <time>2021-11-17T10:05:24Z</time>
      </trkpt>
      <trkpt lat="46.55247" lon="0.62643">
        <ele>82.431954521686</ele>
        <time>2021-11-17T10:05:27Z</time>
      </trkpt>
      <trkpt lat="46.55247" lon="0.62646">
        <ele>82.45386537537</ele>
        <time>2021-11-17T10:05:29Z</time>
      </trkpt>
      <trkpt lat="46.55246" lon="0.6265">
        <ele>82.261858156882</ele>
        <time>2021-11-17T10:05:31Z</time>
      </trkpt>
      <trkpt lat="46.55246" lon="0.62655">
        <ele>82.567073964514</ele>
        <time>2021-11-17T10:05:33Z</time>
      </trkpt>
      <trkpt lat="46.55246" lon="0.62659">
        <ele>82.650150891393</ele>
        <time>2021-11-17T10:05:35Z</time>
      </trkpt>
      <trkpt lat="46.55246" lon="0.62662">
        <ele>82.356700523756</ele>
        <time>2021-11-17T10:05:37Z</time>
      </trkpt>
      <trkpt lat="46.55245" lon="0.62666">
        <ele>81.913497038186</ele>
        <time>2021-11-17T10:05:39Z</time>
      </trkpt>
      <trkpt lat="46.55244" lon="0.62669">
        <ele>82.370982590131</ele>
        <time>2021-11-17T10:05:41Z</time>
      </trkpt>
      <trkpt lat="46.55245" lon="0.62673">
        <ele>82.397341597825</ele>
        <time>2021-11-17T10:05:43Z</time>
      </trkpt>
      <trkpt lat="46.55246" lon="0.62675">
        <ele>82.470422400162</ele>
        <time>2021-11-17T10:05:44Z</time>
      </trkpt>
      <trkpt lat="46.55245" lon="0.62679">
        <ele>82.061431095004</ele>
        <time>2021-11-17T10:05:46Z</time>
      </trkpt>
      <trkpt lat="46.55245" lon="0.62682">
        <ele>82.136284446344</ele>
        <time>2021-11-17T10:05:48Z</time>
      </trkpt>
      <trkpt lat="46.55246" lon="0.62686">
        <ele>81.628163451329</ele>
        <time>2021-11-17T10:05:50Z</time>
      </trkpt>
      <trkpt lat="46.55246" lon="0.62689">
        <ele>81.620101192035</ele>
        <time>2021-11-17T10:05:52Z</time>
      </trkpt>
      <trkpt lat="46.55246" lon="0.62691">
        <ele>81.403571693227</ele>
        <time>2021-11-17T10:05:54Z</time>
      </trkpt>
      <trkpt lat="46.55247" lon="0.62695">
        <ele>81.203742158599</ele>
        <time>2021-11-17T10:05:56Z</time>
      </trkpt>
      <trkpt lat="46.55247" lon="0.62699">
        <ele>80.914657533169</ele>
        <time>2021-11-17T10:05:58Z</time>
      </trkpt>
      <trkpt lat="46.55246" lon="0.62702">
        <ele>80.646191879176</ele>
        <time>2021-11-17T10:06:00Z</time>
      </trkpt>
      <trkpt lat="46.55246" lon="0.62705">
        <ele>80.534057272598</ele>
        <time>2021-11-17T10:06:02Z</time>
      </trkpt>
      <trkpt lat="46.55247" lon="0.62708">
        <ele>80.375872637145</ele>
        <time>2021-11-17T10:06:04Z</time>
      </trkpt>
      <trkpt lat="46.55248" lon="0.62711">
        <ele>80.522767850198</ele>
        <time>2021-11-17T10:06:06Z</time>
      </trkpt>
      <trkpt lat="46.5525" lon="0.62714">
        <ele>80.082848903723</ele>
        <time>2021-11-17T10:06:08Z</time>
      </trkpt>
      <trkpt lat="46.55251" lon="0.62717">
        <ele>79.849643001333</ele>
        <time>2021-11-17T10:06:11Z</time>
      </trkpt>
      <trkpt lat="46.55253" lon="0.6272">
        <ele>79.629719419405</ele>
        <time>2021-11-17T10:06:13Z</time>
      </trkpt>
      <trkpt lat="46.55253" lon="0.62724">
        <ele>79.7160496898</ele>
        <time>2021-11-17T10:06:15Z</time>
      </trkpt>
      <trkpt lat="46.55254" lon="0.62727">
        <ele>79.420628736727</ele>
        <time>2021-11-17T10:06:18Z</time>
      </trkpt>
      <trkpt lat="46.55255" lon="0.6273">
        <ele>79.319137344137</ele>
        <time>2021-11-17T10:06:21Z</time>
      </trkpt>
      <trkpt lat="46.55256" lon="0.62732">
        <ele>78.832851747051</ele>
        <time>2021-11-17T10:06:23Z</time>
      </trkpt>
      <trkpt lat="46.55257" lon="0.62735">
        <ele>79.025225496851</ele>
        <time>2021-11-17T10:06:25Z</time>
      </trkpt>
      <trkpt lat="46.55259" lon="0.62737">
        <ele>79.057904423214</ele>
        <time>2021-11-17T10:06:27Z</time>
      </trkpt>
      <trkpt lat="46.5526" lon="0.6274">
        <ele>78.824717841111</ele>
        <time>2021-11-17T10:06:29Z</time>
      </trkpt>
      <trkpt lat="46.55262" lon="0.62742">
        <ele>78.135430413298</ele>
        <time>2021-11-17T10:06:30Z</time>
      </trkpt>
      <trkpt lat="46.55263" lon="0.62746">
        <ele>78.262085163966</ele>
        <time>2021-11-17T10:06:32Z</time>
      </trkpt>
      <trkpt lat="46.55265" lon="0.62748">
        <ele>78.35727111157</ele>
        <time>2021-11-17T10:06:34Z</time>
      </trkpt>
      <trkpt lat="46.55267" lon="0.62751">
        <ele>78.02361916285</ele>
        <time>2021-11-17T10:06:36Z</time>
      </trkpt>
      <trkpt lat="46.55269" lon="0.62755">
        <ele>78.492391700856</ele>
        <time>2021-11-17T10:06:38Z</time>
      </trkpt>
      <trkpt lat="46.5527" lon="0.62757">
        <ele>78.052773871459</ele>
        <time>2021-11-17T10:06:40Z</time>
      </trkpt>
      <trkpt lat="46.55272" lon="0.6276">
        <ele>77.487552913837</ele>
        <time>2021-11-17T10:06:42Z</time>
      </trkpt>
      <trkpt lat="46.55274" lon="0.62761">
        <ele>77.75966074504</ele>
        <time>2021-11-17T10:06:43Z</time>
      </trkpt>
      <trkpt lat="46.55276" lon="0.62763">
        <ele>77.477880193852</ele>
        <time>2021-11-17T10:06:45Z</time>
      </trkpt>
      <trkpt lat="46.55277" lon="0.62765">
        <ele>77.593318943866</ele>
        <time>2021-11-17T10:06:47Z</time>
      </trkpt>
      <trkpt lat="46.55279" lon="0.62767">
        <ele>77.713449266739</ele>
        <time>2021-11-17T10:06:49Z</time>
      </trkpt>
      <trkpt lat="46.55281" lon="0.62769">
        <ele>77.470119432546</ele>
        <time>2021-11-17T10:06:51Z</time>
      </trkpt>
      <trkpt lat="46.55284" lon="0.62771">
        <ele>77.458780621178</ele>
        <time>2021-11-17T10:06:53Z</time>
      </trkpt>
      <trkpt lat="46.55285" lon="0.62773">
        <ele>77.653326350264</ele>
        <time>2021-11-17T10:06:55Z</time>
      </trkpt>
      <trkpt lat="46.55287" lon="0.62776">
        <ele>77.289898349904</ele>
        <time>2021-11-17T10:06:57Z</time>
      </trkpt>
      <trkpt lat="46.5529" lon="0.62779">
        <ele>77.823665133677</ele>
        <time>2021-11-17T10:06:59Z</time>
      </trkpt>
      <trkpt lat="46.55292" lon="0.62781">
        <ele>77.720437780023</ele>
        <time>2021-11-17T10:07:01Z</time>
      </trkpt>
      <trkpt lat="46.55294" lon="0.62784">
        <ele>77.461764168926</ele>
        <time>2021-11-17T10:07:03Z</time>
      </trkpt>
      <trkpt lat="46.55296" lon="0.62786">
        <ele>77.389311050065</ele>
        <time>2021-11-17T10:07:05Z</time>
      </trkpt>
      <trkpt lat="46.55298" lon="0.62787">
        <ele>77.674410813488</ele>
        <time>2021-11-17T10:07:07Z</time>
      </trkpt>
      <trkpt lat="46.55299" lon="0.62789">
        <ele>77.612400487997</ele>
        <time>2021-11-17T10:07:09Z</time>
      </trkpt>
      <trkpt lat="46.55301" lon="0.6279">
        <ele>77.70615521539</ele>
        <time>2021-11-17T10:07:11Z</time>
      </trkpt>
      <trkpt lat="46.55304" lon="0.62791">
        <ele>77.772911857814</ele>
        <time>2021-11-17T10:07:13Z</time>
      </trkpt>
      <trkpt lat="46.55306" lon="0.62792">
        <ele>77.884863259271</ele>
        <time>2021-11-17T10:07:15Z</time>
      </trkpt>
      <trkpt lat="46.55309" lon="0.62792">
        <ele>77.758534191176</ele>
        <time>2021-11-17T10:07:17Z</time>
      </trkpt>
      <trkpt lat="46.55311" lon="0.62794">
        <ele>77.935127717443</ele>
        <time>2021-11-17T10:07:19Z</time>
      </trkpt>
      <trkpt lat="46.55313" lon="0.62795">
        <ele>77.915744282305</ele>
        <time>2021-11-17T10:07:21Z</time>
      </trkpt>
      <trkpt lat="46.55315" lon="0.62796">
        <ele>78.614702309482</ele>
        <time>2021-11-17T10:07:23Z</time>
      </trkpt>
      <trkpt lat="46.55317" lon="0.62796">
        <ele>78.622858424671</ele>
        <time>2021-11-17T10:07:25Z</time>
      </trkpt>
      <trkpt lat="46.55319" lon="0.62797">
        <ele>78.549435562454</ele>
        <time>2021-11-17T10:07:27Z</time>
      </trkpt>
      <trkpt lat="46.55321" lon="0.62797">
        <ele>78.672235447913</ele>
        <time>2021-11-17T10:07:29Z</time>
      </trkpt>
      <trkpt lat="46.55324" lon="0.62798">
        <ele>78.6614518594</ele>
        <time>2021-11-17T10:07:31Z</time>
      </trkpt>
      <trkpt lat="46.55325" lon="0.62798">
        <ele>78.781557299197</ele>
        <time>2021-11-17T10:07:32Z</time>
      </trkpt>
      <trkpt lat="46.55327" lon="0.62798">
        <ele>79.03292903956</ele>
        <time>2021-11-17T10:07:34Z</time>
      </trkpt>
      <trkpt lat="46.55331" lon="0.628">
        <ele>79.082131460309</ele>
        <time>2021-11-17T10:07:37Z</time>
      </trkpt>
      <trkpt lat="46.55333" lon="0.628">
        <ele>79.078572800383</ele>
        <time>2021-11-17T10:07:38Z</time>
      </trkpt>
      <trkpt lat="46.55335" lon="0.628">
        <ele>79.199105732143</ele>
        <time>2021-11-17T10:07:40Z</time>
      </trkpt>
      <trkpt lat="46.55338" lon="0.62801">
        <ele>79.354522304609</ele>
        <time>2021-11-17T10:07:42Z</time>
      </trkpt>
      <trkpt lat="46.55341" lon="0.62803">
        <ele>79.366912644356</ele>
        <time>2021-11-17T10:07:44Z</time>
      </trkpt>
      <trkpt lat="46.55343" lon="0.62804">
        <ele>79.707073113881</ele>
        <time>2021-11-17T10:07:46Z</time>
      </trkpt>
      <trkpt lat="46.55346" lon="0.62806">
        <ele>79.406161515042</ele>
        <time>2021-11-17T10:07:48Z</time>
      </trkpt>
      <trkpt lat="46.55348" lon="0.62808">
        <ele>79.127663279884</ele>
        <time>2021-11-17T10:07:49Z</time>
      </trkpt>
      <trkpt lat="46.5535" lon="0.62809">
        <ele>79.438394362107</ele>
        <time>2021-11-17T10:07:51Z</time>
      </trkpt>
      <trkpt lat="46.55351" lon="0.6281">
        <ele>79.245256837457</ele>
        <time>2021-11-17T10:07:53Z</time>
      </trkpt>
      <trkpt lat="46.55353" lon="0.62811">
        <ele>79.55456500873</ele>
        <time>2021-11-17T10:07:56Z</time>
      </trkpt>
      <trkpt lat="46.55356" lon="0.62812">
        <ele>79.646060486324</ele>
        <time>2021-11-17T10:08:00Z</time>
      </trkpt>
      <trkpt lat="46.55358" lon="0.62813">
        <ele>79.819691811688</ele>
        <time>2021-11-17T10:08:05Z</time>
      </trkpt>
      <trkpt lat="46.55359" lon="0.62814">
        <ele>79.951820199378</ele>
        <time>2021-11-17T10:08:12Z</time>
      </trkpt>
      <trkpt lat="46.5536" lon="0.62818">
        <ele>79.864709651098</ele>
        <time>2021-11-17T10:08:24Z</time>
      </trkpt>
      <trkpt lat="46.55362" lon="0.62819">
        <ele>78.812347307801</ele>
        <time>2021-11-17T10:08:32Z</time>
      </trkpt>
      <trkpt lat="46.55364" lon="0.6282">
        <ele>78.306615723297</ele>
        <time>2021-11-17T10:08:34Z</time>
      </trkpt>
      <trkpt lat="46.55366" lon="0.62822">
        <ele>77.681215661578</ele>
        <time>2021-11-17T10:08:37Z</time>
      </trkpt>
      <trkpt lat="46.55367" lon="0.62825">
        <ele>78.138135433197</ele>
        <time>2021-11-17T10:08:39Z</time>
      </trkpt>
      <trkpt lat="46.55369" lon="0.62826">
        <ele>77.645116315223</ele>
        <time>2021-11-17T10:08:41Z</time>
      </trkpt>
      <trkpt lat="46.5537" lon="0.62828">
        <ele>77.441766073927</ele>
        <time>2021-11-17T10:08:43Z</time>
      </trkpt>
      <trkpt lat="46.55372" lon="0.62831">
        <ele>77.476464039646</ele>
        <time>2021-11-17T10:08:45Z</time>
      </trkpt>
      <trkpt lat="46.55373" lon="0.62835">
        <ele>76.51863092836</ele>
        <time>2021-11-17T10:08:48Z</time>
      </trkpt>
      <trkpt lat="46.55375" lon="0.62838">
        <ele>76.609587837942</ele>
        <time>2021-11-17T10:08:50Z</time>
      </trkpt>
      <trkpt lat="46.55377" lon="0.6284">
        <ele>76.376927915961</ele>
        <time>2021-11-17T10:08:52Z</time>
      </trkpt>
      <trkpt lat="46.55378" lon="0.62842">
        <ele>75.732605907135</ele>
        <time>2021-11-17T10:08:54Z</time>
      </trkpt>
      <trkpt lat="46.5538" lon="0.62844">
        <ele>75.695244803093</ele>
        <time>2021-11-17T10:08:56Z</time>
      </trkpt>
      <trkpt lat="46.55382" lon="0.62845">
        <ele>75.618772657588</ele>
        <time>2021-11-17T10:08:58Z</time>
      </trkpt>
      <trkpt lat="46.55383" lon="0.62847">
        <ele>75.340778488666</ele>
        <time>2021-11-17T10:09:00Z</time>
      </trkpt>
      <trkpt lat="46.55385" lon="0.6285">
        <ele>75.251223407686</ele>
        <time>2021-11-17T10:09:02Z</time>
      </trkpt>
      <trkpt lat="46.55387" lon="0.62851">
        <ele>75.269961842336</ele>
        <time>2021-11-17T10:09:05Z</time>
      </trkpt>
      <trkpt lat="46.55389" lon="0.62854">
        <ele>75.062858384103</ele>
        <time>2021-11-17T10:09:08Z</time>
      </trkpt>
      <trkpt lat="46.55391" lon="0.62855">
        <ele>75.089339723811</ele>
        <time>2021-11-17T10:09:09Z</time>
      </trkpt>
      <trkpt lat="46.55393" lon="0.62856">
        <ele>74.949601883069</ele>
        <time>2021-11-17T10:09:14Z</time>
      </trkpt>
      <trkpt lat="46.55396" lon="0.62857">
        <ele>74.825191732496</ele>
        <time>2021-11-17T10:09:18Z</time>
      </trkpt>
      <trkpt lat="46.55398" lon="0.62858">
        <ele>74.90672140941</ele>
        <time>2021-11-17T10:09:24Z</time>
      </trkpt>
      <trkpt lat="46.554" lon="0.62859">
        <ele>74.890864733607</ele>
        <time>2021-11-17T10:09:27Z</time>
      </trkpt>
      <trkpt lat="46.55402" lon="0.62861">
        <ele>74.686293298379</ele>
        <time>2021-11-17T10:09:30Z</time>
      </trkpt>
      <trkpt lat="46.55404" lon="0.62862">
        <ele>74.508831962012</ele>
        <time>2021-11-17T10:09:31Z</time>
      </trkpt>
      <trkpt lat="46.55406" lon="0.62863">
        <ele>74.492501051165</ele>
        <time>2021-11-17T10:09:33Z</time>
      </trkpt>
      <trkpt lat="46.55408" lon="0.62864">
        <ele>74.694728075527</ele>
        <time>2021-11-17T10:09:34Z</time>
      </trkpt>
      <trkpt lat="46.55409" lon="0.62866">
        <ele>74.645686629228</ele>
        <time>2021-11-17T10:09:36Z</time>
      </trkpt>
      <trkpt lat="46.55412" lon="0.62867">
        <ele>74.74585612677</ele>
        <time>2021-11-17T10:09:38Z</time>
      </trkpt>
      <trkpt lat="46.55414" lon="0.62868">
        <ele>74.172501877882</ele>
        <time>2021-11-17T10:09:40Z</time>
      </trkpt>
      <trkpt lat="46.55416" lon="0.62869">
        <ele>74.159056581557</ele>
        <time>2021-11-17T10:09:42Z</time>
      </trkpt>
      <trkpt lat="46.55418" lon="0.6287">
        <ele>74.503583431244</ele>
        <time>2021-11-17T10:09:43Z</time>
      </trkpt>
      <trkpt lat="46.5542" lon="0.62872">
        <ele>74.448918554001</ele>
        <time>2021-11-17T10:09:45Z</time>
      </trkpt>
      <trkpt lat="46.55422" lon="0.62873">
        <ele>74.542209603824</ele>
        <time>2021-11-17T10:09:47Z</time>
      </trkpt>
      <trkpt lat="46.55424" lon="0.62873">
        <ele>74.272568636574</ele>
        <time>2021-11-17T10:09:49Z</time>
      </trkpt>
      <trkpt lat="46.55426" lon="0.62874">
        <ele>74.608983403072</ele>
        <time>2021-11-17T10:09:51Z</time>
      </trkpt>
      <trkpt lat="46.55428" lon="0.62875">
        <ele>74.701249991544</ele>
        <time>2021-11-17T10:09:53Z</time>
      </trkpt>
      <trkpt lat="46.5543" lon="0.62876">
        <ele>74.866432085633</ele>
        <time>2021-11-17T10:09:55Z</time>
      </trkpt>
      <trkpt lat="46.55433" lon="0.62878">
        <ele>74.895967474207</ele>
        <time>2021-11-17T10:09:57Z</time>
      </trkpt>
      <trkpt lat="46.55435" lon="0.6288">
        <ele>74.448416765779</ele>
        <time>2021-11-17T10:09:59Z</time>
      </trkpt>
      <trkpt lat="46.55438" lon="0.62881">
        <ele>74.556038797833</ele>
        <time>2021-11-17T10:10:01Z</time>
      </trkpt>
      <trkpt lat="46.5544" lon="0.62883">
        <ele>74.10173860006</ele>
        <time>2021-11-17T10:10:03Z</time>
      </trkpt>
      <trkpt lat="46.55443" lon="0.62885">
        <ele>74.318929394707</ele>
        <time>2021-11-17T10:10:05Z</time>
      </trkpt>
      <trkpt lat="46.55445" lon="0.62887">
        <ele>73.627413185313</ele>
        <time>2021-11-17T10:10:07Z</time>
      </trkpt>
      <trkpt lat="46.55447" lon="0.62887">
        <ele>73.880707141943</ele>
        <time>2021-11-17T10:10:09Z</time>
      </trkpt>
      <trkpt lat="46.55449" lon="0.6289">
        <ele>73.76705362834</ele>
        <time>2021-11-17T10:10:10Z</time>
      </trkpt>
      <trkpt lat="46.55451" lon="0.62892">
        <ele>73.022745294496</ele>
        <time>2021-11-17T10:10:12Z</time>
      </trkpt>
      <trkpt lat="46.55453" lon="0.62893">
        <ele>72.900072912686</ele>
        <time>2021-11-17T10:10:14Z</time>
      </trkpt>
      <trkpt lat="46.55454" lon="0.62894">
        <ele>72.644263189286</ele>
        <time>2021-11-17T10:10:16Z</time>
      </trkpt>
      <trkpt lat="46.55456" lon="0.62895">
        <ele>72.552881872281</ele>
        <time>2021-11-17T10:10:18Z</time>
      </trkpt>
      <trkpt lat="46.55458" lon="0.62896">
        <ele>72.682180223987</ele>
        <time>2021-11-17T10:10:20Z</time>
      </trkpt>
      <trkpt lat="46.55461" lon="0.62895">
        <ele>72.711120821536</ele>
        <time>2021-11-17T10:10:22Z</time>
      </trkpt>
      <trkpt lat="46.55463" lon="0.62896">
        <ele>72.93330551032</ele>
        <time>2021-11-17T10:10:24Z</time>
      </trkpt>
      <trkpt lat="46.55466" lon="0.62897">
        <ele>73.251000655815</ele>
        <time>2021-11-17T10:10:27Z</time>
      </trkpt>
      <trkpt lat="46.55468" lon="0.62897">
        <ele>73.516280333512</ele>
        <time>2021-11-17T10:10:29Z</time>
      </trkpt>
      <trkpt lat="46.5547" lon="0.62898">
        <ele>73.135108246468</ele>
        <time>2021-11-17T10:10:31Z</time>
      </trkpt>
      <trkpt lat="46.55472" lon="0.62898">
        <ele>73.557204232551</ele>
        <time>2021-11-17T10:10:33Z</time>
      </trkpt>
      <trkpt lat="46.55474" lon="0.62899">
        <ele>74.132600799203</ele>
        <time>2021-11-17T10:10:36Z</time>
      </trkpt>
      <trkpt lat="46.55477" lon="0.629">
        <ele>73.955291916616</ele>
        <time>2021-11-17T10:10:38Z</time>
      </trkpt>
      <trkpt lat="46.55479" lon="0.62902">
        <ele>74.137722827494</ele>
        <time>2021-11-17T10:10:40Z</time>
      </trkpt>
      <trkpt lat="46.55481" lon="0.62902">
        <ele>74.289484591223</ele>
        <time>2021-11-17T10:10:43Z</time>
      </trkpt>
      <trkpt lat="46.55483" lon="0.62902">
        <ele>74.398360176943</ele>
        <time>2021-11-17T10:10:45Z</time>
      </trkpt>
      <trkpt lat="46.55486" lon="0.62903">
        <ele>74.832969826646</ele>
        <time>2021-11-17T10:10:48Z</time>
      </trkpt>
      <trkpt lat="46.55488" lon="0.62904">
        <ele>74.580657440238</ele>
        <time>2021-11-17T10:10:50Z</time>
      </trkpt>
      <trkpt lat="46.5549" lon="0.62905">
        <ele>74.868181027472</ele>
        <time>2021-11-17T10:10:52Z</time>
      </trkpt>
      <trkpt lat="46.55492" lon="0.62906">
        <ele>74.596952440217</ele>
        <time>2021-11-17T10:10:55Z</time>
      </trkpt>
      <trkpt lat="46.55495" lon="0.62905">
        <ele>74.735163295642</ele>
        <time>2021-11-17T10:10:57Z</time>
      </trkpt>
      <trkpt lat="46.55497" lon="0.62907">
        <ele>74.796070932411</ele>
        <time>2021-11-17T10:10:59Z</time>
      </trkpt>
      <trkpt lat="46.55499" lon="0.62908">
        <ele>74.823950025253</ele>
        <time>2021-11-17T10:11:02Z</time>
      </trkpt>
      <trkpt lat="46.55502" lon="0.62908">
        <ele>75.134005073458</ele>
        <time>2021-11-17T10:11:04Z</time>
      </trkpt>
      <trkpt lat="46.55504" lon="0.62909">
        <ele>74.888641826808</ele>
        <time>2021-11-17T10:11:07Z</time>
      </trkpt>
      <trkpt lat="46.55507" lon="0.6291">
        <ele>74.995581335388</ele>
        <time>2021-11-17T10:11:09Z</time>
      </trkpt>
      <trkpt lat="46.55509" lon="0.6291">
        <ele>75.125286081806</ele>
        <time>2021-11-17T10:11:11Z</time>
      </trkpt>
      <trkpt lat="46.55512" lon="0.62912">
        <ele>75.298895433545</ele>
        <time>2021-11-17T10:11:13Z</time>
      </trkpt>
      <trkpt lat="46.55514" lon="0.62912">
        <ele>75.164843553677</ele>
        <time>2021-11-17T10:11:14Z</time>
      </trkpt>
      <trkpt lat="46.55516" lon="0.62914">
        <ele>74.705508036539</ele>
        <time>2021-11-17T10:11:16Z</time>
      </trkpt>
      <trkpt lat="46.55518" lon="0.62915">
        <ele>74.871230070479</ele>
        <time>2021-11-17T10:11:18Z</time>
      </trkpt>
      <trkpt lat="46.5552" lon="0.62916">
        <ele>74.66088857688</ele>
        <time>2021-11-17T10:11:20Z</time>
      </trkpt>
      <trkpt lat="46.55522" lon="0.62918">
        <ele>74.666873986833</ele>
        <time>2021-11-17T10:11:22Z</time>
      </trkpt>
      <trkpt lat="46.55525" lon="0.62919">
        <ele>74.478109669872</ele>
        <time>2021-11-17T10:11:24Z</time>
      </trkpt>
      <trkpt lat="46.55528" lon="0.62921">
        <ele>74.450237529352</ele>
        <time>2021-11-17T10:11:26Z</time>
      </trkpt>
      <trkpt lat="46.5553" lon="0.62923">
        <ele>74.171742747538</ele>
        <time>2021-11-17T10:11:28Z</time>
      </trkpt>
      <trkpt lat="46.55533" lon="0.62924">
        <ele>74.570031071082</ele>
        <time>2021-11-17T10:11:31Z</time>
      </trkpt>
      <trkpt lat="46.55535" lon="0.62926">
        <ele>74.551194130443</ele>
        <time>2021-11-17T10:11:33Z</time>
      </trkpt>
      <trkpt lat="46.55537" lon="0.62926">
        <ele>74.606527692638</ele>
        <time>2021-11-17T10:11:34Z</time>
      </trkpt>
      <trkpt lat="46.55539" lon="0.62928">
        <ele>74.923778153956</ele>
        <time>2021-11-17T10:11:36Z</time>
      </trkpt>
      <trkpt lat="46.55541" lon="0.62929">
        <ele>74.652362028137</ele>
        <time>2021-11-17T10:11:38Z</time>
      </trkpt>
      <trkpt lat="46.55543" lon="0.6293">
        <ele>74.900990142487</ele>
        <time>2021-11-17T10:11:40Z</time>
      </trkpt>
      <trkpt lat="46.55546" lon="0.62932">
        <ele>74.872535080649</ele>
        <time>2021-11-17T10:11:42Z</time>
      </trkpt>
      <trkpt lat="46.55549" lon="0.62934">
        <ele>75.066029434092</ele>
        <time>2021-11-17T10:11:44Z</time>
      </trkpt>
      <trkpt lat="46.5555" lon="0.62936">
        <ele>74.801748416387</ele>
        <time>2021-11-17T10:11:46Z</time>
      </trkpt>
      <trkpt lat="46.55553" lon="0.62938">
        <ele>74.697506946512</ele>
        <time>2021-11-17T10:11:48Z</time>
      </trkpt>
      <trkpt lat="46.55555" lon="0.62939">
        <ele>74.377203302458</ele>
        <time>2021-11-17T10:11:50Z</time>
      </trkpt>
      <trkpt lat="46.55556" lon="0.6294">
        <ele>74.393276102841</ele>
        <time>2021-11-17T10:11:51Z</time>
      </trkpt>
      <trkpt lat="46.5556" lon="0.62942">
        <ele>73.506909456104</ele>
        <time>2021-11-17T10:11:54Z</time>
      </trkpt>
      <trkpt lat="46.55563" lon="0.62943">
        <ele>73.812002862804</ele>
        <time>2021-11-17T10:11:56Z</time>
      </trkpt>
      <trkpt lat="46.55565" lon="0.62944">
        <ele>74.15234674979</ele>
        <time>2021-11-17T10:11:58Z</time>
      </trkpt>
      <trkpt lat="46.55568" lon="0.62945">
        <ele>74.071799127385</ele>
        <time>2021-11-17T10:12:00Z</time>
      </trkpt>
      <trkpt lat="46.5557" lon="0.62948">
        <ele>74.16588390246</ele>
        <time>2021-11-17T10:12:02Z</time>
      </trkpt>
      <trkpt lat="46.55572" lon="0.62948">
        <ele>73.941288453527</ele>
        <time>2021-11-17T10:12:05Z</time>
      </trkpt>
      <trkpt lat="46.55575" lon="0.6295">
        <ele>74.014666532166</ele>
        <time>2021-11-17T10:12:07Z</time>
      </trkpt>
      <trkpt lat="46.55578" lon="0.62952">
        <ele>73.942708157003</ele>
        <time>2021-11-17T10:12:09Z</time>
      </trkpt>
      <trkpt lat="46.55581" lon="0.62953">
        <ele>74.373005283065</ele>
        <time>2021-11-17T10:12:11Z</time>
      </trkpt>
      <trkpt lat="46.55582" lon="0.62955">
        <ele>74.212676642463</ele>
        <time>2021-11-17T10:12:13Z</time>
      </trkpt>
      <trkpt lat="46.55585" lon="0.62957">
        <ele>74.250863897614</ele>
        <time>2021-11-17T10:12:15Z</time>
      </trkpt>
      <trkpt lat="46.55587" lon="0.62958">
        <ele>74.431696090847</ele>
        <time>2021-11-17T10:12:17Z</time>
      </trkpt>
      <trkpt lat="46.55589" lon="0.62959">
        <ele>74.183964881115</ele>
        <time>2021-11-17T10:12:19Z</time>
      </trkpt>
      <trkpt lat="46.55591" lon="0.62961">
        <ele>74.199356585741</ele>
        <time>2021-11-17T10:12:21Z</time>
      </trkpt>
      <trkpt lat="46.55594" lon="0.62963">
        <ele>74.103077399544</ele>
        <time>2021-11-17T10:12:23Z</time>
      </trkpt>
      <trkpt lat="46.55595" lon="0.62964">
        <ele>74.135058257729</ele>
        <time>2021-11-17T10:12:25Z</time>
      </trkpt>
      <trkpt lat="46.55598" lon="0.62965">
        <ele>73.732963997871</ele>
        <time>2021-11-17T10:12:27Z</time>
      </trkpt>
      <trkpt lat="46.556" lon="0.62966">
        <ele>73.946644864045</ele>
        <time>2021-11-17T10:12:29Z</time>
      </trkpt>
      <trkpt lat="46.55602" lon="0.62967">
        <ele>73.928691054694</ele>
        <time>2021-11-17T10:12:31Z</time>
      </trkpt>
      <trkpt lat="46.55604" lon="0.62969">
        <ele>74.022910702042</ele>
        <time>2021-11-17T10:12:33Z</time>
      </trkpt>
      <trkpt lat="46.55607" lon="0.62972">
        <ele>73.45085620787</ele>
        <time>2021-11-17T10:12:35Z</time>
      </trkpt>
      <trkpt lat="46.55609" lon="0.62973">
        <ele>73.60919921007</ele>
        <time>2021-11-17T10:12:37Z</time>
      </trkpt>
      <trkpt lat="46.55612" lon="0.62975">
        <ele>73.252568371594</ele>
        <time>2021-11-17T10:12:40Z</time>
      </trkpt>
      <trkpt lat="46.55615" lon="0.62976">
        <ele>73.303969944827</ele>
        <time>2021-11-17T10:12:42Z</time>
      </trkpt>
      <trkpt lat="46.55617" lon="0.62979">
        <ele>73.202779117972</ele>
        <time>2021-11-17T10:12:45Z</time>
      </trkpt>
      <trkpt lat="46.55618" lon="0.62981">
        <ele>73.408158220351</ele>
        <time>2021-11-17T10:12:46Z</time>
      </trkpt>
      <trkpt lat="46.5562" lon="0.62982">
        <ele>73.177986456081</ele>
        <time>2021-11-17T10:12:48Z</time>
      </trkpt>
      <trkpt lat="46.55622" lon="0.62983">
        <ele>73.254962894134</ele>
        <time>2021-11-17T10:12:49Z</time>
      </trkpt>
      <trkpt lat="46.55624" lon="0.62986">
        <ele>73.113768999465</ele>
        <time>2021-11-17T10:12:51Z</time>
      </trkpt>
      <trkpt lat="46.55626" lon="0.62988">
        <ele>73.180379064754</ele>
        <time>2021-11-17T10:12:53Z</time>
      </trkpt>
      <trkpt lat="46.55628" lon="0.6299">
        <ele>73.074987873435</ele>
        <time>2021-11-17T10:12:56Z</time>
      </trkpt>
      <trkpt lat="46.55629" lon="0.62992">
        <ele>72.861623831093</ele>
        <time>2021-11-17T10:12:58Z</time>
      </trkpt>
      <trkpt lat="46.55631" lon="0.62993">
        <ele>72.674001278356</ele>
        <time>2021-11-17T10:13:00Z</time>
      </trkpt>
      <trkpt lat="46.55633" lon="0.62994">
        <ele>73.09154107701</ele>
        <time>2021-11-17T10:13:03Z</time>
      </trkpt>
      <trkpt lat="46.55635" lon="0.62995">
        <ele>73.196009166539</ele>
        <time>2021-11-17T10:13:05Z</time>
      </trkpt>
      <trkpt lat="46.55638" lon="0.62998">
        <ele>73.234028972685</ele>
        <time>2021-11-17T10:13:07Z</time>
      </trkpt>
      <trkpt lat="46.5564" lon="0.62999">
        <ele>72.890277789906</ele>
        <time>2021-11-17T10:13:09Z</time>
      </trkpt>
      <trkpt lat="46.55643" lon="0.62999">
        <ele>73.678923116066</ele>
        <time>2021-11-17T10:13:11Z</time>
      </trkpt>
      <trkpt lat="46.55645" lon="0.63001">
        <ele>74.067702857777</ele>
        <time>2021-11-17T10:13:14Z</time>
      </trkpt>
      <trkpt lat="46.55647" lon="0.63002">
        <ele>74.235890907235</ele>
        <time>2021-11-17T10:13:16Z</time>
      </trkpt>
      <trkpt lat="46.55649" lon="0.63003">
        <ele>74.075210199691</ele>
        <time>2021-11-17T10:13:19Z</time>
      </trkpt>
      <trkpt lat="46.55651" lon="0.63003">
        <ele>73.949319226667</ele>
        <time>2021-11-17T10:13:21Z</time>
      </trkpt>
      <trkpt lat="46.55653" lon="0.63003">
        <ele>73.941552053206</ele>
        <time>2021-11-17T10:13:23Z</time>
      </trkpt>
      <trkpt lat="46.55656" lon="0.63003">
        <ele>75.167952522635</ele>
        <time>2021-11-17T10:13:25Z</time>
      </trkpt>
      <trkpt lat="46.55658" lon="0.63006">
        <ele>75.380162556656</ele>
        <time>2021-11-17T10:13:28Z</time>
      </trkpt>
      <trkpt lat="46.5566" lon="0.63008">
        <ele>75.558467376977</ele>
        <time>2021-11-17T10:13:30Z</time>
      </trkpt>
      <trkpt lat="46.55663" lon="0.6301">
        <ele>75.294394925237</ele>
        <time>2021-11-17T10:13:33Z</time>
      </trkpt>
      <trkpt lat="46.55664" lon="0.63012">
        <ele>75.367717978545</ele>
        <time>2021-11-17T10:13:35Z</time>
      </trkpt>
      <trkpt lat="46.55667" lon="0.63013">
        <ele>75.509866076522</ele>
        <time>2021-11-17T10:13:37Z</time>
      </trkpt>
      <trkpt lat="46.5567" lon="0.63015">
        <ele>75.837561634369</ele>
        <time>2021-11-17T10:13:40Z</time>
      </trkpt>
      <trkpt lat="46.55671" lon="0.63017">
        <ele>75.795984263532</ele>
        <time>2021-11-17T10:13:42Z</time>
      </trkpt>
      <trkpt lat="46.55673" lon="0.63019">
        <ele>76.336834484711</ele>
        <time>2021-11-17T10:13:44Z</time>
      </trkpt>
      <trkpt lat="46.55675" lon="0.63021">
        <ele>76.3885075422</ele>
        <time>2021-11-17T10:13:46Z</time>
      </trkpt>
      <trkpt lat="46.55677" lon="0.63021">
        <ele>76.14667455852</ele>
        <time>2021-11-17T10:13:47Z</time>
      </trkpt>
      <trkpt lat="46.55678" lon="0.63023">
        <ele>77.093989061192</ele>
        <time>2021-11-17T10:13:49Z</time>
      </trkpt>
      <trkpt lat="46.5568" lon="0.63025">
        <ele>76.529088551179</ele>
        <time>2021-11-17T10:13:51Z</time>
      </trkpt>
      <trkpt lat="46.55682" lon="0.63028">
        <ele>76.937667653896</ele>
        <time>2021-11-17T10:13:53Z</time>
      </trkpt>
      <trkpt lat="46.55683" lon="0.6303">
        <ele>77.166094073094</ele>
        <time>2021-11-17T10:13:55Z</time>
      </trkpt>
      <trkpt lat="46.55685" lon="0.63031">
        <ele>76.75177141279</ele>
        <time>2021-11-17T10:13:57Z</time>
      </trkpt>
      <trkpt lat="46.55687" lon="0.63033">
        <ele>77.052337056026</ele>
        <time>2021-11-17T10:13:58Z</time>
      </trkpt>
      <trkpt lat="46.55689" lon="0.63035">
        <ele>77.323248395696</ele>
        <time>2021-11-17T10:14:00Z</time>
      </trkpt>
      <trkpt lat="46.55692" lon="0.63039">
        <ele>77.421095125377</ele>
        <time>2021-11-17T10:14:02Z</time>
      </trkpt>
      <trkpt lat="46.55694" lon="0.63041">
        <ele>77.330673855729</ele>
        <time>2021-11-17T10:14:04Z</time>
      </trkpt>
      <trkpt lat="46.55695" lon="0.63043">
        <ele>77.342392555438</ele>
        <time>2021-11-17T10:14:06Z</time>
      </trkpt>
      <trkpt lat="46.55697" lon="0.63045">
        <ele>77.627897533588</ele>
        <time>2021-11-17T10:14:08Z</time>
      </trkpt>
      <trkpt lat="46.557" lon="0.63048">
        <ele>78.1085888464</ele>
        <time>2021-11-17T10:14:11Z</time>
      </trkpt>
      <trkpt lat="46.55702" lon="0.6305">
        <ele>77.526272278279</ele>
        <time>2021-11-17T10:14:13Z</time>
      </trkpt>
      <trkpt lat="46.55704" lon="0.63052">
        <ele>78.218029959127</ele>
        <time>2021-11-17T10:14:15Z</time>
      </trkpt>
      <trkpt lat="46.55706" lon="0.63053">
        <ele>77.765319838189</ele>
        <time>2021-11-17T10:14:17Z</time>
      </trkpt>
      <trkpt lat="46.55708" lon="0.63055">
        <ele>77.964252272621</ele>
        <time>2021-11-17T10:14:19Z</time>
      </trkpt>
      <trkpt lat="46.5571" lon="0.63058">
        <ele>78.032938261516</ele>
        <time>2021-11-17T10:14:21Z</time>
      </trkpt>
      <trkpt lat="46.55713" lon="0.6306">
        <ele>77.268857683986</ele>
        <time>2021-11-17T10:14:23Z</time>
      </trkpt>
      <trkpt lat="46.55714" lon="0.63062">
        <ele>77.927311629057</ele>
        <time>2021-11-17T10:14:25Z</time>
      </trkpt>
      <trkpt lat="46.55717" lon="0.63065">
        <ele>77.694080476649</ele>
        <time>2021-11-17T10:14:27Z</time>
      </trkpt>
      <trkpt lat="46.55719" lon="0.63067">
        <ele>77.717714999802</ele>
        <time>2021-11-17T10:14:29Z</time>
      </trkpt>
      <trkpt lat="46.5572" lon="0.63069">
        <ele>77.840895119123</ele>
        <time>2021-11-17T10:14:30Z</time>
      </trkpt>
      <trkpt lat="46.55722" lon="0.63071">
        <ele>77.798334134743</ele>
        <time>2021-11-17T10:14:32Z</time>
      </trkpt>
      <trkpt lat="46.55724" lon="0.63072">
        <ele>76.970071635209</ele>
        <time>2021-11-17T10:14:34Z</time>
      </trkpt>
      <trkpt lat="46.55727" lon="0.63074">
        <ele>76.810716085136</ele>
        <time>2021-11-17T10:14:36Z</time>
      </trkpt>
      <trkpt lat="46.55728" lon="0.63076">
        <ele>77.185061939992</ele>
        <time>2021-11-17T10:14:38Z</time>
      </trkpt>
      <trkpt lat="46.55731" lon="0.63078">
        <ele>76.982411294244</ele>
        <time>2021-11-17T10:14:40Z</time>
      </trkpt>
      <trkpt lat="46.55733" lon="0.63081">
        <ele>77.249153472483</ele>
        <time>2021-11-17T10:14:42Z</time>
      </trkpt>
      <trkpt lat="46.55735" lon="0.63083">
        <ele>77.061419059522</ele>
        <time>2021-11-17T10:14:44Z</time>
      </trkpt>
      <trkpt lat="46.55738" lon="0.63085">
        <ele>77.573612727225</ele>
        <time>2021-11-17T10:14:46Z</time>
      </trkpt>
      <trkpt lat="46.5574" lon="0.63087">
        <ele>77.574660333805</ele>
        <time>2021-11-17T10:14:48Z</time>
      </trkpt>
      <trkpt lat="46.55742" lon="0.63089">
        <ele>77.25947757531</ele>
        <time>2021-11-17T10:14:50Z</time>
      </trkpt>
      <trkpt lat="46.55745" lon="0.63091">
        <ele>77.373597995378</ele>
        <time>2021-11-17T10:14:52Z</time>
      </trkpt>
      <trkpt lat="46.55747" lon="0.63094">
        <ele>77.443218953907</ele>
        <time>2021-11-17T10:14:54Z</time>
      </trkpt>
      <trkpt lat="46.55749" lon="0.63095">
        <ele>77.420504077338</ele>
        <time>2021-11-17T10:14:56Z</time>
      </trkpt>
      <trkpt lat="46.5575" lon="0.63097">
        <ele>77.428620298393</ele>
        <time>2021-11-17T10:14:58Z</time>
      </trkpt>
      <trkpt lat="46.55753" lon="0.631">
        <ele>77.017896893434</ele>
        <time>2021-11-17T10:15:00Z</time>
      </trkpt>
      <trkpt lat="46.55756" lon="0.63102">
        <ele>76.854546392336</ele>
        <time>2021-11-17T10:15:02Z</time>
      </trkpt>
      <trkpt lat="46.55758" lon="0.63104">
        <ele>76.743893571198</ele>
        <time>2021-11-17T10:15:04Z</time>
      </trkpt>
      <trkpt lat="46.55761" lon="0.63105">
        <ele>76.511731517501</ele>
        <time>2021-11-17T10:15:06Z</time>
      </trkpt>
      <trkpt lat="46.55763" lon="0.63107">
        <ele>76.458643748425</ele>
        <time>2021-11-17T10:15:08Z</time>
      </trkpt>
      <trkpt lat="46.55765" lon="0.63109">
        <ele>76.99293631129</ele>
        <time>2021-11-17T10:15:10Z</time>
      </trkpt>
      <trkpt lat="46.55767" lon="0.63112">
        <ele>76.968715316616</ele>
        <time>2021-11-17T10:15:12Z</time>
      </trkpt>
      <trkpt lat="46.5577" lon="0.63113">
        <ele>76.895426371135</ele>
        <time>2021-11-17T10:15:14Z</time>
      </trkpt>
      <trkpt lat="46.55772" lon="0.63114">
        <ele>76.907038772479</ele>
        <time>2021-11-17T10:15:16Z</time>
      </trkpt>
      <trkpt lat="46.55774" lon="0.63116">
        <ele>76.423130923882</ele>
        <time>2021-11-17T10:15:18Z</time>
      </trkpt>
      <trkpt lat="46.55776" lon="0.63119">
        <ele>77.10027110856</ele>
        <time>2021-11-17T10:15:21Z</time>
      </trkpt>
      <trkpt lat="46.55779" lon="0.63122">
        <ele>77.151542868465</ele>
        <time>2021-11-17T10:15:23Z</time>
      </trkpt>
      <trkpt lat="46.55781" lon="0.63124">
        <ele>76.635280182585</ele>
        <time>2021-11-17T10:15:25Z</time>
      </trkpt>
      <trkpt lat="46.55783" lon="0.63125">
        <ele>77.253594256006</ele>
        <time>2021-11-17T10:15:27Z</time>
      </trkpt>
      <trkpt lat="46.55786" lon="0.63128">
        <ele>76.242206910625</ele>
        <time>2021-11-17T10:15:29Z</time>
      </trkpt>
      <trkpt lat="46.55787" lon="0.63131">
        <ele>77.242614745162</ele>
        <time>2021-11-17T10:15:32Z</time>
      </trkpt>
      <trkpt lat="46.55789" lon="0.63132">
        <ele>76.433504186571</ele>
        <time>2021-11-17T10:15:34Z</time>
      </trkpt>
      <trkpt lat="46.55791" lon="0.63134">
        <ele>76.805094658397</ele>
        <time>2021-11-17T10:15:35Z</time>
      </trkpt>
      <trkpt lat="46.55793" lon="0.63135">
        <ele>77.007763729431</ele>
        <time>2021-11-17T10:15:37Z</time>
      </trkpt>
      <trkpt lat="46.55795" lon="0.63138">
        <ele>76.632499154657</ele>
        <time>2021-11-17T10:15:39Z</time>
      </trkpt>
      <trkpt lat="46.55797" lon="0.6314">
        <ele>76.634860610589</ele>
        <time>2021-11-17T10:15:41Z</time>
      </trkpt>
      <trkpt lat="46.55799" lon="0.63141">
        <ele>76.69743588008</ele>
        <time>2021-11-17T10:15:44Z</time>
      </trkpt>
      <trkpt lat="46.55801" lon="0.63142">
        <ele>76.71161689423</ele>
        <time>2021-11-17T10:15:45Z</time>
      </trkpt>
      <trkpt lat="46.55803" lon="0.63143">
        <ele>76.892036568373</ele>
        <time>2021-11-17T10:15:47Z</time>
      </trkpt>
      <trkpt lat="46.55805" lon="0.63145">
        <ele>76.925081503578</ele>
        <time>2021-11-17T10:15:49Z</time>
      </trkpt>
      <trkpt lat="46.55807" lon="0.63148">
        <ele>77.01671699062</ele>
        <time>2021-11-17T10:15:51Z</time>
      </trkpt>
      <trkpt lat="46.5581" lon="0.63149">
        <ele>77.09357361868</ele>
        <time>2021-11-17T10:15:53Z</time>
      </trkpt>
      <trkpt lat="46.55812" lon="0.63151">
        <ele>76.935937097296</ele>
        <time>2021-11-17T10:15:55Z</time>
      </trkpt>
      <trkpt lat="46.55814" lon="0.63152">
        <ele>77.048750942573</ele>
        <time>2021-11-17T10:15:57Z</time>
      </trkpt>
      <trkpt lat="46.55816" lon="0.63153">
        <ele>77.144149289466</ele>
        <time>2021-11-17T10:15:59Z</time>
      </trkpt>
      <trkpt lat="46.55817" lon="0.63155">
        <ele>77.473032332025</ele>
        <time>2021-11-17T10:16:00Z</time>
      </trkpt>
      <trkpt lat="46.55819" lon="0.63156">
        <ele>77.643471750431</ele>
        <time>2021-11-17T10:16:02Z</time>
      </trkpt>
      <trkpt lat="46.55822" lon="0.63157">
        <ele>77.645325345919</ele>
        <time>2021-11-17T10:16:04Z</time>
      </trkpt>
      <trkpt lat="46.55824" lon="0.63158">
        <ele>77.779357270338</ele>
        <time>2021-11-17T10:16:06Z</time>
      </trkpt>
      <trkpt lat="46.55826" lon="0.6316">
        <ele>77.970450976864</ele>
        <time>2021-11-17T10:16:08Z</time>
      </trkpt>
      <trkpt lat="46.55829" lon="0.63162">
        <ele>77.962462251075</ele>
        <time>2021-11-17T10:16:10Z</time>
      </trkpt>
      <trkpt lat="46.5583" lon="0.63164">
        <ele>77.940038044937</ele>
        <time>2021-11-17T10:16:12Z</time>
      </trkpt>
      <trkpt lat="46.55832" lon="0.63165">
        <ele>78.163273944519</ele>
        <time>2021-11-17T10:16:13Z</time>
      </trkpt>
      <trkpt lat="46.55834" lon="0.63167">
        <ele>77.839418927208</ele>
        <time>2021-11-17T10:16:15Z</time>
      </trkpt>
      <trkpt lat="46.55837" lon="0.63168">
        <ele>77.51987497136</ele>
        <time>2021-11-17T10:16:17Z</time>
      </trkpt>
      <trkpt lat="46.55839" lon="0.6317">
        <ele>77.552528363653</ele>
        <time>2021-11-17T10:16:19Z</time>
      </trkpt>
      <trkpt lat="46.55841" lon="0.63172">
        <ele>77.852454734035</ele>
        <time>2021-11-17T10:16:21Z</time>
      </trkpt>
      <trkpt lat="46.55843" lon="0.63174">
        <ele>78.115445593372</ele>
        <time>2021-11-17T10:16:23Z</time>
      </trkpt>
      <trkpt lat="46.55845" lon="0.63175">
        <ele>77.890213059261</ele>
        <time>2021-11-17T10:16:24Z</time>
      </trkpt>
      <trkpt lat="46.55847" lon="0.63176">
        <ele>77.773100269958</ele>
        <time>2021-11-17T10:16:26Z</time>
      </trkpt>
      <trkpt lat="46.5585" lon="0.63177">
        <ele>77.568194087595</ele>
        <time>2021-11-17T10:16:29Z</time>
      </trkpt>
      <trkpt lat="46.55853" lon="0.6318">
        <ele>78.047536573373</ele>
        <time>2021-11-17T10:16:31Z</time>
      </trkpt>
      <trkpt lat="46.55855" lon="0.63182">
        <ele>78.175950273871</ele>
        <time>2021-11-17T10:16:34Z</time>
      </trkpt>
      <trkpt lat="46.55859" lon="0.63185">
        <ele>78.051215326414</ele>
        <time>2021-11-17T10:16:36Z</time>
      </trkpt>
      <trkpt lat="46.55861" lon="0.63187">
        <ele>77.820876277052</ele>
        <time>2021-11-17T10:16:38Z</time>
      </trkpt>
      <trkpt lat="46.55863" lon="0.63188">
        <ele>77.749149315059</ele>
        <time>2021-11-17T10:16:40Z</time>
      </trkpt>
      <trkpt lat="46.55865" lon="0.63189">
        <ele>77.6879752893</ele>
        <time>2021-11-17T10:16:42Z</time>
      </trkpt>
      <trkpt lat="46.55867" lon="0.63191">
        <ele>77.616002939641</ele>
        <time>2021-11-17T10:16:44Z</time>
      </trkpt>
      <trkpt lat="46.5587" lon="0.63193">
        <ele>77.256470941938</ele>
        <time>2021-11-17T10:16:46Z</time>
      </trkpt>
      <trkpt lat="46.55872" lon="0.63194">
        <ele>76.885064057074</ele>
        <time>2021-11-17T10:16:48Z</time>
      </trkpt>
      <trkpt lat="46.55875" lon="0.63195">
        <ele>76.351975218393</ele>
        <time>2021-11-17T10:16:50Z</time>
      </trkpt>
      <trkpt lat="46.55877" lon="0.63196">
        <ele>76.704290458933</ele>
        <time>2021-11-17T10:16:52Z</time>
      </trkpt>
      <trkpt lat="46.55879" lon="0.63198">
        <ele>76.905418499373</ele>
        <time>2021-11-17T10:16:54Z</time>
      </trkpt>
      <trkpt lat="46.55881" lon="0.63199">
        <ele>76.490765888244</ele>
        <time>2021-11-17T10:16:56Z</time>
      </trkpt>
      <trkpt lat="46.55884" lon="0.63199">
        <ele>76.665484032594</ele>
        <time>2021-11-17T10:16:58Z</time>
      </trkpt>
      <trkpt lat="46.55886" lon="0.63202">
        <ele>76.548591228202</ele>
        <time>2021-11-17T10:17:01Z</time>
      </trkpt>
      <trkpt lat="46.55888" lon="0.63203">
        <ele>76.293924851343</ele>
        <time>2021-11-17T10:17:02Z</time>
      </trkpt>
      <trkpt lat="46.5589" lon="0.63204">
        <ele>76.192485485226</ele>
        <time>2021-11-17T10:17:04Z</time>
      </trkpt>
      <trkpt lat="46.55892" lon="0.63205">
        <ele>76.18887746986</ele>
        <time>2021-11-17T10:17:06Z</time>
      </trkpt>
      <trkpt lat="46.55894" lon="0.63205">
        <ele>76.239393582568</ele>
        <time>2021-11-17T10:17:07Z</time>
      </trkpt>
      <trkpt lat="46.55896" lon="0.63205">
        <ele>76.173546594568</ele>
        <time>2021-11-17T10:17:09Z</time>
      </trkpt>
      <trkpt lat="46.55898" lon="0.63206">
        <ele>76.201508910395</ele>
        <time>2021-11-17T10:17:12Z</time>
      </trkpt>
      <trkpt lat="46.55901" lon="0.63206">
        <ele>76.014849822968</ele>
        <time>2021-11-17T10:17:14Z</time>
      </trkpt>
      <trkpt lat="46.55904" lon="0.63207">
        <ele>75.63159816619</ele>
        <time>2021-11-17T10:17:17Z</time>
      </trkpt>
      <trkpt lat="46.55906" lon="0.63207">
        <ele>75.114373380318</ele>
        <time>2021-11-17T10:17:18Z</time>
      </trkpt>
      <trkpt lat="46.55908" lon="0.63208">
        <ele>75.407634270377</ele>
        <time>2021-11-17T10:17:19Z</time>
      </trkpt>
      <trkpt lat="46.5591" lon="0.6321">
        <ele>75.434733290225</ele>
        <time>2021-11-17T10:17:21Z</time>
      </trkpt>
      <trkpt lat="46.55913" lon="0.63211">
        <ele>75.276595172472</ele>
        <time>2021-11-17T10:17:23Z</time>
      </trkpt>
      <trkpt lat="46.55915" lon="0.63212">
        <ele>75.395686124451</ele>
        <time>2021-11-17T10:17:25Z</time>
      </trkpt>
      <trkpt lat="46.55919" lon="0.63212">
        <ele>75.070097395219</ele>
        <time>2021-11-17T10:17:27Z</time>
      </trkpt>
      <trkpt lat="46.55921" lon="0.63213">
        <ele>75.602799904533</ele>
        <time>2021-11-17T10:17:29Z</time>
      </trkpt>
      <trkpt lat="46.55923" lon="0.63213">
        <ele>75.597648303024</ele>
        <time>2021-11-17T10:17:30Z</time>
      </trkpt>
      <trkpt lat="46.55925" lon="0.63215">
        <ele>75.31179009378</ele>
        <time>2021-11-17T10:17:32Z</time>
      </trkpt>
      <trkpt lat="46.55927" lon="0.63218">
        <ele>75.390474880114</ele>
        <time>2021-11-17T10:17:34Z</time>
      </trkpt>
      <trkpt lat="46.55929" lon="0.6322">
        <ele>75.167573503219</ele>
        <time>2021-11-17T10:17:36Z</time>
      </trkpt>
      <trkpt lat="46.55931" lon="0.63222">
        <ele>75.015027044341</ele>
        <time>2021-11-17T10:17:38Z</time>
      </trkpt>
      <trkpt lat="46.55933" lon="0.63224">
        <ele>74.947792778723</ele>
        <time>2021-11-17T10:17:40Z</time>
      </trkpt>
      <trkpt lat="46.55935" lon="0.63228">
        <ele>75.044152999297</ele>
        <time>2021-11-17T10:17:43Z</time>
      </trkpt>
      <trkpt lat="46.55936" lon="0.63231">
        <ele>75.071182666346</ele>
        <time>2021-11-17T10:17:45Z</time>
      </trkpt>
      <trkpt lat="46.55938" lon="0.63231">
        <ele>74.823789407499</ele>
        <time>2021-11-17T10:17:47Z</time>
      </trkpt>
      <trkpt lat="46.5594" lon="0.63234">
        <ele>75.044809696265</ele>
        <time>2021-11-17T10:17:49Z</time>
      </trkpt>
      <trkpt lat="46.55943" lon="0.63235">
        <ele>75.148096490651</ele>
        <time>2021-11-17T10:17:51Z</time>
      </trkpt>
      <trkpt lat="46.55946" lon="0.63238">
        <ele>74.868042377755</ele>
        <time>2021-11-17T10:17:53Z</time>
      </trkpt>
      <trkpt lat="46.55948" lon="0.6324">
        <ele>75.269359513186</ele>
        <time>2021-11-17T10:17:55Z</time>
      </trkpt>
      <trkpt lat="46.5595" lon="0.63242">
        <ele>75.28180927597</ele>
        <time>2021-11-17T10:17:57Z</time>
      </trkpt>
      <trkpt lat="46.55952" lon="0.63244">
        <ele>75.278118585236</ele>
        <time>2021-11-17T10:17:59Z</time>
      </trkpt>
      <trkpt lat="46.55955" lon="0.63246">
        <ele>75.000422685407</ele>
        <time>2021-11-17T10:18:02Z</time>
      </trkpt>
      <trkpt lat="46.55957" lon="0.63247">
        <ele>75.138660001568</ele>
        <time>2021-11-17T10:18:04Z</time>
      </trkpt>
      <trkpt lat="46.55959" lon="0.63249">
        <ele>75.659867332317</ele>
        <time>2021-11-17T10:18:06Z</time>
      </trkpt>
      <trkpt lat="46.55961" lon="0.63251">
        <ele>75.931679693982</ele>
        <time>2021-11-17T10:18:08Z</time>
      </trkpt>
      <trkpt lat="46.55963" lon="0.63252">
        <ele>75.634630066343</ele>
        <time>2021-11-17T10:18:10Z</time>
      </trkpt>
      <trkpt lat="46.55964" lon="0.63253">
        <ele>75.580255098641</ele>
        <time>2021-11-17T10:18:12Z</time>
      </trkpt>
      <trkpt lat="46.55966" lon="0.63255">
        <ele>76.028076623566</ele>
        <time>2021-11-17T10:18:14Z</time>
      </trkpt>
      <trkpt lat="46.55968" lon="0.63256">
        <ele>75.861002301797</ele>
        <time>2021-11-17T10:18:17Z</time>
      </trkpt>
      <trkpt lat="46.5597" lon="0.63256">
        <ele>75.826643181965</ele>
        <time>2021-11-17T10:18:19Z</time>
      </trkpt>
      <trkpt lat="46.55972" lon="0.63258">
        <ele>75.876307412982</ele>
        <time>2021-11-17T10:18:21Z</time>
      </trkpt>
      <trkpt lat="46.55974" lon="0.6326">
        <ele>75.735909122974</ele>
        <time>2021-11-17T10:18:23Z</time>
      </trkpt>
      <trkpt lat="46.55976" lon="0.63261">
        <ele>75.897724734619</ele>
        <time>2021-11-17T10:18:24Z</time>
      </trkpt>
      <trkpt lat="46.55978" lon="0.63262">
        <ele>76.293362058699</ele>
        <time>2021-11-17T10:18:27Z</time>
      </trkpt>
      <trkpt lat="46.5598" lon="0.63263">
        <ele>76.070691237226</ele>
        <time>2021-11-17T10:18:29Z</time>
      </trkpt>
      <trkpt lat="46.55982" lon="0.63264">
        <ele>76.30745142512</ele>
        <time>2021-11-17T10:18:31Z</time>
      </trkpt>
      <trkpt lat="46.55984" lon="0.63266">
        <ele>76.331138495356</ele>
        <time>2021-11-17T10:18:33Z</time>
      </trkpt>
      <trkpt lat="46.55986" lon="0.63268">
        <ele>76.38380582165</ele>
        <time>2021-11-17T10:18:35Z</time>
      </trkpt>
      <trkpt lat="46.55988" lon="0.6327">
        <ele>76.361393241212</ele>
        <time>2021-11-17T10:18:37Z</time>
      </trkpt>
      <trkpt lat="46.5599" lon="0.63271">
        <ele>75.890405386686</ele>
        <time>2021-11-17T10:18:39Z</time>
      </trkpt>
      <trkpt lat="46.55991" lon="0.63273">
        <ele>75.950282827951</ele>
        <time>2021-11-17T10:18:40Z</time>
      </trkpt>
      <trkpt lat="46.55995" lon="0.63275">
        <ele>76.003581011668</ele>
        <time>2021-11-17T10:18:42Z</time>
      </trkpt>
      <trkpt lat="46.55997" lon="0.63277">
        <ele>75.494752421044</ele>
        <time>2021-11-17T10:18:44Z</time>
      </trkpt>
      <trkpt lat="46.55999" lon="0.6328">
        <ele>75.267846310511</ele>
        <time>2021-11-17T10:18:47Z</time>
      </trkpt>
      <trkpt lat="46.56001" lon="0.63283">
        <ele>75.708302026615</ele>
        <time>2021-11-17T10:18:49Z</time>
      </trkpt>
      <trkpt lat="46.56003" lon="0.63285">
        <ele>75.423950074241</ele>
        <time>2021-11-17T10:18:51Z</time>
      </trkpt>
      <trkpt lat="46.56005" lon="0.63287">
        <ele>75.880826698616</ele>
        <time>2021-11-17T10:18:53Z</time>
      </trkpt>
      <trkpt lat="46.56006" lon="0.63289">
        <ele>75.729242805392</ele>
        <time>2021-11-17T10:18:55Z</time>
      </trkpt>
      <trkpt lat="46.56008" lon="0.63291">
        <ele>75.646114914678</ele>
        <time>2021-11-17T10:18:57Z</time>
      </trkpt>
      <trkpt lat="46.5601" lon="0.63292">
        <ele>75.57681030035</ele>
        <time>2021-11-17T10:18:59Z</time>
      </trkpt>
      <trkpt lat="46.56012" lon="0.63293">
        <ele>75.55985501688</ele>
        <time>2021-11-17T10:19:01Z</time>
      </trkpt>
      <trkpt lat="46.56013" lon="0.63296">
        <ele>75.646082658321</ele>
        <time>2021-11-17T10:19:03Z</time>
      </trkpt>
      <trkpt lat="46.56015" lon="0.63299">
        <ele>75.7877664892</ele>
        <time>2021-11-17T10:19:05Z</time>
      </trkpt>
      <trkpt lat="46.56015" lon="0.63302">
        <ele>76.063025679439</ele>
        <time>2021-11-17T10:19:07Z</time>
      </trkpt>
      <trkpt lat="46.56016" lon="0.63306">
        <ele>75.821305488236</ele>
        <time>2021-11-17T10:19:10Z</time>
      </trkpt>
      <trkpt lat="46.56016" lon="0.63309">
        <ele>75.711041579954</ele>
        <time>2021-11-17T10:19:12Z</time>
      </trkpt>
      <trkpt lat="46.56016" lon="0.63312">
        <ele>75.102000867017</ele>
        <time>2021-11-17T10:19:14Z</time>
      </trkpt>
      <trkpt lat="46.56016" lon="0.63316">
        <ele>74.980352994986</ele>
        <time>2021-11-17T10:19:16Z</time>
      </trkpt>
      <trkpt lat="46.56016" lon="0.6332">
        <ele>74.706575030461</ele>
        <time>2021-11-17T10:19:18Z</time>
      </trkpt>
      <trkpt lat="46.56015" lon="0.63323">
        <ele>74.682833201252</ele>
        <time>2021-11-17T10:19:20Z</time>
      </trkpt>
      <trkpt lat="46.56015" lon="0.63326">
        <ele>73.491572746076</ele>
        <time>2021-11-17T10:19:22Z</time>
      </trkpt>
      <trkpt lat="46.56014" lon="0.6333">
        <ele>73.367965252139</ele>
        <time>2021-11-17T10:19:24Z</time>
      </trkpt>
      <trkpt lat="46.56014" lon="0.63334">
        <ele>73.515613391995</ele>
        <time>2021-11-17T10:19:26Z</time>
      </trkpt>
      <trkpt lat="46.56013" lon="0.63339">
        <ele>72.86317769438</ele>
        <time>2021-11-17T10:19:28Z</time>
      </trkpt>
      <trkpt lat="46.56012" lon="0.63342">
        <ele>72.982110098004</ele>
        <time>2021-11-17T10:19:30Z</time>
      </trkpt>
      <trkpt lat="46.56011" lon="0.63345">
        <ele>72.67573720403</ele>
        <time>2021-11-17T10:19:32Z</time>
      </trkpt>
      <trkpt lat="46.56011" lon="0.63349">
        <ele>72.037999274209</ele>
        <time>2021-11-17T10:19:34Z</time>
      </trkpt>
      <trkpt lat="46.56011" lon="0.63353">
        <ele>71.898090198636</ele>
        <time>2021-11-17T10:19:36Z</time>
      </trkpt>
      <trkpt lat="46.56011" lon="0.63357">
        <ele>71.532425440848</ele>
        <time>2021-11-17T10:19:38Z</time>
      </trkpt>
      <trkpt lat="46.56011" lon="0.6336">
        <ele>71.609849963337</ele>
        <time>2021-11-17T10:19:40Z</time>
      </trkpt>
      <trkpt lat="46.5601" lon="0.63364">
        <ele>71.160237206146</ele>
        <time>2021-11-17T10:19:42Z</time>
      </trkpt>
      <trkpt lat="46.56009" lon="0.63367">
        <ele>71.369999088347</ele>
        <time>2021-11-17T10:19:44Z</time>
      </trkpt>
      <trkpt lat="46.56008" lon="0.63371">
        <ele>70.798725330271</ele>
        <time>2021-11-17T10:19:46Z</time>
      </trkpt>
      <trkpt lat="46.56008" lon="0.63374">
        <ele>70.825986471958</ele>
        <time>2021-11-17T10:19:48Z</time>
      </trkpt>
      <trkpt lat="46.56007" lon="0.63378">
        <ele>70.561311845668</ele>
        <time>2021-11-17T10:19:50Z</time>
      </trkpt>
      <trkpt lat="46.56007" lon="0.63382">
        <ele>70.395000952296</ele>
        <time>2021-11-17T10:19:52Z</time>
      </trkpt>
      <trkpt lat="46.56007" lon="0.63385">
        <ele>70.215678088367</ele>
        <time>2021-11-17T10:19:54Z</time>
      </trkpt>
      <trkpt lat="46.56006" lon="0.63389">
        <ele>70.428963844664</ele>
        <time>2021-11-17T10:19:56Z</time>
      </trkpt>
      <trkpt lat="46.56006" lon="0.63393">
        <ele>69.943902482279</ele>
        <time>2021-11-17T10:19:58Z</time>
      </trkpt>
      <trkpt lat="46.56005" lon="0.63397">
        <ele>69.861455500126</ele>
        <time>2021-11-17T10:20:00Z</time>
      </trkpt>
      <trkpt lat="46.56004" lon="0.63401">
        <ele>69.654703713953</ele>
        <time>2021-11-17T10:20:02Z</time>
      </trkpt>
      <trkpt lat="46.56004" lon="0.63405">
        <ele>69.43066871725</ele>
        <time>2021-11-17T10:20:04Z</time>
      </trkpt>
      <trkpt lat="46.56003" lon="0.63409">
        <ele>69.220063362271</ele>
        <time>2021-11-17T10:20:06Z</time>
      </trkpt>
      <trkpt lat="46.56002" lon="0.63412">
        <ele>69.569512161426</ele>
        <time>2021-11-17T10:20:08Z</time>
      </trkpt>
      <trkpt lat="46.56002" lon="0.63416">
        <ele>69.009079365991</ele>
        <time>2021-11-17T10:20:10Z</time>
      </trkpt>
      <trkpt lat="46.56001" lon="0.6342">
        <ele>68.780805009417</ele>
        <time>2021-11-17T10:20:12Z</time>
      </trkpt>
      <trkpt lat="46.55999" lon="0.63424">
        <ele>68.887679562904</ele>
        <time>2021-11-17T10:20:14Z</time>
      </trkpt>
      <trkpt lat="46.55999" lon="0.63427">
        <ele>68.20586232096</ele>
        <time>2021-11-17T10:20:16Z</time>
      </trkpt>
      <trkpt lat="46.55998" lon="0.63431">
        <ele>68.010879510082</ele>
        <time>2021-11-17T10:20:18Z</time>
      </trkpt>
      <trkpt lat="46.55996" lon="0.63436">
        <ele>68.432098891586</ele>
        <time>2021-11-17T10:20:20Z</time>
      </trkpt>
      <trkpt lat="46.55995" lon="0.6344">
        <ele>68.448655667715</ele>
        <time>2021-11-17T10:20:23Z</time>
      </trkpt>
      <trkpt lat="46.55995" lon="0.63444">
        <ele>68.24272510875</ele>
        <time>2021-11-17T10:20:25Z</time>
      </trkpt>
      <trkpt lat="46.55994" lon="0.63447">
        <ele>67.929055801593</ele>
        <time>2021-11-17T10:20:27Z</time>
      </trkpt>
      <trkpt lat="46.55993" lon="0.63451">
        <ele>68.170289564878</ele>
        <time>2021-11-17T10:20:29Z</time>
      </trkpt>
      <trkpt lat="46.55993" lon="0.63454">
        <ele>67.970858038403</ele>
        <time>2021-11-17T10:20:31Z</time>
      </trkpt>
      <trkpt lat="46.55992" lon="0.63458">
        <ele>67.445565802976</ele>
        <time>2021-11-17T10:20:33Z</time>
      </trkpt>
      <trkpt lat="46.5599" lon="0.63461">
        <ele>67.357499710284</ele>
        <time>2021-11-17T10:20:35Z</time>
      </trkpt>
      <trkpt lat="46.55989" lon="0.63464">
        <ele>67.266254701652</ele>
        <time>2021-11-17T10:20:37Z</time>
      </trkpt>
      <trkpt lat="46.55988" lon="0.63467">
        <ele>67.845941389911</ele>
        <time>2021-11-17T10:20:38Z</time>
      </trkpt>
      <trkpt lat="46.55988" lon="0.6347">
        <ele>67.681728637777</ele>
        <time>2021-11-17T10:20:40Z</time>
      </trkpt>
      <trkpt lat="46.55987" lon="0.63473">
        <ele>67.486972268671</ele>
        <time>2021-11-17T10:20:42Z</time>
      </trkpt>
      <trkpt lat="46.55985" lon="0.63477">
        <ele>67.42445156537</ele>
        <time>2021-11-17T10:20:44Z</time>
      </trkpt>
      <trkpt lat="46.55985" lon="0.6348">
        <ele>67.817434895784</ele>
        <time>2021-11-17T10:20:46Z</time>
      </trkpt>
      <trkpt lat="46.55984" lon="0.63484">
        <ele>67.295869167894</ele>
        <time>2021-11-17T10:20:48Z</time>
      </trkpt>
      <trkpt lat="46.55983" lon="0.63486">
        <ele>67.047216313891</ele>
        <time>2021-11-17T10:20:50Z</time>
      </trkpt>
      <trkpt lat="46.55982" lon="0.6349">
        <ele>66.817915915512</ele>
        <time>2021-11-17T10:20:52Z</time>
      </trkpt>
      <trkpt lat="46.55982" lon="0.63493">
        <ele>66.90061751008</ele>
        <time>2021-11-17T10:20:53Z</time>
      </trkpt>
      <trkpt lat="46.55981" lon="0.63496">
        <ele>66.669560970739</ele>
        <time>2021-11-17T10:20:55Z</time>
      </trkpt>
      <trkpt lat="46.5598" lon="0.63499">
        <ele>66.605050067417</ele>
        <time>2021-11-17T10:20:57Z</time>
      </trkpt>
      <trkpt lat="46.55979" lon="0.63503">
        <ele>66.525981970131</ele>
        <time>2021-11-17T10:20:59Z</time>
      </trkpt>
      <trkpt lat="46.55978" lon="0.63506">
        <ele>66.410261392593</ele>
        <time>2021-11-17T10:21:01Z</time>
      </trkpt>
      <trkpt lat="46.55977" lon="0.63509">
        <ele>66.187515057623</ele>
        <time>2021-11-17T10:21:03Z</time>
      </trkpt>
      <trkpt lat="46.55977" lon="0.63513">
        <ele>65.69606345892</ele>
        <time>2021-11-17T10:21:05Z</time>
      </trkpt>
      <trkpt lat="46.55976" lon="0.63517">
        <ele>66.419062125497</ele>
        <time>2021-11-17T10:21:07Z</time>
      </trkpt>
      <trkpt lat="46.55975" lon="0.6352">
        <ele>65.488552232273</ele>
        <time>2021-11-17T10:21:09Z</time>
      </trkpt>
      <trkpt lat="46.55976" lon="0.63525">
        <ele>65.495456052944</ele>
        <time>2021-11-17T10:21:11Z</time>
      </trkpt>
      <trkpt lat="46.55977" lon="0.63528">
        <ele>65.412973904051</ele>
        <time>2021-11-17T10:21:13Z</time>
      </trkpt>
      <trkpt lat="46.55977" lon="0.63532">
        <ele>65.574137359858</ele>
        <time>2021-11-17T10:21:15Z</time>
      </trkpt>
      <trkpt lat="46.55979" lon="0.63535">
        <ele>65.549372748472</ele>
        <time>2021-11-17T10:21:17Z</time>
      </trkpt>
      <trkpt lat="46.5598" lon="0.63538">
        <ele>65.511626717634</ele>
        <time>2021-11-17T10:21:19Z</time>
      </trkpt>
      <trkpt lat="46.55982" lon="0.63541">
        <ele>65.683713847771</ele>
        <time>2021-11-17T10:21:21Z</time>
      </trkpt>
      <trkpt lat="46.55984" lon="0.63542">
        <ele>65.446042132564</ele>
        <time>2021-11-17T10:21:23Z</time>
      </trkpt>
      <trkpt lat="46.55986" lon="0.63543">
        <ele>65.959571107291</ele>
        <time>2021-11-17T10:21:25Z</time>
      </trkpt>
      <trkpt lat="46.55988" lon="0.63545">
        <ele>65.831174951047</ele>
        <time>2021-11-17T10:21:27Z</time>
      </trkpt>
      <trkpt lat="46.5599" lon="0.63545">
        <ele>66.130870898254</ele>
        <time>2021-11-17T10:21:29Z</time>
      </trkpt>
      <trkpt lat="46.55993" lon="0.63546">
        <ele>66.171131580137</ele>
        <time>2021-11-17T10:21:31Z</time>
      </trkpt>
      <trkpt lat="46.55996" lon="0.63548">
        <ele>65.988423679955</ele>
        <time>2021-11-17T10:21:33Z</time>
      </trkpt>
      <trkpt lat="46.55998" lon="0.63549">
        <ele>66.380058987066</ele>
        <time>2021-11-17T10:21:35Z</time>
      </trkpt>
      <trkpt lat="46.56" lon="0.63552">
        <ele>66.11593490839</ele>
        <time>2021-11-17T10:21:37Z</time>
      </trkpt>
      <trkpt lat="46.56002" lon="0.63553">
        <ele>66.217600176111</ele>
        <time>2021-11-17T10:21:39Z</time>
      </trkpt>
      <trkpt lat="46.56004" lon="0.63554">
        <ele>65.737313885242</ele>
        <time>2021-11-17T10:21:41Z</time>
      </trkpt>
      <trkpt lat="46.56007" lon="0.63555">
        <ele>65.607697143219</ele>
        <time>2021-11-17T10:21:43Z</time>
      </trkpt>
      <trkpt lat="46.56009" lon="0.63555">
        <ele>64.942755791359</ele>
        <time>2021-11-17T10:21:45Z</time>
      </trkpt>
      <trkpt lat="46.56012" lon="0.63556">
        <ele>65.137414580211</ele>
        <time>2021-11-17T10:21:47Z</time>
      </trkpt>
      <trkpt lat="46.56015" lon="0.63556">
        <ele>64.383160259575</ele>
        <time>2021-11-17T10:21:51Z</time>
      </trkpt>
      <trkpt lat="46.56017" lon="0.63558">
        <ele>64.437159253284</ele>
        <time>2021-11-17T10:21:53Z</time>
      </trkpt>
      <trkpt lat="46.56019" lon="0.63559">
        <ele>64.776816354133</ele>
        <time>2021-11-17T10:21:55Z</time>
      </trkpt>
      <trkpt lat="46.56021" lon="0.63558">
        <ele>64.972697629593</ele>
        <time>2021-11-17T10:21:57Z</time>
      </trkpt>
      <trkpt lat="46.56023" lon="0.63555">
        <ele>64.59189421311</ele>
        <time>2021-11-17T10:21:59Z</time>
      </trkpt>
      <trkpt lat="46.56025" lon="0.63553">
        <ele>64.702247320674</ele>
        <time>2021-11-17T10:22:01Z</time>
      </trkpt>
      <trkpt lat="46.56027" lon="0.6355">
        <ele>64.736938938498</ele>
        <time>2021-11-17T10:22:03Z</time>
      </trkpt>
      <trkpt lat="46.56029" lon="0.63548">
        <ele>65.003151625395</ele>
        <time>2021-11-17T10:22:05Z</time>
      </trkpt>
      <trkpt lat="46.56031" lon="0.63546">
        <ele>65.086458746344</ele>
        <time>2021-11-17T10:22:07Z</time>
      </trkpt>
      <trkpt lat="46.56033" lon="0.63546">
        <ele>64.822989752516</ele>
        <time>2021-11-17T10:22:09Z</time>
      </trkpt>
      <trkpt lat="46.56035" lon="0.63545">
        <ele>65.093000215478</ele>
        <time>2021-11-17T10:22:11Z</time>
      </trkpt>
      <trkpt lat="46.56038" lon="0.63544">
        <ele>64.994512820616</ele>
        <time>2021-11-17T10:22:13Z</time>
      </trkpt>
      <trkpt lat="46.56041" lon="0.63545">
        <ele>65.14518692717</ele>
        <time>2021-11-17T10:22:15Z</time>
      </trkpt>
      <trkpt lat="46.56043" lon="0.63544">
        <ele>65.649615390226</ele>
        <time>2021-11-17T10:22:17Z</time>
      </trkpt>
      <trkpt lat="46.56045" lon="0.63544">
        <ele>65.3479141118</ele>
        <time>2021-11-17T10:22:19Z</time>
      </trkpt>
      <trkpt lat="46.56047" lon="0.63544">
        <ele>65.202227076516</ele>
        <time>2021-11-17T10:22:21Z</time>
      </trkpt>
      <trkpt lat="46.56049" lon="0.63544">
        <ele>65.26047685463</ele>
        <time>2021-11-17T10:22:23Z</time>
      </trkpt>
      <trkpt lat="46.56052" lon="0.63543">
        <ele>65.331762371585</ele>
        <time>2021-11-17T10:22:25Z</time>
      </trkpt>
      <trkpt lat="46.56055" lon="0.63544">
        <ele>65.241968213581</ele>
        <time>2021-11-17T10:22:27Z</time>
      </trkpt>
      <trkpt lat="46.56057" lon="0.63543">
        <ele>65.142000733875</ele>
        <time>2021-11-17T10:22:29Z</time>
      </trkpt>
      <trkpt lat="46.56059" lon="0.63544">
        <ele>65.685458072461</ele>
        <time>2021-11-17T10:22:31Z</time>
      </trkpt>
      <trkpt lat="46.56062" lon="0.63543">
        <ele>65.452024142258</ele>
        <time>2021-11-17T10:22:33Z</time>
      </trkpt>
      <trkpt lat="46.56064" lon="0.63543">
        <ele>65.26041099336</ele>
        <time>2021-11-17T10:22:35Z</time>
      </trkpt>
      <trkpt lat="46.56067" lon="0.63542">
        <ele>65.355718408711</ele>
        <time>2021-11-17T10:22:37Z</time>
      </trkpt>
      <trkpt lat="46.56069" lon="0.63542">
        <ele>65.130685657263</ele>
        <time>2021-11-17T10:22:39Z</time>
      </trkpt>
      <trkpt lat="46.56071" lon="0.63542">
        <ele>64.881570449099</ele>
        <time>2021-11-17T10:22:41Z</time>
      </trkpt>
      <trkpt lat="46.56073" lon="0.63541">
        <ele>65.454391821288</ele>
        <time>2021-11-17T10:22:43Z</time>
      </trkpt>
      <trkpt lat="46.56075" lon="0.6354">
        <ele>65.054419594817</ele>
        <time>2021-11-17T10:22:45Z</time>
      </trkpt>
      <trkpt lat="46.56077" lon="0.6354">
        <ele>65.300198812969</ele>
        <time>2021-11-17T10:22:47Z</time>
      </trkpt>
      <trkpt lat="46.5608" lon="0.63539">
        <ele>65.214400251396</ele>
        <time>2021-11-17T10:22:49Z</time>
      </trkpt>
      <trkpt lat="46.56082" lon="0.63539">
        <ele>65.246061448008</ele>
        <time>2021-11-17T10:22:51Z</time>
      </trkpt>
      <trkpt lat="46.56084" lon="0.63538">
        <ele>65.156404117122</ele>
        <time>2021-11-17T10:22:53Z</time>
      </trkpt>
      <trkpt lat="46.56086" lon="0.63538">
        <ele>65.094366491772</ele>
        <time>2021-11-17T10:22:55Z</time>
      </trkpt>
      <trkpt lat="46.56089" lon="0.63537">
        <ele>65.103744384833</ele>
        <time>2021-11-17T10:22:57Z</time>
      </trkpt>
      <trkpt lat="46.56091" lon="0.63536">
        <ele>65.542838802561</ele>
        <time>2021-11-17T10:22:59Z</time>
      </trkpt>
      <trkpt lat="46.56094" lon="0.63535">
        <ele>65.778175213374</ele>
        <time>2021-11-17T10:23:01Z</time>
      </trkpt>
      <trkpt lat="46.56096" lon="0.63535">
        <ele>65.558759538457</ele>
        <time>2021-11-17T10:23:03Z</time>
      </trkpt>
      <trkpt lat="46.56099" lon="0.63533">
        <ele>65.819080597721</ele>
        <time>2021-11-17T10:23:05Z</time>
      </trkpt>
      <trkpt lat="46.56101" lon="0.63531">
        <ele>66.116679705679</ele>
        <time>2021-11-17T10:23:07Z</time>
      </trkpt>
      <trkpt lat="46.56103" lon="0.63528">
        <ele>65.932820708491</ele>
        <time>2021-11-17T10:23:09Z</time>
      </trkpt>
      <trkpt lat="46.56104" lon="0.63525">
        <ele>66.525289903395</ele>
        <time>2021-11-17T10:23:11Z</time>
      </trkpt>
      <trkpt lat="46.56106" lon="0.63523">
        <ele>66.639488419518</ele>
        <time>2021-11-17T10:23:13Z</time>
      </trkpt>
      <trkpt lat="46.56108" lon="0.6352">
        <ele>67.334591673687</ele>
        <time>2021-11-17T10:23:15Z</time>
      </trkpt>
      <trkpt lat="46.56109" lon="0.63518">
        <ele>67.421376704238</ele>
        <time>2021-11-17T10:23:17Z</time>
      </trkpt>
      <trkpt lat="46.56109" lon="0.63515">
        <ele>68.07451861538</ele>
        <time>2021-11-17T10:23:19Z</time>
      </trkpt>
      <trkpt lat="46.56108" lon="0.63512">
        <ele>68.396822215989</ele>
        <time>2021-11-17T10:23:21Z</time>
      </trkpt>
      <trkpt lat="46.56107" lon="0.63509">
        <ele>68.371711029671</ele>
        <time>2021-11-17T10:23:23Z</time>
      </trkpt>
      <trkpt lat="46.56107" lon="0.63506">
        <ele>68.438012759201</ele>
        <time>2021-11-17T10:23:25Z</time>
      </trkpt>
      <trkpt lat="46.56105" lon="0.63503">
        <ele>68.791365048848</ele>
        <time>2021-11-17T10:23:27Z</time>
      </trkpt>
      <trkpt lat="46.56103" lon="0.635">
        <ele>68.905590802431</ele>
        <time>2021-11-17T10:23:29Z</time>
      </trkpt>
      <trkpt lat="46.56102" lon="0.63497">
        <ele>69.117932802066</ele>
        <time>2021-11-17T10:23:31Z</time>
      </trkpt>
      <trkpt lat="46.56099" lon="0.63495">
        <ele>68.629617966712</ele>
        <time>2021-11-17T10:23:33Z</time>
      </trkpt>
      <trkpt lat="46.56098" lon="0.63493">
        <ele>68.783161299303</ele>
        <time>2021-11-17T10:23:35Z</time>
      </trkpt>
      <trkpt lat="46.56096" lon="0.6349">
        <ele>69.220331612974</ele>
        <time>2021-11-17T10:23:37Z</time>
      </trkpt>
      <trkpt lat="46.56095" lon="0.63487">
        <ele>69.055403498933</ele>
        <time>2021-11-17T10:23:39Z</time>
      </trkpt>
      <trkpt lat="46.56093" lon="0.63483">
        <ele>69.160965961404</ele>
        <time>2021-11-17T10:23:41Z</time>
      </trkpt>
      <trkpt lat="46.56092" lon="0.63481">
        <ele>69.162497019395</ele>
        <time>2021-11-17T10:23:43Z</time>
      </trkpt>
      <trkpt lat="46.56091" lon="0.63477">
        <ele>69.587551064789</ele>
        <time>2021-11-17T10:23:45Z</time>
      </trkpt>
      <trkpt lat="46.56089" lon="0.63475">
        <ele>69.36119127553</ele>
        <time>2021-11-17T10:23:47Z</time>
      </trkpt>
      <trkpt lat="46.56088" lon="0.63473">
        <ele>69.061924388632</ele>
        <time>2021-11-17T10:23:49Z</time>
      </trkpt>
      <trkpt lat="46.56086" lon="0.6347">
        <ele>69.204642365687</ele>
        <time>2021-11-17T10:23:51Z</time>
      </trkpt>
      <trkpt lat="46.56085" lon="0.63467">
        <ele>69.077541445382</ele>
        <time>2021-11-17T10:23:53Z</time>
      </trkpt>
      <trkpt lat="46.56083" lon="0.63464">
        <ele>69.186314085498</ele>
        <time>2021-11-17T10:23:55Z</time>
      </trkpt>
      <trkpt lat="46.56081" lon="0.63461">
        <ele>68.80876182951</ele>
        <time>2021-11-17T10:23:57Z</time>
      </trkpt>
      <trkpt lat="46.56079" lon="0.63458">
        <ele>68.847707079723</ele>
        <time>2021-11-17T10:24:00Z</time>
      </trkpt>
      <trkpt lat="46.56079" lon="0.63455">
        <ele>69.227801799774</ele>
        <time>2021-11-17T10:24:02Z</time>
      </trkpt>
      <trkpt lat="46.56078" lon="0.63452">
        <ele>69.348379629664</ele>
        <time>2021-11-17T10:24:04Z</time>
      </trkpt>
      <trkpt lat="46.56076" lon="0.63449">
        <ele>69.922171972692</ele>
        <time>2021-11-17T10:24:06Z</time>
      </trkpt>
      <trkpt lat="46.56075" lon="0.63446">
        <ele>69.820004180074</ele>
        <time>2021-11-17T10:24:08Z</time>
      </trkpt>
      <trkpt lat="46.56074" lon="0.63443">
        <ele>70.056160489097</ele>
        <time>2021-11-17T10:24:10Z</time>
      </trkpt>
      <trkpt lat="46.56073" lon="0.63441">
        <ele>70.323252732866</ele>
        <time>2021-11-17T10:24:12Z</time>
      </trkpt>
      <trkpt lat="46.56071" lon="0.63438">
        <ele>70.484864972532</ele>
        <time>2021-11-17T10:24:14Z</time>
      </trkpt>
      <trkpt lat="46.5607" lon="0.63436">
        <ele>71.090924940072</ele>
        <time>2021-11-17T10:24:16Z</time>
      </trkpt>
      <trkpt lat="46.56069" lon="0.63433">
        <ele>71.351798749529</ele>
        <time>2021-11-17T10:24:18Z</time>
      </trkpt>
      <trkpt lat="46.56067" lon="0.63431">
        <ele>71.764824260958</ele>
        <time>2021-11-17T10:24:20Z</time>
      </trkpt>
      <trkpt lat="46.56066" lon="0.63428">
        <ele>71.957596742548</ele>
        <time>2021-11-17T10:24:22Z</time>
      </trkpt>
      <trkpt lat="46.56065" lon="0.63426">
        <ele>72.207705950364</ele>
        <time>2021-11-17T10:24:24Z</time>
      </trkpt>
      <trkpt lat="46.56064" lon="0.63423">
        <ele>72.489716620184</ele>
        <time>2021-11-17T10:24:26Z</time>
      </trkpt>
      <trkpt lat="46.56062" lon="0.6342">
        <ele>73.027465744875</ele>
        <time>2021-11-17T10:24:28Z</time>
      </trkpt>
      <trkpt lat="46.56061" lon="0.63418">
        <ele>73.410854429007</ele>
        <time>2021-11-17T10:24:30Z</time>
      </trkpt>
      <trkpt lat="46.5606" lon="0.63415">
        <ele>73.715133681893</ele>
        <time>2021-11-17T10:24:32Z</time>
      </trkpt>
      <trkpt lat="46.56059" lon="0.63412">
        <ele>74.260624051094</ele>
        <time>2021-11-17T10:24:34Z</time>
      </trkpt>
      <trkpt lat="46.56058" lon="0.6341">
        <ele>74.510542027652</ele>
        <time>2021-11-17T10:24:36Z</time>
      </trkpt>
      <trkpt lat="46.56057" lon="0.63407">
        <ele>74.732604085468</ele>
        <time>2021-11-17T10:24:38Z</time>
      </trkpt>
      <trkpt lat="46.56056" lon="0.63403">
        <ele>75.066499321721</ele>
        <time>2021-11-17T10:24:41Z</time>
      </trkpt>
      <trkpt lat="46.56056" lon="0.634">
        <ele>75.335705403239</ele>
        <time>2021-11-17T10:24:43Z</time>
      </trkpt>
      <trkpt lat="46.56054" lon="0.63397">
        <ele>75.582046987489</ele>
        <time>2021-11-17T10:24:46Z</time>
      </trkpt>
      <trkpt lat="46.56054" lon="0.63394">
        <ele>75.963876157068</ele>
        <time>2021-11-17T10:24:48Z</time>
      </trkpt>
      <trkpt lat="46.56054" lon="0.63391">
        <ele>76.100824830122</ele>
        <time>2021-11-17T10:24:50Z</time>
      </trkpt>
      <trkpt lat="46.56054" lon="0.63389">
        <ele>76.582892783917</ele>
        <time>2021-11-17T10:24:52Z</time>
      </trkpt>
      <trkpt lat="46.56054" lon="0.63386">
        <ele>76.961590835825</ele>
        <time>2021-11-17T10:24:54Z</time>
      </trkpt>
      <trkpt lat="46.56053" lon="0.63383">
        <ele>77.222296047024</ele>
        <time>2021-11-17T10:24:56Z</time>
      </trkpt>
      <trkpt lat="46.56053" lon="0.6338">
        <ele>77.784220507368</ele>
        <time>2021-11-17T10:24:59Z</time>
      </trkpt>
      <trkpt lat="46.56052" lon="0.63376">
        <ele>78.129581761546</ele>
        <time>2021-11-17T10:25:01Z</time>
      </trkpt>
      <trkpt lat="46.56052" lon="0.63372">
        <ele>78.081169762649</ele>
        <time>2021-11-17T10:25:03Z</time>
      </trkpt>
      <trkpt lat="46.56054" lon="0.6337">
        <ele>78.725657917559</ele>
        <time>2021-11-17T10:25:06Z</time>
      </trkpt>
      <trkpt lat="46.56055" lon="0.63366">
        <ele>79.400527511723</ele>
        <time>2021-11-17T10:25:09Z</time>
      </trkpt>
      <trkpt lat="46.56055" lon="0.63363">
        <ele>79.732583284378</ele>
        <time>2021-11-17T10:25:12Z</time>
      </trkpt>
      <trkpt lat="46.56054" lon="0.6336">
        <ele>80.40460560564</ele>
        <time>2021-11-17T10:25:15Z</time>
      </trkpt>
      <trkpt lat="46.56055" lon="0.63357">
        <ele>80.879915830679</ele>
        <time>2021-11-17T10:25:17Z</time>
      </trkpt>
      <trkpt lat="46.56055" lon="0.63353">
        <ele>81.052215046249</ele>
        <time>2021-11-17T10:25:20Z</time>
      </trkpt>
      <trkpt lat="46.56055" lon="0.63351">
        <ele>81.349847299978</ele>
        <time>2021-11-17T10:25:22Z</time>
      </trkpt>
      <trkpt lat="46.56056" lon="0.63347">
        <ele>81.749164853245</ele>
        <time>2021-11-17T10:25:25Z</time>
      </trkpt>
      <trkpt lat="46.56056" lon="0.63345">
        <ele>82.310218107887</ele>
        <time>2021-11-17T10:25:27Z</time>
      </trkpt>
      <trkpt lat="46.56056" lon="0.63341">
        <ele>82.368717073463</ele>
        <time>2021-11-17T10:25:30Z</time>
      </trkpt>
      <trkpt lat="46.56055" lon="0.63338">
        <ele>82.382365079597</ele>
        <time>2021-11-17T10:25:32Z</time>
      </trkpt>
      <trkpt lat="46.56055" lon="0.63335">
        <ele>83.124612623826</ele>
        <time>2021-11-17T10:25:34Z</time>
      </trkpt>
      <trkpt lat="46.56055" lon="0.63332">
        <ele>83.395179687999</ele>
        <time>2021-11-17T10:25:36Z</time>
      </trkpt>
      <trkpt lat="46.56056" lon="0.63329">
        <ele>83.554272010922</ele>
        <time>2021-11-17T10:25:38Z</time>
      </trkpt>
      <trkpt lat="46.56056" lon="0.63326">
        <ele>83.933005099185</ele>
        <time>2021-11-17T10:25:40Z</time>
      </trkpt>
      <trkpt lat="46.56056" lon="0.63323">
        <ele>84.0810747426</ele>
        <time>2021-11-17T10:25:42Z</time>
      </trkpt>
      <trkpt lat="46.56056" lon="0.6332">
        <ele>83.780480074696</ele>
        <time>2021-11-17T10:25:44Z</time>
      </trkpt>
      <trkpt lat="46.56056" lon="0.63316">
        <ele>84.243327130564</ele>
        <time>2021-11-17T10:25:46Z</time>
      </trkpt>
      <trkpt lat="46.56056" lon="0.63313">
        <ele>84.04593678657</ele>
        <time>2021-11-17T10:25:48Z</time>
      </trkpt>
      <trkpt lat="46.56056" lon="0.6331">
        <ele>84.089677278884</ele>
        <time>2021-11-17T10:25:50Z</time>
      </trkpt>
      <trkpt lat="46.56056" lon="0.63307">
        <ele>84.276391585357</ele>
        <time>2021-11-17T10:25:52Z</time>
      </trkpt>
      <trkpt lat="46.56056" lon="0.63303">
        <ele>84.158188289963</ele>
        <time>2021-11-17T10:25:54Z</time>
      </trkpt>
      <trkpt lat="46.56057" lon="0.63298">
        <ele>84.042586293072</ele>
        <time>2021-11-17T10:25:57Z</time>
      </trkpt>
      <trkpt lat="46.56057" lon="0.63295">
        <ele>84.273013660684</ele>
        <time>2021-11-17T10:25:59Z</time>
      </trkpt>
      <trkpt lat="46.56058" lon="0.6329">
        <ele>84.501011936925</ele>
        <time>2021-11-17T10:26:02Z</time>
      </trkpt>
      <trkpt lat="46.56058" lon="0.63288">
        <ele>84.460406901315</ele>
        <time>2021-11-17T10:26:04Z</time>
      </trkpt>
      <trkpt lat="46.56059" lon="0.63284">
        <ele>84.864297733642</ele>
        <time>2021-11-17T10:26:07Z</time>
      </trkpt>
      <trkpt lat="46.56059" lon="0.63281">
        <ele>84.748129606247</ele>
        <time>2021-11-17T10:26:09Z</time>
      </trkpt>
      <trkpt lat="46.5606" lon="0.63278">
        <ele>85.421969435178</ele>
        <time>2021-11-17T10:26:11Z</time>
      </trkpt>
      <trkpt lat="46.56061" lon="0.63273">
        <ele>85.619621718302</ele>
        <time>2021-11-17T10:26:14Z</time>
      </trkpt>
      <trkpt lat="46.56061" lon="0.63269">
        <ele>86.082846247591</ele>
        <time>2021-11-17T10:26:17Z</time>
      </trkpt>
      <trkpt lat="46.56061" lon="0.63266">
        <ele>86.342132092454</ele>
        <time>2021-11-17T10:26:19Z</time>
      </trkpt>
      <trkpt lat="46.56061" lon="0.63263">
        <ele>86.316039055586</ele>
        <time>2021-11-17T10:26:21Z</time>
      </trkpt>
      <trkpt lat="46.56062" lon="0.6326">
        <ele>86.155632694252</ele>
        <time>2021-11-17T10:26:23Z</time>
      </trkpt>
      <trkpt lat="46.56061" lon="0.63257">
        <ele>86.807771114632</ele>
        <time>2021-11-17T10:26:25Z</time>
      </trkpt>
      <trkpt lat="46.56063" lon="0.63254">
        <ele>86.715458295308</ele>
        <time>2021-11-17T10:26:27Z</time>
      </trkpt>
      <trkpt lat="46.56063" lon="0.63251">
        <ele>87.020960565656</ele>
        <time>2021-11-17T10:26:30Z</time>
      </trkpt>
      <trkpt lat="46.56064" lon="0.63248">
        <ele>87.11129731033</ele>
        <time>2021-11-17T10:26:33Z</time>
      </trkpt>
      <trkpt lat="46.56064" lon="0.63245">
        <ele>87.33071364183</ele>
        <time>2021-11-17T10:26:36Z</time>
      </trkpt>
      <trkpt lat="46.56065" lon="0.63243">
        <ele>87.790448084474</ele>
        <time>2021-11-17T10:26:45Z</time>
      </trkpt>
      <trkpt lat="46.56068" lon="0.63246">
        <ele>87.499589216895</ele>
        <time>2021-11-17T10:26:58Z</time>
      </trkpt>
      <trkpt lat="46.56067" lon="0.63243">
        <ele>87.633669304661</ele>
        <time>2021-11-17T10:27:12Z</time>
      </trkpt>
      <trkpt lat="46.5607" lon="0.63241">
        <ele>87.726631931029</ele>
        <time>2021-11-17T10:27:17Z</time>
      </trkpt>
      <trkpt lat="46.56072" lon="0.63239">
        <ele>88.044914351776</ele>
        <time>2021-11-17T10:27:19Z</time>
      </trkpt>
      <trkpt lat="46.56073" lon="0.63237">
        <ele>88.251459721476</ele>
        <time>2021-11-17T10:27:21Z</time>
      </trkpt>
      <trkpt lat="46.56075" lon="0.63235">
        <ele>88.610968762077</ele>
        <time>2021-11-17T10:27:23Z</time>
      </trkpt>
      <trkpt lat="46.56076" lon="0.63232">
        <ele>88.964459471405</ele>
        <time>2021-11-17T10:27:25Z</time>
      </trkpt>
      <trkpt lat="46.56078" lon="0.63229">
        <ele>89.421080272645</ele>
        <time>2021-11-17T10:27:27Z</time>
      </trkpt>
      <trkpt lat="46.56079" lon="0.63226">
        <ele>89.712209580466</ele>
        <time>2021-11-17T10:27:29Z</time>
      </trkpt>
      <trkpt lat="46.56081" lon="0.63222">
        <ele>89.830544011667</ele>
        <time>2021-11-17T10:27:32Z</time>
      </trkpt>
      <trkpt lat="46.56082" lon="0.6322">
        <ele>90.330225553364</ele>
        <time>2021-11-17T10:27:34Z</time>
      </trkpt>
      <trkpt lat="46.56084" lon="0.63218">
        <ele>90.546592067927</ele>
        <time>2021-11-17T10:27:36Z</time>
      </trkpt>
      <trkpt lat="46.56085" lon="0.63215">
        <ele>90.687176119536</ele>
        <time>2021-11-17T10:27:38Z</time>
      </trkpt>
      <trkpt lat="46.56085" lon="0.63212">
        <ele>91.056607794017</ele>
        <time>2021-11-17T10:27:40Z</time>
      </trkpt>
      <trkpt lat="46.56086" lon="0.6321">
        <ele>91.320266086608</ele>
        <time>2021-11-17T10:27:41Z</time>
      </trkpt>
      <trkpt lat="46.56087" lon="0.63207">
        <ele>91.772177284583</ele>
        <time>2021-11-17T10:27:43Z</time>
      </trkpt>
      <trkpt lat="46.56087" lon="0.63203">
        <ele>91.869010377675</ele>
        <time>2021-11-17T10:27:45Z</time>
      </trkpt>
      <trkpt lat="46.56088" lon="0.632">
        <ele>92.16533121746</ele>
        <time>2021-11-17T10:27:48Z</time>
      </trkpt>
      <trkpt lat="46.56089" lon="0.63198">
        <ele>92.322899032384</ele>
        <time>2021-11-17T10:27:50Z</time>
      </trkpt>
      <trkpt lat="46.5609" lon="0.63194">
        <ele>92.453446711414</ele>
        <time>2021-11-17T10:27:54Z</time>
      </trkpt>
      <trkpt lat="46.56091" lon="0.63191">
        <ele>92.847220287658</ele>
        <time>2021-11-17T10:27:58Z</time>
      </trkpt>
      <trkpt lat="46.56093" lon="0.63189">
        <ele>93.102697944269</ele>
        <time>2021-11-17T10:28:01Z</time>
      </trkpt>
      <trkpt lat="46.56095" lon="0.63187">
        <ele>92.968533687294</ele>
        <time>2021-11-17T10:28:03Z</time>
      </trkpt>
      <trkpt lat="46.56096" lon="0.63184">
        <ele>93.165717475116</ele>
        <time>2021-11-17T10:28:06Z</time>
      </trkpt>
      <trkpt lat="46.56098" lon="0.63183">
        <ele>93.1381238373</ele>
        <time>2021-11-17T10:28:11Z</time>
      </trkpt>
      <trkpt lat="46.561" lon="0.63182">
        <ele>93.166828000918</ele>
        <time>2021-11-17T10:28:39Z</time>
      </trkpt>
      <trkpt lat="46.56097" lon="0.63178">
        <ele>93.591458952986</ele>
        <time>2021-11-17T10:28:59Z</time>
      </trkpt>
      <trkpt lat="46.56099" lon="0.63177">
        <ele>93.432239284739</ele>
        <time>2021-11-17T10:29:14Z</time>
      </trkpt>
      <trkpt lat="46.56101" lon="0.63175">
        <ele>94.075382677838</ele>
        <time>2021-11-17T10:29:17Z</time>
      </trkpt>
      <trkpt lat="46.56103" lon="0.63174">
        <ele>93.957882932387</ele>
        <time>2021-11-17T10:29:20Z</time>
      </trkpt>
      <trkpt lat="46.56104" lon="0.63171">
        <ele>93.952127194032</ele>
        <time>2021-11-17T10:29:23Z</time>
      </trkpt>
      <trkpt lat="46.56105" lon="0.63169">
        <ele>94.131791195832</ele>
        <time>2021-11-17T10:29:26Z</time>
      </trkpt>
      <trkpt lat="46.56107" lon="0.63167">
        <ele>94.238472975791</ele>
        <time>2021-11-17T10:29:30Z</time>
      </trkpt>
      <trkpt lat="46.56109" lon="0.63165">
        <ele>94.395895254798</ele>
        <time>2021-11-17T10:29:33Z</time>
      </trkpt>
      <trkpt lat="46.5611" lon="0.63163">
        <ele>94.474580079317</ele>
        <time>2021-11-17T10:29:36Z</time>
      </trkpt>
      <trkpt lat="46.56112" lon="0.63162">
        <ele>94.548318172805</ele>
        <time>2021-11-17T10:29:39Z</time>
      </trkpt>
      <trkpt lat="46.56113" lon="0.6316">
        <ele>94.665688529611</ele>
        <time>2021-11-17T10:29:41Z</time>
      </trkpt>
      <trkpt lat="46.56115" lon="0.63158">
        <ele>94.951299270615</ele>
        <time>2021-11-17T10:29:44Z</time>
      </trkpt>
      <trkpt lat="46.56116" lon="0.63156">
        <ele>95.151064415462</ele>
        <time>2021-11-17T10:29:47Z</time>
      </trkpt>
      <trkpt lat="46.56118" lon="0.63153">
        <ele>94.8478127243</ele>
        <time>2021-11-17T10:29:50Z</time>
      </trkpt>
      <trkpt lat="46.5612" lon="0.6315">
        <ele>95.58121724613</ele>
        <time>2021-11-17T10:29:53Z</time>
      </trkpt>
      <trkpt lat="46.56122" lon="0.63148">
        <ele>95.625966836698</ele>
        <time>2021-11-17T10:29:55Z</time>
      </trkpt>
      <trkpt lat="46.56123" lon="0.63146">
        <ele>95.777339359745</ele>
        <time>2021-11-17T10:29:57Z</time>
      </trkpt>
      <trkpt lat="46.56126" lon="0.63144">
        <ele>95.646215771325</ele>
        <time>2021-11-17T10:30:00Z</time>
      </trkpt>
      <trkpt lat="46.56127" lon="0.63142">
        <ele>96.004958203062</ele>
        <time>2021-11-17T10:30:02Z</time>
      </trkpt>
      <trkpt lat="46.56129" lon="0.63139">
        <ele>96.083561664447</ele>
        <time>2021-11-17T10:30:04Z</time>
      </trkpt>
      <trkpt lat="46.5613" lon="0.63136">
        <ele>96.177003978752</ele>
        <time>2021-11-17T10:30:07Z</time>
      </trkpt>
      <trkpt lat="46.56132" lon="0.63135">
        <ele>96.70758290682</ele>
        <time>2021-11-17T10:30:09Z</time>
      </trkpt>
      <trkpt lat="46.56134" lon="0.63134">
        <ele>96.921308326535</ele>
        <time>2021-11-17T10:30:12Z</time>
      </trkpt>
      <trkpt lat="46.56136" lon="0.63133">
        <ele>96.911363045685</ele>
        <time>2021-11-17T10:30:14Z</time>
      </trkpt>
      <trkpt lat="46.56138" lon="0.6313">
        <ele>96.900868440047</ele>
        <time>2021-11-17T10:30:16Z</time>
      </trkpt>
      <trkpt lat="46.5614" lon="0.63129">
        <ele>97.102838911116</ele>
        <time>2021-11-17T10:30:19Z</time>
      </trkpt>
      <trkpt lat="46.56142" lon="0.63127">
        <ele>97.478860835545</ele>
        <time>2021-11-17T10:30:21Z</time>
      </trkpt>
      <trkpt lat="46.56144" lon="0.63125">
        <ele>97.296530604362</ele>
        <time>2021-11-17T10:30:24Z</time>
      </trkpt>
      <trkpt lat="46.56146" lon="0.63124">
        <ele>97.260016651824</ele>
        <time>2021-11-17T10:30:26Z</time>
      </trkpt>
      <trkpt lat="46.56149" lon="0.63122">
        <ele>97.243653381243</ele>
        <time>2021-11-17T10:30:29Z</time>
      </trkpt>
      <trkpt lat="46.56151" lon="0.6312">
        <ele>97.439557684585</ele>
        <time>2021-11-17T10:30:31Z</time>
      </trkpt>
      <trkpt lat="46.56153" lon="0.63118">
        <ele>97.482367490418</ele>
        <time>2021-11-17T10:30:34Z</time>
      </trkpt>
      <trkpt lat="46.56155" lon="0.63117">
        <ele>97.125948145986</ele>
        <time>2021-11-17T10:30:37Z</time>
      </trkpt>
      <trkpt lat="46.56158" lon="0.63116">
        <ele>97.596300323494</ele>
        <time>2021-11-17T10:30:40Z</time>
      </trkpt>
      <trkpt lat="46.5616" lon="0.63115">
        <ele>97.264301375486</ele>
        <time>2021-11-17T10:30:43Z</time>
      </trkpt>
      <trkpt lat="46.56162" lon="0.63116">
        <ele>97.496397267096</ele>
        <time>2021-11-17T10:30:46Z</time>
      </trkpt>
      <trkpt lat="46.56164" lon="0.63117">
        <ele>97.484058463015</ele>
        <time>2021-11-17T10:31:05Z</time>
      </trkpt>
      <trkpt lat="46.56165" lon="0.63119">
        <ele>97.827932265587</ele>
        <time>2021-11-17T10:31:16Z</time>
      </trkpt>
      <trkpt lat="46.56168" lon="0.6312">
        <ele>97.930437931791</ele>
        <time>2021-11-17T10:31:20Z</time>
      </trkpt>
      <trkpt lat="46.5617" lon="0.63121">
        <ele>98.657255807891</ele>
        <time>2021-11-17T10:31:22Z</time>
      </trkpt>
      <trkpt lat="46.56172" lon="0.63123">
        <ele>97.402721544728</ele>
        <time>2021-11-17T10:31:27Z</time>
      </trkpt>
      <trkpt lat="46.56174" lon="0.63124">
        <ele>97.674723280594</ele>
        <time>2021-11-17T10:31:31Z</time>
      </trkpt>
      <trkpt lat="46.56176" lon="0.63126">
        <ele>97.923371056095</ele>
        <time>2021-11-17T10:31:34Z</time>
      </trkpt>
      <trkpt lat="46.56178" lon="0.63129">
        <ele>97.604127177037</ele>
        <time>2021-11-17T10:31:40Z</time>
      </trkpt>
      <trkpt lat="46.56179" lon="0.6313">
        <ele>97.989646013826</ele>
        <time>2021-11-17T10:31:42Z</time>
      </trkpt>
      <trkpt lat="46.56181" lon="0.63132">
        <ele>98.100968509912</ele>
        <time>2021-11-17T10:31:45Z</time>
      </trkpt>
      <trkpt lat="46.56183" lon="0.63134">
        <ele>98.333574802615</ele>
        <time>2021-11-17T10:31:48Z</time>
      </trkpt>
      <trkpt lat="46.56185" lon="0.63135">
        <ele>97.858109094203</ele>
        <time>2021-11-17T10:31:51Z</time>
      </trkpt>
      <trkpt lat="46.56187" lon="0.63135">
        <ele>97.914191665128</ele>
        <time>2021-11-17T10:31:55Z</time>
      </trkpt>
      <trkpt lat="46.56189" lon="0.63137">
        <ele>97.94288105052</ele>
        <time>2021-11-17T10:31:57Z</time>
      </trkpt>
      <trkpt lat="46.56191" lon="0.63139">
        <ele>97.830379679799</ele>
        <time>2021-11-17T10:32:00Z</time>
      </trkpt>
      <trkpt lat="46.56194" lon="0.63141">
        <ele>97.89299983345</ele>
        <time>2021-11-17T10:32:03Z</time>
      </trkpt>
      <trkpt lat="46.56195" lon="0.63144">
        <ele>97.868608133867</ele>
        <time>2021-11-17T10:32:05Z</time>
      </trkpt>
      <trkpt lat="46.56197" lon="0.63146">
        <ele>98.136093709618</ele>
        <time>2021-11-17T10:32:08Z</time>
      </trkpt>
      <trkpt lat="46.56199" lon="0.63149">
        <ele>97.880080666393</ele>
        <time>2021-11-17T10:32:10Z</time>
      </trkpt>
      <trkpt lat="46.562" lon="0.6315">
        <ele>97.836860229261</ele>
        <time>2021-11-17T10:32:12Z</time>
      </trkpt>
      <trkpt lat="46.56202" lon="0.63152">
        <ele>98.276335651986</ele>
        <time>2021-11-17T10:32:14Z</time>
      </trkpt>
      <trkpt lat="46.56205" lon="0.63153">
        <ele>98.400627585128</ele>
        <time>2021-11-17T10:32:17Z</time>
      </trkpt>
      <trkpt lat="46.56207" lon="0.63154">
        <ele>98.29469934199</ele>
        <time>2021-11-17T10:32:19Z</time>
      </trkpt>
      <trkpt lat="46.56209" lon="0.63156">
        <ele>98.605708024465</ele>
        <time>2021-11-17T10:32:21Z</time>
      </trkpt>
      <trkpt lat="46.5621" lon="0.63158">
        <ele>98.690746310167</ele>
        <time>2021-11-17T10:32:23Z</time>
      </trkpt>
      <trkpt lat="46.56212" lon="0.63159">
        <ele>98.498480391689</ele>
        <time>2021-11-17T10:32:25Z</time>
      </trkpt>
      <trkpt lat="46.56214" lon="0.6316">
        <ele>98.513427346945</ele>
        <time>2021-11-17T10:32:27Z</time>
      </trkpt>
      <trkpt lat="46.56217" lon="0.63162">
        <ele>98.744352085516</ele>
        <time>2021-11-17T10:32:29Z</time>
      </trkpt>
      <trkpt lat="46.56218" lon="0.63164">
        <ele>98.52967743855</ele>
        <time>2021-11-17T10:32:32Z</time>
      </trkpt>
      <trkpt lat="46.5622" lon="0.63165">
        <ele>98.728424249217</ele>
        <time>2021-11-17T10:32:34Z</time>
      </trkpt>
      <trkpt lat="46.56222" lon="0.63167">
        <ele>98.73373877164</ele>
        <time>2021-11-17T10:32:37Z</time>
      </trkpt>
      <trkpt lat="46.56224" lon="0.63169">
        <ele>98.900550405495</ele>
        <time>2021-11-17T10:32:40Z</time>
      </trkpt>
      <trkpt lat="46.56226" lon="0.63169">
        <ele>98.736109893769</ele>
        <time>2021-11-17T10:32:42Z</time>
      </trkpt>
      <trkpt lat="46.56228" lon="0.63169">
        <ele>98.839866379276</ele>
        <time>2021-11-17T10:32:44Z</time>
      </trkpt>
      <trkpt lat="46.56231" lon="0.6317">
        <ele>98.944441867992</ele>
        <time>2021-11-17T10:32:46Z</time>
      </trkpt>
      <trkpt lat="46.56233" lon="0.63171">
        <ele>98.695165600628</ele>
        <time>2021-11-17T10:32:48Z</time>
      </trkpt>
      <trkpt lat="46.56236" lon="0.63171">
        <ele>98.628743110225</ele>
        <time>2021-11-17T10:32:50Z</time>
      </trkpt>
      <trkpt lat="46.56239" lon="0.63172">
        <ele>98.970048873685</ele>
        <time>2021-11-17T10:32:52Z</time>
      </trkpt>
      <trkpt lat="46.56241" lon="0.63173">
        <ele>98.796092756093</ele>
        <time>2021-11-17T10:32:55Z</time>
      </trkpt>
      <trkpt lat="46.56243" lon="0.63174">
        <ele>99.106180419214</ele>
        <time>2021-11-17T10:32:57Z</time>
      </trkpt>
      <trkpt lat="46.56245" lon="0.63174">
        <ele>99.32007812243</ele>
        <time>2021-11-17T10:32:59Z</time>
      </trkpt>
      <trkpt lat="46.56247" lon="0.63175">
        <ele>98.937947751954</ele>
        <time>2021-11-17T10:33:01Z</time>
      </trkpt>
      <trkpt lat="46.5625" lon="0.63174">
        <ele>99.211250679567</ele>
        <time>2021-11-17T10:33:03Z</time>
      </trkpt>
      <trkpt lat="46.56252" lon="0.63175">
        <ele>99.210829130374</ele>
        <time>2021-11-17T10:33:05Z</time>
      </trkpt>
      <trkpt lat="46.56254" lon="0.63175">
        <ele>99.287735052407</ele>
        <time>2021-11-17T10:33:08Z</time>
      </trkpt>
      <trkpt lat="46.56256" lon="0.63176">
        <ele>99.283754170872</ele>
        <time>2021-11-17T10:33:10Z</time>
      </trkpt>
      <trkpt lat="46.56259" lon="0.63175">
        <ele>99.231103089638</ele>
        <time>2021-11-17T10:33:12Z</time>
      </trkpt>
      <trkpt lat="46.56261" lon="0.63174">
        <ele>99.405747435987</ele>
        <time>2021-11-17T10:33:14Z</time>
      </trkpt>
      <trkpt lat="46.56263" lon="0.63175">
        <ele>99.338000474498</ele>
        <time>2021-11-17T10:33:16Z</time>
      </trkpt>
      <trkpt lat="46.56265" lon="0.63176">
        <ele>99.409031667747</ele>
        <time>2021-11-17T10:33:18Z</time>
      </trkpt>
      <trkpt lat="46.56267" lon="0.63176">
        <ele>99.685154477134</ele>
        <time>2021-11-17T10:33:20Z</time>
      </trkpt>
      <trkpt lat="46.5627" lon="0.63177">
        <ele>99.280551403761</ele>
        <time>2021-11-17T10:33:23Z</time>
      </trkpt>
      <trkpt lat="46.56272" lon="0.63178">
        <ele>99.682233646512</ele>
        <time>2021-11-17T10:33:25Z</time>
      </trkpt>
      <trkpt lat="46.56274" lon="0.63179">
        <ele>99.816957572475</ele>
        <time>2021-11-17T10:33:28Z</time>
      </trkpt>
      <trkpt lat="46.56276" lon="0.63178">
        <ele>100.13814417738</ele>
        <time>2021-11-17T10:33:30Z</time>
      </trkpt>
      <trkpt lat="46.56279" lon="0.63178">
        <ele>100.003971803</ele>
        <time>2021-11-17T10:33:32Z</time>
      </trkpt>
      <trkpt lat="46.56281" lon="0.63176">
        <ele>99.8452965701</ele>
        <time>2021-11-17T10:33:34Z</time>
      </trkpt>
      <trkpt lat="46.56283" lon="0.63175">
        <ele>100.09003130626</ele>
        <time>2021-11-17T10:33:36Z</time>
      </trkpt>
      <trkpt lat="46.56286" lon="0.63174">
        <ele>99.803158627823</ele>
        <time>2021-11-17T10:33:38Z</time>
      </trkpt>
      <trkpt lat="46.56289" lon="0.63171">
        <ele>99.964074626565</ele>
        <time>2021-11-17T10:33:40Z</time>
      </trkpt>
      <trkpt lat="46.56291" lon="0.63169">
        <ele>100.02223116811</ele>
        <time>2021-11-17T10:33:42Z</time>
      </trkpt>
      <trkpt lat="46.56293" lon="0.63167">
        <ele>99.954667081125</ele>
        <time>2021-11-17T10:33:44Z</time>
      </trkpt>
      <trkpt lat="46.56295" lon="0.63164">
        <ele>99.849313555285</ele>
        <time>2021-11-17T10:33:46Z</time>
      </trkpt>
      <trkpt lat="46.56297" lon="0.63161">
        <ele>100.10977988876</ele>
        <time>2021-11-17T10:33:48Z</time>
      </trkpt>
      <trkpt lat="46.56299" lon="0.63158">
        <ele>99.695028611459</ele>
        <time>2021-11-17T10:33:50Z</time>
      </trkpt>
      <trkpt lat="46.56301" lon="0.63155">
        <ele>100.05921376497</ele>
        <time>2021-11-17T10:33:52Z</time>
      </trkpt>
      <trkpt lat="46.56302" lon="0.63153">
        <ele>99.745823886245</ele>
        <time>2021-11-17T10:33:54Z</time>
      </trkpt>
      <trkpt lat="46.56304" lon="0.6315">
        <ele>100.21456142236</ele>
        <time>2021-11-17T10:33:56Z</time>
      </trkpt>
      <trkpt lat="46.56306" lon="0.63148">
        <ele>99.982329504564</ele>
        <time>2021-11-17T10:33:58Z</time>
      </trkpt>
      <trkpt lat="46.56308" lon="0.63146">
        <ele>99.694756136276</ele>
        <time>2021-11-17T10:34:00Z</time>
      </trkpt>
      <trkpt lat="46.5631" lon="0.63145">
        <ele>99.735791994259</ele>
        <time>2021-11-17T10:34:02Z</time>
      </trkpt>
      <trkpt lat="46.56313" lon="0.63144">
        <ele>99.922539422289</ele>
        <time>2021-11-17T10:34:04Z</time>
      </trkpt>
      <trkpt lat="46.56315" lon="0.63144">
        <ele>99.7531186454</ele>
        <time>2021-11-17T10:34:06Z</time>
      </trkpt>
      <trkpt lat="46.56317" lon="0.63142">
        <ele>99.863026586361</ele>
        <time>2021-11-17T10:34:08Z</time>
      </trkpt>
      <trkpt lat="46.56319" lon="0.63141">
        <ele>100.16708063334</ele>
        <time>2021-11-17T10:34:10Z</time>
      </trkpt>
      <trkpt lat="46.56321" lon="0.6314">
        <ele>100.09558775928</ele>
        <time>2021-11-17T10:34:12Z</time>
      </trkpt>
      <trkpt lat="46.56323" lon="0.63138">
        <ele>100.27484514471</ele>
        <time>2021-11-17T10:34:14Z</time>
      </trkpt>
      <trkpt lat="46.56325" lon="0.63137">
        <ele>100.0712203756</ele>
        <time>2021-11-17T10:34:16Z</time>
      </trkpt>
      <trkpt lat="46.56328" lon="0.63136">
        <ele>100.27463246323</ele>
        <time>2021-11-17T10:34:18Z</time>
      </trkpt>
      <trkpt lat="46.5633" lon="0.63135">
        <ele>100.29659473337</ele>
        <time>2021-11-17T10:34:20Z</time>
      </trkpt>
      <trkpt lat="46.56333" lon="0.63134">
        <ele>100.35646654665</ele>
        <time>2021-11-17T10:34:22Z</time>
      </trkpt>
      <trkpt lat="46.56336" lon="0.63133">
        <ele>100.09433787595</ele>
        <time>2021-11-17T10:34:24Z</time>
      </trkpt>
      <trkpt lat="46.56338" lon="0.63132">
        <ele>100.32703789324</ele>
        <time>2021-11-17T10:34:26Z</time>
      </trkpt>
      <trkpt lat="46.5634" lon="0.6313">
        <ele>100.21882386878</ele>
        <time>2021-11-17T10:34:28Z</time>
      </trkpt>
      <trkpt lat="46.56343" lon="0.63129">
        <ele>100.05063933507</ele>
        <time>2021-11-17T10:34:30Z</time>
      </trkpt>
      <trkpt lat="46.56345" lon="0.63128">
        <ele>100.33719354216</ele>
        <time>2021-11-17T10:34:32Z</time>
      </trkpt>
      <trkpt lat="46.56347" lon="0.63127">
        <ele>100.10705764778</ele>
        <time>2021-11-17T10:34:34Z</time>
      </trkpt>
      <trkpt lat="46.56349" lon="0.63126">
        <ele>100.39878028445</ele>
        <time>2021-11-17T10:34:36Z</time>
      </trkpt>
      <trkpt lat="46.56352" lon="0.63124">
        <ele>99.932587819174</ele>
        <time>2021-11-17T10:34:39Z</time>
      </trkpt>
      <trkpt lat="46.56353" lon="0.63122">
        <ele>100.27669033781</ele>
        <time>2021-11-17T10:34:43Z</time>
      </trkpt>
      <trkpt lat="46.56355" lon="0.6312">
        <ele>100.07124747895</ele>
        <time>2021-11-17T10:34:45Z</time>
      </trkpt>
      <trkpt lat="46.56357" lon="0.63118">
        <ele>100.25518968888</ele>
        <time>2021-11-17T10:34:47Z</time>
      </trkpt>
      <trkpt lat="46.56358" lon="0.63117">
        <ele>100.31525212899</ele>
        <time>2021-11-17T10:34:49Z</time>
      </trkpt>
      <trkpt lat="46.5636" lon="0.63114">
        <ele>100.35472078715</ele>
        <time>2021-11-17T10:34:51Z</time>
      </trkpt>
      <trkpt lat="46.56362" lon="0.63112">
        <ele>99.936274630949</ele>
        <time>2021-11-17T10:34:53Z</time>
      </trkpt>
      <trkpt lat="46.56364" lon="0.63109">
        <ele>100.45530602708</ele>
        <time>2021-11-17T10:34:55Z</time>
      </trkpt>
      <trkpt lat="46.56365" lon="0.63107">
        <ele>100.30951076187</ele>
        <time>2021-11-17T10:34:57Z</time>
      </trkpt>
      <trkpt lat="46.56368" lon="0.63106">
        <ele>100.05561843514</ele>
        <time>2021-11-17T10:35:00Z</time>
      </trkpt>
      <trkpt lat="46.5637" lon="0.63103">
        <ele>100.19488413353</ele>
        <time>2021-11-17T10:35:02Z</time>
      </trkpt>
      <trkpt lat="46.56372" lon="0.63101">
        <ele>99.943168018013</ele>
        <time>2021-11-17T10:35:04Z</time>
      </trkpt>
      <trkpt lat="46.56374" lon="0.63098">
        <ele>99.835268381052</ele>
        <time>2021-11-17T10:35:06Z</time>
      </trkpt>
      <trkpt lat="46.56376" lon="0.63096">
        <ele>99.870056025684</ele>
        <time>2021-11-17T10:35:08Z</time>
      </trkpt>
      <trkpt lat="46.56378" lon="0.63094">
        <ele>99.866251643747</ele>
        <time>2021-11-17T10:35:10Z</time>
      </trkpt>
      <trkpt lat="46.5638" lon="0.63091">
        <ele>99.861894577742</ele>
        <time>2021-11-17T10:35:12Z</time>
      </trkpt>
      <trkpt lat="46.56382" lon="0.63089">
        <ele>99.524291631766</ele>
        <time>2021-11-17T10:35:14Z</time>
      </trkpt>
      <trkpt lat="46.56384" lon="0.63087">
        <ele>99.822738004848</ele>
        <time>2021-11-17T10:35:16Z</time>
      </trkpt>
      <trkpt lat="46.56386" lon="0.63084">
        <ele>99.402790642343</ele>
        <time>2021-11-17T10:35:19Z</time>
      </trkpt>
      <trkpt lat="46.56388" lon="0.63082">
        <ele>99.215981380083</ele>
        <time>2021-11-17T10:35:21Z</time>
      </trkpt>
      <trkpt lat="46.5639" lon="0.6308">
        <ele>99.481923896819</ele>
        <time>2021-11-17T10:35:23Z</time>
      </trkpt>
      <trkpt lat="46.56391" lon="0.63078">
        <ele>99.107430047356</ele>
        <time>2021-11-17T10:35:25Z</time>
      </trkpt>
      <trkpt lat="46.56393" lon="0.63076">
        <ele>99.35457854066</ele>
        <time>2021-11-17T10:35:27Z</time>
      </trkpt>
      <trkpt lat="46.56395" lon="0.63074">
        <ele>99.282460402697</ele>
        <time>2021-11-17T10:35:29Z</time>
      </trkpt>
      <trkpt lat="46.56397" lon="0.63071">
        <ele>99.488156598993</ele>
        <time>2021-11-17T10:35:32Z</time>
      </trkpt>
      <trkpt lat="46.56399" lon="0.63071">
        <ele>99.729317227378</ele>
        <time>2021-11-17T10:35:34Z</time>
      </trkpt>
      <trkpt lat="46.56397" lon="0.63072">
        <ele>99.627785166726</ele>
        <time>2021-11-17T10:35:47Z</time>
      </trkpt>
      <trkpt lat="46.56395" lon="0.6307">
        <ele>99.673078435473</ele>
        <time>2021-11-17T10:35:54Z</time>
      </trkpt>
      <trkpt lat="46.56396" lon="0.63073">
        <ele>99.431181217544</ele>
        <time>2021-11-17T10:36:01Z</time>
      </trkpt>
      <trkpt lat="46.56399" lon="0.63074">
        <ele>99.529058609158</ele>
        <time>2021-11-17T10:36:03Z</time>
      </trkpt>
      <trkpt lat="46.56401" lon="0.63076">
        <ele>99.51212092489</ele>
        <time>2021-11-17T10:36:05Z</time>
      </trkpt>
      <trkpt lat="46.56403" lon="0.63078">
        <ele>99.127003260888</ele>
        <time>2021-11-17T10:36:08Z</time>
      </trkpt>
      <trkpt lat="46.56406" lon="0.6308">
        <ele>99.329779599793</ele>
        <time>2021-11-17T10:36:10Z</time>
      </trkpt>
      <trkpt lat="46.56407" lon="0.63081">
        <ele>99.293024010025</ele>
        <time>2021-11-17T10:36:12Z</time>
      </trkpt>
      <trkpt lat="46.5641" lon="0.63082">
        <ele>99.437632299028</ele>
        <time>2021-11-17T10:36:15Z</time>
      </trkpt>
      <trkpt lat="46.56412" lon="0.63084">
        <ele>99.668032175861</ele>
        <time>2021-11-17T10:36:18Z</time>
      </trkpt>
      <trkpt lat="46.56414" lon="0.63085">
        <ele>99.54961407464</ele>
        <time>2021-11-17T10:36:20Z</time>
      </trkpt>
      <trkpt lat="46.56416" lon="0.63086">
        <ele>99.330587675795</ele>
        <time>2021-11-17T10:36:22Z</time>
      </trkpt>
      <trkpt lat="46.56419" lon="0.63088">
        <ele>99.512205838226</ele>
        <time>2021-11-17T10:36:24Z</time>
      </trkpt>
      <trkpt lat="46.5642" lon="0.6309">
        <ele>99.436448230408</ele>
        <time>2021-11-17T10:36:26Z</time>
      </trkpt>
      <trkpt lat="46.56421" lon="0.63093">
        <ele>99.675389443524</ele>
        <time>2021-11-17T10:36:31Z</time>
      </trkpt>
      <trkpt lat="46.56423" lon="0.63095">
        <ele>99.733759306371</ele>
        <time>2021-11-17T10:36:33Z</time>
      </trkpt>
      <trkpt lat="46.56425" lon="0.63096">
        <ele>99.683437294327</ele>
        <time>2021-11-17T10:36:35Z</time>
      </trkpt>
      <trkpt lat="46.56426" lon="0.63099">
        <ele>99.482650741003</ele>
        <time>2021-11-17T10:36:38Z</time>
      </trkpt>
      <trkpt lat="46.56428" lon="0.63101">
        <ele>99.698001632467</ele>
        <time>2021-11-17T10:36:47Z</time>
      </trkpt>
      <trkpt lat="46.56428" lon="0.63103">
        <ele>99.516064316034</ele>
        <time>2021-11-17T10:37:00Z</time>
      </trkpt>
      <trkpt lat="46.56425" lon="0.63104">
        <ele>99.570263490081</ele>
        <time>2021-11-17T10:37:16Z</time>
      </trkpt>
      <trkpt lat="46.56424" lon="0.63107">
        <ele>99.28668618761</ele>
        <time>2021-11-17T10:37:24Z</time>
      </trkpt>
      <trkpt lat="46.56424" lon="0.6311">
        <ele>99.388253524899</ele>
        <time>2021-11-17T10:37:26Z</time>
      </trkpt>
      <trkpt lat="46.56425" lon="0.63114">
        <ele>99.563217899762</ele>
        <time>2021-11-17T10:37:29Z</time>
      </trkpt>
      <trkpt lat="46.56424" lon="0.63117">
        <ele>99.686773075722</ele>
        <time>2021-11-17T10:37:32Z</time>
      </trkpt>
      <trkpt lat="46.56423" lon="0.63119">
        <ele>99.839994140901</ele>
        <time>2021-11-17T10:37:34Z</time>
      </trkpt>
      <trkpt lat="46.56422" lon="0.63122">
        <ele>99.676417262293</ele>
        <time>2021-11-17T10:37:36Z</time>
      </trkpt>
      <trkpt lat="46.5642" lon="0.63124">
        <ele>99.893540275283</ele>
        <time>2021-11-17T10:37:38Z</time>
      </trkpt>
      <trkpt lat="46.56419" lon="0.63127">
        <ele>99.850602206774</ele>
        <time>2021-11-17T10:37:41Z</time>
      </trkpt>
      <trkpt lat="46.56417" lon="0.6313">
        <ele>99.938092367724</ele>
        <time>2021-11-17T10:37:43Z</time>
      </trkpt>
      <trkpt lat="46.56416" lon="0.63133">
        <ele>100.21647649258</ele>
        <time>2021-11-17T10:37:46Z</time>
      </trkpt>
      <trkpt lat="46.56415" lon="0.63137">
        <ele>100.40343121625</ele>
        <time>2021-11-17T10:37:50Z</time>
      </trkpt>
      <trkpt lat="46.56414" lon="0.63139">
        <ele>100.32429976203</ele>
        <time>2021-11-17T10:37:51Z</time>
      </trkpt>
      <trkpt lat="46.56413" lon="0.63141">
        <ele>100.40178544633</ele>
        <time>2021-11-17T10:37:54Z</time>
      </trkpt>
      <trkpt lat="46.56412" lon="0.63144">
        <ele>100.77160232328</ele>
        <time>2021-11-17T10:37:56Z</time>
      </trkpt>
      <trkpt lat="46.5641" lon="0.63148">
        <ele>100.77502812911</ele>
        <time>2021-11-17T10:37:58Z</time>
      </trkpt>
      <trkpt lat="46.56409" lon="0.63152">
        <ele>100.95600159559</ele>
        <time>2021-11-17T10:38:00Z</time>
      </trkpt>
      <trkpt lat="46.56408" lon="0.63156">
        <ele>101.20241330937</ele>
        <time>2021-11-17T10:38:02Z</time>
      </trkpt>
      <trkpt lat="46.56407" lon="0.63158">
        <ele>101.19260463025</ele>
        <time>2021-11-17T10:38:04Z</time>
      </trkpt>
      <trkpt lat="46.56406" lon="0.63161">
        <ele>101.27766162343</ele>
        <time>2021-11-17T10:38:06Z</time>
      </trkpt>
      <trkpt lat="46.56405" lon="0.63164">
        <ele>101.34655431844</ele>
        <time>2021-11-17T10:38:08Z</time>
      </trkpt>
      <trkpt lat="46.56403" lon="0.63167">
        <ele>101.47101181</ele>
        <time>2021-11-17T10:38:10Z</time>
      </trkpt>
      <trkpt lat="46.56402" lon="0.6317">
        <ele>101.53156753816</ele>
        <time>2021-11-17T10:38:12Z</time>
      </trkpt>
      <trkpt lat="46.56401" lon="0.63173">
        <ele>101.58043037914</ele>
        <time>2021-11-17T10:38:14Z</time>
      </trkpt>
      <trkpt lat="46.564" lon="0.63175">
        <ele>101.93473265506</ele>
        <time>2021-11-17T10:38:16Z</time>
      </trkpt>
      <trkpt lat="46.56399" lon="0.63178">
        <ele>101.28720517084</ele>
        <time>2021-11-17T10:38:19Z</time>
      </trkpt>
      <trkpt lat="46.56397" lon="0.63181">
        <ele>101.30678359326</ele>
        <time>2021-11-17T10:38:21Z</time>
      </trkpt>
      <trkpt lat="46.56396" lon="0.63183">
        <ele>101.16611081548</ele>
        <time>2021-11-17T10:38:22Z</time>
      </trkpt>
      <trkpt lat="46.56395" lon="0.63187">
        <ele>101.54078147188</ele>
        <time>2021-11-17T10:38:24Z</time>
      </trkpt>
      <trkpt lat="46.56394" lon="0.6319">
        <ele>101.35129344184</ele>
        <time>2021-11-17T10:38:26Z</time>
      </trkpt>
      <trkpt lat="46.56392" lon="0.63193">
        <ele>101.33013379294</ele>
        <time>2021-11-17T10:38:29Z</time>
      </trkpt>
      <trkpt lat="46.56391" lon="0.63196">
        <ele>101.13506410923</ele>
        <time>2021-11-17T10:38:31Z</time>
      </trkpt>
      <trkpt lat="46.56389" lon="0.63199">
        <ele>101.30674903188</ele>
        <time>2021-11-17T10:38:33Z</time>
      </trkpt>
      <trkpt lat="46.56388" lon="0.63202">
        <ele>101.43907314073</ele>
        <time>2021-11-17T10:38:35Z</time>
      </trkpt>
      <trkpt lat="46.56386" lon="0.63205">
        <ele>101.52425944619</ele>
        <time>2021-11-17T10:38:37Z</time>
      </trkpt>
      <trkpt lat="46.56385" lon="0.63208">
        <ele>101.75637678895</ele>
        <time>2021-11-17T10:38:39Z</time>
      </trkpt>
      <trkpt lat="46.56383" lon="0.63211">
        <ele>101.85936126858</ele>
        <time>2021-11-17T10:38:41Z</time>
      </trkpt>
      <trkpt lat="46.56381" lon="0.63214">
        <ele>101.89863750432</ele>
        <time>2021-11-17T10:38:43Z</time>
      </trkpt>
      <trkpt lat="46.56379" lon="0.63217">
        <ele>102.37862066459</ele>
        <time>2021-11-17T10:38:45Z</time>
      </trkpt>
      <trkpt lat="46.56377" lon="0.63219">
        <ele>102.22642584145</ele>
        <time>2021-11-17T10:38:47Z</time>
      </trkpt>
      <trkpt lat="46.56376" lon="0.63222">
        <ele>102.39640333038</ele>
        <time>2021-11-17T10:38:49Z</time>
      </trkpt>
      <trkpt lat="46.56375" lon="0.63224">
        <ele>102.51106119342</ele>
        <time>2021-11-17T10:38:50Z</time>
      </trkpt>
      <trkpt lat="46.56374" lon="0.63227">
        <ele>102.65016165469</ele>
        <time>2021-11-17T10:38:52Z</time>
      </trkpt>
      <trkpt lat="46.56373" lon="0.63231">
        <ele>102.35340771731</ele>
        <time>2021-11-17T10:38:54Z</time>
      </trkpt>
      <trkpt lat="46.56372" lon="0.63234">
        <ele>102.68380473554</ele>
        <time>2021-11-17T10:38:56Z</time>
      </trkpt>
      <trkpt lat="46.5637" lon="0.63237">
        <ele>102.60794115998</ele>
        <time>2021-11-17T10:38:58Z</time>
      </trkpt>
      <trkpt lat="46.5637" lon="0.63239">
        <ele>102.58672507759</ele>
        <time>2021-11-17T10:39:00Z</time>
      </trkpt>
      <trkpt lat="46.56369" lon="0.63242">
        <ele>102.46372228302</ele>
        <time>2021-11-17T10:39:02Z</time>
      </trkpt>
      <trkpt lat="46.56369" lon="0.63246">
        <ele>102.37762153894</ele>
        <time>2021-11-17T10:39:05Z</time>
      </trkpt>
      <trkpt lat="46.56367" lon="0.63249">
        <ele>102.48238939699</ele>
        <time>2021-11-17T10:39:08Z</time>
      </trkpt>
      <trkpt lat="46.56367" lon="0.63251">
        <ele>102.08033777121</ele>
        <time>2021-11-17T10:39:10Z</time>
      </trkpt>
      <trkpt lat="46.56365" lon="0.63254">
        <ele>102.88519593608</ele>
        <time>2021-11-17T10:39:38Z</time>
      </trkpt>
      <trkpt lat="46.56367" lon="0.63255">
        <ele>102.65333849564</ele>
        <time>2021-11-17T10:39:41Z</time>
      </trkpt>
      <trkpt lat="46.56366" lon="0.63257">
        <ele>102.66352128331</ele>
        <time>2021-11-17T10:39:53Z</time>
      </trkpt>
      <trkpt lat="46.56367" lon="0.63255">
        <ele>102.33462718315</ele>
        <time>2021-11-17T10:40:07Z</time>
      </trkpt>
      <trkpt lat="46.56364" lon="0.63254">
        <ele>102.30788754299</ele>
        <time>2021-11-17T10:40:27Z</time>
      </trkpt>
      <trkpt lat="46.56362" lon="0.63255">
        <ele>102.40746467281</ele>
        <time>2021-11-17T10:40:29Z</time>
      </trkpt>
      <trkpt lat="46.5636" lon="0.63256">
        <ele>102.2641031798</ele>
        <time>2021-11-17T10:40:31Z</time>
      </trkpt>
      <trkpt lat="46.56358" lon="0.63257">
        <ele>102.2742338134</ele>
        <time>2021-11-17T10:40:34Z</time>
      </trkpt>
      <trkpt lat="46.56356" lon="0.63259">
        <ele>102.82996713929</ele>
        <time>2021-11-17T10:40:37Z</time>
      </trkpt>
      <trkpt lat="46.56354" lon="0.6326">
        <ele>102.5578770088</ele>
        <time>2021-11-17T10:40:39Z</time>
      </trkpt>
      <trkpt lat="46.56351" lon="0.63264">
        <ele>102.72684077267</ele>
        <time>2021-11-17T10:40:42Z</time>
      </trkpt>
      <trkpt lat="46.56349" lon="0.63267">
        <ele>102.90242750011</ele>
        <time>2021-11-17T10:40:45Z</time>
      </trkpt>
      <trkpt lat="46.56348" lon="0.63269">
        <ele>102.86193587352</ele>
        <time>2021-11-17T10:40:47Z</time>
      </trkpt>
      <trkpt lat="46.56346" lon="0.63271">
        <ele>103.1875499161</ele>
        <time>2021-11-17T10:40:49Z</time>
      </trkpt>
      <trkpt lat="46.56344" lon="0.63273">
        <ele>103.05576928612</ele>
        <time>2021-11-17T10:40:51Z</time>
      </trkpt>
      <trkpt lat="46.56342" lon="0.63274">
        <ele>103.60283929948</ele>
        <time>2021-11-17T10:40:54Z</time>
      </trkpt>
      <trkpt lat="46.5634" lon="0.63276">
        <ele>103.41883082967</ele>
        <time>2021-11-17T10:40:56Z</time>
      </trkpt>
      <trkpt lat="46.56338" lon="0.63279">
        <ele>103.56703604292</ele>
        <time>2021-11-17T10:40:58Z</time>
      </trkpt>
      <trkpt lat="46.56338" lon="0.63282">
        <ele>103.41901260056</ele>
        <time>2021-11-17T10:41:00Z</time>
      </trkpt>
      <trkpt lat="46.56337" lon="0.63286">
        <ele>103.61027313676</ele>
        <time>2021-11-17T10:41:02Z</time>
      </trkpt>
      <trkpt lat="46.56336" lon="0.63289">
        <ele>103.44026999455</ele>
        <time>2021-11-17T10:41:04Z</time>
      </trkpt>
      <trkpt lat="46.56334" lon="0.63291">
        <ele>103.29249514546</ele>
        <time>2021-11-17T10:41:06Z</time>
      </trkpt>
      <trkpt lat="46.56332" lon="0.63294">
        <ele>103.5675816359</ele>
        <time>2021-11-17T10:41:08Z</time>
      </trkpt>
      <trkpt lat="46.56331" lon="0.63296">
        <ele>103.33057660889</ele>
        <time>2021-11-17T10:41:10Z</time>
      </trkpt>
      <trkpt lat="46.56329" lon="0.633">
        <ele>103.42870264687</ele>
        <time>2021-11-17T10:41:12Z</time>
      </trkpt>
      <trkpt lat="46.56329" lon="0.63303">
        <ele>103.48979565036</ele>
        <time>2021-11-17T10:41:14Z</time>
      </trkpt>
      <trkpt lat="46.56331" lon="0.63306">
        <ele>103.34166321438</ele>
        <time>2021-11-17T10:41:16Z</time>
      </trkpt>
      <trkpt lat="46.56333" lon="0.63309">
        <ele>103.36695571616</ele>
        <time>2021-11-17T10:41:18Z</time>
      </trkpt>
      <trkpt lat="46.56334" lon="0.63312">
        <ele>103.35745827761</ele>
        <time>2021-11-17T10:41:20Z</time>
      </trkpt>
      <trkpt lat="46.56335" lon="0.63315">
        <ele>103.24836858362</ele>
        <time>2021-11-17T10:41:21Z</time>
      </trkpt>
      <trkpt lat="46.56336" lon="0.63318">
        <ele>103.58999737911</ele>
        <time>2021-11-17T10:41:23Z</time>
      </trkpt>
      <trkpt lat="46.56338" lon="0.6332">
        <ele>103.80858126283</ele>
        <time>2021-11-17T10:41:25Z</time>
      </trkpt>
      <trkpt lat="46.5634" lon="0.63322">
        <ele>103.66986387689</ele>
        <time>2021-11-17T10:41:27Z</time>
      </trkpt>
      <trkpt lat="46.56341" lon="0.63324">
        <ele>103.44426457491</ele>
        <time>2021-11-17T10:41:29Z</time>
      </trkpt>
      <trkpt lat="46.56343" lon="0.63326">
        <ele>103.66683173645</ele>
        <time>2021-11-17T10:41:31Z</time>
      </trkpt>
      <trkpt lat="46.56344" lon="0.63329">
        <ele>103.36482154392</ele>
        <time>2021-11-17T10:41:33Z</time>
      </trkpt>
      <trkpt lat="46.56345" lon="0.63332">
        <ele>103.35363476817</ele>
        <time>2021-11-17T10:41:35Z</time>
      </trkpt>
      <trkpt lat="46.56347" lon="0.63334">
        <ele>103.5952719599</ele>
        <time>2021-11-17T10:41:37Z</time>
      </trkpt>
      <trkpt lat="46.56348" lon="0.63336">
        <ele>103.40456835832</ele>
        <time>2021-11-17T10:41:39Z</time>
      </trkpt>
      <trkpt lat="46.56349" lon="0.63339">
        <ele>103.5180563014</ele>
        <time>2021-11-17T10:41:41Z</time>
      </trkpt>
      <trkpt lat="46.56351" lon="0.63342">
        <ele>103.63325082231</ele>
        <time>2021-11-17T10:41:43Z</time>
      </trkpt>
      <trkpt lat="46.56353" lon="0.63345">
        <ele>103.3926254278</ele>
        <time>2021-11-17T10:41:45Z</time>
      </trkpt>
      <trkpt lat="46.56354" lon="0.63347">
        <ele>103.05729606375</ele>
        <time>2021-11-17T10:41:47Z</time>
      </trkpt>
      <trkpt lat="46.56355" lon="0.6335">
        <ele>103.17638320941</ele>
        <time>2021-11-17T10:41:49Z</time>
      </trkpt>
      <trkpt lat="46.56357" lon="0.63353">
        <ele>103.2097998485</ele>
        <time>2021-11-17T10:41:51Z</time>
      </trkpt>
      <trkpt lat="46.56358" lon="0.63355">
        <ele>103.44962112606</ele>
        <time>2021-11-17T10:41:53Z</time>
      </trkpt>
      <trkpt lat="46.5636" lon="0.63358">
        <ele>103.29979183711</ele>
        <time>2021-11-17T10:41:55Z</time>
      </trkpt>
      <trkpt lat="46.56361" lon="0.6336">
        <ele>103.38585757557</ele>
        <time>2021-11-17T10:41:57Z</time>
      </trkpt>
      <trkpt lat="46.56363" lon="0.63363">
        <ele>103.09292992577</ele>
        <time>2021-11-17T10:41:59Z</time>
      </trkpt>
      <trkpt lat="46.56364" lon="0.63366">
        <ele>103.05643826444</ele>
        <time>2021-11-17T10:42:01Z</time>
      </trkpt>
      <trkpt lat="46.56365" lon="0.63368">
        <ele>103.26363235246</ele>
        <time>2021-11-17T10:42:03Z</time>
      </trkpt>
      <trkpt lat="46.56366" lon="0.63371">
        <ele>103.17072783504</ele>
        <time>2021-11-17T10:42:05Z</time>
      </trkpt>
      <trkpt lat="46.56369" lon="0.63373">
        <ele>103.302993441</ele>
        <time>2021-11-17T10:42:07Z</time>
      </trkpt>
      <trkpt lat="46.56371" lon="0.63375">
        <ele>103.08291027322</ele>
        <time>2021-11-17T10:42:09Z</time>
      </trkpt>
      <trkpt lat="46.56373" lon="0.63377">
        <ele>103.43991986196</ele>
        <time>2021-11-17T10:42:11Z</time>
      </trkpt>
      <trkpt lat="46.56374" lon="0.63379">
        <ele>103.51696877461</ele>
        <time>2021-11-17T10:42:13Z</time>
      </trkpt>
      <trkpt lat="46.56376" lon="0.63381">
        <ele>103.98221448809</ele>
        <time>2021-11-17T10:42:15Z</time>
      </trkpt>
      <trkpt lat="46.56378" lon="0.63383">
        <ele>103.85330824088</ele>
        <time>2021-11-17T10:42:17Z</time>
      </trkpt>
      <trkpt lat="46.5638" lon="0.63385">
        <ele>103.70667508431</ele>
        <time>2021-11-17T10:42:19Z</time>
      </trkpt>
      <trkpt lat="46.56381" lon="0.63387">
        <ele>103.55294432398</ele>
        <time>2021-11-17T10:42:22Z</time>
      </trkpt>
      <trkpt lat="46.56383" lon="0.6339">
        <ele>103.46110802703</ele>
        <time>2021-11-17T10:42:24Z</time>
      </trkpt>
      <trkpt lat="46.56384" lon="0.63393">
        <ele>103.56909629423</ele>
        <time>2021-11-17T10:42:26Z</time>
      </trkpt>
      <trkpt lat="46.56386" lon="0.63395">
        <ele>103.78757998534</ele>
        <time>2021-11-17T10:42:28Z</time>
      </trkpt>
      <trkpt lat="46.56387" lon="0.63397">
        <ele>104.18604460638</ele>
        <time>2021-11-17T10:42:30Z</time>
      </trkpt>
      <trkpt lat="46.56389" lon="0.634">
        <ele>103.54262699932</ele>
        <time>2021-11-17T10:42:32Z</time>
      </trkpt>
      <trkpt lat="46.5639" lon="0.63404">
        <ele>103.1996741863</ele>
        <time>2021-11-17T10:42:35Z</time>
      </trkpt>
      <trkpt lat="46.5639" lon="0.63407">
        <ele>103.60026072711</ele>
        <time>2021-11-17T10:42:37Z</time>
      </trkpt>
      <trkpt lat="46.56389" lon="0.63411">
        <ele>103.40590209235</ele>
        <time>2021-11-17T10:42:40Z</time>
      </trkpt>
      <trkpt lat="46.56387" lon="0.63413">
        <ele>103.39808433782</ele>
        <time>2021-11-17T10:42:42Z</time>
      </trkpt>
      <trkpt lat="46.56386" lon="0.63415">
        <ele>103.71058454644</ele>
        <time>2021-11-17T10:42:44Z</time>
      </trkpt>
      <trkpt lat="46.56386" lon="0.63417">
        <ele>103.58236490563</ele>
        <time>2021-11-17T10:43:01Z</time>
      </trkpt>
      <trkpt lat="46.56388" lon="0.63418">
        <ele>103.4730862705</ele>
        <time>2021-11-17T10:43:08Z</time>
      </trkpt>
      <trkpt lat="46.56389" lon="0.63415">
        <ele>103.65063586179</ele>
        <time>2021-11-17T10:43:16Z</time>
      </trkpt>
      <trkpt lat="46.56389" lon="0.63412">
        <ele>103.49109718297</ele>
        <time>2021-11-17T10:43:22Z</time>
      </trkpt>
      <trkpt lat="46.5639" lon="0.6341">
        <ele>103.54674366117</ele>
        <time>2021-11-17T10:43:42Z</time>
      </trkpt>
      <trkpt lat="46.56391" lon="0.63407">
        <ele>103.55398115702</ele>
        <time>2021-11-17T10:43:45Z</time>
      </trkpt>
      <trkpt lat="46.56393" lon="0.63406">
        <ele>103.59443196375</ele>
        <time>2021-11-17T10:44:04Z</time>
      </trkpt>
      <trkpt lat="46.5639" lon="0.63407">
        <ele>103.58108395059</ele>
        <time>2021-11-17T10:44:36Z</time>
      </trkpt>
      <trkpt lat="46.56393" lon="0.63407">
        <ele>103.69965309743</ele>
        <time>2021-11-17T10:45:12Z</time>
      </trkpt>
      <trkpt lat="46.56391" lon="0.63406">
        <ele>103.46539365314</ele>
        <time>2021-11-17T10:45:29Z</time>
      </trkpt>
      <trkpt lat="46.56389" lon="0.63407">
        <ele>103.85593154095</ele>
        <time>2021-11-17T10:45:35Z</time>
      </trkpt>
      <trkpt lat="46.56391" lon="0.63408">
        <ele>103.36696379911</ele>
        <time>2021-11-17T10:45:47Z</time>
      </trkpt>
      <trkpt lat="46.56394" lon="0.63407">
        <ele>103.88916578889</ele>
        <time>2021-11-17T10:46:02Z</time>
      </trkpt>
      <trkpt lat="46.56391" lon="0.63408">
        <ele>103.79605949111</ele>
        <time>2021-11-17T10:46:13Z</time>
      </trkpt>
      <trkpt lat="46.56388" lon="0.63412">
        <ele>103.39982925914</ele>
        <time>2021-11-17T10:46:21Z</time>
      </trkpt>
      <trkpt lat="46.56387" lon="0.63415">
        <ele>103.49113689456</ele>
        <time>2021-11-17T10:46:24Z</time>
      </trkpt>
      <trkpt lat="46.56386" lon="0.63418">
        <ele>103.23100410867</ele>
        <time>2021-11-17T10:46:26Z</time>
      </trkpt>
      <trkpt lat="46.56386" lon="0.63421">
        <ele>103.26049149688</ele>
        <time>2021-11-17T10:46:28Z</time>
      </trkpt>
      <trkpt lat="46.56385" lon="0.63424">
        <ele>103.56782369595</ele>
        <time>2021-11-17T10:46:31Z</time>
      </trkpt>
      <trkpt lat="46.56384" lon="0.63427">
        <ele>103.2771665873</ele>
        <time>2021-11-17T10:46:33Z</time>
      </trkpt>
      <trkpt lat="46.56382" lon="0.63429">
        <ele>103.26040927507</ele>
        <time>2021-11-17T10:46:35Z</time>
      </trkpt>
      <trkpt lat="46.56381" lon="0.6343">
        <ele>103.20110973902</ele>
        <time>2021-11-17T10:46:37Z</time>
      </trkpt>
      <trkpt lat="46.56379" lon="0.63431">
        <ele>103.18898422644</ele>
        <time>2021-11-17T10:46:39Z</time>
      </trkpt>
      <trkpt lat="46.56376" lon="0.63431">
        <ele>103.80379995704</ele>
        <time>2021-11-17T10:46:41Z</time>
      </trkpt>
      <trkpt lat="46.56374" lon="0.63432">
        <ele>103.71732664388</ele>
        <time>2021-11-17T10:46:44Z</time>
      </trkpt>
      <trkpt lat="46.56372" lon="0.63429">
        <ele>103.23614236712</ele>
        <time>2021-11-17T10:46:53Z</time>
      </trkpt>
      <trkpt lat="46.56371" lon="0.63427">
        <ele>103.6058929991</ele>
        <time>2021-11-17T10:46:55Z</time>
      </trkpt>
      <trkpt lat="46.5637" lon="0.63425">
        <ele>103.72220651433</ele>
        <time>2021-11-17T10:46:59Z</time>
      </trkpt>
      <trkpt lat="46.56367" lon="0.63426">
        <ele>103.69878903218</ele>
        <time>2021-11-17T10:47:01Z</time>
      </trkpt>
      <trkpt lat="46.56365" lon="0.63428">
        <ele>103.74133107904</ele>
        <time>2021-11-17T10:47:03Z</time>
      </trkpt>
      <trkpt lat="46.56363" lon="0.6343">
        <ele>103.85059813596</ele>
        <time>2021-11-17T10:47:05Z</time>
      </trkpt>
      <trkpt lat="46.56362" lon="0.63432">
        <ele>103.54429015983</ele>
        <time>2021-11-17T10:47:07Z</time>
      </trkpt>
      <trkpt lat="46.5636" lon="0.63434">
        <ele>104.25615931954</ele>
        <time>2021-11-17T10:47:09Z</time>
      </trkpt>
      <trkpt lat="46.56358" lon="0.63436">
        <ele>103.2453459613</ele>
        <time>2021-11-17T10:47:11Z</time>
      </trkpt>
      <trkpt lat="46.56357" lon="0.63439">
        <ele>103.60895674862</ele>
        <time>2021-11-17T10:47:13Z</time>
      </trkpt>
      <trkpt lat="46.56355" lon="0.63441">
        <ele>103.39620455913</ele>
        <time>2021-11-17T10:47:15Z</time>
      </trkpt>
      <trkpt lat="46.56353" lon="0.63444">
        <ele>103.72189978976</ele>
        <time>2021-11-17T10:47:17Z</time>
      </trkpt>
      <trkpt lat="46.56352" lon="0.63446">
        <ele>103.46460528951</ele>
        <time>2021-11-17T10:47:19Z</time>
      </trkpt>
      <trkpt lat="46.56352" lon="0.63451">
        <ele>103.38943258766</ele>
        <time>2021-11-17T10:47:21Z</time>
      </trkpt>
      <trkpt lat="46.56351" lon="0.63454">
        <ele>102.70902764332</ele>
        <time>2021-11-17T10:47:23Z</time>
      </trkpt>
      <trkpt lat="46.5635" lon="0.63456">
        <ele>103.24481876474</ele>
        <time>2021-11-17T10:47:25Z</time>
      </trkpt>
      <trkpt lat="46.56348" lon="0.63459">
        <ele>103.60183051135</ele>
        <time>2021-11-17T10:47:27Z</time>
      </trkpt>
      <trkpt lat="46.56348" lon="0.63463">
        <ele>103.36462130211</ele>
        <time>2021-11-17T10:47:29Z</time>
      </trkpt>
      <trkpt lat="46.56348" lon="0.63466">
        <ele>103.3341712663</ele>
        <time>2021-11-17T10:47:31Z</time>
      </trkpt>
      <trkpt lat="46.56347" lon="0.63469">
        <ele>103.10122620966</ele>
        <time>2021-11-17T10:47:33Z</time>
      </trkpt>
      <trkpt lat="46.56346" lon="0.63473">
        <ele>103.91894909739</ele>
        <time>2021-11-17T10:47:35Z</time>
      </trkpt>
      <trkpt lat="46.56345" lon="0.63475">
        <ele>103.00273181871</ele>
        <time>2021-11-17T10:47:37Z</time>
      </trkpt>
      <trkpt lat="46.56344" lon="0.63478">
        <ele>103.06388166081</ele>
        <time>2021-11-17T10:47:39Z</time>
      </trkpt>
      <trkpt lat="46.56343" lon="0.63482">
        <ele>102.71754667722</ele>
        <time>2021-11-17T10:47:41Z</time>
      </trkpt>
      <trkpt lat="46.56342" lon="0.63485">
        <ele>102.5831704773</ele>
        <time>2021-11-17T10:47:43Z</time>
      </trkpt>
      <trkpt lat="46.5634" lon="0.63488">
        <ele>102.85796074849</ele>
        <time>2021-11-17T10:47:45Z</time>
      </trkpt>
      <trkpt lat="46.56338" lon="0.63492">
        <ele>102.65053682681</ele>
        <time>2021-11-17T10:47:47Z</time>
      </trkpt>
      <trkpt lat="46.56337" lon="0.63495">
        <ele>103.03949256521</ele>
        <time>2021-11-17T10:47:49Z</time>
      </trkpt>
      <trkpt lat="46.56336" lon="0.63498">
        <ele>103.27675497252</ele>
        <time>2021-11-17T10:47:51Z</time>
      </trkpt>
      <trkpt lat="46.56335" lon="0.63502">
        <ele>102.432728393</ele>
        <time>2021-11-17T10:47:53Z</time>
      </trkpt>
      <trkpt lat="46.56335" lon="0.63505">
        <ele>102.40632855427</ele>
        <time>2021-11-17T10:47:55Z</time>
      </trkpt>
      <trkpt lat="46.56334" lon="0.63508">
        <ele>102.07646927051</ele>
        <time>2021-11-17T10:47:57Z</time>
      </trkpt>
      <trkpt lat="46.56334" lon="0.63512">
        <ele>101.6233137222</ele>
        <time>2021-11-17T10:47:59Z</time>
      </trkpt>
      <trkpt lat="46.56334" lon="0.63515">
        <ele>101.96367617417</ele>
        <time>2021-11-17T10:48:01Z</time>
      </trkpt>
      <trkpt lat="46.56335" lon="0.63519">
        <ele>101.20260380395</ele>
        <time>2021-11-17T10:48:03Z</time>
      </trkpt>
      <trkpt lat="46.56336" lon="0.63521">
        <ele>100.90853558853</ele>
        <time>2021-11-17T10:48:05Z</time>
      </trkpt>
      <trkpt lat="46.56338" lon="0.63523">
        <ele>101.13378310483</ele>
        <time>2021-11-17T10:48:07Z</time>
      </trkpt>
      <trkpt lat="46.5634" lon="0.63525">
        <ele>100.43934579473</ele>
        <time>2021-11-17T10:48:09Z</time>
      </trkpt>
      <trkpt lat="46.56342" lon="0.63527">
        <ele>100.92064117733</ele>
        <time>2021-11-17T10:48:11Z</time>
      </trkpt>
      <trkpt lat="46.56343" lon="0.6353">
        <ele>100.31465459149</ele>
        <time>2021-11-17T10:48:13Z</time>
      </trkpt>
      <trkpt lat="46.56344" lon="0.63533">
        <ele>99.76525275968</ele>
        <time>2021-11-17T10:48:15Z</time>
      </trkpt>
      <trkpt lat="46.56346" lon="0.63536">
        <ele>99.851491377689</ele>
        <time>2021-11-17T10:48:17Z</time>
      </trkpt>
      <trkpt lat="46.56348" lon="0.63538">
        <ele>100.18913733959</ele>
        <time>2021-11-17T10:48:19Z</time>
      </trkpt>
      <trkpt lat="46.56349" lon="0.6354">
        <ele>99.917672492564</ele>
        <time>2021-11-17T10:48:21Z</time>
      </trkpt>
      <trkpt lat="46.56351" lon="0.63542">
        <ele>100.49602574576</ele>
        <time>2021-11-17T10:48:23Z</time>
      </trkpt>
      <trkpt lat="46.56353" lon="0.63544">
        <ele>100.0402175067</ele>
        <time>2021-11-17T10:48:25Z</time>
      </trkpt>
      <trkpt lat="46.56355" lon="0.63546">
        <ele>100.0933397105</ele>
        <time>2021-11-17T10:48:27Z</time>
      </trkpt>
      <trkpt lat="46.56358" lon="0.6355">
        <ele>99.873861680739</ele>
        <time>2021-11-17T10:48:29Z</time>
      </trkpt>
      <trkpt lat="46.56361" lon="0.63552">
        <ele>99.512382142246</ele>
        <time>2021-11-17T10:48:32Z</time>
      </trkpt>
      <trkpt lat="46.56363" lon="0.63554">
        <ele>99.431957577355</ele>
        <time>2021-11-17T10:48:34Z</time>
      </trkpt>
      <trkpt lat="46.56364" lon="0.63555">
        <ele>99.638586593792</ele>
        <time>2021-11-17T10:48:36Z</time>
      </trkpt>
      <trkpt lat="46.56366" lon="0.63557">
        <ele>99.634607379325</ele>
        <time>2021-11-17T10:48:38Z</time>
      </trkpt>
      <trkpt lat="46.56368" lon="0.63561">
        <ele>99.171200582758</ele>
        <time>2021-11-17T10:48:41Z</time>
      </trkpt>
      <trkpt lat="46.5637" lon="0.63562">
        <ele>99.028918154538</ele>
        <time>2021-11-17T10:48:43Z</time>
      </trkpt>
      <trkpt lat="46.56371" lon="0.63564">
        <ele>98.337155205198</ele>
        <time>2021-11-17T10:48:45Z</time>
      </trkpt>
      <trkpt lat="46.56373" lon="0.63565">
        <ele>98.584266869351</ele>
        <time>2021-11-17T10:48:47Z</time>
      </trkpt>
      <trkpt lat="46.56376" lon="0.63566">
        <ele>98.561355210841</ele>
        <time>2021-11-17T10:48:49Z</time>
      </trkpt>
      <trkpt lat="46.56379" lon="0.63568">
        <ele>99.40517852176</ele>
        <time>2021-11-17T10:48:51Z</time>
      </trkpt>
      <trkpt lat="46.56382" lon="0.63569">
        <ele>98.597404301167</ele>
        <time>2021-11-17T10:48:53Z</time>
      </trkpt>
      <trkpt lat="46.56384" lon="0.6357">
        <ele>98.824992667884</ele>
        <time>2021-11-17T10:48:55Z</time>
      </trkpt>
      <trkpt lat="46.56387" lon="0.6357">
        <ele>98.530364678241</ele>
        <time>2021-11-17T10:48:57Z</time>
      </trkpt>
      <trkpt lat="46.56389" lon="0.63571">
        <ele>98.602705332451</ele>
        <time>2021-11-17T10:48:58Z</time>
      </trkpt>
      <trkpt lat="46.56391" lon="0.63573">
        <ele>98.587087837048</ele>
        <time>2021-11-17T10:49:00Z</time>
      </trkpt>
      <trkpt lat="46.56394" lon="0.63574">
        <ele>98.517585574649</ele>
        <time>2021-11-17T10:49:02Z</time>
      </trkpt>
      <trkpt lat="46.56396" lon="0.63575">
        <ele>98.457321668044</ele>
        <time>2021-11-17T10:49:04Z</time>
      </trkpt>
      <trkpt lat="46.56398" lon="0.63575">
        <ele>98.35517717246</ele>
        <time>2021-11-17T10:49:06Z</time>
      </trkpt>
      <trkpt lat="46.56401" lon="0.63575">
        <ele>98.174245215021</ele>
        <time>2021-11-17T10:49:08Z</time>
      </trkpt>
      <trkpt lat="46.56403" lon="0.63578">
        <ele>97.861962034367</ele>
        <time>2021-11-17T10:49:10Z</time>
      </trkpt>
      <trkpt lat="46.56404" lon="0.6358">
        <ele>98.717159239575</ele>
        <time>2021-11-17T10:49:12Z</time>
      </trkpt>
      <trkpt lat="46.56406" lon="0.63584">
        <ele>97.465826990083</ele>
        <time>2021-11-17T10:49:14Z</time>
      </trkpt>
      <trkpt lat="46.56406" lon="0.63587">
        <ele>97.022324364632</ele>
        <time>2021-11-17T10:49:16Z</time>
      </trkpt>
      <trkpt lat="46.56408" lon="0.63591">
        <ele>97.140113374218</ele>
        <time>2021-11-17T10:49:18Z</time>
      </trkpt>
      <trkpt lat="46.56408" lon="0.63593">
        <ele>97.135381451808</ele>
        <time>2021-11-17T10:49:20Z</time>
      </trkpt>
      <trkpt lat="46.56409" lon="0.63597">
        <ele>97.414495354518</ele>
        <time>2021-11-17T10:49:22Z</time>
      </trkpt>
      <trkpt lat="46.56411" lon="0.63599">
        <ele>97.085145738907</ele>
        <time>2021-11-17T10:49:24Z</time>
      </trkpt>
      <trkpt lat="46.56413" lon="0.63599">
        <ele>97.073751614429</ele>
        <time>2021-11-17T10:49:27Z</time>
      </trkpt>
      <trkpt lat="46.56416" lon="0.63599">
        <ele>97.434135017917</ele>
        <time>2021-11-17T10:49:29Z</time>
      </trkpt>
      <trkpt lat="46.56418" lon="0.63598">
        <ele>97.15921988897</ele>
        <time>2021-11-17T10:49:31Z</time>
      </trkpt>
      <trkpt lat="46.5642" lon="0.63598">
        <ele>97.605033195578</ele>
        <time>2021-11-17T10:49:33Z</time>
      </trkpt>
      <trkpt lat="46.56422" lon="0.63598">
        <ele>97.648978729732</ele>
        <time>2021-11-17T10:49:35Z</time>
      </trkpt>
      <trkpt lat="46.56424" lon="0.63597">
        <ele>97.727547370829</ele>
        <time>2021-11-17T10:49:37Z</time>
      </trkpt>
      <trkpt lat="46.56427" lon="0.63596">
        <ele>97.567547637969</ele>
        <time>2021-11-17T10:49:39Z</time>
      </trkpt>
      <trkpt lat="46.56429" lon="0.63595">
        <ele>98.318781815469</ele>
        <time>2021-11-17T10:49:41Z</time>
      </trkpt>
      <trkpt lat="46.56432" lon="0.63594">
        <ele>96.79623920843</ele>
        <time>2021-11-17T10:49:43Z</time>
      </trkpt>
      <trkpt lat="46.56436" lon="0.63593">
        <ele>97.460153031163</ele>
        <time>2021-11-17T10:49:45Z</time>
      </trkpt>
      <trkpt lat="46.56437" lon="0.63592">
        <ele>98.177818024531</ele>
        <time>2021-11-17T10:49:46Z</time>
      </trkpt>
      <trkpt lat="46.5644" lon="0.63592">
        <ele>98.009376513772</ele>
        <time>2021-11-17T10:49:48Z</time>
      </trkpt>
      <trkpt lat="46.56443" lon="0.63591">
        <ele>98.181359833106</ele>
        <time>2021-11-17T10:49:50Z</time>
      </trkpt>
      <trkpt lat="46.56447" lon="0.6359">
        <ele>98.003903864883</ele>
        <time>2021-11-17T10:49:53Z</time>
      </trkpt>
      <trkpt lat="46.56449" lon="0.63589">
        <ele>97.810885247774</ele>
        <time>2021-11-17T10:49:54Z</time>
      </trkpt>
      <trkpt lat="46.56451" lon="0.63589">
        <ele>97.897064368241</ele>
        <time>2021-11-17T10:49:56Z</time>
      </trkpt>
      <trkpt lat="46.56453" lon="0.63589">
        <ele>97.948465639725</ele>
        <time>2021-11-17T10:49:57Z</time>
      </trkpt>
      <trkpt lat="46.56454" lon="0.63589">
        <ele>98.047415998764</ele>
        <time>2021-11-17T10:49:59Z</time>
      </trkpt>
      <trkpt lat="46.56457" lon="0.63588">
        <ele>97.605540609919</ele>
        <time>2021-11-17T10:50:01Z</time>
      </trkpt>
      <trkpt lat="46.5646" lon="0.63586">
        <ele>97.530692130327</ele>
        <time>2021-11-17T10:50:03Z</time>
      </trkpt>
      <trkpt lat="46.56463" lon="0.63586">
        <ele>98.376461946405</ele>
        <time>2021-11-17T10:50:05Z</time>
      </trkpt>
      <trkpt lat="46.56465" lon="0.63586">
        <ele>97.377257918939</ele>
        <time>2021-11-17T10:50:07Z</time>
      </trkpt>
      <trkpt lat="46.56467" lon="0.63585">
        <ele>97.746031689458</ele>
        <time>2021-11-17T10:50:09Z</time>
      </trkpt>
      <trkpt lat="46.5647" lon="0.63584">
        <ele>97.568536005914</ele>
        <time>2021-11-17T10:50:11Z</time>
      </trkpt>
      <trkpt lat="46.56472" lon="0.63584">
        <ele>97.34189460054</ele>
        <time>2021-11-17T10:50:13Z</time>
      </trkpt>
      <trkpt lat="46.56474" lon="0.63584">
        <ele>97.456710905768</ele>
        <time>2021-11-17T10:50:14Z</time>
      </trkpt>
      <trkpt lat="46.56477" lon="0.63583">
        <ele>97.438838025555</ele>
        <time>2021-11-17T10:50:16Z</time>
      </trkpt>
      <trkpt lat="46.5648" lon="0.63583">
        <ele>97.524865199812</ele>
        <time>2021-11-17T10:50:18Z</time>
      </trkpt>
      <trkpt lat="46.56481" lon="0.63581">
        <ele>97.461748403497</ele>
        <time>2021-11-17T10:50:20Z</time>
      </trkpt>
      <trkpt lat="46.56483" lon="0.63581">
        <ele>97.047338549048</ele>
        <time>2021-11-17T10:50:22Z</time>
      </trkpt>
      <trkpt lat="46.56486" lon="0.6358">
        <ele>97.391129706986</ele>
        <time>2021-11-17T10:50:24Z</time>
      </trkpt>
      <trkpt lat="46.56489" lon="0.6358">
        <ele>97.507740173489</ele>
        <time>2021-11-17T10:50:26Z</time>
      </trkpt>
      <trkpt lat="46.56492" lon="0.6358">
        <ele>97.733908189461</ele>
        <time>2021-11-17T10:50:28Z</time>
      </trkpt>
      <trkpt lat="46.56494" lon="0.63582">
        <ele>97.240628035739</ele>
        <time>2021-11-17T10:50:30Z</time>
      </trkpt>
      <trkpt lat="46.56495" lon="0.63585">
        <ele>97.083242743276</ele>
        <time>2021-11-17T10:50:32Z</time>
      </trkpt>
      <trkpt lat="46.56496" lon="0.6359">
        <ele>97.555273612961</ele>
        <time>2021-11-17T10:50:34Z</time>
      </trkpt>
      <trkpt lat="46.56496" lon="0.63593">
        <ele>96.326907123439</ele>
        <time>2021-11-17T10:50:36Z</time>
      </trkpt>
      <trkpt lat="46.56496" lon="0.63595">
        <ele>95.916092691012</ele>
        <time>2021-11-17T10:50:37Z</time>
      </trkpt>
      <trkpt lat="46.56497" lon="0.63598">
        <ele>96.532066097483</ele>
        <time>2021-11-17T10:50:39Z</time>
      </trkpt>
      <trkpt lat="46.56496" lon="0.63602">
        <ele>95.978474794887</ele>
        <time>2021-11-17T10:50:41Z</time>
      </trkpt>
      <trkpt lat="46.56496" lon="0.63606">
        <ele>95.706571642309</ele>
        <time>2021-11-17T10:50:43Z</time>
      </trkpt>
      <trkpt lat="46.56497" lon="0.63609">
        <ele>95.507425595075</ele>
        <time>2021-11-17T10:50:45Z</time>
      </trkpt>
      <trkpt lat="46.56497" lon="0.63612">
        <ele>95.259962917306</ele>
        <time>2021-11-17T10:50:47Z</time>
      </trkpt>
      <trkpt lat="46.56497" lon="0.63616">
        <ele>94.93681575451</ele>
        <time>2021-11-17T10:50:49Z</time>
      </trkpt>
      <trkpt lat="46.56498" lon="0.63619">
        <ele>94.944539147429</ele>
        <time>2021-11-17T10:50:51Z</time>
      </trkpt>
      <trkpt lat="46.56499" lon="0.63623">
        <ele>94.582395472564</ele>
        <time>2021-11-17T10:50:53Z</time>
      </trkpt>
      <trkpt lat="46.56499" lon="0.63628">
        <ele>94.195403728634</ele>
        <time>2021-11-17T10:50:55Z</time>
      </trkpt>
      <trkpt lat="46.56499" lon="0.6363">
        <ele>92.80011922773</ele>
        <time>2021-11-17T10:50:57Z</time>
      </trkpt>
      <trkpt lat="46.565" lon="0.63634">
        <ele>93.55660222657</ele>
        <time>2021-11-17T10:50:59Z</time>
      </trkpt>
      <trkpt lat="46.565" lon="0.63638">
        <ele>93.173801301979</ele>
        <time>2021-11-17T10:51:01Z</time>
      </trkpt>
      <trkpt lat="46.565" lon="0.63642">
        <ele>92.963836407289</ele>
        <time>2021-11-17T10:51:04Z</time>
      </trkpt>
      <trkpt lat="46.56501" lon="0.63645">
        <ele>92.354340196587</ele>
        <time>2021-11-17T10:51:10Z</time>
      </trkpt>
      <trkpt lat="46.56501" lon="0.63647">
        <ele>91.498007651418</ele>
        <time>2021-11-17T10:51:12Z</time>
      </trkpt>
      <trkpt lat="46.56502" lon="0.6365">
        <ele>91.190022193827</ele>
        <time>2021-11-17T10:51:15Z</time>
      </trkpt>
      <trkpt lat="46.56504" lon="0.63652">
        <ele>90.785954279825</ele>
        <time>2021-11-17T10:51:17Z</time>
      </trkpt>
      <trkpt lat="46.56507" lon="0.63653">
        <ele>90.916122435592</ele>
        <time>2021-11-17T10:51:19Z</time>
      </trkpt>
      <trkpt lat="46.56509" lon="0.63653">
        <ele>90.959982220083</ele>
        <time>2021-11-17T10:51:21Z</time>
      </trkpt>
      <trkpt lat="46.56511" lon="0.63653">
        <ele>90.809618888423</ele>
        <time>2021-11-17T10:51:24Z</time>
      </trkpt>
      <trkpt lat="46.56514" lon="0.63653">
        <ele>90.627562773414</ele>
        <time>2021-11-17T10:51:26Z</time>
      </trkpt>
      <trkpt lat="46.56516" lon="0.63654">
        <ele>90.433962044306</ele>
        <time>2021-11-17T10:51:29Z</time>
      </trkpt>
      <trkpt lat="46.56516" lon="0.63659">
        <ele>90.241827663966</ele>
        <time>2021-11-17T10:51:32Z</time>
      </trkpt>
      <trkpt lat="46.56516" lon="0.63663">
        <ele>89.852188148536</ele>
        <time>2021-11-17T10:51:34Z</time>
      </trkpt>
      <trkpt lat="46.56517" lon="0.63665">
        <ele>89.727660756558</ele>
        <time>2021-11-17T10:51:36Z</time>
      </trkpt>
      <trkpt lat="46.56517" lon="0.63669">
        <ele>89.967401435599</ele>
        <time>2021-11-17T10:51:38Z</time>
      </trkpt>
      <trkpt lat="46.56517" lon="0.63673">
        <ele>89.097673100419</ele>
        <time>2021-11-17T10:51:41Z</time>
      </trkpt>
      <trkpt lat="46.56517" lon="0.63676">
        <ele>88.903154928237</ele>
        <time>2021-11-17T10:51:43Z</time>
      </trkpt>
      <trkpt lat="46.56518" lon="0.63679">
        <ele>89.407246083952</ele>
        <time>2021-11-17T10:51:45Z</time>
      </trkpt>
      <trkpt lat="46.56519" lon="0.63682">
        <ele>88.915402533486</ele>
        <time>2021-11-17T10:51:47Z</time>
      </trkpt>
      <trkpt lat="46.5652" lon="0.63685">
        <ele>88.507774306461</ele>
        <time>2021-11-17T10:51:49Z</time>
      </trkpt>
      <trkpt lat="46.5652" lon="0.63689">
        <ele>88.235372752883</ele>
        <time>2021-11-17T10:51:51Z</time>
      </trkpt>
      <trkpt lat="46.5652" lon="0.63692">
        <ele>88.337232163176</ele>
        <time>2021-11-17T10:51:53Z</time>
      </trkpt>
      <trkpt lat="46.56521" lon="0.63695">
        <ele>88.287398264743</ele>
        <time>2021-11-17T10:51:55Z</time>
      </trkpt>
      <trkpt lat="46.56521" lon="0.63699">
        <ele>88.318595819175</ele>
        <time>2021-11-17T10:51:57Z</time>
      </trkpt>
      <trkpt lat="46.56521" lon="0.63701">
        <ele>88.087349004112</ele>
        <time>2021-11-17T10:51:58Z</time>
      </trkpt>
      <trkpt lat="46.56521" lon="0.63705">
        <ele>87.689100125805</ele>
        <time>2021-11-17T10:52:00Z</time>
      </trkpt>
      <trkpt lat="46.56522" lon="0.63708">
        <ele>87.263958048075</ele>
        <time>2021-11-17T10:52:02Z</time>
      </trkpt>
      <trkpt lat="46.56522" lon="0.63713">
        <ele>87.343636374921</ele>
        <time>2021-11-17T10:52:04Z</time>
      </trkpt>
      <trkpt lat="46.56523" lon="0.63716">
        <ele>87.339573818259</ele>
        <time>2021-11-17T10:52:06Z</time>
      </trkpt>
      <trkpt lat="46.56523" lon="0.6372">
        <ele>86.725737267174</ele>
        <time>2021-11-17T10:52:08Z</time>
      </trkpt>
      <trkpt lat="46.56524" lon="0.63724">
        <ele>86.329249765724</ele>
        <time>2021-11-17T10:52:10Z</time>
      </trkpt>
      <trkpt lat="46.56524" lon="0.63728">
        <ele>86.006027323194</ele>
        <time>2021-11-17T10:52:12Z</time>
      </trkpt>
      <trkpt lat="46.56525" lon="0.63731">
        <ele>85.560674184002</ele>
        <time>2021-11-17T10:52:14Z</time>
      </trkpt>
      <trkpt lat="46.56525" lon="0.63734">
        <ele>85.661562263966</ele>
        <time>2021-11-17T10:52:15Z</time>
      </trkpt>
      <trkpt lat="46.56526" lon="0.63737">
        <ele>85.168180343695</ele>
        <time>2021-11-17T10:52:16Z</time>
      </trkpt>
      <trkpt lat="46.56527" lon="0.6374">
        <ele>85.372353408486</ele>
        <time>2021-11-17T10:52:18Z</time>
      </trkpt>
      <trkpt lat="46.56527" lon="0.63744">
        <ele>84.5809468152</ele>
        <time>2021-11-17T10:52:20Z</time>
      </trkpt>
      <trkpt lat="46.56527" lon="0.63748">
        <ele>84.767764187418</ele>
        <time>2021-11-17T10:52:22Z</time>
      </trkpt>
      <trkpt lat="46.56528" lon="0.63751">
        <ele>83.871917038225</ele>
        <time>2021-11-17T10:52:24Z</time>
      </trkpt>
      <trkpt lat="46.56528" lon="0.63754">
        <ele>83.72118534334</ele>
        <time>2021-11-17T10:52:26Z</time>
      </trkpt>
      <trkpt lat="46.56529" lon="0.63758">
        <ele>83.721349474974</ele>
        <time>2021-11-17T10:52:28Z</time>
      </trkpt>
      <trkpt lat="46.56529" lon="0.63762">
        <ele>83.203813185915</ele>
        <time>2021-11-17T10:52:30Z</time>
      </trkpt>
      <trkpt lat="46.56529" lon="0.63765">
        <ele>82.860446004197</ele>
        <time>2021-11-17T10:52:32Z</time>
      </trkpt>
      <trkpt lat="46.5653" lon="0.63769">
        <ele>82.475855886005</ele>
        <time>2021-11-17T10:52:34Z</time>
      </trkpt>
      <trkpt lat="46.5653" lon="0.63773">
        <ele>82.407660343684</ele>
        <time>2021-11-17T10:52:36Z</time>
      </trkpt>
      <trkpt lat="46.5653" lon="0.63776">
        <ele>82.502690642141</ele>
        <time>2021-11-17T10:52:38Z</time>
      </trkpt>
      <trkpt lat="46.56531" lon="0.6378">
        <ele>80.755538295023</ele>
        <time>2021-11-17T10:52:40Z</time>
      </trkpt>
      <trkpt lat="46.56531" lon="0.63784">
        <ele>80.768564098515</ele>
        <time>2021-11-17T10:52:42Z</time>
      </trkpt>
      <trkpt lat="46.56532" lon="0.63787">
        <ele>81.141455914825</ele>
        <time>2021-11-17T10:52:44Z</time>
      </trkpt>
      <trkpt lat="46.56532" lon="0.6379">
        <ele>80.393914828077</ele>
        <time>2021-11-17T10:52:46Z</time>
      </trkpt>
      <trkpt lat="46.56532" lon="0.63793">
        <ele>80.118900925852</ele>
        <time>2021-11-17T10:52:48Z</time>
      </trkpt>
      <trkpt lat="46.56532" lon="0.63797">
        <ele>80.020344497636</ele>
        <time>2021-11-17T10:52:50Z</time>
      </trkpt>
      <trkpt lat="46.56532" lon="0.638">
        <ele>79.719601594843</ele>
        <time>2021-11-17T10:52:52Z</time>
      </trkpt>
      <trkpt lat="46.5653" lon="0.63801">
        <ele>79.365247506648</ele>
        <time>2021-11-17T10:52:55Z</time>
      </trkpt>
      <trkpt lat="46.56528" lon="0.63802">
        <ele>78.708274634555</ele>
        <time>2021-11-17T10:52:58Z</time>
      </trkpt>
      <trkpt lat="46.56527" lon="0.63805">
        <ele>78.824914444238</ele>
        <time>2021-11-17T10:53:01Z</time>
      </trkpt>
      <trkpt lat="46.56528" lon="0.63808">
        <ele>78.193995592184</ele>
        <time>2021-11-17T10:53:04Z</time>
      </trkpt>
      <trkpt lat="46.56529" lon="0.6381">
        <ele>78.482609526254</ele>
        <time>2021-11-17T10:53:07Z</time>
      </trkpt>
      <trkpt lat="46.5653" lon="0.63813">
        <ele>77.981768704019</ele>
        <time>2021-11-17T10:53:13Z</time>
      </trkpt>
      <trkpt lat="46.56529" lon="0.63816">
        <ele>77.370612859726</ele>
        <time>2021-11-17T10:53:17Z</time>
      </trkpt>
      <trkpt lat="46.56528" lon="0.63819">
        <ele>77.144653527066</ele>
        <time>2021-11-17T10:53:19Z</time>
      </trkpt>
      <trkpt lat="46.56529" lon="0.63823">
        <ele>76.480063418858</ele>
        <time>2021-11-17T10:53:22Z</time>
      </trkpt>
      <trkpt lat="46.5653" lon="0.63826">
        <ele>76.611625210382</ele>
        <time>2021-11-17T10:53:24Z</time>
      </trkpt>
      <trkpt lat="46.56532" lon="0.63829">
        <ele>76.849146833643</ele>
        <time>2021-11-17T10:53:26Z</time>
      </trkpt>
      <trkpt lat="46.56533" lon="0.63833">
        <ele>76.282309826463</ele>
        <time>2021-11-17T10:53:29Z</time>
      </trkpt>
      <trkpt lat="46.56533" lon="0.63836">
        <ele>76.619850667194</ele>
        <time>2021-11-17T10:53:31Z</time>
      </trkpt>
      <trkpt lat="46.56531" lon="0.63839">
        <ele>76.460414903238</ele>
        <time>2021-11-17T10:53:33Z</time>
      </trkpt>
      <trkpt lat="46.5653" lon="0.63841">
        <ele>76.380614932626</ele>
        <time>2021-11-17T10:53:35Z</time>
      </trkpt>
      <trkpt lat="46.56528" lon="0.63843">
        <ele>76.179240466096</ele>
        <time>2021-11-17T10:53:37Z</time>
      </trkpt>
      <trkpt lat="46.56526" lon="0.63846">
        <ele>75.609059505165</ele>
        <time>2021-11-17T10:53:40Z</time>
      </trkpt>
      <trkpt lat="46.56525" lon="0.63848">
        <ele>75.204977350309</ele>
        <time>2021-11-17T10:53:42Z</time>
      </trkpt>
      <trkpt lat="46.56523" lon="0.6385">
        <ele>75.168127381243</ele>
        <time>2021-11-17T10:53:44Z</time>
      </trkpt>
      <trkpt lat="46.56522" lon="0.63852">
        <ele>74.700612640008</ele>
        <time>2021-11-17T10:53:46Z</time>
      </trkpt>
      <trkpt lat="46.5652" lon="0.63854">
        <ele>74.81155958958</ele>
        <time>2021-11-17T10:53:48Z</time>
      </trkpt>
      <trkpt lat="46.56518" lon="0.63856">
        <ele>73.635891664773</ele>
        <time>2021-11-17T10:53:50Z</time>
      </trkpt>
      <trkpt lat="46.56516" lon="0.63859">
        <ele>74.003694778308</ele>
        <time>2021-11-17T10:53:52Z</time>
      </trkpt>
      <trkpt lat="46.56514" lon="0.63862">
        <ele>73.352199841291</ele>
        <time>2021-11-17T10:53:55Z</time>
      </trkpt>
      <trkpt lat="46.56512" lon="0.63863">
        <ele>73.265866638161</ele>
        <time>2021-11-17T10:53:56Z</time>
      </trkpt>
      <trkpt lat="46.56511" lon="0.63866">
        <ele>72.493681331165</ele>
        <time>2021-11-17T10:53:58Z</time>
      </trkpt>
      <trkpt lat="46.56509" lon="0.63867">
        <ele>72.309943739325</ele>
        <time>2021-11-17T10:54:00Z</time>
      </trkpt>
      <trkpt lat="46.56507" lon="0.6387">
        <ele>71.712006065063</ele>
        <time>2021-11-17T10:54:02Z</time>
      </trkpt>
      <trkpt lat="46.56506" lon="0.63872">
        <ele>72.049401991069</ele>
        <time>2021-11-17T10:54:04Z</time>
      </trkpt>
      <trkpt lat="46.56505" lon="0.63874">
        <ele>70.308944483288</ele>
        <time>2021-11-17T10:54:06Z</time>
      </trkpt>
      <trkpt lat="46.56503" lon="0.63877">
        <ele>70.836378229782</ele>
        <time>2021-11-17T10:54:08Z</time>
      </trkpt>
      <trkpt lat="46.56502" lon="0.63879">
        <ele>70.905727387406</ele>
        <time>2021-11-17T10:54:10Z</time>
      </trkpt>
      <trkpt lat="46.565" lon="0.63882">
        <ele>70.207278092392</ele>
        <time>2021-11-17T10:54:12Z</time>
      </trkpt>
      <trkpt lat="46.56497" lon="0.63884">
        <ele>69.835146794096</ele>
        <time>2021-11-17T10:54:14Z</time>
      </trkpt>
      <trkpt lat="46.56496" lon="0.63886">
        <ele>69.645478175022</ele>
        <time>2021-11-17T10:54:16Z</time>
      </trkpt>
      <trkpt lat="46.56494" lon="0.63889">
        <ele>67.508790049702</ele>
        <time>2021-11-17T10:54:18Z</time>
      </trkpt>
      <trkpt lat="46.56493" lon="0.63893">
        <ele>68.426358065568</ele>
        <time>2021-11-17T10:54:20Z</time>
      </trkpt>
      <trkpt lat="46.56492" lon="0.63895">
        <ele>67.530393120833</ele>
        <time>2021-11-17T10:54:23Z</time>
      </trkpt>
      <trkpt lat="46.5649" lon="0.63898">
        <ele>66.747348584235</ele>
        <time>2021-11-17T10:54:26Z</time>
      </trkpt>
      <trkpt lat="46.56489" lon="0.63901">
        <ele>66.441667739302</ele>
        <time>2021-11-17T10:54:28Z</time>
      </trkpt>
      <trkpt lat="46.56487" lon="0.63904">
        <ele>65.985756156966</ele>
        <time>2021-11-17T10:54:31Z</time>
      </trkpt>
      <trkpt lat="46.56485" lon="0.63907">
        <ele>65.705400479957</ele>
        <time>2021-11-17T10:54:33Z</time>
      </trkpt>
      <trkpt lat="46.56487" lon="0.63909">
        <ele>65.224369875155</ele>
        <time>2021-11-17T10:54:38Z</time>
      </trkpt>
      <trkpt lat="46.56486" lon="0.63912">
        <ele>64.375222819857</ele>
        <time>2021-11-17T10:54:47Z</time>
      </trkpt>
      <trkpt lat="46.56484" lon="0.63912">
        <ele>64.396687593311</ele>
        <time>2021-11-17T10:54:59Z</time>
      </trkpt>
      <trkpt lat="46.56483" lon="0.63915">
        <ele>64.32104970701</ele>
        <time>2021-11-17T10:55:01Z</time>
      </trkpt>
      <trkpt lat="46.56481" lon="0.63919">
        <ele>64.163524570875</ele>
        <time>2021-11-17T10:55:04Z</time>
      </trkpt>
      <trkpt lat="46.56479" lon="0.63921">
        <ele>63.611541353166</ele>
        <time>2021-11-17T10:55:06Z</time>
      </trkpt>
      <trkpt lat="46.56478" lon="0.63925">
        <ele>63.615741406567</ele>
        <time>2021-11-17T10:55:08Z</time>
      </trkpt>
      <trkpt lat="46.56476" lon="0.63928">
        <ele>63.053369466215</ele>
        <time>2021-11-17T10:55:11Z</time>
      </trkpt>
      <trkpt lat="46.56475" lon="0.63931">
        <ele>63.12798079662</ele>
        <time>2021-11-17T10:55:13Z</time>
      </trkpt>
      <trkpt lat="46.56473" lon="0.63933">
        <ele>63.347721564583</ele>
        <time>2021-11-17T10:55:15Z</time>
      </trkpt>
      <trkpt lat="46.56471" lon="0.63936">
        <ele>63.236658580601</ele>
        <time>2021-11-17T10:55:17Z</time>
      </trkpt>
      <trkpt lat="46.5647" lon="0.63939">
        <ele>63.272358796559</ele>
        <time>2021-11-17T10:55:19Z</time>
      </trkpt>
      <trkpt lat="46.56468" lon="0.63941">
        <ele>63.052477704361</ele>
        <time>2021-11-17T10:55:21Z</time>
      </trkpt>
      <trkpt lat="46.56467" lon="0.63944">
        <ele>63.640486276709</ele>
        <time>2021-11-17T10:55:23Z</time>
      </trkpt>
      <trkpt lat="46.56465" lon="0.63947">
        <ele>63.268636661582</ele>
        <time>2021-11-17T10:55:24Z</time>
      </trkpt>
      <trkpt lat="46.56464" lon="0.63949">
        <ele>63.23478867393</ele>
        <time>2021-11-17T10:55:26Z</time>
      </trkpt>
      <trkpt lat="46.56463" lon="0.63951">
        <ele>62.924784347415</ele>
        <time>2021-11-17T10:55:28Z</time>
      </trkpt>
      <trkpt lat="46.56461" lon="0.63954">
        <ele>63.192056470551</ele>
        <time>2021-11-17T10:55:30Z</time>
      </trkpt>
      <trkpt lat="46.56462" lon="0.63957">
        <ele>62.988751788624</ele>
        <time>2021-11-17T10:55:36Z</time>
      </trkpt>
      <trkpt lat="46.5646" lon="0.63958">
        <ele>62.486470478587</ele>
        <time>2021-11-17T10:55:44Z</time>
      </trkpt>
      <trkpt lat="46.56459" lon="0.63962">
        <ele>62.658836234361</ele>
        <time>2021-11-17T10:55:49Z</time>
      </trkpt>
      <trkpt lat="46.56457" lon="0.63964">
        <ele>62.728311834857</ele>
        <time>2021-11-17T10:55:51Z</time>
      </trkpt>
      <trkpt lat="46.56455" lon="0.63967">
        <ele>62.637169596739</ele>
        <time>2021-11-17T10:55:53Z</time>
      </trkpt>
      <trkpt lat="46.56454" lon="0.63969">
        <ele>62.657394748181</ele>
        <time>2021-11-17T10:55:55Z</time>
      </trkpt>
      <trkpt lat="46.56452" lon="0.63972">
        <ele>62.961520035751</ele>
        <time>2021-11-17T10:55:57Z</time>
      </trkpt>
      <trkpt lat="46.56451" lon="0.63975">
        <ele>63.197433179244</ele>
        <time>2021-11-17T10:55:59Z</time>
      </trkpt>
      <trkpt lat="46.5645" lon="0.63977">
        <ele>63.090294127353</ele>
        <time>2021-11-17T10:56:00Z</time>
      </trkpt>
      <trkpt lat="46.5645" lon="0.6398">
        <ele>62.910591770895</ele>
        <time>2021-11-17T10:56:02Z</time>
      </trkpt>
      <trkpt lat="46.56448" lon="0.63983">
        <ele>63.396498347633</ele>
        <time>2021-11-17T10:56:04Z</time>
      </trkpt>
      <trkpt lat="46.56447" lon="0.63986">
        <ele>62.961198550649</ele>
        <time>2021-11-17T10:56:06Z</time>
      </trkpt>
      <trkpt lat="46.56446" lon="0.6399">
        <ele>62.77075280901</ele>
        <time>2021-11-17T10:56:08Z</time>
      </trkpt>
      <trkpt lat="46.56444" lon="0.63993">
        <ele>63.092641072348</ele>
        <time>2021-11-17T10:56:10Z</time>
      </trkpt>
      <trkpt lat="46.56443" lon="0.63995">
        <ele>62.894956129603</ele>
        <time>2021-11-17T10:56:12Z</time>
      </trkpt>
      <trkpt lat="46.56442" lon="0.63998">
        <ele>62.888209916651</ele>
        <time>2021-11-17T10:56:14Z</time>
      </trkpt>
      <trkpt lat="46.5644" lon="0.64">
        <ele>62.871927483939</ele>
        <time>2021-11-17T10:56:16Z</time>
      </trkpt>
      <trkpt lat="46.56438" lon="0.64002">
        <ele>62.904325206764</ele>
        <time>2021-11-17T10:56:18Z</time>
      </trkpt>
      <trkpt lat="46.56437" lon="0.64005">
        <ele>63.114883230068</ele>
        <time>2021-11-17T10:56:20Z</time>
      </trkpt>
      <trkpt lat="46.56437" lon="0.64008">
        <ele>63.296019643545</ele>
        <time>2021-11-17T10:56:22Z</time>
      </trkpt>
      <trkpt lat="46.56435" lon="0.64012">
        <ele>63.213045808487</ele>
        <time>2021-11-17T10:56:24Z</time>
      </trkpt>
      <trkpt lat="46.56434" lon="0.64015">
        <ele>63.118828801438</ele>
        <time>2021-11-17T10:56:26Z</time>
      </trkpt>
      <trkpt lat="46.56433" lon="0.64017">
        <ele>62.78523879312</ele>
        <time>2021-11-17T10:56:28Z</time>
      </trkpt>
      <trkpt lat="46.56431" lon="0.64021">
        <ele>63.437021503225</ele>
        <time>2021-11-17T10:56:30Z</time>
      </trkpt>
      <trkpt lat="46.56429" lon="0.64025">
        <ele>63.104975088499</ele>
        <time>2021-11-17T10:56:32Z</time>
      </trkpt>
      <trkpt lat="46.56429" lon="0.64029">
        <ele>63.209523348138</ele>
        <time>2021-11-17T10:56:34Z</time>
      </trkpt>
      <trkpt lat="46.56427" lon="0.64032">
        <ele>63.374695239589</ele>
        <time>2021-11-17T10:56:36Z</time>
      </trkpt>
      <trkpt lat="46.56426" lon="0.64035">
        <ele>63.510701006278</ele>
        <time>2021-11-17T10:56:38Z</time>
      </trkpt>
      <trkpt lat="46.56424" lon="0.64039">
        <ele>63.975040588528</ele>
        <time>2021-11-17T10:56:40Z</time>
      </trkpt>
      <trkpt lat="46.56424" lon="0.64043">
        <ele>64.320574400946</ele>
        <time>2021-11-17T10:56:42Z</time>
      </trkpt>
      <trkpt lat="46.56422" lon="0.64046">
        <ele>64.625006982125</ele>
        <time>2021-11-17T10:56:44Z</time>
      </trkpt>
      <trkpt lat="46.56421" lon="0.64048">
        <ele>64.98252526857</ele>
        <time>2021-11-17T10:56:46Z</time>
      </trkpt>
      <trkpt lat="46.5642" lon="0.64051">
        <ele>65.620751113631</ele>
        <time>2021-11-17T10:56:48Z</time>
      </trkpt>
      <trkpt lat="46.5642" lon="0.64055">
        <ele>66.022066392936</ele>
        <time>2021-11-17T10:56:50Z</time>
      </trkpt>
      <trkpt lat="46.56419" lon="0.64058">
        <ele>66.319688213989</ele>
        <time>2021-11-17T10:56:52Z</time>
      </trkpt>
      <trkpt lat="46.56419" lon="0.64062">
        <ele>67.099346437491</ele>
        <time>2021-11-17T10:56:55Z</time>
      </trkpt>
      <trkpt lat="46.5642" lon="0.64064">
        <ele>67.411608523689</ele>
        <time>2021-11-17T10:57:00Z</time>
      </trkpt>
      <trkpt lat="46.56422" lon="0.64066">
        <ele>67.479539318942</ele>
        <time>2021-11-17T10:57:04Z</time>
      </trkpt>
      <trkpt lat="46.56424" lon="0.64068">
        <ele>66.885034926236</ele>
        <time>2021-11-17T10:57:07Z</time>
      </trkpt>
      <trkpt lat="46.56426" lon="0.6407">
        <ele>66.931637648493</ele>
        <time>2021-11-17T10:57:10Z</time>
      </trkpt>
      <trkpt lat="46.56427" lon="0.64072">
        <ele>66.620401593857</ele>
        <time>2021-11-17T10:57:12Z</time>
      </trkpt>
      <trkpt lat="46.5643" lon="0.64073">
        <ele>66.715199455619</ele>
        <time>2021-11-17T10:57:16Z</time>
      </trkpt>
      <trkpt lat="46.56432" lon="0.64074">
        <ele>66.811790292151</ele>
        <time>2021-11-17T10:57:19Z</time>
      </trkpt>
      <trkpt lat="46.56434" lon="0.64075">
        <ele>66.656233200803</ele>
        <time>2021-11-17T10:57:24Z</time>
      </trkpt>
      <trkpt lat="46.56436" lon="0.64076">
        <ele>66.206449375488</ele>
        <time>2021-11-17T10:57:27Z</time>
      </trkpt>
      <trkpt lat="46.56438" lon="0.64077">
        <ele>65.877812369727</ele>
        <time>2021-11-17T10:57:30Z</time>
      </trkpt>
      <trkpt lat="46.56439" lon="0.64078">
        <ele>65.461244661361</ele>
        <time>2021-11-17T10:57:32Z</time>
      </trkpt>
      <trkpt lat="46.56441" lon="0.64076">
        <ele>65.223530061543</ele>
        <time>2021-11-17T10:57:33Z</time>
      </trkpt>
      <trkpt lat="46.56442" lon="0.64073">
        <ele>65.193331452087</ele>
        <time>2021-11-17T10:57:34Z</time>
      </trkpt>
      <trkpt lat="46.56442" lon="0.64069">
        <ele>65.319692774676</ele>
        <time>2021-11-17T10:57:37Z</time>
      </trkpt>
      <trkpt lat="46.56444" lon="0.64066">
        <ele>64.987664208747</ele>
        <time>2021-11-17T10:57:40Z</time>
      </trkpt>
      <trkpt lat="46.56445" lon="0.64063">
        <ele>64.439286208712</ele>
        <time>2021-11-17T10:57:42Z</time>
      </trkpt>
      <trkpt lat="46.56447" lon="0.64061">
        <ele>64.435881395824</ele>
        <time>2021-11-17T10:57:44Z</time>
      </trkpt>
      <trkpt lat="46.56449" lon="0.64059">
        <ele>64.495767825283</ele>
        <time>2021-11-17T10:57:46Z</time>
      </trkpt>
      <trkpt lat="46.56451" lon="0.64058">
        <ele>63.807919121347</ele>
        <time>2021-11-17T10:57:48Z</time>
      </trkpt>
      <trkpt lat="46.56453" lon="0.64059">
        <ele>63.107716456056</ele>
        <time>2021-11-17T10:57:52Z</time>
      </trkpt>
      <trkpt lat="46.56456" lon="0.6406">
        <ele>63.170137501322</ele>
        <time>2021-11-17T10:58:01Z</time>
      </trkpt>
      <trkpt lat="46.56458" lon="0.64063">
        <ele>63.33436187543</ele>
        <time>2021-11-17T10:58:04Z</time>
      </trkpt>
      <trkpt lat="46.56461" lon="0.64065">
        <ele>63.157177945599</ele>
        <time>2021-11-17T10:58:06Z</time>
      </trkpt>
      <trkpt lat="46.56463" lon="0.64066">
        <ele>63.270453692414</ele>
        <time>2021-11-17T10:58:08Z</time>
      </trkpt>
      <trkpt lat="46.56466" lon="0.64067">
        <ele>62.91710191872</ele>
        <time>2021-11-17T10:58:10Z</time>
      </trkpt>
      <trkpt lat="46.56468" lon="0.64068">
        <ele>62.880574463867</ele>
        <time>2021-11-17T10:58:12Z</time>
      </trkpt>
      <trkpt lat="46.5647" lon="0.64069">
        <ele>62.565879022703</ele>
        <time>2021-11-17T10:58:14Z</time>
      </trkpt>
      <trkpt lat="46.56473" lon="0.6407">
        <ele>62.789192955941</ele>
        <time>2021-11-17T10:58:16Z</time>
      </trkpt>
      <trkpt lat="46.56475" lon="0.64072">
        <ele>62.921713825315</ele>
        <time>2021-11-17T10:58:18Z</time>
      </trkpt>
      <trkpt lat="46.56477" lon="0.64074">
        <ele>63.175425129943</ele>
        <time>2021-11-17T10:58:20Z</time>
      </trkpt>
      <trkpt lat="46.56479" lon="0.64074">
        <ele>62.933265204541</ele>
        <time>2021-11-17T10:58:22Z</time>
      </trkpt>
      <trkpt lat="46.56481" lon="0.64077">
        <ele>63.053319779225</ele>
        <time>2021-11-17T10:58:24Z</time>
      </trkpt>
      <trkpt lat="46.56484" lon="0.64079">
        <ele>62.862741703168</ele>
        <time>2021-11-17T10:58:26Z</time>
      </trkpt>
      <trkpt lat="46.56486" lon="0.6408">
        <ele>62.826028387994</ele>
        <time>2021-11-17T10:58:28Z</time>
      </trkpt>
      <trkpt lat="46.56489" lon="0.64082">
        <ele>62.856969796121</ele>
        <time>2021-11-17T10:58:30Z</time>
      </trkpt>
      <trkpt lat="46.56491" lon="0.64084">
        <ele>62.398098230362</ele>
        <time>2021-11-17T10:58:32Z</time>
      </trkpt>
      <trkpt lat="46.56493" lon="0.64086">
        <ele>62.261656842194</ele>
        <time>2021-11-17T10:58:34Z</time>
      </trkpt>
      <trkpt lat="46.56496" lon="0.64087">
        <ele>62.454937275499</ele>
        <time>2021-11-17T10:58:36Z</time>
      </trkpt>
      <trkpt lat="46.56498" lon="0.64089">
        <ele>62.613952439278</ele>
        <time>2021-11-17T10:58:38Z</time>
      </trkpt>
      <trkpt lat="46.565" lon="0.64091">
        <ele>62.678488044068</ele>
        <time>2021-11-17T10:58:40Z</time>
      </trkpt>
      <trkpt lat="46.56502" lon="0.64092">
        <ele>62.633749101311</ele>
        <time>2021-11-17T10:58:42Z</time>
      </trkpt>
      <trkpt lat="46.56505" lon="0.64094">
        <ele>62.907717833295</ele>
        <time>2021-11-17T10:58:44Z</time>
      </trkpt>
      <trkpt lat="46.56507" lon="0.64096">
        <ele>62.323044911958</ele>
        <time>2021-11-17T10:58:46Z</time>
      </trkpt>
      <trkpt lat="46.56509" lon="0.64097">
        <ele>62.715234118514</ele>
        <time>2021-11-17T10:58:48Z</time>
      </trkpt>
      <trkpt lat="46.56512" lon="0.64098">
        <ele>62.714561381377</ele>
        <time>2021-11-17T10:58:50Z</time>
      </trkpt>
      <trkpt lat="46.56514" lon="0.641">
        <ele>62.650610563345</ele>
        <time>2021-11-17T10:58:52Z</time>
      </trkpt>
      <trkpt lat="46.56516" lon="0.64102">
        <ele>62.410447628237</ele>
        <time>2021-11-17T10:58:54Z</time>
      </trkpt>
      <trkpt lat="46.56519" lon="0.64103">
        <ele>62.572843795642</ele>
        <time>2021-11-17T10:58:56Z</time>
      </trkpt>
      <trkpt lat="46.56521" lon="0.64105">
        <ele>62.44320619572</ele>
        <time>2021-11-17T10:58:58Z</time>
      </trkpt>
      <trkpt lat="46.56524" lon="0.64107">
        <ele>62.572414293885</ele>
        <time>2021-11-17T10:59:01Z</time>
      </trkpt>
      <trkpt lat="46.56526" lon="0.64109">
        <ele>62.406233373098</ele>
        <time>2021-11-17T10:59:03Z</time>
      </trkpt>
      <trkpt lat="46.56528" lon="0.64111">
        <ele>62.658713345416</ele>
        <time>2021-11-17T10:59:05Z</time>
      </trkpt>
      <trkpt lat="46.56531" lon="0.64112">
        <ele>62.5369212972</ele>
        <time>2021-11-17T10:59:07Z</time>
      </trkpt>
      <trkpt lat="46.56533" lon="0.64115">
        <ele>62.41774134431</ele>
        <time>2021-11-17T10:59:09Z</time>
      </trkpt>
      <trkpt lat="46.56535" lon="0.64117">
        <ele>62.6535748858</ele>
        <time>2021-11-17T10:59:11Z</time>
      </trkpt>
      <trkpt lat="46.56537" lon="0.64119">
        <ele>62.399099232629</ele>
        <time>2021-11-17T10:59:13Z</time>
      </trkpt>
      <trkpt lat="46.56539" lon="0.64121">
        <ele>62.612116157077</ele>
        <time>2021-11-17T10:59:15Z</time>
      </trkpt>
      <trkpt lat="46.56542" lon="0.64122">
        <ele>62.631522892043</ele>
        <time>2021-11-17T10:59:17Z</time>
      </trkpt>
      <trkpt lat="46.56543" lon="0.64123">
        <ele>62.903684972785</ele>
        <time>2021-11-17T10:59:19Z</time>
      </trkpt>
      <trkpt lat="46.56546" lon="0.64124">
        <ele>62.724256106652</ele>
        <time>2021-11-17T10:59:21Z</time>
      </trkpt>
      <trkpt lat="46.56548" lon="0.64125">
        <ele>62.428132770583</ele>
        <time>2021-11-17T10:59:24Z</time>
      </trkpt>
      <trkpt lat="46.56551" lon="0.64126">
        <ele>62.923927826807</ele>
        <time>2021-11-17T10:59:26Z</time>
      </trkpt>
      <trkpt lat="46.56553" lon="0.64128">
        <ele>62.712332195602</ele>
        <time>2021-11-17T10:59:28Z</time>
      </trkpt>
      <trkpt lat="46.56555" lon="0.64128">
        <ele>62.980113253929</ele>
        <time>2021-11-17T10:59:30Z</time>
      </trkpt>
      <trkpt lat="46.56558" lon="0.6413">
        <ele>63.077248087153</ele>
        <time>2021-11-17T10:59:32Z</time>
      </trkpt>
      <trkpt lat="46.56561" lon="0.64134">
        <ele>62.983557227999</ele>
        <time>2021-11-17T10:59:34Z</time>
      </trkpt>
      <trkpt lat="46.56563" lon="0.64135">
        <ele>62.934159445576</ele>
        <time>2021-11-17T10:59:36Z</time>
      </trkpt>
      <trkpt lat="46.56566" lon="0.64137">
        <ele>63.415241896175</ele>
        <time>2021-11-17T10:59:38Z</time>
      </trkpt>
      <trkpt lat="46.56568" lon="0.64138">
        <ele>63.200529092923</ele>
        <time>2021-11-17T10:59:40Z</time>
      </trkpt>
      <trkpt lat="46.5657" lon="0.64139">
        <ele>63.056411720812</ele>
        <time>2021-11-17T10:59:42Z</time>
      </trkpt>
      <trkpt lat="46.56572" lon="0.64141">
        <ele>62.959093302488</ele>
        <time>2021-11-17T10:59:44Z</time>
      </trkpt>
      <trkpt lat="46.56575" lon="0.64142">
        <ele>63.006859843619</ele>
        <time>2021-11-17T10:59:46Z</time>
      </trkpt>
      <trkpt lat="46.56577" lon="0.64145">
        <ele>62.707426626235</ele>
        <time>2021-11-17T10:59:48Z</time>
      </trkpt>
      <trkpt lat="46.56579" lon="0.64145">
        <ele>62.667344890535</ele>
        <time>2021-11-17T10:59:50Z</time>
      </trkpt>
      <trkpt lat="46.56581" lon="0.64147">
        <ele>62.804833887145</ele>
        <time>2021-11-17T10:59:52Z</time>
      </trkpt>
      <trkpt lat="46.56583" lon="0.6415">
        <ele>63.032973594032</ele>
        <time>2021-11-17T10:59:54Z</time>
      </trkpt>
      <trkpt lat="46.56585" lon="0.6415">
        <ele>63.058512831107</ele>
        <time>2021-11-17T10:59:56Z</time>
      </trkpt>
      <trkpt lat="46.56587" lon="0.6415">
        <ele>62.684008138254</ele>
        <time>2021-11-17T10:59:58Z</time>
      </trkpt>
      <trkpt lat="46.5659" lon="0.64152">
        <ele>62.923067758791</ele>
        <time>2021-11-17T11:00:00Z</time>
      </trkpt>
      <trkpt lat="46.56592" lon="0.64153">
        <ele>62.595926957205</ele>
        <time>2021-11-17T11:00:02Z</time>
      </trkpt>
      <trkpt lat="46.56594" lon="0.64153">
        <ele>63.107395661995</ele>
        <time>2021-11-17T11:00:04Z</time>
      </trkpt>
      <trkpt lat="46.56597" lon="0.64155">
        <ele>63.152258724906</ele>
        <time>2021-11-17T11:00:07Z</time>
      </trkpt>
      <trkpt lat="46.56598" lon="0.64158">
        <ele>63.117937666364</ele>
        <time>2021-11-17T11:00:09Z</time>
      </trkpt>
      <trkpt lat="46.56599" lon="0.64162">
        <ele>63.079881895334</ele>
        <time>2021-11-17T11:00:11Z</time>
      </trkpt>
      <trkpt lat="46.56601" lon="0.64165">
        <ele>63.141806418076</ele>
        <time>2021-11-17T11:00:13Z</time>
      </trkpt>
      <trkpt lat="46.56603" lon="0.64169">
        <ele>62.965625857003</ele>
        <time>2021-11-17T11:00:15Z</time>
      </trkpt>
      <trkpt lat="46.56604" lon="0.64172">
        <ele>62.948991841637</ele>
        <time>2021-11-17T11:00:17Z</time>
      </trkpt>
      <trkpt lat="46.56606" lon="0.64174">
        <ele>63.031660827808</ele>
        <time>2021-11-17T11:00:19Z</time>
      </trkpt>
      <trkpt lat="46.56608" lon="0.64177">
        <ele>63.308187860996</ele>
        <time>2021-11-17T11:00:21Z</time>
      </trkpt>
      <trkpt lat="46.5661" lon="0.64179">
        <ele>63.333615332842</ele>
        <time>2021-11-17T11:00:23Z</time>
      </trkpt>
      <trkpt lat="46.56611" lon="0.64181">
        <ele>63.273446883075</ele>
        <time>2021-11-17T11:00:24Z</time>
      </trkpt>
      <trkpt lat="46.56612" lon="0.64183">
        <ele>63.623986940831</ele>
        <time>2021-11-17T11:00:26Z</time>
      </trkpt>
      <trkpt lat="46.56614" lon="0.64185">
        <ele>63.59041274339</ele>
        <time>2021-11-17T11:00:28Z</time>
      </trkpt>
      <trkpt lat="46.56616" lon="0.64189">
        <ele>63.777713458054</ele>
        <time>2021-11-17T11:00:31Z</time>
      </trkpt>
      <trkpt lat="46.56616" lon="0.64193">
        <ele>64.274812792428</ele>
        <time>2021-11-17T11:00:34Z</time>
      </trkpt>
      <trkpt lat="46.56615" lon="0.64196">
        <ele>64.445420332253</ele>
        <time>2021-11-17T11:00:36Z</time>
      </trkpt>
      <trkpt lat="46.56614" lon="0.64199">
        <ele>64.468897195533</ele>
        <time>2021-11-17T11:00:38Z</time>
      </trkpt>
      <trkpt lat="46.56614" lon="0.64203">
        <ele>64.753262608312</ele>
        <time>2021-11-17T11:00:40Z</time>
      </trkpt>
      <trkpt lat="46.56613" lon="0.64206">
        <ele>64.936952156946</ele>
        <time>2021-11-17T11:00:42Z</time>
      </trkpt>
      <trkpt lat="46.56612" lon="0.64209">
        <ele>64.746349021792</ele>
        <time>2021-11-17T11:00:44Z</time>
      </trkpt>
      <trkpt lat="46.56612" lon="0.64213">
        <ele>64.945565061644</ele>
        <time>2021-11-17T11:00:46Z</time>
      </trkpt>
      <trkpt lat="46.56611" lon="0.64216">
        <ele>65.189397064038</ele>
        <time>2021-11-17T11:00:48Z</time>
      </trkpt>
      <trkpt lat="46.56611" lon="0.6422">
        <ele>65.008509309962</ele>
        <time>2021-11-17T11:00:50Z</time>
      </trkpt>
      <trkpt lat="46.5661" lon="0.64224">
        <ele>65.525073904544</ele>
        <time>2021-11-17T11:00:52Z</time>
      </trkpt>
      <trkpt lat="46.56609" lon="0.64227">
        <ele>65.477823829278</ele>
        <time>2021-11-17T11:00:54Z</time>
      </trkpt>
      <trkpt lat="46.56608" lon="0.6423">
        <ele>65.736406322569</ele>
        <time>2021-11-17T11:00:56Z</time>
      </trkpt>
      <trkpt lat="46.56607" lon="0.64233">
        <ele>65.696495754644</ele>
        <time>2021-11-17T11:00:58Z</time>
      </trkpt>
      <trkpt lat="46.56606" lon="0.64236">
        <ele>65.678170738742</ele>
        <time>2021-11-17T11:01:00Z</time>
      </trkpt>
      <trkpt lat="46.56606" lon="0.6424">
        <ele>65.426807363518</ele>
        <time>2021-11-17T11:01:02Z</time>
      </trkpt>
      <trkpt lat="46.56605" lon="0.64243">
        <ele>65.795049025677</ele>
        <time>2021-11-17T11:01:04Z</time>
      </trkpt>
      <trkpt lat="46.56605" lon="0.64246">
        <ele>65.789135829546</ele>
        <time>2021-11-17T11:01:06Z</time>
      </trkpt>
      <trkpt lat="46.56603" lon="0.6425">
        <ele>65.790668027475</ele>
        <time>2021-11-17T11:01:08Z</time>
      </trkpt>
      <trkpt lat="46.56602" lon="0.64252">
        <ele>65.944843043573</ele>
        <time>2021-11-17T11:01:10Z</time>
      </trkpt>
      <trkpt lat="46.56602" lon="0.64256">
        <ele>66.012584229931</ele>
        <time>2021-11-17T11:01:13Z</time>
      </trkpt>
      <trkpt lat="46.56601" lon="0.6426">
        <ele>65.980329986662</ele>
        <time>2021-11-17T11:01:15Z</time>
      </trkpt>
      <trkpt lat="46.56602" lon="0.64262">
        <ele>66.191959952936</ele>
        <time>2021-11-17T11:01:17Z</time>
      </trkpt>
      <trkpt lat="46.56604" lon="0.64265">
        <ele>66.465135964565</ele>
        <time>2021-11-17T11:01:19Z</time>
      </trkpt>
      <trkpt lat="46.56606" lon="0.64268">
        <ele>66.41530407127</ele>
        <time>2021-11-17T11:01:21Z</time>
      </trkpt>
      <trkpt lat="46.56608" lon="0.6427">
        <ele>66.559104594402</ele>
        <time>2021-11-17T11:01:22Z</time>
      </trkpt>
      <trkpt lat="46.5661" lon="0.64272">
        <ele>66.179785301909</ele>
        <time>2021-11-17T11:01:24Z</time>
      </trkpt>
      <trkpt lat="46.56612" lon="0.64275">
        <ele>66.429042688571</ele>
        <time>2021-11-17T11:01:26Z</time>
      </trkpt>
      <trkpt lat="46.56615" lon="0.64277">
        <ele>66.581217418425</ele>
        <time>2021-11-17T11:01:28Z</time>
      </trkpt>
      <trkpt lat="46.56617" lon="0.6428">
        <ele>66.637562503107</ele>
        <time>2021-11-17T11:01:30Z</time>
      </trkpt>
      <trkpt lat="46.5662" lon="0.64281">
        <ele>66.900701656006</ele>
        <time>2021-11-17T11:01:32Z</time>
      </trkpt>
      <trkpt lat="46.56622" lon="0.64281">
        <ele>66.816153107211</ele>
        <time>2021-11-17T11:01:34Z</time>
      </trkpt>
      <trkpt lat="46.56625" lon="0.6428">
        <ele>66.757384474389</ele>
        <time>2021-11-17T11:01:36Z</time>
      </trkpt>
      <trkpt lat="46.56628" lon="0.6428">
        <ele>66.858656435274</ele>
        <time>2021-11-17T11:01:38Z</time>
      </trkpt>
      <trkpt lat="46.5663" lon="0.64279">
        <ele>66.959101478569</ele>
        <time>2021-11-17T11:01:40Z</time>
      </trkpt>
      <trkpt lat="46.56632" lon="0.64279">
        <ele>66.731808144599</ele>
        <time>2021-11-17T11:01:42Z</time>
      </trkpt>
      <trkpt lat="46.56634" lon="0.64279">
        <ele>66.877577069215</ele>
        <time>2021-11-17T11:01:45Z</time>
      </trkpt>
      <trkpt lat="46.56636" lon="0.64278">
        <ele>66.550515004434</ele>
        <time>2021-11-17T11:01:47Z</time>
      </trkpt>
      <trkpt lat="46.56638" lon="0.64277">
        <ele>66.850946184248</ele>
        <time>2021-11-17T11:01:49Z</time>
      </trkpt>
      <trkpt lat="46.5664" lon="0.64276">
        <ele>66.740756390616</ele>
        <time>2021-11-17T11:01:51Z</time>
      </trkpt>
      <trkpt lat="46.56642" lon="0.64275">
        <ele>66.858282221481</ele>
        <time>2021-11-17T11:01:53Z</time>
      </trkpt>
      <trkpt lat="46.56644" lon="0.64274">
        <ele>66.425007547252</ele>
        <time>2021-11-17T11:01:55Z</time>
      </trkpt>
      <trkpt lat="46.56647" lon="0.64272">
        <ele>66.525509314612</ele>
        <time>2021-11-17T11:01:57Z</time>
      </trkpt>
      <trkpt lat="46.56648" lon="0.64274">
        <ele>66.37235351</ele>
        <time>2021-11-17T11:02:01Z</time>
      </trkpt>
      <trkpt lat="46.5665" lon="0.64277">
        <ele>66.513802848756</ele>
        <time>2021-11-17T11:02:03Z</time>
      </trkpt>
      <trkpt lat="46.56652" lon="0.64281">
        <ele>66.197481813841</ele>
        <time>2021-11-17T11:02:05Z</time>
      </trkpt>
      <trkpt lat="46.56653" lon="0.64283">
        <ele>65.997074962594</ele>
        <time>2021-11-17T11:02:07Z</time>
      </trkpt>
      <trkpt lat="46.56656" lon="0.64286">
        <ele>66.416740331799</ele>
        <time>2021-11-17T11:02:10Z</time>
      </trkpt>
      <trkpt lat="46.56657" lon="0.64289">
        <ele>66.037340686657</ele>
        <time>2021-11-17T11:02:12Z</time>
      </trkpt>
      <trkpt lat="46.56658" lon="0.64292">
        <ele>66.288362872787</ele>
        <time>2021-11-17T11:02:14Z</time>
      </trkpt>
      <trkpt lat="46.56659" lon="0.64296">
        <ele>65.823386489414</ele>
        <time>2021-11-17T11:02:16Z</time>
      </trkpt>
      <trkpt lat="46.5666" lon="0.64299">
        <ele>66.299417402595</ele>
        <time>2021-11-17T11:02:18Z</time>
      </trkpt>
      <trkpt lat="46.56661" lon="0.64301">
        <ele>65.917923005298</ele>
        <time>2021-11-17T11:02:20Z</time>
      </trkpt>
      <trkpt lat="46.56662" lon="0.64303">
        <ele>66.113433340564</ele>
        <time>2021-11-17T11:02:22Z</time>
      </trkpt>
      <trkpt lat="46.56662" lon="0.64306">
        <ele>66.363310120068</ele>
        <time>2021-11-17T11:02:24Z</time>
      </trkpt>
      <trkpt lat="46.56665" lon="0.64307">
        <ele>66.5009402344</ele>
        <time>2021-11-17T11:02:26Z</time>
      </trkpt>
      <trkpt lat="46.56668" lon="0.64309">
        <ele>66.248509643599</ele>
        <time>2021-11-17T11:02:28Z</time>
      </trkpt>
      <trkpt lat="46.5667" lon="0.6431">
        <ele>66.684520024806</ele>
        <time>2021-11-17T11:02:30Z</time>
      </trkpt>
      <trkpt lat="46.56672" lon="0.6431">
        <ele>66.514790409245</ele>
        <time>2021-11-17T11:02:32Z</time>
      </trkpt>
      <trkpt lat="46.56675" lon="0.64312">
        <ele>66.429441235028</ele>
        <time>2021-11-17T11:02:34Z</time>
      </trkpt>
      <trkpt lat="46.56676" lon="0.64314">
        <ele>67.148114738055</ele>
        <time>2021-11-17T11:02:36Z</time>
      </trkpt>
      <trkpt lat="46.56678" lon="0.64316">
        <ele>66.7617533952</ele>
        <time>2021-11-17T11:02:38Z</time>
      </trkpt>
      <trkpt lat="46.5668" lon="0.64318">
        <ele>67.142902252264</ele>
        <time>2021-11-17T11:02:40Z</time>
      </trkpt>
      <trkpt lat="46.56681" lon="0.6432">
        <ele>66.96382110659</ele>
        <time>2021-11-17T11:02:42Z</time>
      </trkpt>
      <trkpt lat="46.56683" lon="0.64321">
        <ele>66.810759374872</ele>
        <time>2021-11-17T11:02:44Z</time>
      </trkpt>
      <trkpt lat="46.56685" lon="0.64323">
        <ele>67.232944142073</ele>
        <time>2021-11-17T11:02:46Z</time>
      </trkpt>
      <trkpt lat="46.56687" lon="0.64325">
        <ele>67.295147811063</ele>
        <time>2021-11-17T11:02:48Z</time>
      </trkpt>
      <trkpt lat="46.5669" lon="0.64327">
        <ele>67.161923922598</ele>
        <time>2021-11-17T11:02:50Z</time>
      </trkpt>
      <trkpt lat="46.56692" lon="0.64329">
        <ele>67.348074793816</ele>
        <time>2021-11-17T11:02:52Z</time>
      </trkpt>
      <trkpt lat="46.56694" lon="0.64331">
        <ele>67.436411719769</ele>
        <time>2021-11-17T11:02:54Z</time>
      </trkpt>
      <trkpt lat="46.56696" lon="0.64333">
        <ele>67.345853196457</ele>
        <time>2021-11-17T11:02:56Z</time>
      </trkpt>
      <trkpt lat="46.56699" lon="0.64335">
        <ele>67.475620939396</ele>
        <time>2021-11-17T11:02:58Z</time>
      </trkpt>
      <trkpt lat="46.56701" lon="0.64337">
        <ele>67.629292034544</ele>
        <time>2021-11-17T11:03:00Z</time>
      </trkpt>
      <trkpt lat="46.56701" lon="0.6434">
        <ele>67.669586852193</ele>
        <time>2021-11-17T11:03:02Z</time>
      </trkpt>
      <trkpt lat="46.56702" lon="0.64343">
        <ele>67.758041759953</ele>
        <time>2021-11-17T11:03:04Z</time>
      </trkpt>
      <trkpt lat="46.56702" lon="0.64346">
        <ele>67.768217955716</ele>
        <time>2021-11-17T11:03:06Z</time>
      </trkpt>
      <trkpt lat="46.56703" lon="0.64349">
        <ele>67.546035056002</ele>
        <time>2021-11-17T11:03:08Z</time>
      </trkpt>
      <trkpt lat="46.56705" lon="0.64351">
        <ele>67.417996407486</ele>
        <time>2021-11-17T11:03:10Z</time>
      </trkpt>
      <trkpt lat="46.56707" lon="0.64352">
        <ele>67.720527066849</ele>
        <time>2021-11-17T11:03:12Z</time>
      </trkpt>
      <trkpt lat="46.56709" lon="0.64353">
        <ele>67.6546792835</ele>
        <time>2021-11-17T11:03:14Z</time>
      </trkpt>
      <trkpt lat="46.56712" lon="0.64353">
        <ele>67.792300344445</ele>
        <time>2021-11-17T11:03:17Z</time>
      </trkpt>
      <trkpt lat="46.56714" lon="0.64354">
        <ele>67.754013182595</ele>
        <time>2021-11-17T11:03:19Z</time>
      </trkpt>
      <trkpt lat="46.56717" lon="0.64354">
        <ele>67.970474707894</ele>
        <time>2021-11-17T11:03:21Z</time>
      </trkpt>
      <trkpt lat="46.56719" lon="0.64355">
        <ele>67.854024991393</ele>
        <time>2021-11-17T11:03:23Z</time>
      </trkpt>
      <trkpt lat="46.56721" lon="0.64356">
        <ele>67.851657165214</ele>
        <time>2021-11-17T11:03:25Z</time>
      </trkpt>
      <trkpt lat="46.56723" lon="0.64357">
        <ele>68.242262209766</ele>
        <time>2021-11-17T11:03:27Z</time>
      </trkpt>
      <trkpt lat="46.56726" lon="0.64358">
        <ele>68.073730189353</ele>
        <time>2021-11-17T11:03:29Z</time>
      </trkpt>
      <trkpt lat="46.56729" lon="0.64359">
        <ele>68.197473178618</ele>
        <time>2021-11-17T11:03:31Z</time>
      </trkpt>
      <trkpt lat="46.56732" lon="0.64361">
        <ele>68.411430899985</ele>
        <time>2021-11-17T11:03:33Z</time>
      </trkpt>
      <trkpt lat="46.56734" lon="0.64361">
        <ele>68.518228390254</ele>
        <time>2021-11-17T11:03:35Z</time>
      </trkpt>
      <trkpt lat="46.56736" lon="0.64362">
        <ele>68.159316428006</ele>
        <time>2021-11-17T11:03:37Z</time>
      </trkpt>
      <trkpt lat="46.56739" lon="0.64362">
        <ele>68.475442193449</ele>
        <time>2021-11-17T11:03:39Z</time>
      </trkpt>
      <trkpt lat="46.56742" lon="0.64363">
        <ele>68.306540100835</ele>
        <time>2021-11-17T11:03:41Z</time>
      </trkpt>
      <trkpt lat="46.56745" lon="0.64363">
        <ele>68.37152654212</ele>
        <time>2021-11-17T11:03:43Z</time>
      </trkpt>
      <trkpt lat="46.56747" lon="0.64364">
        <ele>68.675435647368</ele>
        <time>2021-11-17T11:03:45Z</time>
      </trkpt>
      <trkpt lat="46.5675" lon="0.64365">
        <ele>68.439828690141</ele>
        <time>2021-11-17T11:03:47Z</time>
      </trkpt>
      <trkpt lat="46.56753" lon="0.64365">
        <ele>68.423510170542</ele>
        <time>2021-11-17T11:03:50Z</time>
      </trkpt>
      <trkpt lat="46.56755" lon="0.64366">
        <ele>68.816750623286</ele>
        <time>2021-11-17T11:03:52Z</time>
      </trkpt>
      <trkpt lat="46.56758" lon="0.64367">
        <ele>68.429766857997</ele>
        <time>2021-11-17T11:03:54Z</time>
      </trkpt>
      <trkpt lat="46.56761" lon="0.64368">
        <ele>68.545555998571</ele>
        <time>2021-11-17T11:03:56Z</time>
      </trkpt>
      <trkpt lat="46.56763" lon="0.64368">
        <ele>68.310179439373</ele>
        <time>2021-11-17T11:03:58Z</time>
      </trkpt>
      <trkpt lat="46.56765" lon="0.64369">
        <ele>68.512300421484</ele>
        <time>2021-11-17T11:04:00Z</time>
      </trkpt>
      <trkpt lat="46.56768" lon="0.64369">
        <ele>68.423685792834</ele>
        <time>2021-11-17T11:04:02Z</time>
      </trkpt>
      <trkpt lat="46.5677" lon="0.6437">
        <ele>68.473147508688</ele>
        <time>2021-11-17T11:04:04Z</time>
      </trkpt>
      <trkpt lat="46.56772" lon="0.64371">
        <ele>68.626621190459</ele>
        <time>2021-11-17T11:04:06Z</time>
      </trkpt>
      <trkpt lat="46.56774" lon="0.64371">
        <ele>68.664553247392</ele>
        <time>2021-11-17T11:04:07Z</time>
      </trkpt>
      <trkpt lat="46.56776" lon="0.6437">
        <ele>68.358304357156</ele>
        <time>2021-11-17T11:04:09Z</time>
      </trkpt>
      <trkpt lat="46.56779" lon="0.64371">
        <ele>68.684245781973</ele>
        <time>2021-11-17T11:04:11Z</time>
      </trkpt>
      <trkpt lat="46.56781" lon="0.64372">
        <ele>68.517589188181</ele>
        <time>2021-11-17T11:04:13Z</time>
      </trkpt>
      <trkpt lat="46.56784" lon="0.64373">
        <ele>68.451247451827</ele>
        <time>2021-11-17T11:04:15Z</time>
      </trkpt>
      <trkpt lat="46.56786" lon="0.64374">
        <ele>68.462701303884</ele>
        <time>2021-11-17T11:04:17Z</time>
      </trkpt>
      <trkpt lat="46.56788" lon="0.64375">
        <ele>68.487984105945</ele>
        <time>2021-11-17T11:04:19Z</time>
      </trkpt>
      <trkpt lat="46.5679" lon="0.64376">
        <ele>68.513818386942</ele>
        <time>2021-11-17T11:04:21Z</time>
      </trkpt>
      <trkpt lat="46.56792" lon="0.64376">
        <ele>68.465457702987</ele>
        <time>2021-11-17T11:04:23Z</time>
      </trkpt>
      <trkpt lat="46.56796" lon="0.64378">
        <ele>68.229333017021</ele>
        <time>2021-11-17T11:04:26Z</time>
      </trkpt>
      <trkpt lat="46.56798" lon="0.64379">
        <ele>68.286540054716</ele>
        <time>2021-11-17T11:04:28Z</time>
      </trkpt>
      <trkpt lat="46.568" lon="0.6438">
        <ele>68.478917685337</ele>
        <time>2021-11-17T11:04:30Z</time>
      </trkpt>
      <trkpt lat="46.56803" lon="0.64381">
        <ele>68.599768139422</ele>
        <time>2021-11-17T11:04:32Z</time>
      </trkpt>
      <trkpt lat="46.56806" lon="0.64382">
        <ele>68.319195093587</ele>
        <time>2021-11-17T11:04:35Z</time>
      </trkpt>
      <trkpt lat="46.56808" lon="0.64383">
        <ele>68.499563734978</ele>
        <time>2021-11-17T11:04:37Z</time>
      </trkpt>
      <trkpt lat="46.5681" lon="0.64383">
        <ele>68.143317057751</ele>
        <time>2021-11-17T11:04:39Z</time>
      </trkpt>
      <trkpt lat="46.56813" lon="0.64384">
        <ele>68.493139701895</ele>
        <time>2021-11-17T11:04:41Z</time>
      </trkpt>
      <trkpt lat="46.56815" lon="0.64385">
        <ele>68.219054381363</ele>
        <time>2021-11-17T11:04:43Z</time>
      </trkpt>
      <trkpt lat="46.56817" lon="0.64386">
        <ele>68.132413414307</ele>
        <time>2021-11-17T11:04:45Z</time>
      </trkpt>
      <trkpt lat="46.5682" lon="0.64387">
        <ele>68.398175111972</ele>
        <time>2021-11-17T11:04:47Z</time>
      </trkpt>
      <trkpt lat="46.56822" lon="0.64388">
        <ele>68.186601244844</ele>
        <time>2021-11-17T11:04:50Z</time>
      </trkpt>
      <trkpt lat="46.56824" lon="0.6439">
        <ele>68.630087617785</ele>
        <time>2021-11-17T11:04:52Z</time>
      </trkpt>
      <trkpt lat="46.56827" lon="0.64391">
        <ele>68.486465421505</ele>
        <time>2021-11-17T11:04:54Z</time>
      </trkpt>
      <trkpt lat="46.56829" lon="0.64392">
        <ele>68.491863004863</ele>
        <time>2021-11-17T11:04:56Z</time>
      </trkpt>
      <trkpt lat="46.56832" lon="0.64393">
        <ele>68.163020949811</ele>
        <time>2021-11-17T11:04:58Z</time>
      </trkpt>
      <trkpt lat="46.56835" lon="0.64394">
        <ele>68.502156226896</ele>
        <time>2021-11-17T11:05:00Z</time>
      </trkpt>
      <trkpt lat="46.56837" lon="0.64395">
        <ele>68.488674455322</ele>
        <time>2021-11-17T11:05:03Z</time>
      </trkpt>
      <trkpt lat="46.56839" lon="0.64397">
        <ele>68.511969026178</ele>
        <time>2021-11-17T11:05:05Z</time>
      </trkpt>
      <trkpt lat="46.56841" lon="0.64398">
        <ele>68.412608801387</ele>
        <time>2021-11-17T11:05:07Z</time>
      </trkpt>
      <trkpt lat="46.56844" lon="0.64398">
        <ele>68.298933093436</ele>
        <time>2021-11-17T11:05:09Z</time>
      </trkpt>
      <trkpt lat="46.56846" lon="0.644">
        <ele>68.134540184401</ele>
        <time>2021-11-17T11:05:11Z</time>
      </trkpt>
      <trkpt lat="46.56848" lon="0.64401">
        <ele>68.272043884732</ele>
        <time>2021-11-17T11:05:13Z</time>
      </trkpt>
      <trkpt lat="46.56851" lon="0.64402">
        <ele>67.893478525802</ele>
        <time>2021-11-17T11:05:15Z</time>
      </trkpt>
      <trkpt lat="46.56853" lon="0.64404">
        <ele>67.899525877088</ele>
        <time>2021-11-17T11:05:17Z</time>
      </trkpt>
      <trkpt lat="46.56854" lon="0.64405">
        <ele>68.061103346758</ele>
        <time>2021-11-17T11:05:19Z</time>
      </trkpt>
      <trkpt lat="46.56856" lon="0.64406">
        <ele>67.86560981907</ele>
        <time>2021-11-17T11:05:21Z</time>
      </trkpt>
      <trkpt lat="46.56859" lon="0.64407">
        <ele>67.271336527541</ele>
        <time>2021-11-17T11:05:23Z</time>
      </trkpt>
      <trkpt lat="46.56861" lon="0.64409">
        <ele>67.6450431142</ele>
        <time>2021-11-17T11:05:25Z</time>
      </trkpt>
      <trkpt lat="46.56864" lon="0.6441">
        <ele>67.190197608434</ele>
        <time>2021-11-17T11:05:28Z</time>
      </trkpt>
      <trkpt lat="46.56866" lon="0.64412">
        <ele>67.509991647676</ele>
        <time>2021-11-17T11:05:30Z</time>
      </trkpt>
      <trkpt lat="46.56868" lon="0.64413">
        <ele>67.454127052799</ele>
        <time>2021-11-17T11:05:32Z</time>
      </trkpt>
      <trkpt lat="46.5687" lon="0.64414">
        <ele>67.294878137298</ele>
        <time>2021-11-17T11:05:34Z</time>
      </trkpt>
      <trkpt lat="46.56872" lon="0.64416">
        <ele>67.522579030134</ele>
        <time>2021-11-17T11:05:36Z</time>
      </trkpt>
      <trkpt lat="46.56874" lon="0.64419">
        <ele>67.26185404975</ele>
        <time>2021-11-17T11:05:38Z</time>
      </trkpt>
      <trkpt lat="46.56876" lon="0.64421">
        <ele>67.276197715662</ele>
        <time>2021-11-17T11:05:40Z</time>
      </trkpt>
      <trkpt lat="46.56878" lon="0.64422">
        <ele>67.599781264551</ele>
        <time>2021-11-17T11:05:42Z</time>
      </trkpt>
      <trkpt lat="46.56881" lon="0.64424">
        <ele>67.592075686902</ele>
        <time>2021-11-17T11:05:45Z</time>
      </trkpt>
      <trkpt lat="46.56883" lon="0.64425">
        <ele>67.548585934564</ele>
        <time>2021-11-17T11:05:47Z</time>
      </trkpt>
      <trkpt lat="46.56886" lon="0.64426">
        <ele>67.226448537782</ele>
        <time>2021-11-17T11:05:49Z</time>
      </trkpt>
      <trkpt lat="46.56888" lon="0.64426">
        <ele>67.127875193022</ele>
        <time>2021-11-17T11:05:51Z</time>
      </trkpt>
      <trkpt lat="46.56891" lon="0.64426">
        <ele>67.514975741506</ele>
        <time>2021-11-17T11:05:53Z</time>
      </trkpt>
      <trkpt lat="46.56893" lon="0.64424">
        <ele>67.404669187963</ele>
        <time>2021-11-17T11:05:55Z</time>
      </trkpt>
      <trkpt lat="46.56895" lon="0.64424">
        <ele>67.517939986661</ele>
        <time>2021-11-17T11:05:56Z</time>
      </trkpt>
      <trkpt lat="46.56897" lon="0.64425">
        <ele>67.341919327155</ele>
        <time>2021-11-17T11:05:58Z</time>
      </trkpt>
      <trkpt lat="46.56898" lon="0.64427">
        <ele>67.34792577941</ele>
        <time>2021-11-17T11:06:00Z</time>
      </trkpt>
      <trkpt lat="46.569" lon="0.64428">
        <ele>67.264269492589</ele>
        <time>2021-11-17T11:06:02Z</time>
      </trkpt>
      <trkpt lat="46.56902" lon="0.6443">
        <ele>67.456366896629</ele>
        <time>2021-11-17T11:06:04Z</time>
      </trkpt>
      <trkpt lat="46.56903" lon="0.64432">
        <ele>67.287731425837</ele>
        <time>2021-11-17T11:06:06Z</time>
      </trkpt>
      <trkpt lat="46.56906" lon="0.64434">
        <ele>67.190750692971</ele>
        <time>2021-11-17T11:06:08Z</time>
      </trkpt>
      <trkpt lat="46.56909" lon="0.64435">
        <ele>67.633528282866</ele>
        <time>2021-11-17T11:06:10Z</time>
      </trkpt>
      <trkpt lat="46.56912" lon="0.64436">
        <ele>67.221945569851</ele>
        <time>2021-11-17T11:06:13Z</time>
      </trkpt>
      <trkpt lat="46.56914" lon="0.64436">
        <ele>67.391012240201</ele>
        <time>2021-11-17T11:06:15Z</time>
      </trkpt>
      <trkpt lat="46.56916" lon="0.64436">
        <ele>67.254996102303</ele>
        <time>2021-11-17T11:06:17Z</time>
      </trkpt>
      <trkpt lat="46.56918" lon="0.64437">
        <ele>67.610309616663</ele>
        <time>2021-11-17T11:06:19Z</time>
      </trkpt>
      <trkpt lat="46.5692" lon="0.64439">
        <ele>67.386148985475</ele>
        <time>2021-11-17T11:06:22Z</time>
      </trkpt>
      <trkpt lat="46.56922" lon="0.6444">
        <ele>67.244335050695</ele>
        <time>2021-11-17T11:06:24Z</time>
      </trkpt>
      <trkpt lat="46.56924" lon="0.64441">
        <ele>67.665959117934</ele>
        <time>2021-11-17T11:06:26Z</time>
      </trkpt>
      <trkpt lat="46.56926" lon="0.64442">
        <ele>67.223899295554</ele>
        <time>2021-11-17T11:06:28Z</time>
      </trkpt>
      <trkpt lat="46.56928" lon="0.64443">
        <ele>67.312129589729</ele>
        <time>2021-11-17T11:06:30Z</time>
      </trkpt>
      <trkpt lat="46.56931" lon="0.64444">
        <ele>67.658627715893</ele>
        <time>2021-11-17T11:06:32Z</time>
      </trkpt>
      <trkpt lat="46.56933" lon="0.64444">
        <ele>67.475312045775</ele>
        <time>2021-11-17T11:06:33Z</time>
      </trkpt>
      <trkpt lat="46.56935" lon="0.64445">
        <ele>67.758755942807</ele>
        <time>2021-11-17T11:06:35Z</time>
      </trkpt>
      <trkpt lat="46.56938" lon="0.64447">
        <ele>67.037546036765</ele>
        <time>2021-11-17T11:06:37Z</time>
      </trkpt>
      <trkpt lat="46.56941" lon="0.64448">
        <ele>67.428750973195</ele>
        <time>2021-11-17T11:06:39Z</time>
      </trkpt>
      <trkpt lat="46.56943" lon="0.64449">
        <ele>67.334699638188</ele>
        <time>2021-11-17T11:06:40Z</time>
      </trkpt>
      <trkpt lat="46.56946" lon="0.64451">
        <ele>67.090445174836</ele>
        <time>2021-11-17T11:06:42Z</time>
      </trkpt>
      <trkpt lat="46.56948" lon="0.64453">
        <ele>66.769303170033</ele>
        <time>2021-11-17T11:06:45Z</time>
      </trkpt>
      <trkpt lat="46.56948" lon="0.64457">
        <ele>67.636479970068</ele>
        <time>2021-11-17T11:06:47Z</time>
      </trkpt>
      <trkpt lat="46.56948" lon="0.6446">
        <ele>67.87296564877</ele>
        <time>2021-11-17T11:06:50Z</time>
      </trkpt>
      <trkpt lat="46.56949" lon="0.64463">
        <ele>67.934259693138</ele>
        <time>2021-11-17T11:06:53Z</time>
      </trkpt>
      <trkpt lat="46.56948" lon="0.64467">
        <ele>67.858735033311</ele>
        <time>2021-11-17T11:06:56Z</time>
      </trkpt>
      <trkpt lat="46.56949" lon="0.64471">
        <ele>68.069115758874</ele>
        <time>2021-11-17T11:06:58Z</time>
      </trkpt>
      <trkpt lat="46.56949" lon="0.64474">
        <ele>68.418099828064</ele>
        <time>2021-11-17T11:07:00Z</time>
      </trkpt>
      <trkpt lat="46.56949" lon="0.64476">
        <ele>68.387301915325</ele>
        <time>2021-11-17T11:07:02Z</time>
      </trkpt>
      <trkpt lat="46.56949" lon="0.64479">
        <ele>68.705283128656</ele>
        <time>2021-11-17T11:07:04Z</time>
      </trkpt>
      <trkpt lat="46.5695" lon="0.64481">
        <ele>68.482818852179</ele>
        <time>2021-11-17T11:07:07Z</time>
      </trkpt>
      <trkpt lat="46.56952" lon="0.64482">
        <ele>68.550155937672</ele>
        <time>2021-11-17T11:07:10Z</time>
      </trkpt>
      <trkpt lat="46.56955" lon="0.64479">
        <ele>68.60393297486</ele>
        <time>2021-11-17T11:07:13Z</time>
      </trkpt>
      <trkpt lat="46.56957" lon="0.64477">
        <ele>68.58425217215</ele>
        <time>2021-11-17T11:07:15Z</time>
      </trkpt>
      <trkpt lat="46.56959" lon="0.64474">
        <ele>68.390162109397</ele>
        <time>2021-11-17T11:07:17Z</time>
      </trkpt>
      <trkpt lat="46.5696" lon="0.64473">
        <ele>68.236143486574</ele>
        <time>2021-11-17T11:07:18Z</time>
      </trkpt>
      <trkpt lat="46.56962" lon="0.64469">
        <ele>68.669616681524</ele>
        <time>2021-11-17T11:07:20Z</time>
      </trkpt>
      <trkpt lat="46.56963" lon="0.64468">
        <ele>68.459162297659</ele>
        <time>2021-11-17T11:07:22Z</time>
      </trkpt>
      <trkpt lat="46.56965" lon="0.64465">
        <ele>68.464746582322</ele>
        <time>2021-11-17T11:07:24Z</time>
      </trkpt>
      <trkpt lat="46.56966" lon="0.64462">
        <ele>68.48444219958</ele>
        <time>2021-11-17T11:07:26Z</time>
      </trkpt>
      <trkpt lat="46.56966" lon="0.64459">
        <ele>68.453076164238</ele>
        <time>2021-11-17T11:07:28Z</time>
      </trkpt>
      <trkpt lat="46.56967" lon="0.64455">
        <ele>68.132148642093</ele>
        <time>2021-11-17T11:07:30Z</time>
      </trkpt>
      <trkpt lat="46.56968" lon="0.64452">
        <ele>68.392258318141</ele>
        <time>2021-11-17T11:07:32Z</time>
      </trkpt>
      <trkpt lat="46.56969" lon="0.64449">
        <ele>68.308198696002</ele>
        <time>2021-11-17T11:07:34Z</time>
      </trkpt>
      <trkpt lat="46.56969" lon="0.64446">
        <ele>68.424308450893</ele>
        <time>2021-11-17T11:07:36Z</time>
      </trkpt>
      <trkpt lat="46.56972" lon="0.64447">
        <ele>68.32934132684</ele>
        <time>2021-11-17T11:07:40Z</time>
      </trkpt>
      <trkpt lat="46.56975" lon="0.64448">
        <ele>68.277135641314</ele>
        <time>2021-11-17T11:07:42Z</time>
      </trkpt>
      <trkpt lat="46.56978" lon="0.64449">
        <ele>68.483064141124</ele>
        <time>2021-11-17T11:07:46Z</time>
      </trkpt>
      <trkpt lat="46.5698" lon="0.64449">
        <ele>68.565353000537</ele>
        <time>2021-11-17T11:07:48Z</time>
      </trkpt>
      <trkpt lat="46.56982" lon="0.64449">
        <ele>68.208069218323</ele>
        <time>2021-11-17T11:07:51Z</time>
      </trkpt>
      <trkpt lat="46.56984" lon="0.64451">
        <ele>68.299090344459</ele>
        <time>2021-11-17T11:07:54Z</time>
      </trkpt>
      <trkpt lat="46.56986" lon="0.64453">
        <ele>68.862261270173</ele>
        <time>2021-11-17T11:07:57Z</time>
      </trkpt>
      <trkpt lat="46.56988" lon="0.64454">
        <ele>68.752300353721</ele>
        <time>2021-11-17T11:07:58Z</time>
      </trkpt>
      <trkpt lat="46.56989" lon="0.64458">
        <ele>68.474495171569</ele>
        <time>2021-11-17T11:08:01Z</time>
      </trkpt>
      <trkpt lat="46.56991" lon="0.64461">
        <ele>68.322840396315</ele>
        <time>2021-11-17T11:08:02Z</time>
      </trkpt>
      <trkpt lat="46.56994" lon="0.64463">
        <ele>68.164640564471</ele>
        <time>2021-11-17T11:08:03Z</time>
      </trkpt>
      <trkpt lat="46.56996" lon="0.64467">
        <ele>67.876445029862</ele>
        <time>2021-11-17T11:08:05Z</time>
      </trkpt>
      <trkpt lat="46.56998" lon="0.64468">
        <ele>68.451918291859</ele>
        <time>2021-11-17T11:08:06Z</time>
      </trkpt>
      <trkpt lat="46.57" lon="0.64471">
        <ele>68.317586943507</ele>
        <time>2021-11-17T11:08:08Z</time>
      </trkpt>
      <trkpt lat="46.57002" lon="0.64474">
        <ele>68.512132427655</ele>
        <time>2021-11-17T11:08:10Z</time>
      </trkpt>
      <trkpt lat="46.57001" lon="0.64477">
        <ele>68.405321791768</ele>
        <time>2021-11-17T11:08:13Z</time>
      </trkpt>
      <trkpt lat="46.57003" lon="0.64479">
        <ele>68.525228758343</ele>
        <time>2021-11-17T11:08:14Z</time>
      </trkpt>
      <trkpt lat="46.57004" lon="0.64481">
        <ele>68.639274450019</ele>
        <time>2021-11-17T11:08:16Z</time>
      </trkpt>
      <trkpt lat="46.57006" lon="0.64482">
        <ele>68.8646803312</ele>
        <time>2021-11-17T11:08:19Z</time>
      </trkpt>
      <trkpt lat="46.57008" lon="0.64483">
        <ele>68.985777812079</ele>
        <time>2021-11-17T11:08:21Z</time>
      </trkpt>
      <trkpt lat="46.5701" lon="0.64484">
        <ele>69.187896770425</ele>
        <time>2021-11-17T11:08:23Z</time>
      </trkpt>
      <trkpt lat="46.57013" lon="0.64484">
        <ele>69.311623441055</ele>
        <time>2021-11-17T11:08:25Z</time>
      </trkpt>
      <trkpt lat="46.57016" lon="0.64485">
        <ele>68.850597682409</ele>
        <time>2021-11-17T11:08:27Z</time>
      </trkpt>
      <trkpt lat="46.57018" lon="0.64485">
        <ele>69.080967620946</ele>
        <time>2021-11-17T11:08:29Z</time>
      </trkpt>
      <trkpt lat="46.57022" lon="0.64483">
        <ele>69.064082874916</ele>
        <time>2021-11-17T11:08:30Z</time>
      </trkpt>
      <trkpt lat="46.57026" lon="0.64482">
        <ele>68.891997952014</ele>
        <time>2021-11-17T11:08:32Z</time>
      </trkpt>
      <trkpt lat="46.57028" lon="0.64482">
        <ele>69.045960921794</ele>
        <time>2021-11-17T11:08:34Z</time>
      </trkpt>
      <trkpt lat="46.57032" lon="0.64482">
        <ele>68.981337402016</ele>
        <time>2021-11-17T11:08:36Z</time>
      </trkpt>
      <trkpt lat="46.57034" lon="0.64483">
        <ele>68.629316700622</ele>
        <time>2021-11-17T11:08:37Z</time>
      </trkpt>
      <trkpt lat="46.57036" lon="0.64484">
        <ele>68.95602309797</ele>
        <time>2021-11-17T11:08:41Z</time>
      </trkpt>
      <trkpt lat="46.57037" lon="0.64487">
        <ele>69.085083969869</ele>
        <time>2021-11-17T11:08:43Z</time>
      </trkpt>
      <trkpt lat="46.57039" lon="0.64489">
        <ele>69.22838193737</ele>
        <time>2021-11-17T11:08:45Z</time>
      </trkpt>
      <trkpt lat="46.57041" lon="0.6449">
        <ele>68.962329411879</ele>
        <time>2021-11-17T11:08:48Z</time>
      </trkpt>
      <trkpt lat="46.57043" lon="0.6449">
        <ele>69.317784268409</ele>
        <time>2021-11-17T11:08:51Z</time>
      </trkpt>
      <trkpt lat="46.57044" lon="0.64492">
        <ele>69.23302365467</ele>
        <time>2021-11-17T11:08:54Z</time>
      </trkpt>
      <trkpt lat="46.57045" lon="0.64496">
        <ele>69.445318629965</ele>
        <time>2021-11-17T11:08:55Z</time>
      </trkpt>
      <trkpt lat="46.57046" lon="0.64499">
        <ele>69.429506437853</ele>
        <time>2021-11-17T11:08:57Z</time>
      </trkpt>
      <trkpt lat="46.57047" lon="0.64504">
        <ele>69.530529945157</ele>
        <time>2021-11-17T11:08:59Z</time>
      </trkpt>
      <trkpt lat="46.57047" lon="0.64508">
        <ele>69.490706782788</ele>
        <time>2021-11-17T11:09:01Z</time>
      </trkpt>
      <trkpt lat="46.57048" lon="0.64511">
        <ele>69.628139476292</ele>
        <time>2021-11-17T11:09:03Z</time>
      </trkpt>
      <trkpt lat="46.57048" lon="0.64514">
        <ele>69.671103518456</ele>
        <time>2021-11-17T11:09:05Z</time>
      </trkpt>
      <trkpt lat="46.57049" lon="0.64517">
        <ele>70.028050967492</ele>
        <time>2021-11-17T11:09:07Z</time>
      </trkpt>
      <trkpt lat="46.5705" lon="0.6452">
        <ele>69.787684004754</ele>
        <time>2021-11-17T11:09:09Z</time>
      </trkpt>
      <trkpt lat="46.5705" lon="0.64524">
        <ele>69.662467234768</ele>
        <time>2021-11-17T11:09:11Z</time>
      </trkpt>
      <trkpt lat="46.57049" lon="0.64528">
        <ele>70.086482259445</ele>
        <time>2021-11-17T11:09:13Z</time>
      </trkpt>
      <trkpt lat="46.57049" lon="0.64532">
        <ele>70.174403187819</ele>
        <time>2021-11-17T11:09:15Z</time>
      </trkpt>
      <trkpt lat="46.57049" lon="0.64535">
        <ele>70.063855706714</ele>
        <time>2021-11-17T11:09:17Z</time>
      </trkpt>
      <trkpt lat="46.57049" lon="0.6454">
        <ele>70.284211182967</ele>
        <time>2021-11-17T11:09:20Z</time>
      </trkpt>
      <trkpt lat="46.57049" lon="0.64544">
        <ele>70.695753076114</ele>
        <time>2021-11-17T11:09:22Z</time>
      </trkpt>
      <trkpt lat="46.57048" lon="0.64547">
        <ele>70.45745170489</ele>
        <time>2021-11-17T11:09:24Z</time>
      </trkpt>
      <trkpt lat="46.57048" lon="0.64551">
        <ele>70.439755702391</ele>
        <time>2021-11-17T11:09:26Z</time>
      </trkpt>
      <trkpt lat="46.57047" lon="0.64555">
        <ele>70.368497483432</ele>
        <time>2021-11-17T11:09:28Z</time>
      </trkpt>
      <trkpt lat="46.57046" lon="0.64557">
        <ele>70.528797048144</ele>
        <time>2021-11-17T11:09:30Z</time>
      </trkpt>
      <trkpt lat="46.57045" lon="0.6456">
        <ele>70.456583652645</ele>
        <time>2021-11-17T11:09:32Z</time>
      </trkpt>
      <trkpt lat="46.57043" lon="0.64562">
        <ele>70.480587124825</ele>
        <time>2021-11-17T11:09:34Z</time>
      </trkpt>
      <trkpt lat="46.57043" lon="0.64565">
        <ele>70.823772856034</ele>
        <time>2021-11-17T11:09:36Z</time>
      </trkpt>
      <trkpt lat="46.57042" lon="0.64568">
        <ele>70.681730524637</ele>
        <time>2021-11-17T11:09:38Z</time>
      </trkpt>
      <trkpt lat="46.57042" lon="0.64571">
        <ele>70.914308276027</ele>
        <time>2021-11-17T11:09:40Z</time>
      </trkpt>
      <trkpt lat="46.57041" lon="0.64574">
        <ele>71.113740759902</ele>
        <time>2021-11-17T11:09:42Z</time>
      </trkpt>
      <trkpt lat="46.5704" lon="0.64578">
        <ele>71.279763167724</ele>
        <time>2021-11-17T11:09:44Z</time>
      </trkpt>
      <trkpt lat="46.5704" lon="0.64581">
        <ele>71.051617979072</ele>
        <time>2021-11-17T11:09:46Z</time>
      </trkpt>
      <trkpt lat="46.57038" lon="0.64585">
        <ele>70.998083327897</ele>
        <time>2021-11-17T11:09:48Z</time>
      </trkpt>
      <trkpt lat="46.57037" lon="0.64589">
        <ele>71.543622555211</ele>
        <time>2021-11-17T11:09:50Z</time>
      </trkpt>
      <trkpt lat="46.57035" lon="0.64593">
        <ele>71.530785658397</ele>
        <time>2021-11-17T11:09:52Z</time>
      </trkpt>
      <trkpt lat="46.57033" lon="0.64595">
        <ele>71.58396605961</ele>
        <time>2021-11-17T11:09:54Z</time>
      </trkpt>
      <trkpt lat="46.57032" lon="0.64598">
        <ele>71.55593349319</ele>
        <time>2021-11-17T11:09:56Z</time>
      </trkpt>
      <trkpt lat="46.57031" lon="0.64601">
        <ele>71.484550232999</ele>
        <time>2021-11-17T11:09:58Z</time>
      </trkpt>
      <trkpt lat="46.5703" lon="0.64604">
        <ele>71.309099700302</ele>
        <time>2021-11-17T11:10:00Z</time>
      </trkpt>
      <trkpt lat="46.5703" lon="0.64608">
        <ele>71.374570067972</ele>
        <time>2021-11-17T11:10:02Z</time>
      </trkpt>
      <trkpt lat="46.57029" lon="0.64612">
        <ele>71.614642450586</ele>
        <time>2021-11-17T11:10:04Z</time>
      </trkpt>
      <trkpt lat="46.57027" lon="0.64614">
        <ele>71.844047817402</ele>
        <time>2021-11-17T11:10:06Z</time>
      </trkpt>
      <trkpt lat="46.57026" lon="0.64618">
        <ele>71.817345060408</ele>
        <time>2021-11-17T11:10:08Z</time>
      </trkpt>
      <trkpt lat="46.57025" lon="0.64623">
        <ele>71.818547573872</ele>
        <time>2021-11-17T11:10:10Z</time>
      </trkpt>
      <trkpt lat="46.57025" lon="0.64626">
        <ele>71.995038792491</ele>
        <time>2021-11-17T11:10:11Z</time>
      </trkpt>
      <trkpt lat="46.57023" lon="0.6463">
        <ele>71.701533894986</ele>
        <time>2021-11-17T11:10:13Z</time>
      </trkpt>
      <trkpt lat="46.57022" lon="0.64633">
        <ele>72.009620768949</ele>
        <time>2021-11-17T11:10:14Z</time>
      </trkpt>
      <trkpt lat="46.57021" lon="0.64635">
        <ele>71.858713975176</ele>
        <time>2021-11-17T11:10:16Z</time>
      </trkpt>
      <trkpt lat="46.57018" lon="0.64638">
        <ele>72.189149940386</ele>
        <time>2021-11-17T11:10:18Z</time>
      </trkpt>
      <trkpt lat="46.57017" lon="0.64641">
        <ele>72.164147744887</ele>
        <time>2021-11-17T11:10:20Z</time>
      </trkpt>
      <trkpt lat="46.57017" lon="0.64644">
        <ele>72.285524761304</ele>
        <time>2021-11-17T11:10:22Z</time>
      </trkpt>
      <trkpt lat="46.57015" lon="0.64646">
        <ele>72.428705213591</ele>
        <time>2021-11-17T11:10:24Z</time>
      </trkpt>
      <trkpt lat="46.57014" lon="0.64649">
        <ele>72.328915820457</ele>
        <time>2021-11-17T11:10:26Z</time>
      </trkpt>
      <trkpt lat="46.57011" lon="0.64652">
        <ele>72.508523523808</ele>
        <time>2021-11-17T11:10:29Z</time>
      </trkpt>
      <trkpt lat="46.57009" lon="0.64655">
        <ele>72.935437293723</ele>
        <time>2021-11-17T11:10:32Z</time>
      </trkpt>
      <trkpt lat="46.57008" lon="0.64658">
        <ele>72.941312887706</ele>
        <time>2021-11-17T11:10:34Z</time>
      </trkpt>
      <trkpt lat="46.57007" lon="0.64661">
        <ele>73.211888734251</ele>
        <time>2021-11-17T11:10:36Z</time>
      </trkpt>
      <trkpt lat="46.57006" lon="0.64665">
        <ele>73.144961854443</ele>
        <time>2021-11-17T11:10:38Z</time>
      </trkpt>
      <trkpt lat="46.57006" lon="0.64667">
        <ele>73.263411516324</ele>
        <time>2021-11-17T11:10:40Z</time>
      </trkpt>
      <trkpt lat="46.57006" lon="0.64671">
        <ele>73.611609756947</ele>
        <time>2021-11-17T11:10:42Z</time>
      </trkpt>
      <trkpt lat="46.57006" lon="0.64676">
        <ele>73.830430455506</ele>
        <time>2021-11-17T11:10:44Z</time>
      </trkpt>
      <trkpt lat="46.57005" lon="0.64679">
        <ele>74.138268915936</ele>
        <time>2021-11-17T11:10:46Z</time>
      </trkpt>
      <trkpt lat="46.57005" lon="0.64682">
        <ele>74.521029258147</ele>
        <time>2021-11-17T11:10:48Z</time>
      </trkpt>
      <trkpt lat="46.57004" lon="0.64685">
        <ele>74.781528335065</ele>
        <time>2021-11-17T11:10:50Z</time>
      </trkpt>
      <trkpt lat="46.57002" lon="0.64688">
        <ele>75.124992466532</ele>
        <time>2021-11-17T11:10:52Z</time>
      </trkpt>
      <trkpt lat="46.57" lon="0.64691">
        <ele>75.123394162394</ele>
        <time>2021-11-17T11:10:54Z</time>
      </trkpt>
      <trkpt lat="46.56999" lon="0.64694">
        <ele>75.189734783024</ele>
        <time>2021-11-17T11:10:56Z</time>
      </trkpt>
      <trkpt lat="46.56998" lon="0.64697">
        <ele>75.388394580223</ele>
        <time>2021-11-17T11:10:58Z</time>
      </trkpt>
      <trkpt lat="46.56997" lon="0.647">
        <ele>75.606919299811</ele>
        <time>2021-11-17T11:11:00Z</time>
      </trkpt>
      <trkpt lat="46.56996" lon="0.64702">
        <ele>76.276791662909</ele>
        <time>2021-11-17T11:11:02Z</time>
      </trkpt>
      <trkpt lat="46.56994" lon="0.64704">
        <ele>76.064958198927</ele>
        <time>2021-11-17T11:11:04Z</time>
      </trkpt>
      <trkpt lat="46.56995" lon="0.64708">
        <ele>76.575606910512</ele>
        <time>2021-11-17T11:11:07Z</time>
      </trkpt>
      <trkpt lat="46.56995" lon="0.64712">
        <ele>76.959717400372</ele>
        <time>2021-11-17T11:11:10Z</time>
      </trkpt>
      <trkpt lat="46.56994" lon="0.64715">
        <ele>77.163756920956</ele>
        <time>2021-11-17T11:11:13Z</time>
      </trkpt>
      <trkpt lat="46.56991" lon="0.64718">
        <ele>77.550918651745</ele>
        <time>2021-11-17T11:11:16Z</time>
      </trkpt>
      <trkpt lat="46.56991" lon="0.64721">
        <ele>77.718671720475</ele>
        <time>2021-11-17T11:11:18Z</time>
      </trkpt>
      <trkpt lat="46.5699" lon="0.64724">
        <ele>78.164513071999</ele>
        <time>2021-11-17T11:11:20Z</time>
      </trkpt>
      <trkpt lat="46.5699" lon="0.64727">
        <ele>78.471598920412</ele>
        <time>2021-11-17T11:11:25Z</time>
      </trkpt>
      <trkpt lat="46.56988" lon="0.6473">
        <ele>78.583526838571</ele>
        <time>2021-11-17T11:11:27Z</time>
      </trkpt>
      <trkpt lat="46.56986" lon="0.64733">
        <ele>78.97789559979</ele>
        <time>2021-11-17T11:11:30Z</time>
      </trkpt>
      <trkpt lat="46.56985" lon="0.64736">
        <ele>79.281354667619</ele>
        <time>2021-11-17T11:11:33Z</time>
      </trkpt>
      <trkpt lat="46.56984" lon="0.6474">
        <ele>79.845661842264</ele>
        <time>2021-11-17T11:11:36Z</time>
      </trkpt>
      <trkpt lat="46.56984" lon="0.64743">
        <ele>80.09078009706</ele>
        <time>2021-11-17T11:11:39Z</time>
      </trkpt>
      <trkpt lat="46.56983" lon="0.64746">
        <ele>80.253678147681</ele>
        <time>2021-11-17T11:11:42Z</time>
      </trkpt>
      <trkpt lat="46.56982" lon="0.6475">
        <ele>81.026442331262</ele>
        <time>2021-11-17T11:11:45Z</time>
      </trkpt>
      <trkpt lat="46.5698" lon="0.64752">
        <ele>81.244266483933</ele>
        <time>2021-11-17T11:11:48Z</time>
      </trkpt>
      <trkpt lat="46.56979" lon="0.64755">
        <ele>81.574321642518</ele>
        <time>2021-11-17T11:11:51Z</time>
      </trkpt>
      <trkpt lat="46.56977" lon="0.64756">
        <ele>81.302184872329</ele>
        <time>2021-11-17T11:11:54Z</time>
      </trkpt>
      <trkpt lat="46.56976" lon="0.64759">
        <ele>81.205569465645</ele>
        <time>2021-11-17T11:11:55Z</time>
      </trkpt>
      <trkpt lat="46.56975" lon="0.64762">
        <ele>81.588301140815</ele>
        <time>2021-11-17T11:11:59Z</time>
      </trkpt>
      <trkpt lat="46.56974" lon="0.64764">
        <ele>81.693760690279</ele>
        <time>2021-11-17T11:12:02Z</time>
      </trkpt>
      <trkpt lat="46.56972" lon="0.64767">
        <ele>82.129497551359</ele>
        <time>2021-11-17T11:12:05Z</time>
      </trkpt>
      <trkpt lat="46.56971" lon="0.6477">
        <ele>82.24581168592</ele>
        <time>2021-11-17T11:12:08Z</time>
      </trkpt>
      <trkpt lat="46.5697" lon="0.64774">
        <ele>82.210336957127</ele>
        <time>2021-11-17T11:12:11Z</time>
      </trkpt>
      <trkpt lat="46.56968" lon="0.64776">
        <ele>82.706896927208</ele>
        <time>2021-11-17T11:12:14Z</time>
      </trkpt>
      <trkpt lat="46.56967" lon="0.64778">
        <ele>82.89618210867</ele>
        <time>2021-11-17T11:12:17Z</time>
      </trkpt>
      <trkpt lat="46.56965" lon="0.6478">
        <ele>82.782369430177</ele>
        <time>2021-11-17T11:12:19Z</time>
      </trkpt>
      <trkpt lat="46.56965" lon="0.64783">
        <ele>83.067383880727</ele>
        <time>2021-11-17T11:12:22Z</time>
      </trkpt>
      <trkpt lat="46.56964" lon="0.64786">
        <ele>83.25817355141</ele>
        <time>2021-11-17T11:12:25Z</time>
      </trkpt>
      <trkpt lat="46.56962" lon="0.64788">
        <ele>83.662690298632</ele>
        <time>2021-11-17T11:12:28Z</time>
      </trkpt>
      <trkpt lat="46.5696" lon="0.64789">
        <ele>84.017420550808</ele>
        <time>2021-11-17T11:12:31Z</time>
      </trkpt>
      <trkpt lat="46.56958" lon="0.64792">
        <ele>84.056165719405</ele>
        <time>2021-11-17T11:12:34Z</time>
      </trkpt>
      <trkpt lat="46.56955" lon="0.64792">
        <ele>84.001903614029</ele>
        <time>2021-11-17T11:12:36Z</time>
      </trkpt>
      <trkpt lat="46.56953" lon="0.64794">
        <ele>83.728189209476</ele>
        <time>2021-11-17T11:12:38Z</time>
      </trkpt>
      <trkpt lat="46.56952" lon="0.64796">
        <ele>83.692421917804</ele>
        <time>2021-11-17T11:12:41Z</time>
      </trkpt>
      <trkpt lat="46.56951" lon="0.64799">
        <ele>83.579607634805</ele>
        <time>2021-11-17T11:12:44Z</time>
      </trkpt>
      <trkpt lat="46.5695" lon="0.64802">
        <ele>83.548708030954</ele>
        <time>2021-11-17T11:12:46Z</time>
      </trkpt>
      <trkpt lat="46.56949" lon="0.64805">
        <ele>83.924313728698</ele>
        <time>2021-11-17T11:12:49Z</time>
      </trkpt>
      <trkpt lat="46.56947" lon="0.64807">
        <ele>84.0399005441</ele>
        <time>2021-11-17T11:12:51Z</time>
      </trkpt>
      <trkpt lat="46.56947" lon="0.6481">
        <ele>84.059998984449</ele>
        <time>2021-11-17T11:12:54Z</time>
      </trkpt>
      <trkpt lat="46.56947" lon="0.64813">
        <ele>84.325812500902</ele>
        <time>2021-11-17T11:12:57Z</time>
      </trkpt>
      <trkpt lat="46.56946" lon="0.64815">
        <ele>84.562815069221</ele>
        <time>2021-11-17T11:13:00Z</time>
      </trkpt>
      <trkpt lat="46.56945" lon="0.64817">
        <ele>85.160177318379</ele>
        <time>2021-11-17T11:13:03Z</time>
      </trkpt>
      <trkpt lat="46.56944" lon="0.6482">
        <ele>85.291246950626</ele>
        <time>2021-11-17T11:13:06Z</time>
      </trkpt>
      <trkpt lat="46.56942" lon="0.64822">
        <ele>85.533872869797</ele>
        <time>2021-11-17T11:13:08Z</time>
      </trkpt>
      <trkpt lat="46.56941" lon="0.64824">
        <ele>85.665331115946</ele>
        <time>2021-11-17T11:13:11Z</time>
      </trkpt>
      <trkpt lat="46.56939" lon="0.64827">
        <ele>85.845573106781</ele>
        <time>2021-11-17T11:13:14Z</time>
      </trkpt>
      <trkpt lat="46.56937" lon="0.64828">
        <ele>85.899226494133</ele>
        <time>2021-11-17T11:13:15Z</time>
      </trkpt>
      <trkpt lat="46.56936" lon="0.6483">
        <ele>85.985141061246</ele>
        <time>2021-11-17T11:13:17Z</time>
      </trkpt>
      <trkpt lat="46.56936" lon="0.64833">
        <ele>85.99919961486</ele>
        <time>2021-11-17T11:13:19Z</time>
      </trkpt>
      <trkpt lat="46.56935" lon="0.64835">
        <ele>86.240033373237</ele>
        <time>2021-11-17T11:13:22Z</time>
      </trkpt>
      <trkpt lat="46.56934" lon="0.64838">
        <ele>86.21848376561</ele>
        <time>2021-11-17T11:13:24Z</time>
      </trkpt>
      <trkpt lat="46.56933" lon="0.6484">
        <ele>86.183352055028</ele>
        <time>2021-11-17T11:13:26Z</time>
      </trkpt>
      <trkpt lat="46.56932" lon="0.64842">
        <ele>86.487683016807</ele>
        <time>2021-11-17T11:13:28Z</time>
      </trkpt>
      <trkpt lat="46.5693" lon="0.64845">
        <ele>86.817302865908</ele>
        <time>2021-11-17T11:13:31Z</time>
      </trkpt>
      <trkpt lat="46.56929" lon="0.64847">
        <ele>86.649185712449</ele>
        <time>2021-11-17T11:13:34Z</time>
      </trkpt>
      <trkpt lat="46.56928" lon="0.6485">
        <ele>86.793888800777</ele>
        <time>2021-11-17T11:13:37Z</time>
      </trkpt>
      <trkpt lat="46.56927" lon="0.64853">
        <ele>86.922350306064</ele>
        <time>2021-11-17T11:13:41Z</time>
      </trkpt>
      <trkpt lat="46.56927" lon="0.64858">
        <ele>86.832337578759</ele>
        <time>2021-11-17T11:13:51Z</time>
      </trkpt>
      <trkpt lat="46.56925" lon="0.64861">
        <ele>87.609489068389</ele>
        <time>2021-11-17T11:13:55Z</time>
      </trkpt>
      <trkpt lat="46.56927" lon="0.64864">
        <ele>88.164018511772</ele>
        <time>2021-11-17T11:14:04Z</time>
      </trkpt>
      <trkpt lat="46.56929" lon="0.64864">
        <ele>88.585787513293</ele>
        <time>2021-11-17T11:14:07Z</time>
      </trkpt>
      <trkpt lat="46.56931" lon="0.64864">
        <ele>89.217441530898</ele>
        <time>2021-11-17T11:14:10Z</time>
      </trkpt>
      <trkpt lat="46.56934" lon="0.64863">
        <ele>89.915731916204</ele>
        <time>2021-11-17T11:14:13Z</time>
      </trkpt>
      <trkpt lat="46.56935" lon="0.64863">
        <ele>90.570620184764</ele>
        <time>2021-11-17T11:14:18Z</time>
      </trkpt>
      <trkpt lat="46.56937" lon="0.64865">
        <ele>91.1744312644</ele>
        <time>2021-11-17T11:14:29Z</time>
      </trkpt>
      <trkpt lat="46.56936" lon="0.64868">
        <ele>91.582793614827</ele>
        <time>2021-11-17T11:14:32Z</time>
      </trkpt>
      <trkpt lat="46.56936" lon="0.64871">
        <ele>91.702039715834</ele>
        <time>2021-11-17T11:14:35Z</time>
      </trkpt>
      <trkpt lat="46.56936" lon="0.64874">
        <ele>91.631713173352</ele>
        <time>2021-11-17T11:14:38Z</time>
      </trkpt>
      <trkpt lat="46.56936" lon="0.64877">
        <ele>91.822094638832</ele>
        <time>2021-11-17T11:14:41Z</time>
      </trkpt>
      <trkpt lat="46.56936" lon="0.6488">
        <ele>91.8043102948</ele>
        <time>2021-11-17T11:14:44Z</time>
      </trkpt>
      <trkpt lat="46.56937" lon="0.64884">
        <ele>92.087945720181</ele>
        <time>2021-11-17T11:14:46Z</time>
      </trkpt>
      <trkpt lat="46.56936" lon="0.64887">
        <ele>92.058892470784</ele>
        <time>2021-11-17T11:14:49Z</time>
      </trkpt>
      <trkpt lat="46.56936" lon="0.6489">
        <ele>92.195985272527</ele>
        <time>2021-11-17T11:14:51Z</time>
      </trkpt>
      <trkpt lat="46.56936" lon="0.64893">
        <ele>92.147525633685</ele>
        <time>2021-11-17T11:14:54Z</time>
      </trkpt>
      <trkpt lat="46.56937" lon="0.64896">
        <ele>92.028352818452</ele>
        <time>2021-11-17T11:14:56Z</time>
      </trkpt>
      <trkpt lat="46.56938" lon="0.64899">
        <ele>91.808360197581</ele>
        <time>2021-11-17T11:14:59Z</time>
      </trkpt>
      <trkpt lat="46.56939" lon="0.64902">
        <ele>91.589054003358</ele>
        <time>2021-11-17T11:15:02Z</time>
      </trkpt>
      <trkpt lat="46.56939" lon="0.64906">
        <ele>91.221425054595</ele>
        <time>2021-11-17T11:15:05Z</time>
      </trkpt>
      <trkpt lat="46.5694" lon="0.6491">
        <ele>90.847214321606</ele>
        <time>2021-11-17T11:15:07Z</time>
      </trkpt>
      <trkpt lat="46.56941" lon="0.64913">
        <ele>90.424936972558</ele>
        <time>2021-11-17T11:15:10Z</time>
      </trkpt>
      <trkpt lat="46.56942" lon="0.64914">
        <ele>90.126680867746</ele>
        <time>2021-11-17T11:15:12Z</time>
      </trkpt>
      <trkpt lat="46.56942" lon="0.64917">
        <ele>89.582731277682</ele>
        <time>2021-11-17T11:15:15Z</time>
      </trkpt>
      <trkpt lat="46.56943" lon="0.6492">
        <ele>89.429737351835</ele>
        <time>2021-11-17T11:15:18Z</time>
      </trkpt>
      <trkpt lat="46.56944" lon="0.64922">
        <ele>88.720873742364</ele>
        <time>2021-11-17T11:15:21Z</time>
      </trkpt>
      <trkpt lat="46.56945" lon="0.64927">
        <ele>88.190814143047</ele>
        <time>2021-11-17T11:15:25Z</time>
      </trkpt>
      <trkpt lat="46.56943" lon="0.6493">
        <ele>86.51139474567</ele>
        <time>2021-11-17T11:15:48Z</time>
      </trkpt>
      <trkpt lat="46.56945" lon="0.64929">
        <ele>86.128684288822</ele>
        <time>2021-11-17T11:15:52Z</time>
      </trkpt>
      <trkpt lat="46.56948" lon="0.64928">
        <ele>86.254462502897</ele>
        <time>2021-11-17T11:15:55Z</time>
      </trkpt>
      <trkpt lat="46.56951" lon="0.64925">
        <ele>86.584381668828</ele>
        <time>2021-11-17T11:15:57Z</time>
      </trkpt>
      <trkpt lat="46.56953" lon="0.64922">
        <ele>86.897142973728</ele>
        <time>2021-11-17T11:15:59Z</time>
      </trkpt>
      <trkpt lat="46.56953" lon="0.64919">
        <ele>87.766637009569</ele>
        <time>2021-11-17T11:16:02Z</time>
      </trkpt>
      <trkpt lat="46.56954" lon="0.64916">
        <ele>88.296946700662</ele>
        <time>2021-11-17T11:16:04Z</time>
      </trkpt>
      <trkpt lat="46.56954" lon="0.64912">
        <ele>89.161640412174</ele>
        <time>2021-11-17T11:16:07Z</time>
      </trkpt>
      <trkpt lat="46.56955" lon="0.6491">
        <ele>89.766837948933</ele>
        <time>2021-11-17T11:16:09Z</time>
      </trkpt>
      <trkpt lat="46.56955" lon="0.64906">
        <ele>90.474909231998</ele>
        <time>2021-11-17T11:16:12Z</time>
      </trkpt>
      <trkpt lat="46.56956" lon="0.64903">
        <ele>90.889036661945</ele>
        <time>2021-11-17T11:16:15Z</time>
      </trkpt>
      <trkpt lat="46.56956" lon="0.649">
        <ele>91.559511107393</ele>
        <time>2021-11-17T11:16:17Z</time>
      </trkpt>
      <trkpt lat="46.56954" lon="0.64896">
        <ele>92.287686136551</ele>
        <time>2021-11-17T11:16:20Z</time>
      </trkpt>
      <trkpt lat="46.56954" lon="0.64893">
        <ele>92.771483047865</ele>
        <time>2021-11-17T11:16:22Z</time>
      </trkpt>
      <trkpt lat="46.56953" lon="0.6489">
        <ele>93.39643630106</ele>
        <time>2021-11-17T11:16:25Z</time>
      </trkpt>
      <trkpt lat="46.56953" lon="0.64887">
        <ele>94.160641611554</ele>
        <time>2021-11-17T11:16:30Z</time>
      </trkpt>
      <trkpt lat="46.5695" lon="0.64886">
        <ele>94.198979094625</ele>
        <time>2021-11-17T11:16:33Z</time>
      </trkpt>
      <trkpt lat="46.56949" lon="0.64884">
        <ele>94.220907303505</ele>
        <time>2021-11-17T11:16:35Z</time>
      </trkpt>
      <trkpt lat="46.56947" lon="0.64882">
        <ele>94.053191011772</ele>
        <time>2021-11-17T11:16:38Z</time>
      </trkpt>
      <trkpt lat="46.56946" lon="0.6488">
        <ele>93.856269490905</ele>
        <time>2021-11-17T11:16:40Z</time>
      </trkpt>
      <trkpt lat="46.56945" lon="0.64876">
        <ele>93.285256337374</ele>
        <time>2021-11-17T11:16:51Z</time>
      </trkpt>
      <trkpt lat="46.56945" lon="0.64873">
        <ele>92.989805057645</ele>
        <time>2021-11-17T11:16:53Z</time>
      </trkpt>
      <trkpt lat="46.56945" lon="0.6487">
        <ele>92.671437506564</ele>
        <time>2021-11-17T11:16:55Z</time>
      </trkpt>
      <trkpt lat="46.56946" lon="0.64868">
        <ele>92.62161854282</ele>
        <time>2021-11-17T11:16:56Z</time>
      </trkpt>
      <trkpt lat="46.56948" lon="0.64866">
        <ele>93.078636060469</ele>
        <time>2021-11-17T11:16:58Z</time>
      </trkpt>
      <trkpt lat="46.56949" lon="0.64864">
        <ele>92.662135289051</ele>
        <time>2021-11-17T11:17:00Z</time>
      </trkpt>
      <trkpt lat="46.56951" lon="0.64862">
        <ele>93.487587764859</ele>
        <time>2021-11-17T11:17:02Z</time>
      </trkpt>
      <trkpt lat="46.56953" lon="0.6486">
        <ele>93.831463240087</ele>
        <time>2021-11-17T11:17:05Z</time>
      </trkpt>
      <trkpt lat="46.56955" lon="0.6486">
        <ele>93.805442685261</ele>
        <time>2021-11-17T11:17:07Z</time>
      </trkpt>
      <trkpt lat="46.56957" lon="0.64859">
        <ele>94.134530152194</ele>
        <time>2021-11-17T11:17:09Z</time>
      </trkpt>
      <trkpt lat="46.56959" lon="0.64857">
        <ele>94.405829831958</ele>
        <time>2021-11-17T11:17:12Z</time>
      </trkpt>
      <trkpt lat="46.56962" lon="0.64854">
        <ele>94.427336980589</ele>
        <time>2021-11-17T11:17:15Z</time>
      </trkpt>
      <trkpt lat="46.56964" lon="0.64852">
        <ele>94.701839303598</ele>
        <time>2021-11-17T11:17:19Z</time>
      </trkpt>
      <trkpt lat="46.56966" lon="0.6485">
        <ele>95.330767910928</ele>
        <time>2021-11-17T11:17:22Z</time>
      </trkpt>
      <trkpt lat="46.56968" lon="0.64848">
        <ele>95.217271620408</ele>
        <time>2021-11-17T11:17:24Z</time>
      </trkpt>
      <trkpt lat="46.5697" lon="0.64846">
        <ele>95.674710562453</ele>
        <time>2021-11-17T11:17:26Z</time>
      </trkpt>
      <trkpt lat="46.56972" lon="0.64845">
        <ele>95.671729533002</ele>
        <time>2021-11-17T11:17:28Z</time>
      </trkpt>
      <trkpt lat="46.56975" lon="0.64843">
        <ele>96.125093767419</ele>
        <time>2021-11-17T11:17:30Z</time>
      </trkpt>
      <trkpt lat="46.56977" lon="0.64842">
        <ele>96.355005021207</ele>
        <time>2021-11-17T11:17:32Z</time>
      </trkpt>
      <trkpt lat="46.56978" lon="0.6484">
        <ele>96.559818496928</ele>
        <time>2021-11-17T11:17:34Z</time>
      </trkpt>
      <trkpt lat="46.5698" lon="0.64837">
        <ele>96.825855325907</ele>
        <time>2021-11-17T11:17:36Z</time>
      </trkpt>
      <trkpt lat="46.56982" lon="0.64836">
        <ele>96.989281743765</ele>
        <time>2021-11-17T11:17:38Z</time>
      </trkpt>
      <trkpt lat="46.56984" lon="0.64835">
        <ele>97.257137881592</ele>
        <time>2021-11-17T11:17:40Z</time>
      </trkpt>
      <trkpt lat="46.56986" lon="0.64833">
        <ele>97.239877481945</ele>
        <time>2021-11-17T11:17:42Z</time>
      </trkpt>
      <trkpt lat="46.56988" lon="0.64831">
        <ele>97.660973952152</ele>
        <time>2021-11-17T11:17:45Z</time>
      </trkpt>
      <trkpt lat="46.5699" lon="0.64828">
        <ele>97.97829611972</ele>
        <time>2021-11-17T11:17:48Z</time>
      </trkpt>
      <trkpt lat="46.56991" lon="0.64826">
        <ele>97.831063721329</ele>
        <time>2021-11-17T11:17:50Z</time>
      </trkpt>
      <trkpt lat="46.56993" lon="0.64825">
        <ele>97.684935604222</ele>
        <time>2021-11-17T11:17:52Z</time>
      </trkpt>
      <trkpt lat="46.56995" lon="0.64823">
        <ele>98.089663970284</ele>
        <time>2021-11-17T11:17:54Z</time>
      </trkpt>
      <trkpt lat="46.56996" lon="0.64821">
        <ele>98.442881321535</ele>
        <time>2021-11-17T11:17:57Z</time>
      </trkpt>
      <trkpt lat="46.56998" lon="0.64819">
        <ele>98.458908263594</ele>
        <time>2021-11-17T11:18:00Z</time>
      </trkpt>
      <trkpt lat="46.57" lon="0.64817">
        <ele>98.315526883118</ele>
        <time>2021-11-17T11:18:03Z</time>
      </trkpt>
      <trkpt lat="46.57001" lon="0.64816">
        <ele>98.590515939519</ele>
        <time>2021-11-17T11:18:05Z</time>
      </trkpt>
      <trkpt lat="46.57004" lon="0.64816">
        <ele>98.497315219603</ele>
        <time>2021-11-17T11:18:08Z</time>
      </trkpt>
      <trkpt lat="46.57007" lon="0.64815">
        <ele>99.259106590413</ele>
        <time>2021-11-17T11:18:11Z</time>
      </trkpt>
      <trkpt lat="46.57008" lon="0.64814">
        <ele>99.265342867002</ele>
        <time>2021-11-17T11:18:13Z</time>
      </trkpt>
      <trkpt lat="46.5701" lon="0.64813">
        <ele>99.986440316774</ele>
        <time>2021-11-17T11:18:15Z</time>
      </trkpt>
      <trkpt lat="46.57011" lon="0.64811">
        <ele>100.03377432562</ele>
        <time>2021-11-17T11:18:17Z</time>
      </trkpt>
      <trkpt lat="46.57013" lon="0.6481">
        <ele>99.937162887305</ele>
        <time>2021-11-17T11:18:20Z</time>
      </trkpt>
      <trkpt lat="46.57016" lon="0.64808">
        <ele>100.22880951036</ele>
        <time>2021-11-17T11:18:21Z</time>
      </trkpt>
      <trkpt lat="46.57018" lon="0.64806">
        <ele>100.31130656786</ele>
        <time>2021-11-17T11:18:23Z</time>
      </trkpt>
      <trkpt lat="46.5702" lon="0.64805">
        <ele>100.71465530153</ele>
        <time>2021-11-17T11:18:25Z</time>
      </trkpt>
      <trkpt lat="46.57022" lon="0.64803">
        <ele>100.41574665438</ele>
        <time>2021-11-17T11:18:27Z</time>
      </trkpt>
      <trkpt lat="46.57024" lon="0.64802">
        <ele>100.75865824707</ele>
        <time>2021-11-17T11:18:29Z</time>
      </trkpt>
      <trkpt lat="46.57027" lon="0.64801">
        <ele>101.19892029557</ele>
        <time>2021-11-17T11:18:31Z</time>
      </trkpt>
      <trkpt lat="46.57029" lon="0.64799">
        <ele>101.40198546555</ele>
        <time>2021-11-17T11:18:33Z</time>
      </trkpt>
      <trkpt lat="46.57031" lon="0.64799">
        <ele>101.92529269494</ele>
        <time>2021-11-17T11:18:35Z</time>
      </trkpt>
      <trkpt lat="46.57032" lon="0.64796">
        <ele>102.0865086047</ele>
        <time>2021-11-17T11:18:38Z</time>
      </trkpt>
      <trkpt lat="46.57034" lon="0.64794">
        <ele>102.25734643172</ele>
        <time>2021-11-17T11:18:40Z</time>
      </trkpt>
      <trkpt lat="46.57036" lon="0.64792">
        <ele>102.1663371278</ele>
        <time>2021-11-17T11:18:42Z</time>
      </trkpt>
      <trkpt lat="46.57038" lon="0.6479">
        <ele>102.46141838375</ele>
        <time>2021-11-17T11:18:44Z</time>
      </trkpt>
      <trkpt lat="46.5704" lon="0.64788">
        <ele>102.3481960278</ele>
        <time>2021-11-17T11:18:47Z</time>
      </trkpt>
      <trkpt lat="46.57041" lon="0.64785">
        <ele>102.43700890616</ele>
        <time>2021-11-17T11:18:49Z</time>
      </trkpt>
      <trkpt lat="46.57043" lon="0.64783">
        <ele>102.31648280844</ele>
        <time>2021-11-17T11:18:52Z</time>
      </trkpt>
      <trkpt lat="46.57045" lon="0.64782">
        <ele>102.50770845264</ele>
        <time>2021-11-17T11:18:54Z</time>
      </trkpt>
      <trkpt lat="46.57048" lon="0.64783">
        <ele>102.54134179093</ele>
        <time>2021-11-17T11:18:56Z</time>
      </trkpt>
      <trkpt lat="46.5705" lon="0.64783">
        <ele>102.92199836485</ele>
        <time>2021-11-17T11:18:58Z</time>
      </trkpt>
      <trkpt lat="46.57053" lon="0.64783">
        <ele>103.16607484967</ele>
        <time>2021-11-17T11:19:00Z</time>
      </trkpt>
      <trkpt lat="46.57055" lon="0.64783">
        <ele>103.45364236739</ele>
        <time>2021-11-17T11:19:02Z</time>
      </trkpt>
      <trkpt lat="46.57057" lon="0.64782">
        <ele>103.65447974391</ele>
        <time>2021-11-17T11:19:04Z</time>
      </trkpt>
      <trkpt lat="46.57059" lon="0.64779">
        <ele>104.38987816684</ele>
        <time>2021-11-17T11:19:07Z</time>
      </trkpt>
      <trkpt lat="46.57061" lon="0.64778">
        <ele>104.48233541008</ele>
        <time>2021-11-17T11:19:09Z</time>
      </trkpt>
      <trkpt lat="46.57062" lon="0.64776">
        <ele>104.19656422921</ele>
        <time>2021-11-17T11:19:11Z</time>
      </trkpt>
      <trkpt lat="46.57065" lon="0.64775">
        <ele>104.81972443499</ele>
        <time>2021-11-17T11:19:13Z</time>
      </trkpt>
      <trkpt lat="46.57067" lon="0.64773">
        <ele>104.61840493605</ele>
        <time>2021-11-17T11:19:16Z</time>
      </trkpt>
      <trkpt lat="46.57069" lon="0.64772">
        <ele>105.00908418559</ele>
        <time>2021-11-17T11:19:19Z</time>
      </trkpt>
      <trkpt lat="46.57071" lon="0.6477">
        <ele>105.17582368758</ele>
        <time>2021-11-17T11:19:21Z</time>
      </trkpt>
      <trkpt lat="46.57073" lon="0.6477">
        <ele>104.99596541561</ele>
        <time>2021-11-17T11:19:23Z</time>
      </trkpt>
      <trkpt lat="46.57075" lon="0.64769">
        <ele>105.36501965951</ele>
        <time>2021-11-17T11:19:27Z</time>
      </trkpt>
      <trkpt lat="46.57077" lon="0.64769">
        <ele>105.36556183547</ele>
        <time>2021-11-17T11:19:29Z</time>
      </trkpt>
      <trkpt lat="46.57079" lon="0.6477">
        <ele>105.77648898493</ele>
        <time>2021-11-17T11:19:32Z</time>
      </trkpt>
      <trkpt lat="46.57081" lon="0.64771">
        <ele>106.14592111856</ele>
        <time>2021-11-17T11:19:35Z</time>
      </trkpt>
      <trkpt lat="46.57084" lon="0.64771">
        <ele>106.5262973085</ele>
        <time>2021-11-17T11:19:38Z</time>
      </trkpt>
      <trkpt lat="46.57086" lon="0.64769">
        <ele>106.85090141278</ele>
        <time>2021-11-17T11:19:40Z</time>
      </trkpt>
      <trkpt lat="46.57088" lon="0.64767">
        <ele>106.66870733909</ele>
        <time>2021-11-17T11:19:42Z</time>
      </trkpt>
      <trkpt lat="46.57089" lon="0.64765">
        <ele>106.79403274879</ele>
        <time>2021-11-17T11:19:44Z</time>
      </trkpt>
      <trkpt lat="46.5709" lon="0.64763">
        <ele>106.7362791514</ele>
        <time>2021-11-17T11:19:46Z</time>
      </trkpt>
      <trkpt lat="46.57089" lon="0.6476">
        <ele>106.34928117972</ele>
        <time>2021-11-17T11:19:48Z</time>
      </trkpt>
      <trkpt lat="46.57089" lon="0.64757">
        <ele>105.91001574881</ele>
        <time>2021-11-17T11:19:51Z</time>
      </trkpt>
      <trkpt lat="46.57088" lon="0.64753">
        <ele>105.35386593081</ele>
        <time>2021-11-17T11:19:54Z</time>
      </trkpt>
      <trkpt lat="46.57087" lon="0.6475">
        <ele>105.03835025802</ele>
        <time>2021-11-17T11:19:56Z</time>
      </trkpt>
      <trkpt lat="46.57087" lon="0.64747">
        <ele>104.73168851156</ele>
        <time>2021-11-17T11:19:58Z</time>
      </trkpt>
      <trkpt lat="46.57089" lon="0.64744">
        <ele>104.08324849419</ele>
        <time>2021-11-17T11:20:01Z</time>
      </trkpt>
      <trkpt lat="46.57091" lon="0.64741">
        <ele>103.84166756086</ele>
        <time>2021-11-17T11:20:03Z</time>
      </trkpt>
      <trkpt lat="46.57092" lon="0.64739">
        <ele>103.25725379214</ele>
        <time>2021-11-17T11:20:05Z</time>
      </trkpt>
      <trkpt lat="46.57093" lon="0.64735">
        <ele>103.60561595391</ele>
        <time>2021-11-17T11:20:07Z</time>
      </trkpt>
      <trkpt lat="46.57094" lon="0.64732">
        <ele>103.06985478755</ele>
        <time>2021-11-17T11:20:09Z</time>
      </trkpt>
      <trkpt lat="46.57095" lon="0.64729">
        <ele>102.76748233009</ele>
        <time>2021-11-17T11:20:11Z</time>
      </trkpt>
      <trkpt lat="46.57096" lon="0.64726">
        <ele>102.47803301271</ele>
        <time>2021-11-17T11:20:13Z</time>
      </trkpt>
      <trkpt lat="46.57097" lon="0.64723">
        <ele>102.32813709136</ele>
        <time>2021-11-17T11:20:15Z</time>
      </trkpt>
      <trkpt lat="46.57098" lon="0.6472">
        <ele>102.13898558449</ele>
        <time>2021-11-17T11:20:17Z</time>
      </trkpt>
      <trkpt lat="46.57099" lon="0.64717">
        <ele>101.32107139844</ele>
        <time>2021-11-17T11:20:20Z</time>
      </trkpt>
      <trkpt lat="46.571" lon="0.64713">
        <ele>101.27207521349</ele>
        <time>2021-11-17T11:20:22Z</time>
      </trkpt>
      <trkpt lat="46.571" lon="0.6471">
        <ele>100.81630971842</ele>
        <time>2021-11-17T11:20:24Z</time>
      </trkpt>
      <trkpt lat="46.57101" lon="0.64708">
        <ele>100.72871958837</ele>
        <time>2021-11-17T11:20:26Z</time>
      </trkpt>
      <trkpt lat="46.57102" lon="0.64706">
        <ele>100.34030063264</ele>
        <time>2021-11-17T11:20:28Z</time>
      </trkpt>
      <trkpt lat="46.57103" lon="0.64702">
        <ele>99.807263006456</ele>
        <time>2021-11-17T11:20:30Z</time>
      </trkpt>
      <trkpt lat="46.57104" lon="0.64698">
        <ele>99.836975409649</ele>
        <time>2021-11-17T11:20:32Z</time>
      </trkpt>
      <trkpt lat="46.57104" lon="0.64695">
        <ele>99.106374939904</ele>
        <time>2021-11-17T11:20:34Z</time>
      </trkpt>
      <trkpt lat="46.57105" lon="0.64692">
        <ele>98.682839201763</ele>
        <time>2021-11-17T11:20:36Z</time>
      </trkpt>
      <trkpt lat="46.57106" lon="0.64689">
        <ele>98.641480879858</ele>
        <time>2021-11-17T11:20:38Z</time>
      </trkpt>
      <trkpt lat="46.57108" lon="0.64687">
        <ele>97.794199865311</ele>
        <time>2021-11-17T11:20:40Z</time>
      </trkpt>
      <trkpt lat="46.57108" lon="0.64684">
        <ele>97.634752166457</ele>
        <time>2021-11-17T11:20:42Z</time>
      </trkpt>
      <trkpt lat="46.57109" lon="0.6468">
        <ele>96.948614672758</ele>
        <time>2021-11-17T11:20:44Z</time>
      </trkpt>
      <trkpt lat="46.57109" lon="0.64676">
        <ele>96.536422287114</ele>
        <time>2021-11-17T11:20:46Z</time>
      </trkpt>
      <trkpt lat="46.5711" lon="0.64673">
        <ele>96.136305581778</ele>
        <time>2021-11-17T11:20:48Z</time>
      </trkpt>
      <trkpt lat="46.5711" lon="0.6467">
        <ele>95.40300625097</ele>
        <time>2021-11-17T11:20:51Z</time>
      </trkpt>
      <trkpt lat="46.57112" lon="0.64667">
        <ele>95.047997674905</ele>
        <time>2021-11-17T11:20:52Z</time>
      </trkpt>
      <trkpt lat="46.57113" lon="0.64663">
        <ele>94.464596597478</ele>
        <time>2021-11-17T11:20:55Z</time>
      </trkpt>
      <trkpt lat="46.57114" lon="0.64661">
        <ele>93.692663843744</ele>
        <time>2021-11-17T11:20:57Z</time>
      </trkpt>
      <trkpt lat="46.57115" lon="0.64657">
        <ele>93.625939444639</ele>
        <time>2021-11-17T11:20:59Z</time>
      </trkpt>
      <trkpt lat="46.57115" lon="0.64654">
        <ele>93.04189006798</ele>
        <time>2021-11-17T11:21:01Z</time>
      </trkpt>
      <trkpt lat="46.57115" lon="0.64649">
        <ele>92.492433419451</ele>
        <time>2021-11-17T11:21:03Z</time>
      </trkpt>
      <trkpt lat="46.57115" lon="0.64647">
        <ele>92.2552058734</ele>
        <time>2021-11-17T11:21:05Z</time>
      </trkpt>
      <trkpt lat="46.57116" lon="0.64644">
        <ele>91.36023760587</ele>
        <time>2021-11-17T11:21:07Z</time>
      </trkpt>
      <trkpt lat="46.57117" lon="0.64639">
        <ele>90.446387505159</ele>
        <time>2021-11-17T11:21:10Z</time>
      </trkpt>
      <trkpt lat="46.57118" lon="0.64637">
        <ele>90.095221620053</ele>
        <time>2021-11-17T11:21:12Z</time>
      </trkpt>
      <trkpt lat="46.57119" lon="0.64633">
        <ele>89.509695417248</ele>
        <time>2021-11-17T11:21:14Z</time>
      </trkpt>
      <trkpt lat="46.5712" lon="0.6463">
        <ele>89.162948503159</ele>
        <time>2021-11-17T11:21:16Z</time>
      </trkpt>
      <trkpt lat="46.57122" lon="0.64628">
        <ele>88.897329852916</ele>
        <time>2021-11-17T11:21:18Z</time>
      </trkpt>
      <trkpt lat="46.57123" lon="0.64625">
        <ele>88.636555233039</ele>
        <time>2021-11-17T11:21:20Z</time>
      </trkpt>
      <trkpt lat="46.57124" lon="0.64621">
        <ele>88.33120439481</ele>
        <time>2021-11-17T11:21:22Z</time>
      </trkpt>
      <trkpt lat="46.57126" lon="0.64617">
        <ele>88.013298125938</ele>
        <time>2021-11-17T11:21:25Z</time>
      </trkpt>
      <trkpt lat="46.57127" lon="0.64614">
        <ele>87.663886844181</ele>
        <time>2021-11-17T11:21:27Z</time>
      </trkpt>
      <trkpt lat="46.57128" lon="0.64611">
        <ele>87.400048126467</ele>
        <time>2021-11-17T11:21:29Z</time>
      </trkpt>
      <trkpt lat="46.57129" lon="0.64608">
        <ele>87.297094094567</ele>
        <time>2021-11-17T11:21:31Z</time>
      </trkpt>
      <trkpt lat="46.5713" lon="0.64605">
        <ele>86.97620124463</ele>
        <time>2021-11-17T11:21:33Z</time>
      </trkpt>
      <trkpt lat="46.57131" lon="0.64602">
        <ele>86.663766786456</ele>
        <time>2021-11-17T11:21:35Z</time>
      </trkpt>
      <trkpt lat="46.57132" lon="0.64599">
        <ele>86.200447555631</ele>
        <time>2021-11-17T11:21:37Z</time>
      </trkpt>
      <trkpt lat="46.57133" lon="0.64596">
        <ele>85.831022470258</ele>
        <time>2021-11-17T11:21:39Z</time>
      </trkpt>
      <trkpt lat="46.57134" lon="0.64593">
        <ele>85.71189607773</ele>
        <time>2021-11-17T11:21:41Z</time>
      </trkpt>
      <trkpt lat="46.57135" lon="0.64591">
        <ele>85.37512811739</ele>
        <time>2021-11-17T11:21:43Z</time>
      </trkpt>
      <trkpt lat="46.57137" lon="0.64588">
        <ele>85.636138774455</ele>
        <time>2021-11-17T11:21:45Z</time>
      </trkpt>
      <trkpt lat="46.57138" lon="0.64583">
        <ele>84.800205958076</ele>
        <time>2021-11-17T11:21:47Z</time>
      </trkpt>
      <trkpt lat="46.57139" lon="0.6458">
        <ele>84.750167075545</ele>
        <time>2021-11-17T11:21:49Z</time>
      </trkpt>
      <trkpt lat="46.5714" lon="0.64578">
        <ele>84.730101496913</ele>
        <time>2021-11-17T11:21:51Z</time>
      </trkpt>
      <trkpt lat="46.57141" lon="0.64576">
        <ele>84.213187308051</ele>
        <time>2021-11-17T11:21:53Z</time>
      </trkpt>
      <trkpt lat="46.57142" lon="0.64572">
        <ele>83.942382459529</ele>
        <time>2021-11-17T11:21:55Z</time>
      </trkpt>
      <trkpt lat="46.57142" lon="0.64569">
        <ele>83.815647008829</ele>
        <time>2021-11-17T11:21:57Z</time>
      </trkpt>
      <trkpt lat="46.57143" lon="0.64566">
        <ele>83.54406318441</ele>
        <time>2021-11-17T11:21:59Z</time>
      </trkpt>
      <trkpt lat="46.57145" lon="0.64564">
        <ele>83.303671743721</ele>
        <time>2021-11-17T11:22:01Z</time>
      </trkpt>
      <trkpt lat="46.57146" lon="0.6456">
        <ele>82.636053468101</ele>
        <time>2021-11-17T11:22:04Z</time>
      </trkpt>
      <trkpt lat="46.57146" lon="0.64557">
        <ele>82.404646364041</ele>
        <time>2021-11-17T11:22:06Z</time>
      </trkpt>
      <trkpt lat="46.57148" lon="0.64554">
        <ele>82.348054414615</ele>
        <time>2021-11-17T11:22:08Z</time>
      </trkpt>
      <trkpt lat="46.57149" lon="0.64552">
        <ele>81.639147159643</ele>
        <time>2021-11-17T11:22:10Z</time>
      </trkpt>
      <trkpt lat="46.57149" lon="0.64549">
        <ele>81.454972439446</ele>
        <time>2021-11-17T11:22:13Z</time>
      </trkpt>
      <trkpt lat="46.5715" lon="0.64546">
        <ele>81.057769585401</ele>
        <time>2021-11-17T11:22:16Z</time>
      </trkpt>
      <trkpt lat="46.57151" lon="0.64544">
        <ele>81.279873860069</ele>
        <time>2021-11-17T11:22:18Z</time>
      </trkpt>
      <trkpt lat="46.57153" lon="0.64541">
        <ele>80.683633475564</ele>
        <time>2021-11-17T11:22:22Z</time>
      </trkpt>
      <trkpt lat="46.57154" lon="0.64538">
        <ele>80.412785620429</ele>
        <time>2021-11-17T11:22:25Z</time>
      </trkpt>
      <trkpt lat="46.57154" lon="0.64535">
        <ele>80.394851821475</ele>
        <time>2021-11-17T11:22:27Z</time>
      </trkpt>
      <trkpt lat="46.57155" lon="0.64532">
        <ele>80.093640447594</ele>
        <time>2021-11-17T11:22:30Z</time>
      </trkpt>
      <trkpt lat="46.57157" lon="0.6453">
        <ele>79.883370633237</ele>
        <time>2021-11-17T11:22:32Z</time>
      </trkpt>
      <trkpt lat="46.57157" lon="0.64526">
        <ele>79.455430739559</ele>
        <time>2021-11-17T11:22:34Z</time>
      </trkpt>
      <trkpt lat="46.57158" lon="0.64523">
        <ele>79.547192370519</ele>
        <time>2021-11-17T11:22:36Z</time>
      </trkpt>
      <trkpt lat="46.57159" lon="0.64521">
        <ele>78.760942411609</ele>
        <time>2021-11-17T11:22:39Z</time>
      </trkpt>
      <trkpt lat="46.5716" lon="0.64518">
        <ele>78.407417772338</ele>
        <time>2021-11-17T11:22:42Z</time>
      </trkpt>
      <trkpt lat="46.57162" lon="0.64517">
        <ele>78.687062224373</ele>
        <time>2021-11-17T11:22:45Z</time>
      </trkpt>
      <trkpt lat="46.57163" lon="0.64513">
        <ele>78.520569670945</ele>
        <time>2021-11-17T11:22:48Z</time>
      </trkpt>
      <trkpt lat="46.57164" lon="0.6451">
        <ele>78.637124476023</ele>
        <time>2021-11-17T11:22:50Z</time>
      </trkpt>
      <trkpt lat="46.57167" lon="0.64508">
        <ele>78.334731382318</ele>
        <time>2021-11-17T11:22:53Z</time>
      </trkpt>
      <trkpt lat="46.57169" lon="0.64506">
        <ele>78.451568139717</ele>
        <time>2021-11-17T11:22:55Z</time>
      </trkpt>
      <trkpt lat="46.5717" lon="0.64503">
        <ele>78.565410247073</ele>
        <time>2021-11-17T11:22:57Z</time>
      </trkpt>
      <trkpt lat="46.57171" lon="0.64498">
        <ele>78.436320911162</ele>
        <time>2021-11-17T11:22:59Z</time>
      </trkpt>
      <trkpt lat="46.57172" lon="0.64496">
        <ele>78.138613323681</ele>
        <time>2021-11-17T11:23:01Z</time>
      </trkpt>
      <trkpt lat="46.57175" lon="0.64494">
        <ele>78.447707751766</ele>
        <time>2021-11-17T11:23:03Z</time>
      </trkpt>
      <trkpt lat="46.57177" lon="0.64491">
        <ele>78.382285296917</ele>
        <time>2021-11-17T11:23:05Z</time>
      </trkpt>
      <trkpt lat="46.57179" lon="0.64488">
        <ele>78.566383137368</ele>
        <time>2021-11-17T11:23:07Z</time>
      </trkpt>
      <trkpt lat="46.57179" lon="0.64483">
        <ele>77.798023663461</ele>
        <time>2021-11-17T11:23:09Z</time>
      </trkpt>
      <trkpt lat="46.57179" lon="0.6448">
        <ele>77.806604735553</ele>
        <time>2021-11-17T11:23:10Z</time>
      </trkpt>
      <trkpt lat="46.57179" lon="0.64476">
        <ele>78.183539867401</ele>
        <time>2021-11-17T11:23:11Z</time>
      </trkpt>
      <trkpt lat="46.5718" lon="0.64473">
        <ele>77.793608348817</ele>
        <time>2021-11-17T11:23:13Z</time>
      </trkpt>
      <trkpt lat="46.57179" lon="0.6447">
        <ele>77.467834632844</ele>
        <time>2021-11-17T11:23:14Z</time>
      </trkpt>
      <trkpt lat="46.57179" lon="0.64467">
        <ele>77.256483713165</ele>
        <time>2021-11-17T11:23:15Z</time>
      </trkpt>
      <trkpt lat="46.57179" lon="0.64461">
        <ele>76.453201210126</ele>
        <time>2021-11-17T11:23:17Z</time>
      </trkpt>
      <trkpt lat="46.57179" lon="0.64458">
        <ele>75.531036883593</ele>
        <time>2021-11-17T11:23:19Z</time>
      </trkpt>
      <trkpt lat="46.57181" lon="0.64456">
        <ele>74.768343225121</ele>
        <time>2021-11-17T11:23:21Z</time>
      </trkpt>
      <trkpt lat="46.57183" lon="0.64454">
        <ele>74.557275358588</ele>
        <time>2021-11-17T11:23:23Z</time>
      </trkpt>
      <trkpt lat="46.57185" lon="0.64452">
        <ele>74.365879499353</ele>
        <time>2021-11-17T11:23:25Z</time>
      </trkpt>
      <trkpt lat="46.57187" lon="0.6445">
        <ele>74.29642226547</ele>
        <time>2021-11-17T11:23:27Z</time>
      </trkpt>
      <trkpt lat="46.57189" lon="0.64449">
        <ele>74.16834931355</ele>
        <time>2021-11-17T11:23:29Z</time>
      </trkpt>
      <trkpt lat="46.5719" lon="0.64446">
        <ele>73.992160033435</ele>
        <time>2021-11-17T11:23:31Z</time>
      </trkpt>
      <trkpt lat="46.57192" lon="0.64444">
        <ele>73.795380648226</ele>
        <time>2021-11-17T11:23:33Z</time>
      </trkpt>
      <trkpt lat="46.57193" lon="0.64442">
        <ele>73.457308826968</ele>
        <time>2021-11-17T11:23:35Z</time>
      </trkpt>
      <trkpt lat="46.57195" lon="0.6444">
        <ele>73.666353286244</ele>
        <time>2021-11-17T11:23:37Z</time>
      </trkpt>
      <trkpt lat="46.57197" lon="0.64437">
        <ele>73.688657506369</ele>
        <time>2021-11-17T11:23:39Z</time>
      </trkpt>
      <trkpt lat="46.57199" lon="0.64435">
        <ele>73.653710014187</ele>
        <time>2021-11-17T11:23:41Z</time>
      </trkpt>
      <trkpt lat="46.57201" lon="0.64433">
        <ele>73.793038951233</ele>
        <time>2021-11-17T11:23:43Z</time>
      </trkpt>
      <trkpt lat="46.57202" lon="0.6443">
        <ele>73.865759335458</ele>
        <time>2021-11-17T11:23:45Z</time>
      </trkpt>
      <trkpt lat="46.57204" lon="0.64427">
        <ele>74.086528172716</ele>
        <time>2021-11-17T11:23:47Z</time>
      </trkpt>
      <trkpt lat="46.57205" lon="0.64425">
        <ele>74.551643759012</ele>
        <time>2021-11-17T11:23:49Z</time>
      </trkpt>
      <trkpt lat="46.57207" lon="0.64423">
        <ele>74.312654491514</ele>
        <time>2021-11-17T11:23:51Z</time>
      </trkpt>
      <trkpt lat="46.57209" lon="0.6442">
        <ele>74.14374993369</ele>
        <time>2021-11-17T11:23:53Z</time>
      </trkpt>
      <trkpt lat="46.57211" lon="0.64417">
        <ele>74.457080248743</ele>
        <time>2021-11-17T11:23:55Z</time>
      </trkpt>
      <trkpt lat="46.57211" lon="0.64415">
        <ele>74.346927292645</ele>
        <time>2021-11-17T11:23:56Z</time>
      </trkpt>
      <trkpt lat="46.57213" lon="0.64411">
        <ele>74.886097959243</ele>
        <time>2021-11-17T11:23:59Z</time>
      </trkpt>
      <trkpt lat="46.57215" lon="0.64412">
        <ele>75.281943917274</ele>
        <time>2021-11-17T11:24:07Z</time>
      </trkpt>
      <trkpt lat="46.57217" lon="0.64413">
        <ele>75.671725704335</ele>
        <time>2021-11-17T11:24:10Z</time>
      </trkpt>
      <trkpt lat="46.57217" lon="0.64416">
        <ele>75.851326094009</ele>
        <time>2021-11-17T11:24:12Z</time>
      </trkpt>
      <trkpt lat="46.57218" lon="0.64419">
        <ele>76.325291937217</ele>
        <time>2021-11-17T11:24:15Z</time>
      </trkpt>
      <trkpt lat="46.5722" lon="0.6442">
        <ele>77.027988792397</ele>
        <time>2021-11-17T11:24:17Z</time>
      </trkpt>
      <trkpt lat="46.57222" lon="0.64423">
        <ele>77.879874897189</ele>
        <time>2021-11-17T11:24:20Z</time>
      </trkpt>
      <trkpt lat="46.57223" lon="0.64424">
        <ele>78.975761197507</ele>
        <time>2021-11-17T11:24:24Z</time>
      </trkpt>
      <trkpt lat="46.57224" lon="0.64427">
        <ele>80.185547240078</ele>
        <time>2021-11-17T11:24:30Z</time>
      </trkpt>
      <trkpt lat="46.57223" lon="0.6443">
        <ele>81.248027472757</ele>
        <time>2021-11-17T11:24:35Z</time>
      </trkpt>
      <trkpt lat="46.57222" lon="0.64432">
        <ele>81.62659726385</ele>
        <time>2021-11-17T11:24:38Z</time>
      </trkpt>
      <trkpt lat="46.5722" lon="0.64435">
        <ele>81.985973727889</ele>
        <time>2021-11-17T11:24:42Z</time>
      </trkpt>
      <trkpt lat="46.5722" lon="0.64438">
        <ele>82.000235239975</ele>
        <time>2021-11-17T11:24:46Z</time>
      </trkpt>
      <trkpt lat="46.57222" lon="0.6444">
        <ele>82.950642171316</ele>
        <time>2021-11-17T11:24:50Z</time>
      </trkpt>
      <trkpt lat="46.57223" lon="0.64443">
        <ele>83.646766810678</ele>
        <time>2021-11-17T11:24:54Z</time>
      </trkpt>
      <trkpt lat="46.57224" lon="0.64444">
        <ele>84.636429142207</ele>
        <time>2021-11-17T11:24:58Z</time>
      </trkpt>
      <trkpt lat="46.57226" lon="0.64447">
        <ele>85.689252721146</ele>
        <time>2021-11-17T11:25:06Z</time>
      </trkpt>
      <trkpt lat="46.57228" lon="0.64449">
        <ele>86.297275207005</ele>
        <time>2021-11-17T11:25:25Z</time>
      </trkpt>
      <trkpt lat="46.57229" lon="0.64451">
        <ele>87.022489107214</ele>
        <time>2021-11-17T11:25:29Z</time>
      </trkpt>
      <trkpt lat="46.57231" lon="0.64452">
        <ele>87.73337473534</ele>
        <time>2021-11-17T11:25:34Z</time>
      </trkpt>
      <trkpt lat="46.57231" lon="0.64455">
        <ele>88.477279188111</ele>
        <time>2021-11-17T11:25:39Z</time>
      </trkpt>
      <trkpt lat="46.57232" lon="0.64457">
        <ele>88.949655116536</ele>
        <time>2021-11-17T11:25:48Z</time>
      </trkpt>
      <trkpt lat="46.57233" lon="0.64459">
        <ele>89.383530679159</ele>
        <time>2021-11-17T11:25:56Z</time>
      </trkpt>
      <trkpt lat="46.57234" lon="0.64461">
        <ele>90.10892254021</ele>
        <time>2021-11-17T11:26:02Z</time>
      </trkpt>
      <trkpt lat="46.57236" lon="0.64463">
        <ele>90.652571453713</ele>
        <time>2021-11-17T11:26:08Z</time>
      </trkpt>
      <trkpt lat="46.57238" lon="0.64465">
        <ele>91.259636334144</ele>
        <time>2021-11-17T11:26:13Z</time>
      </trkpt>
      <trkpt lat="46.57239" lon="0.64468">
        <ele>91.704411678016</ele>
        <time>2021-11-17T11:26:17Z</time>
      </trkpt>
      <trkpt lat="46.5724" lon="0.6447">
        <ele>92.054676837288</ele>
        <time>2021-11-17T11:26:21Z</time>
      </trkpt>
      <trkpt lat="46.57238" lon="0.64472">
        <ele>92.256385543384</ele>
        <time>2021-11-17T11:26:28Z</time>
      </trkpt>
      <trkpt lat="46.57238" lon="0.64469">
        <ele>92.362658988684</ele>
        <time>2021-11-17T11:26:45Z</time>
      </trkpt>
      <trkpt lat="46.57239" lon="0.64472">
        <ele>92.36096089147</ele>
        <time>2021-11-17T11:26:50Z</time>
      </trkpt>
      <trkpt lat="46.5724" lon="0.64474">
        <ele>92.820771577768</ele>
        <time>2021-11-17T11:26:53Z</time>
      </trkpt>
      <trkpt lat="46.57242" lon="0.64476">
        <ele>93.311925961636</ele>
        <time>2021-11-17T11:26:57Z</time>
      </trkpt>
      <trkpt lat="46.57243" lon="0.64478">
        <ele>93.89747495763</ele>
        <time>2021-11-17T11:27:01Z</time>
      </trkpt>
      <trkpt lat="46.57244" lon="0.6448">
        <ele>94.616216555238</ele>
        <time>2021-11-17T11:27:06Z</time>
      </trkpt>
      <trkpt lat="46.57245" lon="0.64482">
        <ele>95.436545084231</ele>
        <time>2021-11-17T11:27:10Z</time>
      </trkpt>
      <trkpt lat="46.57246" lon="0.64485">
        <ele>96.117827295326</ele>
        <time>2021-11-17T11:27:15Z</time>
      </trkpt>
      <trkpt lat="46.57247" lon="0.64488">
        <ele>96.914336878806</ele>
        <time>2021-11-17T11:27:19Z</time>
      </trkpt>
      <trkpt lat="46.57248" lon="0.6449">
        <ele>97.489774879068</ele>
        <time>2021-11-17T11:27:24Z</time>
      </trkpt>
      <trkpt lat="46.57248" lon="0.64493">
        <ele>97.908731257543</ele>
        <time>2021-11-17T11:27:28Z</time>
      </trkpt>
      <trkpt lat="46.57249" lon="0.64495">
        <ele>98.544799701311</ele>
        <time>2021-11-17T11:27:32Z</time>
      </trkpt>
      <trkpt lat="46.5725" lon="0.64498">
        <ele>99.385311667807</ele>
        <time>2021-11-17T11:27:36Z</time>
      </trkpt>
      <trkpt lat="46.57252" lon="0.645">
        <ele>99.698527736589</ele>
        <time>2021-11-17T11:27:39Z</time>
      </trkpt>
      <trkpt lat="46.57253" lon="0.64502">
        <ele>100.39064834081</ele>
        <time>2021-11-17T11:27:45Z</time>
      </trkpt>
      <trkpt lat="46.57255" lon="0.64503">
        <ele>100.93413135596</ele>
        <time>2021-11-17T11:27:48Z</time>
      </trkpt>
      <trkpt lat="46.57253" lon="0.64504">
        <ele>101.27210897766</ele>
        <time>2021-11-17T11:28:02Z</time>
      </trkpt>
      <trkpt lat="46.57255" lon="0.64505">
        <ele>101.15466332994</ele>
        <time>2021-11-17T11:28:12Z</time>
      </trkpt>
      <trkpt lat="46.57257" lon="0.64507">
        <ele>102.15478140861</ele>
        <time>2021-11-17T11:28:18Z</time>
      </trkpt>
      <trkpt lat="46.57258" lon="0.64509">
        <ele>102.97101677116</ele>
        <time>2021-11-17T11:28:23Z</time>
      </trkpt>
      <trkpt lat="46.5726" lon="0.6451">
        <ele>103.45110770315</ele>
        <time>2021-11-17T11:28:27Z</time>
      </trkpt>
      <trkpt lat="46.57262" lon="0.64512">
        <ele>104.2091387948</ele>
        <time>2021-11-17T11:28:31Z</time>
      </trkpt>
      <trkpt lat="46.57263" lon="0.64515">
        <ele>104.79277011473</ele>
        <time>2021-11-17T11:28:35Z</time>
      </trkpt>
      <trkpt lat="46.57263" lon="0.64517">
        <ele>105.18626915943</ele>
        <time>2021-11-17T11:28:38Z</time>
      </trkpt>
      <trkpt lat="46.57265" lon="0.64519">
        <ele>105.59372669552</ele>
        <time>2021-11-17T11:28:41Z</time>
      </trkpt>
      <trkpt lat="46.57267" lon="0.6452">
        <ele>106.03981039859</ele>
        <time>2021-11-17T11:28:43Z</time>
      </trkpt>
      <trkpt lat="46.57269" lon="0.64522">
        <ele>106.76994163357</ele>
        <time>2021-11-17T11:28:46Z</time>
      </trkpt>
      <trkpt lat="46.5727" lon="0.64524">
        <ele>107.46991216578</ele>
        <time>2021-11-17T11:28:49Z</time>
      </trkpt>
      <trkpt lat="46.57271" lon="0.64527">
        <ele>108.00529979914</ele>
        <time>2021-11-17T11:28:53Z</time>
      </trkpt>
      <trkpt lat="46.57273" lon="0.6453">
        <ele>108.73451060336</ele>
        <time>2021-11-17T11:28:59Z</time>
      </trkpt>
      <trkpt lat="46.57273" lon="0.64533">
        <ele>109.40298311505</ele>
        <time>2021-11-17T11:29:01Z</time>
      </trkpt>
      <trkpt lat="46.57274" lon="0.64536">
        <ele>109.31128745154</ele>
        <time>2021-11-17T11:29:04Z</time>
      </trkpt>
      <trkpt lat="46.57275" lon="0.64538">
        <ele>110.08815487102</ele>
        <time>2021-11-17T11:29:07Z</time>
      </trkpt>
      <trkpt lat="46.57276" lon="0.6454">
        <ele>110.22385676578</ele>
        <time>2021-11-17T11:29:25Z</time>
      </trkpt>
      <trkpt lat="46.57277" lon="0.64543">
        <ele>110.78693430778</ele>
        <time>2021-11-17T11:29:29Z</time>
      </trkpt>
      <trkpt lat="46.57278" lon="0.64547">
        <ele>111.56283414643</ele>
        <time>2021-11-17T11:29:33Z</time>
      </trkpt>
      <trkpt lat="46.57279" lon="0.6455">
        <ele>112.12247375865</ele>
        <time>2021-11-17T11:29:37Z</time>
      </trkpt>
      <trkpt lat="46.5728" lon="0.64553">
        <ele>112.5665022647</ele>
        <time>2021-11-17T11:29:41Z</time>
      </trkpt>
      <trkpt lat="46.57281" lon="0.64556">
        <ele>112.82184338197</ele>
        <time>2021-11-17T11:29:44Z</time>
      </trkpt>
      <trkpt lat="46.57281" lon="0.64559">
        <ele>113.15397729259</ele>
        <time>2021-11-17T11:29:46Z</time>
      </trkpt>
      <trkpt lat="46.57283" lon="0.64562">
        <ele>114.07181386929</ele>
        <time>2021-11-17T11:29:50Z</time>
      </trkpt>
      <trkpt lat="46.57284" lon="0.64564">
        <ele>114.32682691701</ele>
        <time>2021-11-17T11:29:53Z</time>
      </trkpt>
      <trkpt lat="46.57285" lon="0.64567">
        <ele>114.87219060864</ele>
        <time>2021-11-17T11:29:56Z</time>
      </trkpt>
      <trkpt lat="46.57286" lon="0.6457">
        <ele>114.94285480492</ele>
        <time>2021-11-17T11:29:59Z</time>
      </trkpt>
      <trkpt lat="46.57286" lon="0.64572">
        <ele>115.35270318855</ele>
        <time>2021-11-17T11:30:02Z</time>
      </trkpt>
      <trkpt lat="46.57287" lon="0.64575">
        <ele>115.7978428239</ele>
        <time>2021-11-17T11:30:05Z</time>
      </trkpt>
      <trkpt lat="46.57288" lon="0.64578">
        <ele>116.01570081059</ele>
        <time>2021-11-17T11:30:08Z</time>
      </trkpt>
      <trkpt lat="46.57288" lon="0.64581">
        <ele>116.49823528435</ele>
        <time>2021-11-17T11:30:11Z</time>
      </trkpt>
      <trkpt lat="46.5729" lon="0.64583">
        <ele>116.8364267461</ele>
        <time>2021-11-17T11:30:14Z</time>
      </trkpt>
      <trkpt lat="46.57291" lon="0.64586">
        <ele>117.446753853</ele>
        <time>2021-11-17T11:30:18Z</time>
      </trkpt>
      <trkpt lat="46.57292" lon="0.64588">
        <ele>117.63866900187</ele>
        <time>2021-11-17T11:30:22Z</time>
      </trkpt>
      <trkpt lat="46.57293" lon="0.64591">
        <ele>118.14236360881</ele>
        <time>2021-11-17T11:30:25Z</time>
      </trkpt>
      <trkpt lat="46.57294" lon="0.64594">
        <ele>118.15935149882</ele>
        <time>2021-11-17T11:30:27Z</time>
      </trkpt>
      <trkpt lat="46.57295" lon="0.64596">
        <ele>118.21746570338</ele>
        <time>2021-11-17T11:30:29Z</time>
      </trkpt>
      <trkpt lat="46.57295" lon="0.64599">
        <ele>118.69322871044</ele>
        <time>2021-11-17T11:30:32Z</time>
      </trkpt>
      <trkpt lat="46.57297" lon="0.64602">
        <ele>119.15051235911</ele>
        <time>2021-11-17T11:30:36Z</time>
      </trkpt>
      <trkpt lat="46.57297" lon="0.64604">
        <ele>119.33697687835</ele>
        <time>2021-11-17T11:30:38Z</time>
      </trkpt>
      <trkpt lat="46.57298" lon="0.64607">
        <ele>119.5111764567</ele>
        <time>2021-11-17T11:30:40Z</time>
      </trkpt>
      <trkpt lat="46.57299" lon="0.6461">
        <ele>119.61900370382</ele>
        <time>2021-11-17T11:30:42Z</time>
      </trkpt>
      <trkpt lat="46.573" lon="0.64613">
        <ele>119.81962857302</ele>
        <time>2021-11-17T11:30:44Z</time>
      </trkpt>
      <trkpt lat="46.573" lon="0.64615">
        <ele>120.12082506996</ele>
        <time>2021-11-17T11:30:46Z</time>
      </trkpt>
      <trkpt lat="46.57301" lon="0.64618">
        <ele>120.3105101157</ele>
        <time>2021-11-17T11:30:49Z</time>
      </trkpt>
      <trkpt lat="46.57302" lon="0.64621">
        <ele>120.54562199395</ele>
        <time>2021-11-17T11:30:52Z</time>
      </trkpt>
      <trkpt lat="46.57303" lon="0.64624">
        <ele>120.88409678545</ele>
        <time>2021-11-17T11:30:54Z</time>
      </trkpt>
      <trkpt lat="46.57304" lon="0.64627">
        <ele>121.08278525248</ele>
        <time>2021-11-17T11:30:57Z</time>
      </trkpt>
      <trkpt lat="46.57305" lon="0.6463">
        <ele>121.08348949812</ele>
        <time>2021-11-17T11:31:00Z</time>
      </trkpt>
      <trkpt lat="46.57305" lon="0.64633">
        <ele>121.07009805366</ele>
        <time>2021-11-17T11:31:08Z</time>
      </trkpt>
      <trkpt lat="46.57307" lon="0.64635">
        <ele>121.32526556216</ele>
        <time>2021-11-17T11:31:28Z</time>
      </trkpt>
      <trkpt lat="46.57306" lon="0.64638">
        <ele>121.48179284111</ele>
        <time>2021-11-17T11:32:04Z</time>
      </trkpt>
      <trkpt lat="46.57303" lon="0.64638">
        <ele>121.61745783873</ele>
        <time>2021-11-17T11:32:06Z</time>
      </trkpt>
      <trkpt lat="46.57301" lon="0.64638">
        <ele>121.5056675002</ele>
        <time>2021-11-17T11:32:08Z</time>
      </trkpt>
      <trkpt lat="46.57298" lon="0.64639">
        <ele>121.30675038509</ele>
        <time>2021-11-17T11:32:11Z</time>
      </trkpt>
      <trkpt lat="46.57297" lon="0.6464">
        <ele>121.14402255975</ele>
        <time>2021-11-17T11:32:14Z</time>
      </trkpt>
      <trkpt lat="46.57295" lon="0.64642">
        <ele>120.94938089233</ele>
        <time>2021-11-17T11:32:16Z</time>
      </trkpt>
      <trkpt lat="46.57293" lon="0.64644">
        <ele>120.98388557415</ele>
        <time>2021-11-17T11:32:18Z</time>
      </trkpt>
      <trkpt lat="46.57291" lon="0.64646">
        <ele>120.7387527274</ele>
        <time>2021-11-17T11:32:20Z</time>
      </trkpt>
      <trkpt lat="46.57289" lon="0.64646">
        <ele>120.71747099608</ele>
        <time>2021-11-17T11:32:23Z</time>
      </trkpt>
      <trkpt lat="46.57287" lon="0.64647">
        <ele>120.92231511977</ele>
        <time>2021-11-17T11:32:25Z</time>
      </trkpt>
      <trkpt lat="46.57285" lon="0.64648">
        <ele>121.05335030518</ele>
        <time>2021-11-17T11:32:27Z</time>
      </trkpt>
      <trkpt lat="46.57283" lon="0.64648">
        <ele>120.79488306586</ele>
        <time>2021-11-17T11:32:30Z</time>
      </trkpt>
      <trkpt lat="46.5728" lon="0.64649">
        <ele>120.83690131642</ele>
        <time>2021-11-17T11:32:32Z</time>
      </trkpt>
      <trkpt lat="46.57278" lon="0.6465">
        <ele>120.48102611769</ele>
        <time>2021-11-17T11:32:34Z</time>
      </trkpt>
      <trkpt lat="46.57276" lon="0.64651">
        <ele>120.965898294</ele>
        <time>2021-11-17T11:32:36Z</time>
      </trkpt>
      <trkpt lat="46.57274" lon="0.64651">
        <ele>121.20256341901</ele>
        <time>2021-11-17T11:32:38Z</time>
      </trkpt>
      <trkpt lat="46.57274" lon="0.64655">
        <ele>121.14589566085</ele>
        <time>2021-11-17T11:32:54Z</time>
      </trkpt>
      <trkpt lat="46.57274" lon="0.64657">
        <ele>120.97738114558</ele>
        <time>2021-11-17T11:33:15Z</time>
      </trkpt>
      <trkpt lat="46.57275" lon="0.64661">
        <ele>121.18780303281</ele>
        <time>2021-11-17T11:33:34Z</time>
      </trkpt>
      <trkpt lat="46.57276" lon="0.64657">
        <ele>121.1737482436</ele>
        <time>2021-11-17T11:33:44Z</time>
      </trkpt>
      <trkpt lat="46.57276" lon="0.64655">
        <ele>121.05425559636</ele>
        <time>2021-11-17T11:34:10Z</time>
      </trkpt>
      <trkpt lat="46.57276" lon="0.64652">
        <ele>121.01019790489</ele>
        <time>2021-11-17T11:34:19Z</time>
      </trkpt>
      <trkpt lat="46.57275" lon="0.64654">
        <ele>120.95669707842</ele>
        <time>2021-11-17T11:35:14Z</time>
      </trkpt>
      <trkpt lat="46.57274" lon="0.64656">
        <ele>121.0408694502</ele>
        <time>2021-11-17T11:35:18Z</time>
      </trkpt>
      <trkpt lat="46.57272" lon="0.64655">
        <ele>120.60972767323</ele>
        <time>2021-11-17T11:35:37Z</time>
      </trkpt>
      <trkpt lat="46.57271" lon="0.64654">
        <ele>120.69590578787</ele>
        <time>2021-11-17T11:35:42Z</time>
      </trkpt>
      <trkpt lat="46.57269" lon="0.64653">
        <ele>120.48529362399</ele>
        <time>2021-11-17T11:35:46Z</time>
      </trkpt>
      <trkpt lat="46.57267" lon="0.64654">
        <ele>120.61662079021</ele>
        <time>2021-11-17T11:35:49Z</time>
      </trkpt>
      <trkpt lat="46.57265" lon="0.64655">
        <ele>120.71095203515</ele>
        <time>2021-11-17T11:35:52Z</time>
      </trkpt>
      <trkpt lat="46.57262" lon="0.64655">
        <ele>120.21473032609</ele>
        <time>2021-11-17T11:35:54Z</time>
      </trkpt>
      <trkpt lat="46.5726" lon="0.64656">
        <ele>120.54050572217</ele>
        <time>2021-11-17T11:35:56Z</time>
      </trkpt>
      <trkpt lat="46.57258" lon="0.64656">
        <ele>120.76750259846</ele>
        <time>2021-11-17T11:35:58Z</time>
      </trkpt>
      <trkpt lat="46.57256" lon="0.64657">
        <ele>120.47593336273</ele>
        <time>2021-11-17T11:36:00Z</time>
      </trkpt>
      <trkpt lat="46.57254" lon="0.64659">
        <ele>120.30581135955</ele>
        <time>2021-11-17T11:36:02Z</time>
      </trkpt>
      <trkpt lat="46.57252" lon="0.64658">
        <ele>120.31010213122</ele>
        <time>2021-11-17T11:36:04Z</time>
      </trkpt>
      <trkpt lat="46.57249" lon="0.6466">
        <ele>120.14289252553</ele>
        <time>2021-11-17T11:36:07Z</time>
      </trkpt>
      <trkpt lat="46.57247" lon="0.64661">
        <ele>120.0162091488</ele>
        <time>2021-11-17T11:36:09Z</time>
      </trkpt>
      <trkpt lat="46.57245" lon="0.64663">
        <ele>120.0423279563</ele>
        <time>2021-11-17T11:36:11Z</time>
      </trkpt>
      <trkpt lat="46.57242" lon="0.64664">
        <ele>119.92818900757</ele>
        <time>2021-11-17T11:36:14Z</time>
      </trkpt>
      <trkpt lat="46.5724" lon="0.64666">
        <ele>119.58657714631</ele>
        <time>2021-11-17T11:36:16Z</time>
      </trkpt>
      <trkpt lat="46.57238" lon="0.64667">
        <ele>119.70969150215</ele>
        <time>2021-11-17T11:36:18Z</time>
      </trkpt>
      <trkpt lat="46.57235" lon="0.64667">
        <ele>120.15881399158</ele>
        <time>2021-11-17T11:36:20Z</time>
      </trkpt>
      <trkpt lat="46.57233" lon="0.64667">
        <ele>119.7319265753</ele>
        <time>2021-11-17T11:36:22Z</time>
      </trkpt>
      <trkpt lat="46.5723" lon="0.64667">
        <ele>119.72331536654</ele>
        <time>2021-11-17T11:36:24Z</time>
      </trkpt>
      <trkpt lat="46.57228" lon="0.64668">
        <ele>119.89816496614</ele>
        <time>2021-11-17T11:36:26Z</time>
      </trkpt>
      <trkpt lat="46.57225" lon="0.6467">
        <ele>119.31003681105</ele>
        <time>2021-11-17T11:36:28Z</time>
      </trkpt>
      <trkpt lat="46.57222" lon="0.64672">
        <ele>119.31275820918</ele>
        <time>2021-11-17T11:36:31Z</time>
      </trkpt>
      <trkpt lat="46.5722" lon="0.64674">
        <ele>119.35282659158</ele>
        <time>2021-11-17T11:36:33Z</time>
      </trkpt>
      <trkpt lat="46.57218" lon="0.64675">
        <ele>119.00991159584</ele>
        <time>2021-11-17T11:36:35Z</time>
      </trkpt>
      <trkpt lat="46.57217" lon="0.64677">
        <ele>118.87264936697</ele>
        <time>2021-11-17T11:36:37Z</time>
      </trkpt>
      <trkpt lat="46.57215" lon="0.64679">
        <ele>118.97220234387</ele>
        <time>2021-11-17T11:36:39Z</time>
      </trkpt>
      <trkpt lat="46.57213" lon="0.64681">
        <ele>118.55299057346</ele>
        <time>2021-11-17T11:36:41Z</time>
      </trkpt>
      <trkpt lat="46.57211" lon="0.64683">
        <ele>118.19269336201</ele>
        <time>2021-11-17T11:36:43Z</time>
      </trkpt>
      <trkpt lat="46.57208" lon="0.64686">
        <ele>118.36742164474</ele>
        <time>2021-11-17T11:36:45Z</time>
      </trkpt>
      <trkpt lat="46.57207" lon="0.64688">
        <ele>117.92375866044</ele>
        <time>2021-11-17T11:36:47Z</time>
      </trkpt>
      <trkpt lat="46.57204" lon="0.64689">
        <ele>117.93670230359</ele>
        <time>2021-11-17T11:36:49Z</time>
      </trkpt>
      <trkpt lat="46.57202" lon="0.64691">
        <ele>118.14638063684</ele>
        <time>2021-11-17T11:36:51Z</time>
      </trkpt>
      <trkpt lat="46.572" lon="0.64693">
        <ele>117.79555585608</ele>
        <time>2021-11-17T11:36:53Z</time>
      </trkpt>
      <trkpt lat="46.57198" lon="0.64695">
        <ele>117.79397304915</ele>
        <time>2021-11-17T11:36:55Z</time>
      </trkpt>
      <trkpt lat="46.57197" lon="0.64698">
        <ele>117.67633315735</ele>
        <time>2021-11-17T11:36:57Z</time>
      </trkpt>
      <trkpt lat="46.57195" lon="0.647">
        <ele>117.77402312029</ele>
        <time>2021-11-17T11:36:59Z</time>
      </trkpt>
      <trkpt lat="46.57193" lon="0.64703">
        <ele>117.20174029563</ele>
        <time>2021-11-17T11:37:02Z</time>
      </trkpt>
      <trkpt lat="46.5719" lon="0.64705">
        <ele>117.29360275529</ele>
        <time>2021-11-17T11:37:04Z</time>
      </trkpt>
      <trkpt lat="46.57188" lon="0.64706">
        <ele>116.99673762266</ele>
        <time>2021-11-17T11:37:06Z</time>
      </trkpt>
      <trkpt lat="46.57186" lon="0.64707">
        <ele>116.68261268828</ele>
        <time>2021-11-17T11:37:08Z</time>
      </trkpt>
      <trkpt lat="46.57183" lon="0.64709">
        <ele>116.53055253532</ele>
        <time>2021-11-17T11:37:10Z</time>
      </trkpt>
      <trkpt lat="46.5718" lon="0.6471">
        <ele>116.31390951574</ele>
        <time>2021-11-17T11:37:12Z</time>
      </trkpt>
      <trkpt lat="46.57178" lon="0.64712">
        <ele>116.00003244914</ele>
        <time>2021-11-17T11:37:14Z</time>
      </trkpt>
      <trkpt lat="46.57176" lon="0.64712">
        <ele>115.74710941873</ele>
        <time>2021-11-17T11:37:16Z</time>
      </trkpt>
      <trkpt lat="46.57174" lon="0.64713">
        <ele>115.62418661639</ele>
        <time>2021-11-17T11:37:18Z</time>
      </trkpt>
      <trkpt lat="46.57172" lon="0.64714">
        <ele>115.51855980232</ele>
        <time>2021-11-17T11:37:20Z</time>
      </trkpt>
      <trkpt lat="46.57168" lon="0.64714">
        <ele>115.26282780338</ele>
        <time>2021-11-17T11:37:23Z</time>
      </trkpt>
      <trkpt lat="46.57166" lon="0.64714">
        <ele>115.16624017339</ele>
        <time>2021-11-17T11:37:25Z</time>
      </trkpt>
      <trkpt lat="46.57164" lon="0.64716">
        <ele>114.78835293371</ele>
        <time>2021-11-17T11:37:27Z</time>
      </trkpt>
      <trkpt lat="46.57161" lon="0.64718">
        <ele>114.53830798715</ele>
        <time>2021-11-17T11:37:29Z</time>
      </trkpt>
      <trkpt lat="46.57159" lon="0.64718">
        <ele>114.27205801476</ele>
        <time>2021-11-17T11:37:30Z</time>
      </trkpt>
      <trkpt lat="46.57157" lon="0.6472">
        <ele>114.08374881651</ele>
        <time>2021-11-17T11:37:33Z</time>
      </trkpt>
      <trkpt lat="46.57154" lon="0.64721">
        <ele>113.7903000759</ele>
        <time>2021-11-17T11:37:35Z</time>
      </trkpt>
      <trkpt lat="46.57153" lon="0.64722">
        <ele>113.4522714112</ele>
        <time>2021-11-17T11:37:37Z</time>
      </trkpt>
      <trkpt lat="46.5715" lon="0.64723">
        <ele>113.22086701356</ele>
        <time>2021-11-17T11:37:39Z</time>
      </trkpt>
      <trkpt lat="46.57148" lon="0.64725">
        <ele>112.79739088845</ele>
        <time>2021-11-17T11:37:41Z</time>
      </trkpt>
      <trkpt lat="46.57146" lon="0.64727">
        <ele>112.14517053682</ele>
        <time>2021-11-17T11:37:44Z</time>
      </trkpt>
      <trkpt lat="46.57144" lon="0.6473">
        <ele>112.0971140163</ele>
        <time>2021-11-17T11:37:47Z</time>
      </trkpt>
      <trkpt lat="46.57142" lon="0.64732">
        <ele>112.18743539508</ele>
        <time>2021-11-17T11:37:49Z</time>
      </trkpt>
      <trkpt lat="46.5714" lon="0.64733">
        <ele>111.75817474537</ele>
        <time>2021-11-17T11:37:51Z</time>
      </trkpt>
      <trkpt lat="46.57138" lon="0.64734">
        <ele>111.3114889795</ele>
        <time>2021-11-17T11:37:53Z</time>
      </trkpt>
      <trkpt lat="46.57135" lon="0.64735">
        <ele>111.18992126081</ele>
        <time>2021-11-17T11:37:55Z</time>
      </trkpt>
      <trkpt lat="46.57133" lon="0.64736">
        <ele>110.68278197851</ele>
        <time>2021-11-17T11:37:57Z</time>
      </trkpt>
      <trkpt lat="46.57131" lon="0.64739">
        <ele>111.03771481942</ele>
        <time>2021-11-17T11:37:59Z</time>
      </trkpt>
      <trkpt lat="46.5713" lon="0.64742">
        <ele>110.5963087054</ele>
        <time>2021-11-17T11:38:01Z</time>
      </trkpt>
      <trkpt lat="46.57129" lon="0.64743">
        <ele>110.49382335134</ele>
        <time>2021-11-17T11:38:02Z</time>
      </trkpt>
      <trkpt lat="46.57126" lon="0.64746">
        <ele>110.22426581476</ele>
        <time>2021-11-17T11:38:04Z</time>
      </trkpt>
      <trkpt lat="46.57124" lon="0.64749">
        <ele>110.0545375878</ele>
        <time>2021-11-17T11:38:06Z</time>
      </trkpt>
      <trkpt lat="46.57122" lon="0.64749">
        <ele>109.9020736292</ele>
        <time>2021-11-17T11:38:08Z</time>
      </trkpt>
      <trkpt lat="46.57119" lon="0.64751">
        <ele>109.54130079132</ele>
        <time>2021-11-17T11:38:10Z</time>
      </trkpt>
      <trkpt lat="46.57117" lon="0.64753">
        <ele>109.44878530968</ele>
        <time>2021-11-17T11:38:13Z</time>
      </trkpt>
      <trkpt lat="46.57115" lon="0.64754">
        <ele>109.21953176148</ele>
        <time>2021-11-17T11:38:15Z</time>
      </trkpt>
      <trkpt lat="46.57112" lon="0.64758">
        <ele>109.08940070868</ele>
        <time>2021-11-17T11:38:17Z</time>
      </trkpt>
      <trkpt lat="46.57111" lon="0.64762">
        <ele>108.89700900018</ele>
        <time>2021-11-17T11:38:19Z</time>
      </trkpt>
      <trkpt lat="46.5711" lon="0.64766">
        <ele>109.16392852738</ele>
        <time>2021-11-17T11:38:21Z</time>
      </trkpt>
      <trkpt lat="46.57109" lon="0.6477">
        <ele>108.7841618536</ele>
        <time>2021-11-17T11:38:23Z</time>
      </trkpt>
      <trkpt lat="46.57109" lon="0.64774">
        <ele>109.22492733318</ele>
        <time>2021-11-17T11:38:25Z</time>
      </trkpt>
      <trkpt lat="46.57108" lon="0.64777">
        <ele>109.68894937821</ele>
        <time>2021-11-17T11:38:27Z</time>
      </trkpt>
      <trkpt lat="46.57108" lon="0.6478">
        <ele>109.44119748473</ele>
        <time>2021-11-17T11:38:29Z</time>
      </trkpt>
      <trkpt lat="46.57108" lon="0.64783">
        <ele>109.49673770275</ele>
        <time>2021-11-17T11:38:31Z</time>
      </trkpt>
      <trkpt lat="46.57108" lon="0.64786">
        <ele>109.84208161477</ele>
        <time>2021-11-17T11:38:33Z</time>
      </trkpt>
      <trkpt lat="46.57108" lon="0.64791">
        <ele>110.12742504384</ele>
        <time>2021-11-17T11:38:36Z</time>
      </trkpt>
      <trkpt lat="46.57108" lon="0.64795">
        <ele>110.31631418597</ele>
        <time>2021-11-17T11:38:38Z</time>
      </trkpt>
      <trkpt lat="46.57107" lon="0.64798">
        <ele>110.44766467158</ele>
        <time>2021-11-17T11:38:40Z</time>
      </trkpt>
      <trkpt lat="46.57107" lon="0.64801">
        <ele>110.6996478932</ele>
        <time>2021-11-17T11:38:42Z</time>
      </trkpt>
      <trkpt lat="46.57108" lon="0.64805">
        <ele>110.85696576163</ele>
        <time>2021-11-17T11:38:44Z</time>
      </trkpt>
      <trkpt lat="46.57109" lon="0.64809">
        <ele>111.05589525215</ele>
        <time>2021-11-17T11:38:46Z</time>
      </trkpt>
      <trkpt lat="46.57109" lon="0.64812">
        <ele>111.145407415</ele>
        <time>2021-11-17T11:38:48Z</time>
      </trkpt>
      <trkpt lat="46.5711" lon="0.64816">
        <ele>111.31224030908</ele>
        <time>2021-11-17T11:38:50Z</time>
      </trkpt>
      <trkpt lat="46.5711" lon="0.64819">
        <ele>110.9814507002</ele>
        <time>2021-11-17T11:38:52Z</time>
      </trkpt>
      <trkpt lat="46.5711" lon="0.64823">
        <ele>111.08912834339</ele>
        <time>2021-11-17T11:38:54Z</time>
      </trkpt>
      <trkpt lat="46.57111" lon="0.64826">
        <ele>110.86510874145</ele>
        <time>2021-11-17T11:38:56Z</time>
      </trkpt>
      <trkpt lat="46.57111" lon="0.6483">
        <ele>111.24693604652</ele>
        <time>2021-11-17T11:38:59Z</time>
      </trkpt>
      <trkpt lat="46.57112" lon="0.64833">
        <ele>111.21610061359</ele>
        <time>2021-11-17T11:39:00Z</time>
      </trkpt>
      <trkpt lat="46.57112" lon="0.64837">
        <ele>110.84798593353</ele>
        <time>2021-11-17T11:39:02Z</time>
      </trkpt>
      <trkpt lat="46.57112" lon="0.64841">
        <ele>111.023179329</ele>
        <time>2021-11-17T11:39:04Z</time>
      </trkpt>
      <trkpt lat="46.57113" lon="0.64844">
        <ele>110.83929021843</ele>
        <time>2021-11-17T11:39:06Z</time>
      </trkpt>
      <trkpt lat="46.57113" lon="0.64848">
        <ele>110.72850447521</ele>
        <time>2021-11-17T11:39:08Z</time>
      </trkpt>
      <trkpt lat="46.57113" lon="0.64851">
        <ele>110.28788518813</ele>
        <time>2021-11-17T11:39:10Z</time>
      </trkpt>
      <trkpt lat="46.57112" lon="0.64855">
        <ele>110.40996128507</ele>
        <time>2021-11-17T11:39:12Z</time>
      </trkpt>
      <trkpt lat="46.57112" lon="0.64858">
        <ele>110.2526703449</ele>
        <time>2021-11-17T11:39:14Z</time>
      </trkpt>
      <trkpt lat="46.57111" lon="0.64861">
        <ele>109.82751343306</ele>
        <time>2021-11-17T11:39:16Z</time>
      </trkpt>
      <trkpt lat="46.5711" lon="0.64865">
        <ele>109.95297322609</ele>
        <time>2021-11-17T11:39:18Z</time>
      </trkpt>
      <trkpt lat="46.5711" lon="0.64868">
        <ele>109.79370495025</ele>
        <time>2021-11-17T11:39:20Z</time>
      </trkpt>
      <trkpt lat="46.5711" lon="0.64872">
        <ele>109.2112687761</ele>
        <time>2021-11-17T11:39:22Z</time>
      </trkpt>
      <trkpt lat="46.5711" lon="0.64876">
        <ele>109.25939987414</ele>
        <time>2021-11-17T11:39:24Z</time>
      </trkpt>
      <trkpt lat="46.57109" lon="0.64879">
        <ele>108.93459317554</ele>
        <time>2021-11-17T11:39:26Z</time>
      </trkpt>
      <trkpt lat="46.57108" lon="0.64883">
        <ele>108.4231842719</ele>
        <time>2021-11-17T11:39:28Z</time>
      </trkpt>
      <trkpt lat="46.57107" lon="0.64886">
        <ele>108.17292026058</ele>
        <time>2021-11-17T11:39:30Z</time>
      </trkpt>
      <trkpt lat="46.57107" lon="0.64889">
        <ele>107.97400463</ele>
        <time>2021-11-17T11:39:33Z</time>
      </trkpt>
      <trkpt lat="46.57109" lon="0.64886">
        <ele>107.76912630722</ele>
        <time>2021-11-17T11:39:38Z</time>
      </trkpt>
      <trkpt lat="46.57109" lon="0.64888">
        <ele>107.65022115782</ele>
        <time>2021-11-17T11:39:43Z</time>
      </trkpt>
      <trkpt lat="46.5711" lon="0.64893">
        <ele>106.97772529628</ele>
        <time>2021-11-17T11:39:46Z</time>
      </trkpt>
      <trkpt lat="46.57111" lon="0.64896">
        <ele>106.9502727259</ele>
        <time>2021-11-17T11:39:48Z</time>
      </trkpt>
      <trkpt lat="46.57111" lon="0.64899">
        <ele>106.7768277619</ele>
        <time>2021-11-17T11:39:50Z</time>
      </trkpt>
      <trkpt lat="46.57108" lon="0.64901">
        <ele>106.15856234729</ele>
        <time>2021-11-17T11:39:53Z</time>
      </trkpt>
      <trkpt lat="46.57106" lon="0.64903">
        <ele>105.62667714432</ele>
        <time>2021-11-17T11:39:56Z</time>
      </trkpt>
      <trkpt lat="46.57104" lon="0.64904">
        <ele>104.65420278721</ele>
        <time>2021-11-17T11:39:59Z</time>
      </trkpt>
      <trkpt lat="46.57101" lon="0.64905">
        <ele>104.93674023077</ele>
        <time>2021-11-17T11:40:01Z</time>
      </trkpt>
      <trkpt lat="46.57099" lon="0.64904">
        <ele>104.57007111609</ele>
        <time>2021-11-17T11:40:03Z</time>
      </trkpt>
      <trkpt lat="46.57097" lon="0.64904">
        <ele>104.75358822569</ele>
        <time>2021-11-17T11:40:04Z</time>
      </trkpt>
      <trkpt lat="46.57095" lon="0.64903">
        <ele>104.79179247748</ele>
        <time>2021-11-17T11:40:06Z</time>
      </trkpt>
      <trkpt lat="46.57092" lon="0.64903">
        <ele>104.68250471912</ele>
        <time>2021-11-17T11:40:08Z</time>
      </trkpt>
      <trkpt lat="46.5709" lon="0.64905">
        <ele>104.38143351302</ele>
        <time>2021-11-17T11:40:11Z</time>
      </trkpt>
      <trkpt lat="46.5709" lon="0.64908">
        <ele>104.07602239773</ele>
        <time>2021-11-17T11:40:14Z</time>
      </trkpt>
      <trkpt lat="46.57088" lon="0.6491">
        <ele>103.28544357233</ele>
        <time>2021-11-17T11:40:17Z</time>
      </trkpt>
      <trkpt lat="46.57086" lon="0.64911">
        <ele>102.34561771993</ele>
        <time>2021-11-17T11:40:21Z</time>
      </trkpt>
      <trkpt lat="46.57084" lon="0.64911">
        <ele>101.70970966853</ele>
        <time>2021-11-17T11:40:26Z</time>
      </trkpt>
      <trkpt lat="46.57085" lon="0.64914">
        <ele>101.94278821442</ele>
        <time>2021-11-17T11:40:31Z</time>
      </trkpt>
      <trkpt lat="46.57086" lon="0.64916">
        <ele>101.50404245127</ele>
        <time>2021-11-17T11:40:33Z</time>
      </trkpt>
      <trkpt lat="46.57084" lon="0.64918">
        <ele>100.76099884044</ele>
        <time>2021-11-17T11:40:38Z</time>
      </trkpt>
      <trkpt lat="46.57082" lon="0.6492">
        <ele>100.26389021333</ele>
        <time>2021-11-17T11:40:42Z</time>
      </trkpt>
      <trkpt lat="46.57081" lon="0.64923">
        <ele>99.656945910305</ele>
        <time>2021-11-17T11:40:45Z</time>
      </trkpt>
      <trkpt lat="46.5708" lon="0.64926">
        <ele>98.948595984839</ele>
        <time>2021-11-17T11:40:47Z</time>
      </trkpt>
      <trkpt lat="46.57078" lon="0.64929">
        <ele>98.644260009751</ele>
        <time>2021-11-17T11:40:49Z</time>
      </trkpt>
      <trkpt lat="46.57077" lon="0.64934">
        <ele>97.962719347328</ele>
        <time>2021-11-17T11:40:52Z</time>
      </trkpt>
      <trkpt lat="46.57076" lon="0.64937">
        <ele>97.019874987192</ele>
        <time>2021-11-17T11:40:54Z</time>
      </trkpt>
      <trkpt lat="46.57076" lon="0.6494">
        <ele>96.082284278236</ele>
        <time>2021-11-17T11:40:57Z</time>
      </trkpt>
      <trkpt lat="46.57076" lon="0.64943">
        <ele>95.181957517751</ele>
        <time>2021-11-17T11:41:00Z</time>
      </trkpt>
      <trkpt lat="46.57076" lon="0.64946">
        <ele>95.089449238032</ele>
        <time>2021-11-17T11:41:02Z</time>
      </trkpt>
      <trkpt lat="46.57076" lon="0.64948">
        <ele>94.220591135323</ele>
        <time>2021-11-17T11:41:04Z</time>
      </trkpt>
      <trkpt lat="46.57077" lon="0.64951">
        <ele>93.251763761044</ele>
        <time>2021-11-17T11:41:06Z</time>
      </trkpt>
      <trkpt lat="46.57078" lon="0.64954">
        <ele>92.961272315122</ele>
        <time>2021-11-17T11:41:08Z</time>
      </trkpt>
      <trkpt lat="46.5708" lon="0.64955">
        <ele>92.345619667321</ele>
        <time>2021-11-17T11:41:10Z</time>
      </trkpt>
      <trkpt lat="46.57082" lon="0.64956">
        <ele>92.211909853853</ele>
        <time>2021-11-17T11:41:12Z</time>
      </trkpt>
      <trkpt lat="46.57084" lon="0.64958">
        <ele>91.481268537231</ele>
        <time>2021-11-17T11:41:14Z</time>
      </trkpt>
      <trkpt lat="46.57085" lon="0.6496">
        <ele>91.115812576376</ele>
        <time>2021-11-17T11:41:17Z</time>
      </trkpt>
      <trkpt lat="46.57086" lon="0.64962">
        <ele>90.918149782345</ele>
        <time>2021-11-17T11:41:19Z</time>
      </trkpt>
      <trkpt lat="46.57087" lon="0.64964">
        <ele>90.278986882418</ele>
        <time>2021-11-17T11:41:22Z</time>
      </trkpt>
      <trkpt lat="46.57088" lon="0.64967">
        <ele>90.184766132385</ele>
        <time>2021-11-17T11:41:25Z</time>
      </trkpt>
      <trkpt lat="46.57089" lon="0.6497">
        <ele>89.612963690422</ele>
        <time>2021-11-17T11:41:27Z</time>
      </trkpt>
      <trkpt lat="46.57089" lon="0.64975">
        <ele>89.697705070488</ele>
        <time>2021-11-17T11:41:29Z</time>
      </trkpt>
      <trkpt lat="46.57091" lon="0.64978">
        <ele>89.275179962628</ele>
        <time>2021-11-17T11:41:31Z</time>
      </trkpt>
      <trkpt lat="46.57092" lon="0.64981">
        <ele>89.022084925324</ele>
        <time>2021-11-17T11:41:33Z</time>
      </trkpt>
      <trkpt lat="46.57094" lon="0.64983">
        <ele>88.123300392181</ele>
        <time>2021-11-17T11:41:36Z</time>
      </trkpt>
      <trkpt lat="46.57095" lon="0.64986">
        <ele>87.108127840795</ele>
        <time>2021-11-17T11:41:42Z</time>
      </trkpt>
      <trkpt lat="46.57096" lon="0.64988">
        <ele>86.289060714655</ele>
        <time>2021-11-17T11:41:45Z</time>
      </trkpt>
      <trkpt lat="46.57098" lon="0.64991">
        <ele>84.527344551869</ele>
        <time>2021-11-17T11:41:49Z</time>
      </trkpt>
      <trkpt lat="46.57099" lon="0.64992">
        <ele>84.707527885213</ele>
        <time>2021-11-17T11:41:51Z</time>
      </trkpt>
      <trkpt lat="46.57101" lon="0.64995">
        <ele>84.876079004258</ele>
        <time>2021-11-17T11:41:53Z</time>
      </trkpt>
      <trkpt lat="46.57102" lon="0.64998">
        <ele>84.423256563954</ele>
        <time>2021-11-17T11:41:55Z</time>
      </trkpt>
      <trkpt lat="46.57103" lon="0.65">
        <ele>84.301166053861</ele>
        <time>2021-11-17T11:41:57Z</time>
      </trkpt>
      <trkpt lat="46.57105" lon="0.65003">
        <ele>83.888430717401</ele>
        <time>2021-11-17T11:41:59Z</time>
      </trkpt>
      <trkpt lat="46.57106" lon="0.65006">
        <ele>83.86288869381</ele>
        <time>2021-11-17T11:42:01Z</time>
      </trkpt>
      <trkpt lat="46.57108" lon="0.65008">
        <ele>83.649751582183</ele>
        <time>2021-11-17T11:42:03Z</time>
      </trkpt>
      <trkpt lat="46.57109" lon="0.65011">
        <ele>83.730252041481</ele>
        <time>2021-11-17T11:42:05Z</time>
      </trkpt>
      <trkpt lat="46.57111" lon="0.65013">
        <ele>83.343372373842</ele>
        <time>2021-11-17T11:42:07Z</time>
      </trkpt>
      <trkpt lat="46.57113" lon="0.65016">
        <ele>83.297861642204</ele>
        <time>2021-11-17T11:42:09Z</time>
      </trkpt>
      <trkpt lat="46.57114" lon="0.65018">
        <ele>83.313013995998</ele>
        <time>2021-11-17T11:42:11Z</time>
      </trkpt>
      <trkpt lat="46.57116" lon="0.65021">
        <ele>83.217718548141</ele>
        <time>2021-11-17T11:42:13Z</time>
      </trkpt>
      <trkpt lat="46.57118" lon="0.65023">
        <ele>82.906044112518</ele>
        <time>2021-11-17T11:42:15Z</time>
      </trkpt>
      <trkpt lat="46.57118" lon="0.65026">
        <ele>82.815818182193</ele>
        <time>2021-11-17T11:42:18Z</time>
      </trkpt>
      <trkpt lat="46.57117" lon="0.65029">
        <ele>82.555193015374</ele>
        <time>2021-11-17T11:42:20Z</time>
      </trkpt>
      <trkpt lat="46.57116" lon="0.65034">
        <ele>81.414111601189</ele>
        <time>2021-11-17T11:42:23Z</time>
      </trkpt>
      <trkpt lat="46.57115" lon="0.65036">
        <ele>80.885007291101</ele>
        <time>2021-11-17T11:42:25Z</time>
      </trkpt>
      <trkpt lat="46.57114" lon="0.65039">
        <ele>80.564127772115</ele>
        <time>2021-11-17T11:42:27Z</time>
      </trkpt>
      <trkpt lat="46.57114" lon="0.65041">
        <ele>80.058583436534</ele>
        <time>2021-11-17T11:42:29Z</time>
      </trkpt>
      <trkpt lat="46.57113" lon="0.65044">
        <ele>79.429702891968</ele>
        <time>2021-11-17T11:42:33Z</time>
      </trkpt>
      <trkpt lat="46.57113" lon="0.65047">
        <ele>79.086003210396</ele>
        <time>2021-11-17T11:42:35Z</time>
      </trkpt>
      <trkpt lat="46.57112" lon="0.65049">
        <ele>78.289664587937</ele>
        <time>2021-11-17T11:42:39Z</time>
      </trkpt>
      <trkpt lat="46.57109" lon="0.6505">
        <ele>78.190643530339</ele>
        <time>2021-11-17T11:42:50Z</time>
      </trkpt>
      <trkpt lat="46.57109" lon="0.65053">
        <ele>77.501978565939</ele>
        <time>2021-11-17T11:43:01Z</time>
      </trkpt>
      <trkpt lat="46.5711" lon="0.65055">
        <ele>77.345419007353</ele>
        <time>2021-11-17T11:43:03Z</time>
      </trkpt>
      <trkpt lat="46.57111" lon="0.65059">
        <ele>77.402842621319</ele>
        <time>2021-11-17T11:43:05Z</time>
      </trkpt>
      <trkpt lat="46.57113" lon="0.65061">
        <ele>77.48836207483</ele>
        <time>2021-11-17T11:43:07Z</time>
      </trkpt>
      <trkpt lat="46.57114" lon="0.65064">
        <ele>77.534972269088</ele>
        <time>2021-11-17T11:43:09Z</time>
      </trkpt>
      <trkpt lat="46.57114" lon="0.65068">
        <ele>77.307681214996</ele>
        <time>2021-11-17T11:43:13Z</time>
      </trkpt>
      <trkpt lat="46.57114" lon="0.65072">
        <ele>77.016352153383</ele>
        <time>2021-11-17T11:43:15Z</time>
      </trkpt>
      <trkpt lat="46.57112" lon="0.65075">
        <ele>76.661506687291</ele>
        <time>2021-11-17T11:43:18Z</time>
      </trkpt>
      <trkpt lat="46.57112" lon="0.65079">
        <ele>76.042867952026</ele>
        <time>2021-11-17T11:43:21Z</time>
      </trkpt>
      <trkpt lat="46.5711" lon="0.65081">
        <ele>75.777460173704</ele>
        <time>2021-11-17T11:43:23Z</time>
      </trkpt>
      <trkpt lat="46.5711" lon="0.65084">
        <ele>75.166927309707</ele>
        <time>2021-11-17T11:43:26Z</time>
      </trkpt>
      <trkpt lat="46.57108" lon="0.65086">
        <ele>75.071344669908</ele>
        <time>2021-11-17T11:43:28Z</time>
      </trkpt>
      <trkpt lat="46.57107" lon="0.65089">
        <ele>75.053301831707</ele>
        <time>2021-11-17T11:43:30Z</time>
      </trkpt>
      <trkpt lat="46.57105" lon="0.65091">
        <ele>74.797335651703</ele>
        <time>2021-11-17T11:43:32Z</time>
      </trkpt>
      <trkpt lat="46.57102" lon="0.65093">
        <ele>74.084752822295</ele>
        <time>2021-11-17T11:43:34Z</time>
      </trkpt>
      <trkpt lat="46.571" lon="0.65094">
        <ele>73.887463770807</ele>
        <time>2021-11-17T11:43:36Z</time>
      </trkpt>
      <trkpt lat="46.57097" lon="0.65096">
        <ele>73.517267378047</ele>
        <time>2021-11-17T11:43:38Z</time>
      </trkpt>
      <trkpt lat="46.57096" lon="0.65097">
        <ele>73.381092258729</ele>
        <time>2021-11-17T11:43:40Z</time>
      </trkpt>
      <trkpt lat="46.57094" lon="0.651">
        <ele>73.315538741648</ele>
        <time>2021-11-17T11:43:42Z</time>
      </trkpt>
      <trkpt lat="46.57092" lon="0.65103">
        <ele>72.791881267913</ele>
        <time>2021-11-17T11:43:44Z</time>
      </trkpt>
      <trkpt lat="46.57091" lon="0.65105">
        <ele>72.342130155303</ele>
        <time>2021-11-17T11:43:46Z</time>
      </trkpt>
      <trkpt lat="46.57089" lon="0.65108">
        <ele>72.248807850294</ele>
        <time>2021-11-17T11:43:48Z</time>
      </trkpt>
      <trkpt lat="46.57087" lon="0.6511">
        <ele>72.099235784262</ele>
        <time>2021-11-17T11:43:50Z</time>
      </trkpt>
      <trkpt lat="46.57085" lon="0.65112">
        <ele>71.830672764219</ele>
        <time>2021-11-17T11:43:52Z</time>
      </trkpt>
      <trkpt lat="46.57083" lon="0.65114">
        <ele>71.45904644765</ele>
        <time>2021-11-17T11:43:54Z</time>
      </trkpt>
      <trkpt lat="46.57081" lon="0.65115">
        <ele>71.607947320677</ele>
        <time>2021-11-17T11:43:57Z</time>
      </trkpt>
      <trkpt lat="46.57079" lon="0.65117">
        <ele>71.308203241788</ele>
        <time>2021-11-17T11:44:01Z</time>
      </trkpt>
      <trkpt lat="46.57076" lon="0.65117">
        <ele>71.083870965987</ele>
        <time>2021-11-17T11:44:03Z</time>
      </trkpt>
      <trkpt lat="46.57074" lon="0.65118">
        <ele>71.335998528637</ele>
        <time>2021-11-17T11:44:05Z</time>
      </trkpt>
      <trkpt lat="46.57072" lon="0.65117">
        <ele>70.760365858674</ele>
        <time>2021-11-17T11:44:07Z</time>
      </trkpt>
      <trkpt lat="46.5707" lon="0.65118">
        <ele>71.106561355293</ele>
        <time>2021-11-17T11:44:09Z</time>
      </trkpt>
      <trkpt lat="46.57067" lon="0.65119">
        <ele>70.645786678419</ele>
        <time>2021-11-17T11:44:10Z</time>
      </trkpt>
      <trkpt lat="46.57065" lon="0.6512">
        <ele>70.695615537465</ele>
        <time>2021-11-17T11:44:12Z</time>
      </trkpt>
      <trkpt lat="46.57062" lon="0.65122">
        <ele>70.826851827092</ele>
        <time>2021-11-17T11:44:14Z</time>
      </trkpt>
      <trkpt lat="46.57059" lon="0.65122">
        <ele>70.227203736082</ele>
        <time>2021-11-17T11:44:16Z</time>
      </trkpt>
      <trkpt lat="46.57057" lon="0.65122">
        <ele>70.949004122987</ele>
        <time>2021-11-17T11:44:18Z</time>
      </trkpt>
      <trkpt lat="46.57055" lon="0.65122">
        <ele>70.52492342703</ele>
        <time>2021-11-17T11:44:20Z</time>
      </trkpt>
      <trkpt lat="46.57053" lon="0.65121">
        <ele>70.610763606615</ele>
        <time>2021-11-17T11:44:22Z</time>
      </trkpt>
      <trkpt lat="46.57049" lon="0.65121">
        <ele>70.490133814514</ele>
        <time>2021-11-17T11:44:25Z</time>
      </trkpt>
      <trkpt lat="46.57047" lon="0.65121">
        <ele>70.612784034573</ele>
        <time>2021-11-17T11:44:29Z</time>
      </trkpt>
      <trkpt lat="46.57045" lon="0.65121">
        <ele>70.619109311141</ele>
        <time>2021-11-17T11:44:30Z</time>
      </trkpt>
      <trkpt lat="46.57043" lon="0.65121">
        <ele>70.494251689874</ele>
        <time>2021-11-17T11:44:31Z</time>
      </trkpt>
      <trkpt lat="46.5704" lon="0.6512">
        <ele>70.632716467604</ele>
        <time>2021-11-17T11:44:33Z</time>
      </trkpt>
      <trkpt lat="46.57039" lon="0.65119">
        <ele>70.43315066956</ele>
        <time>2021-11-17T11:44:35Z</time>
      </trkpt>
      <trkpt lat="46.57037" lon="0.65117">
        <ele>70.426518457942</ele>
        <time>2021-11-17T11:44:39Z</time>
      </trkpt>
      <trkpt lat="46.57035" lon="0.65117">
        <ele>70.591775789857</ele>
        <time>2021-11-17T11:44:41Z</time>
      </trkpt>
      <trkpt lat="46.57033" lon="0.65116">
        <ele>70.276067446917</ele>
        <time>2021-11-17T11:44:43Z</time>
      </trkpt>
      <trkpt lat="46.5703" lon="0.65115">
        <ele>70.730469767004</ele>
        <time>2021-11-17T11:44:45Z</time>
      </trkpt>
      <trkpt lat="46.57028" lon="0.65115">
        <ele>70.453992665745</ele>
        <time>2021-11-17T11:44:47Z</time>
      </trkpt>
      <trkpt lat="46.57026" lon="0.65114">
        <ele>70.591716229916</ele>
        <time>2021-11-17T11:44:49Z</time>
      </trkpt>
      <trkpt lat="46.57024" lon="0.65112">
        <ele>70.313334012404</ele>
        <time>2021-11-17T11:44:51Z</time>
      </trkpt>
      <trkpt lat="46.57021" lon="0.65111">
        <ele>70.497898406349</ele>
        <time>2021-11-17T11:44:54Z</time>
      </trkpt>
      <trkpt lat="46.57018" lon="0.65111">
        <ele>70.799523452297</ele>
        <time>2021-11-17T11:44:56Z</time>
      </trkpt>
      <trkpt lat="46.57016" lon="0.6511">
        <ele>70.390844745561</ele>
        <time>2021-11-17T11:44:58Z</time>
      </trkpt>
      <trkpt lat="46.57013" lon="0.6511">
        <ele>70.404825398698</ele>
        <time>2021-11-17T11:45:00Z</time>
      </trkpt>
      <trkpt lat="46.5701" lon="0.65109">
        <ele>70.289659322239</ele>
        <time>2021-11-17T11:45:02Z</time>
      </trkpt>
      <trkpt lat="46.57007" lon="0.65109">
        <ele>70.4939952977</ele>
        <time>2021-11-17T11:45:04Z</time>
      </trkpt>
      <trkpt lat="46.57005" lon="0.65107">
        <ele>70.495395698585</ele>
        <time>2021-11-17T11:45:06Z</time>
      </trkpt>
      <trkpt lat="46.57003" lon="0.65106">
        <ele>70.358631819487</ele>
        <time>2021-11-17T11:45:08Z</time>
      </trkpt>
      <trkpt lat="46.57" lon="0.65107">
        <ele>70.041156074964</ele>
        <time>2021-11-17T11:45:11Z</time>
      </trkpt>
      <trkpt lat="46.56998" lon="0.65108">
        <ele>70.125161099248</ele>
        <time>2021-11-17T11:45:13Z</time>
      </trkpt>
      <trkpt lat="46.56996" lon="0.65107">
        <ele>70.062614868395</ele>
        <time>2021-11-17T11:45:15Z</time>
      </trkpt>
      <trkpt lat="46.56993" lon="0.65107">
        <ele>71.08161206264</ele>
        <time>2021-11-17T11:45:18Z</time>
      </trkpt>
      <trkpt lat="46.56991" lon="0.65106">
        <ele>70.477302459069</ele>
        <time>2021-11-17T11:45:20Z</time>
      </trkpt>
      <trkpt lat="46.56989" lon="0.65105">
        <ele>70.642327086069</ele>
        <time>2021-11-17T11:45:22Z</time>
      </trkpt>
      <trkpt lat="46.56986" lon="0.65104">
        <ele>70.452463783324</ele>
        <time>2021-11-17T11:45:24Z</time>
      </trkpt>
      <trkpt lat="46.56985" lon="0.65103">
        <ele>69.540166731924</ele>
        <time>2021-11-17T11:45:27Z</time>
      </trkpt>
      <trkpt lat="46.56983" lon="0.65102">
        <ele>69.963162653148</ele>
        <time>2021-11-17T11:45:29Z</time>
      </trkpt>
      <trkpt lat="46.56981" lon="0.65099">
        <ele>69.710438865237</ele>
        <time>2021-11-17T11:45:32Z</time>
      </trkpt>
      <trkpt lat="46.5698" lon="0.65096">
        <ele>70.006217155606</ele>
        <time>2021-11-17T11:45:34Z</time>
      </trkpt>
      <trkpt lat="46.56981" lon="0.65093">
        <ele>69.848638626747</ele>
        <time>2021-11-17T11:45:36Z</time>
      </trkpt>
      <trkpt lat="46.56981" lon="0.6509">
        <ele>69.747005295008</ele>
        <time>2021-11-17T11:45:38Z</time>
      </trkpt>
      <trkpt lat="46.56982" lon="0.65087">
        <ele>70.409737095237</ele>
        <time>2021-11-17T11:45:40Z</time>
      </trkpt>
      <trkpt lat="46.56983" lon="0.65084">
        <ele>70.12028468959</ele>
        <time>2021-11-17T11:45:42Z</time>
      </trkpt>
      <trkpt lat="46.56983" lon="0.65082">
        <ele>70.336607566103</ele>
        <time>2021-11-17T11:45:44Z</time>
      </trkpt>
      <trkpt lat="46.56983" lon="0.65079">
        <ele>70.050894323736</ele>
        <time>2021-11-17T11:45:46Z</time>
      </trkpt>
      <trkpt lat="46.56983" lon="0.65076">
        <ele>70.065078496002</ele>
        <time>2021-11-17T11:45:48Z</time>
      </trkpt>
      <trkpt lat="46.56984" lon="0.65072">
        <ele>70.436000647023</ele>
        <time>2021-11-17T11:45:50Z</time>
      </trkpt>
      <trkpt lat="46.56983" lon="0.65069">
        <ele>70.282471778803</ele>
        <time>2021-11-17T11:45:52Z</time>
      </trkpt>
      <trkpt lat="46.56983" lon="0.65065">
        <ele>70.185899721459</ele>
        <time>2021-11-17T11:45:54Z</time>
      </trkpt>
      <trkpt lat="46.56982" lon="0.65062">
        <ele>70.194478292949</ele>
        <time>2021-11-17T11:45:56Z</time>
      </trkpt>
      <trkpt lat="46.56982" lon="0.65059">
        <ele>70.188242691569</ele>
        <time>2021-11-17T11:45:58Z</time>
      </trkpt>
      <trkpt lat="46.56981" lon="0.65057">
        <ele>70.10454830993</ele>
        <time>2021-11-17T11:46:00Z</time>
      </trkpt>
      <trkpt lat="46.56979" lon="0.65054">
        <ele>70.230520324782</ele>
        <time>2021-11-17T11:46:02Z</time>
      </trkpt>
      <trkpt lat="46.56978" lon="0.65051">
        <ele>70.143406622112</ele>
        <time>2021-11-17T11:46:04Z</time>
      </trkpt>
      <trkpt lat="46.56975" lon="0.65049">
        <ele>70.070941232145</ele>
        <time>2021-11-17T11:46:06Z</time>
      </trkpt>
      <trkpt lat="46.56973" lon="0.65048">
        <ele>70.326270645484</ele>
        <time>2021-11-17T11:46:08Z</time>
      </trkpt>
      <trkpt lat="46.5697" lon="0.65048">
        <ele>70.125507363118</ele>
        <time>2021-11-17T11:46:10Z</time>
      </trkpt>
      <trkpt lat="46.56968" lon="0.65047">
        <ele>70.44564151112</ele>
        <time>2021-11-17T11:46:12Z</time>
      </trkpt>
      <trkpt lat="46.56966" lon="0.65047">
        <ele>70.360197671689</ele>
        <time>2021-11-17T11:46:14Z</time>
      </trkpt>
      <trkpt lat="46.56963" lon="0.65047">
        <ele>70.256589408964</ele>
        <time>2021-11-17T11:46:16Z</time>
      </trkpt>
      <trkpt lat="46.56961" lon="0.65047">
        <ele>69.892761110328</ele>
        <time>2021-11-17T11:46:18Z</time>
      </trkpt>
      <trkpt lat="46.56958" lon="0.65047">
        <ele>70.202408570796</ele>
        <time>2021-11-17T11:46:20Z</time>
      </trkpt>
      <trkpt lat="46.56956" lon="0.65047">
        <ele>70.001859980635</ele>
        <time>2021-11-17T11:46:22Z</time>
      </trkpt>
      <trkpt lat="46.56954" lon="0.65047">
        <ele>69.928692803718</ele>
        <time>2021-11-17T11:46:24Z</time>
      </trkpt>
      <trkpt lat="46.56952" lon="0.65048">
        <ele>70.118110099807</ele>
        <time>2021-11-17T11:46:26Z</time>
      </trkpt>
      <trkpt lat="46.5695" lon="0.65048">
        <ele>69.490316459909</ele>
        <time>2021-11-17T11:46:28Z</time>
      </trkpt>
      <trkpt lat="46.56947" lon="0.65048">
        <ele>69.647421357222</ele>
        <time>2021-11-17T11:46:30Z</time>
      </trkpt>
      <trkpt lat="46.56945" lon="0.65047">
        <ele>69.39914580062</ele>
        <time>2021-11-17T11:46:32Z</time>
      </trkpt>
      <trkpt lat="46.56943" lon="0.65048">
        <ele>69.336732016876</ele>
        <time>2021-11-17T11:46:34Z</time>
      </trkpt>
      <trkpt lat="46.56941" lon="0.65048">
        <ele>69.09192107711</ele>
        <time>2021-11-17T11:46:36Z</time>
      </trkpt>
      <trkpt lat="46.56938" lon="0.65048">
        <ele>69.232392474078</ele>
        <time>2021-11-17T11:46:38Z</time>
      </trkpt>
      <trkpt lat="46.56936" lon="0.65048">
        <ele>68.979852910154</ele>
        <time>2021-11-17T11:46:40Z</time>
      </trkpt>
      <trkpt lat="46.56934" lon="0.65048">
        <ele>69.223080727272</ele>
        <time>2021-11-17T11:46:42Z</time>
      </trkpt>
      <trkpt lat="46.56931" lon="0.65048">
        <ele>69.036269783042</ele>
        <time>2021-11-17T11:46:44Z</time>
      </trkpt>
      <trkpt lat="46.56928" lon="0.65048">
        <ele>69.0647116201</ele>
        <time>2021-11-17T11:46:46Z</time>
      </trkpt>
      <trkpt lat="46.56926" lon="0.65047">
        <ele>69.201856039464</ele>
        <time>2021-11-17T11:46:48Z</time>
      </trkpt>
      <trkpt lat="46.56923" lon="0.65046">
        <ele>69.057233538479</ele>
        <time>2021-11-17T11:46:50Z</time>
      </trkpt>
      <trkpt lat="46.5692" lon="0.65046">
        <ele>68.966287134215</ele>
        <time>2021-11-17T11:46:52Z</time>
      </trkpt>
      <trkpt lat="46.56918" lon="0.65044">
        <ele>68.959383110516</ele>
        <time>2021-11-17T11:46:54Z</time>
      </trkpt>
      <trkpt lat="46.56916" lon="0.65043">
        <ele>68.951568801887</ele>
        <time>2021-11-17T11:46:56Z</time>
      </trkpt>
      <trkpt lat="46.56915" lon="0.65041">
        <ele>68.836427181959</ele>
        <time>2021-11-17T11:46:58Z</time>
      </trkpt>
      <trkpt lat="46.56912" lon="0.65038">
        <ele>68.736899845302</ele>
        <time>2021-11-17T11:47:00Z</time>
      </trkpt>
      <trkpt lat="46.56909" lon="0.65036">
        <ele>69.036342635751</ele>
        <time>2021-11-17T11:47:02Z</time>
      </trkpt>
      <trkpt lat="46.56907" lon="0.65034">
        <ele>68.876372906379</ele>
        <time>2021-11-17T11:47:04Z</time>
      </trkpt>
      <trkpt lat="46.56905" lon="0.65033">
        <ele>68.725566665642</ele>
        <time>2021-11-17T11:47:06Z</time>
      </trkpt>
      <trkpt lat="46.56903" lon="0.65032">
        <ele>69.116357285529</ele>
        <time>2021-11-17T11:47:08Z</time>
      </trkpt>
      <trkpt lat="46.56901" lon="0.65031">
        <ele>68.905775219202</ele>
        <time>2021-11-17T11:47:10Z</time>
      </trkpt>
      <trkpt lat="46.56899" lon="0.6503">
        <ele>69.159159387462</ele>
        <time>2021-11-17T11:47:12Z</time>
      </trkpt>
      <trkpt lat="46.56896" lon="0.6503">
        <ele>69.206629554741</ele>
        <time>2021-11-17T11:47:14Z</time>
      </trkpt>
      <trkpt lat="46.56894" lon="0.65029">
        <ele>69.386982552707</ele>
        <time>2021-11-17T11:47:16Z</time>
      </trkpt>
      <trkpt lat="46.56892" lon="0.65028">
        <ele>69.468215953559</ele>
        <time>2021-11-17T11:47:18Z</time>
      </trkpt>
      <trkpt lat="46.56889" lon="0.65027">
        <ele>69.363103390671</ele>
        <time>2021-11-17T11:47:20Z</time>
      </trkpt>
      <trkpt lat="46.56887" lon="0.65028">
        <ele>69.228532009758</ele>
        <time>2021-11-17T11:47:22Z</time>
      </trkpt>
      <trkpt lat="46.56884" lon="0.65026">
        <ele>69.455659471452</ele>
        <time>2021-11-17T11:47:24Z</time>
      </trkpt>
      <trkpt lat="46.56882" lon="0.65026">
        <ele>69.305865183473</ele>
        <time>2021-11-17T11:47:26Z</time>
      </trkpt>
      <trkpt lat="46.56879" lon="0.65024">
        <ele>69.480149379</ele>
        <time>2021-11-17T11:47:28Z</time>
      </trkpt>
      <trkpt lat="46.56876" lon="0.65023">
        <ele>69.326288991608</ele>
        <time>2021-11-17T11:47:30Z</time>
      </trkpt>
      <trkpt lat="46.56874" lon="0.6502">
        <ele>69.73463223502</ele>
        <time>2021-11-17T11:47:32Z</time>
      </trkpt>
      <trkpt lat="46.56871" lon="0.65018">
        <ele>69.583949874155</ele>
        <time>2021-11-17T11:47:34Z</time>
      </trkpt>
      <trkpt lat="46.56869" lon="0.65017">
        <ele>69.768277398311</ele>
        <time>2021-11-17T11:47:36Z</time>
      </trkpt>
      <trkpt lat="46.56867" lon="0.65017">
        <ele>69.88080579415</ele>
        <time>2021-11-17T11:47:38Z</time>
      </trkpt>
      <trkpt lat="46.56864" lon="0.65017">
        <ele>69.718973148614</ele>
        <time>2021-11-17T11:47:41Z</time>
      </trkpt>
      <trkpt lat="46.56862" lon="0.65017">
        <ele>69.686041153036</ele>
        <time>2021-11-17T11:47:44Z</time>
      </trkpt>
      <trkpt lat="46.5686" lon="0.65018">
        <ele>69.669426675886</ele>
        <time>2021-11-17T11:47:46Z</time>
      </trkpt>
      <trkpt lat="46.56858" lon="0.65018">
        <ele>69.381740684621</ele>
        <time>2021-11-17T11:47:48Z</time>
      </trkpt>
      <trkpt lat="46.56856" lon="0.65017">
        <ele>69.591173305176</ele>
        <time>2021-11-17T11:47:51Z</time>
      </trkpt>
      <trkpt lat="46.56854" lon="0.65016">
        <ele>69.822075987235</ele>
        <time>2021-11-17T11:47:53Z</time>
      </trkpt>
      <trkpt lat="46.56851" lon="0.65015">
        <ele>69.479300334118</ele>
        <time>2021-11-17T11:47:56Z</time>
      </trkpt>
      <trkpt lat="46.56849" lon="0.65015">
        <ele>69.718732886948</ele>
        <time>2021-11-17T11:47:58Z</time>
      </trkpt>
      <trkpt lat="46.56847" lon="0.65015">
        <ele>69.652255626395</ele>
        <time>2021-11-17T11:48:00Z</time>
      </trkpt>
      <trkpt lat="46.56844" lon="0.65014">
        <ele>69.38356926199</ele>
        <time>2021-11-17T11:48:02Z</time>
      </trkpt>
      <trkpt lat="46.56842" lon="0.65013">
        <ele>69.418382575735</ele>
        <time>2021-11-17T11:48:04Z</time>
      </trkpt>
      <trkpt lat="46.56839" lon="0.65013">
        <ele>69.255561322905</ele>
        <time>2021-11-17T11:48:07Z</time>
      </trkpt>
      <trkpt lat="46.56838" lon="0.65012">
        <ele>69.791281172074</ele>
        <time>2021-11-17T11:48:09Z</time>
      </trkpt>
      <trkpt lat="46.56835" lon="0.65012">
        <ele>69.736656229943</ele>
        <time>2021-11-17T11:48:12Z</time>
      </trkpt>
      <trkpt lat="46.56833" lon="0.65012">
        <ele>69.444483728148</ele>
        <time>2021-11-17T11:48:15Z</time>
      </trkpt>
      <trkpt lat="46.56831" lon="0.65012">
        <ele>69.323614940047</ele>
        <time>2021-11-17T11:48:17Z</time>
      </trkpt>
      <trkpt lat="46.56828" lon="0.65013">
        <ele>69.738962074742</ele>
        <time>2021-11-17T11:48:20Z</time>
      </trkpt>
      <trkpt lat="46.56826" lon="0.65014">
        <ele>69.198252595961</ele>
        <time>2021-11-17T11:48:22Z</time>
      </trkpt>
      <trkpt lat="46.56825" lon="0.65014">
        <ele>69.030676115304</ele>
        <time>2021-11-17T11:48:24Z</time>
      </trkpt>
      <trkpt lat="46.56822" lon="0.65015">
        <ele>69.128259204328</ele>
        <time>2021-11-17T11:48:26Z</time>
      </trkpt>
      <trkpt lat="46.56821" lon="0.65015">
        <ele>68.781248836778</ele>
        <time>2021-11-17T11:48:28Z</time>
      </trkpt>
      <trkpt lat="46.56818" lon="0.65015">
        <ele>68.949649446644</ele>
        <time>2021-11-17T11:48:30Z</time>
      </trkpt>
      <trkpt lat="46.56815" lon="0.65017">
        <ele>69.019679694436</ele>
        <time>2021-11-17T11:48:33Z</time>
      </trkpt>
      <trkpt lat="46.56813" lon="0.65019">
        <ele>68.583478941582</ele>
        <time>2021-11-17T11:48:36Z</time>
      </trkpt>
      <trkpt lat="46.56811" lon="0.6502">
        <ele>68.367853477597</ele>
        <time>2021-11-17T11:48:38Z</time>
      </trkpt>
      <trkpt lat="46.56809" lon="0.6502">
        <ele>68.244783591479</ele>
        <time>2021-11-17T11:48:40Z</time>
      </trkpt>
      <trkpt lat="46.56807" lon="0.65021">
        <ele>68.013793045655</ele>
        <time>2021-11-17T11:48:43Z</time>
      </trkpt>
      <trkpt lat="46.56804" lon="0.65023">
        <ele>68.141409281641</ele>
        <time>2021-11-17T11:48:45Z</time>
      </trkpt>
      <trkpt lat="46.56802" lon="0.65023">
        <ele>67.870114038698</ele>
        <time>2021-11-17T11:48:47Z</time>
      </trkpt>
      <trkpt lat="46.568" lon="0.65022">
        <ele>67.711357817985</ele>
        <time>2021-11-17T11:48:49Z</time>
      </trkpt>
      <trkpt lat="46.56798" lon="0.65022">
        <ele>67.865849100053</ele>
        <time>2021-11-17T11:48:51Z</time>
      </trkpt>
      <trkpt lat="46.56795" lon="0.65021">
        <ele>67.898494734429</ele>
        <time>2021-11-17T11:48:53Z</time>
      </trkpt>
      <trkpt lat="46.56793" lon="0.6502">
        <ele>67.748092828318</ele>
        <time>2021-11-17T11:48:56Z</time>
      </trkpt>
      <trkpt lat="46.56791" lon="0.65019">
        <ele>67.945620576851</ele>
        <time>2021-11-17T11:48:59Z</time>
      </trkpt>
      <trkpt lat="46.56789" lon="0.65017">
        <ele>67.768469206057</ele>
        <time>2021-11-17T11:49:01Z</time>
      </trkpt>
      <trkpt lat="46.56787" lon="0.65016">
        <ele>67.768619071692</ele>
        <time>2021-11-17T11:49:03Z</time>
      </trkpt>
      <trkpt lat="46.56785" lon="0.65014">
        <ele>67.895080445334</ele>
        <time>2021-11-17T11:49:05Z</time>
      </trkpt>
      <trkpt lat="46.56784" lon="0.65011">
        <ele>68.159420805983</ele>
        <time>2021-11-17T11:49:07Z</time>
      </trkpt>
      <trkpt lat="46.56782" lon="0.65009">
        <ele>68.416715131141</ele>
        <time>2021-11-17T11:49:09Z</time>
      </trkpt>
      <trkpt lat="46.56781" lon="0.65007">
        <ele>68.365089661442</ele>
        <time>2021-11-17T11:49:11Z</time>
      </trkpt>
      <trkpt lat="46.5678" lon="0.65005">
        <ele>68.484739601612</ele>
        <time>2021-11-17T11:49:13Z</time>
      </trkpt>
      <trkpt lat="46.56778" lon="0.65002">
        <ele>68.530537570827</ele>
        <time>2021-11-17T11:49:16Z</time>
      </trkpt>
      <trkpt lat="46.56777" lon="0.65">
        <ele>68.811162452213</ele>
        <time>2021-11-17T11:49:18Z</time>
      </trkpt>
      <trkpt lat="46.56774" lon="0.64999">
        <ele>69.198541541584</ele>
        <time>2021-11-17T11:49:20Z</time>
      </trkpt>
      <trkpt lat="46.56772" lon="0.64996">
        <ele>69.322403272614</ele>
        <time>2021-11-17T11:49:22Z</time>
      </trkpt>
      <trkpt lat="46.5677" lon="0.64994">
        <ele>69.520199732855</ele>
        <time>2021-11-17T11:49:24Z</time>
      </trkpt>
      <trkpt lat="46.56769" lon="0.64992">
        <ele>69.644220697694</ele>
        <time>2021-11-17T11:49:26Z</time>
      </trkpt>
      <trkpt lat="46.56768" lon="0.64988">
        <ele>69.938362505287</ele>
        <time>2021-11-17T11:49:29Z</time>
      </trkpt>
      <trkpt lat="46.56767" lon="0.64991">
        <ele>70.057653527707</ele>
        <time>2021-11-17T11:49:39Z</time>
      </trkpt>
      <trkpt lat="46.56768" lon="0.64993">
        <ele>70.099783563986</ele>
        <time>2021-11-17T11:49:43Z</time>
      </trkpt>
      <trkpt lat="46.56768" lon="0.64996">
        <ele>70.240863710642</ele>
        <time>2021-11-17T11:49:45Z</time>
      </trkpt>
      <trkpt lat="46.56769" lon="0.65">
        <ele>70.08032337483</ele>
        <time>2021-11-17T11:49:50Z</time>
      </trkpt>
      <trkpt lat="46.56771" lon="0.65002">
        <ele>69.813843455166</ele>
        <time>2021-11-17T11:49:54Z</time>
      </trkpt>
      <trkpt lat="46.5677" lon="0.65004">
        <ele>70.081103453413</ele>
        <time>2021-11-17T11:50:08Z</time>
      </trkpt>
      <trkpt lat="46.56769" lon="0.65007">
        <ele>69.468651178293</ele>
        <time>2021-11-17T11:50:14Z</time>
      </trkpt>
      <trkpt lat="46.56768" lon="0.65004">
        <ele>69.570553275757</ele>
        <time>2021-11-17T11:50:22Z</time>
      </trkpt>
      <trkpt lat="46.5677" lon="0.65004">
        <ele>69.673773201182</ele>
        <time>2021-11-17T11:50:42Z</time>
      </trkpt>
      <trkpt lat="46.56773" lon="0.65002">
        <ele>69.315390513279</ele>
        <time>2021-11-17T11:50:55Z</time>
      </trkpt>
      <trkpt lat="46.56772" lon="0.65005">
        <ele>69.729575759731</ele>
        <time>2021-11-17T11:51:00Z</time>
      </trkpt>
      <trkpt lat="46.5677" lon="0.65009">
        <ele>69.374723606743</ele>
        <time>2021-11-17T11:51:07Z</time>
      </trkpt>
      <trkpt lat="46.56769" lon="0.65006">
        <ele>69.3074991256</ele>
        <time>2021-11-17T11:51:16Z</time>
      </trkpt>
      <trkpt lat="46.56769" lon="0.65003">
        <ele>69.413811411709</ele>
        <time>2021-11-17T11:51:26Z</time>
      </trkpt>
      <trkpt lat="46.56767" lon="0.65">
        <ele>69.523095392622</ele>
        <time>2021-11-17T11:51:44Z</time>
      </trkpt>
      <trkpt lat="46.56765" lon="0.64995">
        <ele>69.589645591564</ele>
        <time>2021-11-17T11:52:11Z</time>
      </trkpt>
      <trkpt lat="46.56767" lon="0.64996">
        <ele>69.833455418237</ele>
        <time>2021-11-17T11:52:23Z</time>
      </trkpt>
      <trkpt lat="46.56769" lon="0.64995">
        <ele>70.037203381769</ele>
        <time>2021-11-17T11:52:57Z</time>
      </trkpt>
      <trkpt lat="46.56769" lon="0.64992">
        <ele>70.006504480727</ele>
        <time>2021-11-17T11:53:00Z</time>
      </trkpt>
      <trkpt lat="46.56768" lon="0.64999">
        <ele>69.83199159801</ele>
        <time>2021-11-17T11:53:38Z</time>
      </trkpt>
      <trkpt lat="46.56771" lon="0.65001">
        <ele>69.932158421725</ele>
        <time>2021-11-17T11:54:06Z</time>
      </trkpt>
      <trkpt lat="46.56769" lon="0.65004">
        <ele>69.930682888255</ele>
        <time>2021-11-17T11:54:26Z</time>
      </trkpt>
      <trkpt lat="46.5677" lon="0.65007">
        <ele>69.661296681501</ele>
        <time>2021-11-17T11:54:55Z</time>
      </trkpt>
      <trkpt lat="46.56768" lon="0.65004">
        <ele>69.321199594997</ele>
        <time>2021-11-17T11:56:06Z</time>
      </trkpt>
      <trkpt lat="46.5677" lon="0.65001">
        <ele>69.477376928553</ele>
        <time>2021-11-17T11:56:20Z</time>
      </trkpt>
      <trkpt lat="46.56774" lon="0.6501">
        <ele>69.848382011056</ele>
        <time>2021-11-17T11:57:02Z</time>
      </trkpt>
      <trkpt lat="46.56771" lon="0.65005">
        <ele>69.097069969401</ele>
        <time>2021-11-17T11:57:41Z</time>
      </trkpt>
      <trkpt lat="46.56766" lon="0.65002">
        <ele>69.74171194341</ele>
        <time>2021-11-17T11:57:57Z</time>
      </trkpt>
      <trkpt lat="46.56768" lon="0.65002">
        <ele>69.799767575227</ele>
        <time>2021-11-17T11:58:52Z</time>
      </trkpt>
      <trkpt lat="46.56767" lon="0.64999">
        <ele>69.907192803919</ele>
        <time>2021-11-17T12:00:11Z</time>
      </trkpt>
      <trkpt lat="46.56777" lon="0.65004">
        <ele>70.085801564157</ele>
        <time>2021-11-17T12:01:27Z</time>
      </trkpt>
      <trkpt lat="46.56772" lon="0.65">
        <ele>69.788516964763</ele>
        <time>2021-11-17T12:01:33Z</time>
      </trkpt>
      <trkpt lat="46.56768" lon="0.64999">
        <ele>69.819022844546</ele>
        <time>2021-11-17T12:01:47Z</time>
      </trkpt>
      <trkpt lat="46.56767" lon="0.65003">
        <ele>70.236562568694</ele>
        <time>2021-11-17T12:01:56Z</time>
      </trkpt>
      <trkpt lat="46.5677" lon="0.65003">
        <ele>69.745108887553</ele>
        <time>2021-11-17T12:02:25Z</time>
      </trkpt>
      <trkpt lat="46.56772" lon="0.65004">
        <ele>69.599852492101</ele>
        <time>2021-11-17T12:03:55Z</time>
      </trkpt>
      <trkpt lat="46.5677" lon="0.65003">
        <ele>69.635767442174</ele>
        <time>2021-11-17T12:06:03Z</time>
      </trkpt>
      <trkpt lat="46.56769" lon="0.64999">
        <ele>69.633867885917</ele>
        <time>2021-11-17T12:06:18Z</time>
      </trkpt>
      <trkpt lat="46.56771" lon="0.65">
        <ele>70.057140787132</ele>
        <time>2021-11-17T12:06:22Z</time>
      </trkpt>
      <trkpt lat="46.5677" lon="0.65004">
        <ele>70.136744200252</ele>
        <time>2021-11-17T12:08:45Z</time>
      </trkpt>
      <trkpt lat="46.56768" lon="0.65012">
        <ele>69.668600115925</ele>
        <time>2021-11-17T12:10:43Z</time>
      </trkpt>
      <trkpt lat="46.56766" lon="0.65006">
        <ele>69.06822543405</ele>
        <time>2021-11-17T12:10:55Z</time>
      </trkpt>
      <trkpt lat="46.56764" lon="0.65004">
        <ele>68.834339275956</ele>
        <time>2021-11-17T12:10:59Z</time>
      </trkpt>
      <trkpt lat="46.56768" lon="0.65005">
        <ele>69.540938175283</ele>
        <time>2021-11-17T12:11:11Z</time>
      </trkpt>
      <trkpt lat="46.56771" lon="0.64999">
        <ele>69.549847746268</ele>
        <time>2021-11-17T12:11:48Z</time>
      </trkpt>
      <trkpt lat="46.56769" lon="0.65">
        <ele>70.171199341305</ele>
        <time>2021-11-17T12:11:53Z</time>
      </trkpt>
      <trkpt lat="46.56767" lon="0.65001">
        <ele>69.454609702341</ele>
        <time>2021-11-17T12:12:16Z</time>
      </trkpt>
      <trkpt lat="46.56767" lon="0.65004">
        <ele>69.680338218808</ele>
        <time>2021-11-17T12:12:25Z</time>
      </trkpt>
      <trkpt lat="46.56768" lon="0.65001">
        <ele>69.800065295771</ele>
        <time>2021-11-17T12:12:28Z</time>
      </trkpt>
      <trkpt lat="46.56769" lon="0.64998">
        <ele>69.821128484793</ele>
        <time>2021-11-17T12:12:31Z</time>
      </trkpt>
      <trkpt lat="46.5677" lon="0.64997">
        <ele>69.915048436262</ele>
        <time>2021-11-17T12:12:38Z</time>
      </trkpt>
      <trkpt lat="46.56772" lon="0.64996">
        <ele>69.903574527241</ele>
        <time>2021-11-17T12:12:48Z</time>
      </trkpt>
      <trkpt lat="46.56772" lon="0.64993">
        <ele>69.405965789221</ele>
        <time>2021-11-17T12:13:00Z</time>
      </trkpt>
      <trkpt lat="46.56773" lon="0.64996">
        <ele>70.25482524652</ele>
        <time>2021-11-17T12:13:26Z</time>
      </trkpt>
      <trkpt lat="46.56771" lon="0.64998">
        <ele>69.840570339933</ele>
        <time>2021-11-17T12:13:43Z</time>
      </trkpt>
      <trkpt lat="46.56771" lon="0.64995">
        <ele>69.768565599807</ele>
        <time>2021-11-17T12:13:50Z</time>
      </trkpt>
      <trkpt lat="46.56772" lon="0.64995">
        <ele>69.503031887114</ele>
        <time>2021-11-17T12:13:58Z</time>
      </trkpt>
      <trkpt lat="46.56772" lon="0.64998">
        <ele>69.238191071898</ele>
        <time>2021-11-17T12:14:00Z</time>
      </trkpt>
      <trkpt lat="46.56773" lon="0.64994">
        <ele>69.487190282904</ele>
        <time>2021-11-17T12:14:06Z</time>
      </trkpt>
      <trkpt lat="46.56771" lon="0.64992">
        <ele>70.115046447143</ele>
        <time>2021-11-17T12:14:10Z</time>
      </trkpt>
      <trkpt lat="46.56772" lon="0.6499">
        <ele>70.006936703809</ele>
        <time>2021-11-17T12:14:16Z</time>
      </trkpt>
      <trkpt lat="46.56773" lon="0.64988">
        <ele>69.59551782161</ele>
        <time>2021-11-17T12:14:19Z</time>
      </trkpt>
      <trkpt lat="46.56773" lon="0.64991">
        <ele>70.161482514814</ele>
        <time>2021-11-17T12:14:24Z</time>
      </trkpt>
      <trkpt lat="46.56771" lon="0.64993">
        <ele>69.488454315811</ele>
        <time>2021-11-17T12:14:31Z</time>
      </trkpt>
      <trkpt lat="46.56773" lon="0.64997">
        <ele>70.540425170213</ele>
        <time>2021-11-17T12:16:09Z</time>
      </trkpt>
      <trkpt lat="46.56771" lon="0.64995">
        <ele>69.459980843589</ele>
        <time>2021-11-17T12:16:13Z</time>
      </trkpt>
      <trkpt lat="46.56772" lon="0.64997">
        <ele>69.691392008215</ele>
        <time>2021-11-17T12:16:20Z</time>
      </trkpt>
      <trkpt lat="46.56771" lon="0.64999">
        <ele>69.836384546012</ele>
        <time>2021-11-17T12:16:26Z</time>
      </trkpt>
      <trkpt lat="46.56771" lon="0.64985">
        <ele>69.936608036049</ele>
        <time>2021-11-17T12:16:52Z</time>
      </trkpt>
      <trkpt lat="46.5677" lon="0.64988">
        <ele>69.669140503742</ele>
        <time>2021-11-17T12:16:53Z</time>
      </trkpt>
      <trkpt lat="46.56769" lon="0.6499">
        <ele>69.511916324496</ele>
        <time>2021-11-17T12:16:55Z</time>
      </trkpt>
      <trkpt lat="46.56768" lon="0.64992">
        <ele>69.424315632321</ele>
        <time>2021-11-17T12:16:58Z</time>
      </trkpt>
      <trkpt lat="46.56768" lon="0.64996">
        <ele>70.352826895192</ele>
        <time>2021-11-17T12:17:14Z</time>
      </trkpt>
      <trkpt lat="46.56765" lon="0.64994">
        <ele>69.874715170823</ele>
        <time>2021-11-17T12:17:19Z</time>
      </trkpt>
      <trkpt lat="46.56763" lon="0.64991">
        <ele>70.075117412955</ele>
        <time>2021-11-17T12:17:22Z</time>
      </trkpt>
      <trkpt lat="46.56762" lon="0.64989">
        <ele>69.983511462808</ele>
        <time>2021-11-17T12:17:24Z</time>
      </trkpt>
      <trkpt lat="46.56764" lon="0.64989">
        <ele>70.084107944742</ele>
        <time>2021-11-17T12:17:29Z</time>
      </trkpt>
      <trkpt lat="46.56765" lon="0.64992">
        <ele>70.145769647323</ele>
        <time>2021-11-17T12:17:33Z</time>
      </trkpt>
      <trkpt lat="46.56767" lon="0.64994">
        <ele>70.058127589524</ele>
        <time>2021-11-17T12:17:35Z</time>
      </trkpt>
      <trkpt lat="46.56768" lon="0.64997">
        <ele>70.336774307303</ele>
        <time>2021-11-17T12:17:43Z</time>
      </trkpt>
      <trkpt lat="46.5677" lon="0.64996">
        <ele>69.958150691353</ele>
        <time>2021-11-17T12:18:11Z</time>
      </trkpt>
      <trkpt lat="46.56772" lon="0.64994">
        <ele>69.955680434592</ele>
        <time>2021-11-17T12:18:22Z</time>
      </trkpt>
      <trkpt lat="46.5677" lon="0.64992">
        <ele>69.958081331104</ele>
        <time>2021-11-17T12:18:39Z</time>
      </trkpt>
      <trkpt lat="46.5677" lon="0.64995">
        <ele>69.84092632588</ele>
        <time>2021-11-17T12:19:09Z</time>
      </trkpt>
      <trkpt lat="46.56772" lon="0.64996">
        <ele>69.962907822803</ele>
        <time>2021-11-17T12:19:17Z</time>
      </trkpt>
      <trkpt lat="46.56774" lon="0.64997">
        <ele>70.199001703411</ele>
        <time>2021-11-17T12:19:42Z</time>
      </trkpt>
      <trkpt lat="46.56772" lon="0.64996">
        <ele>69.830751150846</ele>
        <time>2021-11-17T12:19:57Z</time>
      </trkpt>
      <trkpt lat="46.56772" lon="0.64993">
        <ele>70.336724103428</ele>
        <time>2021-11-17T12:20:21Z</time>
      </trkpt>
      <trkpt lat="46.56774" lon="0.64994">
        <ele>70.485336769372</ele>
        <time>2021-11-17T12:20:28Z</time>
      </trkpt>
      <trkpt lat="46.56772" lon="0.64992">
        <ele>70.181383289397</ele>
        <time>2021-11-17T12:20:31Z</time>
      </trkpt>
      <trkpt lat="46.5677" lon="0.64993">
        <ele>69.984965980984</ele>
        <time>2021-11-17T12:20:34Z</time>
      </trkpt>
      <trkpt lat="46.56771" lon="0.64996">
        <ele>69.718455888331</ele>
        <time>2021-11-17T12:20:38Z</time>
      </trkpt>
      <trkpt lat="46.56772" lon="0.64999">
        <ele>69.979764266871</ele>
        <time>2021-11-17T12:20:49Z</time>
      </trkpt>
      <trkpt lat="46.56771" lon="0.65002">
        <ele>70.158507192507</ele>
        <time>2021-11-17T12:21:01Z</time>
      </trkpt>
      <trkpt lat="46.5677" lon="0.65">
        <ele>70.159537293948</ele>
        <time>2021-11-17T12:21:14Z</time>
      </trkpt>
      <trkpt lat="46.56769" lon="0.64998">
        <ele>69.785960056819</ele>
        <time>2021-11-17T12:21:32Z</time>
      </trkpt>
      <trkpt lat="46.56767" lon="0.64998">
        <ele>69.818586017005</ele>
        <time>2021-11-17T12:21:38Z</time>
      </trkpt>
      <trkpt lat="46.56765" lon="0.64998">
        <ele>69.829944149591</ele>
        <time>2021-11-17T12:21:43Z</time>
      </trkpt>
      <trkpt lat="46.56764" lon="0.65">
        <ele>69.813765117899</ele>
        <time>2021-11-17T12:21:45Z</time>
      </trkpt>
      <trkpt lat="46.56762" lon="0.65002">
        <ele>69.874600876123</ele>
        <time>2021-11-17T12:21:49Z</time>
      </trkpt>
      <trkpt lat="46.56763" lon="0.65004">
        <ele>69.966486410238</ele>
        <time>2021-11-17T12:21:53Z</time>
      </trkpt>
      <trkpt lat="46.56764" lon="0.64999">
        <ele>69.467511075549</ele>
        <time>2021-11-17T12:22:10Z</time>
      </trkpt>
      <trkpt lat="46.56764" lon="0.64997">
        <ele>69.875874225982</ele>
        <time>2021-11-17T12:22:16Z</time>
      </trkpt>
      <trkpt lat="46.56764" lon="0.64994">
        <ele>70.095014452003</ele>
        <time>2021-11-17T12:22:28Z</time>
      </trkpt>
      <trkpt lat="46.56763" lon="0.64991">
        <ele>70.112434564158</ele>
        <time>2021-11-17T12:22:33Z</time>
      </trkpt>
      <trkpt lat="46.56762" lon="0.64994">
        <ele>70.185472175479</ele>
        <time>2021-11-17T12:22:47Z</time>
      </trkpt>
      <trkpt lat="46.56761" lon="0.64991">
        <ele>70.106476270594</ele>
        <time>2021-11-17T12:22:54Z</time>
      </trkpt>
      <trkpt lat="46.56761" lon="0.64989">
        <ele>69.811707254499</ele>
        <time>2021-11-17T12:23:03Z</time>
      </trkpt>
      <trkpt lat="46.56763" lon="0.64991">
        <ele>69.894061423838</ele>
        <time>2021-11-17T12:23:12Z</time>
      </trkpt>
      <trkpt lat="46.56763" lon="0.64995">
        <ele>70.006762086414</ele>
        <time>2021-11-17T12:23:15Z</time>
      </trkpt>
      <trkpt lat="46.56764" lon="0.64998">
        <ele>69.846455832012</ele>
        <time>2021-11-17T12:23:23Z</time>
      </trkpt>
      <trkpt lat="46.56765" lon="0.64996">
        <ele>69.536815353669</ele>
        <time>2021-11-17T12:23:35Z</time>
      </trkpt>
      <trkpt lat="46.56763" lon="0.64993">
        <ele>69.857880166732</ele>
        <time>2021-11-17T12:23:52Z</time>
      </trkpt>
      <trkpt lat="46.56765" lon="0.6499">
        <ele>69.91293665953</ele>
        <time>2021-11-17T12:23:54Z</time>
      </trkpt>
      <trkpt lat="46.56766" lon="0.64994">
        <ele>69.953238938004</ele>
        <time>2021-11-17T12:23:59Z</time>
      </trkpt>
      <trkpt lat="46.56768" lon="0.64993">
        <ele>69.512633026578</ele>
        <time>2021-11-17T12:24:06Z</time>
      </trkpt>
      <trkpt lat="46.56767" lon="0.64996">
        <ele>69.988251710311</ele>
        <time>2021-11-17T12:24:13Z</time>
      </trkpt>
      <trkpt lat="46.56766" lon="0.64998">
        <ele>69.569014403038</ele>
        <time>2021-11-17T12:24:20Z</time>
      </trkpt>
      <trkpt lat="46.56765" lon="0.65002">
        <ele>70.263925686479</ele>
        <time>2021-11-17T12:24:39Z</time>
      </trkpt>
      <trkpt lat="46.56768" lon="0.65002">
        <ele>70.10509848129</ele>
        <time>2021-11-17T12:25:01Z</time>
      </trkpt>
      <trkpt lat="46.56769" lon="0.65004">
        <ele>70.004489555024</ele>
        <time>2021-11-17T12:25:06Z</time>
      </trkpt>
      <trkpt lat="46.56767" lon="0.65003">
        <ele>70.139109564014</ele>
        <time>2021-11-17T12:25:24Z</time>
      </trkpt>
      <trkpt lat="46.56767" lon="0.65001">
        <ele>70.130399600603</ele>
        <time>2021-11-17T12:25:27Z</time>
      </trkpt>
      <trkpt lat="46.56767" lon="0.64998">
        <ele>70.161948177032</ele>
        <time>2021-11-17T12:25:28Z</time>
      </trkpt>
      <trkpt lat="46.56768" lon="0.64995">
        <ele>70.055033472367</ele>
        <time>2021-11-17T12:25:30Z</time>
      </trkpt>
      <trkpt lat="46.56769" lon="0.64993">
        <ele>70.439188049175</ele>
        <time>2021-11-17T12:25:33Z</time>
      </trkpt>
      <trkpt lat="46.56771" lon="0.6499">
        <ele>70.045695208944</ele>
        <time>2021-11-17T12:25:35Z</time>
      </trkpt>
      <trkpt lat="46.56771" lon="0.64986">
        <ele>69.900710941292</ele>
        <time>2021-11-17T12:25:37Z</time>
      </trkpt>
      <trkpt lat="46.56772" lon="0.64982">
        <ele>69.832701945677</ele>
        <time>2021-11-17T12:25:40Z</time>
      </trkpt>
      <trkpt lat="46.56772" lon="0.6498">
        <ele>70.044223969802</ele>
        <time>2021-11-17T12:25:42Z</time>
      </trkpt>
      <trkpt lat="46.56773" lon="0.64977">
        <ele>70.124981944449</ele>
        <time>2021-11-17T12:25:44Z</time>
      </trkpt>
      <trkpt lat="46.56774" lon="0.64976">
        <ele>69.827069818974</ele>
        <time>2021-11-17T12:25:46Z</time>
      </trkpt>
      <trkpt lat="46.56776" lon="0.64974">
        <ele>69.461842894554</ele>
        <time>2021-11-17T12:25:48Z</time>
      </trkpt>
      <trkpt lat="46.56777" lon="0.6497">
        <ele>70.100363727659</ele>
        <time>2021-11-17T12:25:52Z</time>
      </trkpt>
      <trkpt lat="46.56777" lon="0.64967">
        <ele>70.446146406233</ele>
        <time>2021-11-17T12:25:55Z</time>
      </trkpt>
      <trkpt lat="46.56775" lon="0.64964">
        <ele>70.31260296423</ele>
        <time>2021-11-17T12:25:59Z</time>
      </trkpt>
      <trkpt lat="46.56773" lon="0.64963">
        <ele>70.622074334882</ele>
        <time>2021-11-17T12:26:01Z</time>
      </trkpt>
      <trkpt lat="46.56771" lon="0.64962">
        <ele>70.291937112808</ele>
        <time>2021-11-17T12:26:03Z</time>
      </trkpt>
      <trkpt lat="46.56769" lon="0.64959">
        <ele>70.522325400263</ele>
        <time>2021-11-17T12:26:05Z</time>
      </trkpt>
      <trkpt lat="46.56768" lon="0.64958">
        <ele>70.459315025248</ele>
        <time>2021-11-17T12:26:07Z</time>
      </trkpt>
      <trkpt lat="46.56765" lon="0.64957">
        <ele>70.430822849274</ele>
        <time>2021-11-17T12:26:09Z</time>
      </trkpt>
      <trkpt lat="46.56763" lon="0.64954">
        <ele>70.252167431638</ele>
        <time>2021-11-17T12:26:11Z</time>
      </trkpt>
      <trkpt lat="46.56761" lon="0.64953">
        <ele>70.375515971333</ele>
        <time>2021-11-17T12:26:13Z</time>
      </trkpt>
      <trkpt lat="46.5676" lon="0.6495">
        <ele>70.261586214416</ele>
        <time>2021-11-17T12:26:15Z</time>
      </trkpt>
      <trkpt lat="46.56759" lon="0.64948">
        <ele>69.725787517615</ele>
        <time>2021-11-17T12:26:17Z</time>
      </trkpt>
      <trkpt lat="46.56757" lon="0.64945">
        <ele>70.304687953554</ele>
        <time>2021-11-17T12:26:19Z</time>
      </trkpt>
      <trkpt lat="46.56757" lon="0.64942">
        <ele>70.367927419953</ele>
        <time>2021-11-17T12:26:22Z</time>
      </trkpt>
      <trkpt lat="46.56755" lon="0.64941">
        <ele>70.305097967386</ele>
        <time>2021-11-17T12:26:26Z</time>
      </trkpt>
      <trkpt lat="46.56752" lon="0.64942">
        <ele>70.182666144334</ele>
        <time>2021-11-17T12:26:28Z</time>
      </trkpt>
      <trkpt lat="46.5675" lon="0.64944">
        <ele>70.271949483082</ele>
        <time>2021-11-17T12:26:29Z</time>
      </trkpt>
      <trkpt lat="46.56748" lon="0.64944">
        <ele>70.090429678559</ele>
        <time>2021-11-17T12:26:31Z</time>
      </trkpt>
      <trkpt lat="46.56747" lon="0.64946">
        <ele>70.424570679665</ele>
        <time>2021-11-17T12:26:33Z</time>
      </trkpt>
      <trkpt lat="46.56744" lon="0.64947">
        <ele>70.611095849425</ele>
        <time>2021-11-17T12:26:36Z</time>
      </trkpt>
      <trkpt lat="46.56741" lon="0.64948">
        <ele>70.581684736535</ele>
        <time>2021-11-17T12:26:38Z</time>
      </trkpt>
      <trkpt lat="46.56739" lon="0.64949">
        <ele>70.589887033217</ele>
        <time>2021-11-17T12:26:42Z</time>
      </trkpt>
      <trkpt lat="46.56737" lon="0.6495">
        <ele>70.781150927767</ele>
        <time>2021-11-17T12:26:44Z</time>
      </trkpt>
      <trkpt lat="46.56734" lon="0.64952">
        <ele>70.712414437905</ele>
        <time>2021-11-17T12:26:47Z</time>
      </trkpt>
      <trkpt lat="46.56732" lon="0.64953">
        <ele>70.857097127475</ele>
        <time>2021-11-17T12:26:50Z</time>
      </trkpt>
      <trkpt lat="46.5673" lon="0.64955">
        <ele>70.878038654104</ele>
        <time>2021-11-17T12:26:53Z</time>
      </trkpt>
      <trkpt lat="46.56728" lon="0.64956">
        <ele>70.663793387823</ele>
        <time>2021-11-17T12:26:56Z</time>
      </trkpt>
      <trkpt lat="46.56726" lon="0.64957">
        <ele>70.788786497898</ele>
        <time>2021-11-17T12:26:58Z</time>
      </trkpt>
      <trkpt lat="46.56725" lon="0.64959">
        <ele>70.894195619039</ele>
        <time>2021-11-17T12:27:00Z</time>
      </trkpt>
      <trkpt lat="46.56724" lon="0.64962">
        <ele>70.933818954043</ele>
        <time>2021-11-17T12:27:02Z</time>
      </trkpt>
      <trkpt lat="46.56722" lon="0.64964">
        <ele>70.982049484737</ele>
        <time>2021-11-17T12:27:04Z</time>
      </trkpt>
      <trkpt lat="46.5672" lon="0.64966">
        <ele>70.946130308323</ele>
        <time>2021-11-17T12:27:07Z</time>
      </trkpt>
      <trkpt lat="46.56718" lon="0.64967">
        <ele>71.196980946697</ele>
        <time>2021-11-17T12:27:10Z</time>
      </trkpt>
      <trkpt lat="46.56715" lon="0.64968">
        <ele>71.690260552801</ele>
        <time>2021-11-17T12:27:14Z</time>
      </trkpt>
      <trkpt lat="46.56713" lon="0.64967">
        <ele>71.443386134692</ele>
        <time>2021-11-17T12:27:21Z</time>
      </trkpt>
      <trkpt lat="46.56712" lon="0.64968">
        <ele>71.801276711747</ele>
        <time>2021-11-17T12:27:23Z</time>
      </trkpt>
      <trkpt lat="46.56711" lon="0.64972">
        <ele>72.030417350121</ele>
        <time>2021-11-17T12:27:27Z</time>
      </trkpt>
      <trkpt lat="46.56709" lon="0.6497">
        <ele>72.273271319456</ele>
        <time>2021-11-17T12:27:32Z</time>
      </trkpt>
      <trkpt lat="46.56709" lon="0.64967">
        <ele>72.119242696092</ele>
        <time>2021-11-17T12:27:36Z</time>
      </trkpt>
      <trkpt lat="46.56707" lon="0.64965">
        <ele>71.936171044596</ele>
        <time>2021-11-17T12:27:39Z</time>
      </trkpt>
      <trkpt lat="46.56705" lon="0.64963">
        <ele>72.237284446135</ele>
        <time>2021-11-17T12:27:42Z</time>
      </trkpt>
      <trkpt lat="46.56702" lon="0.64962">
        <ele>72.079299489036</ele>
        <time>2021-11-17T12:27:45Z</time>
      </trkpt>
      <trkpt lat="46.567" lon="0.64961">
        <ele>72.360331626609</ele>
        <time>2021-11-17T12:27:48Z</time>
      </trkpt>
      <trkpt lat="46.56697" lon="0.64961">
        <ele>72.725524931215</ele>
        <time>2021-11-17T12:27:50Z</time>
      </trkpt>
      <trkpt lat="46.56695" lon="0.64961">
        <ele>72.946261143312</ele>
        <time>2021-11-17T12:27:53Z</time>
      </trkpt>
      <trkpt lat="46.56693" lon="0.64962">
        <ele>73.153860137798</ele>
        <time>2021-11-17T12:27:57Z</time>
      </trkpt>
      <trkpt lat="46.56691" lon="0.6496">
        <ele>73.836205155589</ele>
        <time>2021-11-17T12:28:01Z</time>
      </trkpt>
      <trkpt lat="46.56689" lon="0.64959">
        <ele>74.445798911154</ele>
        <time>2021-11-17T12:28:03Z</time>
      </trkpt>
      <trkpt lat="46.56687" lon="0.64958">
        <ele>74.737444013357</ele>
        <time>2021-11-17T12:28:05Z</time>
      </trkpt>
      <trkpt lat="46.56684" lon="0.64957">
        <ele>75.096669835038</ele>
        <time>2021-11-17T12:28:07Z</time>
      </trkpt>
      <trkpt lat="46.56682" lon="0.64956">
        <ele>75.793139236979</ele>
        <time>2021-11-17T12:28:09Z</time>
      </trkpt>
      <trkpt lat="46.56681" lon="0.64954">
        <ele>76.307291010395</ele>
        <time>2021-11-17T12:28:12Z</time>
      </trkpt>
      <trkpt lat="46.56679" lon="0.64953">
        <ele>76.755259186961</ele>
        <time>2021-11-17T12:28:14Z</time>
      </trkpt>
      <trkpt lat="46.56677" lon="0.64951">
        <ele>77.163940944709</ele>
        <time>2021-11-17T12:28:17Z</time>
      </trkpt>
      <trkpt lat="46.56676" lon="0.64948">
        <ele>77.756352501921</ele>
        <time>2021-11-17T12:28:20Z</time>
      </trkpt>
      <trkpt lat="46.56675" lon="0.64944">
        <ele>77.433788676746</ele>
        <time>2021-11-17T12:28:23Z</time>
      </trkpt>
      <trkpt lat="46.56674" lon="0.64941">
        <ele>77.50705801975</ele>
        <time>2021-11-17T12:28:26Z</time>
      </trkpt>
      <trkpt lat="46.56672" lon="0.64938">
        <ele>78.039563607424</ele>
        <time>2021-11-17T12:28:28Z</time>
      </trkpt>
      <trkpt lat="46.5667" lon="0.64935">
        <ele>77.981637169607</ele>
        <time>2021-11-17T12:28:31Z</time>
      </trkpt>
      <trkpt lat="46.56669" lon="0.64932">
        <ele>78.436761902645</ele>
        <time>2021-11-17T12:28:34Z</time>
      </trkpt>
      <trkpt lat="46.56667" lon="0.64931">
        <ele>78.574665894732</ele>
        <time>2021-11-17T12:28:37Z</time>
      </trkpt>
      <trkpt lat="46.56665" lon="0.64929">
        <ele>79.068192269653</ele>
        <time>2021-11-17T12:28:40Z</time>
      </trkpt>
      <trkpt lat="46.56664" lon="0.64926">
        <ele>78.940581175499</ele>
        <time>2021-11-17T12:28:47Z</time>
      </trkpt>
      <trkpt lat="46.56663" lon="0.64923">
        <ele>79.103398398496</ele>
        <time>2021-11-17T12:28:51Z</time>
      </trkpt>
      <trkpt lat="46.56665" lon="0.64924">
        <ele>78.665067120455</ele>
        <time>2021-11-17T12:29:04Z</time>
      </trkpt>
      <trkpt lat="46.56663" lon="0.64924">
        <ele>78.356612240896</ele>
        <time>2021-11-17T12:29:19Z</time>
      </trkpt>
      <trkpt lat="46.5666" lon="0.64924">
        <ele>79.448793835938</ele>
        <time>2021-11-17T12:29:24Z</time>
      </trkpt>
      <trkpt lat="46.56658" lon="0.64922">
        <ele>80.289800914936</ele>
        <time>2021-11-17T12:29:30Z</time>
      </trkpt>
      <trkpt lat="46.56656" lon="0.64922">
        <ele>80.499408784322</ele>
        <time>2021-11-17T12:29:33Z</time>
      </trkpt>
      <trkpt lat="46.56653" lon="0.6492">
        <ele>80.706208180636</ele>
        <time>2021-11-17T12:29:36Z</time>
      </trkpt>
      <trkpt lat="46.56652" lon="0.6492">
        <ele>80.82772190962</ele>
        <time>2021-11-17T12:29:38Z</time>
      </trkpt>
      <trkpt lat="46.56649" lon="0.64919">
        <ele>81.599806074053</ele>
        <time>2021-11-17T12:29:41Z</time>
      </trkpt>
      <trkpt lat="46.56647" lon="0.64919">
        <ele>81.984472756274</ele>
        <time>2021-11-17T12:29:44Z</time>
      </trkpt>
      <trkpt lat="46.56645" lon="0.6492">
        <ele>82.512480503879</ele>
        <time>2021-11-17T12:29:49Z</time>
      </trkpt>
      <trkpt lat="46.56643" lon="0.64919">
        <ele>82.847035931423</ele>
        <time>2021-11-17T12:29:54Z</time>
      </trkpt>
      <trkpt lat="46.56641" lon="0.64919">
        <ele>83.49782786984</ele>
        <time>2021-11-17T12:29:57Z</time>
      </trkpt>
      <trkpt lat="46.56639" lon="0.64917">
        <ele>83.917885380797</ele>
        <time>2021-11-17T12:30:00Z</time>
      </trkpt>
      <trkpt lat="46.56637" lon="0.64918">
        <ele>84.391943511553</ele>
        <time>2021-11-17T12:30:02Z</time>
      </trkpt>
      <trkpt lat="46.56635" lon="0.64919">
        <ele>84.73501357995</ele>
        <time>2021-11-17T12:30:04Z</time>
      </trkpt>
      <trkpt lat="46.56633" lon="0.64919">
        <ele>84.378365661949</ele>
        <time>2021-11-17T12:30:06Z</time>
      </trkpt>
      <trkpt lat="46.56631" lon="0.64918">
        <ele>85.156643366441</ele>
        <time>2021-11-17T12:30:10Z</time>
      </trkpt>
      <trkpt lat="46.56629" lon="0.64919">
        <ele>85.122209868394</ele>
        <time>2021-11-17T12:30:12Z</time>
      </trkpt>
      <trkpt lat="46.56627" lon="0.64918">
        <ele>85.211491500959</ele>
        <time>2021-11-17T12:30:15Z</time>
      </trkpt>
      <trkpt lat="46.56624" lon="0.64917">
        <ele>85.414848381653</ele>
        <time>2021-11-17T12:30:18Z</time>
      </trkpt>
      <trkpt lat="46.56621" lon="0.64919">
        <ele>85.970390284434</ele>
        <time>2021-11-17T12:30:23Z</time>
      </trkpt>
      <trkpt lat="46.56619" lon="0.64919">
        <ele>86.265187407844</ele>
        <time>2021-11-17T12:30:28Z</time>
      </trkpt>
      <trkpt lat="46.56616" lon="0.64917">
        <ele>86.610083449632</ele>
        <time>2021-11-17T12:30:32Z</time>
      </trkpt>
      <trkpt lat="46.56613" lon="0.64916">
        <ele>86.636673762463</ele>
        <time>2021-11-17T12:30:34Z</time>
      </trkpt>
      <trkpt lat="46.56611" lon="0.64914">
        <ele>87.185841122642</ele>
        <time>2021-11-17T12:30:37Z</time>
      </trkpt>
      <trkpt lat="46.56609" lon="0.64912">
        <ele>87.484054608271</ele>
        <time>2021-11-17T12:30:40Z</time>
      </trkpt>
      <trkpt lat="46.56606" lon="0.6491">
        <ele>87.269250264391</ele>
        <time>2021-11-17T12:30:43Z</time>
      </trkpt>
      <trkpt lat="46.56604" lon="0.64908">
        <ele>87.299245857634</ele>
        <time>2021-11-17T12:30:45Z</time>
      </trkpt>
      <trkpt lat="46.56603" lon="0.64906">
        <ele>87.521975575946</ele>
        <time>2021-11-17T12:30:47Z</time>
      </trkpt>
      <trkpt lat="46.56601" lon="0.64905">
        <ele>87.532410489395</ele>
        <time>2021-11-17T12:30:49Z</time>
      </trkpt>
      <trkpt lat="46.56599" lon="0.64902">
        <ele>87.799594226293</ele>
        <time>2021-11-17T12:30:51Z</time>
      </trkpt>
      <trkpt lat="46.56599" lon="0.64899">
        <ele>87.470767633058</ele>
        <time>2021-11-17T12:30:53Z</time>
      </trkpt>
      <trkpt lat="46.56597" lon="0.64896">
        <ele>87.554660615511</ele>
        <time>2021-11-17T12:30:55Z</time>
      </trkpt>
      <trkpt lat="46.56596" lon="0.64894">
        <ele>87.63700617291</ele>
        <time>2021-11-17T12:30:57Z</time>
      </trkpt>
      <trkpt lat="46.56594" lon="0.64891">
        <ele>87.277526351623</ele>
        <time>2021-11-17T12:30:59Z</time>
      </trkpt>
      <trkpt lat="46.56593" lon="0.64887">
        <ele>87.859244236723</ele>
        <time>2021-11-17T12:31:02Z</time>
      </trkpt>
      <trkpt lat="46.56591" lon="0.64884">
        <ele>87.9803481251</ele>
        <time>2021-11-17T12:31:04Z</time>
      </trkpt>
      <trkpt lat="46.56589" lon="0.64883">
        <ele>87.567241858691</ele>
        <time>2021-11-17T12:31:06Z</time>
      </trkpt>
      <trkpt lat="46.56587" lon="0.64882">
        <ele>87.908227730542</ele>
        <time>2021-11-17T12:31:07Z</time>
      </trkpt>
      <trkpt lat="46.56585" lon="0.64882">
        <ele>87.548414258286</ele>
        <time>2021-11-17T12:31:09Z</time>
      </trkpt>
      <trkpt lat="46.56583" lon="0.64884">
        <ele>88.278573884629</ele>
        <time>2021-11-17T12:31:12Z</time>
      </trkpt>
      <trkpt lat="46.56582" lon="0.64887">
        <ele>88.459885622375</ele>
        <time>2021-11-17T12:31:15Z</time>
      </trkpt>
      <trkpt lat="46.5658" lon="0.64889">
        <ele>88.452156714164</ele>
        <time>2021-11-17T12:31:17Z</time>
      </trkpt>
      <trkpt lat="46.56579" lon="0.6489">
        <ele>88.407913651317</ele>
        <time>2021-11-17T12:31:19Z</time>
      </trkpt>
      <trkpt lat="46.56577" lon="0.64893">
        <ele>88.015215712599</ele>
        <time>2021-11-17T12:31:22Z</time>
      </trkpt>
      <trkpt lat="46.56575" lon="0.64896">
        <ele>88.510801543482</ele>
        <time>2021-11-17T12:31:25Z</time>
      </trkpt>
      <trkpt lat="46.56574" lon="0.64898">
        <ele>88.506028571166</ele>
        <time>2021-11-17T12:31:28Z</time>
      </trkpt>
      <trkpt lat="46.56573" lon="0.64901">
        <ele>89.133716917597</ele>
        <time>2021-11-17T12:31:34Z</time>
      </trkpt>
      <trkpt lat="46.56571" lon="0.64902">
        <ele>89.560224261135</ele>
        <time>2021-11-17T12:31:37Z</time>
      </trkpt>
      <trkpt lat="46.56569" lon="0.64906">
        <ele>89.955810327083</ele>
        <time>2021-11-17T12:31:40Z</time>
      </trkpt>
      <trkpt lat="46.56567" lon="0.64908">
        <ele>89.726379296742</ele>
        <time>2021-11-17T12:31:42Z</time>
      </trkpt>
      <trkpt lat="46.56564" lon="0.64911">
        <ele>90.323257466778</ele>
        <time>2021-11-17T12:31:44Z</time>
      </trkpt>
      <trkpt lat="46.56563" lon="0.64913">
        <ele>90.093731286004</ele>
        <time>2021-11-17T12:31:46Z</time>
      </trkpt>
      <trkpt lat="46.56561" lon="0.64916">
        <ele>90.956678330898</ele>
        <time>2021-11-17T12:31:48Z</time>
      </trkpt>
      <trkpt lat="46.5656" lon="0.64917">
        <ele>90.652814283967</ele>
        <time>2021-11-17T12:31:50Z</time>
      </trkpt>
      <trkpt lat="46.56558" lon="0.6492">
        <ele>91.00579763297</ele>
        <time>2021-11-17T12:31:52Z</time>
      </trkpt>
      <trkpt lat="46.56556" lon="0.64922">
        <ele>91.216006690636</ele>
        <time>2021-11-17T12:31:55Z</time>
      </trkpt>
      <trkpt lat="46.56554" lon="0.64924">
        <ele>91.545737999491</ele>
        <time>2021-11-17T12:31:57Z</time>
      </trkpt>
      <trkpt lat="46.56552" lon="0.64928">
        <ele>91.359698654152</ele>
        <time>2021-11-17T12:31:59Z</time>
      </trkpt>
      <trkpt lat="46.5655" lon="0.64931">
        <ele>92.260154856369</ele>
        <time>2021-11-17T12:32:01Z</time>
      </trkpt>
      <trkpt lat="46.56549" lon="0.64933">
        <ele>92.130733762868</ele>
        <time>2021-11-17T12:32:03Z</time>
      </trkpt>
      <trkpt lat="46.56547" lon="0.64935">
        <ele>91.928210561164</ele>
        <time>2021-11-17T12:32:05Z</time>
      </trkpt>
      <trkpt lat="46.56545" lon="0.64938">
        <ele>92.25352312997</ele>
        <time>2021-11-17T12:32:07Z</time>
      </trkpt>
      <trkpt lat="46.56544" lon="0.64941">
        <ele>92.431204440072</ele>
        <time>2021-11-17T12:32:09Z</time>
      </trkpt>
      <trkpt lat="46.56542" lon="0.64943">
        <ele>92.815328881145</ele>
        <time>2021-11-17T12:32:11Z</time>
      </trkpt>
      <trkpt lat="46.56541" lon="0.64945">
        <ele>92.658404438756</ele>
        <time>2021-11-17T12:32:12Z</time>
      </trkpt>
      <trkpt lat="46.56539" lon="0.64948">
        <ele>92.894006081857</ele>
        <time>2021-11-17T12:32:14Z</time>
      </trkpt>
      <trkpt lat="46.56538" lon="0.64951">
        <ele>93.090731456876</ele>
        <time>2021-11-17T12:32:16Z</time>
      </trkpt>
      <trkpt lat="46.56536" lon="0.64953">
        <ele>93.366238758899</ele>
        <time>2021-11-17T12:32:18Z</time>
      </trkpt>
      <trkpt lat="46.56534" lon="0.64955">
        <ele>93.334448806942</ele>
        <time>2021-11-17T12:32:20Z</time>
      </trkpt>
      <trkpt lat="46.56533" lon="0.64957">
        <ele>93.667072612792</ele>
        <time>2021-11-17T12:32:23Z</time>
      </trkpt>
      <trkpt lat="46.5653" lon="0.6496">
        <ele>94.04372600466</ele>
        <time>2021-11-17T12:32:25Z</time>
      </trkpt>
      <trkpt lat="46.56529" lon="0.64961">
        <ele>93.901200808585</ele>
        <time>2021-11-17T12:32:27Z</time>
      </trkpt>
      <trkpt lat="46.56526" lon="0.64961">
        <ele>94.087212584913</ele>
        <time>2021-11-17T12:32:29Z</time>
      </trkpt>
      <trkpt lat="46.56523" lon="0.64961">
        <ele>94.045391752385</ele>
        <time>2021-11-17T12:32:31Z</time>
      </trkpt>
      <trkpt lat="46.56521" lon="0.64961">
        <ele>93.86774056498</ele>
        <time>2021-11-17T12:32:33Z</time>
      </trkpt>
      <trkpt lat="46.56518" lon="0.64959">
        <ele>94.280118506402</ele>
        <time>2021-11-17T12:32:35Z</time>
      </trkpt>
      <trkpt lat="46.56516" lon="0.64958">
        <ele>94.268054996617</ele>
        <time>2021-11-17T12:32:36Z</time>
      </trkpt>
      <trkpt lat="46.56514" lon="0.64956">
        <ele>94.723680898547</ele>
        <time>2021-11-17T12:32:39Z</time>
      </trkpt>
      <trkpt lat="46.56514" lon="0.64953">
        <ele>94.332053137943</ele>
        <time>2021-11-17T12:32:41Z</time>
      </trkpt>
      <trkpt lat="46.56514" lon="0.6495">
        <ele>93.861269474961</ele>
        <time>2021-11-17T12:32:43Z</time>
      </trkpt>
      <trkpt lat="46.56513" lon="0.64945">
        <ele>93.975818762556</ele>
        <time>2021-11-17T12:32:45Z</time>
      </trkpt>
      <trkpt lat="46.56512" lon="0.64942">
        <ele>93.991980324499</ele>
        <time>2021-11-17T12:32:47Z</time>
      </trkpt>
      <trkpt lat="46.56511" lon="0.64939">
        <ele>93.525605650619</ele>
        <time>2021-11-17T12:32:49Z</time>
      </trkpt>
      <trkpt lat="46.56511" lon="0.64936">
        <ele>93.500077781267</ele>
        <time>2021-11-17T12:32:51Z</time>
      </trkpt>
      <trkpt lat="46.5651" lon="0.64932">
        <ele>93.731702500023</ele>
        <time>2021-11-17T12:32:53Z</time>
      </trkpt>
      <trkpt lat="46.5651" lon="0.64928">
        <ele>93.639631235972</ele>
        <time>2021-11-17T12:32:56Z</time>
      </trkpt>
      <trkpt lat="46.5651" lon="0.64924">
        <ele>93.824228170328</ele>
        <time>2021-11-17T12:32:58Z</time>
      </trkpt>
      <trkpt lat="46.56509" lon="0.64921">
        <ele>93.394121865742</ele>
        <time>2021-11-17T12:33:00Z</time>
      </trkpt>
      <trkpt lat="46.56509" lon="0.64918">
        <ele>93.149173584767</ele>
        <time>2021-11-17T12:33:02Z</time>
      </trkpt>
      <trkpt lat="46.56509" lon="0.64914">
        <ele>93.054282157682</ele>
        <time>2021-11-17T12:33:04Z</time>
      </trkpt>
      <trkpt lat="46.56508" lon="0.64911">
        <ele>92.867960626259</ele>
        <time>2021-11-17T12:33:06Z</time>
      </trkpt>
      <trkpt lat="46.56509" lon="0.64907">
        <ele>92.387423478067</ele>
        <time>2021-11-17T12:33:08Z</time>
      </trkpt>
      <trkpt lat="46.56508" lon="0.64903">
        <ele>92.162943834439</ele>
        <time>2021-11-17T12:33:10Z</time>
      </trkpt>
      <trkpt lat="46.56508" lon="0.649">
        <ele>92.080150869675</ele>
        <time>2021-11-17T12:33:12Z</time>
      </trkpt>
      <trkpt lat="46.56508" lon="0.64896">
        <ele>91.86580168549</ele>
        <time>2021-11-17T12:33:14Z</time>
      </trkpt>
      <trkpt lat="46.56508" lon="0.64893">
        <ele>91.624505707994</ele>
        <time>2021-11-17T12:33:16Z</time>
      </trkpt>
      <trkpt lat="46.56507" lon="0.64889">
        <ele>91.480875969864</ele>
        <time>2021-11-17T12:33:18Z</time>
      </trkpt>
      <trkpt lat="46.56507" lon="0.64886">
        <ele>91.141245737672</ele>
        <time>2021-11-17T12:33:20Z</time>
      </trkpt>
      <trkpt lat="46.56507" lon="0.64882">
        <ele>90.818488325924</ele>
        <time>2021-11-17T12:33:22Z</time>
      </trkpt>
      <trkpt lat="46.56506" lon="0.64879">
        <ele>90.856762656942</ele>
        <time>2021-11-17T12:33:24Z</time>
      </trkpt>
      <trkpt lat="46.56504" lon="0.64875">
        <ele>90.912479575723</ele>
        <time>2021-11-17T12:33:26Z</time>
      </trkpt>
      <trkpt lat="46.56504" lon="0.64872">
        <ele>90.575810313225</ele>
        <time>2021-11-17T12:33:28Z</time>
      </trkpt>
      <trkpt lat="46.56505" lon="0.64867">
        <ele>90.462305589579</ele>
        <time>2021-11-17T12:33:30Z</time>
      </trkpt>
      <trkpt lat="46.56505" lon="0.64865">
        <ele>90.287877855822</ele>
        <time>2021-11-17T12:33:32Z</time>
      </trkpt>
      <trkpt lat="46.56503" lon="0.64861">
        <ele>90.030226176605</ele>
        <time>2021-11-17T12:33:34Z</time>
      </trkpt>
      <trkpt lat="46.56503" lon="0.64858">
        <ele>90.160950277932</ele>
        <time>2021-11-17T12:33:36Z</time>
      </trkpt>
      <trkpt lat="46.56501" lon="0.64854">
        <ele>89.862067325972</ele>
        <time>2021-11-17T12:33:39Z</time>
      </trkpt>
      <trkpt lat="46.565" lon="0.6485">
        <ele>89.702719079331</ele>
        <time>2021-11-17T12:33:41Z</time>
      </trkpt>
      <trkpt lat="46.56499" lon="0.64846">
        <ele>89.21109842509</ele>
        <time>2021-11-17T12:33:44Z</time>
      </trkpt>
      <trkpt lat="46.56497" lon="0.64843">
        <ele>89.260941452347</ele>
        <time>2021-11-17T12:33:46Z</time>
      </trkpt>
      <trkpt lat="46.56496" lon="0.6484">
        <ele>88.898165938444</ele>
        <time>2021-11-17T12:33:47Z</time>
      </trkpt>
      <trkpt lat="46.56494" lon="0.64837">
        <ele>88.64227554854</ele>
        <time>2021-11-17T12:33:49Z</time>
      </trkpt>
      <trkpt lat="46.56492" lon="0.64834">
        <ele>88.784076744691</ele>
        <time>2021-11-17T12:33:51Z</time>
      </trkpt>
      <trkpt lat="46.5649" lon="0.64831">
        <ele>88.922138651833</ele>
        <time>2021-11-17T12:33:53Z</time>
      </trkpt>
      <trkpt lat="46.56488" lon="0.64827">
        <ele>88.183973042294</ele>
        <time>2021-11-17T12:33:55Z</time>
      </trkpt>
      <trkpt lat="46.56487" lon="0.64824">
        <ele>88.450299855322</ele>
        <time>2021-11-17T12:33:57Z</time>
      </trkpt>
      <trkpt lat="46.56486" lon="0.64821">
        <ele>88.373974788934</ele>
        <time>2021-11-17T12:33:58Z</time>
      </trkpt>
      <trkpt lat="46.56485" lon="0.64818">
        <ele>88.557701218873</ele>
        <time>2021-11-17T12:33:59Z</time>
      </trkpt>
      <trkpt lat="46.56483" lon="0.64815">
        <ele>88.251642246731</ele>
        <time>2021-11-17T12:34:01Z</time>
      </trkpt>
      <trkpt lat="46.56482" lon="0.64811">
        <ele>88.096365327016</ele>
        <time>2021-11-17T12:34:03Z</time>
      </trkpt>
      <trkpt lat="46.5648" lon="0.64808">
        <ele>87.667659294792</ele>
        <time>2021-11-17T12:34:05Z</time>
      </trkpt>
      <trkpt lat="46.56478" lon="0.64806">
        <ele>87.550180083141</ele>
        <time>2021-11-17T12:34:07Z</time>
      </trkpt>
      <trkpt lat="46.56477" lon="0.64803">
        <ele>87.957807485946</ele>
        <time>2021-11-17T12:34:09Z</time>
      </trkpt>
      <trkpt lat="46.56475" lon="0.648">
        <ele>87.76391070243</ele>
        <time>2021-11-17T12:34:11Z</time>
      </trkpt>
      <trkpt lat="46.56473" lon="0.64797">
        <ele>87.243827967905</ele>
        <time>2021-11-17T12:34:14Z</time>
      </trkpt>
      <trkpt lat="46.56471" lon="0.64795">
        <ele>87.408229278401</ele>
        <time>2021-11-17T12:34:16Z</time>
      </trkpt>
      <trkpt lat="46.5647" lon="0.64793">
        <ele>87.561449951492</ele>
        <time>2021-11-17T12:34:18Z</time>
      </trkpt>
      <trkpt lat="46.56467" lon="0.6479">
        <ele>87.128197801299</ele>
        <time>2021-11-17T12:34:21Z</time>
      </trkpt>
      <trkpt lat="46.56465" lon="0.64787">
        <ele>86.846967244521</ele>
        <time>2021-11-17T12:34:23Z</time>
      </trkpt>
      <trkpt lat="46.56462" lon="0.64785">
        <ele>86.741468729451</ele>
        <time>2021-11-17T12:34:25Z</time>
      </trkpt>
      <trkpt lat="46.5646" lon="0.64783">
        <ele>86.553141758777</ele>
        <time>2021-11-17T12:34:27Z</time>
      </trkpt>
      <trkpt lat="46.56458" lon="0.64782">
        <ele>86.672798227519</ele>
        <time>2021-11-17T12:34:30Z</time>
      </trkpt>
      <trkpt lat="46.56456" lon="0.6478">
        <ele>86.502455593087</ele>
        <time>2021-11-17T12:34:32Z</time>
      </trkpt>
      <trkpt lat="46.56454" lon="0.64779">
        <ele>86.391455898993</ele>
        <time>2021-11-17T12:34:34Z</time>
      </trkpt>
      <trkpt lat="46.56452" lon="0.64777">
        <ele>86.253819117323</ele>
        <time>2021-11-17T12:34:36Z</time>
      </trkpt>
      <trkpt lat="46.5645" lon="0.64776">
        <ele>86.03174016159</ele>
        <time>2021-11-17T12:34:38Z</time>
      </trkpt>
      <trkpt lat="46.56448" lon="0.64775">
        <ele>85.760593751445</ele>
        <time>2021-11-17T12:34:40Z</time>
      </trkpt>
      <trkpt lat="46.56445" lon="0.64774">
        <ele>85.45028565824</ele>
        <time>2021-11-17T12:34:42Z</time>
      </trkpt>
      <trkpt lat="46.56443" lon="0.64773">
        <ele>85.172499939799</ele>
        <time>2021-11-17T12:34:45Z</time>
      </trkpt>
      <trkpt lat="46.5644" lon="0.64771">
        <ele>85.004699533805</ele>
        <time>2021-11-17T12:34:48Z</time>
      </trkpt>
      <trkpt lat="46.56438" lon="0.64769">
        <ele>85.303983747028</ele>
        <time>2021-11-17T12:34:50Z</time>
      </trkpt>
      <trkpt lat="46.56436" lon="0.64767">
        <ele>85.279132529162</ele>
        <time>2021-11-17T12:34:52Z</time>
      </trkpt>
      <trkpt lat="46.56434" lon="0.64765">
        <ele>85.079964675009</ele>
        <time>2021-11-17T12:34:54Z</time>
      </trkpt>
      <trkpt lat="46.56432" lon="0.64763">
        <ele>85.101176377386</ele>
        <time>2021-11-17T12:34:56Z</time>
      </trkpt>
      <trkpt lat="46.56431" lon="0.64761">
        <ele>84.620751529932</ele>
        <time>2021-11-17T12:34:58Z</time>
      </trkpt>
      <trkpt lat="46.56429" lon="0.64758">
        <ele>84.600725013763</ele>
        <time>2021-11-17T12:35:00Z</time>
      </trkpt>
      <trkpt lat="46.56428" lon="0.64755">
        <ele>84.488414805382</ele>
        <time>2021-11-17T12:35:02Z</time>
      </trkpt>
      <trkpt lat="46.56426" lon="0.64752">
        <ele>84.120487876236</ele>
        <time>2021-11-17T12:35:04Z</time>
      </trkpt>
      <trkpt lat="46.56425" lon="0.64749">
        <ele>83.85062035732</ele>
        <time>2021-11-17T12:35:05Z</time>
      </trkpt>
      <trkpt lat="46.56423" lon="0.64746">
        <ele>83.871183358133</ele>
        <time>2021-11-17T12:35:06Z</time>
      </trkpt>
      <trkpt lat="46.56422" lon="0.64744">
        <ele>83.467516844161</ele>
        <time>2021-11-17T12:35:08Z</time>
      </trkpt>
      <trkpt lat="46.56421" lon="0.64742">
        <ele>83.59251782205</ele>
        <time>2021-11-17T12:35:10Z</time>
      </trkpt>
      <trkpt lat="46.5642" lon="0.64739">
        <ele>82.964499090798</ele>
        <time>2021-11-17T12:35:13Z</time>
      </trkpt>
      <trkpt lat="46.56419" lon="0.64735">
        <ele>82.85050751362</ele>
        <time>2021-11-17T12:35:15Z</time>
      </trkpt>
      <trkpt lat="46.56419" lon="0.64731">
        <ele>82.502927350812</ele>
        <time>2021-11-17T12:35:17Z</time>
      </trkpt>
      <trkpt lat="46.56419" lon="0.64729">
        <ele>82.39702480007</ele>
        <time>2021-11-17T12:35:18Z</time>
      </trkpt>
      <trkpt lat="46.5642" lon="0.64726">
        <ele>81.697078636847</ele>
        <time>2021-11-17T12:35:20Z</time>
      </trkpt>
      <trkpt lat="46.5642" lon="0.64721">
        <ele>81.738718821667</ele>
        <time>2021-11-17T12:35:22Z</time>
      </trkpt>
      <trkpt lat="46.56421" lon="0.64717">
        <ele>81.457649378106</ele>
        <time>2021-11-17T12:35:24Z</time>
      </trkpt>
      <trkpt lat="46.56422" lon="0.64712">
        <ele>81.183058348484</ele>
        <time>2021-11-17T12:35:26Z</time>
      </trkpt>
      <trkpt lat="46.56424" lon="0.64709">
        <ele>80.860104309395</ele>
        <time>2021-11-17T12:35:28Z</time>
      </trkpt>
      <trkpt lat="46.56426" lon="0.64705">
        <ele>80.221132099628</ele>
        <time>2021-11-17T12:35:30Z</time>
      </trkpt>
      <trkpt lat="46.56427" lon="0.64702">
        <ele>80.105644531548</ele>
        <time>2021-11-17T12:35:32Z</time>
      </trkpt>
      <trkpt lat="46.56429" lon="0.64698">
        <ele>80.022170384414</ele>
        <time>2021-11-17T12:35:34Z</time>
      </trkpt>
      <trkpt lat="46.56431" lon="0.64695">
        <ele>79.968778995797</ele>
        <time>2021-11-17T12:35:36Z</time>
      </trkpt>
      <trkpt lat="46.56432" lon="0.64693">
        <ele>79.413191378117</ele>
        <time>2021-11-17T12:35:38Z</time>
      </trkpt>
      <trkpt lat="46.56434" lon="0.64691">
        <ele>79.800078125671</ele>
        <time>2021-11-17T12:35:39Z</time>
      </trkpt>
      <trkpt lat="46.56435" lon="0.64689">
        <ele>80.401186094619</ele>
        <time>2021-11-17T12:35:41Z</time>
      </trkpt>
      <trkpt lat="46.56436" lon="0.64687">
        <ele>80.307809653692</ele>
        <time>2021-11-17T12:35:43Z</time>
      </trkpt>
      <trkpt lat="46.56438" lon="0.64683">
        <ele>80.206453883089</ele>
        <time>2021-11-17T12:35:45Z</time>
      </trkpt>
      <trkpt lat="46.56439" lon="0.64681">
        <ele>80.661901097745</ele>
        <time>2021-11-17T12:35:52Z</time>
      </trkpt>
      <trkpt lat="46.5644" lon="0.64678">
        <ele>81.177268257365</ele>
        <time>2021-11-17T12:35:59Z</time>
      </trkpt>
      <trkpt lat="46.56439" lon="0.64676">
        <ele>81.221169522963</ele>
        <time>2021-11-17T12:36:02Z</time>
      </trkpt>
      <trkpt lat="46.56438" lon="0.64673">
        <ele>81.23172459472</ele>
        <time>2021-11-17T12:36:05Z</time>
      </trkpt>
      <trkpt lat="46.56438" lon="0.64671">
        <ele>80.994575108401</ele>
        <time>2021-11-17T12:36:08Z</time>
      </trkpt>
      <trkpt lat="46.56437" lon="0.64668">
        <ele>81.035387058742</ele>
        <time>2021-11-17T12:36:10Z</time>
      </trkpt>
      <trkpt lat="46.56436" lon="0.64665">
        <ele>80.857478799298</ele>
        <time>2021-11-17T12:36:13Z</time>
      </trkpt>
      <trkpt lat="46.56435" lon="0.64661">
        <ele>80.631285874173</ele>
        <time>2021-11-17T12:36:16Z</time>
      </trkpt>
      <trkpt lat="46.56436" lon="0.64658">
        <ele>80.264578517526</ele>
        <time>2021-11-17T12:36:19Z</time>
      </trkpt>
      <trkpt lat="46.56438" lon="0.64661">
        <ele>80.115513946861</ele>
        <time>2021-11-17T12:36:22Z</time>
      </trkpt>
      <trkpt lat="46.56439" lon="0.64664">
        <ele>79.811894342303</ele>
        <time>2021-11-17T12:36:24Z</time>
      </trkpt>
      <trkpt lat="46.5644" lon="0.64666">
        <ele>79.994103338569</ele>
        <time>2021-11-17T12:36:26Z</time>
      </trkpt>
      <trkpt lat="46.56441" lon="0.64669">
        <ele>79.807333870791</ele>
        <time>2021-11-17T12:36:28Z</time>
      </trkpt>
      <trkpt lat="46.56442" lon="0.64672">
        <ele>80.194755212404</ele>
        <time>2021-11-17T12:36:30Z</time>
      </trkpt>
      <trkpt lat="46.56444" lon="0.64675">
        <ele>80.124977922998</ele>
        <time>2021-11-17T12:36:33Z</time>
      </trkpt>
      <trkpt lat="46.56445" lon="0.64679">
        <ele>80.440751180984</ele>
        <time>2021-11-17T12:36:35Z</time>
      </trkpt>
      <trkpt lat="46.56445" lon="0.64676">
        <ele>80.694646444172</ele>
        <time>2021-11-17T12:36:43Z</time>
      </trkpt>
      <trkpt lat="46.56444" lon="0.64673">
        <ele>80.783717327751</ele>
        <time>2021-11-17T12:36:45Z</time>
      </trkpt>
      <trkpt lat="46.56443" lon="0.6467">
        <ele>80.595332850702</ele>
        <time>2021-11-17T12:36:48Z</time>
      </trkpt>
      <trkpt lat="46.56441" lon="0.64668">
        <ele>79.957387697883</ele>
        <time>2021-11-17T12:36:50Z</time>
      </trkpt>
      <trkpt lat="46.56441" lon="0.64665">
        <ele>80.419737886637</ele>
        <time>2021-11-17T12:36:52Z</time>
      </trkpt>
      <trkpt lat="46.5644" lon="0.64662">
        <ele>79.977134551853</ele>
        <time>2021-11-17T12:36:54Z</time>
      </trkpt>
      <trkpt lat="46.56439" lon="0.6466">
        <ele>79.984465627931</ele>
        <time>2021-11-17T12:36:56Z</time>
      </trkpt>
      <trkpt lat="46.56437" lon="0.64657">
        <ele>79.970186439343</ele>
        <time>2021-11-17T12:36:58Z</time>
      </trkpt>
      <trkpt lat="46.56437" lon="0.64654">
        <ele>79.664904713631</ele>
        <time>2021-11-17T12:37:00Z</time>
      </trkpt>
      <trkpt lat="46.56435" lon="0.6465">
        <ele>79.118544998579</ele>
        <time>2021-11-17T12:37:02Z</time>
      </trkpt>
      <trkpt lat="46.56434" lon="0.64646">
        <ele>78.634169735014</ele>
        <time>2021-11-17T12:37:04Z</time>
      </trkpt>
      <trkpt lat="46.56432" lon="0.64642">
        <ele>78.757173203863</ele>
        <time>2021-11-17T12:37:06Z</time>
      </trkpt>
      <trkpt lat="46.56431" lon="0.64639">
        <ele>78.365558860824</ele>
        <time>2021-11-17T12:37:08Z</time>
      </trkpt>
      <trkpt lat="46.5643" lon="0.64636">
        <ele>78.464491073042</ele>
        <time>2021-11-17T12:37:10Z</time>
      </trkpt>
      <trkpt lat="46.56429" lon="0.64632">
        <ele>78.443846932612</ele>
        <time>2021-11-17T12:37:12Z</time>
      </trkpt>
      <trkpt lat="46.56429" lon="0.64629">
        <ele>78.125814402476</ele>
        <time>2021-11-17T12:37:14Z</time>
      </trkpt>
      <trkpt lat="46.56427" lon="0.64624">
        <ele>78.040360765532</ele>
        <time>2021-11-17T12:37:17Z</time>
      </trkpt>
      <trkpt lat="46.56426" lon="0.64621">
        <ele>78.012271934189</ele>
        <time>2021-11-17T12:37:19Z</time>
      </trkpt>
      <trkpt lat="46.56425" lon="0.64618">
        <ele>78.288615972735</ele>
        <time>2021-11-17T12:37:21Z</time>
      </trkpt>
      <trkpt lat="46.56424" lon="0.64615">
        <ele>78.217618713155</ele>
        <time>2021-11-17T12:37:23Z</time>
      </trkpt>
      <trkpt lat="46.56422" lon="0.64612">
        <ele>78.467173635028</ele>
        <time>2021-11-17T12:37:25Z</time>
      </trkpt>
      <trkpt lat="46.56422" lon="0.64608">
        <ele>78.928847116418</ele>
        <time>2021-11-17T12:37:27Z</time>
      </trkpt>
      <trkpt lat="46.56421" lon="0.64605">
        <ele>79.076663202606</ele>
        <time>2021-11-17T12:37:29Z</time>
      </trkpt>
      <trkpt lat="46.56419" lon="0.64602">
        <ele>79.436209432781</ele>
        <time>2021-11-17T12:37:31Z</time>
      </trkpt>
      <trkpt lat="46.56417" lon="0.64598">
        <ele>79.061815292574</ele>
        <time>2021-11-17T12:37:33Z</time>
      </trkpt>
      <trkpt lat="46.56416" lon="0.64595">
        <ele>79.553415641189</ele>
        <time>2021-11-17T12:37:35Z</time>
      </trkpt>
      <trkpt lat="46.56415" lon="0.64592">
        <ele>79.588759410195</ele>
        <time>2021-11-17T12:37:37Z</time>
      </trkpt>
      <trkpt lat="46.56415" lon="0.64589">
        <ele>79.608970331959</ele>
        <time>2021-11-17T12:37:39Z</time>
      </trkpt>
      <trkpt lat="46.56414" lon="0.64586">
        <ele>79.417007954791</ele>
        <time>2021-11-17T12:37:41Z</time>
      </trkpt>
      <trkpt lat="46.56413" lon="0.64582">
        <ele>79.345117476769</ele>
        <time>2021-11-17T12:37:43Z</time>
      </trkpt>
      <trkpt lat="46.56412" lon="0.64579">
        <ele>79.145468384027</ele>
        <time>2021-11-17T12:37:45Z</time>
      </trkpt>
      <trkpt lat="46.56411" lon="0.64576">
        <ele>78.720739231445</ele>
        <time>2021-11-17T12:37:47Z</time>
      </trkpt>
      <trkpt lat="46.5641" lon="0.64572">
        <ele>78.48274965398</ele>
        <time>2021-11-17T12:37:50Z</time>
      </trkpt>
      <trkpt lat="46.56409" lon="0.6457">
        <ele>78.414791974239</ele>
        <time>2021-11-17T12:37:52Z</time>
      </trkpt>
      <trkpt lat="46.56408" lon="0.64566">
        <ele>78.614678393118</ele>
        <time>2021-11-17T12:37:54Z</time>
      </trkpt>
      <trkpt lat="46.56407" lon="0.64563">
        <ele>78.191812796518</ele>
        <time>2021-11-17T12:37:56Z</time>
      </trkpt>
      <trkpt lat="46.56405" lon="0.6456">
        <ele>77.733664018102</ele>
        <time>2021-11-17T12:37:58Z</time>
      </trkpt>
      <trkpt lat="46.56405" lon="0.64556">
        <ele>77.678228396922</ele>
        <time>2021-11-17T12:38:00Z</time>
      </trkpt>
      <trkpt lat="46.56404" lon="0.64552">
        <ele>77.706810774282</ele>
        <time>2021-11-17T12:38:02Z</time>
      </trkpt>
      <trkpt lat="46.56403" lon="0.64549">
        <ele>77.610173583962</ele>
        <time>2021-11-17T12:38:04Z</time>
      </trkpt>
      <trkpt lat="46.56402" lon="0.64546">
        <ele>77.586746050045</ele>
        <time>2021-11-17T12:38:06Z</time>
      </trkpt>
      <trkpt lat="46.56401" lon="0.64542">
        <ele>77.880359667353</ele>
        <time>2021-11-17T12:38:08Z</time>
      </trkpt>
      <trkpt lat="46.564" lon="0.64538">
        <ele>77.638956961222</ele>
        <time>2021-11-17T12:38:10Z</time>
      </trkpt>
      <trkpt lat="46.564" lon="0.64535">
        <ele>77.763425788842</ele>
        <time>2021-11-17T12:38:12Z</time>
      </trkpt>
      <trkpt lat="46.56399" lon="0.64532">
        <ele>77.774613767862</ele>
        <time>2021-11-17T12:38:14Z</time>
      </trkpt>
      <trkpt lat="46.56399" lon="0.64528">
        <ele>77.991335932165</ele>
        <time>2021-11-17T12:38:16Z</time>
      </trkpt>
      <trkpt lat="46.56397" lon="0.64526">
        <ele>77.885636632331</ele>
        <time>2021-11-17T12:38:18Z</time>
      </trkpt>
      <trkpt lat="46.56397" lon="0.64521">
        <ele>78.079961570911</ele>
        <time>2021-11-17T12:38:20Z</time>
      </trkpt>
      <trkpt lat="46.56396" lon="0.64517">
        <ele>78.314421184361</ele>
        <time>2021-11-17T12:38:22Z</time>
      </trkpt>
      <trkpt lat="46.56396" lon="0.64514">
        <ele>78.402061304078</ele>
        <time>2021-11-17T12:38:25Z</time>
      </trkpt>
      <trkpt lat="46.56396" lon="0.6451">
        <ele>78.475333408453</ele>
        <time>2021-11-17T12:38:29Z</time>
      </trkpt>
      <trkpt lat="46.56395" lon="0.64508">
        <ele>78.488632949069</ele>
        <time>2021-11-17T12:38:30Z</time>
      </trkpt>
      <trkpt lat="46.56395" lon="0.64504">
        <ele>78.995840379968</ele>
        <time>2021-11-17T12:38:33Z</time>
      </trkpt>
      <trkpt lat="46.56394" lon="0.64501">
        <ele>79.41124981083</ele>
        <time>2021-11-17T12:38:36Z</time>
      </trkpt>
      <trkpt lat="46.56393" lon="0.64497">
        <ele>79.191897303797</ele>
        <time>2021-11-17T12:38:38Z</time>
      </trkpt>
      <trkpt lat="46.56393" lon="0.64494">
        <ele>79.170539392158</ele>
        <time>2021-11-17T12:38:40Z</time>
      </trkpt>
      <trkpt lat="46.56393" lon="0.6449">
        <ele>79.216494440101</ele>
        <time>2021-11-17T12:38:42Z</time>
      </trkpt>
      <trkpt lat="46.56392" lon="0.64487">
        <ele>79.004820086062</ele>
        <time>2021-11-17T12:38:44Z</time>
      </trkpt>
      <trkpt lat="46.56391" lon="0.64483">
        <ele>79.21911338903</ele>
        <time>2021-11-17T12:38:46Z</time>
      </trkpt>
      <trkpt lat="46.5639" lon="0.6448">
        <ele>79.464211714454</ele>
        <time>2021-11-17T12:38:48Z</time>
      </trkpt>
      <trkpt lat="46.5639" lon="0.64476">
        <ele>79.435267112218</ele>
        <time>2021-11-17T12:38:50Z</time>
      </trkpt>
      <trkpt lat="46.56389" lon="0.64473">
        <ele>79.187373426743</ele>
        <time>2021-11-17T12:38:52Z</time>
      </trkpt>
      <trkpt lat="46.56388" lon="0.64469">
        <ele>78.967879611999</ele>
        <time>2021-11-17T12:38:54Z</time>
      </trkpt>
      <trkpt lat="46.56388" lon="0.64465">
        <ele>79.063532245345</ele>
        <time>2021-11-17T12:38:56Z</time>
      </trkpt>
      <trkpt lat="46.56387" lon="0.64461">
        <ele>79.317440990359</ele>
        <time>2021-11-17T12:38:59Z</time>
      </trkpt>
      <trkpt lat="46.56387" lon="0.64459">
        <ele>79.220246420242</ele>
        <time>2021-11-17T12:39:01Z</time>
      </trkpt>
      <trkpt lat="46.56387" lon="0.64456">
        <ele>79.198293086141</ele>
        <time>2021-11-17T12:39:03Z</time>
      </trkpt>
      <trkpt lat="46.56386" lon="0.64453">
        <ele>78.959064890631</ele>
        <time>2021-11-17T12:39:05Z</time>
      </trkpt>
      <trkpt lat="46.56386" lon="0.6445">
        <ele>79.202052601613</ele>
        <time>2021-11-17T12:39:06Z</time>
      </trkpt>
      <trkpt lat="46.56385" lon="0.64447">
        <ele>78.836163769476</ele>
        <time>2021-11-17T12:39:08Z</time>
      </trkpt>
      <trkpt lat="46.56385" lon="0.64444">
        <ele>78.713527406566</ele>
        <time>2021-11-17T12:39:10Z</time>
      </trkpt>
      <trkpt lat="46.56384" lon="0.6444">
        <ele>79.018437176943</ele>
        <time>2021-11-17T12:39:12Z</time>
      </trkpt>
      <trkpt lat="46.56384" lon="0.64436">
        <ele>78.76670697052</ele>
        <time>2021-11-17T12:39:14Z</time>
      </trkpt>
      <trkpt lat="46.56383" lon="0.64432">
        <ele>78.969876676798</ele>
        <time>2021-11-17T12:39:16Z</time>
      </trkpt>
      <trkpt lat="46.56383" lon="0.64428">
        <ele>78.272081971169</ele>
        <time>2021-11-17T12:39:18Z</time>
      </trkpt>
      <trkpt lat="46.56382" lon="0.64425">
        <ele>78.137658030726</ele>
        <time>2021-11-17T12:39:20Z</time>
      </trkpt>
      <trkpt lat="46.56382" lon="0.64421">
        <ele>77.837092124857</ele>
        <time>2021-11-17T12:39:22Z</time>
      </trkpt>
      <trkpt lat="46.56382" lon="0.64418">
        <ele>77.686272757128</ele>
        <time>2021-11-17T12:39:24Z</time>
      </trkpt>
      <trkpt lat="46.56382" lon="0.64415">
        <ele>77.720056844875</ele>
        <time>2021-11-17T12:39:26Z</time>
      </trkpt>
      <trkpt lat="46.56381" lon="0.64411">
        <ele>77.870166420937</ele>
        <time>2021-11-17T12:39:28Z</time>
      </trkpt>
      <trkpt lat="46.56381" lon="0.64407">
        <ele>77.433779664338</ele>
        <time>2021-11-17T12:39:30Z</time>
      </trkpt>
      <trkpt lat="46.5638" lon="0.64403">
        <ele>77.288746384904</ele>
        <time>2021-11-17T12:39:32Z</time>
      </trkpt>
      <trkpt lat="46.5638" lon="0.644">
        <ele>77.228466861881</ele>
        <time>2021-11-17T12:39:34Z</time>
      </trkpt>
      <trkpt lat="46.5638" lon="0.64396">
        <ele>77.284406626597</ele>
        <time>2021-11-17T12:39:36Z</time>
      </trkpt>
      <trkpt lat="46.5638" lon="0.64393">
        <ele>76.880739225075</ele>
        <time>2021-11-17T12:39:38Z</time>
      </trkpt>
      <trkpt lat="46.56379" lon="0.64389">
        <ele>76.588567089289</ele>
        <time>2021-11-17T12:39:40Z</time>
      </trkpt>
      <trkpt lat="46.56378" lon="0.64385">
        <ele>76.748671402223</ele>
        <time>2021-11-17T12:39:42Z</time>
      </trkpt>
      <trkpt lat="46.56378" lon="0.64382">
        <ele>76.818161250092</ele>
        <time>2021-11-17T12:39:44Z</time>
      </trkpt>
      <trkpt lat="46.56378" lon="0.64378">
        <ele>76.289240195416</ele>
        <time>2021-11-17T12:39:46Z</time>
      </trkpt>
      <trkpt lat="46.56378" lon="0.64375">
        <ele>76.027059183456</ele>
        <time>2021-11-17T12:39:48Z</time>
      </trkpt>
      <trkpt lat="46.56378" lon="0.64371">
        <ele>75.743459285237</ele>
        <time>2021-11-17T12:39:50Z</time>
      </trkpt>
      <trkpt lat="46.56378" lon="0.64367">
        <ele>75.396911746822</ele>
        <time>2021-11-17T12:39:52Z</time>
      </trkpt>
      <trkpt lat="46.56378" lon="0.64364">
        <ele>75.03374319803</ele>
        <time>2021-11-17T12:39:54Z</time>
      </trkpt>
      <trkpt lat="46.56377" lon="0.64361">
        <ele>74.932195475325</ele>
        <time>2021-11-17T12:39:56Z</time>
      </trkpt>
      <trkpt lat="46.56378" lon="0.64358">
        <ele>74.099786775187</ele>
        <time>2021-11-17T12:39:58Z</time>
      </trkpt>
      <trkpt lat="46.56377" lon="0.64353">
        <ele>74.057494519278</ele>
        <time>2021-11-17T12:40:00Z</time>
      </trkpt>
      <trkpt lat="46.56377" lon="0.64349">
        <ele>73.664058198221</ele>
        <time>2021-11-17T12:40:02Z</time>
      </trkpt>
      <trkpt lat="46.56377" lon="0.64345">
        <ele>73.237665998749</ele>
        <time>2021-11-17T12:40:04Z</time>
      </trkpt>
      <trkpt lat="46.56377" lon="0.64341">
        <ele>72.64598447457</ele>
        <time>2021-11-17T12:40:06Z</time>
      </trkpt>
      <trkpt lat="46.56377" lon="0.64338">
        <ele>72.228356312029</ele>
        <time>2021-11-17T12:40:08Z</time>
      </trkpt>
      <trkpt lat="46.56377" lon="0.64334">
        <ele>71.976237093098</ele>
        <time>2021-11-17T12:40:10Z</time>
      </trkpt>
      <trkpt lat="46.56377" lon="0.6433">
        <ele>71.638789515942</ele>
        <time>2021-11-17T12:40:12Z</time>
      </trkpt>
      <trkpt lat="46.56377" lon="0.64326">
        <ele>71.248763812706</ele>
        <time>2021-11-17T12:40:14Z</time>
      </trkpt>
      <trkpt lat="46.56377" lon="0.64322">
        <ele>70.914843581617</ele>
        <time>2021-11-17T12:40:16Z</time>
      </trkpt>
      <trkpt lat="46.56378" lon="0.64319">
        <ele>70.91242447868</ele>
        <time>2021-11-17T12:40:18Z</time>
      </trkpt>
      <trkpt lat="46.56378" lon="0.64316">
        <ele>70.824886918068</ele>
        <time>2021-11-17T12:40:20Z</time>
      </trkpt>
      <trkpt lat="46.56378" lon="0.64313">
        <ele>70.941074917093</ele>
        <time>2021-11-17T12:40:22Z</time>
      </trkpt>
      <trkpt lat="46.56379" lon="0.64309">
        <ele>70.853323260322</ele>
        <time>2021-11-17T12:40:25Z</time>
      </trkpt>
      <trkpt lat="46.56379" lon="0.64306">
        <ele>71.005982461385</ele>
        <time>2021-11-17T12:40:27Z</time>
      </trkpt>
      <trkpt lat="46.56379" lon="0.64302">
        <ele>71.199507418089</ele>
        <time>2021-11-17T12:40:30Z</time>
      </trkpt>
      <trkpt lat="46.56379" lon="0.64299">
        <ele>70.928643558174</ele>
        <time>2021-11-17T12:40:32Z</time>
      </trkpt>
      <trkpt lat="46.56379" lon="0.64295">
        <ele>71.009181265719</ele>
        <time>2021-11-17T12:40:34Z</time>
      </trkpt>
      <trkpt lat="46.56379" lon="0.64291">
        <ele>71.184145111591</ele>
        <time>2021-11-17T12:40:36Z</time>
      </trkpt>
      <trkpt lat="46.56379" lon="0.64287">
        <ele>71.665529051796</ele>
        <time>2021-11-17T12:40:38Z</time>
      </trkpt>
      <trkpt lat="46.56379" lon="0.64284">
        <ele>71.482499128208</ele>
        <time>2021-11-17T12:40:40Z</time>
      </trkpt>
      <trkpt lat="46.56379" lon="0.64281">
        <ele>71.928868171759</ele>
        <time>2021-11-17T12:40:42Z</time>
      </trkpt>
      <trkpt lat="46.56379" lon="0.64277">
        <ele>71.81161252968</ele>
        <time>2021-11-17T12:40:44Z</time>
      </trkpt>
      <trkpt lat="46.56379" lon="0.64273">
        <ele>71.24309604615</ele>
        <time>2021-11-17T12:40:46Z</time>
      </trkpt>
      <trkpt lat="46.56379" lon="0.6427">
        <ele>71.478773742914</ele>
        <time>2021-11-17T12:40:48Z</time>
      </trkpt>
      <trkpt lat="46.56379" lon="0.64266">
        <ele>72.343483120203</ele>
        <time>2021-11-17T12:40:50Z</time>
      </trkpt>
      <trkpt lat="46.5638" lon="0.64262">
        <ele>72.333040665835</ele>
        <time>2021-11-17T12:40:52Z</time>
      </trkpt>
      <trkpt lat="46.5638" lon="0.64258">
        <ele>72.521847356111</ele>
        <time>2021-11-17T12:40:54Z</time>
      </trkpt>
      <trkpt lat="46.56381" lon="0.64256">
        <ele>72.514067195356</ele>
        <time>2021-11-17T12:40:56Z</time>
      </trkpt>
      <trkpt lat="46.56381" lon="0.64253">
        <ele>72.541092724539</ele>
        <time>2021-11-17T12:40:58Z</time>
      </trkpt>
      <trkpt lat="46.56382" lon="0.64249">
        <ele>72.6854373198</ele>
        <time>2021-11-17T12:41:00Z</time>
      </trkpt>
      <trkpt lat="46.56382" lon="0.64245">
        <ele>72.669182664715</ele>
        <time>2021-11-17T12:41:02Z</time>
      </trkpt>
      <trkpt lat="46.56382" lon="0.64241">
        <ele>72.539003888145</ele>
        <time>2021-11-17T12:41:04Z</time>
      </trkpt>
      <trkpt lat="46.56383" lon="0.64238">
        <ele>72.344931944273</ele>
        <time>2021-11-17T12:41:06Z</time>
      </trkpt>
      <trkpt lat="46.56383" lon="0.64234">
        <ele>72.747055822052</ele>
        <time>2021-11-17T12:41:08Z</time>
      </trkpt>
      <trkpt lat="46.56383" lon="0.64231">
        <ele>73.248439298943</ele>
        <time>2021-11-17T12:41:10Z</time>
      </trkpt>
      <trkpt lat="46.56383" lon="0.64227">
        <ele>73.360832558013</ele>
        <time>2021-11-17T12:41:12Z</time>
      </trkpt>
      <trkpt lat="46.56383" lon="0.64224">
        <ele>73.774486052804</ele>
        <time>2021-11-17T12:41:14Z</time>
      </trkpt>
      <trkpt lat="46.56384" lon="0.64221">
        <ele>73.169679843821</ele>
        <time>2021-11-17T12:41:16Z</time>
      </trkpt>
      <trkpt lat="46.56384" lon="0.64217">
        <ele>73.684201917611</ele>
        <time>2021-11-17T12:41:18Z</time>
      </trkpt>
      <trkpt lat="46.56385" lon="0.64213">
        <ele>73.464387187734</ele>
        <time>2021-11-17T12:41:20Z</time>
      </trkpt>
      <trkpt lat="46.56385" lon="0.6421">
        <ele>73.569875172339</ele>
        <time>2021-11-17T12:41:22Z</time>
      </trkpt>
      <trkpt lat="46.56385" lon="0.64207">
        <ele>73.513386465609</ele>
        <time>2021-11-17T12:41:24Z</time>
      </trkpt>
      <trkpt lat="46.56385" lon="0.64203">
        <ele>73.952864302322</ele>
        <time>2021-11-17T12:41:26Z</time>
      </trkpt>
      <trkpt lat="46.56386" lon="0.642">
        <ele>73.835140627809</ele>
        <time>2021-11-17T12:41:28Z</time>
      </trkpt>
      <trkpt lat="46.56387" lon="0.64197">
        <ele>74.173601388</ele>
        <time>2021-11-17T12:41:30Z</time>
      </trkpt>
      <trkpt lat="46.56388" lon="0.64193">
        <ele>74.466083813459</ele>
        <time>2021-11-17T12:41:32Z</time>
      </trkpt>
      <trkpt lat="46.56389" lon="0.64189">
        <ele>74.593318548985</ele>
        <time>2021-11-17T12:41:34Z</time>
      </trkpt>
      <trkpt lat="46.5639" lon="0.64185">
        <ele>74.693001179025</ele>
        <time>2021-11-17T12:41:36Z</time>
      </trkpt>
      <trkpt lat="46.5639" lon="0.64181">
        <ele>74.967319964431</ele>
        <time>2021-11-17T12:41:38Z</time>
      </trkpt>
      <trkpt lat="46.56391" lon="0.64177">
        <ele>74.697011785582</ele>
        <time>2021-11-17T12:41:40Z</time>
      </trkpt>
      <trkpt lat="46.56391" lon="0.64174">
        <ele>74.934764510952</ele>
        <time>2021-11-17T12:41:42Z</time>
      </trkpt>
      <trkpt lat="46.56392" lon="0.6417">
        <ele>74.380092323758</ele>
        <time>2021-11-17T12:41:44Z</time>
      </trkpt>
      <trkpt lat="46.56392" lon="0.64165">
        <ele>74.504788442515</ele>
        <time>2021-11-17T12:41:46Z</time>
      </trkpt>
      <trkpt lat="46.56394" lon="0.64161">
        <ele>74.580735019408</ele>
        <time>2021-11-17T12:41:48Z</time>
      </trkpt>
      <trkpt lat="46.56394" lon="0.64158">
        <ele>74.167979297228</ele>
        <time>2021-11-17T12:41:50Z</time>
      </trkpt>
      <trkpt lat="46.56395" lon="0.64154">
        <ele>74.156985905021</ele>
        <time>2021-11-17T12:41:52Z</time>
      </trkpt>
      <trkpt lat="46.56396" lon="0.6415">
        <ele>73.687028915621</ele>
        <time>2021-11-17T12:41:54Z</time>
      </trkpt>
      <trkpt lat="46.56396" lon="0.64147">
        <ele>73.533552253619</ele>
        <time>2021-11-17T12:41:56Z</time>
      </trkpt>
      <trkpt lat="46.56396" lon="0.64144">
        <ele>73.399960096925</ele>
        <time>2021-11-17T12:41:58Z</time>
      </trkpt>
      <trkpt lat="46.56397" lon="0.6414">
        <ele>73.228925450705</ele>
        <time>2021-11-17T12:42:00Z</time>
      </trkpt>
      <trkpt lat="46.56398" lon="0.64137">
        <ele>73.089756846428</ele>
        <time>2021-11-17T12:42:02Z</time>
      </trkpt>
      <trkpt lat="46.56399" lon="0.64134">
        <ele>72.668832302094</ele>
        <time>2021-11-17T12:42:04Z</time>
      </trkpt>
      <trkpt lat="46.564" lon="0.64131">
        <ele>72.658258823678</ele>
        <time>2021-11-17T12:42:06Z</time>
      </trkpt>
      <trkpt lat="46.56401" lon="0.64127">
        <ele>72.268909169361</ele>
        <time>2021-11-17T12:42:08Z</time>
      </trkpt>
      <trkpt lat="46.56403" lon="0.64124">
        <ele>72.338037614711</ele>
        <time>2021-11-17T12:42:10Z</time>
      </trkpt>
      <trkpt lat="46.56403" lon="0.6412">
        <ele>72.019561012276</ele>
        <time>2021-11-17T12:42:12Z</time>
      </trkpt>
      <trkpt lat="46.56404" lon="0.64117">
        <ele>71.832895309664</ele>
        <time>2021-11-17T12:42:14Z</time>
      </trkpt>
      <trkpt lat="46.56406" lon="0.64114">
        <ele>71.629701573402</ele>
        <time>2021-11-17T12:42:16Z</time>
      </trkpt>
      <trkpt lat="46.56407" lon="0.64111">
        <ele>71.960717190057</ele>
        <time>2021-11-17T12:42:18Z</time>
      </trkpt>
      <trkpt lat="46.56408" lon="0.64108">
        <ele>71.859092278406</ele>
        <time>2021-11-17T12:42:20Z</time>
      </trkpt>
      <trkpt lat="46.56409" lon="0.64105">
        <ele>72.090540041216</ele>
        <time>2021-11-17T12:42:22Z</time>
      </trkpt>
      <trkpt lat="46.56409" lon="0.64101">
        <ele>71.936342367902</ele>
        <time>2021-11-17T12:42:24Z</time>
      </trkpt>
      <trkpt lat="46.5641" lon="0.64098">
        <ele>71.799967831001</ele>
        <time>2021-11-17T12:42:26Z</time>
      </trkpt>
      <trkpt lat="46.56411" lon="0.64094">
        <ele>71.747509016655</ele>
        <time>2021-11-17T12:42:28Z</time>
      </trkpt>
      <trkpt lat="46.56411" lon="0.64091">
        <ele>72.070436911657</ele>
        <time>2021-11-17T12:42:30Z</time>
      </trkpt>
      <trkpt lat="46.56412" lon="0.64088">
        <ele>72.004714565352</ele>
        <time>2021-11-17T12:42:32Z</time>
      </trkpt>
      <trkpt lat="46.56412" lon="0.64085">
        <ele>72.301211150363</ele>
        <time>2021-11-17T12:42:33Z</time>
      </trkpt>
      <trkpt lat="46.56413" lon="0.64082">
        <ele>72.569374724291</ele>
        <time>2021-11-17T12:42:35Z</time>
      </trkpt>
      <trkpt lat="46.56414" lon="0.64079">
        <ele>72.717858746648</ele>
        <time>2021-11-17T12:42:38Z</time>
      </trkpt>
      <trkpt lat="46.56415" lon="0.64076">
        <ele>72.30886040628</ele>
        <time>2021-11-17T12:42:41Z</time>
      </trkpt>
      <trkpt lat="46.56415" lon="0.64073">
        <ele>72.229092384689</ele>
        <time>2021-11-17T12:42:43Z</time>
      </trkpt>
      <trkpt lat="46.56417" lon="0.64071">
        <ele>71.760136364959</ele>
        <time>2021-11-17T12:42:48Z</time>
      </trkpt>
      <trkpt lat="46.56419" lon="0.64072">
        <ele>70.941315311007</ele>
        <time>2021-11-17T12:42:54Z</time>
      </trkpt>
      <trkpt lat="46.56421" lon="0.64073">
        <ele>69.6663773451</ele>
        <time>2021-11-17T12:43:00Z</time>
      </trkpt>
      <trkpt lat="46.56423" lon="0.64074">
        <ele>68.857149735093</ele>
        <time>2021-11-17T12:43:06Z</time>
      </trkpt>
      <trkpt lat="46.56425" lon="0.64075">
        <ele>68.022726582363</ele>
        <time>2021-11-17T12:43:10Z</time>
      </trkpt>
      <trkpt lat="46.56427" lon="0.64076">
        <ele>68.086012124084</ele>
        <time>2021-11-17T12:43:14Z</time>
      </trkpt>
      <trkpt lat="46.56429" lon="0.64077">
        <ele>67.847914302722</ele>
        <time>2021-11-17T12:43:17Z</time>
      </trkpt>
      <trkpt lat="46.5643" lon="0.64078">
        <ele>67.514196995646</ele>
        <time>2021-11-17T12:43:21Z</time>
      </trkpt>
      <trkpt lat="46.56432" lon="0.64079">
        <ele>67.23382752575</ele>
        <time>2021-11-17T12:43:24Z</time>
      </trkpt>
      <trkpt lat="46.56434" lon="0.64081">
        <ele>66.956550942734</ele>
        <time>2021-11-17T12:43:28Z</time>
      </trkpt>
      <trkpt lat="46.56437" lon="0.64081">
        <ele>66.754424731247</ele>
        <time>2021-11-17T12:43:30Z</time>
      </trkpt>
      <trkpt lat="46.56438" lon="0.64076">
        <ele>66.801669222303</ele>
        <time>2021-11-17T12:43:32Z</time>
      </trkpt>
      <trkpt lat="46.56437" lon="0.64073">
        <ele>66.89613998495</ele>
        <time>2021-11-17T12:43:33Z</time>
      </trkpt>
      <trkpt lat="46.56437" lon="0.6407">
        <ele>66.695608600974</ele>
        <time>2021-11-17T12:43:35Z</time>
      </trkpt>
      <trkpt lat="46.56436" lon="0.64067">
        <ele>66.750657680444</ele>
        <time>2021-11-17T12:43:37Z</time>
      </trkpt>
      <trkpt lat="46.56436" lon="0.64063">
        <ele>66.131263633259</ele>
        <time>2021-11-17T12:43:40Z</time>
      </trkpt>
      <trkpt lat="46.56437" lon="0.6406">
        <ele>65.559205327183</ele>
        <time>2021-11-17T12:43:47Z</time>
      </trkpt>
      <trkpt lat="46.56436" lon="0.64058">
        <ele>65.441365087405</ele>
        <time>2021-11-17T12:43:51Z</time>
      </trkpt>
      <trkpt lat="46.56434" lon="0.64056">
        <ele>65.125316981226</ele>
        <time>2021-11-17T12:43:53Z</time>
      </trkpt>
      <trkpt lat="46.56431" lon="0.64054">
        <ele>64.944106322713</ele>
        <time>2021-11-17T12:43:55Z</time>
      </trkpt>
      <trkpt lat="46.56429" lon="0.64052">
        <ele>64.702178479172</ele>
        <time>2021-11-17T12:43:57Z</time>
      </trkpt>
      <trkpt lat="46.56428" lon="0.6405">
        <ele>64.64014008455</ele>
        <time>2021-11-17T12:43:59Z</time>
      </trkpt>
      <trkpt lat="46.56426" lon="0.64048">
        <ele>65.177133025602</ele>
        <time>2021-11-17T12:44:01Z</time>
      </trkpt>
      <trkpt lat="46.56424" lon="0.64046">
        <ele>64.933776605874</ele>
        <time>2021-11-17T12:44:03Z</time>
      </trkpt>
      <trkpt lat="46.56422" lon="0.64043">
        <ele>65.121273022145</ele>
        <time>2021-11-17T12:44:05Z</time>
      </trkpt>
      <trkpt lat="46.56421" lon="0.64041">
        <ele>65.107792069204</ele>
        <time>2021-11-17T12:44:06Z</time>
      </trkpt>
      <trkpt lat="46.56419" lon="0.64038">
        <ele>65.040776127949</ele>
        <time>2021-11-17T12:44:08Z</time>
      </trkpt>
      <trkpt lat="46.56418" lon="0.64036">
        <ele>65.078118525445</ele>
        <time>2021-11-17T12:44:10Z</time>
      </trkpt>
      <trkpt lat="46.56415" lon="0.64035">
        <ele>64.779877189547</ele>
        <time>2021-11-17T12:44:12Z</time>
      </trkpt>
      <trkpt lat="46.56413" lon="0.64036">
        <ele>64.874924899079</ele>
        <time>2021-11-17T12:44:14Z</time>
      </trkpt>
      <trkpt lat="46.56411" lon="0.64037">
        <ele>64.300740210339</ele>
        <time>2021-11-17T12:44:16Z</time>
      </trkpt>
      <trkpt lat="46.56408" lon="0.64039">
        <ele>64.9335444998</ele>
        <time>2021-11-17T12:44:18Z</time>
      </trkpt>
      <trkpt lat="46.56407" lon="0.64041">
        <ele>64.525982244872</ele>
        <time>2021-11-17T12:44:20Z</time>
      </trkpt>
      <trkpt lat="46.56404" lon="0.64043">
        <ele>64.911645412445</ele>
        <time>2021-11-17T12:44:23Z</time>
      </trkpt>
      <trkpt lat="46.56403" lon="0.64046">
        <ele>64.560560813174</ele>
        <time>2021-11-17T12:44:25Z</time>
      </trkpt>
      <trkpt lat="46.56402" lon="0.64049">
        <ele>65.180944684893</ele>
        <time>2021-11-17T12:44:27Z</time>
      </trkpt>
      <trkpt lat="46.56401" lon="0.64052">
        <ele>65.016941875219</ele>
        <time>2021-11-17T12:44:30Z</time>
      </trkpt>
      <trkpt lat="46.56399" lon="0.64054">
        <ele>65.415938781574</ele>
        <time>2021-11-17T12:44:32Z</time>
      </trkpt>
      <trkpt lat="46.56398" lon="0.64057">
        <ele>65.590351119637</ele>
        <time>2021-11-17T12:44:34Z</time>
      </trkpt>
      <trkpt lat="46.56397" lon="0.64059">
        <ele>65.707800230943</ele>
        <time>2021-11-17T12:44:36Z</time>
      </trkpt>
      <trkpt lat="46.56396" lon="0.64062">
        <ele>66.198260026984</ele>
        <time>2021-11-17T12:44:40Z</time>
      </trkpt>
      <trkpt lat="46.56394" lon="0.64063">
        <ele>66.749336864799</ele>
        <time>2021-11-17T12:44:43Z</time>
      </trkpt>
      <trkpt lat="46.56393" lon="0.64066">
        <ele>66.843713166192</ele>
        <time>2021-11-17T12:44:48Z</time>
      </trkpt>
      <trkpt lat="46.56391" lon="0.64067">
        <ele>67.329379269853</ele>
        <time>2021-11-17T12:45:02Z</time>
      </trkpt>
      <trkpt lat="46.56389" lon="0.64066">
        <ele>66.824754521251</ele>
        <time>2021-11-17T12:45:04Z</time>
      </trkpt>
      <trkpt lat="46.56387" lon="0.64064">
        <ele>66.656200248748</ele>
        <time>2021-11-17T12:45:07Z</time>
      </trkpt>
      <trkpt lat="46.56385" lon="0.64063">
        <ele>66.514328905381</ele>
        <time>2021-11-17T12:45:09Z</time>
      </trkpt>
      <trkpt lat="46.56383" lon="0.64062">
        <ele>66.104793262668</ele>
        <time>2021-11-17T12:45:12Z</time>
      </trkpt>
      <trkpt lat="46.56381" lon="0.64061">
        <ele>66.391357509419</ele>
        <time>2021-11-17T12:45:13Z</time>
      </trkpt>
      <trkpt lat="46.56379" lon="0.64061">
        <ele>65.805396843702</ele>
        <time>2021-11-17T12:45:15Z</time>
      </trkpt>
      <trkpt lat="46.56376" lon="0.6406">
        <ele>65.933919854462</ele>
        <time>2021-11-17T12:45:18Z</time>
      </trkpt>
      <trkpt lat="46.56374" lon="0.6406">
        <ele>65.276667042635</ele>
        <time>2021-11-17T12:45:20Z</time>
      </trkpt>
      <trkpt lat="46.56373" lon="0.6406">
        <ele>65.362684049644</ele>
        <time>2021-11-17T12:45:22Z</time>
      </trkpt>
      <trkpt lat="46.56371" lon="0.64059">
        <ele>65.345421731472</ele>
        <time>2021-11-17T12:45:24Z</time>
      </trkpt>
      <trkpt lat="46.56368" lon="0.64059">
        <ele>65.00478265062</ele>
        <time>2021-11-17T12:45:26Z</time>
      </trkpt>
      <trkpt lat="46.56366" lon="0.64059">
        <ele>65.081486376934</ele>
        <time>2021-11-17T12:45:29Z</time>
      </trkpt>
      <trkpt lat="46.56364" lon="0.64059">
        <ele>64.56333417818</ele>
        <time>2021-11-17T12:45:31Z</time>
      </trkpt>
      <trkpt lat="46.56361" lon="0.64058">
        <ele>64.354357735254</ele>
        <time>2021-11-17T12:45:33Z</time>
      </trkpt>
      <trkpt lat="46.56359" lon="0.64057">
        <ele>64.433358207345</ele>
        <time>2021-11-17T12:45:35Z</time>
      </trkpt>
      <trkpt lat="46.56357" lon="0.64058">
        <ele>64.155375520699</ele>
        <time>2021-11-17T12:45:37Z</time>
      </trkpt>
      <trkpt lat="46.56355" lon="0.64056">
        <ele>64.192799643613</ele>
        <time>2021-11-17T12:45:38Z</time>
      </trkpt>
      <trkpt lat="46.56352" lon="0.64056">
        <ele>64.412240462378</ele>
        <time>2021-11-17T12:45:40Z</time>
      </trkpt>
      <trkpt lat="46.5635" lon="0.64057">
        <ele>63.977205539122</ele>
        <time>2021-11-17T12:45:42Z</time>
      </trkpt>
      <trkpt lat="46.56347" lon="0.64058">
        <ele>64.064054213464</ele>
        <time>2021-11-17T12:45:44Z</time>
      </trkpt>
      <trkpt lat="46.56344" lon="0.64059">
        <ele>63.931771487929</ele>
        <time>2021-11-17T12:45:46Z</time>
      </trkpt>
      <trkpt lat="46.56342" lon="0.64061">
        <ele>64.488303530961</ele>
        <time>2021-11-17T12:45:48Z</time>
      </trkpt>
      <trkpt lat="46.5634" lon="0.64062">
        <ele>64.369017408229</ele>
        <time>2021-11-17T12:45:50Z</time>
      </trkpt>
      <trkpt lat="46.56338" lon="0.64064">
        <ele>64.465955474414</ele>
        <time>2021-11-17T12:45:52Z</time>
      </trkpt>
      <trkpt lat="46.56335" lon="0.64066">
        <ele>64.690677242354</ele>
        <time>2021-11-17T12:45:54Z</time>
      </trkpt>
      <trkpt lat="46.56333" lon="0.64068">
        <ele>64.321691128425</ele>
        <time>2021-11-17T12:45:57Z</time>
      </trkpt>
      <trkpt lat="46.5633" lon="0.64068">
        <ele>64.292293085717</ele>
        <time>2021-11-17T12:46:00Z</time>
      </trkpt>
      <trkpt lat="46.56328" lon="0.64067">
        <ele>64.25821772404</ele>
        <time>2021-11-17T12:46:03Z</time>
      </trkpt>
      <trkpt lat="46.56326" lon="0.64064">
        <ele>63.899954752997</ele>
        <time>2021-11-17T12:46:06Z</time>
      </trkpt>
      <trkpt lat="46.56324" lon="0.64063">
        <ele>63.637813672423</ele>
        <time>2021-11-17T12:46:08Z</time>
      </trkpt>
      <trkpt lat="46.56322" lon="0.64062">
        <ele>64.386414327659</ele>
        <time>2021-11-17T12:46:11Z</time>
      </trkpt>
      <trkpt lat="46.56321" lon="0.64058">
        <ele>65.378333659843</ele>
        <time>2021-11-17T12:46:14Z</time>
      </trkpt>
      <trkpt lat="46.56321" lon="0.64055">
        <ele>65.010407969356</ele>
        <time>2021-11-17T12:46:17Z</time>
      </trkpt>
      <trkpt lat="46.56319" lon="0.64052">
        <ele>65.405644848943</ele>
        <time>2021-11-17T12:46:19Z</time>
      </trkpt>
      <trkpt lat="46.56317" lon="0.6405">
        <ele>65.461030811071</ele>
        <time>2021-11-17T12:46:21Z</time>
      </trkpt>
      <trkpt lat="46.56314" lon="0.64048">
        <ele>64.766199445352</ele>
        <time>2021-11-17T12:46:24Z</time>
      </trkpt>
      <trkpt lat="46.56312" lon="0.64045">
        <ele>64.814642166719</ele>
        <time>2021-11-17T12:46:26Z</time>
      </trkpt>
      <trkpt lat="46.5631" lon="0.64044">
        <ele>64.129313189536</ele>
        <time>2021-11-17T12:46:28Z</time>
      </trkpt>
      <trkpt lat="46.56308" lon="0.64042">
        <ele>64.165774509311</ele>
        <time>2021-11-17T12:46:30Z</time>
      </trkpt>
      <trkpt lat="46.56306" lon="0.6404">
        <ele>64.281570647843</ele>
        <time>2021-11-17T12:46:32Z</time>
      </trkpt>
      <trkpt lat="46.56304" lon="0.64039">
        <ele>64.165547064506</ele>
        <time>2021-11-17T12:46:34Z</time>
      </trkpt>
      <trkpt lat="46.56302" lon="0.64038">
        <ele>63.809795516543</ele>
        <time>2021-11-17T12:46:37Z</time>
      </trkpt>
      <trkpt lat="46.563" lon="0.64036">
        <ele>63.886587785557</ele>
        <time>2021-11-17T12:46:40Z</time>
      </trkpt>
      <trkpt lat="46.56297" lon="0.64035">
        <ele>63.7590084197</ele>
        <time>2021-11-17T12:46:42Z</time>
      </trkpt>
      <trkpt lat="46.56295" lon="0.64034">
        <ele>63.65004159417</ele>
        <time>2021-11-17T12:46:44Z</time>
      </trkpt>
      <trkpt lat="46.56293" lon="0.64032">
        <ele>63.680017460138</ele>
        <time>2021-11-17T12:46:46Z</time>
      </trkpt>
      <trkpt lat="46.56291" lon="0.6403">
        <ele>63.496995584108</ele>
        <time>2021-11-17T12:46:49Z</time>
      </trkpt>
      <trkpt lat="46.56288" lon="0.64028">
        <ele>63.759118516929</ele>
        <time>2021-11-17T12:46:51Z</time>
      </trkpt>
      <trkpt lat="46.56285" lon="0.64027">
        <ele>63.624116044492</ele>
        <time>2021-11-17T12:46:53Z</time>
      </trkpt>
      <trkpt lat="46.56283" lon="0.64025">
        <ele>63.769496838562</ele>
        <time>2021-11-17T12:46:55Z</time>
      </trkpt>
      <trkpt lat="46.56281" lon="0.64025">
        <ele>64.132337946445</ele>
        <time>2021-11-17T12:46:57Z</time>
      </trkpt>
      <trkpt lat="46.56278" lon="0.64023">
        <ele>64.018468328752</ele>
        <time>2021-11-17T12:47:00Z</time>
      </trkpt>
      <trkpt lat="46.56276" lon="0.64022">
        <ele>63.589434052818</ele>
        <time>2021-11-17T12:47:02Z</time>
      </trkpt>
      <trkpt lat="46.56273" lon="0.64021">
        <ele>64.188702668995</ele>
        <time>2021-11-17T12:47:04Z</time>
      </trkpt>
      <trkpt lat="46.56271" lon="0.6402">
        <ele>64.248027657159</ele>
        <time>2021-11-17T12:47:06Z</time>
      </trkpt>
      <trkpt lat="46.56268" lon="0.6402">
        <ele>63.966516463086</ele>
        <time>2021-11-17T12:47:08Z</time>
      </trkpt>
      <trkpt lat="46.56265" lon="0.64018">
        <ele>64.088966441341</ele>
        <time>2021-11-17T12:47:10Z</time>
      </trkpt>
      <trkpt lat="46.56263" lon="0.64017">
        <ele>64.020982996561</ele>
        <time>2021-11-17T12:47:12Z</time>
      </trkpt>
      <trkpt lat="46.5626" lon="0.64015">
        <ele>64.254834118299</ele>
        <time>2021-11-17T12:47:15Z</time>
      </trkpt>
      <trkpt lat="46.56257" lon="0.64014">
        <ele>64.025296986103</ele>
        <time>2021-11-17T12:47:17Z</time>
      </trkpt>
      <trkpt lat="46.56255" lon="0.64013">
        <ele>63.625688410364</ele>
        <time>2021-11-17T12:47:18Z</time>
      </trkpt>
      <trkpt lat="46.56253" lon="0.64009">
        <ele>64.19478096161</ele>
        <time>2021-11-17T12:47:20Z</time>
      </trkpt>
      <trkpt lat="46.56251" lon="0.64007">
        <ele>64.022580608726</ele>
        <time>2021-11-17T12:47:22Z</time>
      </trkpt>
      <trkpt lat="46.56249" lon="0.64003">
        <ele>63.970867299475</ele>
        <time>2021-11-17T12:47:24Z</time>
      </trkpt>
      <trkpt lat="46.56247" lon="0.64001">
        <ele>64.029378772713</ele>
        <time>2021-11-17T12:47:26Z</time>
      </trkpt>
      <trkpt lat="46.56245" lon="0.64">
        <ele>64.042062864639</ele>
        <time>2021-11-17T12:47:28Z</time>
      </trkpt>
      <trkpt lat="46.56243" lon="0.63997">
        <ele>64.16554092709</ele>
        <time>2021-11-17T12:47:31Z</time>
      </trkpt>
      <trkpt lat="46.56241" lon="0.63995">
        <ele>64.222617159598</ele>
        <time>2021-11-17T12:47:33Z</time>
      </trkpt>
      <trkpt lat="46.5624" lon="0.63992">
        <ele>64.057886934839</ele>
        <time>2021-11-17T12:47:37Z</time>
      </trkpt>
      <trkpt lat="46.56239" lon="0.63989">
        <ele>64.009877108969</ele>
        <time>2021-11-17T12:47:40Z</time>
      </trkpt>
      <trkpt lat="46.56238" lon="0.63987">
        <ele>64.161783859134</ele>
        <time>2021-11-17T12:47:41Z</time>
      </trkpt>
      <trkpt lat="46.56236" lon="0.63985">
        <ele>64.433576553129</ele>
        <time>2021-11-17T12:47:43Z</time>
      </trkpt>
      <trkpt lat="46.56234" lon="0.63982">
        <ele>64.153313971125</ele>
        <time>2021-11-17T12:47:45Z</time>
      </trkpt>
      <trkpt lat="46.56233" lon="0.63979">
        <ele>64.004504352808</ele>
        <time>2021-11-17T12:47:47Z</time>
      </trkpt>
      <trkpt lat="46.56231" lon="0.63976">
        <ele>64.137110439129</ele>
        <time>2021-11-17T12:47:49Z</time>
      </trkpt>
      <trkpt lat="46.5623" lon="0.63973">
        <ele>64.105564584956</ele>
        <time>2021-11-17T12:47:50Z</time>
      </trkpt>
      <trkpt lat="46.56228" lon="0.63971">
        <ele>64.404953443445</ele>
        <time>2021-11-17T12:47:51Z</time>
      </trkpt>
      <trkpt lat="46.56226" lon="0.63969">
        <ele>64.27809145581</ele>
        <time>2021-11-17T12:47:53Z</time>
      </trkpt>
      <trkpt lat="46.56224" lon="0.63966">
        <ele>64.075519564562</ele>
        <time>2021-11-17T12:47:55Z</time>
      </trkpt>
      <trkpt lat="46.56223" lon="0.63964">
        <ele>63.704604977742</ele>
        <time>2021-11-17T12:47:57Z</time>
      </trkpt>
      <trkpt lat="46.56221" lon="0.63961">
        <ele>63.909838148393</ele>
        <time>2021-11-17T12:47:59Z</time>
      </trkpt>
      <trkpt lat="46.56219" lon="0.63959">
        <ele>64.311038173735</ele>
        <time>2021-11-17T12:48:01Z</time>
      </trkpt>
      <trkpt lat="46.56217" lon="0.63956">
        <ele>63.636405509897</ele>
        <time>2021-11-17T12:48:03Z</time>
      </trkpt>
      <trkpt lat="46.56216" lon="0.63954">
        <ele>63.837038997561</ele>
        <time>2021-11-17T12:48:06Z</time>
      </trkpt>
      <trkpt lat="46.56213" lon="0.63952">
        <ele>63.866202345118</ele>
        <time>2021-11-17T12:48:08Z</time>
      </trkpt>
      <trkpt lat="46.56211" lon="0.6395">
        <ele>63.882190966979</ele>
        <time>2021-11-17T12:48:10Z</time>
      </trkpt>
      <trkpt lat="46.56209" lon="0.63948">
        <ele>63.686721969396</ele>
        <time>2021-11-17T12:48:12Z</time>
      </trkpt>
      <trkpt lat="46.56206" lon="0.63946">
        <ele>63.478409220465</ele>
        <time>2021-11-17T12:48:14Z</time>
      </trkpt>
      <trkpt lat="46.56204" lon="0.63943">
        <ele>63.554783063009</ele>
        <time>2021-11-17T12:48:16Z</time>
      </trkpt>
      <trkpt lat="46.56202" lon="0.63941">
        <ele>63.259840688668</ele>
        <time>2021-11-17T12:48:18Z</time>
      </trkpt>
      <trkpt lat="46.56199" lon="0.6394">
        <ele>63.805784642696</ele>
        <time>2021-11-17T12:48:20Z</time>
      </trkpt>
      <trkpt lat="46.56196" lon="0.6394">
        <ele>63.411199291237</ele>
        <time>2021-11-17T12:48:23Z</time>
      </trkpt>
      <trkpt lat="46.56195" lon="0.63939">
        <ele>63.289761501364</ele>
        <time>2021-11-17T12:48:25Z</time>
      </trkpt>
      <trkpt lat="46.56192" lon="0.63937">
        <ele>63.032437963411</ele>
        <time>2021-11-17T12:48:27Z</time>
      </trkpt>
      <trkpt lat="46.56189" lon="0.63936">
        <ele>63.200112614781</ele>
        <time>2021-11-17T12:48:29Z</time>
      </trkpt>
      <trkpt lat="46.56187" lon="0.63934">
        <ele>63.30480798427</ele>
        <time>2021-11-17T12:48:31Z</time>
      </trkpt>
      <trkpt lat="46.56185" lon="0.63933">
        <ele>63.54450163804</ele>
        <time>2021-11-17T12:48:33Z</time>
      </trkpt>
      <trkpt lat="46.56183" lon="0.63932">
        <ele>63.49967458006</ele>
        <time>2021-11-17T12:48:35Z</time>
      </trkpt>
      <trkpt lat="46.56181" lon="0.63931">
        <ele>63.427797190845</ele>
        <time>2021-11-17T12:48:37Z</time>
      </trkpt>
      <trkpt lat="46.56179" lon="0.6393">
        <ele>63.482944085263</ele>
        <time>2021-11-17T12:48:40Z</time>
      </trkpt>
      <trkpt lat="46.56176" lon="0.63929">
        <ele>63.437101457268</ele>
        <time>2021-11-17T12:48:43Z</time>
      </trkpt>
      <trkpt lat="46.56174" lon="0.63928">
        <ele>63.311118392274</ele>
        <time>2021-11-17T12:48:45Z</time>
      </trkpt>
      <trkpt lat="46.56172" lon="0.63927">
        <ele>63.535414922982</ele>
        <time>2021-11-17T12:48:47Z</time>
      </trkpt>
      <trkpt lat="46.5617" lon="0.63927">
        <ele>63.574733690359</ele>
        <time>2021-11-17T12:48:48Z</time>
      </trkpt>
      <trkpt lat="46.56167" lon="0.63925">
        <ele>63.737226652913</ele>
        <time>2021-11-17T12:48:50Z</time>
      </trkpt>
      <trkpt lat="46.56164" lon="0.63923">
        <ele>63.633857658133</ele>
        <time>2021-11-17T12:48:52Z</time>
      </trkpt>
      <trkpt lat="46.56162" lon="0.63922">
        <ele>63.620756511576</ele>
        <time>2021-11-17T12:48:53Z</time>
      </trkpt>
      <trkpt lat="46.56161" lon="0.63921">
        <ele>63.777452987619</ele>
        <time>2021-11-17T12:48:54Z</time>
      </trkpt>
      <trkpt lat="46.56159" lon="0.63919">
        <ele>63.322152442299</ele>
        <time>2021-11-17T12:48:55Z</time>
      </trkpt>
      <trkpt lat="46.56156" lon="0.63918">
        <ele>63.40335760545</ele>
        <time>2021-11-17T12:48:57Z</time>
      </trkpt>
      <trkpt lat="46.56153" lon="0.63916">
        <ele>63.908468893729</ele>
        <time>2021-11-17T12:48:59Z</time>
      </trkpt>
      <trkpt lat="46.5615" lon="0.63914">
        <ele>63.887828603387</ele>
        <time>2021-11-17T12:49:01Z</time>
      </trkpt>
      <trkpt lat="46.56147" lon="0.63912">
        <ele>63.665460953489</ele>
        <time>2021-11-17T12:49:02Z</time>
      </trkpt>
      <trkpt lat="46.56145" lon="0.6391">
        <ele>63.851864959113</ele>
        <time>2021-11-17T12:49:04Z</time>
      </trkpt>
      <trkpt lat="46.56142" lon="0.63907">
        <ele>63.727919830009</ele>
        <time>2021-11-17T12:49:06Z</time>
      </trkpt>
      <trkpt lat="46.5614" lon="0.63904">
        <ele>63.701106015593</ele>
        <time>2021-11-17T12:49:08Z</time>
      </trkpt>
      <trkpt lat="46.56138" lon="0.63903">
        <ele>63.59729843121</ele>
        <time>2021-11-17T12:49:10Z</time>
      </trkpt>
      <trkpt lat="46.56136" lon="0.639">
        <ele>63.69960658066</ele>
        <time>2021-11-17T12:49:13Z</time>
      </trkpt>
      <trkpt lat="46.56133" lon="0.63898">
        <ele>63.557042820379</ele>
        <time>2021-11-17T12:49:15Z</time>
      </trkpt>
      <trkpt lat="46.56131" lon="0.63897">
        <ele>63.431812562048</ele>
        <time>2021-11-17T12:49:17Z</time>
      </trkpt>
      <trkpt lat="46.56129" lon="0.63895">
        <ele>63.846214719117</ele>
        <time>2021-11-17T12:49:19Z</time>
      </trkpt>
      <trkpt lat="46.56126" lon="0.63894">
        <ele>63.710412279703</ele>
        <time>2021-11-17T12:49:22Z</time>
      </trkpt>
      <trkpt lat="46.56124" lon="0.63891">
        <ele>64.037458016537</ele>
        <time>2021-11-17T12:49:25Z</time>
      </trkpt>
      <trkpt lat="46.56122" lon="0.6389">
        <ele>64.070441551507</ele>
        <time>2021-11-17T12:49:27Z</time>
      </trkpt>
      <trkpt lat="46.56119" lon="0.63889">
        <ele>63.96993197035</ele>
        <time>2021-11-17T12:49:30Z</time>
      </trkpt>
      <trkpt lat="46.56117" lon="0.63888">
        <ele>63.968035178259</ele>
        <time>2021-11-17T12:49:32Z</time>
      </trkpt>
      <trkpt lat="46.56115" lon="0.63887">
        <ele>64.163748592138</ele>
        <time>2021-11-17T12:49:34Z</time>
      </trkpt>
      <trkpt lat="46.56112" lon="0.63885">
        <ele>64.036546459422</ele>
        <time>2021-11-17T12:49:36Z</time>
      </trkpt>
      <trkpt lat="46.5611" lon="0.63884">
        <ele>64.174339584075</ele>
        <time>2021-11-17T12:49:37Z</time>
      </trkpt>
      <trkpt lat="46.56108" lon="0.63883">
        <ele>64.033351066522</ele>
        <time>2021-11-17T12:49:38Z</time>
      </trkpt>
      <trkpt lat="46.56106" lon="0.63881">
        <ele>63.763296018355</ele>
        <time>2021-11-17T12:49:40Z</time>
      </trkpt>
      <trkpt lat="46.56104" lon="0.6388">
        <ele>63.722117309459</ele>
        <time>2021-11-17T12:49:41Z</time>
      </trkpt>
      <trkpt lat="46.56103" lon="0.63878">
        <ele>63.864955755882</ele>
        <time>2021-11-17T12:49:43Z</time>
      </trkpt>
      <trkpt lat="46.561" lon="0.63876">
        <ele>64.115657206625</ele>
        <time>2021-11-17T12:49:45Z</time>
      </trkpt>
      <trkpt lat="46.56098" lon="0.63874">
        <ele>63.866219083779</ele>
        <time>2021-11-17T12:49:47Z</time>
      </trkpt>
      <trkpt lat="46.56096" lon="0.63874">
        <ele>64.067804755643</ele>
        <time>2021-11-17T12:49:49Z</time>
      </trkpt>
      <trkpt lat="46.56093" lon="0.63873">
        <ele>64.032030993141</ele>
        <time>2021-11-17T12:49:51Z</time>
      </trkpt>
      <trkpt lat="46.5609" lon="0.63871">
        <ele>64.060833937488</ele>
        <time>2021-11-17T12:49:53Z</time>
      </trkpt>
      <trkpt lat="46.56088" lon="0.63871">
        <ele>64.35926958546</ele>
        <time>2021-11-17T12:49:55Z</time>
      </trkpt>
      <trkpt lat="46.56085" lon="0.6387">
        <ele>64.162300394848</ele>
        <time>2021-11-17T12:49:57Z</time>
      </trkpt>
      <trkpt lat="46.56083" lon="0.63868">
        <ele>64.240721246228</ele>
        <time>2021-11-17T12:49:59Z</time>
      </trkpt>
      <trkpt lat="46.5608" lon="0.63868">
        <ele>64.395798036829</ele>
        <time>2021-11-17T12:50:01Z</time>
      </trkpt>
      <trkpt lat="46.56077" lon="0.63866">
        <ele>64.440439579077</ele>
        <time>2021-11-17T12:50:03Z</time>
      </trkpt>
      <trkpt lat="46.56075" lon="0.63865">
        <ele>64.533555770293</ele>
        <time>2021-11-17T12:50:05Z</time>
      </trkpt>
      <trkpt lat="46.56071" lon="0.63865">
        <ele>64.482654423453</ele>
        <time>2021-11-17T12:50:07Z</time>
      </trkpt>
      <trkpt lat="46.56068" lon="0.63864">
        <ele>64.315073703416</ele>
        <time>2021-11-17T12:50:09Z</time>
      </trkpt>
      <trkpt lat="46.56066" lon="0.63864">
        <ele>64.414513880387</ele>
        <time>2021-11-17T12:50:11Z</time>
      </trkpt>
      <trkpt lat="46.56063" lon="0.63865">
        <ele>64.439508816227</ele>
        <time>2021-11-17T12:50:13Z</time>
      </trkpt>
      <trkpt lat="46.56061" lon="0.63864">
        <ele>64.597474580631</ele>
        <time>2021-11-17T12:50:15Z</time>
      </trkpt>
      <trkpt lat="46.56059" lon="0.63864">
        <ele>64.236008630134</ele>
        <time>2021-11-17T12:50:17Z</time>
      </trkpt>
      <trkpt lat="46.56057" lon="0.63865">
        <ele>64.487412650138</ele>
        <time>2021-11-17T12:50:19Z</time>
      </trkpt>
      <trkpt lat="46.56055" lon="0.63865">
        <ele>64.053043611348</ele>
        <time>2021-11-17T12:50:21Z</time>
      </trkpt>
      <trkpt lat="46.56052" lon="0.63865">
        <ele>64.037946823053</ele>
        <time>2021-11-17T12:50:23Z</time>
      </trkpt>
      <trkpt lat="46.56049" lon="0.63865">
        <ele>64.350909649394</ele>
        <time>2021-11-17T12:50:25Z</time>
      </trkpt>
      <trkpt lat="46.56047" lon="0.63864">
        <ele>64.248326341622</ele>
        <time>2021-11-17T12:50:27Z</time>
      </trkpt>
      <trkpt lat="46.56045" lon="0.63865">
        <ele>64.295228777453</ele>
        <time>2021-11-17T12:50:29Z</time>
      </trkpt>
      <trkpt lat="46.56042" lon="0.63864">
        <ele>64.169378570281</ele>
        <time>2021-11-17T12:50:31Z</time>
      </trkpt>
      <trkpt lat="46.5604" lon="0.63864">
        <ele>64.3289203858</ele>
        <time>2021-11-17T12:50:34Z</time>
      </trkpt>
      <trkpt lat="46.56037" lon="0.63864">
        <ele>64.10551773943</ele>
        <time>2021-11-17T12:50:36Z</time>
      </trkpt>
      <trkpt lat="46.56033" lon="0.63864">
        <ele>64.265217442065</ele>
        <time>2021-11-17T12:50:38Z</time>
      </trkpt>
      <trkpt lat="46.56031" lon="0.63862">
        <ele>64.341814953834</ele>
        <time>2021-11-17T12:50:40Z</time>
      </trkpt>
      <trkpt lat="46.56029" lon="0.63859">
        <ele>64.220859993249</ele>
        <time>2021-11-17T12:50:42Z</time>
      </trkpt>
      <trkpt lat="46.56027" lon="0.63857">
        <ele>64.495067186654</ele>
        <time>2021-11-17T12:50:44Z</time>
      </trkpt>
      <trkpt lat="46.56025" lon="0.63855">
        <ele>64.296986986883</ele>
        <time>2021-11-17T12:50:45Z</time>
      </trkpt>
      <trkpt lat="46.56024" lon="0.63853">
        <ele>64.239280140027</ele>
        <time>2021-11-17T12:50:47Z</time>
      </trkpt>
      <trkpt lat="46.56022" lon="0.6385">
        <ele>64.556697402149</ele>
        <time>2021-11-17T12:50:49Z</time>
      </trkpt>
      <trkpt lat="46.56021" lon="0.63848">
        <ele>64.422490414232</ele>
        <time>2021-11-17T12:50:51Z</time>
      </trkpt>
      <trkpt lat="46.5602" lon="0.63846">
        <ele>64.060000987723</ele>
        <time>2021-11-17T12:50:53Z</time>
      </trkpt>
      <trkpt lat="46.56022" lon="0.63843">
        <ele>64.102755933069</ele>
        <time>2021-11-17T12:50:56Z</time>
      </trkpt>
      <trkpt lat="46.56023" lon="0.63841">
        <ele>64.336012023501</ele>
        <time>2021-11-17T12:50:59Z</time>
      </trkpt>
      <trkpt lat="46.56024" lon="0.63839">
        <ele>64.093452920206</ele>
        <time>2021-11-17T12:51:01Z</time>
      </trkpt>
      <trkpt lat="46.56026" lon="0.63834">
        <ele>64.476139653474</ele>
        <time>2021-11-17T12:51:22Z</time>
      </trkpt>
      <trkpt lat="46.56027" lon="0.63829">
        <ele>64.574311219156</ele>
        <time>2021-11-17T12:51:31Z</time>
      </trkpt>
      <trkpt lat="46.56025" lon="0.63826">
        <ele>64.55579810217</ele>
        <time>2021-11-17T12:51:36Z</time>
      </trkpt>
      <trkpt lat="46.56023" lon="0.63826">
        <ele>64.905985776335</ele>
        <time>2021-11-17T12:51:45Z</time>
      </trkpt>
      <trkpt lat="46.56022" lon="0.63823">
        <ele>64.674501129426</ele>
        <time>2021-11-17T12:51:52Z</time>
      </trkpt>
      <trkpt lat="46.56019" lon="0.63821">
        <ele>64.64279761631</ele>
        <time>2021-11-17T12:51:55Z</time>
      </trkpt>
      <trkpt lat="46.56018" lon="0.63818">
        <ele>64.363877682947</ele>
        <time>2021-11-17T12:51:59Z</time>
      </trkpt>
      <trkpt lat="46.56017" lon="0.63816">
        <ele>64.45993811544</ele>
        <time>2021-11-17T12:52:02Z</time>
      </trkpt>
      <trkpt lat="46.56016" lon="0.63813">
        <ele>64.181917501613</ele>
        <time>2021-11-17T12:52:05Z</time>
      </trkpt>
      <trkpt lat="46.56015" lon="0.63808">
        <ele>64.296621804126</ele>
        <time>2021-11-17T12:52:08Z</time>
      </trkpt>
      <trkpt lat="46.56013" lon="0.63805">
        <ele>64.150979427621</ele>
        <time>2021-11-17T12:52:10Z</time>
      </trkpt>
      <trkpt lat="46.56013" lon="0.63802">
        <ele>64.303653847426</ele>
        <time>2021-11-17T12:52:12Z</time>
      </trkpt>
      <trkpt lat="46.56011" lon="0.638">
        <ele>63.81782911066</ele>
        <time>2021-11-17T12:52:14Z</time>
      </trkpt>
      <trkpt lat="46.5601" lon="0.63797">
        <ele>63.820878757164</ele>
        <time>2021-11-17T12:52:16Z</time>
      </trkpt>
      <trkpt lat="46.5601" lon="0.63794">
        <ele>64.1123114191</ele>
        <time>2021-11-17T12:52:18Z</time>
      </trkpt>
      <trkpt lat="46.56009" lon="0.63791">
        <ele>63.349743285216</ele>
        <time>2021-11-17T12:52:21Z</time>
      </trkpt>
      <trkpt lat="46.5601" lon="0.63788">
        <ele>63.978823692538</ele>
        <time>2021-11-17T12:52:23Z</time>
      </trkpt>
      <trkpt lat="46.56009" lon="0.63786">
        <ele>64.252690971829</ele>
        <time>2021-11-17T12:52:25Z</time>
      </trkpt>
      <trkpt lat="46.56007" lon="0.63784">
        <ele>63.84117127303</ele>
        <time>2021-11-17T12:52:28Z</time>
      </trkpt>
      <trkpt lat="46.56004" lon="0.63783">
        <ele>64.063589231111</ele>
        <time>2021-11-17T12:52:30Z</time>
      </trkpt>
      <trkpt lat="46.56003" lon="0.63783">
        <ele>63.601974193007</ele>
        <time>2021-11-17T12:52:32Z</time>
      </trkpt>
      <trkpt lat="46.56" lon="0.63783">
        <ele>63.848432676867</ele>
        <time>2021-11-17T12:52:34Z</time>
      </trkpt>
      <trkpt lat="46.55997" lon="0.63782">
        <ele>63.846411697567</ele>
        <time>2021-11-17T12:52:36Z</time>
      </trkpt>
      <trkpt lat="46.55995" lon="0.6378">
        <ele>63.918772591278</ele>
        <time>2021-11-17T12:52:38Z</time>
      </trkpt>
      <trkpt lat="46.55992" lon="0.63779">
        <ele>63.716245615855</ele>
        <time>2021-11-17T12:52:40Z</time>
      </trkpt>
      <trkpt lat="46.5599" lon="0.63777">
        <ele>63.773572259583</ele>
        <time>2021-11-17T12:52:42Z</time>
      </trkpt>
      <trkpt lat="46.55989" lon="0.63775">
        <ele>63.697098403238</ele>
        <time>2021-11-17T12:52:44Z</time>
      </trkpt>
      <trkpt lat="46.55986" lon="0.63772">
        <ele>64.622403514571</ele>
        <time>2021-11-17T12:52:47Z</time>
      </trkpt>
      <trkpt lat="46.55984" lon="0.6377">
        <ele>63.98456039466</ele>
        <time>2021-11-17T12:52:50Z</time>
      </trkpt>
      <trkpt lat="46.55982" lon="0.63768">
        <ele>64.349915427156</ele>
        <time>2021-11-17T12:52:52Z</time>
      </trkpt>
      <trkpt lat="46.55981" lon="0.63767">
        <ele>64.423684461974</ele>
        <time>2021-11-17T12:52:54Z</time>
      </trkpt>
      <trkpt lat="46.55978" lon="0.63765">
        <ele>64.265437979251</ele>
        <time>2021-11-17T12:52:55Z</time>
      </trkpt>
      <trkpt lat="46.55976" lon="0.63763">
        <ele>64.187870593742</ele>
        <time>2021-11-17T12:52:57Z</time>
      </trkpt>
      <trkpt lat="46.55972" lon="0.63761">
        <ele>63.656637799926</ele>
        <time>2021-11-17T12:52:59Z</time>
      </trkpt>
      <trkpt lat="46.55971" lon="0.63759">
        <ele>64.363245543092</ele>
        <time>2021-11-17T12:53:01Z</time>
      </trkpt>
      <trkpt lat="46.55969" lon="0.63758">
        <ele>65.278414240107</ele>
        <time>2021-11-17T12:53:03Z</time>
      </trkpt>
      <trkpt lat="46.55966" lon="0.63757">
        <ele>65.491837261245</ele>
        <time>2021-11-17T12:53:06Z</time>
      </trkpt>
      <trkpt lat="46.55964" lon="0.63755">
        <ele>65.637845130637</ele>
        <time>2021-11-17T12:53:09Z</time>
      </trkpt>
      <trkpt lat="46.55962" lon="0.63754">
        <ele>65.823563124985</ele>
        <time>2021-11-17T12:53:11Z</time>
      </trkpt>
      <trkpt lat="46.55961" lon="0.63751">
        <ele>66.164033437148</ele>
        <time>2021-11-17T12:53:14Z</time>
      </trkpt>
      <trkpt lat="46.55959" lon="0.63748">
        <ele>66.029514424503</ele>
        <time>2021-11-17T12:53:16Z</time>
      </trkpt>
      <trkpt lat="46.55958" lon="0.63744">
        <ele>65.71723377239</ele>
        <time>2021-11-17T12:53:18Z</time>
      </trkpt>
      <trkpt lat="46.55956" lon="0.63741">
        <ele>66.188433323987</ele>
        <time>2021-11-17T12:53:20Z</time>
      </trkpt>
      <trkpt lat="46.55954" lon="0.63738">
        <ele>65.794244578108</ele>
        <time>2021-11-17T12:53:22Z</time>
      </trkpt>
      <trkpt lat="46.55952" lon="0.63735">
        <ele>65.758107773028</ele>
        <time>2021-11-17T12:53:24Z</time>
      </trkpt>
      <trkpt lat="46.55949" lon="0.63732">
        <ele>65.64921954181</ele>
        <time>2021-11-17T12:53:26Z</time>
      </trkpt>
      <trkpt lat="46.55946" lon="0.6373">
        <ele>65.624802324921</ele>
        <time>2021-11-17T12:53:28Z</time>
      </trkpt>
      <trkpt lat="46.55943" lon="0.63729">
        <ele>65.364214337431</ele>
        <time>2021-11-17T12:53:30Z</time>
      </trkpt>
      <trkpt lat="46.55941" lon="0.63727">
        <ele>64.857821634039</ele>
        <time>2021-11-17T12:53:32Z</time>
      </trkpt>
      <trkpt lat="46.55938" lon="0.63728">
        <ele>64.715248131193</ele>
        <time>2021-11-17T12:53:34Z</time>
      </trkpt>
      <trkpt lat="46.55937" lon="0.6373">
        <ele>64.884051329456</ele>
        <time>2021-11-17T12:53:35Z</time>
      </trkpt>
      <trkpt lat="46.55934" lon="0.63728">
        <ele>64.620593462139</ele>
        <time>2021-11-17T12:53:37Z</time>
      </trkpt>
      <trkpt lat="46.55932" lon="0.63726">
        <ele>64.262772835791</ele>
        <time>2021-11-17T12:53:40Z</time>
      </trkpt>
      <trkpt lat="46.55929" lon="0.63725">
        <ele>64.299105443992</ele>
        <time>2021-11-17T12:53:42Z</time>
      </trkpt>
      <trkpt lat="46.55926" lon="0.63725">
        <ele>64.551467021927</ele>
        <time>2021-11-17T12:53:44Z</time>
      </trkpt>
      <trkpt lat="46.55923" lon="0.63725">
        <ele>64.293629940599</ele>
        <time>2021-11-17T12:53:46Z</time>
      </trkpt>
      <trkpt lat="46.55921" lon="0.63725">
        <ele>63.987049534917</ele>
        <time>2021-11-17T12:53:48Z</time>
      </trkpt>
      <trkpt lat="46.55919" lon="0.63727">
        <ele>64.307726232335</ele>
        <time>2021-11-17T12:53:50Z</time>
      </trkpt>
      <trkpt lat="46.55917" lon="0.63729">
        <ele>64.517486480065</ele>
        <time>2021-11-17T12:53:52Z</time>
      </trkpt>
      <trkpt lat="46.55915" lon="0.63731">
        <ele>64.601402157918</ele>
        <time>2021-11-17T12:53:54Z</time>
      </trkpt>
      <trkpt lat="46.55913" lon="0.63734">
        <ele>65.152796247043</ele>
        <time>2021-11-17T12:53:56Z</time>
      </trkpt>
      <trkpt lat="46.55911" lon="0.63737">
        <ele>65.54971973598</ele>
        <time>2021-11-17T12:53:58Z</time>
      </trkpt>
      <trkpt lat="46.5591" lon="0.6374">
        <ele>65.343404076062</ele>
        <time>2021-11-17T12:54:00Z</time>
      </trkpt>
      <trkpt lat="46.55909" lon="0.63744">
        <ele>65.433739010245</ele>
        <time>2021-11-17T12:54:02Z</time>
      </trkpt>
      <trkpt lat="46.55908" lon="0.63746">
        <ele>65.734306211583</ele>
        <time>2021-11-17T12:54:03Z</time>
      </trkpt>
      <trkpt lat="46.55907" lon="0.6375">
        <ele>65.668842285872</ele>
        <time>2021-11-17T12:54:05Z</time>
      </trkpt>
      <trkpt lat="46.55906" lon="0.63754">
        <ele>65.323934527114</ele>
        <time>2021-11-17T12:54:07Z</time>
      </trkpt>
      <trkpt lat="46.55904" lon="0.63757">
        <ele>66.218959094957</ele>
        <time>2021-11-17T12:54:09Z</time>
      </trkpt>
      <trkpt lat="46.55903" lon="0.63761">
        <ele>66.58032440953</ele>
        <time>2021-11-17T12:54:11Z</time>
      </trkpt>
      <trkpt lat="46.55902" lon="0.63765">
        <ele>66.471167799085</ele>
        <time>2021-11-17T12:54:13Z</time>
      </trkpt>
      <trkpt lat="46.55901" lon="0.63769">
        <ele>66.510981046595</ele>
        <time>2021-11-17T12:54:15Z</time>
      </trkpt>
      <trkpt lat="46.55898" lon="0.63772">
        <ele>66.479760432616</ele>
        <time>2021-11-17T12:54:18Z</time>
      </trkpt>
      <trkpt lat="46.55897" lon="0.63776">
        <ele>66.558095108718</ele>
        <time>2021-11-17T12:54:20Z</time>
      </trkpt>
      <trkpt lat="46.55896" lon="0.63779">
        <ele>66.742844973691</ele>
        <time>2021-11-17T12:54:22Z</time>
      </trkpt>
      <trkpt lat="46.55895" lon="0.63782">
        <ele>66.640391483903</ele>
        <time>2021-11-17T12:54:24Z</time>
      </trkpt>
      <trkpt lat="46.55894" lon="0.63786">
        <ele>66.521822794341</ele>
        <time>2021-11-17T12:54:26Z</time>
      </trkpt>
      <trkpt lat="46.55894" lon="0.63789">
        <ele>66.539014420472</ele>
        <time>2021-11-17T12:54:28Z</time>
      </trkpt>
      <trkpt lat="46.55892" lon="0.63793">
        <ele>66.586668238975</ele>
        <time>2021-11-17T12:54:30Z</time>
      </trkpt>
      <trkpt lat="46.55892" lon="0.63797">
        <ele>66.319596718065</ele>
        <time>2021-11-17T12:54:32Z</time>
      </trkpt>
      <trkpt lat="46.55891" lon="0.638">
        <ele>66.654871107079</ele>
        <time>2021-11-17T12:54:34Z</time>
      </trkpt>
      <trkpt lat="46.5589" lon="0.63804">
        <ele>66.762372140773</ele>
        <time>2021-11-17T12:54:36Z</time>
      </trkpt>
      <trkpt lat="46.55889" lon="0.63807">
        <ele>66.357338713482</ele>
        <time>2021-11-17T12:54:38Z</time>
      </trkpt>
      <trkpt lat="46.55888" lon="0.6381">
        <ele>65.96784151718</ele>
        <time>2021-11-17T12:54:40Z</time>
      </trkpt>
      <trkpt lat="46.55887" lon="0.63814">
        <ele>66.253771663643</ele>
        <time>2021-11-17T12:54:42Z</time>
      </trkpt>
      <trkpt lat="46.55885" lon="0.63817">
        <ele>66.349748615175</ele>
        <time>2021-11-17T12:54:44Z</time>
      </trkpt>
      <trkpt lat="46.55884" lon="0.63819">
        <ele>66.423454058357</ele>
        <time>2021-11-17T12:54:46Z</time>
      </trkpt>
      <trkpt lat="46.55882" lon="0.63821">
        <ele>66.65322504472</ele>
        <time>2021-11-17T12:54:48Z</time>
      </trkpt>
      <trkpt lat="46.5588" lon="0.63823">
        <ele>66.614004461095</ele>
        <time>2021-11-17T12:54:50Z</time>
      </trkpt>
      <trkpt lat="46.55877" lon="0.63823">
        <ele>65.919482250698</ele>
        <time>2021-11-17T12:54:52Z</time>
      </trkpt>
      <trkpt lat="46.55874" lon="0.63823">
        <ele>65.911050088704</ele>
        <time>2021-11-17T12:54:55Z</time>
      </trkpt>
      <trkpt lat="46.55872" lon="0.63823">
        <ele>65.677285485901</ele>
        <time>2021-11-17T12:54:57Z</time>
      </trkpt>
      <trkpt lat="46.5587" lon="0.63822">
        <ele>66.036606222391</ele>
        <time>2021-11-17T12:55:00Z</time>
      </trkpt>
      <trkpt lat="46.55867" lon="0.63821">
        <ele>65.339915626682</ele>
        <time>2021-11-17T12:55:03Z</time>
      </trkpt>
      <trkpt lat="46.55865" lon="0.6382">
        <ele>65.082344461232</ele>
        <time>2021-11-17T12:55:06Z</time>
      </trkpt>
      <trkpt lat="46.55863" lon="0.63817">
        <ele>64.915595009923</ele>
        <time>2021-11-17T12:55:08Z</time>
      </trkpt>
      <trkpt lat="46.55859" lon="0.63816">
        <ele>65.258543106727</ele>
        <time>2021-11-17T12:55:10Z</time>
      </trkpt>
      <trkpt lat="46.55858" lon="0.63814">
        <ele>64.968749369495</ele>
        <time>2021-11-17T12:55:12Z</time>
      </trkpt>
      <trkpt lat="46.55856" lon="0.63812">
        <ele>64.66282668896</ele>
        <time>2021-11-17T12:55:14Z</time>
      </trkpt>
      <trkpt lat="46.55853" lon="0.63809">
        <ele>63.675609540194</ele>
        <time>2021-11-17T12:55:16Z</time>
      </trkpt>
      <trkpt lat="46.55851" lon="0.63807">
        <ele>64.55235321261</ele>
        <time>2021-11-17T12:55:18Z</time>
      </trkpt>
      <trkpt lat="46.55849" lon="0.63804">
        <ele>64.491894981824</ele>
        <time>2021-11-17T12:55:20Z</time>
      </trkpt>
      <trkpt lat="46.55847" lon="0.63803">
        <ele>63.818389217369</ele>
        <time>2021-11-17T12:55:22Z</time>
      </trkpt>
      <trkpt lat="46.55845" lon="0.63801">
        <ele>64.23335213121</ele>
        <time>2021-11-17T12:55:24Z</time>
      </trkpt>
      <trkpt lat="46.55843" lon="0.63798">
        <ele>64.341575238854</ele>
        <time>2021-11-17T12:55:26Z</time>
      </trkpt>
      <trkpt lat="46.55841" lon="0.63795">
        <ele>63.665841245092</ele>
        <time>2021-11-17T12:55:28Z</time>
      </trkpt>
      <trkpt lat="46.55838" lon="0.63794">
        <ele>64.076436415315</ele>
        <time>2021-11-17T12:55:30Z</time>
      </trkpt>
      <trkpt lat="46.55836" lon="0.63793">
        <ele>64.004174829461</ele>
        <time>2021-11-17T12:55:32Z</time>
      </trkpt>
      <trkpt lat="46.55834" lon="0.6379">
        <ele>63.648055382073</ele>
        <time>2021-11-17T12:55:34Z</time>
      </trkpt>
      <trkpt lat="46.55832" lon="0.63789">
        <ele>63.340940688737</ele>
        <time>2021-11-17T12:55:36Z</time>
      </trkpt>
      <trkpt lat="46.55831" lon="0.63787">
        <ele>63.372945406474</ele>
        <time>2021-11-17T12:55:37Z</time>
      </trkpt>
      <trkpt lat="46.55828" lon="0.63786">
        <ele>63.378052878194</ele>
        <time>2021-11-17T12:55:39Z</time>
      </trkpt>
      <trkpt lat="46.55826" lon="0.63784">
        <ele>63.652898136526</ele>
        <time>2021-11-17T12:55:41Z</time>
      </trkpt>
      <trkpt lat="46.55824" lon="0.63783">
        <ele>63.846940713003</ele>
        <time>2021-11-17T12:55:43Z</time>
      </trkpt>
      <trkpt lat="46.55822" lon="0.63781">
        <ele>63.478260681033</ele>
        <time>2021-11-17T12:55:45Z</time>
      </trkpt>
      <trkpt lat="46.5582" lon="0.6378">
        <ele>63.844634466805</ele>
        <time>2021-11-17T12:55:47Z</time>
      </trkpt>
      <trkpt lat="46.55818" lon="0.63778">
        <ele>63.885091639124</ele>
        <time>2021-11-17T12:55:49Z</time>
      </trkpt>
      <trkpt lat="46.55816" lon="0.63778">
        <ele>63.952347820625</ele>
        <time>2021-11-17T12:55:51Z</time>
      </trkpt>
      <trkpt lat="46.55814" lon="0.63776">
        <ele>63.889369093813</ele>
        <time>2021-11-17T12:55:52Z</time>
      </trkpt>
      <trkpt lat="46.55811" lon="0.63773">
        <ele>63.897276806645</ele>
        <time>2021-11-17T12:55:54Z</time>
      </trkpt>
      <trkpt lat="46.55809" lon="0.63771">
        <ele>64.001807761379</ele>
        <time>2021-11-17T12:55:56Z</time>
      </trkpt>
      <trkpt lat="46.55806" lon="0.63769">
        <ele>64.165253592655</ele>
        <time>2021-11-17T12:55:58Z</time>
      </trkpt>
      <trkpt lat="46.55804" lon="0.63767">
        <ele>64.195172375068</ele>
        <time>2021-11-17T12:56:00Z</time>
      </trkpt>
      <trkpt lat="46.55802" lon="0.63766">
        <ele>64.380625104532</ele>
        <time>2021-11-17T12:56:02Z</time>
      </trkpt>
      <trkpt lat="46.55799" lon="0.63763">
        <ele>64.081374553032</ele>
        <time>2021-11-17T12:56:04Z</time>
      </trkpt>
      <trkpt lat="46.55797" lon="0.63761">
        <ele>64.348569365218</ele>
        <time>2021-11-17T12:56:06Z</time>
      </trkpt>
      <trkpt lat="46.55794" lon="0.63759">
        <ele>64.204514327459</ele>
        <time>2021-11-17T12:56:08Z</time>
      </trkpt>
      <trkpt lat="46.55791" lon="0.63757">
        <ele>64.39375629276</ele>
        <time>2021-11-17T12:56:10Z</time>
      </trkpt>
      <trkpt lat="46.55789" lon="0.63755">
        <ele>64.54436229635</ele>
        <time>2021-11-17T12:56:12Z</time>
      </trkpt>
      <trkpt lat="46.55786" lon="0.63753">
        <ele>64.388682349585</ele>
        <time>2021-11-17T12:56:14Z</time>
      </trkpt>
      <trkpt lat="46.55784" lon="0.63752">
        <ele>63.994933394715</ele>
        <time>2021-11-17T12:56:16Z</time>
      </trkpt>
      <trkpt lat="46.55782" lon="0.6375">
        <ele>64.448508775793</ele>
        <time>2021-11-17T12:56:18Z</time>
      </trkpt>
      <trkpt lat="46.55779" lon="0.63748">
        <ele>64.453199600801</ele>
        <time>2021-11-17T12:56:20Z</time>
      </trkpt>
      <trkpt lat="46.55777" lon="0.63746">
        <ele>64.314799500629</ele>
        <time>2021-11-17T12:56:22Z</time>
      </trkpt>
      <trkpt lat="46.55775" lon="0.63744">
        <ele>64.326502318494</ele>
        <time>2021-11-17T12:56:24Z</time>
      </trkpt>
      <trkpt lat="46.55772" lon="0.63742">
        <ele>64.27553699445</ele>
        <time>2021-11-17T12:56:26Z</time>
      </trkpt>
      <trkpt lat="46.5577" lon="0.63739">
        <ele>64.429828738794</ele>
        <time>2021-11-17T12:56:28Z</time>
      </trkpt>
      <trkpt lat="46.55768" lon="0.63739">
        <ele>64.78680129908</ele>
        <time>2021-11-17T12:56:30Z</time>
      </trkpt>
      <trkpt lat="46.55766" lon="0.63736">
        <ele>64.050872441381</ele>
        <time>2021-11-17T12:56:32Z</time>
      </trkpt>
      <trkpt lat="46.55764" lon="0.63735">
        <ele>64.316757407039</ele>
        <time>2021-11-17T12:56:34Z</time>
      </trkpt>
      <trkpt lat="46.55762" lon="0.63733">
        <ele>64.28792246338</ele>
        <time>2021-11-17T12:56:36Z</time>
      </trkpt>
      <trkpt lat="46.5576" lon="0.63731">
        <ele>64.678501189686</ele>
        <time>2021-11-17T12:56:38Z</time>
      </trkpt>
      <trkpt lat="46.55758" lon="0.63729">
        <ele>64.280889891088</ele>
        <time>2021-11-17T12:56:40Z</time>
      </trkpt>
      <trkpt lat="46.55757" lon="0.63727">
        <ele>64.376083543524</ele>
        <time>2021-11-17T12:56:41Z</time>
      </trkpt>
      <trkpt lat="46.55755" lon="0.63726">
        <ele>64.41330077406</ele>
        <time>2021-11-17T12:56:43Z</time>
      </trkpt>
      <trkpt lat="46.55753" lon="0.63724">
        <ele>64.179056186229</ele>
        <time>2021-11-17T12:56:45Z</time>
      </trkpt>
      <trkpt lat="46.55751" lon="0.63722">
        <ele>64.335635962896</ele>
        <time>2021-11-17T12:56:47Z</time>
      </trkpt>
      <trkpt lat="46.55748" lon="0.6372">
        <ele>64.389967364259</ele>
        <time>2021-11-17T12:56:49Z</time>
      </trkpt>
      <trkpt lat="46.55746" lon="0.63718">
        <ele>64.288106766529</ele>
        <time>2021-11-17T12:56:51Z</time>
      </trkpt>
      <trkpt lat="46.55744" lon="0.63716">
        <ele>64.287720573135</ele>
        <time>2021-11-17T12:56:53Z</time>
      </trkpt>
      <trkpt lat="46.55742" lon="0.63714">
        <ele>64.36942963209</ele>
        <time>2021-11-17T12:56:55Z</time>
      </trkpt>
      <trkpt lat="46.5574" lon="0.63712">
        <ele>64.711460415274</ele>
        <time>2021-11-17T12:56:57Z</time>
      </trkpt>
      <trkpt lat="46.55738" lon="0.6371">
        <ele>64.373338802718</ele>
        <time>2021-11-17T12:56:59Z</time>
      </trkpt>
      <trkpt lat="46.55735" lon="0.63708">
        <ele>64.205186923034</ele>
        <time>2021-11-17T12:57:01Z</time>
      </trkpt>
      <trkpt lat="46.55733" lon="0.63706">
        <ele>64.692706677131</ele>
        <time>2021-11-17T12:57:04Z</time>
      </trkpt>
      <trkpt lat="46.55731" lon="0.63703">
        <ele>64.24186041113</ele>
        <time>2021-11-17T12:57:07Z</time>
      </trkpt>
      <trkpt lat="46.55729" lon="0.63702">
        <ele>64.534292805009</ele>
        <time>2021-11-17T12:57:09Z</time>
      </trkpt>
      <trkpt lat="46.55727" lon="0.63701">
        <ele>64.492092167959</ele>
        <time>2021-11-17T12:57:11Z</time>
      </trkpt>
      <trkpt lat="46.55725" lon="0.63699">
        <ele>64.347044602968</ele>
        <time>2021-11-17T12:57:14Z</time>
      </trkpt>
      <trkpt lat="46.55723" lon="0.63698">
        <ele>64.546069100499</ele>
        <time>2021-11-17T12:57:16Z</time>
      </trkpt>
      <trkpt lat="46.55721" lon="0.63697">
        <ele>64.575967031531</ele>
        <time>2021-11-17T12:57:18Z</time>
      </trkpt>
      <trkpt lat="46.55719" lon="0.63695">
        <ele>64.293653133325</ele>
        <time>2021-11-17T12:57:20Z</time>
      </trkpt>
      <trkpt lat="46.55716" lon="0.63694">
        <ele>64.68603336066</ele>
        <time>2021-11-17T12:57:22Z</time>
      </trkpt>
      <trkpt lat="46.55714" lon="0.63692">
        <ele>64.589901977219</ele>
        <time>2021-11-17T12:57:24Z</time>
      </trkpt>
      <trkpt lat="46.55712" lon="0.63691">
        <ele>64.935729536228</ele>
        <time>2021-11-17T12:57:26Z</time>
      </trkpt>
      <trkpt lat="46.5571" lon="0.63689">
        <ele>63.642267836258</ele>
        <time>2021-11-17T12:57:28Z</time>
      </trkpt>
      <trkpt lat="46.55707" lon="0.63687">
        <ele>64.836289680563</ele>
        <time>2021-11-17T12:57:30Z</time>
      </trkpt>
      <trkpt lat="46.55704" lon="0.63686">
        <ele>64.728398933075</ele>
        <time>2021-11-17T12:57:32Z</time>
      </trkpt>
      <trkpt lat="46.55702" lon="0.63685">
        <ele>64.302924678661</ele>
        <time>2021-11-17T12:57:34Z</time>
      </trkpt>
      <trkpt lat="46.557" lon="0.63683">
        <ele>64.965454584919</ele>
        <time>2021-11-17T12:57:36Z</time>
      </trkpt>
      <trkpt lat="46.55698" lon="0.63681">
        <ele>64.742887452245</ele>
        <time>2021-11-17T12:57:38Z</time>
      </trkpt>
      <trkpt lat="46.55696" lon="0.6368">
        <ele>65.028353724629</ele>
        <time>2021-11-17T12:57:40Z</time>
      </trkpt>
      <trkpt lat="46.55693" lon="0.63678">
        <ele>64.424266600981</ele>
        <time>2021-11-17T12:57:42Z</time>
      </trkpt>
      <trkpt lat="46.55691" lon="0.63676">
        <ele>64.832528169267</ele>
        <time>2021-11-17T12:57:44Z</time>
      </trkpt>
      <trkpt lat="46.55688" lon="0.63674">
        <ele>64.940243076533</ele>
        <time>2021-11-17T12:57:46Z</time>
      </trkpt>
      <trkpt lat="46.55686" lon="0.63673">
        <ele>64.520241155289</ele>
        <time>2021-11-17T12:57:48Z</time>
      </trkpt>
      <trkpt lat="46.55683" lon="0.63671">
        <ele>64.250894198194</ele>
        <time>2021-11-17T12:57:50Z</time>
      </trkpt>
      <trkpt lat="46.55681" lon="0.6367">
        <ele>64.443177414127</ele>
        <time>2021-11-17T12:57:52Z</time>
      </trkpt>
      <trkpt lat="46.55679" lon="0.63669">
        <ele>64.204132283106</ele>
        <time>2021-11-17T12:57:54Z</time>
      </trkpt>
      <trkpt lat="46.55677" lon="0.63667">
        <ele>64.458255040459</ele>
        <time>2021-11-17T12:57:56Z</time>
      </trkpt>
      <trkpt lat="46.55674" lon="0.63664">
        <ele>64.220025799237</ele>
        <time>2021-11-17T12:57:58Z</time>
      </trkpt>
      <trkpt lat="46.55672" lon="0.63663">
        <ele>64.701937186532</ele>
        <time>2021-11-17T12:58:00Z</time>
      </trkpt>
      <trkpt lat="46.5567" lon="0.63661">
        <ele>64.403667590581</ele>
        <time>2021-11-17T12:58:02Z</time>
      </trkpt>
      <trkpt lat="46.55668" lon="0.6366">
        <ele>64.291680841707</ele>
        <time>2021-11-17T12:58:04Z</time>
      </trkpt>
      <trkpt lat="46.55665" lon="0.63659">
        <ele>64.516821119003</ele>
        <time>2021-11-17T12:58:06Z</time>
      </trkpt>
      <trkpt lat="46.55662" lon="0.63657">
        <ele>64.624811003916</ele>
        <time>2021-11-17T12:58:08Z</time>
      </trkpt>
      <trkpt lat="46.5566" lon="0.63655">
        <ele>64.438179238699</ele>
        <time>2021-11-17T12:58:10Z</time>
      </trkpt>
      <trkpt lat="46.55658" lon="0.63653">
        <ele>64.257295995951</ele>
        <time>2021-11-17T12:58:12Z</time>
      </trkpt>
      <trkpt lat="46.55656" lon="0.63652">
        <ele>64.330625779927</ele>
        <time>2021-11-17T12:58:14Z</time>
      </trkpt>
      <trkpt lat="46.55653" lon="0.6365">
        <ele>64.285706078634</ele>
        <time>2021-11-17T12:58:16Z</time>
      </trkpt>
      <trkpt lat="46.55651" lon="0.63649">
        <ele>64.001308629289</ele>
        <time>2021-11-17T12:58:18Z</time>
      </trkpt>
      <trkpt lat="46.55649" lon="0.63647">
        <ele>64.443061053753</ele>
        <time>2021-11-17T12:58:20Z</time>
      </trkpt>
      <trkpt lat="46.55646" lon="0.63645">
        <ele>64.402644497342</ele>
        <time>2021-11-17T12:58:22Z</time>
      </trkpt>
      <trkpt lat="46.55644" lon="0.63643">
        <ele>64.418756105937</ele>
        <time>2021-11-17T12:58:24Z</time>
      </trkpt>
      <trkpt lat="46.55642" lon="0.63641">
        <ele>64.634239778854</ele>
        <time>2021-11-17T12:58:26Z</time>
      </trkpt>
      <trkpt lat="46.55639" lon="0.6364">
        <ele>64.378156077117</ele>
        <time>2021-11-17T12:58:28Z</time>
      </trkpt>
      <trkpt lat="46.55637" lon="0.63637">
        <ele>64.642968884669</ele>
        <time>2021-11-17T12:58:30Z</time>
      </trkpt>
      <trkpt lat="46.55634" lon="0.63636">
        <ele>64.553197074682</ele>
        <time>2021-11-17T12:58:32Z</time>
      </trkpt>
      <trkpt lat="46.55632" lon="0.63635">
        <ele>64.209114202298</ele>
        <time>2021-11-17T12:58:34Z</time>
      </trkpt>
      <trkpt lat="46.5563" lon="0.63633">
        <ele>64.124028375372</ele>
        <time>2021-11-17T12:58:36Z</time>
      </trkpt>
      <trkpt lat="46.55627" lon="0.63632">
        <ele>64.039041481912</ele>
        <time>2021-11-17T12:58:38Z</time>
      </trkpt>
      <trkpt lat="46.55625" lon="0.63629">
        <ele>64.255558124743</ele>
        <time>2021-11-17T12:58:40Z</time>
      </trkpt>
      <trkpt lat="46.55623" lon="0.63629">
        <ele>64.279583425261</ele>
        <time>2021-11-17T12:58:42Z</time>
      </trkpt>
      <trkpt lat="46.55621" lon="0.63627">
        <ele>63.898529956117</ele>
        <time>2021-11-17T12:58:44Z</time>
      </trkpt>
      <trkpt lat="46.55618" lon="0.63625">
        <ele>64.053514718078</ele>
        <time>2021-11-17T12:58:46Z</time>
      </trkpt>
      <trkpt lat="46.55616" lon="0.63623">
        <ele>64.046570776962</ele>
        <time>2021-11-17T12:58:48Z</time>
      </trkpt>
      <trkpt lat="46.55614" lon="0.63622">
        <ele>64.152638116851</ele>
        <time>2021-11-17T12:58:50Z</time>
      </trkpt>
      <trkpt lat="46.55612" lon="0.6362">
        <ele>64.013612908311</ele>
        <time>2021-11-17T12:58:52Z</time>
      </trkpt>
      <trkpt lat="46.55609" lon="0.63619">
        <ele>64.373027316295</ele>
        <time>2021-11-17T12:58:54Z</time>
      </trkpt>
      <trkpt lat="46.55607" lon="0.63618">
        <ele>64.203263980336</ele>
        <time>2021-11-17T12:58:56Z</time>
      </trkpt>
      <trkpt lat="46.55605" lon="0.63616">
        <ele>64.491658817977</ele>
        <time>2021-11-17T12:58:58Z</time>
      </trkpt>
      <trkpt lat="46.55602" lon="0.63615">
        <ele>64.374045849778</ele>
        <time>2021-11-17T12:59:00Z</time>
      </trkpt>
      <trkpt lat="46.556" lon="0.63613">
        <ele>64.620534254238</ele>
        <time>2021-11-17T12:59:02Z</time>
      </trkpt>
      <trkpt lat="46.55598" lon="0.63612">
        <ele>64.697987671942</ele>
        <time>2021-11-17T12:59:04Z</time>
      </trkpt>
      <trkpt lat="46.55596" lon="0.6361">
        <ele>64.648048924282</ele>
        <time>2021-11-17T12:59:06Z</time>
      </trkpt>
      <trkpt lat="46.55594" lon="0.63609">
        <ele>64.698114553466</ele>
        <time>2021-11-17T12:59:08Z</time>
      </trkpt>
      <trkpt lat="46.55592" lon="0.63607">
        <ele>64.694007418118</ele>
        <time>2021-11-17T12:59:10Z</time>
      </trkpt>
      <trkpt lat="46.55589" lon="0.63606">
        <ele>64.823051803745</ele>
        <time>2021-11-17T12:59:12Z</time>
      </trkpt>
      <trkpt lat="46.55587" lon="0.63604">
        <ele>64.988712062128</ele>
        <time>2021-11-17T12:59:14Z</time>
      </trkpt>
      <trkpt lat="46.55585" lon="0.63602">
        <ele>64.235551791266</ele>
        <time>2021-11-17T12:59:16Z</time>
      </trkpt>
      <trkpt lat="46.55583" lon="0.636">
        <ele>65.139274838381</ele>
        <time>2021-11-17T12:59:18Z</time>
      </trkpt>
      <trkpt lat="46.5558" lon="0.63599">
        <ele>65.096259511076</ele>
        <time>2021-11-17T12:59:20Z</time>
      </trkpt>
      <trkpt lat="46.55578" lon="0.63597">
        <ele>64.700628484599</ele>
        <time>2021-11-17T12:59:22Z</time>
      </trkpt>
      <trkpt lat="46.55576" lon="0.63595">
        <ele>64.678433782421</ele>
        <time>2021-11-17T12:59:24Z</time>
      </trkpt>
      <trkpt lat="46.55574" lon="0.63593">
        <ele>65.034219285473</ele>
        <time>2021-11-17T12:59:26Z</time>
      </trkpt>
      <trkpt lat="46.55571" lon="0.63591">
        <ele>64.964519067667</ele>
        <time>2021-11-17T12:59:28Z</time>
      </trkpt>
      <trkpt lat="46.55569" lon="0.63589">
        <ele>65.030442168005</ele>
        <time>2021-11-17T12:59:30Z</time>
      </trkpt>
      <trkpt lat="46.55568" lon="0.63587">
        <ele>64.698718134314</ele>
        <time>2021-11-17T12:59:32Z</time>
      </trkpt>
      <trkpt lat="46.55565" lon="0.63585">
        <ele>64.958973262459</ele>
        <time>2021-11-17T12:59:34Z</time>
      </trkpt>
      <trkpt lat="46.55563" lon="0.63583">
        <ele>65.147380120121</ele>
        <time>2021-11-17T12:59:36Z</time>
      </trkpt>
      <trkpt lat="46.5556" lon="0.63582">
        <ele>64.885631997138</ele>
        <time>2021-11-17T12:59:38Z</time>
      </trkpt>
      <trkpt lat="46.55558" lon="0.63581">
        <ele>64.961116396822</ele>
        <time>2021-11-17T12:59:40Z</time>
      </trkpt>
      <trkpt lat="46.55557" lon="0.63579">
        <ele>65.07774223946</ele>
        <time>2021-11-17T12:59:42Z</time>
      </trkpt>
      <trkpt lat="46.55554" lon="0.63578">
        <ele>65.094693120569</ele>
        <time>2021-11-17T12:59:44Z</time>
      </trkpt>
      <trkpt lat="46.55552" lon="0.63577">
        <ele>65.133437135257</ele>
        <time>2021-11-17T12:59:46Z</time>
      </trkpt>
      <trkpt lat="46.5555" lon="0.63576">
        <ele>65.119016529992</ele>
        <time>2021-11-17T12:59:48Z</time>
      </trkpt>
      <trkpt lat="46.55548" lon="0.63574">
        <ele>64.794195599854</ele>
        <time>2021-11-17T12:59:50Z</time>
      </trkpt>
      <trkpt lat="46.55546" lon="0.63573">
        <ele>64.816703127697</ele>
        <time>2021-11-17T12:59:52Z</time>
      </trkpt>
      <trkpt lat="46.55544" lon="0.63572">
        <ele>65.023660888895</ele>
        <time>2021-11-17T12:59:54Z</time>
      </trkpt>
      <trkpt lat="46.55542" lon="0.63571">
        <ele>65.148223442957</ele>
        <time>2021-11-17T12:59:56Z</time>
      </trkpt>
      <trkpt lat="46.55539" lon="0.6357">
        <ele>65.130852296948</ele>
        <time>2021-11-17T12:59:58Z</time>
      </trkpt>
      <trkpt lat="46.55536" lon="0.63569">
        <ele>64.643057679757</ele>
        <time>2021-11-17T13:00:00Z</time>
      </trkpt>
      <trkpt lat="46.55534" lon="0.63567">
        <ele>64.560511913151</ele>
        <time>2021-11-17T13:00:02Z</time>
      </trkpt>
      <trkpt lat="46.55532" lon="0.63566">
        <ele>64.839800627902</ele>
        <time>2021-11-17T13:00:03Z</time>
      </trkpt>
      <trkpt lat="46.5553" lon="0.63565">
        <ele>64.745401112363</ele>
        <time>2021-11-17T13:00:05Z</time>
      </trkpt>
      <trkpt lat="46.55527" lon="0.63564">
        <ele>64.740019943565</ele>
        <time>2021-11-17T13:00:07Z</time>
      </trkpt>
      <trkpt lat="46.55525" lon="0.63563">
        <ele>64.55930147972</ele>
        <time>2021-11-17T13:00:09Z</time>
      </trkpt>
      <trkpt lat="46.55523" lon="0.63562">
        <ele>64.122298870236</ele>
        <time>2021-11-17T13:00:11Z</time>
      </trkpt>
      <trkpt lat="46.5552" lon="0.6356">
        <ele>64.447637335397</ele>
        <time>2021-11-17T13:00:13Z</time>
      </trkpt>
      <trkpt lat="46.55518" lon="0.63559">
        <ele>64.898978058249</ele>
        <time>2021-11-17T13:00:15Z</time>
      </trkpt>
      <trkpt lat="46.55516" lon="0.63557">
        <ele>64.987471777946</ele>
        <time>2021-11-17T13:00:17Z</time>
      </trkpt>
      <trkpt lat="46.55513" lon="0.63555">
        <ele>64.628007082269</ele>
        <time>2021-11-17T13:00:19Z</time>
      </trkpt>
      <trkpt lat="46.55511" lon="0.63553">
        <ele>64.783277716488</ele>
        <time>2021-11-17T13:00:21Z</time>
      </trkpt>
      <trkpt lat="46.55508" lon="0.63552">
        <ele>64.885612795129</ele>
        <time>2021-11-17T13:00:24Z</time>
      </trkpt>
      <trkpt lat="46.55506" lon="0.63551">
        <ele>64.902009199373</ele>
        <time>2021-11-17T13:00:26Z</time>
      </trkpt>
      <trkpt lat="46.55503" lon="0.6355">
        <ele>65.065488215536</ele>
        <time>2021-11-17T13:00:28Z</time>
      </trkpt>
      <trkpt lat="46.555" lon="0.63549">
        <ele>64.900124077685</ele>
        <time>2021-11-17T13:00:30Z</time>
      </trkpt>
      <trkpt lat="46.55498" lon="0.63547">
        <ele>64.667748445645</ele>
        <time>2021-11-17T13:00:32Z</time>
      </trkpt>
      <trkpt lat="46.55496" lon="0.63546">
        <ele>64.880575558171</ele>
        <time>2021-11-17T13:00:34Z</time>
      </trkpt>
      <trkpt lat="46.55494" lon="0.63545">
        <ele>64.903264798224</ele>
        <time>2021-11-17T13:00:36Z</time>
      </trkpt>
      <trkpt lat="46.55492" lon="0.63544">
        <ele>65.363687323406</ele>
        <time>2021-11-17T13:00:38Z</time>
      </trkpt>
      <trkpt lat="46.5549" lon="0.63542">
        <ele>65.169897367246</ele>
        <time>2021-11-17T13:00:40Z</time>
      </trkpt>
      <trkpt lat="46.55488" lon="0.63542">
        <ele>64.965703879483</ele>
        <time>2021-11-17T13:00:42Z</time>
      </trkpt>
      <trkpt lat="46.55485" lon="0.63541">
        <ele>65.174252131954</ele>
        <time>2021-11-17T13:00:44Z</time>
      </trkpt>
      <trkpt lat="46.55482" lon="0.6354">
        <ele>65.133676104248</ele>
        <time>2021-11-17T13:00:47Z</time>
      </trkpt>
      <trkpt lat="46.5548" lon="0.63539">
        <ele>65.20528146904</ele>
        <time>2021-11-17T13:00:49Z</time>
      </trkpt>
      <trkpt lat="46.55478" lon="0.63539">
        <ele>65.406042962335</ele>
        <time>2021-11-17T13:00:51Z</time>
      </trkpt>
      <trkpt lat="46.55475" lon="0.63537">
        <ele>65.371828267351</ele>
        <time>2021-11-17T13:00:53Z</time>
      </trkpt>
      <trkpt lat="46.55472" lon="0.63537">
        <ele>65.328500433825</ele>
        <time>2021-11-17T13:00:55Z</time>
      </trkpt>
      <trkpt lat="46.55469" lon="0.63536">
        <ele>65.150805297308</ele>
        <time>2021-11-17T13:00:57Z</time>
      </trkpt>
      <trkpt lat="46.55467" lon="0.63535">
        <ele>65.561354612</ele>
        <time>2021-11-17T13:00:59Z</time>
      </trkpt>
      <trkpt lat="46.55465" lon="0.63535">
        <ele>65.637202557176</ele>
        <time>2021-11-17T13:01:00Z</time>
      </trkpt>
      <trkpt lat="46.55463" lon="0.63535">
        <ele>65.492091807537</ele>
        <time>2021-11-17T13:01:02Z</time>
      </trkpt>
      <trkpt lat="46.5546" lon="0.63536">
        <ele>65.304916668683</ele>
        <time>2021-11-17T13:01:04Z</time>
      </trkpt>
      <trkpt lat="46.55457" lon="0.63535">
        <ele>65.426729232073</ele>
        <time>2021-11-17T13:01:06Z</time>
      </trkpt>
      <trkpt lat="46.55455" lon="0.63537">
        <ele>65.410213997588</ele>
        <time>2021-11-17T13:01:08Z</time>
      </trkpt>
      <trkpt lat="46.55452" lon="0.63539">
        <ele>65.366710055619</ele>
        <time>2021-11-17T13:01:10Z</time>
      </trkpt>
      <trkpt lat="46.55451" lon="0.6354">
        <ele>65.517722528428</ele>
        <time>2021-11-17T13:01:12Z</time>
      </trkpt>
      <trkpt lat="46.55449" lon="0.63542">
        <ele>65.117800259963</ele>
        <time>2021-11-17T13:01:14Z</time>
      </trkpt>
      <trkpt lat="46.55446" lon="0.63543">
        <ele>65.365462420508</ele>
        <time>2021-11-17T13:01:16Z</time>
      </trkpt>
      <trkpt lat="46.55444" lon="0.63545">
        <ele>65.806935917586</ele>
        <time>2021-11-17T13:01:18Z</time>
      </trkpt>
      <trkpt lat="46.55441" lon="0.63545">
        <ele>65.39260704536</ele>
        <time>2021-11-17T13:01:20Z</time>
      </trkpt>
      <trkpt lat="46.55439" lon="0.63547">
        <ele>65.367358100601</ele>
        <time>2021-11-17T13:01:22Z</time>
      </trkpt>
      <trkpt lat="46.55436" lon="0.63549">
        <ele>65.770293493755</ele>
        <time>2021-11-17T13:01:24Z</time>
      </trkpt>
      <trkpt lat="46.55434" lon="0.6355">
        <ele>65.278617113829</ele>
        <time>2021-11-17T13:01:26Z</time>
      </trkpt>
      <trkpt lat="46.55432" lon="0.63552">
        <ele>65.423264515586</ele>
        <time>2021-11-17T13:01:28Z</time>
      </trkpt>
      <trkpt lat="46.55429" lon="0.63554">
        <ele>65.136054271832</ele>
        <time>2021-11-17T13:01:30Z</time>
      </trkpt>
      <trkpt lat="46.55427" lon="0.63555">
        <ele>65.242156405002</ele>
        <time>2021-11-17T13:01:32Z</time>
      </trkpt>
      <trkpt lat="46.55426" lon="0.63557">
        <ele>65.673161440529</ele>
        <time>2021-11-17T13:01:34Z</time>
      </trkpt>
      <trkpt lat="46.55424" lon="0.63559">
        <ele>65.069864808582</ele>
        <time>2021-11-17T13:01:36Z</time>
      </trkpt>
      <trkpt lat="46.55422" lon="0.63561">
        <ele>65.290957616642</ele>
        <time>2021-11-17T13:01:38Z</time>
      </trkpt>
      <trkpt lat="46.5542" lon="0.63563">
        <ele>65.308133150451</ele>
        <time>2021-11-17T13:01:40Z</time>
      </trkpt>
      <trkpt lat="46.55418" lon="0.63565">
        <ele>65.149477288127</ele>
        <time>2021-11-17T13:01:42Z</time>
      </trkpt>
      <trkpt lat="46.55416" lon="0.63567">
        <ele>65.248322560452</ele>
        <time>2021-11-17T13:01:44Z</time>
      </trkpt>
      <trkpt lat="46.55414" lon="0.63569">
        <ele>65.080531631596</ele>
        <time>2021-11-17T13:01:46Z</time>
      </trkpt>
      <trkpt lat="46.55412" lon="0.63572">
        <ele>65.523499136791</ele>
        <time>2021-11-17T13:02:32Z</time>
      </trkpt>
      <trkpt lat="46.55409" lon="0.63574">
        <ele>65.49244844541</ele>
        <time>2021-11-17T13:02:35Z</time>
      </trkpt>
      <trkpt lat="46.55408" lon="0.63578">
        <ele>65.405899618752</ele>
        <time>2021-11-17T13:02:37Z</time>
      </trkpt>
      <trkpt lat="46.55407" lon="0.63582">
        <ele>65.133538031951</ele>
        <time>2021-11-17T13:02:39Z</time>
      </trkpt>
      <trkpt lat="46.55407" lon="0.63585">
        <ele>65.385858095251</ele>
        <time>2021-11-17T13:02:41Z</time>
      </trkpt>
      <trkpt lat="46.55407" lon="0.63588">
        <ele>65.369875232689</ele>
        <time>2021-11-17T13:02:43Z</time>
      </trkpt>
      <trkpt lat="46.55406" lon="0.63591">
        <ele>65.517410568893</ele>
        <time>2021-11-17T13:02:46Z</time>
      </trkpt>
      <trkpt lat="46.55404" lon="0.63595">
        <ele>65.39779901877</ele>
        <time>2021-11-17T13:02:48Z</time>
      </trkpt>
      <trkpt lat="46.55403" lon="0.63599">
        <ele>65.305573007092</ele>
        <time>2021-11-17T13:02:50Z</time>
      </trkpt>
      <trkpt lat="46.55403" lon="0.63603">
        <ele>65.489772495814</ele>
        <time>2021-11-17T13:02:53Z</time>
      </trkpt>
      <trkpt lat="46.55403" lon="0.63606">
        <ele>65.06221747119</ele>
        <time>2021-11-17T13:02:55Z</time>
      </trkpt>
      <trkpt lat="46.55402" lon="0.63609">
        <ele>65.434384630993</ele>
        <time>2021-11-17T13:02:57Z</time>
      </trkpt>
      <trkpt lat="46.55402" lon="0.63612">
        <ele>65.2975272201</ele>
        <time>2021-11-17T13:02:59Z</time>
      </trkpt>
      <trkpt lat="46.55402" lon="0.63615">
        <ele>65.263052185997</ele>
        <time>2021-11-17T13:03:01Z</time>
      </trkpt>
      <trkpt lat="46.55402" lon="0.63618">
        <ele>65.416325141676</ele>
        <time>2021-11-17T13:03:03Z</time>
      </trkpt>
      <trkpt lat="46.55402" lon="0.63621">
        <ele>65.396123693325</ele>
        <time>2021-11-17T13:03:05Z</time>
      </trkpt>
      <trkpt lat="46.55403" lon="0.63624">
        <ele>65.827997190878</ele>
        <time>2021-11-17T13:03:07Z</time>
      </trkpt>
      <trkpt lat="46.55403" lon="0.63629">
        <ele>66.151201612316</ele>
        <time>2021-11-17T13:03:10Z</time>
      </trkpt>
      <trkpt lat="46.55403" lon="0.63632">
        <ele>65.968352060765</ele>
        <time>2021-11-17T13:03:12Z</time>
      </trkpt>
      <trkpt lat="46.55403" lon="0.63636">
        <ele>66.116053649224</ele>
        <time>2021-11-17T13:03:14Z</time>
      </trkpt>
      <trkpt lat="46.55404" lon="0.6364">
        <ele>66.359181613661</ele>
        <time>2021-11-17T13:03:16Z</time>
      </trkpt>
      <trkpt lat="46.55405" lon="0.63642">
        <ele>66.247447964735</ele>
        <time>2021-11-17T13:03:18Z</time>
      </trkpt>
      <trkpt lat="46.55405" lon="0.63645">
        <ele>66.456615288742</ele>
        <time>2021-11-17T13:03:20Z</time>
      </trkpt>
      <trkpt lat="46.55406" lon="0.63648">
        <ele>66.705755171366</ele>
        <time>2021-11-17T13:03:23Z</time>
      </trkpt>
      <trkpt lat="46.55407" lon="0.63652">
        <ele>67.078518565744</ele>
        <time>2021-11-17T13:03:25Z</time>
      </trkpt>
      <trkpt lat="46.55408" lon="0.63655">
        <ele>67.144539574161</ele>
        <time>2021-11-17T13:03:27Z</time>
      </trkpt>
      <trkpt lat="46.55408" lon="0.63658">
        <ele>67.36453499645</ele>
        <time>2021-11-17T13:03:29Z</time>
      </trkpt>
      <trkpt lat="46.55409" lon="0.63661">
        <ele>67.470518517308</ele>
        <time>2021-11-17T13:03:31Z</time>
      </trkpt>
      <trkpt lat="46.5541" lon="0.63664">
        <ele>67.395466518588</ele>
        <time>2021-11-17T13:03:33Z</time>
      </trkpt>
      <trkpt lat="46.5541" lon="0.63667">
        <ele>67.743130922318</ele>
        <time>2021-11-17T13:03:35Z</time>
      </trkpt>
      <trkpt lat="46.55411" lon="0.63671">
        <ele>67.802584042773</ele>
        <time>2021-11-17T13:03:38Z</time>
      </trkpt>
      <trkpt lat="46.5541" lon="0.63673">
        <ele>68.042349962518</ele>
        <time>2021-11-17T13:03:40Z</time>
      </trkpt>
      <trkpt lat="46.55408" lon="0.63675">
        <ele>68.10810771957</ele>
        <time>2021-11-17T13:03:42Z</time>
      </trkpt>
      <trkpt lat="46.55405" lon="0.63676">
        <ele>68.667313445359</ele>
        <time>2021-11-17T13:03:44Z</time>
      </trkpt>
      <trkpt lat="46.55403" lon="0.63678">
        <ele>68.845074621029</ele>
        <time>2021-11-17T13:03:46Z</time>
      </trkpt>
      <trkpt lat="46.55402" lon="0.63679">
        <ele>68.939119861461</ele>
        <time>2021-11-17T13:03:47Z</time>
      </trkpt>
      <trkpt lat="46.55401" lon="0.63682">
        <ele>68.931496500969</ele>
        <time>2021-11-17T13:03:49Z</time>
      </trkpt>
      <trkpt lat="46.55399" lon="0.63685">
        <ele>69.216869740747</ele>
        <time>2021-11-17T13:03:51Z</time>
      </trkpt>
      <trkpt lat="46.55398" lon="0.63689">
        <ele>69.481112800539</ele>
        <time>2021-11-17T13:03:54Z</time>
      </trkpt>
      <trkpt lat="46.55397" lon="0.63691">
        <ele>69.604394749738</ele>
        <time>2021-11-17T13:03:56Z</time>
      </trkpt>
      <trkpt lat="46.55397" lon="0.63694">
        <ele>69.899592029862</ele>
        <time>2021-11-17T13:03:58Z</time>
      </trkpt>
      <trkpt lat="46.55395" lon="0.63697">
        <ele>69.869544968009</ele>
        <time>2021-11-17T13:04:01Z</time>
      </trkpt>
      <trkpt lat="46.55394" lon="0.63699">
        <ele>70.448912649415</ele>
        <time>2021-11-17T13:04:03Z</time>
      </trkpt>
      <trkpt lat="46.55392" lon="0.63702">
        <ele>70.702062206343</ele>
        <time>2021-11-17T13:04:05Z</time>
      </trkpt>
      <trkpt lat="46.55392" lon="0.63704">
        <ele>70.716876492836</ele>
        <time>2021-11-17T13:04:07Z</time>
      </trkpt>
      <trkpt lat="46.55391" lon="0.63707">
        <ele>70.795643085614</ele>
        <time>2021-11-17T13:04:09Z</time>
      </trkpt>
      <trkpt lat="46.5539" lon="0.63709">
        <ele>71.118006864563</ele>
        <time>2021-11-17T13:04:11Z</time>
      </trkpt>
      <trkpt lat="46.55388" lon="0.63711">
        <ele>71.891123736277</ele>
        <time>2021-11-17T13:04:13Z</time>
      </trkpt>
      <trkpt lat="46.55386" lon="0.63714">
        <ele>72.035829416476</ele>
        <time>2021-11-17T13:04:16Z</time>
      </trkpt>
      <trkpt lat="46.55385" lon="0.63715">
        <ele>72.063236570917</ele>
        <time>2021-11-17T13:04:18Z</time>
      </trkpt>
      <trkpt lat="46.55383" lon="0.63718">
        <ele>72.61833780352</ele>
        <time>2021-11-17T13:04:21Z</time>
      </trkpt>
      <trkpt lat="46.55381" lon="0.6372">
        <ele>72.774975753389</ele>
        <time>2021-11-17T13:04:23Z</time>
      </trkpt>
      <trkpt lat="46.55381" lon="0.63723">
        <ele>73.003487249836</ele>
        <time>2021-11-17T13:04:25Z</time>
      </trkpt>
      <trkpt lat="46.55379" lon="0.63725">
        <ele>73.53526834026</ele>
        <time>2021-11-17T13:04:28Z</time>
      </trkpt>
      <trkpt lat="46.55378" lon="0.63727">
        <ele>73.705815685913</ele>
        <time>2021-11-17T13:04:30Z</time>
      </trkpt>
      <trkpt lat="46.55377" lon="0.63729">
        <ele>74.108818914741</ele>
        <time>2021-11-17T13:04:32Z</time>
      </trkpt>
      <trkpt lat="46.55376" lon="0.63731">
        <ele>74.209195024334</ele>
        <time>2021-11-17T13:04:34Z</time>
      </trkpt>
      <trkpt lat="46.55375" lon="0.63734">
        <ele>74.658324796706</ele>
        <time>2021-11-17T13:04:36Z</time>
      </trkpt>
      <trkpt lat="46.55373" lon="0.63737">
        <ele>74.731665577739</ele>
        <time>2021-11-17T13:04:38Z</time>
      </trkpt>
      <trkpt lat="46.55372" lon="0.63739">
        <ele>75.173285930417</ele>
        <time>2021-11-17T13:04:41Z</time>
      </trkpt>
      <trkpt lat="46.55371" lon="0.63742">
        <ele>75.424746961333</ele>
        <time>2021-11-17T13:04:44Z</time>
      </trkpt>
      <trkpt lat="46.5537" lon="0.63744">
        <ele>75.390206662007</ele>
        <time>2021-11-17T13:04:46Z</time>
      </trkpt>
      <trkpt lat="46.55369" lon="0.63747">
        <ele>75.602396689355</ele>
        <time>2021-11-17T13:04:48Z</time>
      </trkpt>
      <trkpt lat="46.5537" lon="0.63751">
        <ele>76.238558429293</ele>
        <time>2021-11-17T13:04:51Z</time>
      </trkpt>
      <trkpt lat="46.5537" lon="0.63754">
        <ele>76.580198967829</ele>
        <time>2021-11-17T13:04:54Z</time>
      </trkpt>
      <trkpt lat="46.55369" lon="0.63757">
        <ele>76.748915464617</ele>
        <time>2021-11-17T13:04:57Z</time>
      </trkpt>
      <trkpt lat="46.55369" lon="0.63761">
        <ele>77.085355917923</ele>
        <time>2021-11-17T13:05:00Z</time>
      </trkpt>
      <trkpt lat="46.55369" lon="0.63765">
        <ele>77.536601455882</ele>
        <time>2021-11-17T13:05:03Z</time>
      </trkpt>
      <trkpt lat="46.55369" lon="0.63768">
        <ele>77.783710916527</ele>
        <time>2021-11-17T13:05:06Z</time>
      </trkpt>
      <trkpt lat="46.55368" lon="0.6377">
        <ele>78.085684319027</ele>
        <time>2021-11-17T13:05:10Z</time>
      </trkpt>
      <trkpt lat="46.55368" lon="0.63774">
        <ele>78.31837139558</ele>
        <time>2021-11-17T13:05:12Z</time>
      </trkpt>
      <trkpt lat="46.55367" lon="0.63777">
        <ele>78.280310700648</ele>
        <time>2021-11-17T13:05:13Z</time>
      </trkpt>
      <trkpt lat="46.55368" lon="0.63781">
        <ele>79.062633592635</ele>
        <time>2021-11-17T13:05:15Z</time>
      </trkpt>
      <trkpt lat="46.55367" lon="0.63784">
        <ele>79.242372299545</ele>
        <time>2021-11-17T13:05:18Z</time>
      </trkpt>
      <trkpt lat="46.55367" lon="0.63788">
        <ele>79.653560707346</ele>
        <time>2021-11-17T13:05:21Z</time>
      </trkpt>
      <trkpt lat="46.55367" lon="0.63791">
        <ele>79.99157902319</ele>
        <time>2021-11-17T13:05:24Z</time>
      </trkpt>
      <trkpt lat="46.55366" lon="0.63794">
        <ele>79.979482870549</ele>
        <time>2021-11-17T13:05:26Z</time>
      </trkpt>
      <trkpt lat="46.55364" lon="0.63797">
        <ele>80.368122703396</ele>
        <time>2021-11-17T13:05:29Z</time>
      </trkpt>
      <trkpt lat="46.55363" lon="0.63799">
        <ele>80.781476802193</ele>
        <time>2021-11-17T13:05:31Z</time>
      </trkpt>
      <trkpt lat="46.55362" lon="0.63802">
        <ele>80.941002562642</ele>
        <time>2021-11-17T13:05:34Z</time>
      </trkpt>
      <trkpt lat="46.55362" lon="0.63806">
        <ele>81.087412236258</ele>
        <time>2021-11-17T13:05:36Z</time>
      </trkpt>
      <trkpt lat="46.55361" lon="0.63809">
        <ele>81.427761849947</ele>
        <time>2021-11-17T13:05:38Z</time>
      </trkpt>
      <trkpt lat="46.5536" lon="0.63812">
        <ele>81.535319367424</ele>
        <time>2021-11-17T13:05:40Z</time>
      </trkpt>
      <trkpt lat="46.55358" lon="0.63814">
        <ele>81.470847290941</ele>
        <time>2021-11-17T13:05:42Z</time>
      </trkpt>
      <trkpt lat="46.55358" lon="0.63818">
        <ele>81.968332029879</ele>
        <time>2021-11-17T13:05:44Z</time>
      </trkpt>
      <trkpt lat="46.55355" lon="0.63818">
        <ele>81.840172001161</ele>
        <time>2021-11-17T13:05:49Z</time>
      </trkpt>
      <trkpt lat="46.55353" lon="0.63816">
        <ele>82.113005320542</ele>
        <time>2021-11-17T13:05:51Z</time>
      </trkpt>
      <trkpt lat="46.55351" lon="0.63815">
        <ele>82.035470266826</ele>
        <time>2021-11-17T13:05:53Z</time>
      </trkpt>
      <trkpt lat="46.55349" lon="0.63814">
        <ele>82.040908058174</ele>
        <time>2021-11-17T13:05:55Z</time>
      </trkpt>
      <trkpt lat="46.55347" lon="0.63812">
        <ele>82.536818689667</ele>
        <time>2021-11-17T13:05:57Z</time>
      </trkpt>
      <trkpt lat="46.55345" lon="0.6381">
        <ele>81.7005186202</ele>
        <time>2021-11-17T13:05:59Z</time>
      </trkpt>
      <trkpt lat="46.55343" lon="0.63808">
        <ele>82.496066629887</ele>
        <time>2021-11-17T13:06:01Z</time>
      </trkpt>
      <trkpt lat="46.55341" lon="0.63807">
        <ele>81.862493852153</ele>
        <time>2021-11-17T13:06:03Z</time>
      </trkpt>
      <trkpt lat="46.55339" lon="0.63806">
        <ele>82.722191923298</ele>
        <time>2021-11-17T13:06:05Z</time>
      </trkpt>
      <trkpt lat="46.55338" lon="0.63803">
        <ele>82.400117892772</ele>
        <time>2021-11-17T13:06:07Z</time>
      </trkpt>
      <trkpt lat="46.55336" lon="0.63801">
        <ele>81.99343976099</ele>
        <time>2021-11-17T13:06:10Z</time>
      </trkpt>
      <trkpt lat="46.55333" lon="0.63799">
        <ele>82.163972159848</ele>
        <time>2021-11-17T13:06:12Z</time>
      </trkpt>
      <trkpt lat="46.55332" lon="0.63798">
        <ele>82.260082673281</ele>
        <time>2021-11-17T13:06:14Z</time>
      </trkpt>
      <trkpt lat="46.5533" lon="0.63797">
        <ele>82.078129019588</ele>
        <time>2021-11-17T13:06:16Z</time>
      </trkpt>
      <trkpt lat="46.55329" lon="0.63795">
        <ele>82.093561594374</ele>
        <time>2021-11-17T13:06:18Z</time>
      </trkpt>
      <trkpt lat="46.55326" lon="0.63793">
        <ele>81.983159253374</ele>
        <time>2021-11-17T13:06:20Z</time>
      </trkpt>
      <trkpt lat="46.55324" lon="0.63792">
        <ele>82.078145768493</ele>
        <time>2021-11-17T13:06:21Z</time>
      </trkpt>
      <trkpt lat="46.55322" lon="0.63791">
        <ele>81.737170826644</ele>
        <time>2021-11-17T13:06:23Z</time>
      </trkpt>
      <trkpt lat="46.55319" lon="0.6379">
        <ele>82.31586558558</ele>
        <time>2021-11-17T13:06:26Z</time>
      </trkpt>
      <trkpt lat="46.55316" lon="0.63789">
        <ele>82.270149546675</ele>
        <time>2021-11-17T13:06:28Z</time>
      </trkpt>
      <trkpt lat="46.55315" lon="0.63787">
        <ele>82.403473017737</ele>
        <time>2021-11-17T13:06:30Z</time>
      </trkpt>
      <trkpt lat="46.55313" lon="0.63786">
        <ele>82.510048784316</ele>
        <time>2021-11-17T13:06:32Z</time>
      </trkpt>
      <trkpt lat="46.55311" lon="0.63784">
        <ele>82.606527746655</ele>
        <time>2021-11-17T13:06:34Z</time>
      </trkpt>
      <trkpt lat="46.55309" lon="0.63783">
        <ele>82.374899537303</ele>
        <time>2021-11-17T13:06:36Z</time>
      </trkpt>
      <trkpt lat="46.55307" lon="0.63781">
        <ele>82.357258709148</ele>
        <time>2021-11-17T13:06:38Z</time>
      </trkpt>
      <trkpt lat="46.55305" lon="0.63779">
        <ele>82.51545580104</ele>
        <time>2021-11-17T13:06:40Z</time>
      </trkpt>
      <trkpt lat="46.55302" lon="0.63778">
        <ele>82.724338454194</ele>
        <time>2021-11-17T13:06:42Z</time>
      </trkpt>
      <trkpt lat="46.553" lon="0.63777">
        <ele>82.82602273114</ele>
        <time>2021-11-17T13:06:44Z</time>
      </trkpt>
      <trkpt lat="46.55298" lon="0.63776">
        <ele>82.49301290419</ele>
        <time>2021-11-17T13:06:46Z</time>
      </trkpt>
      <trkpt lat="46.55296" lon="0.63775">
        <ele>83.054170303978</ele>
        <time>2021-11-17T13:06:49Z</time>
      </trkpt>
      <trkpt lat="46.55294" lon="0.63773">
        <ele>82.988878199831</ele>
        <time>2021-11-17T13:06:51Z</time>
      </trkpt>
      <trkpt lat="46.55291" lon="0.63771">
        <ele>83.40380391106</ele>
        <time>2021-11-17T13:06:54Z</time>
      </trkpt>
      <trkpt lat="46.55289" lon="0.63769">
        <ele>83.195982425474</ele>
        <time>2021-11-17T13:06:57Z</time>
      </trkpt>
      <trkpt lat="46.55286" lon="0.63767">
        <ele>83.586006361991</ele>
        <time>2021-11-17T13:07:00Z</time>
      </trkpt>
      <trkpt lat="46.55284" lon="0.63765">
        <ele>83.212534076534</ele>
        <time>2021-11-17T13:07:02Z</time>
      </trkpt>
      <trkpt lat="46.55282" lon="0.63764">
        <ele>83.495247750543</ele>
        <time>2021-11-17T13:07:04Z</time>
      </trkpt>
      <trkpt lat="46.5528" lon="0.63761">
        <ele>83.903100551106</ele>
        <time>2021-11-17T13:07:07Z</time>
      </trkpt>
      <trkpt lat="46.55277" lon="0.6376">
        <ele>84.000053536147</ele>
        <time>2021-11-17T13:07:11Z</time>
      </trkpt>
      <trkpt lat="46.55275" lon="0.63759">
        <ele>84.025786295533</ele>
        <time>2021-11-17T13:07:13Z</time>
      </trkpt>
      <trkpt lat="46.55273" lon="0.63757">
        <ele>84.529747184366</ele>
        <time>2021-11-17T13:07:18Z</time>
      </trkpt>
      <trkpt lat="46.55271" lon="0.63756">
        <ele>84.603085977957</ele>
        <time>2021-11-17T13:07:21Z</time>
      </trkpt>
      <trkpt lat="46.55269" lon="0.63755">
        <ele>84.396458945237</ele>
        <time>2021-11-17T13:07:23Z</time>
      </trkpt>
      <trkpt lat="46.55267" lon="0.63754">
        <ele>84.880241816863</ele>
        <time>2021-11-17T13:07:25Z</time>
      </trkpt>
      <trkpt lat="46.55265" lon="0.63754">
        <ele>84.776537940837</ele>
        <time>2021-11-17T13:07:27Z</time>
      </trkpt>
      <trkpt lat="46.55263" lon="0.63753">
        <ele>85.16187070217</ele>
        <time>2021-11-17T13:07:28Z</time>
      </trkpt>
      <trkpt lat="46.55261" lon="0.63751">
        <ele>85.367300474085</ele>
        <time>2021-11-17T13:07:30Z</time>
      </trkpt>
      <trkpt lat="46.55259" lon="0.63749">
        <ele>85.279260431416</ele>
        <time>2021-11-17T13:07:33Z</time>
      </trkpt>
      <trkpt lat="46.55257" lon="0.63748">
        <ele>85.197819842957</ele>
        <time>2021-11-17T13:07:35Z</time>
      </trkpt>
      <trkpt lat="46.55255" lon="0.63746">
        <ele>85.278301136568</ele>
        <time>2021-11-17T13:07:37Z</time>
      </trkpt>
      <trkpt lat="46.55252" lon="0.63746">
        <ele>85.369970569387</ele>
        <time>2021-11-17T13:07:39Z</time>
      </trkpt>
      <trkpt lat="46.5525" lon="0.63745">
        <ele>85.445972100832</ele>
        <time>2021-11-17T13:07:42Z</time>
      </trkpt>
      <trkpt lat="46.55248" lon="0.63742">
        <ele>85.456898026168</ele>
        <time>2021-11-17T13:07:45Z</time>
      </trkpt>
      <trkpt lat="46.55245" lon="0.6374">
        <ele>85.516115813516</ele>
        <time>2021-11-17T13:07:47Z</time>
      </trkpt>
      <trkpt lat="46.55243" lon="0.63738">
        <ele>85.52911837399</ele>
        <time>2021-11-17T13:07:49Z</time>
      </trkpt>
      <trkpt lat="46.55242" lon="0.63737">
        <ele>85.796333504841</ele>
        <time>2021-11-17T13:07:50Z</time>
      </trkpt>
      <trkpt lat="46.55239" lon="0.63735">
        <ele>86.178017660975</ele>
        <time>2021-11-17T13:07:52Z</time>
      </trkpt>
      <trkpt lat="46.55237" lon="0.63733">
        <ele>86.029611939564</ele>
        <time>2021-11-17T13:07:54Z</time>
      </trkpt>
      <trkpt lat="46.55235" lon="0.6373">
        <ele>85.951442634687</ele>
        <time>2021-11-17T13:07:56Z</time>
      </trkpt>
      <trkpt lat="46.55234" lon="0.63728">
        <ele>86.535273732617</ele>
        <time>2021-11-17T13:07:58Z</time>
      </trkpt>
      <trkpt lat="46.55234" lon="0.63725">
        <ele>86.405492193997</ele>
        <time>2021-11-17T13:08:00Z</time>
      </trkpt>
      <trkpt lat="46.55233" lon="0.63721">
        <ele>85.976474924013</ele>
        <time>2021-11-17T13:08:03Z</time>
      </trkpt>
      <trkpt lat="46.55233" lon="0.63718">
        <ele>86.168907356448</ele>
        <time>2021-11-17T13:08:05Z</time>
      </trkpt>
      <trkpt lat="46.55233" lon="0.63715">
        <ele>85.925227254629</ele>
        <time>2021-11-17T13:08:08Z</time>
      </trkpt>
      <trkpt lat="46.55234" lon="0.63712">
        <ele>85.320684324019</ele>
        <time>2021-11-17T13:08:09Z</time>
      </trkpt>
      <trkpt lat="46.55235" lon="0.63709">
        <ele>85.000371122733</ele>
        <time>2021-11-17T13:08:12Z</time>
      </trkpt>
      <trkpt lat="46.55236" lon="0.63704">
        <ele>84.94779216405</ele>
        <time>2021-11-17T13:08:14Z</time>
      </trkpt>
      <trkpt lat="46.55237" lon="0.63701">
        <ele>84.51240053121</ele>
        <time>2021-11-17T13:08:16Z</time>
      </trkpt>
      <trkpt lat="46.55238" lon="0.63696">
        <ele>84.534380287863</ele>
        <time>2021-11-17T13:08:18Z</time>
      </trkpt>
      <trkpt lat="46.55238" lon="0.63694">
        <ele>84.411647769623</ele>
        <time>2021-11-17T13:08:20Z</time>
      </trkpt>
      <trkpt lat="46.55239" lon="0.63691">
        <ele>83.975455217063</ele>
        <time>2021-11-17T13:08:22Z</time>
      </trkpt>
      <trkpt lat="46.5524" lon="0.63688">
        <ele>83.665326130576</ele>
        <time>2021-11-17T13:08:24Z</time>
      </trkpt>
      <trkpt lat="46.55241" lon="0.63684">
        <ele>83.354054057039</ele>
        <time>2021-11-17T13:08:27Z</time>
      </trkpt>
      <trkpt lat="46.55242" lon="0.63682">
        <ele>82.85045284126</ele>
        <time>2021-11-17T13:08:29Z</time>
      </trkpt>
      <trkpt lat="46.55242" lon="0.63678">
        <ele>82.140918113291</ele>
        <time>2021-11-17T13:08:31Z</time>
      </trkpt>
      <trkpt lat="46.55242" lon="0.63674">
        <ele>82.939470699988</ele>
        <time>2021-11-17T13:08:33Z</time>
      </trkpt>
      <trkpt lat="46.55241" lon="0.6367">
        <ele>82.267870875075</ele>
        <time>2021-11-17T13:08:36Z</time>
      </trkpt>
      <trkpt lat="46.55239" lon="0.63669">
        <ele>82.34437939059</ele>
        <time>2021-11-17T13:08:37Z</time>
      </trkpt>
      <trkpt lat="46.55237" lon="0.63666">
        <ele>82.60190244019</ele>
        <time>2021-11-17T13:08:39Z</time>
      </trkpt>
      <trkpt lat="46.55235" lon="0.63664">
        <ele>82.271398087032</ele>
        <time>2021-11-17T13:08:41Z</time>
      </trkpt>
      <trkpt lat="46.55233" lon="0.63661">
        <ele>82.129624180496</ele>
        <time>2021-11-17T13:08:43Z</time>
      </trkpt>
      <trkpt lat="46.55231" lon="0.63659">
        <ele>82.199204012752</ele>
        <time>2021-11-17T13:08:45Z</time>
      </trkpt>
      <trkpt lat="46.55229" lon="0.63656">
        <ele>82.242650701664</ele>
        <time>2021-11-17T13:08:47Z</time>
      </trkpt>
      <trkpt lat="46.55228" lon="0.63654">
        <ele>82.47950298246</ele>
        <time>2021-11-17T13:08:49Z</time>
      </trkpt>
      <trkpt lat="46.55226" lon="0.63652">
        <ele>82.482669817284</ele>
        <time>2021-11-17T13:08:52Z</time>
      </trkpt>
      <trkpt lat="46.55224" lon="0.6365">
        <ele>82.563326574862</ele>
        <time>2021-11-17T13:08:54Z</time>
      </trkpt>
      <trkpt lat="46.55222" lon="0.63648">
        <ele>82.265858066268</ele>
        <time>2021-11-17T13:08:56Z</time>
      </trkpt>
      <trkpt lat="46.55221" lon="0.63646">
        <ele>82.740182228386</ele>
        <time>2021-11-17T13:08:58Z</time>
      </trkpt>
      <trkpt lat="46.55219" lon="0.63644">
        <ele>82.752251126803</ele>
        <time>2021-11-17T13:09:01Z</time>
      </trkpt>
      <trkpt lat="46.55217" lon="0.63641">
        <ele>82.408159610815</ele>
        <time>2021-11-17T13:09:04Z</time>
      </trkpt>
      <trkpt lat="46.55214" lon="0.63637">
        <ele>82.689326122403</ele>
        <time>2021-11-17T13:09:06Z</time>
      </trkpt>
      <trkpt lat="46.55212" lon="0.63635">
        <ele>82.876231645234</ele>
        <time>2021-11-17T13:09:08Z</time>
      </trkpt>
      <trkpt lat="46.5521" lon="0.63632">
        <ele>82.437972953543</ele>
        <time>2021-11-17T13:09:10Z</time>
      </trkpt>
      <trkpt lat="46.55208" lon="0.6363">
        <ele>82.399621564895</ele>
        <time>2021-11-17T13:09:12Z</time>
      </trkpt>
      <trkpt lat="46.55206" lon="0.63628">
        <ele>82.397684626281</ele>
        <time>2021-11-17T13:09:15Z</time>
      </trkpt>
      <trkpt lat="46.55203" lon="0.63627">
        <ele>82.732501892373</ele>
        <time>2021-11-17T13:09:18Z</time>
      </trkpt>
      <trkpt lat="46.55201" lon="0.63625">
        <ele>82.686787230894</ele>
        <time>2021-11-17T13:09:20Z</time>
      </trkpt>
      <trkpt lat="46.55199" lon="0.63623">
        <ele>82.441402238794</ele>
        <time>2021-11-17T13:09:22Z</time>
      </trkpt>
      <trkpt lat="46.55196" lon="0.63622">
        <ele>82.487195622176</ele>
        <time>2021-11-17T13:09:24Z</time>
      </trkpt>
      <trkpt lat="46.55194" lon="0.63621">
        <ele>82.814027528279</ele>
        <time>2021-11-17T13:09:26Z</time>
      </trkpt>
      <trkpt lat="46.55192" lon="0.63618">
        <ele>82.218758037314</ele>
        <time>2021-11-17T13:09:28Z</time>
      </trkpt>
      <trkpt lat="46.5519" lon="0.63617">
        <ele>82.602915828116</ele>
        <time>2021-11-17T13:09:30Z</time>
      </trkpt>
      <trkpt lat="46.55188" lon="0.63615">
        <ele>82.394490456209</ele>
        <time>2021-11-17T13:09:33Z</time>
      </trkpt>
      <trkpt lat="46.55185" lon="0.63613">
        <ele>82.658133066259</ele>
        <time>2021-11-17T13:09:35Z</time>
      </trkpt>
      <trkpt lat="46.55182" lon="0.6361">
        <ele>83.042663583532</ele>
        <time>2021-11-17T13:09:37Z</time>
      </trkpt>
      <trkpt lat="46.5518" lon="0.63609">
        <ele>82.848365397193</ele>
        <time>2021-11-17T13:09:39Z</time>
      </trkpt>
      <trkpt lat="46.55178" lon="0.63608">
        <ele>83.15506147407</ele>
        <time>2021-11-17T13:09:41Z</time>
      </trkpt>
      <trkpt lat="46.55175" lon="0.63608">
        <ele>83.509792261757</ele>
        <time>2021-11-17T13:09:44Z</time>
      </trkpt>
      <trkpt lat="46.55173" lon="0.63609">
        <ele>83.816421302967</ele>
        <time>2021-11-17T13:09:46Z</time>
      </trkpt>
      <trkpt lat="46.55171" lon="0.6361">
        <ele>84.473022859544</ele>
        <time>2021-11-17T13:09:49Z</time>
      </trkpt>
      <trkpt lat="46.55168" lon="0.63612">
        <ele>85.128701780923</ele>
        <time>2021-11-17T13:09:51Z</time>
      </trkpt>
      <trkpt lat="46.55167" lon="0.63613">
        <ele>85.336615809239</ele>
        <time>2021-11-17T13:09:53Z</time>
      </trkpt>
      <trkpt lat="46.55165" lon="0.63615">
        <ele>85.884531025775</ele>
        <time>2021-11-17T13:09:55Z</time>
      </trkpt>
      <trkpt lat="46.55163" lon="0.63616">
        <ele>86.203748981468</ele>
        <time>2021-11-17T13:09:57Z</time>
      </trkpt>
      <trkpt lat="46.5516" lon="0.63615">
        <ele>86.427107129246</ele>
        <time>2021-11-17T13:09:59Z</time>
      </trkpt>
      <trkpt lat="46.55158" lon="0.63614">
        <ele>86.38523095008</ele>
        <time>2021-11-17T13:10:01Z</time>
      </trkpt>
      <trkpt lat="46.55156" lon="0.63613">
        <ele>86.581308399327</ele>
        <time>2021-11-17T13:10:03Z</time>
      </trkpt>
      <trkpt lat="46.55154" lon="0.63612">
        <ele>86.850217698142</ele>
        <time>2021-11-17T13:10:05Z</time>
      </trkpt>
      <trkpt lat="46.55152" lon="0.63611">
        <ele>86.913448337466</ele>
        <time>2021-11-17T13:10:07Z</time>
      </trkpt>
      <trkpt lat="46.5515" lon="0.6361">
        <ele>86.943742848001</ele>
        <time>2021-11-17T13:10:09Z</time>
      </trkpt>
      <trkpt lat="46.55147" lon="0.63609">
        <ele>87.362460481934</ele>
        <time>2021-11-17T13:10:11Z</time>
      </trkpt>
      <trkpt lat="46.55145" lon="0.63607">
        <ele>87.595481473953</ele>
        <time>2021-11-17T13:10:13Z</time>
      </trkpt>
      <trkpt lat="46.55143" lon="0.63606">
        <ele>87.532663132995</ele>
        <time>2021-11-17T13:10:15Z</time>
      </trkpt>
      <trkpt lat="46.55141" lon="0.63605">
        <ele>87.156723228283</ele>
        <time>2021-11-17T13:10:16Z</time>
      </trkpt>
      <trkpt lat="46.55139" lon="0.63604">
        <ele>87.698654387146</ele>
        <time>2021-11-17T13:10:18Z</time>
      </trkpt>
      <trkpt lat="46.55137" lon="0.63603">
        <ele>87.835943403654</ele>
        <time>2021-11-17T13:10:20Z</time>
      </trkpt>
      <trkpt lat="46.55135" lon="0.63602">
        <ele>87.163450676948</ele>
        <time>2021-11-17T13:10:22Z</time>
      </trkpt>
      <trkpt lat="46.55133" lon="0.63601">
        <ele>87.730633242987</ele>
        <time>2021-11-17T13:10:23Z</time>
      </trkpt>
      <trkpt lat="46.5513" lon="0.636">
        <ele>87.967194491066</ele>
        <time>2021-11-17T13:10:25Z</time>
      </trkpt>
      <trkpt lat="46.55128" lon="0.63599">
        <ele>88.01511474885</ele>
        <time>2021-11-17T13:10:27Z</time>
      </trkpt>
      <trkpt lat="46.55126" lon="0.63598">
        <ele>87.786121340469</ele>
        <time>2021-11-17T13:10:29Z</time>
      </trkpt>
      <trkpt lat="46.55124" lon="0.63597">
        <ele>87.903980258852</ele>
        <time>2021-11-17T13:10:31Z</time>
      </trkpt>
      <trkpt lat="46.55122" lon="0.63596">
        <ele>88.207539303228</ele>
        <time>2021-11-17T13:10:33Z</time>
      </trkpt>
      <trkpt lat="46.5512" lon="0.63595">
        <ele>88.268841865472</ele>
        <time>2021-11-17T13:10:35Z</time>
      </trkpt>
      <trkpt lat="46.55118" lon="0.63593">
        <ele>88.352685098536</ele>
        <time>2021-11-17T13:10:37Z</time>
      </trkpt>
      <trkpt lat="46.55115" lon="0.63592">
        <ele>88.828336149454</ele>
        <time>2021-11-17T13:10:39Z</time>
      </trkpt>
      <trkpt lat="46.55113" lon="0.63592">
        <ele>88.156517207623</ele>
        <time>2021-11-17T13:10:41Z</time>
      </trkpt>
      <trkpt lat="46.55111" lon="0.6359">
        <ele>88.676297358237</ele>
        <time>2021-11-17T13:10:43Z</time>
      </trkpt>
      <trkpt lat="46.55109" lon="0.63589">
        <ele>88.45552781783</ele>
        <time>2021-11-17T13:10:45Z</time>
      </trkpt>
      <trkpt lat="46.55106" lon="0.63587">
        <ele>88.369724963792</ele>
        <time>2021-11-17T13:10:47Z</time>
      </trkpt>
      <trkpt lat="46.55104" lon="0.63586">
        <ele>88.459915269166</ele>
        <time>2021-11-17T13:10:49Z</time>
      </trkpt>
      <trkpt lat="46.55102" lon="0.63585">
        <ele>88.432835339569</ele>
        <time>2021-11-17T13:10:51Z</time>
      </trkpt>
      <trkpt lat="46.55099" lon="0.63585">
        <ele>89.099351850338</ele>
        <time>2021-11-17T13:10:53Z</time>
      </trkpt>
      <trkpt lat="46.55097" lon="0.63583">
        <ele>89.122141412459</ele>
        <time>2021-11-17T13:10:55Z</time>
      </trkpt>
      <trkpt lat="46.55094" lon="0.63581">
        <ele>89.11340356525</ele>
        <time>2021-11-17T13:10:57Z</time>
      </trkpt>
      <trkpt lat="46.55092" lon="0.6358">
        <ele>89.14863744285</ele>
        <time>2021-11-17T13:10:59Z</time>
      </trkpt>
      <trkpt lat="46.5509" lon="0.63579">
        <ele>89.232700662687</ele>
        <time>2021-11-17T13:11:01Z</time>
      </trkpt>
      <trkpt lat="46.55088" lon="0.63578">
        <ele>89.214982896112</ele>
        <time>2021-11-17T13:11:02Z</time>
      </trkpt>
      <trkpt lat="46.55086" lon="0.63578">
        <ele>89.337038383819</ele>
        <time>2021-11-17T13:11:05Z</time>
      </trkpt>
      <trkpt lat="46.55083" lon="0.63577">
        <ele>89.008516240865</ele>
        <time>2021-11-17T13:11:07Z</time>
      </trkpt>
      <trkpt lat="46.55081" lon="0.63576">
        <ele>90.090994474478</ele>
        <time>2021-11-17T13:11:09Z</time>
      </trkpt>
      <trkpt lat="46.55079" lon="0.63576">
        <ele>89.541264808737</ele>
        <time>2021-11-17T13:11:11Z</time>
      </trkpt>
      <trkpt lat="46.55076" lon="0.63575">
        <ele>89.441024943255</ele>
        <time>2021-11-17T13:11:13Z</time>
      </trkpt>
      <trkpt lat="46.55074" lon="0.63575">
        <ele>89.609690288082</ele>
        <time>2021-11-17T13:11:15Z</time>
      </trkpt>
      <trkpt lat="46.55072" lon="0.63574">
        <ele>89.745870101266</ele>
        <time>2021-11-17T13:11:17Z</time>
      </trkpt>
      <trkpt lat="46.5507" lon="0.63573">
        <ele>89.8053051522</ele>
        <time>2021-11-17T13:11:19Z</time>
      </trkpt>
      <trkpt lat="46.55067" lon="0.63572">
        <ele>89.848792515695</ele>
        <time>2021-11-17T13:11:21Z</time>
      </trkpt>
      <trkpt lat="46.55064" lon="0.63571">
        <ele>89.711189794354</ele>
        <time>2021-11-17T13:11:23Z</time>
      </trkpt>
      <trkpt lat="46.55062" lon="0.63571">
        <ele>89.82430376485</ele>
        <time>2021-11-17T13:11:25Z</time>
      </trkpt>
      <trkpt lat="46.5506" lon="0.6357">
        <ele>89.689875244163</ele>
        <time>2021-11-17T13:11:27Z</time>
      </trkpt>
      <trkpt lat="46.55057" lon="0.6357">
        <ele>89.09717374295</ele>
        <time>2021-11-17T13:11:29Z</time>
      </trkpt>
      <trkpt lat="46.55055" lon="0.6357">
        <ele>89.657765013166</ele>
        <time>2021-11-17T13:11:30Z</time>
      </trkpt>
      <trkpt lat="46.55053" lon="0.6357">
        <ele>89.526645279489</ele>
        <time>2021-11-17T13:11:32Z</time>
      </trkpt>
      <trkpt lat="46.55051" lon="0.6357">
        <ele>89.418400747702</ele>
        <time>2021-11-17T13:11:34Z</time>
      </trkpt>
      <trkpt lat="46.55049" lon="0.63569">
        <ele>89.65720197279</ele>
        <time>2021-11-17T13:11:36Z</time>
      </trkpt>
      <trkpt lat="46.55047" lon="0.63569">
        <ele>89.648121563718</ele>
        <time>2021-11-17T13:11:38Z</time>
      </trkpt>
      <trkpt lat="46.55044" lon="0.63569">
        <ele>89.240056269802</ele>
        <time>2021-11-17T13:11:40Z</time>
      </trkpt>
      <trkpt lat="46.55042" lon="0.63569">
        <ele>89.022649187595</ele>
        <time>2021-11-17T13:11:42Z</time>
      </trkpt>
      <trkpt lat="46.5504" lon="0.63569">
        <ele>89.182375587523</ele>
        <time>2021-11-17T13:11:44Z</time>
      </trkpt>
      <trkpt lat="46.55037" lon="0.63569">
        <ele>89.191246042028</ele>
        <time>2021-11-17T13:11:46Z</time>
      </trkpt>
      <trkpt lat="46.55034" lon="0.63568">
        <ele>89.234468666837</ele>
        <time>2021-11-17T13:11:48Z</time>
      </trkpt>
      <trkpt lat="46.55031" lon="0.63568">
        <ele>89.121554560028</ele>
        <time>2021-11-17T13:11:50Z</time>
      </trkpt>
      <trkpt lat="46.55029" lon="0.63568">
        <ele>89.155017100275</ele>
        <time>2021-11-17T13:11:52Z</time>
      </trkpt>
      <trkpt lat="46.55027" lon="0.63568">
        <ele>89.187652613036</ele>
        <time>2021-11-17T13:11:54Z</time>
      </trkpt>
      <trkpt lat="46.55024" lon="0.63567">
        <ele>89.163880628534</ele>
        <time>2021-11-17T13:11:56Z</time>
      </trkpt>
      <trkpt lat="46.55021" lon="0.63567">
        <ele>89.111469824798</ele>
        <time>2021-11-17T13:11:58Z</time>
      </trkpt>
      <trkpt lat="46.55019" lon="0.63567">
        <ele>88.977506413125</ele>
        <time>2021-11-17T13:12:00Z</time>
      </trkpt>
      <trkpt lat="46.55016" lon="0.63566">
        <ele>89.006182582118</ele>
        <time>2021-11-17T13:12:02Z</time>
      </trkpt>
      <trkpt lat="46.55014" lon="0.63566">
        <ele>88.902526295744</ele>
        <time>2021-11-17T13:12:04Z</time>
      </trkpt>
      <trkpt lat="46.55011" lon="0.63565">
        <ele>88.816083447076</ele>
        <time>2021-11-17T13:12:06Z</time>
      </trkpt>
      <trkpt lat="46.55008" lon="0.63565">
        <ele>88.739967353642</ele>
        <time>2021-11-17T13:12:08Z</time>
      </trkpt>
      <trkpt lat="46.55006" lon="0.63564">
        <ele>88.806721505709</ele>
        <time>2021-11-17T13:12:10Z</time>
      </trkpt>
      <trkpt lat="46.55003" lon="0.63564">
        <ele>88.571281082928</ele>
        <time>2021-11-17T13:12:12Z</time>
      </trkpt>
      <trkpt lat="46.55001" lon="0.63563">
        <ele>88.670705844648</ele>
        <time>2021-11-17T13:12:14Z</time>
      </trkpt>
      <trkpt lat="46.54999" lon="0.63563">
        <ele>88.611400451511</ele>
        <time>2021-11-17T13:12:16Z</time>
      </trkpt>
      <trkpt lat="46.54996" lon="0.63562">
        <ele>88.4398281537</ele>
        <time>2021-11-17T13:12:18Z</time>
      </trkpt>
      <trkpt lat="46.54993" lon="0.63561">
        <ele>88.308947290294</ele>
        <time>2021-11-17T13:12:20Z</time>
      </trkpt>
      <trkpt lat="46.54991" lon="0.6356">
        <ele>88.518538416363</ele>
        <time>2021-11-17T13:12:22Z</time>
      </trkpt>
      <trkpt lat="46.54989" lon="0.6356">
        <ele>88.681979265064</ele>
        <time>2021-11-17T13:12:24Z</time>
      </trkpt>
      <trkpt lat="46.54986" lon="0.63559">
        <ele>89.125574653037</ele>
        <time>2021-11-17T13:12:26Z</time>
      </trkpt>
      <trkpt lat="46.54984" lon="0.63559">
        <ele>88.722583416849</ele>
        <time>2021-11-17T13:12:28Z</time>
      </trkpt>
      <trkpt lat="46.54981" lon="0.63558">
        <ele>88.318813576363</ele>
        <time>2021-11-17T13:12:30Z</time>
      </trkpt>
      <trkpt lat="46.54978" lon="0.63557">
        <ele>88.212100766599</ele>
        <time>2021-11-17T13:12:32Z</time>
      </trkpt>
      <trkpt lat="46.54976" lon="0.63557">
        <ele>87.889904191718</ele>
        <time>2021-11-17T13:12:34Z</time>
      </trkpt>
      <trkpt lat="46.54974" lon="0.63557">
        <ele>88.162354974076</ele>
        <time>2021-11-17T13:12:35Z</time>
      </trkpt>
      <trkpt lat="46.54971" lon="0.63556">
        <ele>88.296516879462</ele>
        <time>2021-11-17T13:12:37Z</time>
      </trkpt>
      <trkpt lat="46.54968" lon="0.63556">
        <ele>88.595410726964</ele>
        <time>2021-11-17T13:12:40Z</time>
      </trkpt>
      <trkpt lat="46.54965" lon="0.63555">
        <ele>88.500492027961</ele>
        <time>2021-11-17T13:12:42Z</time>
      </trkpt>
      <trkpt lat="46.54963" lon="0.63554">
        <ele>88.241913500242</ele>
        <time>2021-11-17T13:12:44Z</time>
      </trkpt>
      <trkpt lat="46.5496" lon="0.63554">
        <ele>88.723741875961</ele>
        <time>2021-11-17T13:12:46Z</time>
      </trkpt>
      <trkpt lat="46.54957" lon="0.63553">
        <ele>88.067496081814</ele>
        <time>2021-11-17T13:12:48Z</time>
      </trkpt>
      <trkpt lat="46.54955" lon="0.63553">
        <ele>88.703886257485</ele>
        <time>2021-11-17T13:12:50Z</time>
      </trkpt>
      <trkpt lat="46.54952" lon="0.63552">
        <ele>88.34666512534</ele>
        <time>2021-11-17T13:12:52Z</time>
      </trkpt>
      <trkpt lat="46.5495" lon="0.63552">
        <ele>88.343253654428</ele>
        <time>2021-11-17T13:12:54Z</time>
      </trkpt>
      <trkpt lat="46.54948" lon="0.63552">
        <ele>88.355508268811</ele>
        <time>2021-11-17T13:12:56Z</time>
      </trkpt>
      <trkpt lat="46.54946" lon="0.63553">
        <ele>88.575067431666</ele>
        <time>2021-11-17T13:12:58Z</time>
      </trkpt>
      <trkpt lat="46.54944" lon="0.63553">
        <ele>88.960369356908</ele>
        <time>2021-11-17T13:13:00Z</time>
      </trkpt>
      <trkpt lat="46.54941" lon="0.63553">
        <ele>88.8077987656</ele>
        <time>2021-11-17T13:13:02Z</time>
      </trkpt>
      <trkpt lat="46.54939" lon="0.63554">
        <ele>89.39060560707</ele>
        <time>2021-11-17T13:13:04Z</time>
      </trkpt>
      <trkpt lat="46.54937" lon="0.63554">
        <ele>89.098409170285</ele>
        <time>2021-11-17T13:13:06Z</time>
      </trkpt>
      <trkpt lat="46.54934" lon="0.63554">
        <ele>89.704854419455</ele>
        <time>2021-11-17T13:13:08Z</time>
      </trkpt>
      <trkpt lat="46.54932" lon="0.63555">
        <ele>89.957425212488</ele>
        <time>2021-11-17T13:13:10Z</time>
      </trkpt>
      <trkpt lat="46.54929" lon="0.63555">
        <ele>90.043278149329</ele>
        <time>2021-11-17T13:13:12Z</time>
      </trkpt>
      <trkpt lat="46.54927" lon="0.63555">
        <ele>90.125102325343</ele>
        <time>2021-11-17T13:13:13Z</time>
      </trkpt>
      <trkpt lat="46.54925" lon="0.63555">
        <ele>90.043283328414</ele>
        <time>2021-11-17T13:13:14Z</time>
      </trkpt>
      <trkpt lat="46.54923" lon="0.63556">
        <ele>90.159817781299</ele>
        <time>2021-11-17T13:13:16Z</time>
      </trkpt>
      <trkpt lat="46.54921" lon="0.63556">
        <ele>90.683039531112</ele>
        <time>2021-11-17T13:13:18Z</time>
      </trkpt>
      <trkpt lat="46.54918" lon="0.63556">
        <ele>90.200769477524</ele>
        <time>2021-11-17T13:13:20Z</time>
      </trkpt>
      <trkpt lat="46.54916" lon="0.63556">
        <ele>90.524721424095</ele>
        <time>2021-11-17T13:13:22Z</time>
      </trkpt>
      <trkpt lat="46.54914" lon="0.63557">
        <ele>90.985291860998</ele>
        <time>2021-11-17T13:13:24Z</time>
      </trkpt>
      <trkpt lat="46.54911" lon="0.63558">
        <ele>90.940529557876</ele>
        <time>2021-11-17T13:13:26Z</time>
      </trkpt>
      <trkpt lat="46.54909" lon="0.63559">
        <ele>91.19840778131</ele>
        <time>2021-11-17T13:13:28Z</time>
      </trkpt>
      <trkpt lat="46.54906" lon="0.63559">
        <ele>91.658272548579</ele>
        <time>2021-11-17T13:13:30Z</time>
      </trkpt>
      <trkpt lat="46.54905" lon="0.6356">
        <ele>91.912656964734</ele>
        <time>2021-11-17T13:13:32Z</time>
      </trkpt>
      <trkpt lat="46.54902" lon="0.63562">
        <ele>92.145841028541</ele>
        <time>2021-11-17T13:13:34Z</time>
      </trkpt>
      <trkpt lat="46.549" lon="0.63562">
        <ele>92.423196275719</ele>
        <time>2021-11-17T13:13:36Z</time>
      </trkpt>
      <trkpt lat="46.54898" lon="0.63562">
        <ele>92.539914203808</ele>
        <time>2021-11-17T13:13:38Z</time>
      </trkpt>
      <trkpt lat="46.54896" lon="0.63563">
        <ele>93.008409886621</ele>
        <time>2021-11-17T13:13:40Z</time>
      </trkpt>
      <trkpt lat="46.54894" lon="0.63563">
        <ele>92.768039210699</ele>
        <time>2021-11-17T13:13:42Z</time>
      </trkpt>
      <trkpt lat="46.54892" lon="0.63564">
        <ele>93.098290679045</ele>
        <time>2021-11-17T13:13:44Z</time>
      </trkpt>
      <trkpt lat="46.5489" lon="0.63565">
        <ele>93.188742686994</ele>
        <time>2021-11-17T13:13:46Z</time>
      </trkpt>
      <trkpt lat="46.54888" lon="0.63566">
        <ele>93.299480775371</ele>
        <time>2021-11-17T13:13:48Z</time>
      </trkpt>
      <trkpt lat="46.54886" lon="0.63566">
        <ele>93.400742785074</ele>
        <time>2021-11-17T13:13:50Z</time>
      </trkpt>
      <trkpt lat="46.54884" lon="0.63566">
        <ele>93.563836620189</ele>
        <time>2021-11-17T13:13:52Z</time>
      </trkpt>
      <trkpt lat="46.54881" lon="0.63566">
        <ele>93.796282510273</ele>
        <time>2021-11-17T13:13:54Z</time>
      </trkpt>
      <trkpt lat="46.54878" lon="0.63566">
        <ele>93.878030218184</ele>
        <time>2021-11-17T13:13:56Z</time>
      </trkpt>
      <trkpt lat="46.54876" lon="0.63566">
        <ele>94.07588490285</ele>
        <time>2021-11-17T13:13:58Z</time>
      </trkpt>
      <trkpt lat="46.54874" lon="0.63567">
        <ele>94.052396319807</ele>
        <time>2021-11-17T13:14:00Z</time>
      </trkpt>
      <trkpt lat="46.54872" lon="0.63568">
        <ele>94.486726345494</ele>
        <time>2021-11-17T13:14:01Z</time>
      </trkpt>
      <trkpt lat="46.54869" lon="0.63569">
        <ele>94.222785359249</ele>
        <time>2021-11-17T13:14:03Z</time>
      </trkpt>
      <trkpt lat="46.54867" lon="0.63569">
        <ele>94.820514655672</ele>
        <time>2021-11-17T13:14:05Z</time>
      </trkpt>
      <trkpt lat="46.54865" lon="0.63569">
        <ele>94.570984106511</ele>
        <time>2021-11-17T13:14:07Z</time>
      </trkpt>
      <trkpt lat="46.54862" lon="0.6357">
        <ele>94.74443699792</ele>
        <time>2021-11-17T13:14:09Z</time>
      </trkpt>
      <trkpt lat="46.5486" lon="0.63571">
        <ele>95.409191505983</ele>
        <time>2021-11-17T13:14:11Z</time>
      </trkpt>
      <trkpt lat="46.54858" lon="0.63571">
        <ele>95.322699990124</ele>
        <time>2021-11-17T13:14:13Z</time>
      </trkpt>
      <trkpt lat="46.54855" lon="0.63571">
        <ele>95.823518184014</ele>
        <time>2021-11-17T13:14:16Z</time>
      </trkpt>
      <trkpt lat="46.54853" lon="0.63573">
        <ele>96.092199246399</ele>
        <time>2021-11-17T13:14:18Z</time>
      </trkpt>
      <trkpt lat="46.54851" lon="0.63573">
        <ele>96.184313083999</ele>
        <time>2021-11-17T13:14:21Z</time>
      </trkpt>
      <trkpt lat="46.54848" lon="0.63573">
        <ele>96.131086378358</ele>
        <time>2021-11-17T13:14:23Z</time>
      </trkpt>
      <trkpt lat="46.54846" lon="0.63574">
        <ele>96.159860033542</ele>
        <time>2021-11-17T13:14:25Z</time>
      </trkpt>
      <trkpt lat="46.54843" lon="0.63574">
        <ele>96.406046456657</ele>
        <time>2021-11-17T13:14:27Z</time>
      </trkpt>
      <trkpt lat="46.5484" lon="0.63575">
        <ele>96.472386446781</ele>
        <time>2021-11-17T13:14:29Z</time>
      </trkpt>
      <trkpt lat="46.54838" lon="0.63576">
        <ele>97.014529271983</ele>
        <time>2021-11-17T13:14:31Z</time>
      </trkpt>
      <trkpt lat="46.54836" lon="0.63576">
        <ele>96.658329956234</ele>
        <time>2021-11-17T13:14:33Z</time>
      </trkpt>
      <trkpt lat="46.54834" lon="0.63578">
        <ele>97.409166729078</ele>
        <time>2021-11-17T13:14:35Z</time>
      </trkpt>
      <trkpt lat="46.54831" lon="0.63578">
        <ele>97.837876714766</ele>
        <time>2021-11-17T13:14:38Z</time>
      </trkpt>
      <trkpt lat="46.54829" lon="0.63579">
        <ele>97.628302486613</ele>
        <time>2021-11-17T13:14:40Z</time>
      </trkpt>
      <trkpt lat="46.54826" lon="0.6358">
        <ele>97.613577916287</ele>
        <time>2021-11-17T13:14:42Z</time>
      </trkpt>
      <trkpt lat="46.54824" lon="0.6358">
        <ele>97.620216732845</ele>
        <time>2021-11-17T13:14:44Z</time>
      </trkpt>
      <trkpt lat="46.54822" lon="0.63581">
        <ele>97.521742200479</ele>
        <time>2021-11-17T13:14:46Z</time>
      </trkpt>
      <trkpt lat="46.5482" lon="0.63582">
        <ele>98.01672244072</ele>
        <time>2021-11-17T13:14:48Z</time>
      </trkpt>
      <trkpt lat="46.54817" lon="0.63582">
        <ele>97.990023384802</ele>
        <time>2021-11-17T13:14:50Z</time>
      </trkpt>
      <trkpt lat="46.54815" lon="0.63583">
        <ele>98.00039618928</ele>
        <time>2021-11-17T13:14:52Z</time>
      </trkpt>
      <trkpt lat="46.54813" lon="0.63583">
        <ele>98.30938995257</ele>
        <time>2021-11-17T13:14:54Z</time>
      </trkpt>
      <trkpt lat="46.5481" lon="0.63584">
        <ele>98.301595243625</ele>
        <time>2021-11-17T13:14:56Z</time>
      </trkpt>
      <trkpt lat="46.54808" lon="0.63583">
        <ele>98.726467762142</ele>
        <time>2021-11-17T13:14:58Z</time>
      </trkpt>
      <trkpt lat="46.54806" lon="0.63584">
        <ele>98.676099907607</ele>
        <time>2021-11-17T13:15:00Z</time>
      </trkpt>
      <trkpt lat="46.54804" lon="0.63584">
        <ele>98.70714319963</ele>
        <time>2021-11-17T13:15:02Z</time>
      </trkpt>
      <trkpt lat="46.54802" lon="0.63585">
        <ele>98.87207326293</ele>
        <time>2021-11-17T13:15:04Z</time>
      </trkpt>
      <trkpt lat="46.548" lon="0.63586">
        <ele>98.532424140722</ele>
        <time>2021-11-17T13:15:06Z</time>
      </trkpt>
      <trkpt lat="46.54798" lon="0.63587">
        <ele>98.940936341882</ele>
        <time>2021-11-17T13:15:08Z</time>
      </trkpt>
      <trkpt lat="46.54795" lon="0.63588">
        <ele>98.874499904923</ele>
        <time>2021-11-17T13:15:10Z</time>
      </trkpt>
      <trkpt lat="46.54793" lon="0.63589">
        <ele>99.171569701284</ele>
        <time>2021-11-17T13:15:12Z</time>
      </trkpt>
      <trkpt lat="46.5479" lon="0.63589">
        <ele>99.1216782704</ele>
        <time>2021-11-17T13:15:14Z</time>
      </trkpt>
      <trkpt lat="46.54788" lon="0.6359">
        <ele>99.042186114006</ele>
        <time>2021-11-17T13:15:16Z</time>
      </trkpt>
      <trkpt lat="46.54786" lon="0.6359">
        <ele>99.462818384171</ele>
        <time>2021-11-17T13:15:18Z</time>
      </trkpt>
      <trkpt lat="46.54783" lon="0.6359">
        <ele>99.459825504571</ele>
        <time>2021-11-17T13:15:20Z</time>
      </trkpt>
      <trkpt lat="46.5478" lon="0.6359">
        <ele>99.555661838502</ele>
        <time>2021-11-17T13:15:22Z</time>
      </trkpt>
      <trkpt lat="46.54778" lon="0.6359">
        <ele>99.766963452101</ele>
        <time>2021-11-17T13:15:24Z</time>
      </trkpt>
      <trkpt lat="46.54775" lon="0.6359">
        <ele>99.725359400734</ele>
        <time>2021-11-17T13:15:26Z</time>
      </trkpt>
      <trkpt lat="46.54773" lon="0.6359">
        <ele>99.552064886317</ele>
        <time>2021-11-17T13:15:28Z</time>
      </trkpt>
      <trkpt lat="46.54771" lon="0.63589">
        <ele>99.404336909764</ele>
        <time>2021-11-17T13:15:30Z</time>
      </trkpt>
      <trkpt lat="46.54767" lon="0.63589">
        <ele>99.243226497434</ele>
        <time>2021-11-17T13:15:32Z</time>
      </trkpt>
      <trkpt lat="46.54765" lon="0.63588">
        <ele>98.907524284907</ele>
        <time>2021-11-17T13:15:34Z</time>
      </trkpt>
      <trkpt lat="46.54762" lon="0.63587">
        <ele>99.07475192938</ele>
        <time>2021-11-17T13:15:36Z</time>
      </trkpt>
      <trkpt lat="46.5476" lon="0.63588">
        <ele>98.809246672317</ele>
        <time>2021-11-17T13:15:38Z</time>
      </trkpt>
      <trkpt lat="46.54758" lon="0.63587">
        <ele>98.45561831817</ele>
        <time>2021-11-17T13:15:40Z</time>
      </trkpt>
      <trkpt lat="46.54755" lon="0.63586">
        <ele>98.527168564498</ele>
        <time>2021-11-17T13:15:42Z</time>
      </trkpt>
      <trkpt lat="46.54752" lon="0.63586">
        <ele>98.752360000275</ele>
        <time>2021-11-17T13:15:44Z</time>
      </trkpt>
      <trkpt lat="46.5475" lon="0.63586">
        <ele>98.438210111111</ele>
        <time>2021-11-17T13:15:46Z</time>
      </trkpt>
      <trkpt lat="46.54747" lon="0.63586">
        <ele>97.816622971557</ele>
        <time>2021-11-17T13:15:48Z</time>
      </trkpt>
      <trkpt lat="46.54745" lon="0.63585">
        <ele>97.881074030884</ele>
        <time>2021-11-17T13:15:50Z</time>
      </trkpt>
      <trkpt lat="46.54742" lon="0.63585">
        <ele>97.934364396147</ele>
        <time>2021-11-17T13:15:52Z</time>
      </trkpt>
      <trkpt lat="46.54739" lon="0.63585">
        <ele>97.954399849288</ele>
        <time>2021-11-17T13:15:54Z</time>
      </trkpt>
      <trkpt lat="46.54736" lon="0.63585">
        <ele>97.55598641932</ele>
        <time>2021-11-17T13:15:56Z</time>
      </trkpt>
      <trkpt lat="46.54734" lon="0.63586">
        <ele>97.607860756107</ele>
        <time>2021-11-17T13:15:58Z</time>
      </trkpt>
      <trkpt lat="46.54732" lon="0.63586">
        <ele>97.326339934021</ele>
        <time>2021-11-17T13:16:00Z</time>
      </trkpt>
      <trkpt lat="46.5473" lon="0.63586">
        <ele>97.491743323393</ele>
        <time>2021-11-17T13:16:01Z</time>
      </trkpt>
      <trkpt lat="46.54728" lon="0.63586">
        <ele>97.531792096794</ele>
        <time>2021-11-17T13:16:02Z</time>
      </trkpt>
      <trkpt lat="46.54725" lon="0.63587">
        <ele>97.300018401816</ele>
        <time>2021-11-17T13:16:04Z</time>
      </trkpt>
      <trkpt lat="46.54723" lon="0.63588">
        <ele>97.506125775166</ele>
        <time>2021-11-17T13:16:06Z</time>
      </trkpt>
      <trkpt lat="46.5472" lon="0.63588">
        <ele>97.262539205141</ele>
        <time>2021-11-17T13:16:08Z</time>
      </trkpt>
      <trkpt lat="46.54718" lon="0.63589">
        <ele>97.669253472239</ele>
        <time>2021-11-17T13:16:10Z</time>
      </trkpt>
      <trkpt lat="46.54716" lon="0.63591">
        <ele>96.964035822079</ele>
        <time>2021-11-17T13:16:12Z</time>
      </trkpt>
      <trkpt lat="46.54714" lon="0.63592">
        <ele>96.842971044593</ele>
        <time>2021-11-17T13:16:14Z</time>
      </trkpt>
      <trkpt lat="46.54711" lon="0.63594">
        <ele>97.41570977401</ele>
        <time>2021-11-17T13:16:16Z</time>
      </trkpt>
      <trkpt lat="46.54709" lon="0.63595">
        <ele>97.107498945668</ele>
        <time>2021-11-17T13:16:18Z</time>
      </trkpt>
      <trkpt lat="46.54707" lon="0.63595">
        <ele>97.531579490751</ele>
        <time>2021-11-17T13:16:20Z</time>
      </trkpt>
      <trkpt lat="46.54704" lon="0.63597">
        <ele>97.299731364474</ele>
        <time>2021-11-17T13:16:23Z</time>
      </trkpt>
      <trkpt lat="46.54702" lon="0.63598">
        <ele>96.565893514082</ele>
        <time>2021-11-17T13:16:24Z</time>
      </trkpt>
      <trkpt lat="46.54701" lon="0.636">
        <ele>97.369659035467</ele>
        <time>2021-11-17T13:16:26Z</time>
      </trkpt>
      <trkpt lat="46.54698" lon="0.63602">
        <ele>97.382811149582</ele>
        <time>2021-11-17T13:16:28Z</time>
      </trkpt>
      <trkpt lat="46.54696" lon="0.63604">
        <ele>97.452999982052</ele>
        <time>2021-11-17T13:16:30Z</time>
      </trkpt>
      <trkpt lat="46.54693" lon="0.63605">
        <ele>97.994286812842</ele>
        <time>2021-11-17T13:16:32Z</time>
      </trkpt>
      <trkpt lat="46.54691" lon="0.63606">
        <ele>98.072318635881</ele>
        <time>2021-11-17T13:16:34Z</time>
      </trkpt>
      <trkpt lat="46.54688" lon="0.63608">
        <ele>98.045259541832</ele>
        <time>2021-11-17T13:16:36Z</time>
      </trkpt>
      <trkpt lat="46.54685" lon="0.6361">
        <ele>97.833105090074</ele>
        <time>2021-11-17T13:16:38Z</time>
      </trkpt>
      <trkpt lat="46.54683" lon="0.6361">
        <ele>98.002462936565</ele>
        <time>2021-11-17T13:16:40Z</time>
      </trkpt>
      <trkpt lat="46.54681" lon="0.63611">
        <ele>97.862382170744</ele>
        <time>2021-11-17T13:16:41Z</time>
      </trkpt>
      <trkpt lat="46.54679" lon="0.63611">
        <ele>98.167846119031</ele>
        <time>2021-11-17T13:16:44Z</time>
      </trkpt>
      <trkpt lat="46.54676" lon="0.63613">
        <ele>98.379693537019</ele>
        <time>2021-11-17T13:16:46Z</time>
      </trkpt>
      <trkpt lat="46.54674" lon="0.63614">
        <ele>98.634928165935</ele>
        <time>2021-11-17T13:16:48Z</time>
      </trkpt>
      <trkpt lat="46.54672" lon="0.63616">
        <ele>98.275585120544</ele>
        <time>2021-11-17T13:16:50Z</time>
      </trkpt>
      <trkpt lat="46.5467" lon="0.63617">
        <ele>98.675173747353</ele>
        <time>2021-11-17T13:16:52Z</time>
      </trkpt>
      <trkpt lat="46.54667" lon="0.63618">
        <ele>98.805618505925</ele>
        <time>2021-11-17T13:16:54Z</time>
      </trkpt>
      <trkpt lat="46.54664" lon="0.6362">
        <ele>98.383607074618</ele>
        <time>2021-11-17T13:16:56Z</time>
      </trkpt>
      <trkpt lat="46.54662" lon="0.63621">
        <ele>98.477127570659</ele>
        <time>2021-11-17T13:16:58Z</time>
      </trkpt>
      <trkpt lat="46.5466" lon="0.63623">
        <ele>98.528018818237</ele>
        <time>2021-11-17T13:17:00Z</time>
      </trkpt>
      <trkpt lat="46.54658" lon="0.63625">
        <ele>99.094338015653</ele>
        <time>2021-11-17T13:17:02Z</time>
      </trkpt>
      <trkpt lat="46.54655" lon="0.63627">
        <ele>98.839000536129</ele>
        <time>2021-11-17T13:17:04Z</time>
      </trkpt>
      <trkpt lat="46.54653" lon="0.63627">
        <ele>98.96363966167</ele>
        <time>2021-11-17T13:17:06Z</time>
      </trkpt>
      <trkpt lat="46.5465" lon="0.63628">
        <ele>98.985476664267</ele>
        <time>2021-11-17T13:17:08Z</time>
      </trkpt>
      <trkpt lat="46.54648" lon="0.6363">
        <ele>99.06757459417</ele>
        <time>2021-11-17T13:17:10Z</time>
      </trkpt>
      <trkpt lat="46.54645" lon="0.63631">
        <ele>98.903259188868</ele>
        <time>2021-11-17T13:17:12Z</time>
      </trkpt>
      <trkpt lat="46.54643" lon="0.63632">
        <ele>99.36228573136</ele>
        <time>2021-11-17T13:17:14Z</time>
      </trkpt>
      <trkpt lat="46.5464" lon="0.63633">
        <ele>99.290027183481</ele>
        <time>2021-11-17T13:17:16Z</time>
      </trkpt>
      <trkpt lat="46.54637" lon="0.63633">
        <ele>99.290860676207</ele>
        <time>2021-11-17T13:17:18Z</time>
      </trkpt>
      <trkpt lat="46.54634" lon="0.63634">
        <ele>98.707842790522</ele>
        <time>2021-11-17T13:17:20Z</time>
      </trkpt>
      <trkpt lat="46.54631" lon="0.63634">
        <ele>98.987215751782</ele>
        <time>2021-11-17T13:17:22Z</time>
      </trkpt>
      <trkpt lat="46.54629" lon="0.63636">
        <ele>98.889491867274</ele>
        <time>2021-11-17T13:17:24Z</time>
      </trkpt>
      <trkpt lat="46.54626" lon="0.63637">
        <ele>98.542187730782</ele>
        <time>2021-11-17T13:17:26Z</time>
      </trkpt>
      <trkpt lat="46.54624" lon="0.63638">
        <ele>98.478128942661</ele>
        <time>2021-11-17T13:17:28Z</time>
      </trkpt>
      <trkpt lat="46.54621" lon="0.63639">
        <ele>98.648228323087</ele>
        <time>2021-11-17T13:17:30Z</time>
      </trkpt>
      <trkpt lat="46.54619" lon="0.63641">
        <ele>98.996978425421</ele>
        <time>2021-11-17T13:17:32Z</time>
      </trkpt>
      <trkpt lat="46.54616" lon="0.63642">
        <ele>99.064261787571</ele>
        <time>2021-11-17T13:17:34Z</time>
      </trkpt>
      <trkpt lat="46.54614" lon="0.63643">
        <ele>98.419766919687</ele>
        <time>2021-11-17T13:17:36Z</time>
      </trkpt>
      <trkpt lat="46.54612" lon="0.63644">
        <ele>98.732870988548</ele>
        <time>2021-11-17T13:17:38Z</time>
      </trkpt>
      <trkpt lat="46.54609" lon="0.63645">
        <ele>98.589787008241</ele>
        <time>2021-11-17T13:17:40Z</time>
      </trkpt>
      <trkpt lat="46.54606" lon="0.63645">
        <ele>98.680311660282</ele>
        <time>2021-11-17T13:17:42Z</time>
      </trkpt>
      <trkpt lat="46.54604" lon="0.63646">
        <ele>98.154723997228</ele>
        <time>2021-11-17T13:17:44Z</time>
      </trkpt>
      <trkpt lat="46.54601" lon="0.63647">
        <ele>97.954481012188</ele>
        <time>2021-11-17T13:17:46Z</time>
      </trkpt>
      <trkpt lat="46.54598" lon="0.63647">
        <ele>97.687330434099</ele>
        <time>2021-11-17T13:17:48Z</time>
      </trkpt>
      <trkpt lat="46.54596" lon="0.63648">
        <ele>97.704431960359</ele>
        <time>2021-11-17T13:17:50Z</time>
      </trkpt>
      <trkpt lat="46.54593" lon="0.63649">
        <ele>97.576840748079</ele>
        <time>2021-11-17T13:17:52Z</time>
      </trkpt>
      <trkpt lat="46.54591" lon="0.6365">
        <ele>97.668272905052</ele>
        <time>2021-11-17T13:17:54Z</time>
      </trkpt>
      <trkpt lat="46.54588" lon="0.63652">
        <ele>97.486778325401</ele>
        <time>2021-11-17T13:17:56Z</time>
      </trkpt>
      <trkpt lat="46.54586" lon="0.63652">
        <ele>97.997048306279</ele>
        <time>2021-11-17T13:17:58Z</time>
      </trkpt>
      <trkpt lat="46.54585" lon="0.63654">
        <ele>97.473538180813</ele>
        <time>2021-11-17T13:18:00Z</time>
      </trkpt>
      <trkpt lat="46.54582" lon="0.63656">
        <ele>97.422880293801</ele>
        <time>2021-11-17T13:18:02Z</time>
      </trkpt>
      <trkpt lat="46.5458" lon="0.63657">
        <ele>97.836636994965</ele>
        <time>2021-11-17T13:18:04Z</time>
      </trkpt>
      <trkpt lat="46.54578" lon="0.63659">
        <ele>98.112762601115</ele>
        <time>2021-11-17T13:18:06Z</time>
      </trkpt>
      <trkpt lat="46.54576" lon="0.63663">
        <ele>98.5226300871</ele>
        <time>2021-11-17T13:18:08Z</time>
      </trkpt>
      <trkpt lat="46.54574" lon="0.63664">
        <ele>98.745387603529</ele>
        <time>2021-11-17T13:18:10Z</time>
      </trkpt>
      <trkpt lat="46.54572" lon="0.63666">
        <ele>98.655282216147</ele>
        <time>2021-11-17T13:18:12Z</time>
      </trkpt>
      <trkpt lat="46.5457" lon="0.63669">
        <ele>99.181491089053</ele>
        <time>2021-11-17T13:18:14Z</time>
      </trkpt>
      <trkpt lat="46.54567" lon="0.63671">
        <ele>99.624846083112</ele>
        <time>2021-11-17T13:18:16Z</time>
      </trkpt>
      <trkpt lat="46.54566" lon="0.63673">
        <ele>99.483447949402</ele>
        <time>2021-11-17T13:18:18Z</time>
      </trkpt>
      <trkpt lat="46.54563" lon="0.63674">
        <ele>99.759636600502</ele>
        <time>2021-11-17T13:18:20Z</time>
      </trkpt>
      <trkpt lat="46.54561" lon="0.63677">
        <ele>100.09465005342</ele>
        <time>2021-11-17T13:18:22Z</time>
      </trkpt>
      <trkpt lat="46.54559" lon="0.63679">
        <ele>100.45860124007</ele>
        <time>2021-11-17T13:18:24Z</time>
      </trkpt>
      <trkpt lat="46.54557" lon="0.63681">
        <ele>100.88197841682</ele>
        <time>2021-11-17T13:18:26Z</time>
      </trkpt>
      <trkpt lat="46.54554" lon="0.63683">
        <ele>100.91982380021</ele>
        <time>2021-11-17T13:18:28Z</time>
      </trkpt>
      <trkpt lat="46.54552" lon="0.63685">
        <ele>101.41936196666</ele>
        <time>2021-11-17T13:18:30Z</time>
      </trkpt>
      <trkpt lat="46.54549" lon="0.63687">
        <ele>101.24067821726</ele>
        <time>2021-11-17T13:18:32Z</time>
      </trkpt>
      <trkpt lat="46.54547" lon="0.63688">
        <ele>101.32311720308</ele>
        <time>2021-11-17T13:18:33Z</time>
      </trkpt>
      <trkpt lat="46.54545" lon="0.63689">
        <ele>101.78934953827</ele>
        <time>2021-11-17T13:18:35Z</time>
      </trkpt>
      <trkpt lat="46.54543" lon="0.6369">
        <ele>102.20084347297</ele>
        <time>2021-11-17T13:18:37Z</time>
      </trkpt>
      <trkpt lat="46.54541" lon="0.63691">
        <ele>102.14340572711</ele>
        <time>2021-11-17T13:18:38Z</time>
      </trkpt>
      <trkpt lat="46.54538" lon="0.63692">
        <ele>102.36557117943</ele>
        <time>2021-11-17T13:18:40Z</time>
      </trkpt>
      <trkpt lat="46.54535" lon="0.63692">
        <ele>102.48375054263</ele>
        <time>2021-11-17T13:18:42Z</time>
      </trkpt>
      <trkpt lat="46.54533" lon="0.63692">
        <ele>102.49326819461</ele>
        <time>2021-11-17T13:18:44Z</time>
      </trkpt>
      <trkpt lat="46.54531" lon="0.63692">
        <ele>102.6605589129</ele>
        <time>2021-11-17T13:18:46Z</time>
      </trkpt>
      <trkpt lat="46.54528" lon="0.63691">
        <ele>102.6139562102</ele>
        <time>2021-11-17T13:18:48Z</time>
      </trkpt>
      <trkpt lat="46.54525" lon="0.6369">
        <ele>102.37685094588</ele>
        <time>2021-11-17T13:18:50Z</time>
      </trkpt>
      <trkpt lat="46.54524" lon="0.63691">
        <ele>102.36257862113</ele>
        <time>2021-11-17T13:18:52Z</time>
      </trkpt>
      <trkpt lat="46.54522" lon="0.63691">
        <ele>102.38051284477</ele>
        <time>2021-11-17T13:18:54Z</time>
      </trkpt>
      <trkpt lat="46.54519" lon="0.63691">
        <ele>102.52389225084</ele>
        <time>2021-11-17T13:18:56Z</time>
      </trkpt>
      <trkpt lat="46.54517" lon="0.63691">
        <ele>102.5386528438</ele>
        <time>2021-11-17T13:18:58Z</time>
      </trkpt>
      <trkpt lat="46.54515" lon="0.63692">
        <ele>102.34757930879</ele>
        <time>2021-11-17T13:19:00Z</time>
      </trkpt>
      <trkpt lat="46.54513" lon="0.63692">
        <ele>102.22874645609</ele>
        <time>2021-11-17T13:19:02Z</time>
      </trkpt>
      <trkpt lat="46.54511" lon="0.63693">
        <ele>102.58163823746</ele>
        <time>2021-11-17T13:19:04Z</time>
      </trkpt>
      <trkpt lat="46.54508" lon="0.63692">
        <ele>102.52788649965</ele>
        <time>2021-11-17T13:19:06Z</time>
      </trkpt>
      <trkpt lat="46.54505" lon="0.63692">
        <ele>102.62443405576</ele>
        <time>2021-11-17T13:19:08Z</time>
      </trkpt>
      <trkpt lat="46.54502" lon="0.63692">
        <ele>102.48223901447</ele>
        <time>2021-11-17T13:19:10Z</time>
      </trkpt>
      <trkpt lat="46.545" lon="0.63692">
        <ele>102.20307631791</ele>
        <time>2021-11-17T13:19:12Z</time>
      </trkpt>
      <trkpt lat="46.54498" lon="0.63691">
        <ele>102.43799868971</ele>
        <time>2021-11-17T13:19:14Z</time>
      </trkpt>
      <trkpt lat="46.54496" lon="0.63691">
        <ele>102.37147820648</ele>
        <time>2021-11-17T13:19:16Z</time>
      </trkpt>
      <trkpt lat="46.54493" lon="0.6369">
        <ele>102.23744454607</ele>
        <time>2021-11-17T13:19:18Z</time>
      </trkpt>
      <trkpt lat="46.54491" lon="0.6369">
        <ele>101.85196754988</ele>
        <time>2021-11-17T13:19:20Z</time>
      </trkpt>
      <trkpt lat="46.54488" lon="0.63689">
        <ele>102.22885736357</ele>
        <time>2021-11-17T13:19:22Z</time>
      </trkpt>
      <trkpt lat="46.54486" lon="0.63689">
        <ele>101.6107937796</ele>
        <time>2021-11-17T13:19:24Z</time>
      </trkpt>
      <trkpt lat="46.54483" lon="0.63688">
        <ele>101.91277845949</ele>
        <time>2021-11-17T13:19:26Z</time>
      </trkpt>
      <trkpt lat="46.54481" lon="0.63687">
        <ele>101.33044160251</ele>
        <time>2021-11-17T13:19:28Z</time>
      </trkpt>
      <trkpt lat="46.54478" lon="0.63686">
        <ele>100.93221376184</ele>
        <time>2021-11-17T13:19:30Z</time>
      </trkpt>
      <trkpt lat="46.54476" lon="0.63686">
        <ele>100.70562351122</ele>
        <time>2021-11-17T13:19:32Z</time>
      </trkpt>
      <trkpt lat="46.54473" lon="0.63687">
        <ele>100.62885486241</ele>
        <time>2021-11-17T13:19:34Z</time>
      </trkpt>
      <trkpt lat="46.54471" lon="0.63687">
        <ele>100.40186012071</ele>
        <time>2021-11-17T13:19:36Z</time>
      </trkpt>
      <trkpt lat="46.54468" lon="0.63688">
        <ele>100.09672337957</ele>
        <time>2021-11-17T13:19:38Z</time>
      </trkpt>
      <trkpt lat="46.54465" lon="0.63688">
        <ele>100.05705004837</ele>
        <time>2021-11-17T13:19:40Z</time>
      </trkpt>
      <trkpt lat="46.54463" lon="0.63688">
        <ele>100.13051688485</ele>
        <time>2021-11-17T13:19:42Z</time>
      </trkpt>
      <trkpt lat="46.5446" lon="0.63689">
        <ele>100.18787690997</ele>
        <time>2021-11-17T13:19:44Z</time>
      </trkpt>
      <trkpt lat="46.54458" lon="0.6369">
        <ele>100.46322377212</ele>
        <time>2021-11-17T13:19:46Z</time>
      </trkpt>
      <trkpt lat="46.54455" lon="0.63691">
        <ele>100.53835424315</ele>
        <time>2021-11-17T13:19:48Z</time>
      </trkpt>
      <trkpt lat="46.54453" lon="0.63693">
        <ele>100.46467940323</ele>
        <time>2021-11-17T13:19:49Z</time>
      </trkpt>
      <trkpt lat="46.5445" lon="0.63693">
        <ele>101.30044976063</ele>
        <time>2021-11-17T13:19:51Z</time>
      </trkpt>
      <trkpt lat="46.54448" lon="0.63695">
        <ele>101.49502799101</ele>
        <time>2021-11-17T13:19:53Z</time>
      </trkpt>
      <trkpt lat="46.54445" lon="0.63695">
        <ele>101.66699010879</ele>
        <time>2021-11-17T13:19:55Z</time>
      </trkpt>
      <trkpt lat="46.54444" lon="0.63697">
        <ele>101.48066370189</ele>
        <time>2021-11-17T13:19:56Z</time>
      </trkpt>
      <trkpt lat="46.54441" lon="0.63698">
        <ele>102.0656252671</ele>
        <time>2021-11-17T13:19:58Z</time>
      </trkpt>
      <trkpt lat="46.54438" lon="0.637">
        <ele>102.41767668352</ele>
        <time>2021-11-17T13:20:00Z</time>
      </trkpt>
      <trkpt lat="46.54435" lon="0.63702">
        <ele>102.76049237233</ele>
        <time>2021-11-17T13:20:02Z</time>
      </trkpt>
      <trkpt lat="46.54433" lon="0.63703">
        <ele>103.11408881843</ele>
        <time>2021-11-17T13:20:04Z</time>
      </trkpt>
      <trkpt lat="46.5443" lon="0.63705">
        <ele>102.93816030491</ele>
        <time>2021-11-17T13:20:06Z</time>
      </trkpt>
      <trkpt lat="46.54427" lon="0.63706">
        <ele>103.38103628438</ele>
        <time>2021-11-17T13:20:08Z</time>
      </trkpt>
      <trkpt lat="46.54425" lon="0.63708">
        <ele>103.70944508072</ele>
        <time>2021-11-17T13:20:10Z</time>
      </trkpt>
      <trkpt lat="46.54423" lon="0.63708">
        <ele>104.03144149948</ele>
        <time>2021-11-17T13:20:12Z</time>
      </trkpt>
      <trkpt lat="46.5442" lon="0.63709">
        <ele>104.17027051281</ele>
        <time>2021-11-17T13:20:14Z</time>
      </trkpt>
      <trkpt lat="46.54418" lon="0.63708">
        <ele>104.60600469541</ele>
        <time>2021-11-17T13:20:16Z</time>
      </trkpt>
      <trkpt lat="46.54415" lon="0.63708">
        <ele>103.89595731068</ele>
        <time>2021-11-17T13:20:18Z</time>
      </trkpt>
      <trkpt lat="46.54413" lon="0.63707">
        <ele>104.22861131281</ele>
        <time>2021-11-17T13:20:20Z</time>
      </trkpt>
      <trkpt lat="46.5441" lon="0.63708">
        <ele>104.2872613715</ele>
        <time>2021-11-17T13:20:22Z</time>
      </trkpt>
      <trkpt lat="46.54408" lon="0.63708">
        <ele>104.08297776803</ele>
        <time>2021-11-17T13:20:24Z</time>
      </trkpt>
      <trkpt lat="46.54405" lon="0.63706">
        <ele>104.16326248553</ele>
        <time>2021-11-17T13:20:26Z</time>
      </trkpt>
      <trkpt lat="46.54403" lon="0.63706">
        <ele>103.68356750533</ele>
        <time>2021-11-17T13:20:28Z</time>
      </trkpt>
      <trkpt lat="46.544" lon="0.63706">
        <ele>103.13427900709</ele>
        <time>2021-11-17T13:20:30Z</time>
      </trkpt>
      <trkpt lat="46.54397" lon="0.63705">
        <ele>103.42536182702</ele>
        <time>2021-11-17T13:20:32Z</time>
      </trkpt>
      <trkpt lat="46.54395" lon="0.63705">
        <ele>103.47292589303</ele>
        <time>2021-11-17T13:20:34Z</time>
      </trkpt>
      <trkpt lat="46.54392" lon="0.63705">
        <ele>103.31625473313</ele>
        <time>2021-11-17T13:20:36Z</time>
      </trkpt>
      <trkpt lat="46.5439" lon="0.63706">
        <ele>102.8803223297</ele>
        <time>2021-11-17T13:20:38Z</time>
      </trkpt>
      <trkpt lat="46.54388" lon="0.63705">
        <ele>103.06393481139</ele>
        <time>2021-11-17T13:20:40Z</time>
      </trkpt>
      <trkpt lat="46.54386" lon="0.63706">
        <ele>102.94778896216</ele>
        <time>2021-11-17T13:20:42Z</time>
      </trkpt>
      <trkpt lat="46.54383" lon="0.63707">
        <ele>102.61617077515</ele>
        <time>2021-11-17T13:20:44Z</time>
      </trkpt>
      <trkpt lat="46.54381" lon="0.63709">
        <ele>102.60591743421</ele>
        <time>2021-11-17T13:20:46Z</time>
      </trkpt>
      <trkpt lat="46.54379" lon="0.6371">
        <ele>102.42244483531</ele>
        <time>2021-11-17T13:20:48Z</time>
      </trkpt>
      <trkpt lat="46.54377" lon="0.63711">
        <ele>102.31162611023</ele>
        <time>2021-11-17T13:20:50Z</time>
      </trkpt>
      <trkpt lat="46.54375" lon="0.63712">
        <ele>102.45182956383</ele>
        <time>2021-11-17T13:20:52Z</time>
      </trkpt>
      <trkpt lat="46.54373" lon="0.63713">
        <ele>102.67735441588</ele>
        <time>2021-11-17T13:20:55Z</time>
      </trkpt>
      <trkpt lat="46.54371" lon="0.63714">
        <ele>102.63188278675</ele>
        <time>2021-11-17T13:20:57Z</time>
      </trkpt>
      <trkpt lat="46.54369" lon="0.63715">
        <ele>102.83599351626</ele>
        <time>2021-11-17T13:20:59Z</time>
      </trkpt>
      <trkpt lat="46.54367" lon="0.63714">
        <ele>103.11170345638</ele>
        <time>2021-11-17T13:21:14Z</time>
      </trkpt>
      <trkpt lat="46.54367" lon="0.63711">
        <ele>102.33623848017</ele>
        <time>2021-11-17T13:21:17Z</time>
      </trkpt>
      <trkpt lat="46.54366" lon="0.63714">
        <ele>101.08747335151</ele>
        <time>2021-11-17T13:21:31Z</time>
      </trkpt>
      <trkpt lat="46.54366" lon="0.63709">
        <ele>101.58387640491</ele>
        <time>2021-11-17T13:21:37Z</time>
      </trkpt>
      <trkpt lat="46.54364" lon="0.63711">
        <ele>102.01811960153</ele>
        <time>2021-11-17T13:21:42Z</time>
      </trkpt>
      <trkpt lat="46.54364" lon="0.63714">
        <ele>101.21462287661</ele>
        <time>2021-11-17T13:21:55Z</time>
      </trkpt>
      <trkpt lat="46.54366" lon="0.63717">
        <ele>102.09857413732</ele>
        <time>2021-11-17T13:21:58Z</time>
      </trkpt>
      <trkpt lat="46.54366" lon="0.6372">
        <ele>102.76649573725</ele>
        <time>2021-11-17T13:22:02Z</time>
      </trkpt>
      <trkpt lat="46.54363" lon="0.63723">
        <ele>104.25929259323</ele>
        <time>2021-11-17T13:22:05Z</time>
      </trkpt>
      <trkpt lat="46.54361" lon="0.63723">
        <ele>104.83863935526</ele>
        <time>2021-11-17T13:22:07Z</time>
      </trkpt>
      <trkpt lat="46.54359" lon="0.63725">
        <ele>104.70892861858</ele>
        <time>2021-11-17T13:22:09Z</time>
      </trkpt>
      <trkpt lat="46.54357" lon="0.63726">
        <ele>104.95412398875</ele>
        <time>2021-11-17T13:22:11Z</time>
      </trkpt>
      <trkpt lat="46.54355" lon="0.63728">
        <ele>104.79150946252</ele>
        <time>2021-11-17T13:22:13Z</time>
      </trkpt>
      <trkpt lat="46.54354" lon="0.63729">
        <ele>104.74398215581</ele>
        <time>2021-11-17T13:22:15Z</time>
      </trkpt>
      <trkpt lat="46.54351" lon="0.63731">
        <ele>104.17295733467</ele>
        <time>2021-11-17T13:22:17Z</time>
      </trkpt>
      <trkpt lat="46.5435" lon="0.63733">
        <ele>104.05523651838</ele>
        <time>2021-11-17T13:22:18Z</time>
      </trkpt>
      <trkpt lat="46.54348" lon="0.63734">
        <ele>103.70048455708</ele>
        <time>2021-11-17T13:22:20Z</time>
      </trkpt>
      <trkpt lat="46.54346" lon="0.63737">
        <ele>103.7700271057</ele>
        <time>2021-11-17T13:22:22Z</time>
      </trkpt>
      <trkpt lat="46.54344" lon="0.63739">
        <ele>103.52656143159</ele>
        <time>2021-11-17T13:22:24Z</time>
      </trkpt>
      <trkpt lat="46.54342" lon="0.6374">
        <ele>103.18319015764</ele>
        <time>2021-11-17T13:22:26Z</time>
      </trkpt>
      <trkpt lat="46.5434" lon="0.63742">
        <ele>103.27890657913</ele>
        <time>2021-11-17T13:22:28Z</time>
      </trkpt>
      <trkpt lat="46.54338" lon="0.63743">
        <ele>103.32159280311</ele>
        <time>2021-11-17T13:22:30Z</time>
      </trkpt>
      <trkpt lat="46.54335" lon="0.63744">
        <ele>103.25660119485</ele>
        <time>2021-11-17T13:22:32Z</time>
      </trkpt>
      <trkpt lat="46.54332" lon="0.63747">
        <ele>103.09942007065</ele>
        <time>2021-11-17T13:22:34Z</time>
      </trkpt>
      <trkpt lat="46.5433" lon="0.63748">
        <ele>103.09100446291</ele>
        <time>2021-11-17T13:22:36Z</time>
      </trkpt>
      <trkpt lat="46.54328" lon="0.63749">
        <ele>102.89264154434</ele>
        <time>2021-11-17T13:22:38Z</time>
      </trkpt>
      <trkpt lat="46.54326" lon="0.63751">
        <ele>102.48811589368</ele>
        <time>2021-11-17T13:22:40Z</time>
      </trkpt>
      <trkpt lat="46.54324" lon="0.63753">
        <ele>102.58129449468</ele>
        <time>2021-11-17T13:22:42Z</time>
      </trkpt>
      <trkpt lat="46.54321" lon="0.63756">
        <ele>102.40505793784</ele>
        <time>2021-11-17T13:22:44Z</time>
      </trkpt>
      <trkpt lat="46.54319" lon="0.63759">
        <ele>102.53630989231</ele>
        <time>2021-11-17T13:22:46Z</time>
      </trkpt>
      <trkpt lat="46.54317" lon="0.63761">
        <ele>102.21529245283</ele>
        <time>2021-11-17T13:22:48Z</time>
      </trkpt>
      <trkpt lat="46.54315" lon="0.63763">
        <ele>102.51843438577</ele>
        <time>2021-11-17T13:22:50Z</time>
      </trkpt>
      <trkpt lat="46.54312" lon="0.63765">
        <ele>102.27018448804</ele>
        <time>2021-11-17T13:22:52Z</time>
      </trkpt>
      <trkpt lat="46.5431" lon="0.63767">
        <ele>102.62534727715</ele>
        <time>2021-11-17T13:22:53Z</time>
      </trkpt>
      <trkpt lat="46.54309" lon="0.63769">
        <ele>102.55128393136</ele>
        <time>2021-11-17T13:22:55Z</time>
      </trkpt>
      <trkpt lat="46.54307" lon="0.63772">
        <ele>102.75342758931</ele>
        <time>2021-11-17T13:22:57Z</time>
      </trkpt>
      <trkpt lat="46.54305" lon="0.63774">
        <ele>103.68723020423</ele>
        <time>2021-11-17T13:22:59Z</time>
      </trkpt>
      <trkpt lat="46.54302" lon="0.63776">
        <ele>103.25929016806</ele>
        <time>2021-11-17T13:23:01Z</time>
      </trkpt>
      <trkpt lat="46.543" lon="0.63778">
        <ele>104.12930556107</ele>
        <time>2021-11-17T13:23:03Z</time>
      </trkpt>
      <trkpt lat="46.54298" lon="0.63782">
        <ele>103.8730245959</ele>
        <time>2021-11-17T13:23:05Z</time>
      </trkpt>
      <trkpt lat="46.54296" lon="0.63784">
        <ele>104.18817280512</ele>
        <time>2021-11-17T13:23:07Z</time>
      </trkpt>
      <trkpt lat="46.54294" lon="0.63787">
        <ele>103.97147766221</ele>
        <time>2021-11-17T13:23:09Z</time>
      </trkpt>
      <trkpt lat="46.54292" lon="0.63789">
        <ele>104.07768092025</ele>
        <time>2021-11-17T13:23:11Z</time>
      </trkpt>
      <trkpt lat="46.5429" lon="0.63791">
        <ele>104.34045210388</ele>
        <time>2021-11-17T13:23:13Z</time>
      </trkpt>
      <trkpt lat="46.54288" lon="0.63794">
        <ele>104.10017025005</ele>
        <time>2021-11-17T13:23:15Z</time>
      </trkpt>
      <trkpt lat="46.54286" lon="0.63796">
        <ele>104.22421645932</ele>
        <time>2021-11-17T13:23:17Z</time>
      </trkpt>
      <trkpt lat="46.54285" lon="0.63798">
        <ele>104.21154289227</ele>
        <time>2021-11-17T13:23:18Z</time>
      </trkpt>
      <trkpt lat="46.54283" lon="0.63799">
        <ele>104.36560466979</ele>
        <time>2021-11-17T13:23:20Z</time>
      </trkpt>
      <trkpt lat="46.54281" lon="0.63801">
        <ele>104.59415650368</ele>
        <time>2021-11-17T13:23:22Z</time>
      </trkpt>
      <trkpt lat="46.54279" lon="0.63803">
        <ele>104.78462332673</ele>
        <time>2021-11-17T13:23:24Z</time>
      </trkpt>
      <trkpt lat="46.54277" lon="0.63804">
        <ele>105.01009453088</ele>
        <time>2021-11-17T13:23:26Z</time>
      </trkpt>
      <trkpt lat="46.54275" lon="0.63806">
        <ele>104.42956754193</ele>
        <time>2021-11-17T13:23:28Z</time>
      </trkpt>
      <trkpt lat="46.54273" lon="0.63809">
        <ele>104.95282135438</ele>
        <time>2021-11-17T13:23:30Z</time>
      </trkpt>
      <trkpt lat="46.54271" lon="0.63812">
        <ele>104.64749876317</ele>
        <time>2021-11-17T13:23:32Z</time>
      </trkpt>
      <trkpt lat="46.54269" lon="0.63814">
        <ele>104.44858521782</ele>
        <time>2021-11-17T13:23:34Z</time>
      </trkpt>
      <trkpt lat="46.54266" lon="0.63817">
        <ele>104.00924674794</ele>
        <time>2021-11-17T13:23:36Z</time>
      </trkpt>
      <trkpt lat="46.54264" lon="0.63818">
        <ele>103.97858773638</ele>
        <time>2021-11-17T13:23:38Z</time>
      </trkpt>
      <trkpt lat="46.54261" lon="0.63822">
        <ele>103.6610650057</ele>
        <time>2021-11-17T13:23:40Z</time>
      </trkpt>
      <trkpt lat="46.54259" lon="0.63825">
        <ele>103.67047388945</ele>
        <time>2021-11-17T13:23:42Z</time>
      </trkpt>
      <trkpt lat="46.54257" lon="0.63826">
        <ele>103.45098228473</ele>
        <time>2021-11-17T13:23:44Z</time>
      </trkpt>
      <trkpt lat="46.54255" lon="0.6383">
        <ele>103.25397455599</ele>
        <time>2021-11-17T13:23:47Z</time>
      </trkpt>
      <trkpt lat="46.54253" lon="0.63833">
        <ele>103.61958321743</ele>
        <time>2021-11-17T13:23:49Z</time>
      </trkpt>
      <trkpt lat="46.5425" lon="0.63836">
        <ele>103.60461215768</ele>
        <time>2021-11-17T13:23:51Z</time>
      </trkpt>
      <trkpt lat="46.54248" lon="0.63839">
        <ele>103.41260821</ele>
        <time>2021-11-17T13:23:53Z</time>
      </trkpt>
      <trkpt lat="46.54246" lon="0.63841">
        <ele>103.33454631176</ele>
        <time>2021-11-17T13:23:55Z</time>
      </trkpt>
      <trkpt lat="46.54244" lon="0.63844">
        <ele>103.32941068616</ele>
        <time>2021-11-17T13:23:57Z</time>
      </trkpt>
      <trkpt lat="46.54242" lon="0.63847">
        <ele>102.98914489616</ele>
        <time>2021-11-17T13:23:59Z</time>
      </trkpt>
      <trkpt lat="46.54239" lon="0.6385">
        <ele>103.06871833187</ele>
        <time>2021-11-17T13:24:01Z</time>
      </trkpt>
      <trkpt lat="46.54237" lon="0.63853">
        <ele>103.12603816204</ele>
        <time>2021-11-17T13:24:03Z</time>
      </trkpt>
      <trkpt lat="46.54235" lon="0.63856">
        <ele>102.91165969521</ele>
        <time>2021-11-17T13:24:05Z</time>
      </trkpt>
      <trkpt lat="46.54233" lon="0.63858">
        <ele>103.15549295954</ele>
        <time>2021-11-17T13:24:07Z</time>
      </trkpt>
      <trkpt lat="46.54231" lon="0.63861">
        <ele>102.82092055213</ele>
        <time>2021-11-17T13:24:09Z</time>
      </trkpt>
      <trkpt lat="46.54228" lon="0.63864">
        <ele>103.0773839457</ele>
        <time>2021-11-17T13:24:11Z</time>
      </trkpt>
      <trkpt lat="46.54226" lon="0.63867">
        <ele>103.07422501314</ele>
        <time>2021-11-17T13:24:13Z</time>
      </trkpt>
      <trkpt lat="46.54224" lon="0.63869">
        <ele>102.88341459818</ele>
        <time>2021-11-17T13:24:15Z</time>
      </trkpt>
      <trkpt lat="46.54222" lon="0.63872">
        <ele>102.87437734567</ele>
        <time>2021-11-17T13:24:17Z</time>
      </trkpt>
      <trkpt lat="46.54221" lon="0.63874">
        <ele>103.20151290204</ele>
        <time>2021-11-17T13:24:19Z</time>
      </trkpt>
      <trkpt lat="46.54218" lon="0.63876">
        <ele>102.76045166794</ele>
        <time>2021-11-17T13:24:21Z</time>
      </trkpt>
      <trkpt lat="46.54215" lon="0.63878">
        <ele>102.78181894589</ele>
        <time>2021-11-17T13:24:23Z</time>
      </trkpt>
      <trkpt lat="46.54214" lon="0.63881">
        <ele>103.02162390482</ele>
        <time>2021-11-17T13:24:25Z</time>
      </trkpt>
      <trkpt lat="46.54212" lon="0.63884">
        <ele>102.64573416952</ele>
        <time>2021-11-17T13:24:27Z</time>
      </trkpt>
      <trkpt lat="46.5421" lon="0.63886">
        <ele>102.79128212482</ele>
        <time>2021-11-17T13:24:29Z</time>
      </trkpt>
      <trkpt lat="46.54208" lon="0.6389">
        <ele>102.81575092301</ele>
        <time>2021-11-17T13:24:31Z</time>
      </trkpt>
      <trkpt lat="46.54207" lon="0.63894">
        <ele>102.9421094507</ele>
        <time>2021-11-17T13:24:33Z</time>
      </trkpt>
      <trkpt lat="46.54205" lon="0.63896">
        <ele>103.01477048267</ele>
        <time>2021-11-17T13:24:35Z</time>
      </trkpt>
      <trkpt lat="46.54203" lon="0.63899">
        <ele>103.1211811211</ele>
        <time>2021-11-17T13:24:37Z</time>
      </trkpt>
      <trkpt lat="46.54202" lon="0.63901">
        <ele>103.26087712403</ele>
        <time>2021-11-17T13:24:39Z</time>
      </trkpt>
      <trkpt lat="46.542" lon="0.63905">
        <ele>103.07098167296</ele>
        <time>2021-11-17T13:24:41Z</time>
      </trkpt>
      <trkpt lat="46.54198" lon="0.63907">
        <ele>103.20519057661</ele>
        <time>2021-11-17T13:24:43Z</time>
      </trkpt>
      <trkpt lat="46.54197" lon="0.63909">
        <ele>103.14306977671</ele>
        <time>2021-11-17T13:24:44Z</time>
      </trkpt>
      <trkpt lat="46.54195" lon="0.63911">
        <ele>103.41575567983</ele>
        <time>2021-11-17T13:24:46Z</time>
      </trkpt>
      <trkpt lat="46.54193" lon="0.63914">
        <ele>103.51361128967</ele>
        <time>2021-11-17T13:24:48Z</time>
      </trkpt>
      <trkpt lat="46.54191" lon="0.63917">
        <ele>103.66548206471</ele>
        <time>2021-11-17T13:24:50Z</time>
      </trkpt>
      <trkpt lat="46.54189" lon="0.63919">
        <ele>103.59396376181</ele>
        <time>2021-11-17T13:24:51Z</time>
      </trkpt>
      <trkpt lat="46.54187" lon="0.63922">
        <ele>103.42383613437</ele>
        <time>2021-11-17T13:24:53Z</time>
      </trkpt>
      <trkpt lat="46.54185" lon="0.63924">
        <ele>103.4467673786</ele>
        <time>2021-11-17T13:24:55Z</time>
      </trkpt>
      <trkpt lat="46.54184" lon="0.63927">
        <ele>103.38231379911</ele>
        <time>2021-11-17T13:24:57Z</time>
      </trkpt>
      <trkpt lat="46.54182" lon="0.6393">
        <ele>103.24447946344</ele>
        <time>2021-11-17T13:24:59Z</time>
      </trkpt>
      <trkpt lat="46.54179" lon="0.63933">
        <ele>102.63217774127</ele>
        <time>2021-11-17T13:25:01Z</time>
      </trkpt>
      <trkpt lat="46.54177" lon="0.63936">
        <ele>102.79773075692</ele>
        <time>2021-11-17T13:25:03Z</time>
      </trkpt>
      <trkpt lat="46.54175" lon="0.63938">
        <ele>102.75400061533</ele>
        <time>2021-11-17T13:25:06Z</time>
      </trkpt>
      <trkpt lat="46.54174" lon="0.63941">
        <ele>102.7529007839</ele>
        <time>2021-11-17T13:25:07Z</time>
      </trkpt>
      <trkpt lat="46.54172" lon="0.63943">
        <ele>102.92419602349</ele>
        <time>2021-11-17T13:25:09Z</time>
      </trkpt>
      <trkpt lat="46.5417" lon="0.63946">
        <ele>103.30619504303</ele>
        <time>2021-11-17T13:25:11Z</time>
      </trkpt>
      <trkpt lat="46.54168" lon="0.6395">
        <ele>103.0850092601</ele>
        <time>2021-11-17T13:25:13Z</time>
      </trkpt>
      <trkpt lat="46.54166" lon="0.63951">
        <ele>103.64849709067</ele>
        <time>2021-11-17T13:25:15Z</time>
      </trkpt>
      <trkpt lat="46.54164" lon="0.63954">
        <ele>103.11113820504</ele>
        <time>2021-11-17T13:25:17Z</time>
      </trkpt>
      <trkpt lat="46.54161" lon="0.63956">
        <ele>103.24274586793</ele>
        <time>2021-11-17T13:25:19Z</time>
      </trkpt>
      <trkpt lat="46.54159" lon="0.63958">
        <ele>103.04700486828</ele>
        <time>2021-11-17T13:25:21Z</time>
      </trkpt>
      <trkpt lat="46.54156" lon="0.63961">
        <ele>102.96176207718</ele>
        <time>2021-11-17T13:25:23Z</time>
      </trkpt>
      <trkpt lat="46.54154" lon="0.63963">
        <ele>103.02500242647</ele>
        <time>2021-11-17T13:25:25Z</time>
      </trkpt>
      <trkpt lat="46.54151" lon="0.63965">
        <ele>102.55966978706</ele>
        <time>2021-11-17T13:25:27Z</time>
      </trkpt>
      <trkpt lat="46.54149" lon="0.63965">
        <ele>102.62259149551</ele>
        <time>2021-11-17T13:25:28Z</time>
      </trkpt>
      <trkpt lat="46.54147" lon="0.63967">
        <ele>102.5573552018</ele>
        <time>2021-11-17T13:25:30Z</time>
      </trkpt>
      <trkpt lat="46.54145" lon="0.63968">
        <ele>102.21486726031</ele>
        <time>2021-11-17T13:25:32Z</time>
      </trkpt>
      <trkpt lat="46.54142" lon="0.6397">
        <ele>102.17809187993</ele>
        <time>2021-11-17T13:25:34Z</time>
      </trkpt>
      <trkpt lat="46.5414" lon="0.63972">
        <ele>102.11087973788</ele>
        <time>2021-11-17T13:25:36Z</time>
      </trkpt>
      <trkpt lat="46.54137" lon="0.63974">
        <ele>102.05625934433</ele>
        <time>2021-11-17T13:25:38Z</time>
      </trkpt>
      <trkpt lat="46.54135" lon="0.63976">
        <ele>101.82261634339</ele>
        <time>2021-11-17T13:25:40Z</time>
      </trkpt>
      <trkpt lat="46.54132" lon="0.63977">
        <ele>101.86491922755</ele>
        <time>2021-11-17T13:25:42Z</time>
      </trkpt>
      <trkpt lat="46.5413" lon="0.63979">
        <ele>101.38939218875</ele>
        <time>2021-11-17T13:25:43Z</time>
      </trkpt>
      <trkpt lat="46.54128" lon="0.63982">
        <ele>101.1538945511</ele>
        <time>2021-11-17T13:25:45Z</time>
      </trkpt>
      <trkpt lat="46.54126" lon="0.63984">
        <ele>100.72443543468</ele>
        <time>2021-11-17T13:25:47Z</time>
      </trkpt>
      <trkpt lat="46.54124" lon="0.63986">
        <ele>100.20805060305</ele>
        <time>2021-11-17T13:25:49Z</time>
      </trkpt>
      <trkpt lat="46.54122" lon="0.63988">
        <ele>100.04644635972</ele>
        <time>2021-11-17T13:25:51Z</time>
      </trkpt>
      <trkpt lat="46.5412" lon="0.6399">
        <ele>99.625034704804</ele>
        <time>2021-11-17T13:25:53Z</time>
      </trkpt>
      <trkpt lat="46.54118" lon="0.63992">
        <ele>99.669145001099</ele>
        <time>2021-11-17T13:25:55Z</time>
      </trkpt>
      <trkpt lat="46.54116" lon="0.63995">
        <ele>99.492542437278</ele>
        <time>2021-11-17T13:25:57Z</time>
      </trkpt>
      <trkpt lat="46.54114" lon="0.63996">
        <ele>99.187263464555</ele>
        <time>2021-11-17T13:25:59Z</time>
      </trkpt>
      <trkpt lat="46.54112" lon="0.63998">
        <ele>98.617330406792</ele>
        <time>2021-11-17T13:26:02Z</time>
      </trkpt>
      <trkpt lat="46.5411" lon="0.64001">
        <ele>98.751675006934</ele>
        <time>2021-11-17T13:26:04Z</time>
      </trkpt>
      <trkpt lat="46.54108" lon="0.64003">
        <ele>98.847365382127</ele>
        <time>2021-11-17T13:26:06Z</time>
      </trkpt>
      <trkpt lat="46.54107" lon="0.64006">
        <ele>99.173266332597</ele>
        <time>2021-11-17T13:26:08Z</time>
      </trkpt>
      <trkpt lat="46.54105" lon="0.64009">
        <ele>99.159457637928</ele>
        <time>2021-11-17T13:26:10Z</time>
      </trkpt>
      <trkpt lat="46.54103" lon="0.64011">
        <ele>99.225600995123</ele>
        <time>2021-11-17T13:26:12Z</time>
      </trkpt>
      <trkpt lat="46.54101" lon="0.64013">
        <ele>99.356262199581</ele>
        <time>2021-11-17T13:26:13Z</time>
      </trkpt>
      <trkpt lat="46.54099" lon="0.64014">
        <ele>99.350874933414</ele>
        <time>2021-11-17T13:26:15Z</time>
      </trkpt>
      <trkpt lat="46.54097" lon="0.64016">
        <ele>99.351809377782</ele>
        <time>2021-11-17T13:26:18Z</time>
      </trkpt>
      <trkpt lat="46.54095" lon="0.64016">
        <ele>99.589910889044</ele>
        <time>2021-11-17T13:26:21Z</time>
      </trkpt>
      <trkpt lat="46.54093" lon="0.64017">
        <ele>99.731057239696</ele>
        <time>2021-11-17T13:26:24Z</time>
      </trkpt>
      <trkpt lat="46.54091" lon="0.64017">
        <ele>99.656821569428</ele>
        <time>2021-11-17T13:26:27Z</time>
      </trkpt>
      <trkpt lat="46.54089" lon="0.64017">
        <ele>99.480727151968</ele>
        <time>2021-11-17T13:26:29Z</time>
      </trkpt>
      <trkpt lat="46.54086" lon="0.64016">
        <ele>99.494003602304</ele>
        <time>2021-11-17T13:26:32Z</time>
      </trkpt>
      <trkpt lat="46.54084" lon="0.64015">
        <ele>99.798352476209</ele>
        <time>2021-11-17T13:26:35Z</time>
      </trkpt>
      <trkpt lat="46.54082" lon="0.64014">
        <ele>99.401675849222</ele>
        <time>2021-11-17T13:26:38Z</time>
      </trkpt>
      <trkpt lat="46.54079" lon="0.64013">
        <ele>99.662952422164</ele>
        <time>2021-11-17T13:26:41Z</time>
      </trkpt>
      <trkpt lat="46.54078" lon="0.64011">
        <ele>99.702665037476</ele>
        <time>2021-11-17T13:26:43Z</time>
      </trkpt>
      <trkpt lat="46.54076" lon="0.6401">
        <ele>99.652499765158</ele>
        <time>2021-11-17T13:26:45Z</time>
      </trkpt>
      <trkpt lat="46.54074" lon="0.64008">
        <ele>99.500067215413</ele>
        <time>2021-11-17T13:26:48Z</time>
      </trkpt>
      <trkpt lat="46.54072" lon="0.64006">
        <ele>99.239986503497</ele>
        <time>2021-11-17T13:26:51Z</time>
      </trkpt>
      <trkpt lat="46.5407" lon="0.64004">
        <ele>99.534156385809</ele>
        <time>2021-11-17T13:26:53Z</time>
      </trkpt>
      <trkpt lat="46.54067" lon="0.64003">
        <ele>98.978124515153</ele>
        <time>2021-11-17T13:26:56Z</time>
      </trkpt>
      <trkpt lat="46.54065" lon="0.64002">
        <ele>98.958488119766</ele>
        <time>2021-11-17T13:26:59Z</time>
      </trkpt>
      <trkpt lat="46.54063" lon="0.64001">
        <ele>98.764275940135</ele>
        <time>2021-11-17T13:27:01Z</time>
      </trkpt>
      <trkpt lat="46.5406" lon="0.64001">
        <ele>98.304244412109</ele>
        <time>2021-11-17T13:27:04Z</time>
      </trkpt>
      <trkpt lat="46.54057" lon="0.64001">
        <ele>98.524830774404</ele>
        <time>2021-11-17T13:27:07Z</time>
      </trkpt>
      <trkpt lat="46.54053" lon="0.64001">
        <ele>98.48455697298</ele>
        <time>2021-11-17T13:27:10Z</time>
      </trkpt>
      <trkpt lat="46.54051" lon="0.64001">
        <ele>98.987142203376</ele>
        <time>2021-11-17T13:27:12Z</time>
      </trkpt>
      <trkpt lat="46.54048" lon="0.64001">
        <ele>98.713126932271</ele>
        <time>2021-11-17T13:27:14Z</time>
      </trkpt>
      <trkpt lat="46.54046" lon="0.64002">
        <ele>98.970347279683</ele>
        <time>2021-11-17T13:27:16Z</time>
      </trkpt>
      <trkpt lat="46.54044" lon="0.64003">
        <ele>98.772291825153</ele>
        <time>2021-11-17T13:27:18Z</time>
      </trkpt>
      <trkpt lat="46.54041" lon="0.64003">
        <ele>98.982614637353</ele>
        <time>2021-11-17T13:27:20Z</time>
      </trkpt>
      <trkpt lat="46.54039" lon="0.64004">
        <ele>99.584688057192</ele>
        <time>2021-11-17T13:27:22Z</time>
      </trkpt>
      <trkpt lat="46.54037" lon="0.64005">
        <ele>99.340156886727</ele>
        <time>2021-11-17T13:27:24Z</time>
      </trkpt>
      <trkpt lat="46.54035" lon="0.64006">
        <ele>99.776376884431</ele>
        <time>2021-11-17T13:27:26Z</time>
      </trkpt>
      <trkpt lat="46.54032" lon="0.64007">
        <ele>100.16442337725</ele>
        <time>2021-11-17T13:27:28Z</time>
      </trkpt>
      <trkpt lat="46.54029" lon="0.64008">
        <ele>100.51132660452</ele>
        <time>2021-11-17T13:27:30Z</time>
      </trkpt>
      <trkpt lat="46.54026" lon="0.64009">
        <ele>100.57279842906</ele>
        <time>2021-11-17T13:27:32Z</time>
      </trkpt>
      <trkpt lat="46.54024" lon="0.6401">
        <ele>100.59725279547</ele>
        <time>2021-11-17T13:27:34Z</time>
      </trkpt>
      <trkpt lat="46.54022" lon="0.64012">
        <ele>100.51855827682</ele>
        <time>2021-11-17T13:27:36Z</time>
      </trkpt>
      <trkpt lat="46.54021" lon="0.64014">
        <ele>100.59111780766</ele>
        <time>2021-11-17T13:27:38Z</time>
      </trkpt>
      <trkpt lat="46.54019" lon="0.64016">
        <ele>100.76400522236</ele>
        <time>2021-11-17T13:27:40Z</time>
      </trkpt>
      <trkpt lat="46.54017" lon="0.64018">
        <ele>101.05416320916</ele>
        <time>2021-11-17T13:27:42Z</time>
      </trkpt>
      <trkpt lat="46.54015" lon="0.6402">
        <ele>101.13827951066</ele>
        <time>2021-11-17T13:27:44Z</time>
      </trkpt>
      <trkpt lat="46.54013" lon="0.64023">
        <ele>101.36992368381</ele>
        <time>2021-11-17T13:27:46Z</time>
      </trkpt>
      <trkpt lat="46.54012" lon="0.64025">
        <ele>101.34013317805</ele>
        <time>2021-11-17T13:27:48Z</time>
      </trkpt>
      <trkpt lat="46.5401" lon="0.64028">
        <ele>101.65659820102</ele>
        <time>2021-11-17T13:27:50Z</time>
      </trkpt>
      <trkpt lat="46.54009" lon="0.64031">
        <ele>102.22480316181</ele>
        <time>2021-11-17T13:27:52Z</time>
      </trkpt>
      <trkpt lat="46.54008" lon="0.64035">
        <ele>102.60226178821</ele>
        <time>2021-11-17T13:27:54Z</time>
      </trkpt>
      <trkpt lat="46.54006" lon="0.64039">
        <ele>102.96547982097</ele>
        <time>2021-11-17T13:27:57Z</time>
      </trkpt>
      <trkpt lat="46.54005" lon="0.64042">
        <ele>102.92433973216</ele>
        <time>2021-11-17T13:27:59Z</time>
      </trkpt>
      <trkpt lat="46.54005" lon="0.64045">
        <ele>103.51586124208</ele>
        <time>2021-11-17T13:28:01Z</time>
      </trkpt>
      <trkpt lat="46.54005" lon="0.64048">
        <ele>103.60734381992</ele>
        <time>2021-11-17T13:28:03Z</time>
      </trkpt>
      <trkpt lat="46.54004" lon="0.64052">
        <ele>103.85525269527</ele>
        <time>2021-11-17T13:28:05Z</time>
      </trkpt>
      <trkpt lat="46.54004" lon="0.64055">
        <ele>103.83740921784</ele>
        <time>2021-11-17T13:28:07Z</time>
      </trkpt>
      <trkpt lat="46.54004" lon="0.64058">
        <ele>104.57297579572</ele>
        <time>2021-11-17T13:28:09Z</time>
      </trkpt>
      <trkpt lat="46.54004" lon="0.64062">
        <ele>104.25604151562</ele>
        <time>2021-11-17T13:28:11Z</time>
      </trkpt>
      <trkpt lat="46.54003" lon="0.64065">
        <ele>104.97216342669</ele>
        <time>2021-11-17T13:28:13Z</time>
      </trkpt>
      <trkpt lat="46.54002" lon="0.64068">
        <ele>104.70303735882</ele>
        <time>2021-11-17T13:28:15Z</time>
      </trkpt>
      <trkpt lat="46.54001" lon="0.6407">
        <ele>105.13421032391</ele>
        <time>2021-11-17T13:28:17Z</time>
      </trkpt>
      <trkpt lat="46.53999" lon="0.64073">
        <ele>105.29195721261</ele>
        <time>2021-11-17T13:28:19Z</time>
      </trkpt>
      <trkpt lat="46.53997" lon="0.64073">
        <ele>105.24507620465</ele>
        <time>2021-11-17T13:28:21Z</time>
      </trkpt>
      <trkpt lat="46.53995" lon="0.64075">
        <ele>105.55640290957</ele>
        <time>2021-11-17T13:28:23Z</time>
      </trkpt>
      <trkpt lat="46.53992" lon="0.64076">
        <ele>106.02127872407</ele>
        <time>2021-11-17T13:28:25Z</time>
      </trkpt>
      <trkpt lat="46.5399" lon="0.64078">
        <ele>106.01885017753</ele>
        <time>2021-11-17T13:28:27Z</time>
      </trkpt>
      <trkpt lat="46.53988" lon="0.64079">
        <ele>105.86298013944</ele>
        <time>2021-11-17T13:28:29Z</time>
      </trkpt>
      <trkpt lat="46.53986" lon="0.6408">
        <ele>106.39046503045</ele>
        <time>2021-11-17T13:28:31Z</time>
      </trkpt>
      <trkpt lat="46.53983" lon="0.64081">
        <ele>106.27676632348</ele>
        <time>2021-11-17T13:28:33Z</time>
      </trkpt>
      <trkpt lat="46.53981" lon="0.64082">
        <ele>107.04534301255</ele>
        <time>2021-11-17T13:28:35Z</time>
      </trkpt>
      <trkpt lat="46.53979" lon="0.64082">
        <ele>106.79024221376</ele>
        <time>2021-11-17T13:28:37Z</time>
      </trkpt>
      <trkpt lat="46.53976" lon="0.64083">
        <ele>106.67225434911</ele>
        <time>2021-11-17T13:28:39Z</time>
      </trkpt>
      <trkpt lat="46.53974" lon="0.64083">
        <ele>107.3810186889</ele>
        <time>2021-11-17T13:28:41Z</time>
      </trkpt>
      <trkpt lat="46.53972" lon="0.64085">
        <ele>107.19704920612</ele>
        <time>2021-11-17T13:28:43Z</time>
      </trkpt>
      <trkpt lat="46.53969" lon="0.64086">
        <ele>107.54020045046</ele>
        <time>2021-11-17T13:28:45Z</time>
      </trkpt>
      <trkpt lat="46.53967" lon="0.64086">
        <ele>107.55324447714</ele>
        <time>2021-11-17T13:28:47Z</time>
      </trkpt>
      <trkpt lat="46.53965" lon="0.64087">
        <ele>107.82610444352</ele>
        <time>2021-11-17T13:28:49Z</time>
      </trkpt>
      <trkpt lat="46.53963" lon="0.64089">
        <ele>107.60210444406</ele>
        <time>2021-11-17T13:28:51Z</time>
      </trkpt>
      <trkpt lat="46.5396" lon="0.6409">
        <ele>107.88092755806</ele>
        <time>2021-11-17T13:28:53Z</time>
      </trkpt>
      <trkpt lat="46.53958" lon="0.64091">
        <ele>107.54137781635</ele>
        <time>2021-11-17T13:28:55Z</time>
      </trkpt>
      <trkpt lat="46.53956" lon="0.64093">
        <ele>107.82880713418</ele>
        <time>2021-11-17T13:28:57Z</time>
      </trkpt>
      <trkpt lat="46.53955" lon="0.64094">
        <ele>107.86273729336</ele>
        <time>2021-11-17T13:28:58Z</time>
      </trkpt>
      <trkpt lat="46.53953" lon="0.64097">
        <ele>108.08051738702</ele>
        <time>2021-11-17T13:29:00Z</time>
      </trkpt>
      <trkpt lat="46.53953" lon="0.641">
        <ele>107.90190985985</ele>
        <time>2021-11-17T13:29:02Z</time>
      </trkpt>
      <trkpt lat="46.53953" lon="0.64104">
        <ele>107.78171060886</ele>
        <time>2021-11-17T13:29:04Z</time>
      </trkpt>
      <trkpt lat="46.53954" lon="0.64108">
        <ele>107.85768281016</ele>
        <time>2021-11-17T13:29:06Z</time>
      </trkpt>
      <trkpt lat="46.53955" lon="0.64111">
        <ele>108.22266810201</ele>
        <time>2021-11-17T13:29:08Z</time>
      </trkpt>
      <trkpt lat="46.53955" lon="0.64115">
        <ele>108.12487305328</ele>
        <time>2021-11-17T13:29:10Z</time>
      </trkpt>
      <trkpt lat="46.53955" lon="0.64118">
        <ele>108.68662882131</ele>
        <time>2021-11-17T13:29:12Z</time>
      </trkpt>
      <trkpt lat="46.53956" lon="0.64122">
        <ele>108.34033646807</ele>
        <time>2021-11-17T13:29:14Z</time>
      </trkpt>
      <trkpt lat="46.53956" lon="0.64126">
        <ele>108.41022650246</ele>
        <time>2021-11-17T13:29:16Z</time>
      </trkpt>
      <trkpt lat="46.53956" lon="0.64129">
        <ele>108.26762078237</ele>
        <time>2021-11-17T13:29:18Z</time>
      </trkpt>
      <trkpt lat="46.53957" lon="0.64133">
        <ele>108.64575666655</ele>
        <time>2021-11-17T13:29:20Z</time>
      </trkpt>
      <trkpt lat="46.53957" lon="0.64136">
        <ele>108.17018671893</ele>
        <time>2021-11-17T13:29:22Z</time>
      </trkpt>
      <trkpt lat="46.53958" lon="0.64139">
        <ele>108.47107347567</ele>
        <time>2021-11-17T13:29:24Z</time>
      </trkpt>
      <trkpt lat="46.53959" lon="0.64143">
        <ele>108.68703463208</ele>
        <time>2021-11-17T13:29:26Z</time>
      </trkpt>
      <trkpt lat="46.5396" lon="0.64146">
        <ele>108.4896473838</ele>
        <time>2021-11-17T13:29:28Z</time>
      </trkpt>
      <trkpt lat="46.53961" lon="0.6415">
        <ele>108.30541060958</ele>
        <time>2021-11-17T13:29:30Z</time>
      </trkpt>
      <trkpt lat="46.53961" lon="0.64154">
        <ele>108.2260895418</ele>
        <time>2021-11-17T13:29:32Z</time>
      </trkpt>
      <trkpt lat="46.53962" lon="0.64157">
        <ele>108.46975890826</ele>
        <time>2021-11-17T13:29:34Z</time>
      </trkpt>
      <trkpt lat="46.53963" lon="0.64161">
        <ele>108.26303150691</ele>
        <time>2021-11-17T13:29:36Z</time>
      </trkpt>
      <trkpt lat="46.53963" lon="0.64165">
        <ele>108.5472792834</ele>
        <time>2021-11-17T13:29:38Z</time>
      </trkpt>
      <trkpt lat="46.53963" lon="0.64169">
        <ele>108.68043725286</ele>
        <time>2021-11-17T13:29:40Z</time>
      </trkpt>
      <trkpt lat="46.53964" lon="0.64172">
        <ele>108.35642223619</ele>
        <time>2021-11-17T13:29:42Z</time>
      </trkpt>
      <trkpt lat="46.53965" lon="0.64175">
        <ele>108.2967434302</ele>
        <time>2021-11-17T13:29:44Z</time>
      </trkpt>
      <trkpt lat="46.53966" lon="0.64179">
        <ele>108.14470065664</ele>
        <time>2021-11-17T13:29:46Z</time>
      </trkpt>
      <trkpt lat="46.53966" lon="0.64182">
        <ele>107.97339426167</ele>
        <time>2021-11-17T13:29:48Z</time>
      </trkpt>
      <trkpt lat="46.53967" lon="0.64185">
        <ele>108.09934829548</ele>
        <time>2021-11-17T13:29:50Z</time>
      </trkpt>
      <trkpt lat="46.53968" lon="0.64188">
        <ele>108.07303581946</ele>
        <time>2021-11-17T13:29:52Z</time>
      </trkpt>
      <trkpt lat="46.53969" lon="0.64192">
        <ele>107.75477623288</ele>
        <time>2021-11-17T13:29:54Z</time>
      </trkpt>
      <trkpt lat="46.5397" lon="0.64195">
        <ele>107.38048170321</ele>
        <time>2021-11-17T13:29:56Z</time>
      </trkpt>
      <trkpt lat="46.53971" lon="0.64199">
        <ele>107.44664096646</ele>
        <time>2021-11-17T13:29:58Z</time>
      </trkpt>
      <trkpt lat="46.53972" lon="0.64202">
        <ele>107.65449706744</ele>
        <time>2021-11-17T13:30:00Z</time>
      </trkpt>
      <trkpt lat="46.53973" lon="0.64205">
        <ele>107.49083834793</ele>
        <time>2021-11-17T13:30:02Z</time>
      </trkpt>
      <trkpt lat="46.53974" lon="0.64209">
        <ele>107.19879477751</ele>
        <time>2021-11-17T13:30:04Z</time>
      </trkpt>
      <trkpt lat="46.53975" lon="0.64212">
        <ele>107.0847287681</ele>
        <time>2021-11-17T13:30:06Z</time>
      </trkpt>
      <trkpt lat="46.53975" lon="0.64215">
        <ele>107.11696309317</ele>
        <time>2021-11-17T13:30:08Z</time>
      </trkpt>
      <trkpt lat="46.53976" lon="0.64218">
        <ele>107.08907204308</ele>
        <time>2021-11-17T13:30:10Z</time>
      </trkpt>
      <trkpt lat="46.53977" lon="0.64222">
        <ele>106.54561484605</ele>
        <time>2021-11-17T13:30:12Z</time>
      </trkpt>
      <trkpt lat="46.53978" lon="0.64225">
        <ele>106.57268365566</ele>
        <time>2021-11-17T13:30:14Z</time>
      </trkpt>
      <trkpt lat="46.53979" lon="0.64228">
        <ele>106.71790929604</ele>
        <time>2021-11-17T13:30:16Z</time>
      </trkpt>
      <trkpt lat="46.5398" lon="0.64232">
        <ele>106.55195568874</ele>
        <time>2021-11-17T13:30:18Z</time>
      </trkpt>
      <trkpt lat="46.5398" lon="0.64236">
        <ele>106.37517306581</ele>
        <time>2021-11-17T13:30:20Z</time>
      </trkpt>
      <trkpt lat="46.53981" lon="0.6424">
        <ele>105.96801608894</ele>
        <time>2021-11-17T13:30:22Z</time>
      </trkpt>
      <trkpt lat="46.53982" lon="0.64244">
        <ele>106.29197353311</ele>
        <time>2021-11-17T13:30:24Z</time>
      </trkpt>
      <trkpt lat="46.53983" lon="0.64247">
        <ele>106.52253376413</ele>
        <time>2021-11-17T13:30:26Z</time>
      </trkpt>
      <trkpt lat="46.53984" lon="0.6425">
        <ele>106.47479252703</ele>
        <time>2021-11-17T13:30:28Z</time>
      </trkpt>
      <trkpt lat="46.53985" lon="0.64255">
        <ele>106.42384742294</ele>
        <time>2021-11-17T13:30:30Z</time>
      </trkpt>
      <trkpt lat="46.53986" lon="0.64259">
        <ele>106.38468668982</ele>
        <time>2021-11-17T13:30:33Z</time>
      </trkpt>
      <trkpt lat="46.53987" lon="0.64263">
        <ele>106.35037001967</ele>
        <time>2021-11-17T13:30:35Z</time>
      </trkpt>
      <trkpt lat="46.53988" lon="0.64267">
        <ele>106.11274954397</ele>
        <time>2021-11-17T13:30:37Z</time>
      </trkpt>
      <trkpt lat="46.53989" lon="0.64271">
        <ele>106.20536619984</ele>
        <time>2021-11-17T13:30:39Z</time>
      </trkpt>
      <trkpt lat="46.5399" lon="0.64275">
        <ele>106.16640529875</ele>
        <time>2021-11-17T13:30:41Z</time>
      </trkpt>
      <trkpt lat="46.53991" lon="0.64278">
        <ele>106.27775049955</ele>
        <time>2021-11-17T13:30:43Z</time>
      </trkpt>
      <trkpt lat="46.53991" lon="0.64281">
        <ele>106.11926906928</ele>
        <time>2021-11-17T13:30:45Z</time>
      </trkpt>
      <trkpt lat="46.53993" lon="0.64285">
        <ele>106.61260208115</ele>
        <time>2021-11-17T13:30:47Z</time>
      </trkpt>
      <trkpt lat="46.53993" lon="0.64288">
        <ele>106.2774240924</ele>
        <time>2021-11-17T13:30:49Z</time>
      </trkpt>
      <trkpt lat="46.53994" lon="0.64291">
        <ele>106.14640440606</ele>
        <time>2021-11-17T13:30:51Z</time>
      </trkpt>
      <trkpt lat="46.53995" lon="0.64295">
        <ele>106.39637232665</ele>
        <time>2021-11-17T13:30:53Z</time>
      </trkpt>
      <trkpt lat="46.53996" lon="0.64298">
        <ele>106.65920234658</ele>
        <time>2021-11-17T13:30:55Z</time>
      </trkpt>
      <trkpt lat="46.53997" lon="0.64301">
        <ele>106.31231393106</ele>
        <time>2021-11-17T13:30:57Z</time>
      </trkpt>
      <trkpt lat="46.53997" lon="0.64304">
        <ele>106.19846819434</ele>
        <time>2021-11-17T13:30:59Z</time>
      </trkpt>
      <trkpt lat="46.53998" lon="0.64307">
        <ele>106.04928898439</ele>
        <time>2021-11-17T13:31:01Z</time>
      </trkpt>
      <trkpt lat="46.54" lon="0.64311">
        <ele>106.39309752639</ele>
        <time>2021-11-17T13:31:03Z</time>
      </trkpt>
      <trkpt lat="46.54001" lon="0.64315">
        <ele>106.16534045525</ele>
        <time>2021-11-17T13:31:05Z</time>
      </trkpt>
      <trkpt lat="46.54001" lon="0.64319">
        <ele>106.10863871034</ele>
        <time>2021-11-17T13:31:07Z</time>
      </trkpt>
      <trkpt lat="46.54002" lon="0.64322">
        <ele>106.04466834664</ele>
        <time>2021-11-17T13:31:09Z</time>
      </trkpt>
      <trkpt lat="46.54003" lon="0.64326">
        <ele>106.22822739463</ele>
        <time>2021-11-17T13:31:11Z</time>
      </trkpt>
      <trkpt lat="46.54005" lon="0.64329">
        <ele>106.19026034325</ele>
        <time>2021-11-17T13:31:13Z</time>
      </trkpt>
      <trkpt lat="46.54006" lon="0.64333">
        <ele>105.77530097309</ele>
        <time>2021-11-17T13:31:15Z</time>
      </trkpt>
      <trkpt lat="46.54006" lon="0.64336">
        <ele>105.54990658909</ele>
        <time>2021-11-17T13:31:17Z</time>
      </trkpt>
      <trkpt lat="46.54007" lon="0.64339">
        <ele>105.50557758193</ele>
        <time>2021-11-17T13:31:19Z</time>
      </trkpt>
      <trkpt lat="46.54008" lon="0.64344">
        <ele>105.34392043576</ele>
        <time>2021-11-17T13:31:21Z</time>
      </trkpt>
      <trkpt lat="46.54009" lon="0.64347">
        <ele>105.42821866181</ele>
        <time>2021-11-17T13:31:23Z</time>
      </trkpt>
      <trkpt lat="46.54009" lon="0.6435">
        <ele>105.43071334064</ele>
        <time>2021-11-17T13:31:25Z</time>
      </trkpt>
      <trkpt lat="46.5401" lon="0.64354">
        <ele>105.40042202082</ele>
        <time>2021-11-17T13:31:27Z</time>
      </trkpt>
      <trkpt lat="46.54011" lon="0.64357">
        <ele>105.46221749205</ele>
        <time>2021-11-17T13:31:29Z</time>
      </trkpt>
      <trkpt lat="46.54013" lon="0.6436">
        <ele>105.46660852246</ele>
        <time>2021-11-17T13:31:31Z</time>
      </trkpt>
      <trkpt lat="46.54013" lon="0.64364">
        <ele>104.93275671825</ele>
        <time>2021-11-17T13:31:33Z</time>
      </trkpt>
      <trkpt lat="46.54014" lon="0.64366">
        <ele>104.8357126452</ele>
        <time>2021-11-17T13:31:34Z</time>
      </trkpt>
      <trkpt lat="46.54015" lon="0.6437">
        <ele>105.1936270399</ele>
        <time>2021-11-17T13:31:36Z</time>
      </trkpt>
      <trkpt lat="46.54016" lon="0.64374">
        <ele>105.45903037488</ele>
        <time>2021-11-17T13:31:38Z</time>
      </trkpt>
      <trkpt lat="46.54017" lon="0.64378">
        <ele>105.65189345554</ele>
        <time>2021-11-17T13:31:40Z</time>
      </trkpt>
      <trkpt lat="46.54018" lon="0.64382">
        <ele>105.60929624364</ele>
        <time>2021-11-17T13:31:42Z</time>
      </trkpt>
      <trkpt lat="46.54019" lon="0.64384">
        <ele>105.40534669999</ele>
        <time>2021-11-17T13:31:44Z</time>
      </trkpt>
      <trkpt lat="46.5402" lon="0.64388">
        <ele>105.46109556314</ele>
        <time>2021-11-17T13:31:46Z</time>
      </trkpt>
      <trkpt lat="46.54021" lon="0.64391">
        <ele>105.60533817206</ele>
        <time>2021-11-17T13:31:48Z</time>
      </trkpt>
      <trkpt lat="46.54022" lon="0.64394">
        <ele>105.38930441905</ele>
        <time>2021-11-17T13:31:50Z</time>
      </trkpt>
      <trkpt lat="46.54024" lon="0.64397">
        <ele>105.24649297725</ele>
        <time>2021-11-17T13:31:52Z</time>
      </trkpt>
      <trkpt lat="46.54025" lon="0.644">
        <ele>105.80863333307</ele>
        <time>2021-11-17T13:31:54Z</time>
      </trkpt>
      <trkpt lat="46.54027" lon="0.64403">
        <ele>105.84149106871</ele>
        <time>2021-11-17T13:31:56Z</time>
      </trkpt>
      <trkpt lat="46.54029" lon="0.64405">
        <ele>105.58640808146</ele>
        <time>2021-11-17T13:31:58Z</time>
      </trkpt>
      <trkpt lat="46.54032" lon="0.64407">
        <ele>105.25948562473</ele>
        <time>2021-11-17T13:32:00Z</time>
      </trkpt>
      <trkpt lat="46.54034" lon="0.64409">
        <ele>105.59448020626</ele>
        <time>2021-11-17T13:32:02Z</time>
      </trkpt>
      <trkpt lat="46.54036" lon="0.6441">
        <ele>105.56811986864</ele>
        <time>2021-11-17T13:32:04Z</time>
      </trkpt>
      <trkpt lat="46.54038" lon="0.64413">
        <ele>105.4634655118</ele>
        <time>2021-11-17T13:32:06Z</time>
      </trkpt>
      <trkpt lat="46.54039" lon="0.64416">
        <ele>105.37523391005</ele>
        <time>2021-11-17T13:32:08Z</time>
      </trkpt>
      <trkpt lat="46.5404" lon="0.6442">
        <ele>105.35022164136</ele>
        <time>2021-11-17T13:32:10Z</time>
      </trkpt>
      <trkpt lat="46.5404" lon="0.64424">
        <ele>105.48056481034</ele>
        <time>2021-11-17T13:32:12Z</time>
      </trkpt>
      <trkpt lat="46.54041" lon="0.64428">
        <ele>105.3488531867</ele>
        <time>2021-11-17T13:32:14Z</time>
      </trkpt>
      <trkpt lat="46.54041" lon="0.64432">
        <ele>105.50855335966</ele>
        <time>2021-11-17T13:32:16Z</time>
      </trkpt>
      <trkpt lat="46.54041" lon="0.64436">
        <ele>105.62129637413</ele>
        <time>2021-11-17T13:32:18Z</time>
      </trkpt>
      <trkpt lat="46.54042" lon="0.64439">
        <ele>105.47036248446</ele>
        <time>2021-11-17T13:32:20Z</time>
      </trkpt>
      <trkpt lat="46.54042" lon="0.64444">
        <ele>105.43209457956</ele>
        <time>2021-11-17T13:32:22Z</time>
      </trkpt>
      <trkpt lat="46.54042" lon="0.64448">
        <ele>105.59094316419</ele>
        <time>2021-11-17T13:32:24Z</time>
      </trkpt>
      <trkpt lat="46.54042" lon="0.64451">
        <ele>105.32518359087</ele>
        <time>2021-11-17T13:32:26Z</time>
      </trkpt>
      <trkpt lat="46.54042" lon="0.64454">
        <ele>105.19962265249</ele>
        <time>2021-11-17T13:32:28Z</time>
      </trkpt>
      <trkpt lat="46.54042" lon="0.64458">
        <ele>104.98739869613</ele>
        <time>2021-11-17T13:32:30Z</time>
      </trkpt>
      <trkpt lat="46.54042" lon="0.64461">
        <ele>105.36648265645</ele>
        <time>2021-11-17T13:32:32Z</time>
      </trkpt>
      <trkpt lat="46.54042" lon="0.64465">
        <ele>105.33349825162</ele>
        <time>2021-11-17T13:32:34Z</time>
      </trkpt>
      <trkpt lat="46.54042" lon="0.64469">
        <ele>105.75939454231</ele>
        <time>2021-11-17T13:32:36Z</time>
      </trkpt>
      <trkpt lat="46.54042" lon="0.64473">
        <ele>105.61518687475</ele>
        <time>2021-11-17T13:32:38Z</time>
      </trkpt>
      <trkpt lat="46.54042" lon="0.64476">
        <ele>105.3817181224</ele>
        <time>2021-11-17T13:32:40Z</time>
      </trkpt>
      <trkpt lat="46.54042" lon="0.64479">
        <ele>105.33119001705</ele>
        <time>2021-11-17T13:32:42Z</time>
      </trkpt>
      <trkpt lat="46.54043" lon="0.64483">
        <ele>105.33012741338</ele>
        <time>2021-11-17T13:32:44Z</time>
      </trkpt>
      <trkpt lat="46.54043" lon="0.64486">
        <ele>105.17935350072</ele>
        <time>2021-11-17T13:32:46Z</time>
      </trkpt>
      <trkpt lat="46.54043" lon="0.64489">
        <ele>105.28547663614</ele>
        <time>2021-11-17T13:32:48Z</time>
      </trkpt>
      <trkpt lat="46.54043" lon="0.64494">
        <ele>104.76901825052</ele>
        <time>2021-11-17T13:32:50Z</time>
      </trkpt>
      <trkpt lat="46.54043" lon="0.64497">
        <ele>104.65337624401</ele>
        <time>2021-11-17T13:32:52Z</time>
      </trkpt>
      <trkpt lat="46.54043" lon="0.645">
        <ele>104.77178190742</ele>
        <time>2021-11-17T13:32:54Z</time>
      </trkpt>
      <trkpt lat="46.54044" lon="0.64504">
        <ele>104.66848539095</ele>
        <time>2021-11-17T13:32:56Z</time>
      </trkpt>
      <trkpt lat="46.54044" lon="0.64507">
        <ele>104.67724003643</ele>
        <time>2021-11-17T13:32:58Z</time>
      </trkpt>
      <trkpt lat="46.54044" lon="0.64511">
        <ele>104.65374877304</ele>
        <time>2021-11-17T13:33:00Z</time>
      </trkpt>
      <trkpt lat="46.54045" lon="0.64515">
        <ele>104.19697868451</ele>
        <time>2021-11-17T13:33:02Z</time>
      </trkpt>
      <trkpt lat="46.54045" lon="0.64519">
        <ele>104.45727392379</ele>
        <time>2021-11-17T13:33:04Z</time>
      </trkpt>
      <trkpt lat="46.54045" lon="0.64521">
        <ele>104.59502760693</ele>
        <time>2021-11-17T13:33:05Z</time>
      </trkpt>
      <trkpt lat="46.54045" lon="0.64524">
        <ele>104.545057524</ele>
        <time>2021-11-17T13:33:07Z</time>
      </trkpt>
      <trkpt lat="46.54045" lon="0.64529">
        <ele>104.48409595154</ele>
        <time>2021-11-17T13:33:09Z</time>
      </trkpt>
      <trkpt lat="46.54046" lon="0.64532">
        <ele>104.59997798875</ele>
        <time>2021-11-17T13:33:11Z</time>
      </trkpt>
      <trkpt lat="46.54045" lon="0.64536">
        <ele>104.55474804342</ele>
        <time>2021-11-17T13:33:13Z</time>
      </trkpt>
      <trkpt lat="46.54045" lon="0.64541">
        <ele>104.67317146901</ele>
        <time>2021-11-17T13:33:15Z</time>
      </trkpt>
      <trkpt lat="46.54045" lon="0.64544">
        <ele>104.71062097233</ele>
        <time>2021-11-17T13:33:17Z</time>
      </trkpt>
      <trkpt lat="46.54045" lon="0.64548">
        <ele>104.63960315101</ele>
        <time>2021-11-17T13:33:19Z</time>
      </trkpt>
      <trkpt lat="46.54046" lon="0.64552">
        <ele>104.25765173603</ele>
        <time>2021-11-17T13:33:21Z</time>
      </trkpt>
      <trkpt lat="46.54046" lon="0.64555">
        <ele>104.4159195805</ele>
        <time>2021-11-17T13:33:23Z</time>
      </trkpt>
      <trkpt lat="46.54046" lon="0.64558">
        <ele>104.82822709624</ele>
        <time>2021-11-17T13:33:24Z</time>
      </trkpt>
      <trkpt lat="46.54047" lon="0.64561">
        <ele>104.52731150296</ele>
        <time>2021-11-17T13:33:26Z</time>
      </trkpt>
      <trkpt lat="46.54047" lon="0.64565">
        <ele>104.13344734814</ele>
        <time>2021-11-17T13:33:28Z</time>
      </trkpt>
      <trkpt lat="46.54047" lon="0.64569">
        <ele>104.17306136619</ele>
        <time>2021-11-17T13:33:30Z</time>
      </trkpt>
      <trkpt lat="46.54048" lon="0.64573">
        <ele>104.51911563426</ele>
        <time>2021-11-17T13:33:32Z</time>
      </trkpt>
      <trkpt lat="46.54048" lon="0.64577">
        <ele>104.61196971498</ele>
        <time>2021-11-17T13:33:34Z</time>
      </trkpt>
      <trkpt lat="46.54048" lon="0.64581">
        <ele>104.51868736371</ele>
        <time>2021-11-17T13:33:36Z</time>
      </trkpt>
      <trkpt lat="46.54048" lon="0.64586">
        <ele>104.619167272</ele>
        <time>2021-11-17T13:33:38Z</time>
      </trkpt>
      <trkpt lat="46.54048" lon="0.64588">
        <ele>104.62049886584</ele>
        <time>2021-11-17T13:33:40Z</time>
      </trkpt>
      <trkpt lat="46.54049" lon="0.64593">
        <ele>104.50088965055</ele>
        <time>2021-11-17T13:33:42Z</time>
      </trkpt>
      <trkpt lat="46.54049" lon="0.64596">
        <ele>104.40049998835</ele>
        <time>2021-11-17T13:33:44Z</time>
      </trkpt>
      <trkpt lat="46.54049" lon="0.646">
        <ele>104.57337213121</ele>
        <time>2021-11-17T13:33:46Z</time>
      </trkpt>
      <trkpt lat="46.54049" lon="0.64602">
        <ele>104.40688768215</ele>
        <time>2021-11-17T13:33:47Z</time>
      </trkpt>
      <trkpt lat="46.54049" lon="0.64606">
        <ele>104.3500184631</ele>
        <time>2021-11-17T13:33:49Z</time>
      </trkpt>
      <trkpt lat="46.54049" lon="0.6461">
        <ele>104.31308178417</ele>
        <time>2021-11-17T13:33:51Z</time>
      </trkpt>
      <trkpt lat="46.54049" lon="0.64614">
        <ele>104.31213836093</ele>
        <time>2021-11-17T13:33:53Z</time>
      </trkpt>
      <trkpt lat="46.5405" lon="0.64618">
        <ele>104.44490161352</ele>
        <time>2021-11-17T13:33:55Z</time>
      </trkpt>
      <trkpt lat="46.5405" lon="0.64622">
        <ele>104.66592356656</ele>
        <time>2021-11-17T13:33:57Z</time>
      </trkpt>
      <trkpt lat="46.5405" lon="0.64626">
        <ele>104.62876112014</ele>
        <time>2021-11-17T13:33:59Z</time>
      </trkpt>
      <trkpt lat="46.5405" lon="0.6463">
        <ele>104.67433957662</ele>
        <time>2021-11-17T13:34:01Z</time>
      </trkpt>
      <trkpt lat="46.5405" lon="0.64634">
        <ele>104.15595328994</ele>
        <time>2021-11-17T13:34:03Z</time>
      </trkpt>
      <trkpt lat="46.54051" lon="0.64638">
        <ele>104.3653394999</ele>
        <time>2021-11-17T13:34:05Z</time>
      </trkpt>
      <trkpt lat="46.54051" lon="0.64641">
        <ele>104.68951979373</ele>
        <time>2021-11-17T13:34:07Z</time>
      </trkpt>
      <trkpt lat="46.54051" lon="0.64644">
        <ele>105.08678803034</ele>
        <time>2021-11-17T13:34:09Z</time>
      </trkpt>
      <trkpt lat="46.54051" lon="0.64647">
        <ele>105.14125572704</ele>
        <time>2021-11-17T13:34:10Z</time>
      </trkpt>
      <trkpt lat="46.54051" lon="0.64651">
        <ele>105.55777036957</ele>
        <time>2021-11-17T13:34:14Z</time>
      </trkpt>
      <trkpt lat="46.54051" lon="0.64654">
        <ele>105.28739186563</ele>
        <time>2021-11-17T13:34:15Z</time>
      </trkpt>
      <trkpt lat="46.5405" lon="0.64657">
        <ele>105.32300065272</ele>
        <time>2021-11-17T13:34:17Z</time>
      </trkpt>
      <trkpt lat="46.5405" lon="0.6466">
        <ele>105.30668317806</ele>
        <time>2021-11-17T13:34:18Z</time>
      </trkpt>
      <trkpt lat="46.54049" lon="0.64664">
        <ele>105.75515791122</ele>
        <time>2021-11-17T13:34:20Z</time>
      </trkpt>
      <trkpt lat="46.54049" lon="0.64666">
        <ele>105.57088859938</ele>
        <time>2021-11-17T13:34:22Z</time>
      </trkpt>
      <trkpt lat="46.54049" lon="0.6467">
        <ele>105.33018445224</ele>
        <time>2021-11-17T13:34:24Z</time>
      </trkpt>
      <trkpt lat="46.5405" lon="0.64674">
        <ele>105.44454576075</ele>
        <time>2021-11-17T13:34:26Z</time>
      </trkpt>
      <trkpt lat="46.54051" lon="0.64678">
        <ele>105.50130395684</ele>
        <time>2021-11-17T13:34:28Z</time>
      </trkpt>
      <trkpt lat="46.54051" lon="0.64682">
        <ele>105.74668244366</ele>
        <time>2021-11-17T13:34:30Z</time>
      </trkpt>
      <trkpt lat="46.54051" lon="0.64686">
        <ele>105.46463507321</ele>
        <time>2021-11-17T13:34:32Z</time>
      </trkpt>
      <trkpt lat="46.54051" lon="0.64691">
        <ele>105.19090252183</ele>
        <time>2021-11-17T13:34:34Z</time>
      </trkpt>
      <trkpt lat="46.54051" lon="0.64694">
        <ele>105.50964714587</ele>
        <time>2021-11-17T13:34:35Z</time>
      </trkpt>
      <trkpt lat="46.54052" lon="0.64698">
        <ele>105.6242957795</ele>
        <time>2021-11-17T13:34:37Z</time>
      </trkpt>
      <trkpt lat="46.54052" lon="0.64702">
        <ele>105.45464294124</ele>
        <time>2021-11-17T13:34:39Z</time>
      </trkpt>
      <trkpt lat="46.54052" lon="0.64705">
        <ele>105.54144206177</ele>
        <time>2021-11-17T13:34:41Z</time>
      </trkpt>
      <trkpt lat="46.54052" lon="0.64709">
        <ele>105.39369013347</ele>
        <time>2021-11-17T13:34:43Z</time>
      </trkpt>
      <trkpt lat="46.54052" lon="0.64712">
        <ele>105.31440082099</ele>
        <time>2021-11-17T13:34:45Z</time>
      </trkpt>
      <trkpt lat="46.54052" lon="0.64717">
        <ele>105.33784571756</ele>
        <time>2021-11-17T13:34:47Z</time>
      </trkpt>
      <trkpt lat="46.54053" lon="0.64722">
        <ele>105.39198692702</ele>
        <time>2021-11-17T13:34:49Z</time>
      </trkpt>
      <trkpt lat="46.54054" lon="0.64724">
        <ele>105.50738860574</ele>
        <time>2021-11-17T13:34:51Z</time>
      </trkpt>
      <trkpt lat="46.54054" lon="0.64729">
        <ele>105.60541106295</ele>
        <time>2021-11-17T13:34:53Z</time>
      </trkpt>
      <trkpt lat="46.54054" lon="0.64733">
        <ele>105.50866722967</ele>
        <time>2021-11-17T13:34:55Z</time>
      </trkpt>
      <trkpt lat="46.54054" lon="0.64736">
        <ele>105.57401716895</ele>
        <time>2021-11-17T13:34:57Z</time>
      </trkpt>
      <trkpt lat="46.54055" lon="0.6474">
        <ele>105.37077261601</ele>
        <time>2021-11-17T13:34:59Z</time>
      </trkpt>
      <trkpt lat="46.54055" lon="0.64744">
        <ele>105.45686915703</ele>
        <time>2021-11-17T13:35:01Z</time>
      </trkpt>
      <trkpt lat="46.54055" lon="0.64747">
        <ele>105.46753172483</ele>
        <time>2021-11-17T13:35:03Z</time>
      </trkpt>
      <trkpt lat="46.54056" lon="0.6475">
        <ele>105.32223979663</ele>
        <time>2021-11-17T13:35:05Z</time>
      </trkpt>
      <trkpt lat="46.54055" lon="0.64753">
        <ele>105.62655682303</ele>
        <time>2021-11-17T13:35:07Z</time>
      </trkpt>
      <trkpt lat="46.54055" lon="0.64757">
        <ele>105.52517171856</ele>
        <time>2021-11-17T13:35:09Z</time>
      </trkpt>
      <trkpt lat="46.54055" lon="0.64762">
        <ele>105.78493610024</ele>
        <time>2021-11-17T13:35:11Z</time>
      </trkpt>
      <trkpt lat="46.54056" lon="0.64766">
        <ele>105.77035420761</ele>
        <time>2021-11-17T13:35:13Z</time>
      </trkpt>
      <trkpt lat="46.54057" lon="0.64771">
        <ele>105.38758363295</ele>
        <time>2021-11-17T13:35:15Z</time>
      </trkpt>
      <trkpt lat="46.54056" lon="0.64773">
        <ele>105.66753977351</ele>
        <time>2021-11-17T13:35:17Z</time>
      </trkpt>
      <trkpt lat="46.54057" lon="0.64779">
        <ele>105.42600005772</ele>
        <time>2021-11-17T13:35:19Z</time>
      </trkpt>
      <trkpt lat="46.54057" lon="0.64783">
        <ele>105.51229731645</ele>
        <time>2021-11-17T13:35:21Z</time>
      </trkpt>
      <trkpt lat="46.54057" lon="0.64785">
        <ele>105.61830483563</ele>
        <time>2021-11-17T13:35:23Z</time>
      </trkpt>
      <trkpt lat="46.54057" lon="0.6479">
        <ele>105.61602765601</ele>
        <time>2021-11-17T13:35:25Z</time>
      </trkpt>
      <trkpt lat="46.54056" lon="0.64793">
        <ele>105.45580737013</ele>
        <time>2021-11-17T13:35:27Z</time>
      </trkpt>
      <trkpt lat="46.54056" lon="0.64797">
        <ele>105.46737217624</ele>
        <time>2021-11-17T13:35:29Z</time>
      </trkpt>
      <trkpt lat="46.54058" lon="0.64801">
        <ele>105.69020164013</ele>
        <time>2021-11-17T13:35:31Z</time>
      </trkpt>
      <trkpt lat="46.54058" lon="0.64804">
        <ele>105.31738902908</ele>
        <time>2021-11-17T13:35:33Z</time>
      </trkpt>
      <trkpt lat="46.54057" lon="0.64808">
        <ele>105.17136214674</ele>
        <time>2021-11-17T13:35:35Z</time>
      </trkpt>
      <trkpt lat="46.54057" lon="0.64811">
        <ele>105.52958489954</ele>
        <time>2021-11-17T13:35:37Z</time>
      </trkpt>
      <trkpt lat="46.54057" lon="0.64815">
        <ele>105.22221682779</ele>
        <time>2021-11-17T13:35:39Z</time>
      </trkpt>
      <trkpt lat="46.54058" lon="0.64819">
        <ele>105.57012198307</ele>
        <time>2021-11-17T13:35:41Z</time>
      </trkpt>
      <trkpt lat="46.54057" lon="0.64822">
        <ele>105.22938152775</ele>
        <time>2021-11-17T13:35:43Z</time>
      </trkpt>
      <trkpt lat="46.54058" lon="0.64826">
        <ele>105.57389396429</ele>
        <time>2021-11-17T13:35:45Z</time>
      </trkpt>
      <trkpt lat="46.54058" lon="0.64828">
        <ele>105.73448309954</ele>
        <time>2021-11-17T13:35:47Z</time>
      </trkpt>
      <trkpt lat="46.54058" lon="0.64832">
        <ele>105.52320417203</ele>
        <time>2021-11-17T13:35:49Z</time>
      </trkpt>
      <trkpt lat="46.54059" lon="0.64836">
        <ele>105.62023113482</ele>
        <time>2021-11-17T13:35:51Z</time>
      </trkpt>
      <trkpt lat="46.54059" lon="0.6484">
        <ele>105.6678087702</ele>
        <time>2021-11-17T13:35:53Z</time>
      </trkpt>
      <trkpt lat="46.5406" lon="0.64844">
        <ele>105.59171944298</ele>
        <time>2021-11-17T13:35:55Z</time>
      </trkpt>
      <trkpt lat="46.54059" lon="0.64848">
        <ele>105.76474715956</ele>
        <time>2021-11-17T13:35:57Z</time>
      </trkpt>
      <trkpt lat="46.5406" lon="0.64852">
        <ele>105.81265994254</ele>
        <time>2021-11-17T13:36:00Z</time>
      </trkpt>
      <trkpt lat="46.5406" lon="0.64856">
        <ele>105.83284905739</ele>
        <time>2021-11-17T13:36:02Z</time>
      </trkpt>
      <trkpt lat="46.5406" lon="0.6486">
        <ele>105.99262480624</ele>
        <time>2021-11-17T13:36:04Z</time>
      </trkpt>
      <trkpt lat="46.5406" lon="0.64864">
        <ele>106.11397533771</ele>
        <time>2021-11-17T13:36:06Z</time>
      </trkpt>
      <trkpt lat="46.54061" lon="0.64867">
        <ele>106.29690261837</ele>
        <time>2021-11-17T13:36:08Z</time>
      </trkpt>
      <trkpt lat="46.54061" lon="0.64871">
        <ele>106.47009317204</ele>
        <time>2021-11-17T13:36:10Z</time>
      </trkpt>
      <trkpt lat="46.54061" lon="0.64875">
        <ele>106.41238145623</ele>
        <time>2021-11-17T13:36:12Z</time>
      </trkpt>
      <trkpt lat="46.54062" lon="0.64879">
        <ele>106.22448791564</ele>
        <time>2021-11-17T13:36:14Z</time>
      </trkpt>
      <trkpt lat="46.54062" lon="0.64883">
        <ele>106.05134150386</ele>
        <time>2021-11-17T13:36:16Z</time>
      </trkpt>
      <trkpt lat="46.54063" lon="0.64887">
        <ele>105.70544359554</ele>
        <time>2021-11-17T13:36:18Z</time>
      </trkpt>
      <trkpt lat="46.54063" lon="0.64891">
        <ele>105.72089183517</ele>
        <time>2021-11-17T13:36:20Z</time>
      </trkpt>
      <trkpt lat="46.54064" lon="0.64894">
        <ele>105.23599201161</ele>
        <time>2021-11-17T13:36:22Z</time>
      </trkpt>
      <trkpt lat="46.54064" lon="0.64897">
        <ele>105.64649622701</ele>
        <time>2021-11-17T13:36:23Z</time>
      </trkpt>
      <trkpt lat="46.54064" lon="0.649">
        <ele>105.60726725403</ele>
        <time>2021-11-17T13:36:25Z</time>
      </trkpt>
      <trkpt lat="46.54065" lon="0.64903">
        <ele>105.84696205705</ele>
        <time>2021-11-17T13:36:27Z</time>
      </trkpt>
      <trkpt lat="46.54066" lon="0.64907">
        <ele>105.57134713419</ele>
        <time>2021-11-17T13:36:29Z</time>
      </trkpt>
      <trkpt lat="46.54068" lon="0.64911">
        <ele>105.66497420985</ele>
        <time>2021-11-17T13:36:31Z</time>
      </trkpt>
      <trkpt lat="46.54069" lon="0.64915">
        <ele>105.87585005257</ele>
        <time>2021-11-17T13:36:33Z</time>
      </trkpt>
      <trkpt lat="46.54069" lon="0.6492">
        <ele>105.89670595527</ele>
        <time>2021-11-17T13:36:35Z</time>
      </trkpt>
      <trkpt lat="46.54069" lon="0.64923">
        <ele>105.90358693991</ele>
        <time>2021-11-17T13:36:37Z</time>
      </trkpt>
      <trkpt lat="46.54068" lon="0.64926">
        <ele>105.79730429687</ele>
        <time>2021-11-17T13:36:39Z</time>
      </trkpt>
      <trkpt lat="46.54069" lon="0.64929">
        <ele>106.24274411891</ele>
        <time>2021-11-17T13:36:41Z</time>
      </trkpt>
      <trkpt lat="46.5407" lon="0.64932">
        <ele>106.00947249029</ele>
        <time>2021-11-17T13:36:43Z</time>
      </trkpt>
      <trkpt lat="46.5407" lon="0.64935">
        <ele>106.28522959352</ele>
        <time>2021-11-17T13:36:45Z</time>
      </trkpt>
      <trkpt lat="46.5407" lon="0.64938">
        <ele>106.21042917948</ele>
        <time>2021-11-17T13:36:47Z</time>
      </trkpt>
      <trkpt lat="46.54071" lon="0.64943">
        <ele>106.18234496843</ele>
        <time>2021-11-17T13:36:49Z</time>
      </trkpt>
      <trkpt lat="46.54072" lon="0.64946">
        <ele>106.53294451907</ele>
        <time>2021-11-17T13:36:51Z</time>
      </trkpt>
      <trkpt lat="46.54073" lon="0.6495">
        <ele>106.40751045104</ele>
        <time>2021-11-17T13:36:53Z</time>
      </trkpt>
      <trkpt lat="46.54073" lon="0.64954">
        <ele>106.16151332855</ele>
        <time>2021-11-17T13:36:55Z</time>
      </trkpt>
      <trkpt lat="46.54074" lon="0.64957">
        <ele>106.54674892966</ele>
        <time>2021-11-17T13:36:57Z</time>
      </trkpt>
      <trkpt lat="46.54074" lon="0.6496">
        <ele>106.38145559002</ele>
        <time>2021-11-17T13:36:59Z</time>
      </trkpt>
      <trkpt lat="46.54075" lon="0.64963">
        <ele>106.31039051805</ele>
        <time>2021-11-17T13:37:00Z</time>
      </trkpt>
      <trkpt lat="46.54075" lon="0.64967">
        <ele>106.41331140511</ele>
        <time>2021-11-17T13:37:02Z</time>
      </trkpt>
      <trkpt lat="46.54075" lon="0.64971">
        <ele>106.61398572288</ele>
        <time>2021-11-17T13:37:04Z</time>
      </trkpt>
      <trkpt lat="46.54076" lon="0.64975">
        <ele>106.44337116275</ele>
        <time>2021-11-17T13:37:06Z</time>
      </trkpt>
      <trkpt lat="46.54076" lon="0.64979">
        <ele>106.67268462572</ele>
        <time>2021-11-17T13:37:09Z</time>
      </trkpt>
      <trkpt lat="46.54076" lon="0.64982">
        <ele>106.52013694309</ele>
        <time>2021-11-17T13:37:11Z</time>
      </trkpt>
      <trkpt lat="46.54076" lon="0.64986">
        <ele>106.26608336437</ele>
        <time>2021-11-17T13:37:13Z</time>
      </trkpt>
      <trkpt lat="46.54075" lon="0.64989">
        <ele>106.68050676212</ele>
        <time>2021-11-17T13:37:15Z</time>
      </trkpt>
      <trkpt lat="46.54075" lon="0.64992">
        <ele>106.49172453955</ele>
        <time>2021-11-17T13:37:16Z</time>
      </trkpt>
      <trkpt lat="46.54076" lon="0.64995">
        <ele>106.4650286017</ele>
        <time>2021-11-17T13:37:18Z</time>
      </trkpt>
      <trkpt lat="46.54077" lon="0.64999">
        <ele>106.54060442466</ele>
        <time>2021-11-17T13:37:20Z</time>
      </trkpt>
      <trkpt lat="46.54078" lon="0.65001">
        <ele>106.41217567306</ele>
        <time>2021-11-17T13:37:21Z</time>
      </trkpt>
      <trkpt lat="46.54079" lon="0.65004">
        <ele>106.56135774124</ele>
        <time>2021-11-17T13:37:22Z</time>
      </trkpt>
      <trkpt lat="46.54079" lon="0.65008">
        <ele>106.41302713659</ele>
        <time>2021-11-17T13:37:24Z</time>
      </trkpt>
      <trkpt lat="46.54079" lon="0.65012">
        <ele>106.30166764278</ele>
        <time>2021-11-17T13:37:26Z</time>
      </trkpt>
      <trkpt lat="46.5408" lon="0.65015">
        <ele>105.96432172321</ele>
        <time>2021-11-17T13:37:28Z</time>
      </trkpt>
      <trkpt lat="46.5408" lon="0.6502">
        <ele>106.04575097468</ele>
        <time>2021-11-17T13:37:30Z</time>
      </trkpt>
      <trkpt lat="46.54081" lon="0.65024">
        <ele>105.53986835573</ele>
        <time>2021-11-17T13:37:32Z</time>
      </trkpt>
      <trkpt lat="46.54081" lon="0.65028">
        <ele>105.71859423164</ele>
        <time>2021-11-17T13:37:34Z</time>
      </trkpt>
      <trkpt lat="46.54081" lon="0.65033">
        <ele>105.54042005446</ele>
        <time>2021-11-17T13:37:36Z</time>
      </trkpt>
      <trkpt lat="46.54081" lon="0.65037">
        <ele>105.4357945621</ele>
        <time>2021-11-17T13:37:38Z</time>
      </trkpt>
      <trkpt lat="46.54081" lon="0.6504">
        <ele>105.38270228449</ele>
        <time>2021-11-17T13:37:40Z</time>
      </trkpt>
      <trkpt lat="46.5408" lon="0.65044">
        <ele>105.2748476686</ele>
        <time>2021-11-17T13:37:43Z</time>
      </trkpt>
      <trkpt lat="46.54081" lon="0.65048">
        <ele>105.19887728337</ele>
        <time>2021-11-17T13:37:45Z</time>
      </trkpt>
      <trkpt lat="46.54081" lon="0.65052">
        <ele>105.68519548792</ele>
        <time>2021-11-17T13:37:47Z</time>
      </trkpt>
      <trkpt lat="46.54081" lon="0.65055">
        <ele>105.27826441173</ele>
        <time>2021-11-17T13:37:49Z</time>
      </trkpt>
      <trkpt lat="46.54082" lon="0.65059">
        <ele>105.31090706866</ele>
        <time>2021-11-17T13:37:51Z</time>
      </trkpt>
      <trkpt lat="46.54081" lon="0.65062">
        <ele>105.53306600731</ele>
        <time>2021-11-17T13:37:53Z</time>
      </trkpt>
      <trkpt lat="46.54081" lon="0.65065">
        <ele>105.43154351413</ele>
        <time>2021-11-17T13:37:55Z</time>
      </trkpt>
      <trkpt lat="46.54082" lon="0.65069">
        <ele>105.14629347343</ele>
        <time>2021-11-17T13:37:57Z</time>
      </trkpt>
      <trkpt lat="46.54082" lon="0.65074">
        <ele>104.92183494382</ele>
        <time>2021-11-17T13:38:00Z</time>
      </trkpt>
      <trkpt lat="46.54084" lon="0.65077">
        <ele>104.76608277392</ele>
        <time>2021-11-17T13:38:01Z</time>
      </trkpt>
      <trkpt lat="46.54084" lon="0.65081">
        <ele>104.7666986715</ele>
        <time>2021-11-17T13:38:03Z</time>
      </trkpt>
      <trkpt lat="46.54086" lon="0.65085">
        <ele>104.62365793344</ele>
        <time>2021-11-17T13:38:06Z</time>
      </trkpt>
      <trkpt lat="46.54087" lon="0.65087">
        <ele>104.53255242761</ele>
        <time>2021-11-17T13:38:07Z</time>
      </trkpt>
      <trkpt lat="46.54089" lon="0.65089">
        <ele>104.55564002227</ele>
        <time>2021-11-17T13:38:09Z</time>
      </trkpt>
      <trkpt lat="46.5409" lon="0.65093">
        <ele>104.64090948179</ele>
        <time>2021-11-17T13:38:11Z</time>
      </trkpt>
      <trkpt lat="46.54091" lon="0.65096">
        <ele>104.65670803189</ele>
        <time>2021-11-17T13:38:13Z</time>
      </trkpt>
      <trkpt lat="46.54093" lon="0.65099">
        <ele>104.53284080233</ele>
        <time>2021-11-17T13:38:15Z</time>
      </trkpt>
      <trkpt lat="46.54095" lon="0.65102">
        <ele>104.67232072446</ele>
        <time>2021-11-17T13:38:17Z</time>
      </trkpt>
      <trkpt lat="46.54097" lon="0.65106">
        <ele>104.50784786884</ele>
        <time>2021-11-17T13:38:20Z</time>
      </trkpt>
      <trkpt lat="46.54098" lon="0.65109">
        <ele>104.43823743984</ele>
        <time>2021-11-17T13:38:22Z</time>
      </trkpt>
      <trkpt lat="46.54099" lon="0.65112">
        <ele>104.22322268412</ele>
        <time>2021-11-17T13:38:24Z</time>
      </trkpt>
      <trkpt lat="46.541" lon="0.65116">
        <ele>104.10670114122</ele>
        <time>2021-11-17T13:38:26Z</time>
      </trkpt>
      <trkpt lat="46.541" lon="0.6512">
        <ele>104.14587128907</ele>
        <time>2021-11-17T13:38:27Z</time>
      </trkpt>
      <trkpt lat="46.54101" lon="0.65125">
        <ele>104.2830629237</ele>
        <time>2021-11-17T13:38:29Z</time>
      </trkpt>
      <trkpt lat="46.54102" lon="0.65127">
        <ele>104.18039013073</ele>
        <time>2021-11-17T13:38:31Z</time>
      </trkpt>
      <trkpt lat="46.54103" lon="0.65131">
        <ele>103.92805677652</ele>
        <time>2021-11-17T13:38:32Z</time>
      </trkpt>
      <trkpt lat="46.54104" lon="0.65133">
        <ele>104.65961214714</ele>
        <time>2021-11-17T13:38:34Z</time>
      </trkpt>
      <trkpt lat="46.54104" lon="0.65137">
        <ele>104.65613499656</ele>
        <time>2021-11-17T13:38:36Z</time>
      </trkpt>
      <trkpt lat="46.54105" lon="0.65141">
        <ele>104.34822179284</ele>
        <time>2021-11-17T13:38:38Z</time>
      </trkpt>
      <trkpt lat="46.54106" lon="0.65144">
        <ele>104.37037092447</ele>
        <time>2021-11-17T13:38:40Z</time>
      </trkpt>
      <trkpt lat="46.54107" lon="0.65148">
        <ele>104.54799552727</ele>
        <time>2021-11-17T13:38:42Z</time>
      </trkpt>
      <trkpt lat="46.54109" lon="0.65151">
        <ele>104.29959474877</ele>
        <time>2021-11-17T13:38:44Z</time>
      </trkpt>
      <trkpt lat="46.5411" lon="0.65154">
        <ele>103.90889008902</ele>
        <time>2021-11-17T13:38:46Z</time>
      </trkpt>
      <trkpt lat="46.54112" lon="0.65157">
        <ele>104.25726378709</ele>
        <time>2021-11-17T13:38:48Z</time>
      </trkpt>
      <trkpt lat="46.54113" lon="0.65161">
        <ele>104.05242194608</ele>
        <time>2021-11-17T13:38:50Z</time>
      </trkpt>
      <trkpt lat="46.54114" lon="0.65163">
        <ele>104.17349083908</ele>
        <time>2021-11-17T13:38:52Z</time>
      </trkpt>
      <trkpt lat="46.54115" lon="0.65167">
        <ele>103.88513052277</ele>
        <time>2021-11-17T13:38:54Z</time>
      </trkpt>
      <trkpt lat="46.54116" lon="0.65171">
        <ele>103.91316398419</ele>
        <time>2021-11-17T13:38:57Z</time>
      </trkpt>
      <trkpt lat="46.54118" lon="0.65174">
        <ele>103.58403985295</ele>
        <time>2021-11-17T13:38:59Z</time>
      </trkpt>
      <trkpt lat="46.54119" lon="0.65177">
        <ele>104.11646371707</ele>
        <time>2021-11-17T13:39:01Z</time>
      </trkpt>
      <trkpt lat="46.54121" lon="0.6518">
        <ele>103.9276613947</ele>
        <time>2021-11-17T13:39:03Z</time>
      </trkpt>
      <trkpt lat="46.54121" lon="0.65183">
        <ele>103.86581951566</ele>
        <time>2021-11-17T13:39:05Z</time>
      </trkpt>
      <trkpt lat="46.54122" lon="0.65185">
        <ele>103.94587353803</ele>
        <time>2021-11-17T13:39:07Z</time>
      </trkpt>
      <trkpt lat="46.54122" lon="0.65193">
        <ele>103.94514108449</ele>
        <time>2021-11-17T13:39:13Z</time>
      </trkpt>
      <trkpt lat="46.54123" lon="0.65196">
        <ele>103.99646847136</ele>
        <time>2021-11-17T13:39:15Z</time>
      </trkpt>
      <trkpt lat="46.54123" lon="0.65199">
        <ele>103.6875474453</ele>
        <time>2021-11-17T13:39:17Z</time>
      </trkpt>
      <trkpt lat="46.54122" lon="0.65202">
        <ele>103.95323507488</ele>
        <time>2021-11-17T13:39:19Z</time>
      </trkpt>
      <trkpt lat="46.54121" lon="0.65205">
        <ele>104.12247083057</ele>
        <time>2021-11-17T13:39:22Z</time>
      </trkpt>
      <trkpt lat="46.54119" lon="0.65208">
        <ele>103.8926949231</ele>
        <time>2021-11-17T13:39:24Z</time>
      </trkpt>
      <trkpt lat="46.54117" lon="0.65211">
        <ele>103.72748813033</ele>
        <time>2021-11-17T13:39:27Z</time>
      </trkpt>
      <trkpt lat="46.54115" lon="0.65213">
        <ele>103.81555113569</ele>
        <time>2021-11-17T13:39:29Z</time>
      </trkpt>
      <trkpt lat="46.54113" lon="0.65215">
        <ele>103.66096186638</ele>
        <time>2021-11-17T13:39:31Z</time>
      </trkpt>
      <trkpt lat="46.54111" lon="0.65217">
        <ele>103.71789936908</ele>
        <time>2021-11-17T13:39:33Z</time>
      </trkpt>
      <trkpt lat="46.54109" lon="0.65219">
        <ele>103.43067657761</ele>
        <time>2021-11-17T13:39:35Z</time>
      </trkpt>
      <trkpt lat="46.54106" lon="0.6522">
        <ele>103.59180275071</ele>
        <time>2021-11-17T13:39:37Z</time>
      </trkpt>
      <trkpt lat="46.54105" lon="0.65223">
        <ele>103.76921222731</ele>
        <time>2021-11-17T13:39:39Z</time>
      </trkpt>
      <trkpt lat="46.54103" lon="0.65224">
        <ele>103.47826634161</ele>
        <time>2021-11-17T13:39:41Z</time>
      </trkpt>
      <trkpt lat="46.54101" lon="0.65226">
        <ele>103.67830004357</ele>
        <time>2021-11-17T13:39:43Z</time>
      </trkpt>
      <trkpt lat="46.54099" lon="0.65229">
        <ele>103.32611272298</ele>
        <time>2021-11-17T13:39:45Z</time>
      </trkpt>
      <trkpt lat="46.54098" lon="0.65231">
        <ele>103.32283729501</ele>
        <time>2021-11-17T13:39:47Z</time>
      </trkpt>
      <trkpt lat="46.54096" lon="0.65232">
        <ele>103.37236372475</ele>
        <time>2021-11-17T13:39:49Z</time>
      </trkpt>
      <trkpt lat="46.54094" lon="0.65234">
        <ele>103.37036903575</ele>
        <time>2021-11-17T13:39:51Z</time>
      </trkpt>
      <trkpt lat="46.54092" lon="0.65236">
        <ele>103.43246237654</ele>
        <time>2021-11-17T13:39:53Z</time>
      </trkpt>
      <trkpt lat="46.54089" lon="0.65238">
        <ele>103.2008329751</ele>
        <time>2021-11-17T13:39:55Z</time>
      </trkpt>
      <trkpt lat="46.54087" lon="0.6524">
        <ele>102.99460538384</ele>
        <time>2021-11-17T13:39:57Z</time>
      </trkpt>
      <trkpt lat="46.54085" lon="0.65242">
        <ele>103.03298215847</ele>
        <time>2021-11-17T13:39:59Z</time>
      </trkpt>
      <trkpt lat="46.54083" lon="0.65244">
        <ele>103.4454001179</ele>
        <time>2021-11-17T13:40:01Z</time>
      </trkpt>
      <trkpt lat="46.54081" lon="0.65246">
        <ele>103.40310367942</ele>
        <time>2021-11-17T13:40:03Z</time>
      </trkpt>
      <trkpt lat="46.54078" lon="0.65248">
        <ele>103.11136406846</ele>
        <time>2021-11-17T13:40:06Z</time>
      </trkpt>
      <trkpt lat="46.54077" lon="0.6525">
        <ele>103.50967697892</ele>
        <time>2021-11-17T13:40:08Z</time>
      </trkpt>
      <trkpt lat="46.54074" lon="0.65251">
        <ele>103.69949192554</ele>
        <time>2021-11-17T13:40:10Z</time>
      </trkpt>
      <trkpt lat="46.54072" lon="0.65252">
        <ele>103.41993998922</ele>
        <time>2021-11-17T13:40:12Z</time>
      </trkpt>
      <trkpt lat="46.54071" lon="0.65254">
        <ele>103.30875046458</ele>
        <time>2021-11-17T13:40:13Z</time>
      </trkpt>
      <trkpt lat="46.54069" lon="0.65256">
        <ele>103.18843366951</ele>
        <time>2021-11-17T13:40:15Z</time>
      </trkpt>
      <trkpt lat="46.54066" lon="0.65258">
        <ele>103.23609670438</ele>
        <time>2021-11-17T13:40:17Z</time>
      </trkpt>
      <trkpt lat="46.54064" lon="0.6526">
        <ele>103.21540331095</ele>
        <time>2021-11-17T13:40:19Z</time>
      </trkpt>
      <trkpt lat="46.54063" lon="0.65262">
        <ele>103.26345152128</ele>
        <time>2021-11-17T13:40:21Z</time>
      </trkpt>
      <trkpt lat="46.5406" lon="0.65264">
        <ele>102.8836916592</ele>
        <time>2021-11-17T13:40:23Z</time>
      </trkpt>
      <trkpt lat="46.54058" lon="0.65266">
        <ele>102.61979096849</ele>
        <time>2021-11-17T13:40:25Z</time>
      </trkpt>
      <trkpt lat="46.54056" lon="0.65268">
        <ele>103.0095253652</ele>
        <time>2021-11-17T13:40:27Z</time>
      </trkpt>
      <trkpt lat="46.54054" lon="0.65269">
        <ele>102.86117947102</ele>
        <time>2021-11-17T13:40:29Z</time>
      </trkpt>
      <trkpt lat="46.54052" lon="0.65271">
        <ele>102.94876418822</ele>
        <time>2021-11-17T13:40:31Z</time>
      </trkpt>
      <trkpt lat="46.5405" lon="0.65272">
        <ele>102.74536988605</ele>
        <time>2021-11-17T13:40:33Z</time>
      </trkpt>
      <trkpt lat="46.54048" lon="0.65274">
        <ele>102.4144050898</ele>
        <time>2021-11-17T13:40:35Z</time>
      </trkpt>
      <trkpt lat="46.54046" lon="0.65275">
        <ele>102.59775773343</ele>
        <time>2021-11-17T13:40:37Z</time>
      </trkpt>
      <trkpt lat="46.54044" lon="0.65275">
        <ele>102.64076035097</ele>
        <time>2021-11-17T13:40:39Z</time>
      </trkpt>
      <trkpt lat="46.54041" lon="0.65277">
        <ele>102.39604238141</ele>
        <time>2021-11-17T13:40:41Z</time>
      </trkpt>
      <trkpt lat="46.54039" lon="0.65278">
        <ele>102.44449782837</ele>
        <time>2021-11-17T13:40:43Z</time>
      </trkpt>
      <trkpt lat="46.54037" lon="0.65279">
        <ele>102.52904801071</ele>
        <time>2021-11-17T13:40:45Z</time>
      </trkpt>
      <trkpt lat="46.54035" lon="0.6528">
        <ele>102.35550789721</ele>
        <time>2021-11-17T13:40:47Z</time>
      </trkpt>
      <trkpt lat="46.54032" lon="0.65281">
        <ele>102.27032905538</ele>
        <time>2021-11-17T13:40:49Z</time>
      </trkpt>
      <trkpt lat="46.5403" lon="0.65281">
        <ele>102.42960760091</ele>
        <time>2021-11-17T13:40:51Z</time>
      </trkpt>
      <trkpt lat="46.54027" lon="0.65282">
        <ele>102.41096999589</ele>
        <time>2021-11-17T13:40:53Z</time>
      </trkpt>
      <trkpt lat="46.54025" lon="0.65283">
        <ele>102.23148312513</ele>
        <time>2021-11-17T13:40:55Z</time>
      </trkpt>
      <trkpt lat="46.54022" lon="0.65284">
        <ele>102.35205345415</ele>
        <time>2021-11-17T13:40:57Z</time>
      </trkpt>
      <trkpt lat="46.5402" lon="0.65285">
        <ele>102.00064941868</ele>
        <time>2021-11-17T13:41:00Z</time>
      </trkpt>
      <trkpt lat="46.54017" lon="0.65287">
        <ele>102.22905135714</ele>
        <time>2021-11-17T13:41:02Z</time>
      </trkpt>
      <trkpt lat="46.54015" lon="0.65287">
        <ele>101.98997693881</ele>
        <time>2021-11-17T13:41:04Z</time>
      </trkpt>
      <trkpt lat="46.54012" lon="0.65287">
        <ele>102.43533271831</ele>
        <time>2021-11-17T13:41:06Z</time>
      </trkpt>
      <trkpt lat="46.5401" lon="0.65287">
        <ele>102.46469529252</ele>
        <time>2021-11-17T13:41:08Z</time>
      </trkpt>
      <trkpt lat="46.54008" lon="0.65287">
        <ele>101.85307291895</ele>
        <time>2021-11-17T13:41:10Z</time>
      </trkpt>
      <trkpt lat="46.54005" lon="0.65287">
        <ele>102.411526802</ele>
        <time>2021-11-17T13:41:12Z</time>
      </trkpt>
      <trkpt lat="46.54002" lon="0.65287">
        <ele>102.58487047441</ele>
        <time>2021-11-17T13:41:14Z</time>
      </trkpt>
      <trkpt lat="46.53999" lon="0.65287">
        <ele>102.55759789143</ele>
        <time>2021-11-17T13:41:16Z</time>
      </trkpt>
      <trkpt lat="46.53997" lon="0.65287">
        <ele>102.51313546393</ele>
        <time>2021-11-17T13:41:18Z</time>
      </trkpt>
      <trkpt lat="46.53994" lon="0.65287">
        <ele>102.02333731856</ele>
        <time>2021-11-17T13:41:20Z</time>
      </trkpt>
      <trkpt lat="46.53992" lon="0.65288">
        <ele>102.11598570924</ele>
        <time>2021-11-17T13:41:22Z</time>
      </trkpt>
      <trkpt lat="46.53989" lon="0.65288">
        <ele>102.25815968681</ele>
        <time>2021-11-17T13:41:24Z</time>
      </trkpt>
      <trkpt lat="46.53986" lon="0.65287">
        <ele>102.53298933152</ele>
        <time>2021-11-17T13:41:26Z</time>
      </trkpt>
      <trkpt lat="46.53983" lon="0.65286">
        <ele>102.38807852287</ele>
        <time>2021-11-17T13:41:28Z</time>
      </trkpt>
      <trkpt lat="46.53981" lon="0.65286">
        <ele>102.69663721975</ele>
        <time>2021-11-17T13:41:30Z</time>
      </trkpt>
      <trkpt lat="46.53979" lon="0.65286">
        <ele>102.50606361311</ele>
        <time>2021-11-17T13:41:32Z</time>
      </trkpt>
      <trkpt lat="46.53975" lon="0.65286">
        <ele>102.37281526718</ele>
        <time>2021-11-17T13:41:34Z</time>
      </trkpt>
      <trkpt lat="46.53973" lon="0.65286">
        <ele>102.29058916215</ele>
        <time>2021-11-17T13:41:36Z</time>
      </trkpt>
      <trkpt lat="46.53971" lon="0.65287">
        <ele>102.71829044446</ele>
        <time>2021-11-17T13:41:38Z</time>
      </trkpt>
      <trkpt lat="46.53969" lon="0.65286">
        <ele>102.58115648106</ele>
        <time>2021-11-17T13:41:40Z</time>
      </trkpt>
      <trkpt lat="46.53966" lon="0.65287">
        <ele>102.63472761493</ele>
        <time>2021-11-17T13:41:42Z</time>
      </trkpt>
      <trkpt lat="46.53963" lon="0.65286">
        <ele>102.18228562735</ele>
        <time>2021-11-17T13:41:44Z</time>
      </trkpt>
      <trkpt lat="46.53961" lon="0.65287">
        <ele>102.34536244534</ele>
        <time>2021-11-17T13:41:46Z</time>
      </trkpt>
      <trkpt lat="46.53958" lon="0.65287">
        <ele>102.13269352447</ele>
        <time>2021-11-17T13:41:48Z</time>
      </trkpt>
      <trkpt lat="46.53956" lon="0.65287">
        <ele>102.07192657329</ele>
        <time>2021-11-17T13:41:50Z</time>
      </trkpt>
      <trkpt lat="46.53953" lon="0.65288">
        <ele>102.18978654779</ele>
        <time>2021-11-17T13:41:52Z</time>
      </trkpt>
      <trkpt lat="46.5395" lon="0.65289">
        <ele>102.14384683128</ele>
        <time>2021-11-17T13:41:54Z</time>
      </trkpt>
      <trkpt lat="46.53948" lon="0.6529">
        <ele>102.16652096715</ele>
        <time>2021-11-17T13:41:56Z</time>
      </trkpt>
      <trkpt lat="46.53946" lon="0.65291">
        <ele>102.14706709608</ele>
        <time>2021-11-17T13:41:57Z</time>
      </trkpt>
      <trkpt lat="46.53944" lon="0.65291">
        <ele>102.04799620062</ele>
        <time>2021-11-17T13:41:59Z</time>
      </trkpt>
      <trkpt lat="46.53941" lon="0.65292">
        <ele>102.22173050884</ele>
        <time>2021-11-17T13:42:01Z</time>
      </trkpt>
      <trkpt lat="46.53938" lon="0.65294">
        <ele>101.92788858898</ele>
        <time>2021-11-17T13:42:03Z</time>
      </trkpt>
      <trkpt lat="46.53936" lon="0.65294">
        <ele>101.69425693434</ele>
        <time>2021-11-17T13:42:05Z</time>
      </trkpt>
      <trkpt lat="46.53934" lon="0.65295">
        <ele>101.97750401869</ele>
        <time>2021-11-17T13:42:07Z</time>
      </trkpt>
      <trkpt lat="46.53931" lon="0.65296">
        <ele>102.08932515234</ele>
        <time>2021-11-17T13:42:09Z</time>
      </trkpt>
      <trkpt lat="46.53929" lon="0.65297">
        <ele>101.94886689913</ele>
        <time>2021-11-17T13:42:11Z</time>
      </trkpt>
      <trkpt lat="46.53926" lon="0.65298">
        <ele>102.19695533626</ele>
        <time>2021-11-17T13:42:13Z</time>
      </trkpt>
      <trkpt lat="46.53924" lon="0.65298">
        <ele>102.23039410915</ele>
        <time>2021-11-17T13:42:14Z</time>
      </trkpt>
      <trkpt lat="46.53922" lon="0.65299">
        <ele>102.00527836941</ele>
        <time>2021-11-17T13:42:16Z</time>
      </trkpt>
      <trkpt lat="46.53921" lon="0.653">
        <ele>101.88909322955</ele>
        <time>2021-11-17T13:42:17Z</time>
      </trkpt>
      <trkpt lat="46.53919" lon="0.65301">
        <ele>102.08053025231</ele>
        <time>2021-11-17T13:42:19Z</time>
      </trkpt>
      <trkpt lat="46.53917" lon="0.65302">
        <ele>101.55535078421</ele>
        <time>2021-11-17T13:42:20Z</time>
      </trkpt>
      <trkpt lat="46.53915" lon="0.65303">
        <ele>102.11803907063</ele>
        <time>2021-11-17T13:42:23Z</time>
      </trkpt>
      <trkpt lat="46.53913" lon="0.65302">
        <ele>101.51208928786</ele>
        <time>2021-11-17T13:42:24Z</time>
      </trkpt>
      <trkpt lat="46.53911" lon="0.65302">
        <ele>102.03795608412</ele>
        <time>2021-11-17T13:42:26Z</time>
      </trkpt>
      <trkpt lat="46.53908" lon="0.65303">
        <ele>101.75793378521</ele>
        <time>2021-11-17T13:42:28Z</time>
      </trkpt>
      <trkpt lat="46.53905" lon="0.65305">
        <ele>101.80602109898</ele>
        <time>2021-11-17T13:42:30Z</time>
      </trkpt>
      <trkpt lat="46.53902" lon="0.65306">
        <ele>101.7579679247</ele>
        <time>2021-11-17T13:42:32Z</time>
      </trkpt>
      <trkpt lat="46.539" lon="0.65306">
        <ele>102.0889446605</ele>
        <time>2021-11-17T13:42:34Z</time>
      </trkpt>
      <trkpt lat="46.53897" lon="0.65308">
        <ele>101.36300046556</ele>
        <time>2021-11-17T13:42:36Z</time>
      </trkpt>
      <trkpt lat="46.53894" lon="0.65308">
        <ele>102.13969091699</ele>
        <time>2021-11-17T13:42:38Z</time>
      </trkpt>
      <trkpt lat="46.53891" lon="0.65309">
        <ele>102.03531664237</ele>
        <time>2021-11-17T13:42:40Z</time>
      </trkpt>
      <trkpt lat="46.53889" lon="0.6531">
        <ele>102.39522833284</ele>
        <time>2021-11-17T13:42:42Z</time>
      </trkpt>
      <trkpt lat="46.53887" lon="0.6531">
        <ele>102.45207984373</ele>
        <time>2021-11-17T13:42:44Z</time>
      </trkpt>
      <trkpt lat="46.53884" lon="0.65311">
        <ele>102.46192998718</ele>
        <time>2021-11-17T13:42:46Z</time>
      </trkpt>
      <trkpt lat="46.53882" lon="0.65311">
        <ele>102.4557911614</ele>
        <time>2021-11-17T13:42:48Z</time>
      </trkpt>
      <trkpt lat="46.5388" lon="0.65311">
        <ele>102.51116229594</ele>
        <time>2021-11-17T13:42:50Z</time>
      </trkpt>
      <trkpt lat="46.53877" lon="0.65312">
        <ele>103.32257806789</ele>
        <time>2021-11-17T13:42:52Z</time>
      </trkpt>
      <trkpt lat="46.53875" lon="0.65312">
        <ele>102.03234459739</ele>
        <time>2021-11-17T13:42:54Z</time>
      </trkpt>
      <trkpt lat="46.53873" lon="0.65312">
        <ele>102.26078839693</ele>
        <time>2021-11-17T13:42:56Z</time>
      </trkpt>
      <trkpt lat="46.53871" lon="0.65313">
        <ele>102.47141930833</ele>
        <time>2021-11-17T13:42:58Z</time>
      </trkpt>
      <trkpt lat="46.53869" lon="0.65312">
        <ele>102.27547273412</ele>
        <time>2021-11-17T13:43:00Z</time>
      </trkpt>
      <trkpt lat="46.53866" lon="0.65312">
        <ele>102.39805471804</ele>
        <time>2021-11-17T13:43:02Z</time>
      </trkpt>
      <trkpt lat="46.53864" lon="0.65313">
        <ele>102.48009792715</ele>
        <time>2021-11-17T13:43:04Z</time>
      </trkpt>
      <trkpt lat="46.53861" lon="0.65314">
        <ele>102.75705334358</ele>
        <time>2021-11-17T13:43:06Z</time>
      </trkpt>
      <trkpt lat="46.53859" lon="0.65314">
        <ele>101.71300475951</ele>
        <time>2021-11-17T13:43:08Z</time>
      </trkpt>
      <trkpt lat="46.53857" lon="0.65315">
        <ele>102.41817593481</ele>
        <time>2021-11-17T13:43:10Z</time>
      </trkpt>
      <trkpt lat="46.53855" lon="0.65316">
        <ele>102.34860175475</ele>
        <time>2021-11-17T13:43:12Z</time>
      </trkpt>
      <trkpt lat="46.53853" lon="0.65315">
        <ele>102.43894820102</ele>
        <time>2021-11-17T13:43:14Z</time>
      </trkpt>
      <trkpt lat="46.53851" lon="0.65317">
        <ele>102.29520343989</ele>
        <time>2021-11-17T13:43:16Z</time>
      </trkpt>
      <trkpt lat="46.53848" lon="0.65317">
        <ele>102.355091759</ele>
        <time>2021-11-17T13:43:18Z</time>
      </trkpt>
      <trkpt lat="46.53846" lon="0.65317">
        <ele>102.36549750809</ele>
        <time>2021-11-17T13:43:20Z</time>
      </trkpt>
      <trkpt lat="46.53843" lon="0.65318">
        <ele>102.70927743614</ele>
        <time>2021-11-17T13:43:22Z</time>
      </trkpt>
      <trkpt lat="46.53841" lon="0.65318">
        <ele>102.46647785418</ele>
        <time>2021-11-17T13:43:24Z</time>
      </trkpt>
      <trkpt lat="46.53839" lon="0.65319">
        <ele>102.13853458501</ele>
        <time>2021-11-17T13:43:26Z</time>
      </trkpt>
      <trkpt lat="46.53836" lon="0.65319">
        <ele>102.67724357825</ele>
        <time>2021-11-17T13:43:28Z</time>
      </trkpt>
      <trkpt lat="46.53833" lon="0.65319">
        <ele>102.51032275986</ele>
        <time>2021-11-17T13:43:30Z</time>
      </trkpt>
      <trkpt lat="46.53831" lon="0.65319">
        <ele>102.76339801122</ele>
        <time>2021-11-17T13:43:32Z</time>
      </trkpt>
      <trkpt lat="46.53829" lon="0.65319">
        <ele>102.46752100345</ele>
        <time>2021-11-17T13:43:34Z</time>
      </trkpt>
      <trkpt lat="46.53827" lon="0.6532">
        <ele>102.21714549046</ele>
        <time>2021-11-17T13:43:36Z</time>
      </trkpt>
      <trkpt lat="46.53825" lon="0.6532">
        <ele>102.50808568671</ele>
        <time>2021-11-17T13:43:38Z</time>
      </trkpt>
      <trkpt lat="46.53823" lon="0.65319">
        <ele>102.73959320411</ele>
        <time>2021-11-17T13:43:40Z</time>
      </trkpt>
      <trkpt lat="46.5382" lon="0.65319">
        <ele>102.66802512575</ele>
        <time>2021-11-17T13:43:42Z</time>
      </trkpt>
      <trkpt lat="46.53818" lon="0.65319">
        <ele>102.55219963193</ele>
        <time>2021-11-17T13:43:44Z</time>
      </trkpt>
      <trkpt lat="46.53815" lon="0.65319">
        <ele>103.16366530862</ele>
        <time>2021-11-17T13:43:46Z</time>
      </trkpt>
      <trkpt lat="46.53812" lon="0.6532">
        <ele>102.94833929464</ele>
        <time>2021-11-17T13:43:48Z</time>
      </trkpt>
      <trkpt lat="46.53809" lon="0.6532">
        <ele>103.44581458159</ele>
        <time>2021-11-17T13:43:50Z</time>
      </trkpt>
      <trkpt lat="46.53806" lon="0.65321">
        <ele>103.39102035109</ele>
        <time>2021-11-17T13:43:52Z</time>
      </trkpt>
      <trkpt lat="46.53803" lon="0.65321">
        <ele>103.29029868077</ele>
        <time>2021-11-17T13:43:54Z</time>
      </trkpt>
      <trkpt lat="46.53801" lon="0.65321">
        <ele>103.33358344343</ele>
        <time>2021-11-17T13:43:56Z</time>
      </trkpt>
      <trkpt lat="46.53798" lon="0.65322">
        <ele>103.12175139971</ele>
        <time>2021-11-17T13:43:58Z</time>
      </trkpt>
      <trkpt lat="46.53795" lon="0.65323">
        <ele>103.36634865124</ele>
        <time>2021-11-17T13:44:00Z</time>
      </trkpt>
      <trkpt lat="46.53793" lon="0.65323">
        <ele>103.56675000768</ele>
        <time>2021-11-17T13:44:02Z</time>
      </trkpt>
      <trkpt lat="46.5379" lon="0.65324">
        <ele>103.24157431442</ele>
        <time>2021-11-17T13:44:04Z</time>
      </trkpt>
      <trkpt lat="46.53787" lon="0.65324">
        <ele>103.63616389316</ele>
        <time>2021-11-17T13:44:06Z</time>
      </trkpt>
      <trkpt lat="46.53785" lon="0.65325">
        <ele>103.61960385647</ele>
        <time>2021-11-17T13:44:08Z</time>
      </trkpt>
      <trkpt lat="46.53782" lon="0.65325">
        <ele>103.48062919546</ele>
        <time>2021-11-17T13:44:10Z</time>
      </trkpt>
      <trkpt lat="46.5378" lon="0.65325">
        <ele>103.73330715485</ele>
        <time>2021-11-17T13:44:12Z</time>
      </trkpt>
      <trkpt lat="46.53777" lon="0.65327">
        <ele>103.28266256396</ele>
        <time>2021-11-17T13:44:14Z</time>
      </trkpt>
      <trkpt lat="46.53774" lon="0.65328">
        <ele>103.52607547585</ele>
        <time>2021-11-17T13:44:16Z</time>
      </trkpt>
      <trkpt lat="46.53772" lon="0.65327">
        <ele>103.45591512974</ele>
        <time>2021-11-17T13:44:18Z</time>
      </trkpt>
      <trkpt lat="46.53769" lon="0.65328">
        <ele>103.27059694938</ele>
        <time>2021-11-17T13:44:20Z</time>
      </trkpt>
      <trkpt lat="46.53768" lon="0.6533">
        <ele>103.33188063465</ele>
        <time>2021-11-17T13:44:30Z</time>
      </trkpt>
      <trkpt lat="46.53766" lon="0.6533">
        <ele>103.53598508798</ele>
        <time>2021-11-17T13:44:32Z</time>
      </trkpt>
      <trkpt lat="46.53764" lon="0.6533">
        <ele>103.34400911909</ele>
        <time>2021-11-17T13:44:34Z</time>
      </trkpt>
      <trkpt lat="46.53761" lon="0.65328">
        <ele>103.15490068495</ele>
        <time>2021-11-17T13:44:37Z</time>
      </trkpt>
      <trkpt lat="46.53759" lon="0.6533">
        <ele>103.48485649936</ele>
        <time>2021-11-17T13:44:39Z</time>
      </trkpt>
      <trkpt lat="46.53757" lon="0.65332">
        <ele>103.35864751507</ele>
        <time>2021-11-17T13:44:41Z</time>
      </trkpt>
      <trkpt lat="46.53755" lon="0.65333">
        <ele>103.34370453097</ele>
        <time>2021-11-17T13:44:43Z</time>
      </trkpt>
      <trkpt lat="46.53752" lon="0.65335">
        <ele>103.38360914867</ele>
        <time>2021-11-17T13:44:45Z</time>
      </trkpt>
      <trkpt lat="46.5375" lon="0.65336">
        <ele>103.34068721533</ele>
        <time>2021-11-17T13:44:47Z</time>
      </trkpt>
      <trkpt lat="46.53747" lon="0.65337">
        <ele>104.02399983071</ele>
        <time>2021-11-17T13:44:49Z</time>
      </trkpt>
      <trkpt lat="46.53745" lon="0.65338">
        <ele>102.69153932389</ele>
        <time>2021-11-17T13:44:51Z</time>
      </trkpt>
      <trkpt lat="46.53743" lon="0.6534">
        <ele>103.66606372222</ele>
        <time>2021-11-17T13:44:53Z</time>
      </trkpt>
      <trkpt lat="46.53741" lon="0.65341">
        <ele>103.77498727664</ele>
        <time>2021-11-17T13:44:55Z</time>
      </trkpt>
      <trkpt lat="46.53738" lon="0.65342">
        <ele>103.67982587498</ele>
        <time>2021-11-17T13:44:57Z</time>
      </trkpt>
      <trkpt lat="46.53735" lon="0.65342">
        <ele>104.12158644851</ele>
        <time>2021-11-17T13:44:59Z</time>
      </trkpt>
      <trkpt lat="46.53733" lon="0.65344">
        <ele>104.01617985964</ele>
        <time>2021-11-17T13:45:01Z</time>
      </trkpt>
      <trkpt lat="46.5373" lon="0.65345">
        <ele>104.03034579381</ele>
        <time>2021-11-17T13:45:03Z</time>
      </trkpt>
      <trkpt lat="46.53729" lon="0.65347">
        <ele>104.21549886093</ele>
        <time>2021-11-17T13:45:05Z</time>
      </trkpt>
      <trkpt lat="46.53726" lon="0.65348">
        <ele>104.28836646117</ele>
        <time>2021-11-17T13:45:07Z</time>
      </trkpt>
      <trkpt lat="46.53724" lon="0.6535">
        <ele>104.2531997608</ele>
        <time>2021-11-17T13:45:09Z</time>
      </trkpt>
      <trkpt lat="46.53722" lon="0.65351">
        <ele>104.03097041696</ele>
        <time>2021-11-17T13:45:11Z</time>
      </trkpt>
      <trkpt lat="46.5372" lon="0.65352">
        <ele>104.31820966396</ele>
        <time>2021-11-17T13:45:13Z</time>
      </trkpt>
      <trkpt lat="46.53717" lon="0.65353">
        <ele>104.91269374173</ele>
        <time>2021-11-17T13:45:15Z</time>
      </trkpt>
      <trkpt lat="46.53714" lon="0.65355">
        <ele>104.67627783213</ele>
        <time>2021-11-17T13:45:17Z</time>
      </trkpt>
      <trkpt lat="46.53712" lon="0.65356">
        <ele>104.80795874353</ele>
        <time>2021-11-17T13:45:19Z</time>
      </trkpt>
      <trkpt lat="46.53709" lon="0.65358">
        <ele>104.80623322167</ele>
        <time>2021-11-17T13:45:21Z</time>
      </trkpt>
      <trkpt lat="46.53707" lon="0.65358">
        <ele>104.89602821227</ele>
        <time>2021-11-17T13:45:23Z</time>
      </trkpt>
      <trkpt lat="46.53704" lon="0.6536">
        <ele>104.61389093101</ele>
        <time>2021-11-17T13:45:25Z</time>
      </trkpt>
      <trkpt lat="46.53702" lon="0.65362">
        <ele>105.15161846299</ele>
        <time>2021-11-17T13:45:27Z</time>
      </trkpt>
      <trkpt lat="46.53699" lon="0.65363">
        <ele>105.22920883168</ele>
        <time>2021-11-17T13:45:30Z</time>
      </trkpt>
      <trkpt lat="46.53696" lon="0.65365">
        <ele>105.38033300266</ele>
        <time>2021-11-17T13:45:32Z</time>
      </trkpt>
      <trkpt lat="46.53694" lon="0.65366">
        <ele>105.83446534537</ele>
        <time>2021-11-17T13:45:34Z</time>
      </trkpt>
      <trkpt lat="46.53692" lon="0.65368">
        <ele>105.03924517427</ele>
        <time>2021-11-17T13:45:36Z</time>
      </trkpt>
      <trkpt lat="46.53689" lon="0.65369">
        <ele>105.13971855398</ele>
        <time>2021-11-17T13:45:38Z</time>
      </trkpt>
      <trkpt lat="46.53687" lon="0.65371">
        <ele>105.6982944496</ele>
        <time>2021-11-17T13:45:40Z</time>
      </trkpt>
      <trkpt lat="46.53684" lon="0.65373">
        <ele>105.43857005984</ele>
        <time>2021-11-17T13:45:42Z</time>
      </trkpt>
      <trkpt lat="46.53682" lon="0.65376">
        <ele>105.39851049986</ele>
        <time>2021-11-17T13:45:44Z</time>
      </trkpt>
      <trkpt lat="46.5368" lon="0.65377">
        <ele>105.44576138351</ele>
        <time>2021-11-17T13:45:46Z</time>
      </trkpt>
      <trkpt lat="46.53677" lon="0.65378">
        <ele>105.65366450977</ele>
        <time>2021-11-17T13:45:48Z</time>
      </trkpt>
      <trkpt lat="46.53675" lon="0.6538">
        <ele>105.44137983862</ele>
        <time>2021-11-17T13:45:50Z</time>
      </trkpt>
      <trkpt lat="46.53673" lon="0.65381">
        <ele>105.31224080082</ele>
        <time>2021-11-17T13:45:52Z</time>
      </trkpt>
      <trkpt lat="46.53671" lon="0.65382">
        <ele>105.48997316696</ele>
        <time>2021-11-17T13:45:54Z</time>
      </trkpt>
      <trkpt lat="46.53669" lon="0.65384">
        <ele>105.68116027396</ele>
        <time>2021-11-17T13:45:56Z</time>
      </trkpt>
      <trkpt lat="46.53666" lon="0.65385">
        <ele>105.06031860877</ele>
        <time>2021-11-17T13:45:58Z</time>
      </trkpt>
      <trkpt lat="46.53665" lon="0.65386">
        <ele>105.34710782301</ele>
        <time>2021-11-17T13:46:00Z</time>
      </trkpt>
      <trkpt lat="46.53662" lon="0.65388">
        <ele>105.46274168324</ele>
        <time>2021-11-17T13:46:02Z</time>
      </trkpt>
      <trkpt lat="46.53659" lon="0.65389">
        <ele>105.69914612453</ele>
        <time>2021-11-17T13:46:04Z</time>
      </trkpt>
      <trkpt lat="46.53657" lon="0.6539">
        <ele>105.56258578692</ele>
        <time>2021-11-17T13:46:06Z</time>
      </trkpt>
      <trkpt lat="46.53654" lon="0.65391">
        <ele>105.59387694858</ele>
        <time>2021-11-17T13:46:08Z</time>
      </trkpt>
      <trkpt lat="46.53652" lon="0.65393">
        <ele>105.21162504517</ele>
        <time>2021-11-17T13:46:10Z</time>
      </trkpt>
      <trkpt lat="46.5365" lon="0.65394">
        <ele>105.42317923345</ele>
        <time>2021-11-17T13:46:12Z</time>
      </trkpt>
      <trkpt lat="46.53648" lon="0.65395">
        <ele>105.10907836538</ele>
        <time>2021-11-17T13:46:14Z</time>
      </trkpt>
      <trkpt lat="46.53646" lon="0.65396">
        <ele>105.30955143645</ele>
        <time>2021-11-17T13:46:16Z</time>
      </trkpt>
      <trkpt lat="46.53644" lon="0.65397">
        <ele>105.63920541853</ele>
        <time>2021-11-17T13:46:18Z</time>
      </trkpt>
      <trkpt lat="46.53642" lon="0.65397">
        <ele>105.61237893905</ele>
        <time>2021-11-17T13:46:20Z</time>
      </trkpt>
      <trkpt lat="46.53639" lon="0.65399">
        <ele>105.2730768919</ele>
        <time>2021-11-17T13:46:22Z</time>
      </trkpt>
      <trkpt lat="46.53637" lon="0.65398">
        <ele>105.42479647882</ele>
        <time>2021-11-17T13:46:24Z</time>
      </trkpt>
      <trkpt lat="46.53635" lon="0.654">
        <ele>104.94336773548</ele>
        <time>2021-11-17T13:46:26Z</time>
      </trkpt>
      <trkpt lat="46.53633" lon="0.65401">
        <ele>104.63575180713</ele>
        <time>2021-11-17T13:46:28Z</time>
      </trkpt>
      <trkpt lat="46.53629" lon="0.65402">
        <ele>104.96450840868</ele>
        <time>2021-11-17T13:46:30Z</time>
      </trkpt>
      <trkpt lat="46.53627" lon="0.65403">
        <ele>105.32694067061</ele>
        <time>2021-11-17T13:46:32Z</time>
      </trkpt>
      <trkpt lat="46.53624" lon="0.65404">
        <ele>105.40655144677</ele>
        <time>2021-11-17T13:46:34Z</time>
      </trkpt>
      <trkpt lat="46.53622" lon="0.65404">
        <ele>105.14072743524</ele>
        <time>2021-11-17T13:46:36Z</time>
      </trkpt>
      <trkpt lat="46.5362" lon="0.65405">
        <ele>105.46974644624</ele>
        <time>2021-11-17T13:46:37Z</time>
      </trkpt>
      <trkpt lat="46.53617" lon="0.65405">
        <ele>105.4406710919</ele>
        <time>2021-11-17T13:46:39Z</time>
      </trkpt>
      <trkpt lat="46.53614" lon="0.65407">
        <ele>105.85442351457</ele>
        <time>2021-11-17T13:46:41Z</time>
      </trkpt>
      <trkpt lat="46.53611" lon="0.65408">
        <ele>105.79698092025</ele>
        <time>2021-11-17T13:46:43Z</time>
      </trkpt>
      <trkpt lat="46.53608" lon="0.65409">
        <ele>106.08282182086</ele>
        <time>2021-11-17T13:46:45Z</time>
      </trkpt>
      <trkpt lat="46.53606" lon="0.65409">
        <ele>106.1718947608</ele>
        <time>2021-11-17T13:46:47Z</time>
      </trkpt>
      <trkpt lat="46.53603" lon="0.65409">
        <ele>106.17928453349</ele>
        <time>2021-11-17T13:46:49Z</time>
      </trkpt>
      <trkpt lat="46.536" lon="0.65409">
        <ele>105.93598665111</ele>
        <time>2021-11-17T13:46:51Z</time>
      </trkpt>
      <trkpt lat="46.53598" lon="0.6541">
        <ele>106.25895955693</ele>
        <time>2021-11-17T13:46:53Z</time>
      </trkpt>
      <trkpt lat="46.53595" lon="0.65411">
        <ele>105.99810294807</ele>
        <time>2021-11-17T13:46:55Z</time>
      </trkpt>
      <trkpt lat="46.53592" lon="0.6541">
        <ele>106.82535529416</ele>
        <time>2021-11-17T13:46:57Z</time>
      </trkpt>
      <trkpt lat="46.5359" lon="0.65411">
        <ele>105.48095896654</ele>
        <time>2021-11-17T13:46:59Z</time>
      </trkpt>
      <trkpt lat="46.53587" lon="0.65411">
        <ele>106.32826504298</ele>
        <time>2021-11-17T13:47:01Z</time>
      </trkpt>
      <trkpt lat="46.53585" lon="0.65412">
        <ele>106.40194693487</ele>
        <time>2021-11-17T13:47:03Z</time>
      </trkpt>
      <trkpt lat="46.53582" lon="0.65415">
        <ele>105.85260872822</ele>
        <time>2021-11-17T13:47:08Z</time>
      </trkpt>
      <trkpt lat="46.5358" lon="0.65415">
        <ele>106.48598280363</ele>
        <time>2021-11-17T13:47:09Z</time>
      </trkpt>
      <trkpt lat="46.53578" lon="0.65415">
        <ele>106.21240445413</ele>
        <time>2021-11-17T13:47:11Z</time>
      </trkpt>
      <trkpt lat="46.53575" lon="0.65416">
        <ele>106.26483381353</ele>
        <time>2021-11-17T13:47:13Z</time>
      </trkpt>
      <trkpt lat="46.53573" lon="0.65415">
        <ele>106.33345846552</ele>
        <time>2021-11-17T13:47:15Z</time>
      </trkpt>
      <trkpt lat="46.5357" lon="0.65415">
        <ele>106.42209923174</ele>
        <time>2021-11-17T13:47:17Z</time>
      </trkpt>
      <trkpt lat="46.53567" lon="0.65414">
        <ele>106.55093210842</ele>
        <time>2021-11-17T13:47:19Z</time>
      </trkpt>
      <trkpt lat="46.53565" lon="0.65415">
        <ele>106.06842083484</ele>
        <time>2021-11-17T13:47:21Z</time>
      </trkpt>
      <trkpt lat="46.53562" lon="0.65416">
        <ele>105.9583303025</ele>
        <time>2021-11-17T13:47:23Z</time>
      </trkpt>
      <trkpt lat="46.5356" lon="0.65416">
        <ele>106.7715403717</ele>
        <time>2021-11-17T13:47:25Z</time>
      </trkpt>
      <trkpt lat="46.53558" lon="0.65415">
        <ele>106.33733361587</ele>
        <time>2021-11-17T13:47:27Z</time>
      </trkpt>
      <trkpt lat="46.53555" lon="0.65414">
        <ele>106.82358245924</ele>
        <time>2021-11-17T13:47:29Z</time>
      </trkpt>
      <trkpt lat="46.53553" lon="0.65415">
        <ele>106.54791151546</ele>
        <time>2021-11-17T13:47:31Z</time>
      </trkpt>
      <trkpt lat="46.5355" lon="0.65415">
        <ele>106.29478080198</ele>
        <time>2021-11-17T13:47:33Z</time>
      </trkpt>
      <trkpt lat="46.53548" lon="0.65415">
        <ele>106.27604576852</ele>
        <time>2021-11-17T13:47:35Z</time>
      </trkpt>
      <trkpt lat="46.53545" lon="0.65415">
        <ele>106.4742317982</ele>
        <time>2021-11-17T13:47:37Z</time>
      </trkpt>
      <trkpt lat="46.53543" lon="0.65415">
        <ele>106.34721183311</ele>
        <time>2021-11-17T13:47:39Z</time>
      </trkpt>
      <trkpt lat="46.5354" lon="0.65414">
        <ele>106.3590682568</ele>
        <time>2021-11-17T13:47:41Z</time>
      </trkpt>
      <trkpt lat="46.53537" lon="0.65414">
        <ele>106.46517562773</ele>
        <time>2021-11-17T13:47:43Z</time>
      </trkpt>
      <trkpt lat="46.53535" lon="0.65414">
        <ele>106.34700301383</ele>
        <time>2021-11-17T13:47:45Z</time>
      </trkpt>
      <trkpt lat="46.53532" lon="0.65414">
        <ele>107.04694136325</ele>
        <time>2021-11-17T13:47:47Z</time>
      </trkpt>
      <trkpt lat="46.53529" lon="0.65413">
        <ele>107.09303923231</ele>
        <time>2021-11-17T13:47:49Z</time>
      </trkpt>
      <trkpt lat="46.53527" lon="0.65413">
        <ele>105.93064861652</ele>
        <time>2021-11-17T13:47:51Z</time>
      </trkpt>
      <trkpt lat="46.53524" lon="0.65412">
        <ele>106.39659611881</ele>
        <time>2021-11-17T13:47:53Z</time>
      </trkpt>
      <trkpt lat="46.53521" lon="0.65411">
        <ele>106.74037489947</ele>
        <time>2021-11-17T13:47:55Z</time>
      </trkpt>
      <trkpt lat="46.53519" lon="0.65412">
        <ele>106.65862194821</ele>
        <time>2021-11-17T13:47:57Z</time>
      </trkpt>
      <trkpt lat="46.53516" lon="0.65411">
        <ele>106.68082721997</ele>
        <time>2021-11-17T13:47:59Z</time>
      </trkpt>
      <trkpt lat="46.53513" lon="0.65411">
        <ele>106.49338751845</ele>
        <time>2021-11-17T13:48:01Z</time>
      </trkpt>
      <trkpt lat="46.53511" lon="0.65411">
        <ele>106.45893450174</ele>
        <time>2021-11-17T13:48:03Z</time>
      </trkpt>
      <trkpt lat="46.53509" lon="0.6541">
        <ele>106.46093996521</ele>
        <time>2021-11-17T13:48:05Z</time>
      </trkpt>
      <trkpt lat="46.53505" lon="0.65409">
        <ele>106.52401011065</ele>
        <time>2021-11-17T13:48:07Z</time>
      </trkpt>
      <trkpt lat="46.53503" lon="0.65408">
        <ele>106.67626608256</ele>
        <time>2021-11-17T13:48:09Z</time>
      </trkpt>
      <trkpt lat="46.53501" lon="0.65407">
        <ele>106.2856286075</ele>
        <time>2021-11-17T13:48:11Z</time>
      </trkpt>
      <trkpt lat="46.53498" lon="0.65407">
        <ele>106.49556123931</ele>
        <time>2021-11-17T13:48:13Z</time>
      </trkpt>
      <trkpt lat="46.53496" lon="0.65406">
        <ele>106.2977242209</ele>
        <time>2021-11-17T13:48:15Z</time>
      </trkpt>
      <trkpt lat="46.53493" lon="0.65406">
        <ele>106.08809697814</ele>
        <time>2021-11-17T13:48:17Z</time>
      </trkpt>
      <trkpt lat="46.53491" lon="0.65405">
        <ele>106.55828294344</ele>
        <time>2021-11-17T13:48:19Z</time>
      </trkpt>
      <trkpt lat="46.53488" lon="0.65405">
        <ele>106.64194570668</ele>
        <time>2021-11-17T13:48:21Z</time>
      </trkpt>
      <trkpt lat="46.53485" lon="0.65405">
        <ele>106.43412743602</ele>
        <time>2021-11-17T13:48:23Z</time>
      </trkpt>
      <trkpt lat="46.53483" lon="0.65403">
        <ele>106.2421595864</ele>
        <time>2021-11-17T13:48:25Z</time>
      </trkpt>
      <trkpt lat="46.53481" lon="0.65402">
        <ele>106.52178273816</ele>
        <time>2021-11-17T13:48:27Z</time>
      </trkpt>
      <trkpt lat="46.53478" lon="0.65401">
        <ele>106.75340475701</ele>
        <time>2021-11-17T13:48:29Z</time>
      </trkpt>
      <trkpt lat="46.53475" lon="0.654">
        <ele>105.98763888236</ele>
        <time>2021-11-17T13:48:31Z</time>
      </trkpt>
      <trkpt lat="46.53473" lon="0.65399">
        <ele>106.19392262772</ele>
        <time>2021-11-17T13:48:33Z</time>
      </trkpt>
      <trkpt lat="46.5347" lon="0.65398">
        <ele>106.37852211576</ele>
        <time>2021-11-17T13:48:35Z</time>
      </trkpt>
      <trkpt lat="46.53467" lon="0.65398">
        <ele>106.61833801214</ele>
        <time>2021-11-17T13:48:37Z</time>
      </trkpt>
      <trkpt lat="46.53465" lon="0.65396">
        <ele>106.64716822747</ele>
        <time>2021-11-17T13:48:39Z</time>
      </trkpt>
      <trkpt lat="46.53463" lon="0.65395">
        <ele>106.25560027268</ele>
        <time>2021-11-17T13:48:41Z</time>
      </trkpt>
      <trkpt lat="46.5346" lon="0.65396">
        <ele>106.34872062132</ele>
        <time>2021-11-17T13:48:43Z</time>
      </trkpt>
      <trkpt lat="46.53458" lon="0.65395">
        <ele>106.19190211501</ele>
        <time>2021-11-17T13:48:45Z</time>
      </trkpt>
      <trkpt lat="46.53456" lon="0.65394">
        <ele>106.20175908692</ele>
        <time>2021-11-17T13:48:47Z</time>
      </trkpt>
      <trkpt lat="46.53453" lon="0.65394">
        <ele>106.15561983176</ele>
        <time>2021-11-17T13:48:49Z</time>
      </trkpt>
      <trkpt lat="46.53451" lon="0.65393">
        <ele>106.27508697845</ele>
        <time>2021-11-17T13:48:51Z</time>
      </trkpt>
      <trkpt lat="46.53449" lon="0.65392">
        <ele>106.11813475937</ele>
        <time>2021-11-17T13:48:53Z</time>
      </trkpt>
      <trkpt lat="46.53447" lon="0.65393">
        <ele>106.19885996357</ele>
        <time>2021-11-17T13:48:54Z</time>
      </trkpt>
      <trkpt lat="46.53444" lon="0.65392">
        <ele>106.20254127868</ele>
        <time>2021-11-17T13:48:56Z</time>
      </trkpt>
      <trkpt lat="46.53442" lon="0.65392">
        <ele>106.23732374888</ele>
        <time>2021-11-17T13:48:58Z</time>
      </trkpt>
      <trkpt lat="46.53439" lon="0.65392">
        <ele>106.10993310809</ele>
        <time>2021-11-17T13:49:00Z</time>
      </trkpt>
      <trkpt lat="46.53436" lon="0.6539">
        <ele>106.27968384605</ele>
        <time>2021-11-17T13:49:02Z</time>
      </trkpt>
      <trkpt lat="46.53434" lon="0.65389">
        <ele>106.14346483443</ele>
        <time>2021-11-17T13:49:04Z</time>
      </trkpt>
      <trkpt lat="46.53431" lon="0.65388">
        <ele>106.1756022824</ele>
        <time>2021-11-17T13:49:06Z</time>
      </trkpt>
      <trkpt lat="46.53428" lon="0.65388">
        <ele>105.98553181719</ele>
        <time>2021-11-17T13:49:08Z</time>
      </trkpt>
      <trkpt lat="46.53426" lon="0.65386">
        <ele>106.26591305155</ele>
        <time>2021-11-17T13:49:10Z</time>
      </trkpt>
      <trkpt lat="46.53424" lon="0.65385">
        <ele>106.29548901692</ele>
        <time>2021-11-17T13:49:12Z</time>
      </trkpt>
      <trkpt lat="46.53421" lon="0.65386">
        <ele>105.85886107106</ele>
        <time>2021-11-17T13:49:14Z</time>
      </trkpt>
      <trkpt lat="46.53418" lon="0.65385">
        <ele>106.29478884488</ele>
        <time>2021-11-17T13:49:16Z</time>
      </trkpt>
      <trkpt lat="46.53415" lon="0.65385">
        <ele>106.1567453118</ele>
        <time>2021-11-17T13:49:18Z</time>
      </trkpt>
      <trkpt lat="46.53413" lon="0.65384">
        <ele>106.08929480519</ele>
        <time>2021-11-17T13:49:20Z</time>
      </trkpt>
      <trkpt lat="46.5341" lon="0.65383">
        <ele>106.11745997425</ele>
        <time>2021-11-17T13:49:22Z</time>
      </trkpt>
      <trkpt lat="46.53408" lon="0.65383">
        <ele>106.37905478384</ele>
        <time>2021-11-17T13:49:24Z</time>
      </trkpt>
      <trkpt lat="46.53405" lon="0.65383">
        <ele>106.16375500895</ele>
        <time>2021-11-17T13:49:26Z</time>
      </trkpt>
      <trkpt lat="46.53402" lon="0.65382">
        <ele>106.25716314558</ele>
        <time>2021-11-17T13:49:28Z</time>
      </trkpt>
      <trkpt lat="46.53399" lon="0.65381">
        <ele>106.19289651047</ele>
        <time>2021-11-17T13:49:30Z</time>
      </trkpt>
      <trkpt lat="46.53396" lon="0.6538">
        <ele>106.07473553158</ele>
        <time>2021-11-17T13:49:32Z</time>
      </trkpt>
      <trkpt lat="46.53394" lon="0.6538">
        <ele>106.00635509379</ele>
        <time>2021-11-17T13:49:34Z</time>
      </trkpt>
      <trkpt lat="46.53391" lon="0.6538">
        <ele>106.02655685786</ele>
        <time>2021-11-17T13:49:36Z</time>
      </trkpt>
      <trkpt lat="46.53388" lon="0.6538">
        <ele>106.08233988751</ele>
        <time>2021-11-17T13:49:38Z</time>
      </trkpt>
      <trkpt lat="46.53386" lon="0.6538">
        <ele>106.2232908858</ele>
        <time>2021-11-17T13:49:40Z</time>
      </trkpt>
      <trkpt lat="46.53384" lon="0.6538">
        <ele>106.67380844709</ele>
        <time>2021-11-17T13:49:42Z</time>
      </trkpt>
      <trkpt lat="46.53381" lon="0.65379">
        <ele>105.39336572308</ele>
        <time>2021-11-17T13:49:44Z</time>
      </trkpt>
      <trkpt lat="46.53379" lon="0.6538">
        <ele>106.24099094048</ele>
        <time>2021-11-17T13:49:46Z</time>
      </trkpt>
      <trkpt lat="46.53376" lon="0.65381">
        <ele>106.04216241557</ele>
        <time>2021-11-17T13:49:48Z</time>
      </trkpt>
      <trkpt lat="46.53374" lon="0.65381">
        <ele>106.02108690049</ele>
        <time>2021-11-17T13:49:50Z</time>
      </trkpt>
      <trkpt lat="46.53372" lon="0.65381">
        <ele>105.81170079391</ele>
        <time>2021-11-17T13:49:52Z</time>
      </trkpt>
      <trkpt lat="46.53369" lon="0.6538">
        <ele>106.00720390026</ele>
        <time>2021-11-17T13:49:54Z</time>
      </trkpt>
      <trkpt lat="46.53367" lon="0.65381">
        <ele>105.61039910652</ele>
        <time>2021-11-17T13:49:56Z</time>
      </trkpt>
      <trkpt lat="46.53364" lon="0.65382">
        <ele>105.7188266227</ele>
        <time>2021-11-17T13:49:58Z</time>
      </trkpt>
      <trkpt lat="46.53362" lon="0.65382">
        <ele>105.8909408683</ele>
        <time>2021-11-17T13:50:00Z</time>
      </trkpt>
      <trkpt lat="46.5336" lon="0.65382">
        <ele>105.41945928149</ele>
        <time>2021-11-17T13:50:02Z</time>
      </trkpt>
      <trkpt lat="46.53358" lon="0.65383">
        <ele>105.23561024107</ele>
        <time>2021-11-17T13:50:05Z</time>
      </trkpt>
      <trkpt lat="46.53356" lon="0.65384">
        <ele>105.11722426582</ele>
        <time>2021-11-17T13:50:08Z</time>
      </trkpt>
      <trkpt lat="46.53353" lon="0.65382">
        <ele>105.78510685265</ele>
        <time>2021-11-17T13:50:10Z</time>
      </trkpt>
      <trkpt lat="46.53351" lon="0.6538">
        <ele>104.97065154277</ele>
        <time>2021-11-17T13:50:12Z</time>
      </trkpt>
      <trkpt lat="46.5335" lon="0.65378">
        <ele>105.28311419953</ele>
        <time>2021-11-17T13:50:14Z</time>
      </trkpt>
      <trkpt lat="46.53347" lon="0.65375">
        <ele>105.23200471047</ele>
        <time>2021-11-17T13:50:16Z</time>
      </trkpt>
      <trkpt lat="46.53345" lon="0.65375">
        <ele>105.11593787745</ele>
        <time>2021-11-17T13:50:18Z</time>
      </trkpt>
      <trkpt lat="46.53343" lon="0.65373">
        <ele>105.29385030549</ele>
        <time>2021-11-17T13:50:20Z</time>
      </trkpt>
      <trkpt lat="46.53341" lon="0.65372">
        <ele>105.2726059705</ele>
        <time>2021-11-17T13:50:22Z</time>
      </trkpt>
      <trkpt lat="46.53338" lon="0.6537">
        <ele>104.92735865805</ele>
        <time>2021-11-17T13:50:24Z</time>
      </trkpt>
      <trkpt lat="46.53337" lon="0.65368">
        <ele>105.18465100601</ele>
        <time>2021-11-17T13:50:26Z</time>
      </trkpt>
      <trkpt lat="46.53335" lon="0.65367">
        <ele>104.82130583748</ele>
        <time>2021-11-17T13:50:27Z</time>
      </trkpt>
      <trkpt lat="46.53334" lon="0.65366">
        <ele>105.2316852212</ele>
        <time>2021-11-17T13:50:29Z</time>
      </trkpt>
      <trkpt lat="46.53332" lon="0.65363">
        <ele>104.95374472532</ele>
        <time>2021-11-17T13:50:31Z</time>
      </trkpt>
      <trkpt lat="46.5333" lon="0.65361">
        <ele>104.71893326566</ele>
        <time>2021-11-17T13:50:33Z</time>
      </trkpt>
      <trkpt lat="46.53327" lon="0.65358">
        <ele>104.96238480322</ele>
        <time>2021-11-17T13:50:35Z</time>
      </trkpt>
      <trkpt lat="46.53325" lon="0.65356">
        <ele>104.88656818867</ele>
        <time>2021-11-17T13:50:37Z</time>
      </trkpt>
      <trkpt lat="46.53323" lon="0.65354">
        <ele>104.81660896633</ele>
        <time>2021-11-17T13:50:39Z</time>
      </trkpt>
      <trkpt lat="46.53322" lon="0.65352">
        <ele>105.05408211611</ele>
        <time>2021-11-17T13:50:41Z</time>
      </trkpt>
      <trkpt lat="46.5332" lon="0.65349">
        <ele>105.0275775874</ele>
        <time>2021-11-17T13:50:43Z</time>
      </trkpt>
      <trkpt lat="46.53318" lon="0.65348">
        <ele>104.92711025756</ele>
        <time>2021-11-17T13:50:45Z</time>
      </trkpt>
      <trkpt lat="46.53316" lon="0.65345">
        <ele>105.14291339833</ele>
        <time>2021-11-17T13:50:47Z</time>
      </trkpt>
      <trkpt lat="46.53314" lon="0.65343">
        <ele>105.10090056807</ele>
        <time>2021-11-17T13:50:49Z</time>
      </trkpt>
      <trkpt lat="46.53312" lon="0.65342">
        <ele>105.02854934055</ele>
        <time>2021-11-17T13:50:50Z</time>
      </trkpt>
      <trkpt lat="46.5331" lon="0.6534">
        <ele>105.06184903532</ele>
        <time>2021-11-17T13:50:52Z</time>
      </trkpt>
      <trkpt lat="46.53308" lon="0.65338">
        <ele>105.13565016445</ele>
        <time>2021-11-17T13:50:54Z</time>
      </trkpt>
      <trkpt lat="46.53306" lon="0.65335">
        <ele>105.70518110506</ele>
        <time>2021-11-17T13:50:56Z</time>
      </trkpt>
      <trkpt lat="46.53303" lon="0.65333">
        <ele>104.85628047306</ele>
        <time>2021-11-17T13:50:58Z</time>
      </trkpt>
      <trkpt lat="46.53302" lon="0.65329">
        <ele>105.12777948938</ele>
        <time>2021-11-17T13:51:00Z</time>
      </trkpt>
      <trkpt lat="46.53299" lon="0.65326">
        <ele>105.17248361278</ele>
        <time>2021-11-17T13:51:02Z</time>
      </trkpt>
      <trkpt lat="46.53297" lon="0.65325">
        <ele>105.20783879794</ele>
        <time>2021-11-17T13:51:05Z</time>
      </trkpt>
      <trkpt lat="46.53294" lon="0.65322">
        <ele>105.21047999989</ele>
        <time>2021-11-17T13:51:07Z</time>
      </trkpt>
      <trkpt lat="46.53293" lon="0.65319">
        <ele>105.1172388792</ele>
        <time>2021-11-17T13:51:09Z</time>
      </trkpt>
      <trkpt lat="46.53291" lon="0.65316">
        <ele>104.97207902558</ele>
        <time>2021-11-17T13:51:11Z</time>
      </trkpt>
      <trkpt lat="46.53288" lon="0.65312">
        <ele>105.22052955255</ele>
        <time>2021-11-17T13:51:13Z</time>
      </trkpt>
      <trkpt lat="46.53287" lon="0.6531">
        <ele>105.10208631027</ele>
        <time>2021-11-17T13:51:15Z</time>
      </trkpt>
      <trkpt lat="46.53285" lon="0.65308">
        <ele>105.13372916169</ele>
        <time>2021-11-17T13:51:17Z</time>
      </trkpt>
      <trkpt lat="46.53284" lon="0.65305">
        <ele>105.50588320289</ele>
        <time>2021-11-17T13:51:18Z</time>
      </trkpt>
      <trkpt lat="46.53282" lon="0.65303">
        <ele>105.38809929602</ele>
        <time>2021-11-17T13:51:20Z</time>
      </trkpt>
      <trkpt lat="46.5328" lon="0.653">
        <ele>105.23998566438</ele>
        <time>2021-11-17T13:51:22Z</time>
      </trkpt>
      <trkpt lat="46.53279" lon="0.65298">
        <ele>105.15809108038</ele>
        <time>2021-11-17T13:51:24Z</time>
      </trkpt>
      <trkpt lat="46.53278" lon="0.65296">
        <ele>104.83243010566</ele>
        <time>2021-11-17T13:51:25Z</time>
      </trkpt>
      <trkpt lat="46.53276" lon="0.65293">
        <ele>104.89414140861</ele>
        <time>2021-11-17T13:51:27Z</time>
      </trkpt>
      <trkpt lat="46.53275" lon="0.6529">
        <ele>104.81386227347</ele>
        <time>2021-11-17T13:51:29Z</time>
      </trkpt>
      <trkpt lat="46.53273" lon="0.65287">
        <ele>104.87185353786</ele>
        <time>2021-11-17T13:51:31Z</time>
      </trkpt>
      <trkpt lat="46.53272" lon="0.65284">
        <ele>104.87360299565</ele>
        <time>2021-11-17T13:51:33Z</time>
      </trkpt>
      <trkpt lat="46.5327" lon="0.65281">
        <ele>104.77311663236</ele>
        <time>2021-11-17T13:51:35Z</time>
      </trkpt>
      <trkpt lat="46.53268" lon="0.65278">
        <ele>104.65100403782</ele>
        <time>2021-11-17T13:51:37Z</time>
      </trkpt>
      <trkpt lat="46.53266" lon="0.65274">
        <ele>104.79344120715</ele>
        <time>2021-11-17T13:51:39Z</time>
      </trkpt>
      <trkpt lat="46.53264" lon="0.65271">
        <ele>104.35921208374</ele>
        <time>2021-11-17T13:51:41Z</time>
      </trkpt>
      <trkpt lat="46.53262" lon="0.65268">
        <ele>104.10591857042</ele>
        <time>2021-11-17T13:51:43Z</time>
      </trkpt>
      <trkpt lat="46.5326" lon="0.65266">
        <ele>103.74571191426</ele>
        <time>2021-11-17T13:51:45Z</time>
      </trkpt>
      <trkpt lat="46.53258" lon="0.65264">
        <ele>103.94286977407</ele>
        <time>2021-11-17T13:51:47Z</time>
      </trkpt>
      <trkpt lat="46.53256" lon="0.65262">
        <ele>104.12217760179</ele>
        <time>2021-11-17T13:51:49Z</time>
      </trkpt>
      <trkpt lat="46.53253" lon="0.6526">
        <ele>104.00661659334</ele>
        <time>2021-11-17T13:51:51Z</time>
      </trkpt>
      <trkpt lat="46.53251" lon="0.65259">
        <ele>104.15215784591</ele>
        <time>2021-11-17T13:51:53Z</time>
      </trkpt>
      <trkpt lat="46.53249" lon="0.65258">
        <ele>104.28717355989</ele>
        <time>2021-11-17T13:51:54Z</time>
      </trkpt>
      <trkpt lat="46.53246" lon="0.65258">
        <ele>103.79322701506</ele>
        <time>2021-11-17T13:51:56Z</time>
      </trkpt>
      <trkpt lat="46.53244" lon="0.65257">
        <ele>103.80752755608</ele>
        <time>2021-11-17T13:51:58Z</time>
      </trkpt>
      <trkpt lat="46.53242" lon="0.65256">
        <ele>104.18914588541</ele>
        <time>2021-11-17T13:51:59Z</time>
      </trkpt>
      <trkpt lat="46.53239" lon="0.65257">
        <ele>104.27578338236</ele>
        <time>2021-11-17T13:52:01Z</time>
      </trkpt>
      <trkpt lat="46.53237" lon="0.65256">
        <ele>104.09092264436</ele>
        <time>2021-11-17T13:52:03Z</time>
      </trkpt>
      <trkpt lat="46.53234" lon="0.65256">
        <ele>103.89975931961</ele>
        <time>2021-11-17T13:52:05Z</time>
      </trkpt>
      <trkpt lat="46.53232" lon="0.65256">
        <ele>103.8798651984</ele>
        <time>2021-11-17T13:52:07Z</time>
      </trkpt>
      <trkpt lat="46.53229" lon="0.65256">
        <ele>103.42128357105</ele>
        <time>2021-11-17T13:52:09Z</time>
      </trkpt>
      <trkpt lat="46.53227" lon="0.65256">
        <ele>103.6155299535</ele>
        <time>2021-11-17T13:52:11Z</time>
      </trkpt>
      <trkpt lat="46.53224" lon="0.65254">
        <ele>103.52939208876</ele>
        <time>2021-11-17T13:52:13Z</time>
      </trkpt>
      <trkpt lat="46.53221" lon="0.65253">
        <ele>103.55894424394</ele>
        <time>2021-11-17T13:52:15Z</time>
      </trkpt>
      <trkpt lat="46.53218" lon="0.65252">
        <ele>103.42787324078</ele>
        <time>2021-11-17T13:52:17Z</time>
      </trkpt>
      <trkpt lat="46.53216" lon="0.65251">
        <ele>103.60609907284</ele>
        <time>2021-11-17T13:52:19Z</time>
      </trkpt>
      <trkpt lat="46.53213" lon="0.6525">
        <ele>103.50866313651</ele>
        <time>2021-11-17T13:52:21Z</time>
      </trkpt>
      <trkpt lat="46.5321" lon="0.65249">
        <ele>103.69225738291</ele>
        <time>2021-11-17T13:52:23Z</time>
      </trkpt>
      <trkpt lat="46.53208" lon="0.65249">
        <ele>103.60485955793</ele>
        <time>2021-11-17T13:52:25Z</time>
      </trkpt>
      <trkpt lat="46.53205" lon="0.65247">
        <ele>103.89188055135</ele>
        <time>2021-11-17T13:52:27Z</time>
      </trkpt>
      <trkpt lat="46.53202" lon="0.65247">
        <ele>104.05860355776</ele>
        <time>2021-11-17T13:52:29Z</time>
      </trkpt>
      <trkpt lat="46.532" lon="0.65246">
        <ele>103.98070683703</ele>
        <time>2021-11-17T13:52:31Z</time>
      </trkpt>
      <trkpt lat="46.53198" lon="0.65244">
        <ele>104.06245295703</ele>
        <time>2021-11-17T13:52:33Z</time>
      </trkpt>
      <trkpt lat="46.53195" lon="0.65245">
        <ele>104.69058587402</ele>
        <time>2021-11-17T13:52:35Z</time>
      </trkpt>
      <trkpt lat="46.53192" lon="0.65244">
        <ele>104.0376483351</ele>
        <time>2021-11-17T13:52:37Z</time>
      </trkpt>
      <trkpt lat="46.5319" lon="0.65243">
        <ele>103.52194512263</ele>
        <time>2021-11-17T13:52:39Z</time>
      </trkpt>
      <trkpt lat="46.53187" lon="0.65242">
        <ele>103.38621151727</ele>
        <time>2021-11-17T13:52:41Z</time>
      </trkpt>
      <trkpt lat="46.53184" lon="0.65241">
        <ele>103.90690570697</ele>
        <time>2021-11-17T13:52:43Z</time>
      </trkpt>
      <trkpt lat="46.53182" lon="0.6524">
        <ele>103.65401366726</ele>
        <time>2021-11-17T13:52:45Z</time>
      </trkpt>
      <trkpt lat="46.53179" lon="0.65239">
        <ele>103.99310443271</ele>
        <time>2021-11-17T13:52:47Z</time>
      </trkpt>
      <trkpt lat="46.53177" lon="0.65239">
        <ele>103.91051918827</ele>
        <time>2021-11-17T13:52:49Z</time>
      </trkpt>
      <trkpt lat="46.53174" lon="0.65238">
        <ele>104.0456154421</ele>
        <time>2021-11-17T13:52:51Z</time>
      </trkpt>
      <trkpt lat="46.53171" lon="0.65238">
        <ele>103.99947395176</ele>
        <time>2021-11-17T13:52:53Z</time>
      </trkpt>
      <trkpt lat="46.53168" lon="0.65237">
        <ele>103.70396053139</ele>
        <time>2021-11-17T13:52:55Z</time>
      </trkpt>
      <trkpt lat="46.53166" lon="0.65236">
        <ele>103.94212086499</ele>
        <time>2021-11-17T13:52:57Z</time>
      </trkpt>
      <trkpt lat="46.53163" lon="0.65235">
        <ele>104.00152519252</ele>
        <time>2021-11-17T13:52:59Z</time>
      </trkpt>
      <trkpt lat="46.5316" lon="0.65234">
        <ele>103.95228521246</ele>
        <time>2021-11-17T13:53:01Z</time>
      </trkpt>
      <trkpt lat="46.53158" lon="0.65233">
        <ele>103.95783116017</ele>
        <time>2021-11-17T13:53:03Z</time>
      </trkpt>
      <trkpt lat="46.53155" lon="0.65233">
        <ele>103.97327602841</ele>
        <time>2021-11-17T13:53:05Z</time>
      </trkpt>
      <trkpt lat="46.53152" lon="0.65233">
        <ele>103.89609838743</ele>
        <time>2021-11-17T13:53:07Z</time>
      </trkpt>
      <trkpt lat="46.53151" lon="0.65232">
        <ele>103.9954500841</ele>
        <time>2021-11-17T13:53:08Z</time>
      </trkpt>
      <trkpt lat="46.53148" lon="0.65231">
        <ele>103.97985870298</ele>
        <time>2021-11-17T13:53:10Z</time>
      </trkpt>
      <trkpt lat="46.53145" lon="0.65231">
        <ele>104.11616779398</ele>
        <time>2021-11-17T13:53:12Z</time>
      </trkpt>
      <trkpt lat="46.53142" lon="0.6523">
        <ele>104.23934321757</ele>
        <time>2021-11-17T13:53:14Z</time>
      </trkpt>
      <trkpt lat="46.53139" lon="0.65228">
        <ele>104.11016325187</ele>
        <time>2021-11-17T13:53:16Z</time>
      </trkpt>
      <trkpt lat="46.53137" lon="0.65228">
        <ele>104.58133506682</ele>
        <time>2021-11-17T13:53:18Z</time>
      </trkpt>
      <trkpt lat="46.53134" lon="0.65227">
        <ele>104.45149229281</ele>
        <time>2021-11-17T13:53:20Z</time>
      </trkpt>
      <trkpt lat="46.53131" lon="0.65225">
        <ele>104.38624962326</ele>
        <time>2021-11-17T13:53:22Z</time>
      </trkpt>
      <trkpt lat="46.53129" lon="0.65225">
        <ele>104.37549294531</ele>
        <time>2021-11-17T13:53:24Z</time>
      </trkpt>
      <trkpt lat="46.53127" lon="0.65224">
        <ele>104.23969071638</ele>
        <time>2021-11-17T13:53:26Z</time>
      </trkpt>
      <trkpt lat="46.53124" lon="0.65223">
        <ele>104.50249947049</ele>
        <time>2021-11-17T13:53:28Z</time>
      </trkpt>
      <trkpt lat="46.53121" lon="0.65221">
        <ele>104.94323079754</ele>
        <time>2021-11-17T13:53:30Z</time>
      </trkpt>
      <trkpt lat="46.53118" lon="0.65222">
        <ele>104.75694959238</ele>
        <time>2021-11-17T13:53:32Z</time>
      </trkpt>
      <trkpt lat="46.53116" lon="0.6522">
        <ele>104.63478143699</ele>
        <time>2021-11-17T13:53:34Z</time>
      </trkpt>
      <trkpt lat="46.53113" lon="0.6522">
        <ele>104.32326471433</ele>
        <time>2021-11-17T13:53:36Z</time>
      </trkpt>
      <trkpt lat="46.53111" lon="0.65219">
        <ele>103.94590507541</ele>
        <time>2021-11-17T13:53:38Z</time>
      </trkpt>
      <trkpt lat="46.53108" lon="0.65218">
        <ele>104.68956081569</ele>
        <time>2021-11-17T13:53:40Z</time>
      </trkpt>
      <trkpt lat="46.53105" lon="0.65218">
        <ele>104.54172440805</ele>
        <time>2021-11-17T13:53:42Z</time>
      </trkpt>
      <trkpt lat="46.53102" lon="0.65217">
        <ele>104.31348939519</ele>
        <time>2021-11-17T13:53:44Z</time>
      </trkpt>
      <trkpt lat="46.531" lon="0.65216">
        <ele>104.51343352813</ele>
        <time>2021-11-17T13:53:46Z</time>
      </trkpt>
      <trkpt lat="46.53097" lon="0.65215">
        <ele>104.3351285141</ele>
        <time>2021-11-17T13:53:48Z</time>
      </trkpt>
      <trkpt lat="46.53094" lon="0.65215">
        <ele>104.80854924582</ele>
        <time>2021-11-17T13:53:50Z</time>
      </trkpt>
      <trkpt lat="46.53091" lon="0.65214">
        <ele>104.44632364064</ele>
        <time>2021-11-17T13:53:52Z</time>
      </trkpt>
      <trkpt lat="46.53089" lon="0.65214">
        <ele>104.51519540418</ele>
        <time>2021-11-17T13:53:54Z</time>
      </trkpt>
      <trkpt lat="46.53087" lon="0.65213">
        <ele>104.50563876983</ele>
        <time>2021-11-17T13:53:56Z</time>
      </trkpt>
      <trkpt lat="46.53084" lon="0.65212">
        <ele>104.73066310771</ele>
        <time>2021-11-17T13:53:58Z</time>
      </trkpt>
      <trkpt lat="46.53081" lon="0.65212">
        <ele>104.92066718359</ele>
        <time>2021-11-17T13:54:00Z</time>
      </trkpt>
      <trkpt lat="46.53079" lon="0.65212">
        <ele>104.84641695395</ele>
        <time>2021-11-17T13:54:02Z</time>
      </trkpt>
      <trkpt lat="46.53076" lon="0.65212">
        <ele>103.97174668871</ele>
        <time>2021-11-17T13:54:04Z</time>
      </trkpt>
      <trkpt lat="46.53074" lon="0.65211">
        <ele>104.58256209642</ele>
        <time>2021-11-17T13:54:06Z</time>
      </trkpt>
      <trkpt lat="46.53071" lon="0.6521">
        <ele>104.24280607514</ele>
        <time>2021-11-17T13:54:08Z</time>
      </trkpt>
      <trkpt lat="46.53068" lon="0.6521">
        <ele>104.53316289373</ele>
        <time>2021-11-17T13:54:10Z</time>
      </trkpt>
      <trkpt lat="46.53066" lon="0.65209">
        <ele>104.60409954749</ele>
        <time>2021-11-17T13:54:12Z</time>
      </trkpt>
      <trkpt lat="46.53063" lon="0.65209">
        <ele>104.73289118707</ele>
        <time>2021-11-17T13:54:14Z</time>
      </trkpt>
      <trkpt lat="46.5306" lon="0.65208">
        <ele>104.45975503977</ele>
        <time>2021-11-17T13:54:16Z</time>
      </trkpt>
      <trkpt lat="46.53058" lon="0.65207">
        <ele>104.61542799138</ele>
        <time>2021-11-17T13:54:18Z</time>
      </trkpt>
      <trkpt lat="46.53055" lon="0.65207">
        <ele>104.41196519602</ele>
        <time>2021-11-17T13:54:20Z</time>
      </trkpt>
      <trkpt lat="46.53053" lon="0.65206">
        <ele>104.52416088525</ele>
        <time>2021-11-17T13:54:22Z</time>
      </trkpt>
      <trkpt lat="46.53051" lon="0.65206">
        <ele>104.42735110689</ele>
        <time>2021-11-17T13:54:23Z</time>
      </trkpt>
      <trkpt lat="46.53048" lon="0.65206">
        <ele>104.22671768628</ele>
        <time>2021-11-17T13:54:25Z</time>
      </trkpt>
      <trkpt lat="46.53046" lon="0.65206">
        <ele>104.58258185349</ele>
        <time>2021-11-17T13:54:27Z</time>
      </trkpt>
      <trkpt lat="46.53043" lon="0.65205">
        <ele>104.53401037119</ele>
        <time>2021-11-17T13:54:29Z</time>
      </trkpt>
      <trkpt lat="46.5304" lon="0.65205">
        <ele>104.15541697759</ele>
        <time>2021-11-17T13:54:31Z</time>
      </trkpt>
      <trkpt lat="46.53038" lon="0.65204">
        <ele>104.51115152985</ele>
        <time>2021-11-17T13:54:33Z</time>
      </trkpt>
      <trkpt lat="46.53035" lon="0.65203">
        <ele>104.08987862244</ele>
        <time>2021-11-17T13:54:35Z</time>
      </trkpt>
      <trkpt lat="46.53034" lon="0.65203">
        <ele>104.53352459241</ele>
        <time>2021-11-17T13:54:36Z</time>
      </trkpt>
      <trkpt lat="46.53031" lon="0.65202">
        <ele>104.63295718096</ele>
        <time>2021-11-17T13:54:38Z</time>
      </trkpt>
      <trkpt lat="46.53028" lon="0.65202">
        <ele>104.41534831561</ele>
        <time>2021-11-17T13:54:40Z</time>
      </trkpt>
      <trkpt lat="46.53026" lon="0.65202">
        <ele>104.6687956769</ele>
        <time>2021-11-17T13:54:42Z</time>
      </trkpt>
      <trkpt lat="46.53023" lon="0.65201">
        <ele>104.38428075518</ele>
        <time>2021-11-17T13:54:44Z</time>
      </trkpt>
      <trkpt lat="46.53021" lon="0.65199">
        <ele>104.31611670088</ele>
        <time>2021-11-17T13:54:46Z</time>
      </trkpt>
      <trkpt lat="46.53018" lon="0.65199">
        <ele>103.86421926506</ele>
        <time>2021-11-17T13:54:48Z</time>
      </trkpt>
      <trkpt lat="46.53016" lon="0.65199">
        <ele>104.09157351777</ele>
        <time>2021-11-17T13:54:50Z</time>
      </trkpt>
      <trkpt lat="46.53014" lon="0.65199">
        <ele>103.91001298465</ele>
        <time>2021-11-17T13:54:52Z</time>
      </trkpt>
      <trkpt lat="46.53011" lon="0.65199">
        <ele>104.09606500156</ele>
        <time>2021-11-17T13:54:54Z</time>
      </trkpt>
      <trkpt lat="46.53009" lon="0.65198">
        <ele>103.97083428409</ele>
        <time>2021-11-17T13:54:56Z</time>
      </trkpt>
      <trkpt lat="46.53007" lon="0.65198">
        <ele>103.67385733593</ele>
        <time>2021-11-17T13:54:58Z</time>
      </trkpt>
      <trkpt lat="46.53005" lon="0.65198">
        <ele>103.79277124349</ele>
        <time>2021-11-17T13:55:01Z</time>
      </trkpt>
      <trkpt lat="46.53002" lon="0.65198">
        <ele>103.57000657264</ele>
        <time>2021-11-17T13:55:10Z</time>
      </trkpt>
      <trkpt lat="46.53003" lon="0.652">
        <ele>103.57159424946</ele>
        <time>2021-11-17T13:55:24Z</time>
      </trkpt>
      <trkpt lat="46.53002" lon="0.65203">
        <ele>103.38651432749</ele>
        <time>2021-11-17T13:55:28Z</time>
      </trkpt>
      <trkpt lat="46.53001" lon="0.65205">
        <ele>103.7061397545</ele>
        <time>2021-11-17T13:55:30Z</time>
      </trkpt>
      <trkpt lat="46.53" lon="0.65209">
        <ele>103.19541096222</ele>
        <time>2021-11-17T13:55:33Z</time>
      </trkpt>
      <trkpt lat="46.52999" lon="0.65212">
        <ele>102.79907529242</ele>
        <time>2021-11-17T13:55:36Z</time>
      </trkpt>
      <trkpt lat="46.52998" lon="0.65215">
        <ele>103.28787527047</ele>
        <time>2021-11-17T13:55:38Z</time>
      </trkpt>
      <trkpt lat="46.52997" lon="0.65218">
        <ele>103.4109282447</ele>
        <time>2021-11-17T13:55:40Z</time>
      </trkpt>
      <trkpt lat="46.52996" lon="0.6522">
        <ele>103.30016664416</ele>
        <time>2021-11-17T13:55:42Z</time>
      </trkpt>
      <trkpt lat="46.52996" lon="0.65223">
        <ele>103.23149573337</ele>
        <time>2021-11-17T13:55:44Z</time>
      </trkpt>
      <trkpt lat="46.52995" lon="0.65227">
        <ele>103.26853091642</ele>
        <time>2021-11-17T13:55:46Z</time>
      </trkpt>
      <trkpt lat="46.52995" lon="0.6523">
        <ele>103.0606851168</ele>
        <time>2021-11-17T13:55:48Z</time>
      </trkpt>
      <trkpt lat="46.52994" lon="0.65234">
        <ele>103.4204480974</ele>
        <time>2021-11-17T13:55:50Z</time>
      </trkpt>
      <trkpt lat="46.52994" lon="0.65238">
        <ele>103.29520030878</ele>
        <time>2021-11-17T13:55:52Z</time>
      </trkpt>
      <trkpt lat="46.52993" lon="0.65241">
        <ele>102.91880417522</ele>
        <time>2021-11-17T13:55:54Z</time>
      </trkpt>
      <trkpt lat="46.52993" lon="0.65245">
        <ele>103.11393684428</ele>
        <time>2021-11-17T13:55:56Z</time>
      </trkpt>
      <trkpt lat="46.52992" lon="0.65248">
        <ele>103.3003396932</ele>
        <time>2021-11-17T13:55:58Z</time>
      </trkpt>
      <trkpt lat="46.52991" lon="0.65252">
        <ele>104.00121187232</ele>
        <time>2021-11-17T13:56:00Z</time>
      </trkpt>
      <trkpt lat="46.52991" lon="0.65256">
        <ele>102.45909624081</ele>
        <time>2021-11-17T13:56:02Z</time>
      </trkpt>
      <trkpt lat="46.5299" lon="0.6526">
        <ele>103.32633382827</ele>
        <time>2021-11-17T13:56:04Z</time>
      </trkpt>
      <trkpt lat="46.5299" lon="0.65263">
        <ele>103.30660570692</ele>
        <time>2021-11-17T13:56:06Z</time>
      </trkpt>
      <trkpt lat="46.52989" lon="0.65266">
        <ele>103.45570105873</ele>
        <time>2021-11-17T13:56:07Z</time>
      </trkpt>
      <trkpt lat="46.52989" lon="0.6527">
        <ele>103.64943603799</ele>
        <time>2021-11-17T13:56:09Z</time>
      </trkpt>
      <trkpt lat="46.52989" lon="0.65272">
        <ele>103.85178461298</ele>
        <time>2021-11-17T13:56:11Z</time>
      </trkpt>
      <trkpt lat="46.52988" lon="0.65276">
        <ele>103.86453153007</ele>
        <time>2021-11-17T13:56:13Z</time>
      </trkpt>
      <trkpt lat="46.52987" lon="0.6528">
        <ele>104.15870539285</ele>
        <time>2021-11-17T13:56:15Z</time>
      </trkpt>
      <trkpt lat="46.52986" lon="0.65284">
        <ele>103.89566889033</ele>
        <time>2021-11-17T13:56:17Z</time>
      </trkpt>
      <trkpt lat="46.52986" lon="0.65287">
        <ele>104.19208789151</ele>
        <time>2021-11-17T13:56:19Z</time>
      </trkpt>
      <trkpt lat="46.52985" lon="0.65291">
        <ele>103.70629785024</ele>
        <time>2021-11-17T13:56:21Z</time>
      </trkpt>
      <trkpt lat="46.52984" lon="0.65294">
        <ele>104.26840350498</ele>
        <time>2021-11-17T13:56:23Z</time>
      </trkpt>
      <trkpt lat="46.52983" lon="0.65297">
        <ele>104.37264802214</ele>
        <time>2021-11-17T13:56:25Z</time>
      </trkpt>
      <trkpt lat="46.52982" lon="0.65299">
        <ele>103.9959887797</ele>
        <time>2021-11-17T13:56:27Z</time>
      </trkpt>
      <trkpt lat="46.5298" lon="0.65302">
        <ele>104.77907280624</ele>
        <time>2021-11-17T13:56:29Z</time>
      </trkpt>
      <trkpt lat="46.52979" lon="0.65305">
        <ele>104.42690074351</ele>
        <time>2021-11-17T13:56:31Z</time>
      </trkpt>
      <trkpt lat="46.52977" lon="0.65308">
        <ele>104.12796160113</ele>
        <time>2021-11-17T13:56:33Z</time>
      </trkpt>
      <trkpt lat="46.52976" lon="0.65308">
        <ele>104.63482643943</ele>
        <time>2021-11-17T13:56:34Z</time>
      </trkpt>
      <trkpt lat="46.52974" lon="0.65309">
        <ele>104.48719716072</ele>
        <time>2021-11-17T13:56:36Z</time>
      </trkpt>
      <trkpt lat="46.5297" lon="0.6531">
        <ele>103.90886250976</ele>
        <time>2021-11-17T13:56:38Z</time>
      </trkpt>
      <trkpt lat="46.52968" lon="0.65309">
        <ele>104.26507163327</ele>
        <time>2021-11-17T13:56:40Z</time>
      </trkpt>
      <trkpt lat="46.52965" lon="0.65309">
        <ele>104.35669816658</ele>
        <time>2021-11-17T13:56:42Z</time>
      </trkpt>
      <trkpt lat="46.52963" lon="0.65309">
        <ele>104.0912584709</ele>
        <time>2021-11-17T13:56:44Z</time>
      </trkpt>
      <trkpt lat="46.52961" lon="0.6531">
        <ele>104.1832080204</ele>
        <time>2021-11-17T13:56:46Z</time>
      </trkpt>
      <trkpt lat="46.52958" lon="0.6531">
        <ele>104.86192496959</ele>
        <time>2021-11-17T13:56:48Z</time>
      </trkpt>
      <trkpt lat="46.52956" lon="0.6531">
        <ele>104.0147329364</ele>
        <time>2021-11-17T13:56:50Z</time>
      </trkpt>
      <trkpt lat="46.52954" lon="0.6531">
        <ele>104.45971761551</ele>
        <time>2021-11-17T13:56:52Z</time>
      </trkpt>
      <trkpt lat="46.52951" lon="0.65309">
        <ele>104.57969897985</ele>
        <time>2021-11-17T13:56:54Z</time>
      </trkpt>
      <trkpt lat="46.52948" lon="0.65308">
        <ele>104.77090568561</ele>
        <time>2021-11-17T13:56:56Z</time>
      </trkpt>
      <trkpt lat="46.52946" lon="0.65308">
        <ele>105.13638035953</ele>
        <time>2021-11-17T13:56:58Z</time>
      </trkpt>
      <trkpt lat="46.52944" lon="0.65308">
        <ele>104.29683081992</ele>
        <time>2021-11-17T13:57:00Z</time>
      </trkpt>
      <trkpt lat="46.52942" lon="0.65308">
        <ele>104.47084580269</ele>
        <time>2021-11-17T13:57:02Z</time>
      </trkpt>
      <trkpt lat="46.52938" lon="0.65308">
        <ele>104.4333645869</ele>
        <time>2021-11-17T13:57:04Z</time>
      </trkpt>
      <trkpt lat="46.52934" lon="0.65308">
        <ele>104.34334656969</ele>
        <time>2021-11-17T13:57:07Z</time>
      </trkpt>
      <trkpt lat="46.52932" lon="0.65307">
        <ele>104.42806551233</ele>
        <time>2021-11-17T13:57:09Z</time>
      </trkpt>
      <trkpt lat="46.5293" lon="0.65308">
        <ele>104.44977905694</ele>
        <time>2021-11-17T13:57:11Z</time>
      </trkpt>
      <trkpt lat="46.52927" lon="0.65307">
        <ele>104.39739296678</ele>
        <time>2021-11-17T13:57:13Z</time>
      </trkpt>
      <trkpt lat="46.52925" lon="0.65306">
        <ele>104.29420062061</ele>
        <time>2021-11-17T13:57:15Z</time>
      </trkpt>
      <trkpt lat="46.52922" lon="0.65306">
        <ele>104.35904612765</ele>
        <time>2021-11-17T13:57:17Z</time>
      </trkpt>
      <trkpt lat="46.52919" lon="0.65305">
        <ele>104.52590639796</ele>
        <time>2021-11-17T13:57:19Z</time>
      </trkpt>
      <trkpt lat="46.52917" lon="0.65304">
        <ele>104.55974312965</ele>
        <time>2021-11-17T13:57:21Z</time>
      </trkpt>
      <trkpt lat="46.52914" lon="0.65304">
        <ele>104.89381863084</ele>
        <time>2021-11-17T13:57:23Z</time>
      </trkpt>
      <trkpt lat="46.52912" lon="0.65305">
        <ele>104.14156242553</ele>
        <time>2021-11-17T13:57:25Z</time>
      </trkpt>
      <trkpt lat="46.52909" lon="0.65304">
        <ele>104.67697350308</ele>
        <time>2021-11-17T13:57:27Z</time>
      </trkpt>
      <trkpt lat="46.52906" lon="0.65303">
        <ele>104.73823556863</ele>
        <time>2021-11-17T13:57:29Z</time>
      </trkpt>
      <trkpt lat="46.52904" lon="0.65303">
        <ele>104.89496373292</ele>
        <time>2021-11-17T13:57:31Z</time>
      </trkpt>
      <trkpt lat="46.52901" lon="0.65303">
        <ele>104.79535238259</ele>
        <time>2021-11-17T13:57:33Z</time>
      </trkpt>
      <trkpt lat="46.52898" lon="0.65303">
        <ele>104.65740063041</ele>
        <time>2021-11-17T13:57:35Z</time>
      </trkpt>
      <trkpt lat="46.52896" lon="0.65301">
        <ele>105.2790310625</ele>
        <time>2021-11-17T13:57:37Z</time>
      </trkpt>
      <trkpt lat="46.52893" lon="0.65301">
        <ele>105.52026947029</ele>
        <time>2021-11-17T13:57:39Z</time>
      </trkpt>
      <trkpt lat="46.5289" lon="0.65301">
        <ele>105.33631088771</ele>
        <time>2021-11-17T13:57:42Z</time>
      </trkpt>
      <trkpt lat="46.52887" lon="0.65301">
        <ele>105.45749113988</ele>
        <time>2021-11-17T13:57:44Z</time>
      </trkpt>
      <trkpt lat="46.52885" lon="0.653">
        <ele>105.09187949914</ele>
        <time>2021-11-17T13:57:46Z</time>
      </trkpt>
      <trkpt lat="46.52882" lon="0.653">
        <ele>105.41846601665</ele>
        <time>2021-11-17T13:57:48Z</time>
      </trkpt>
      <trkpt lat="46.5288" lon="0.653">
        <ele>105.08503355086</ele>
        <time>2021-11-17T13:57:50Z</time>
      </trkpt>
      <trkpt lat="46.52877" lon="0.653">
        <ele>105.84467605874</ele>
        <time>2021-11-17T13:57:52Z</time>
      </trkpt>
      <trkpt lat="46.52874" lon="0.65299">
        <ele>105.28046162147</ele>
        <time>2021-11-17T13:57:54Z</time>
      </trkpt>
      <trkpt lat="46.52872" lon="0.65299">
        <ele>104.93226958811</ele>
        <time>2021-11-17T13:57:56Z</time>
      </trkpt>
      <trkpt lat="46.52869" lon="0.65298">
        <ele>105.57206117082</ele>
        <time>2021-11-17T13:57:58Z</time>
      </trkpt>
      <trkpt lat="46.52866" lon="0.65298">
        <ele>105.41199776623</ele>
        <time>2021-11-17T13:58:00Z</time>
      </trkpt>
      <trkpt lat="46.52864" lon="0.65298">
        <ele>105.25524162501</ele>
        <time>2021-11-17T13:58:02Z</time>
      </trkpt>
      <trkpt lat="46.52861" lon="0.65298">
        <ele>105.76953124721</ele>
        <time>2021-11-17T13:58:04Z</time>
      </trkpt>
      <trkpt lat="46.52859" lon="0.65299">
        <ele>105.37363920361</ele>
        <time>2021-11-17T13:58:06Z</time>
      </trkpt>
      <trkpt lat="46.52857" lon="0.65299">
        <ele>105.24094424862</ele>
        <time>2021-11-17T13:58:08Z</time>
      </trkpt>
      <trkpt lat="46.52854" lon="0.653">
        <ele>105.63054792583</ele>
        <time>2021-11-17T13:58:10Z</time>
      </trkpt>
      <trkpt lat="46.52851" lon="0.653">
        <ele>105.72749905754</ele>
        <time>2021-11-17T13:58:12Z</time>
      </trkpt>
      <trkpt lat="46.52848" lon="0.653">
        <ele>105.58360165078</ele>
        <time>2021-11-17T13:58:15Z</time>
      </trkpt>
      <trkpt lat="46.52845" lon="0.65302">
        <ele>105.613316481</ele>
        <time>2021-11-17T13:58:17Z</time>
      </trkpt>
      <trkpt lat="46.52843" lon="0.65302">
        <ele>106.2967462698</ele>
        <time>2021-11-17T13:58:19Z</time>
      </trkpt>
      <trkpt lat="46.5284" lon="0.65303">
        <ele>105.49127453286</ele>
        <time>2021-11-17T13:58:21Z</time>
      </trkpt>
      <trkpt lat="46.52838" lon="0.65304">
        <ele>106.13114899583</ele>
        <time>2021-11-17T13:58:23Z</time>
      </trkpt>
      <trkpt lat="46.52835" lon="0.65305">
        <ele>106.37692138739</ele>
        <time>2021-11-17T13:58:25Z</time>
      </trkpt>
      <trkpt lat="46.52832" lon="0.65306">
        <ele>106.4195207227</ele>
        <time>2021-11-17T13:58:27Z</time>
      </trkpt>
      <trkpt lat="46.5283" lon="0.65307">
        <ele>106.29945502803</ele>
        <time>2021-11-17T13:58:29Z</time>
      </trkpt>
      <trkpt lat="46.52828" lon="0.65308">
        <ele>106.3364019366</ele>
        <time>2021-11-17T13:58:31Z</time>
      </trkpt>
      <trkpt lat="46.52825" lon="0.65308">
        <ele>106.41001908202</ele>
        <time>2021-11-17T13:58:33Z</time>
      </trkpt>
      <trkpt lat="46.52822" lon="0.65309">
        <ele>106.68526707403</ele>
        <time>2021-11-17T13:58:35Z</time>
      </trkpt>
      <trkpt lat="46.5282" lon="0.6531">
        <ele>106.28220881335</ele>
        <time>2021-11-17T13:58:37Z</time>
      </trkpt>
      <trkpt lat="46.52817" lon="0.65311">
        <ele>106.36210642662</ele>
        <time>2021-11-17T13:58:39Z</time>
      </trkpt>
      <trkpt lat="46.52816" lon="0.65312">
        <ele>106.48296355456</ele>
        <time>2021-11-17T13:58:40Z</time>
      </trkpt>
      <trkpt lat="46.52814" lon="0.65313">
        <ele>106.35936650541</ele>
        <time>2021-11-17T13:58:42Z</time>
      </trkpt>
      <trkpt lat="46.52812" lon="0.65313">
        <ele>106.30139961094</ele>
        <time>2021-11-17T13:58:43Z</time>
      </trkpt>
      <trkpt lat="46.5281" lon="0.65314">
        <ele>106.31840314157</ele>
        <time>2021-11-17T13:58:45Z</time>
      </trkpt>
      <trkpt lat="46.52807" lon="0.65314">
        <ele>106.62329957914</ele>
        <time>2021-11-17T13:58:47Z</time>
      </trkpt>
      <trkpt lat="46.52807" lon="0.65317">
        <ele>106.30510028638</ele>
        <time>2021-11-17T13:58:54Z</time>
      </trkpt>
      <trkpt lat="46.52805" lon="0.65319">
        <ele>106.57719483506</ele>
        <time>2021-11-17T13:59:45Z</time>
      </trkpt>
      <trkpt lat="46.52802" lon="0.65319">
        <ele>106.43172885384</ele>
        <time>2021-11-17T13:59:48Z</time>
      </trkpt>
      <trkpt lat="46.528" lon="0.6532">
        <ele>106.98604440317</ele>
        <time>2021-11-17T13:59:50Z</time>
      </trkpt>
      <trkpt lat="46.52798" lon="0.6532">
        <ele>105.68286709581</ele>
        <time>2021-11-17T13:59:52Z</time>
      </trkpt>
      <trkpt lat="46.52795" lon="0.65321">
        <ele>106.76702650171</ele>
        <time>2021-11-17T13:59:54Z</time>
      </trkpt>
      <trkpt lat="46.52794" lon="0.65321">
        <ele>106.74873179756</ele>
        <time>2021-11-17T13:59:56Z</time>
      </trkpt>
      <trkpt lat="46.52792" lon="0.65321">
        <ele>107.05827829707</ele>
        <time>2021-11-17T13:59:58Z</time>
      </trkpt>
      <trkpt lat="46.52789" lon="0.65321">
        <ele>106.32191093452</ele>
        <time>2021-11-17T14:00:00Z</time>
      </trkpt>
      <trkpt lat="46.52787" lon="0.65323">
        <ele>106.6822356293</ele>
        <time>2021-11-17T14:00:02Z</time>
      </trkpt>
      <trkpt lat="46.52784" lon="0.65323">
        <ele>106.44732152391</ele>
        <time>2021-11-17T14:00:05Z</time>
      </trkpt>
      <trkpt lat="46.52781" lon="0.65324">
        <ele>106.02084798459</ele>
        <time>2021-11-17T14:00:07Z</time>
      </trkpt>
      <trkpt lat="46.52779" lon="0.65325">
        <ele>106.58329051174</ele>
        <time>2021-11-17T14:00:09Z</time>
      </trkpt>
      <trkpt lat="46.52777" lon="0.65326">
        <ele>106.07797766663</ele>
        <time>2021-11-17T14:00:11Z</time>
      </trkpt>
      <trkpt lat="46.52774" lon="0.65326">
        <ele>106.43002534565</ele>
        <time>2021-11-17T14:00:13Z</time>
      </trkpt>
      <trkpt lat="46.52772" lon="0.65326">
        <ele>106.46187419165</ele>
        <time>2021-11-17T14:00:15Z</time>
      </trkpt>
      <trkpt lat="46.52769" lon="0.65327">
        <ele>106.65937537979</ele>
        <time>2021-11-17T14:00:17Z</time>
      </trkpt>
      <trkpt lat="46.52767" lon="0.65328">
        <ele>106.2386743091</ele>
        <time>2021-11-17T14:00:19Z</time>
      </trkpt>
      <trkpt lat="46.52765" lon="0.6533">
        <ele>106.21529832203</ele>
        <time>2021-11-17T14:00:21Z</time>
      </trkpt>
      <trkpt lat="46.52762" lon="0.65329">
        <ele>105.88239217456</ele>
        <time>2021-11-17T14:00:23Z</time>
      </trkpt>
      <trkpt lat="46.5276" lon="0.6533">
        <ele>105.79471552838</ele>
        <time>2021-11-17T14:00:25Z</time>
      </trkpt>
      <trkpt lat="46.52757" lon="0.65331">
        <ele>106.5295848893</ele>
        <time>2021-11-17T14:00:27Z</time>
      </trkpt>
      <trkpt lat="46.52754" lon="0.65332">
        <ele>105.4174895687</ele>
        <time>2021-11-17T14:00:29Z</time>
      </trkpt>
      <trkpt lat="46.52751" lon="0.65334">
        <ele>105.32854691707</ele>
        <time>2021-11-17T14:00:32Z</time>
      </trkpt>
      <trkpt lat="46.52748" lon="0.65335">
        <ele>105.72407422774</ele>
        <time>2021-11-17T14:00:34Z</time>
      </trkpt>
      <trkpt lat="46.52746" lon="0.65335">
        <ele>105.56445510779</ele>
        <time>2021-11-17T14:00:36Z</time>
      </trkpt>
      <trkpt lat="46.52743" lon="0.65336">
        <ele>105.03234981187</ele>
        <time>2021-11-17T14:00:38Z</time>
      </trkpt>
      <trkpt lat="46.52741" lon="0.65337">
        <ele>104.90721046086</ele>
        <time>2021-11-17T14:00:40Z</time>
      </trkpt>
      <trkpt lat="46.52738" lon="0.65338">
        <ele>105.20278480183</ele>
        <time>2021-11-17T14:00:42Z</time>
      </trkpt>
      <trkpt lat="46.52735" lon="0.65338">
        <ele>105.00583836157</ele>
        <time>2021-11-17T14:00:44Z</time>
      </trkpt>
      <trkpt lat="46.52732" lon="0.6534">
        <ele>104.86365295947</ele>
        <time>2021-11-17T14:00:47Z</time>
      </trkpt>
      <trkpt lat="46.5273" lon="0.6534">
        <ele>104.81062154658</ele>
        <time>2021-11-17T14:00:49Z</time>
      </trkpt>
      <trkpt lat="46.52727" lon="0.65341">
        <ele>104.43187119905</ele>
        <time>2021-11-17T14:00:51Z</time>
      </trkpt>
      <trkpt lat="46.52724" lon="0.65342">
        <ele>104.59254232794</ele>
        <time>2021-11-17T14:00:53Z</time>
      </trkpt>
      <trkpt lat="46.52722" lon="0.65343">
        <ele>104.17514403816</ele>
        <time>2021-11-17T14:00:55Z</time>
      </trkpt>
      <trkpt lat="46.52719" lon="0.65344">
        <ele>104.11083990894</ele>
        <time>2021-11-17T14:00:57Z</time>
      </trkpt>
      <trkpt lat="46.52717" lon="0.65344">
        <ele>104.24722899683</ele>
        <time>2021-11-17T14:00:59Z</time>
      </trkpt>
      <trkpt lat="46.52714" lon="0.65345">
        <ele>104.03775027208</ele>
        <time>2021-11-17T14:01:01Z</time>
      </trkpt>
      <trkpt lat="46.52712" lon="0.65346">
        <ele>103.95003863052</ele>
        <time>2021-11-17T14:01:03Z</time>
      </trkpt>
      <trkpt lat="46.52709" lon="0.65347">
        <ele>103.86351929232</ele>
        <time>2021-11-17T14:01:05Z</time>
      </trkpt>
      <trkpt lat="46.52707" lon="0.65348">
        <ele>103.85663310997</ele>
        <time>2021-11-17T14:01:07Z</time>
      </trkpt>
      <trkpt lat="46.52705" lon="0.65348">
        <ele>103.96214668453</ele>
        <time>2021-11-17T14:01:08Z</time>
      </trkpt>
      <trkpt lat="46.52702" lon="0.65348">
        <ele>103.70835474599</ele>
        <time>2021-11-17T14:01:10Z</time>
      </trkpt>
      <trkpt lat="46.52699" lon="0.65349">
        <ele>103.46697861329</ele>
        <time>2021-11-17T14:01:13Z</time>
      </trkpt>
      <trkpt lat="46.52697" lon="0.65349">
        <ele>103.72966757789</ele>
        <time>2021-11-17T14:01:15Z</time>
      </trkpt>
      <trkpt lat="46.52693" lon="0.65351">
        <ele>103.33049886394</ele>
        <time>2021-11-17T14:01:17Z</time>
      </trkpt>
      <trkpt lat="46.52691" lon="0.65351">
        <ele>103.87685527001</ele>
        <time>2021-11-17T14:01:19Z</time>
      </trkpt>
      <trkpt lat="46.52689" lon="0.65352">
        <ele>102.61646967754</ele>
        <time>2021-11-17T14:01:21Z</time>
      </trkpt>
      <trkpt lat="46.52686" lon="0.65353">
        <ele>102.49079418555</ele>
        <time>2021-11-17T14:01:23Z</time>
      </trkpt>
      <trkpt lat="46.52684" lon="0.65355">
        <ele>103.00379758887</ele>
        <time>2021-11-17T14:01:25Z</time>
      </trkpt>
      <trkpt lat="46.52682" lon="0.65355">
        <ele>102.94542583637</ele>
        <time>2021-11-17T14:01:26Z</time>
      </trkpt>
      <trkpt lat="46.52679" lon="0.65357">
        <ele>102.80970423017</ele>
        <time>2021-11-17T14:01:29Z</time>
      </trkpt>
      <trkpt lat="46.52676" lon="0.65358">
        <ele>102.73280443251</ele>
        <time>2021-11-17T14:01:31Z</time>
      </trkpt>
      <trkpt lat="46.52674" lon="0.65359">
        <ele>102.51868986245</ele>
        <time>2021-11-17T14:01:33Z</time>
      </trkpt>
      <trkpt lat="46.52671" lon="0.65358">
        <ele>102.28442117013</ele>
        <time>2021-11-17T14:01:35Z</time>
      </trkpt>
      <trkpt lat="46.52668" lon="0.6536">
        <ele>102.33544834144</ele>
        <time>2021-11-17T14:01:37Z</time>
      </trkpt>
      <trkpt lat="46.52666" lon="0.65361">
        <ele>102.06865913887</ele>
        <time>2021-11-17T14:01:39Z</time>
      </trkpt>
      <trkpt lat="46.52664" lon="0.65361">
        <ele>102.1229477115</ele>
        <time>2021-11-17T14:01:41Z</time>
      </trkpt>
      <trkpt lat="46.52661" lon="0.65362">
        <ele>101.80167289078</ele>
        <time>2021-11-17T14:01:43Z</time>
      </trkpt>
      <trkpt lat="46.52658" lon="0.65363">
        <ele>101.88118653838</ele>
        <time>2021-11-17T14:01:45Z</time>
      </trkpt>
      <trkpt lat="46.52656" lon="0.65364">
        <ele>101.87395884283</ele>
        <time>2021-11-17T14:01:47Z</time>
      </trkpt>
      <trkpt lat="46.52653" lon="0.65364">
        <ele>101.8995311074</ele>
        <time>2021-11-17T14:01:49Z</time>
      </trkpt>
      <trkpt lat="46.52652" lon="0.65364">
        <ele>101.96157046128</ele>
        <time>2021-11-17T14:01:50Z</time>
      </trkpt>
      <trkpt lat="46.52649" lon="0.65364">
        <ele>102.21320362296</ele>
        <time>2021-11-17T14:01:52Z</time>
      </trkpt>
      <trkpt lat="46.52646" lon="0.65364">
        <ele>102.04604575038</ele>
        <time>2021-11-17T14:01:54Z</time>
      </trkpt>
      <trkpt lat="46.52644" lon="0.65364">
        <ele>102.36865554191</ele>
        <time>2021-11-17T14:01:56Z</time>
      </trkpt>
      <trkpt lat="46.52641" lon="0.65365">
        <ele>101.96140693966</ele>
        <time>2021-11-17T14:01:58Z</time>
      </trkpt>
      <trkpt lat="46.52639" lon="0.65364">
        <ele>102.12372133695</ele>
        <time>2021-11-17T14:02:00Z</time>
      </trkpt>
      <trkpt lat="46.52636" lon="0.65364">
        <ele>102.2297651805</ele>
        <time>2021-11-17T14:02:02Z</time>
      </trkpt>
      <trkpt lat="46.52633" lon="0.65363">
        <ele>102.11428633332</ele>
        <time>2021-11-17T14:02:04Z</time>
      </trkpt>
      <trkpt lat="46.5263" lon="0.65363">
        <ele>102.52832906321</ele>
        <time>2021-11-17T14:02:06Z</time>
      </trkpt>
      <trkpt lat="46.52627" lon="0.65362">
        <ele>102.80908958334</ele>
        <time>2021-11-17T14:02:08Z</time>
      </trkpt>
      <trkpt lat="46.52625" lon="0.65362">
        <ele>101.99158302415</ele>
        <time>2021-11-17T14:02:10Z</time>
      </trkpt>
      <trkpt lat="46.52623" lon="0.65363">
        <ele>102.48393150605</ele>
        <time>2021-11-17T14:02:12Z</time>
      </trkpt>
      <trkpt lat="46.5262" lon="0.65362">
        <ele>102.8942362247</ele>
        <time>2021-11-17T14:02:14Z</time>
      </trkpt>
      <trkpt lat="46.52617" lon="0.65362">
        <ele>102.56696296204</ele>
        <time>2021-11-17T14:02:16Z</time>
      </trkpt>
      <trkpt lat="46.52615" lon="0.65361">
        <ele>102.5766632054</ele>
        <time>2021-11-17T14:02:18Z</time>
      </trkpt>
      <trkpt lat="46.52612" lon="0.6536">
        <ele>102.83249787893</ele>
        <time>2021-11-17T14:02:20Z</time>
      </trkpt>
      <trkpt lat="46.52609" lon="0.65359">
        <ele>102.27029163856</ele>
        <time>2021-11-17T14:02:22Z</time>
      </trkpt>
      <trkpt lat="46.52607" lon="0.65358">
        <ele>102.74157429393</ele>
        <time>2021-11-17T14:02:24Z</time>
      </trkpt>
      <trkpt lat="46.52605" lon="0.65358">
        <ele>102.92440569401</ele>
        <time>2021-11-17T14:02:26Z</time>
      </trkpt>
      <trkpt lat="46.52603" lon="0.65357">
        <ele>102.90767813474</ele>
        <time>2021-11-17T14:02:28Z</time>
      </trkpt>
      <trkpt lat="46.52601" lon="0.65356">
        <ele>102.77548609581</ele>
        <time>2021-11-17T14:02:29Z</time>
      </trkpt>
      <trkpt lat="46.52598" lon="0.65355">
        <ele>102.54702900257</ele>
        <time>2021-11-17T14:02:31Z</time>
      </trkpt>
      <trkpt lat="46.52596" lon="0.65354">
        <ele>103.05326940957</ele>
        <time>2021-11-17T14:02:33Z</time>
      </trkpt>
      <trkpt lat="46.52594" lon="0.65354">
        <ele>102.93960698508</ele>
        <time>2021-11-17T14:02:35Z</time>
      </trkpt>
      <trkpt lat="46.52591" lon="0.65353">
        <ele>103.21312595345</ele>
        <time>2021-11-17T14:02:37Z</time>
      </trkpt>
      <trkpt lat="46.52588" lon="0.65352">
        <ele>102.94396268763</ele>
        <time>2021-11-17T14:02:39Z</time>
      </trkpt>
      <trkpt lat="46.52586" lon="0.65351">
        <ele>103.36058784835</ele>
        <time>2021-11-17T14:02:41Z</time>
      </trkpt>
      <trkpt lat="46.52584" lon="0.65351">
        <ele>103.62712947745</ele>
        <time>2021-11-17T14:02:43Z</time>
      </trkpt>
      <trkpt lat="46.52581" lon="0.6535">
        <ele>103.29147257935</ele>
        <time>2021-11-17T14:02:45Z</time>
      </trkpt>
      <trkpt lat="46.52578" lon="0.6535">
        <ele>103.58105377946</ele>
        <time>2021-11-17T14:02:47Z</time>
      </trkpt>
      <trkpt lat="46.52576" lon="0.65349">
        <ele>103.47078338079</ele>
        <time>2021-11-17T14:02:49Z</time>
      </trkpt>
      <trkpt lat="46.52573" lon="0.65349">
        <ele>103.49482509121</ele>
        <time>2021-11-17T14:02:52Z</time>
      </trkpt>
      <trkpt lat="46.5257" lon="0.65347">
        <ele>103.35250004567</ele>
        <time>2021-11-17T14:02:54Z</time>
      </trkpt>
      <trkpt lat="46.52568" lon="0.65349">
        <ele>103.29321265128</ele>
        <time>2021-11-17T14:02:56Z</time>
      </trkpt>
      <trkpt lat="46.52565" lon="0.65348">
        <ele>104.20951381046</ele>
        <time>2021-11-17T14:02:58Z</time>
      </trkpt>
      <trkpt lat="46.52562" lon="0.65347">
        <ele>102.85377657693</ele>
        <time>2021-11-17T14:03:00Z</time>
      </trkpt>
      <trkpt lat="46.52559" lon="0.65348">
        <ele>103.52463300992</ele>
        <time>2021-11-17T14:03:03Z</time>
      </trkpt>
      <trkpt lat="46.52556" lon="0.65348">
        <ele>103.81202983763</ele>
        <time>2021-11-17T14:03:05Z</time>
      </trkpt>
      <trkpt lat="46.52554" lon="0.65348">
        <ele>103.83024121914</ele>
        <time>2021-11-17T14:03:07Z</time>
      </trkpt>
      <trkpt lat="46.52552" lon="0.65348">
        <ele>104.09941874072</ele>
        <time>2021-11-17T14:03:09Z</time>
      </trkpt>
      <trkpt lat="46.52549" lon="0.65349">
        <ele>103.80541758612</ele>
        <time>2021-11-17T14:03:11Z</time>
      </trkpt>
      <trkpt lat="46.52546" lon="0.6535">
        <ele>104.10238673352</ele>
        <time>2021-11-17T14:03:13Z</time>
      </trkpt>
      <trkpt lat="46.52544" lon="0.6535">
        <ele>104.23464956135</ele>
        <time>2021-11-17T14:03:15Z</time>
      </trkpt>
      <trkpt lat="46.52541" lon="0.6535">
        <ele>104.17909629084</ele>
        <time>2021-11-17T14:03:17Z</time>
      </trkpt>
      <trkpt lat="46.52538" lon="0.65351">
        <ele>104.16916074511</ele>
        <time>2021-11-17T14:03:19Z</time>
      </trkpt>
      <trkpt lat="46.52536" lon="0.65351">
        <ele>104.3047112003</ele>
        <time>2021-11-17T14:03:21Z</time>
      </trkpt>
      <trkpt lat="46.52534" lon="0.65351">
        <ele>104.78169996478</ele>
        <time>2021-11-17T14:03:22Z</time>
      </trkpt>
      <trkpt lat="46.52532" lon="0.65351">
        <ele>104.2389715584</ele>
        <time>2021-11-17T14:03:24Z</time>
      </trkpt>
      <trkpt lat="46.52529" lon="0.6535">
        <ele>104.66286528576</ele>
        <time>2021-11-17T14:03:27Z</time>
      </trkpt>
      <trkpt lat="46.52527" lon="0.65352">
        <ele>104.41355879512</ele>
        <time>2021-11-17T14:03:29Z</time>
      </trkpt>
      <trkpt lat="46.52524" lon="0.65352">
        <ele>104.50811190065</ele>
        <time>2021-11-17T14:03:31Z</time>
      </trkpt>
      <trkpt lat="46.52521" lon="0.65353">
        <ele>104.86075428501</ele>
        <time>2021-11-17T14:03:33Z</time>
      </trkpt>
      <trkpt lat="46.52519" lon="0.65354">
        <ele>104.44637414906</ele>
        <time>2021-11-17T14:03:35Z</time>
      </trkpt>
      <trkpt lat="46.52516" lon="0.65354">
        <ele>104.95145476237</ele>
        <time>2021-11-17T14:03:37Z</time>
      </trkpt>
      <trkpt lat="46.52514" lon="0.65355">
        <ele>105.07130267937</ele>
        <time>2021-11-17T14:03:39Z</time>
      </trkpt>
      <trkpt lat="46.52512" lon="0.65354">
        <ele>104.92063988838</ele>
        <time>2021-11-17T14:03:41Z</time>
      </trkpt>
      <trkpt lat="46.52509" lon="0.65356">
        <ele>104.8614936443</ele>
        <time>2021-11-17T14:03:43Z</time>
      </trkpt>
      <trkpt lat="46.52505" lon="0.65356">
        <ele>104.99203693774</ele>
        <time>2021-11-17T14:03:46Z</time>
      </trkpt>
      <trkpt lat="46.52504" lon="0.65358">
        <ele>105.05481390096</ele>
        <time>2021-11-17T14:03:48Z</time>
      </trkpt>
      <trkpt lat="46.52501" lon="0.65358">
        <ele>105.24538404867</ele>
        <time>2021-11-17T14:03:50Z</time>
      </trkpt>
      <trkpt lat="46.52499" lon="0.65358">
        <ele>105.10391871724</ele>
        <time>2021-11-17T14:03:52Z</time>
      </trkpt>
      <trkpt lat="46.52497" lon="0.65359">
        <ele>105.38857041392</ele>
        <time>2021-11-17T14:03:54Z</time>
      </trkpt>
      <trkpt lat="46.52495" lon="0.6536">
        <ele>105.53334747721</ele>
        <time>2021-11-17T14:03:56Z</time>
      </trkpt>
      <trkpt lat="46.52492" lon="0.65361">
        <ele>105.96504844818</ele>
        <time>2021-11-17T14:03:58Z</time>
      </trkpt>
      <trkpt lat="46.5249" lon="0.65362">
        <ele>104.75458815601</ele>
        <time>2021-11-17T14:04:00Z</time>
      </trkpt>
      <trkpt lat="46.52488" lon="0.65362">
        <ele>105.56534341816</ele>
        <time>2021-11-17T14:04:02Z</time>
      </trkpt>
      <trkpt lat="46.52485" lon="0.65363">
        <ele>105.95080482028</ele>
        <time>2021-11-17T14:04:04Z</time>
      </trkpt>
      <trkpt lat="46.52482" lon="0.65364">
        <ele>105.62036246248</ele>
        <time>2021-11-17T14:04:06Z</time>
      </trkpt>
      <trkpt lat="46.5248" lon="0.65365">
        <ele>105.59330116492</ele>
        <time>2021-11-17T14:04:08Z</time>
      </trkpt>
      <trkpt lat="46.52477" lon="0.65364">
        <ele>105.42774127237</ele>
        <time>2021-11-17T14:04:10Z</time>
      </trkpt>
      <trkpt lat="46.52475" lon="0.65365">
        <ele>105.45287922118</ele>
        <time>2021-11-17T14:04:12Z</time>
      </trkpt>
      <trkpt lat="46.52472" lon="0.65365">
        <ele>105.55552596878</ele>
        <time>2021-11-17T14:04:14Z</time>
      </trkpt>
      <trkpt lat="46.5247" lon="0.65366">
        <ele>105.57236877549</ele>
        <time>2021-11-17T14:04:16Z</time>
      </trkpt>
      <trkpt lat="46.52468" lon="0.65367">
        <ele>105.57447078638</ele>
        <time>2021-11-17T14:04:18Z</time>
      </trkpt>
      <trkpt lat="46.52465" lon="0.65368">
        <ele>106.30828329455</ele>
        <time>2021-11-17T14:04:20Z</time>
      </trkpt>
      <trkpt lat="46.52462" lon="0.65368">
        <ele>104.88926028274</ele>
        <time>2021-11-17T14:04:22Z</time>
      </trkpt>
      <trkpt lat="46.5246" lon="0.65368">
        <ele>105.33220481779</ele>
        <time>2021-11-17T14:04:25Z</time>
      </trkpt>
      <trkpt lat="46.52456" lon="0.65369">
        <ele>105.8891046606</ele>
        <time>2021-11-17T14:04:27Z</time>
      </trkpt>
      <trkpt lat="46.52455" lon="0.6537">
        <ele>105.77531524468</ele>
        <time>2021-11-17T14:04:29Z</time>
      </trkpt>
      <trkpt lat="46.52452" lon="0.65371">
        <ele>105.40722889546</ele>
        <time>2021-11-17T14:04:31Z</time>
      </trkpt>
      <trkpt lat="46.52449" lon="0.65372">
        <ele>105.49479651451</ele>
        <time>2021-11-17T14:04:33Z</time>
      </trkpt>
      <trkpt lat="46.52447" lon="0.65372">
        <ele>105.94821342081</ele>
        <time>2021-11-17T14:04:35Z</time>
      </trkpt>
      <trkpt lat="46.52444" lon="0.65372">
        <ele>105.05712481774</ele>
        <time>2021-11-17T14:04:37Z</time>
      </trkpt>
      <trkpt lat="46.52441" lon="0.65373">
        <ele>105.45910437778</ele>
        <time>2021-11-17T14:04:39Z</time>
      </trkpt>
      <trkpt lat="46.52439" lon="0.65373">
        <ele>105.60363874584</ele>
        <time>2021-11-17T14:04:41Z</time>
      </trkpt>
      <trkpt lat="46.52437" lon="0.65374">
        <ele>105.13084509596</ele>
        <time>2021-11-17T14:04:43Z</time>
      </trkpt>
      <trkpt lat="46.52435" lon="0.65375">
        <ele>105.5788086364</ele>
        <time>2021-11-17T14:04:45Z</time>
      </trkpt>
      <trkpt lat="46.52433" lon="0.65376">
        <ele>105.53955013491</ele>
        <time>2021-11-17T14:04:46Z</time>
      </trkpt>
      <trkpt lat="46.5243" lon="0.65377">
        <ele>105.26477378514</ele>
        <time>2021-11-17T14:04:48Z</time>
      </trkpt>
      <trkpt lat="46.52428" lon="0.65378">
        <ele>105.15544992778</ele>
        <time>2021-11-17T14:04:50Z</time>
      </trkpt>
      <trkpt lat="46.52425" lon="0.65379">
        <ele>105.66788005363</ele>
        <time>2021-11-17T14:04:52Z</time>
      </trkpt>
      <trkpt lat="46.52423" lon="0.6538">
        <ele>105.85743331071</ele>
        <time>2021-11-17T14:04:54Z</time>
      </trkpt>
      <trkpt lat="46.52421" lon="0.65379">
        <ele>104.07441795059</ele>
        <time>2021-11-17T14:04:55Z</time>
      </trkpt>
      <trkpt lat="46.52418" lon="0.6538">
        <ele>104.5915159015</ele>
        <time>2021-11-17T14:04:57Z</time>
      </trkpt>
      <trkpt lat="46.52416" lon="0.65381">
        <ele>104.98217326775</ele>
        <time>2021-11-17T14:04:59Z</time>
      </trkpt>
      <trkpt lat="46.52413" lon="0.65381">
        <ele>105.21862577554</ele>
        <time>2021-11-17T14:05:01Z</time>
      </trkpt>
      <trkpt lat="46.5241" lon="0.65382">
        <ele>105.07405886799</ele>
        <time>2021-11-17T14:05:03Z</time>
      </trkpt>
      <trkpt lat="46.52408" lon="0.65382">
        <ele>104.67492556479</ele>
        <time>2021-11-17T14:05:05Z</time>
      </trkpt>
      <trkpt lat="46.52405" lon="0.65382">
        <ele>104.7882442493</ele>
        <time>2021-11-17T14:05:07Z</time>
      </trkpt>
      <trkpt lat="46.52402" lon="0.65383">
        <ele>104.51152511872</ele>
        <time>2021-11-17T14:05:09Z</time>
      </trkpt>
      <trkpt lat="46.52399" lon="0.65384">
        <ele>104.36811942048</ele>
        <time>2021-11-17T14:05:12Z</time>
      </trkpt>
      <trkpt lat="46.52396" lon="0.65385">
        <ele>104.47366358619</ele>
        <time>2021-11-17T14:05:14Z</time>
      </trkpt>
      <trkpt lat="46.52394" lon="0.65386">
        <ele>104.1736213183</ele>
        <time>2021-11-17T14:05:16Z</time>
      </trkpt>
      <trkpt lat="46.52391" lon="0.65386">
        <ele>104.28392324317</ele>
        <time>2021-11-17T14:05:18Z</time>
      </trkpt>
      <trkpt lat="46.52388" lon="0.65386">
        <ele>104.26965786889</ele>
        <time>2021-11-17T14:05:20Z</time>
      </trkpt>
      <trkpt lat="46.52386" lon="0.65387">
        <ele>104.40246526897</ele>
        <time>2021-11-17T14:05:22Z</time>
      </trkpt>
      <trkpt lat="46.52383" lon="0.65388">
        <ele>104.30966754723</ele>
        <time>2021-11-17T14:05:24Z</time>
      </trkpt>
      <trkpt lat="46.5238" lon="0.65388">
        <ele>104.81332459766</ele>
        <time>2021-11-17T14:05:26Z</time>
      </trkpt>
      <trkpt lat="46.52377" lon="0.65388">
        <ele>104.39721546415</ele>
        <time>2021-11-17T14:05:28Z</time>
      </trkpt>
      <trkpt lat="46.52374" lon="0.65388">
        <ele>104.05452320352</ele>
        <time>2021-11-17T14:05:30Z</time>
      </trkpt>
      <trkpt lat="46.52372" lon="0.65388">
        <ele>103.56881053466</ele>
        <time>2021-11-17T14:05:32Z</time>
      </trkpt>
      <trkpt lat="46.52369" lon="0.65389">
        <ele>104.20737300999</ele>
        <time>2021-11-17T14:05:34Z</time>
      </trkpt>
      <trkpt lat="46.52367" lon="0.6539">
        <ele>104.40546131507</ele>
        <time>2021-11-17T14:05:36Z</time>
      </trkpt>
      <trkpt lat="46.52364" lon="0.65391">
        <ele>104.56228241045</ele>
        <time>2021-11-17T14:05:38Z</time>
      </trkpt>
      <trkpt lat="46.52362" lon="0.65391">
        <ele>104.46916942671</ele>
        <time>2021-11-17T14:05:40Z</time>
      </trkpt>
      <trkpt lat="46.52359" lon="0.65391">
        <ele>104.40152381174</ele>
        <time>2021-11-17T14:05:42Z</time>
      </trkpt>
      <trkpt lat="46.52356" lon="0.65391">
        <ele>104.29997790325</ele>
        <time>2021-11-17T14:05:44Z</time>
      </trkpt>
      <trkpt lat="46.52353" lon="0.65391">
        <ele>103.94670456555</ele>
        <time>2021-11-17T14:05:46Z</time>
      </trkpt>
      <trkpt lat="46.52351" lon="0.65392">
        <ele>104.19516938087</ele>
        <time>2021-11-17T14:05:48Z</time>
      </trkpt>
      <trkpt lat="46.52349" lon="0.65392">
        <ele>104.15191299561</ele>
        <time>2021-11-17T14:05:50Z</time>
      </trkpt>
      <trkpt lat="46.52347" lon="0.65392">
        <ele>104.31290942058</ele>
        <time>2021-11-17T14:05:51Z</time>
      </trkpt>
      <trkpt lat="46.52344" lon="0.65392">
        <ele>103.83474544622</ele>
        <time>2021-11-17T14:05:53Z</time>
      </trkpt>
      <trkpt lat="46.52341" lon="0.65393">
        <ele>102.97340351995</ele>
        <time>2021-11-17T14:05:56Z</time>
      </trkpt>
      <trkpt lat="46.52339" lon="0.65394">
        <ele>103.47751415614</ele>
        <time>2021-11-17T14:05:59Z</time>
      </trkpt>
      <trkpt lat="46.52338" lon="0.65395">
        <ele>103.55529706832</ele>
        <time>2021-11-17T14:06:01Z</time>
      </trkpt>
      <trkpt lat="46.52335" lon="0.65396">
        <ele>103.17623906769</ele>
        <time>2021-11-17T14:06:03Z</time>
      </trkpt>
      <trkpt lat="46.52334" lon="0.65398">
        <ele>103.13465021364</ele>
        <time>2021-11-17T14:06:04Z</time>
      </trkpt>
      <trkpt lat="46.52331" lon="0.65399">
        <ele>103.07251210883</ele>
        <time>2021-11-17T14:06:06Z</time>
      </trkpt>
      <trkpt lat="46.52329" lon="0.65399">
        <ele>102.89101687633</ele>
        <time>2021-11-17T14:06:08Z</time>
      </trkpt>
      <trkpt lat="46.52326" lon="0.654">
        <ele>102.59425878152</ele>
        <time>2021-11-17T14:06:10Z</time>
      </trkpt>
      <trkpt lat="46.52324" lon="0.65401">
        <ele>102.65383890364</ele>
        <time>2021-11-17T14:06:13Z</time>
      </trkpt>
      <trkpt lat="46.52322" lon="0.65402">
        <ele>102.5223633619</ele>
        <time>2021-11-17T14:06:14Z</time>
      </trkpt>
      <trkpt lat="46.5232" lon="0.65403">
        <ele>102.4349521324</ele>
        <time>2021-11-17T14:06:15Z</time>
      </trkpt>
      <trkpt lat="46.52318" lon="0.65404">
        <ele>102.02407368086</ele>
        <time>2021-11-17T14:06:17Z</time>
      </trkpt>
      <trkpt lat="46.52316" lon="0.65404">
        <ele>101.91728714947</ele>
        <time>2021-11-17T14:06:19Z</time>
      </trkpt>
      <trkpt lat="46.52314" lon="0.65404">
        <ele>102.10998564307</ele>
        <time>2021-11-17T14:06:21Z</time>
      </trkpt>
      <trkpt lat="46.52312" lon="0.65404">
        <ele>102.12692258134</ele>
        <time>2021-11-17T14:06:23Z</time>
      </trkpt>
      <trkpt lat="46.5231" lon="0.65406">
        <ele>101.52152329497</ele>
        <time>2021-11-17T14:06:25Z</time>
      </trkpt>
      <trkpt lat="46.52307" lon="0.65406">
        <ele>101.82405121345</ele>
        <time>2021-11-17T14:06:27Z</time>
      </trkpt>
      <trkpt lat="46.52305" lon="0.65407">
        <ele>101.87290346436</ele>
        <time>2021-11-17T14:06:29Z</time>
      </trkpt>
      <trkpt lat="46.52303" lon="0.65407">
        <ele>101.55994164385</ele>
        <time>2021-11-17T14:06:31Z</time>
      </trkpt>
      <trkpt lat="46.523" lon="0.65408">
        <ele>101.60266526043</ele>
        <time>2021-11-17T14:06:33Z</time>
      </trkpt>
      <trkpt lat="46.52298" lon="0.65409">
        <ele>101.33537642751</ele>
        <time>2021-11-17T14:06:35Z</time>
      </trkpt>
      <trkpt lat="46.52295" lon="0.6541">
        <ele>100.90790196322</ele>
        <time>2021-11-17T14:06:37Z</time>
      </trkpt>
      <trkpt lat="46.52293" lon="0.65412">
        <ele>101.08456195146</ele>
        <time>2021-11-17T14:06:39Z</time>
      </trkpt>
      <trkpt lat="46.52291" lon="0.65413">
        <ele>101.04777468648</ele>
        <time>2021-11-17T14:06:41Z</time>
      </trkpt>
      <trkpt lat="46.52288" lon="0.65414">
        <ele>100.88475415669</ele>
        <time>2021-11-17T14:06:43Z</time>
      </trkpt>
      <trkpt lat="46.52286" lon="0.65415">
        <ele>100.70134446025</ele>
        <time>2021-11-17T14:06:45Z</time>
      </trkpt>
      <trkpt lat="46.52283" lon="0.65416">
        <ele>100.72606296279</ele>
        <time>2021-11-17T14:06:47Z</time>
      </trkpt>
      <trkpt lat="46.52281" lon="0.65417">
        <ele>100.86762507819</ele>
        <time>2021-11-17T14:06:49Z</time>
      </trkpt>
      <trkpt lat="46.52279" lon="0.65418">
        <ele>100.49624584522</ele>
        <time>2021-11-17T14:06:50Z</time>
      </trkpt>
      <trkpt lat="46.52276" lon="0.65419">
        <ele>100.37428858411</ele>
        <time>2021-11-17T14:06:52Z</time>
      </trkpt>
      <trkpt lat="46.52273" lon="0.6542">
        <ele>99.351003657095</ele>
        <time>2021-11-17T14:06:54Z</time>
      </trkpt>
      <trkpt lat="46.52271" lon="0.6542">
        <ele>99.63532901369</ele>
        <time>2021-11-17T14:06:56Z</time>
      </trkpt>
      <trkpt lat="46.52268" lon="0.6542">
        <ele>99.292708375491</ele>
        <time>2021-11-17T14:06:58Z</time>
      </trkpt>
      <trkpt lat="46.52266" lon="0.6542">
        <ele>99.540903151967</ele>
        <time>2021-11-17T14:07:00Z</time>
      </trkpt>
      <trkpt lat="46.52264" lon="0.6542">
        <ele>99.752460219897</ele>
        <time>2021-11-17T14:07:02Z</time>
      </trkpt>
      <trkpt lat="46.52261" lon="0.6542">
        <ele>99.217406596057</ele>
        <time>2021-11-17T14:07:04Z</time>
      </trkpt>
      <trkpt lat="46.52259" lon="0.65419">
        <ele>99.632727201097</ele>
        <time>2021-11-17T14:07:06Z</time>
      </trkpt>
      <trkpt lat="46.52256" lon="0.65419">
        <ele>99.427525175735</ele>
        <time>2021-11-17T14:07:08Z</time>
      </trkpt>
      <trkpt lat="46.52254" lon="0.65419">
        <ele>99.256044131704</ele>
        <time>2021-11-17T14:07:10Z</time>
      </trkpt>
      <trkpt lat="46.52251" lon="0.65418">
        <ele>99.352849840187</ele>
        <time>2021-11-17T14:07:12Z</time>
      </trkpt>
      <trkpt lat="46.52248" lon="0.65416">
        <ele>98.828998466022</ele>
        <time>2021-11-17T14:07:15Z</time>
      </trkpt>
      <trkpt lat="46.52247" lon="0.65416">
        <ele>99.048181219958</ele>
        <time>2021-11-17T14:07:16Z</time>
      </trkpt>
      <trkpt lat="46.52244" lon="0.65415">
        <ele>98.841360467486</ele>
        <time>2021-11-17T14:07:18Z</time>
      </trkpt>
      <trkpt lat="46.52242" lon="0.65415">
        <ele>98.820033877157</ele>
        <time>2021-11-17T14:07:20Z</time>
      </trkpt>
      <trkpt lat="46.52239" lon="0.65414">
        <ele>98.447908902541</ele>
        <time>2021-11-17T14:07:22Z</time>
      </trkpt>
      <trkpt lat="46.52237" lon="0.65412">
        <ele>98.147777303122</ele>
        <time>2021-11-17T14:07:24Z</time>
      </trkpt>
      <trkpt lat="46.52234" lon="0.6541">
        <ele>97.900160013698</ele>
        <time>2021-11-17T14:07:26Z</time>
      </trkpt>
      <trkpt lat="46.52232" lon="0.65409">
        <ele>97.814490196295</ele>
        <time>2021-11-17T14:07:28Z</time>
      </trkpt>
      <trkpt lat="46.5223" lon="0.65407">
        <ele>97.870036365464</ele>
        <time>2021-11-17T14:07:30Z</time>
      </trkpt>
      <trkpt lat="46.52228" lon="0.65406">
        <ele>97.813982739113</ele>
        <time>2021-11-17T14:07:32Z</time>
      </trkpt>
      <trkpt lat="46.52226" lon="0.65404">
        <ele>97.528976582922</ele>
        <time>2021-11-17T14:07:34Z</time>
      </trkpt>
      <trkpt lat="46.52224" lon="0.65403">
        <ele>97.244100998156</ele>
        <time>2021-11-17T14:07:36Z</time>
      </trkpt>
      <trkpt lat="46.52222" lon="0.65401">
        <ele>96.716092565097</ele>
        <time>2021-11-17T14:07:38Z</time>
      </trkpt>
      <trkpt lat="46.5222" lon="0.65399">
        <ele>96.860311212018</ele>
        <time>2021-11-17T14:07:40Z</time>
      </trkpt>
      <trkpt lat="46.52218" lon="0.65397">
        <ele>97.010751514696</ele>
        <time>2021-11-17T14:07:42Z</time>
      </trkpt>
      <trkpt lat="46.52216" lon="0.65397">
        <ele>97.032470795326</ele>
        <time>2021-11-17T14:07:44Z</time>
      </trkpt>
      <trkpt lat="46.52214" lon="0.65394">
        <ele>96.388835077174</ele>
        <time>2021-11-17T14:07:46Z</time>
      </trkpt>
      <trkpt lat="46.52213" lon="0.65392">
        <ele>96.602958681993</ele>
        <time>2021-11-17T14:07:48Z</time>
      </trkpt>
      <trkpt lat="46.52211" lon="0.65391">
        <ele>96.587738689966</ele>
        <time>2021-11-17T14:07:50Z</time>
      </trkpt>
      <trkpt lat="46.52209" lon="0.65388">
        <ele>96.24179302901</ele>
        <time>2021-11-17T14:07:52Z</time>
      </trkpt>
      <trkpt lat="46.52208" lon="0.65386">
        <ele>96.313932547346</ele>
        <time>2021-11-17T14:07:54Z</time>
      </trkpt>
      <trkpt lat="46.52207" lon="0.65383">
        <ele>96.029120487161</ele>
        <time>2021-11-17T14:07:58Z</time>
      </trkpt>
      <trkpt lat="46.52205" lon="0.65381">
        <ele>95.9350264268</ele>
        <time>2021-11-17T14:08:00Z</time>
      </trkpt>
      <trkpt lat="46.52204" lon="0.65377">
        <ele>95.918257342651</ele>
        <time>2021-11-17T14:08:03Z</time>
      </trkpt>
      <trkpt lat="46.52203" lon="0.65375">
        <ele>95.87827361282</ele>
        <time>2021-11-17T14:08:04Z</time>
      </trkpt>
      <trkpt lat="46.52202" lon="0.65372">
        <ele>95.341167753562</ele>
        <time>2021-11-17T14:08:06Z</time>
      </trkpt>
      <trkpt lat="46.522" lon="0.65369">
        <ele>95.514337957837</ele>
        <time>2021-11-17T14:08:08Z</time>
      </trkpt>
      <trkpt lat="46.52198" lon="0.65366">
        <ele>95.728478342295</ele>
        <time>2021-11-17T14:08:10Z</time>
      </trkpt>
      <trkpt lat="46.52198" lon="0.65363">
        <ele>95.692107000388</ele>
        <time>2021-11-17T14:08:12Z</time>
      </trkpt>
      <trkpt lat="46.52197" lon="0.6536">
        <ele>95.910621206276</ele>
        <time>2021-11-17T14:08:13Z</time>
      </trkpt>
      <trkpt lat="46.52196" lon="0.65356">
        <ele>95.510905007832</ele>
        <time>2021-11-17T14:08:15Z</time>
      </trkpt>
      <trkpt lat="46.52194" lon="0.65352">
        <ele>94.861710716039</ele>
        <time>2021-11-17T14:08:17Z</time>
      </trkpt>
      <trkpt lat="46.52194" lon="0.65348">
        <ele>95.03685591463</ele>
        <time>2021-11-17T14:08:20Z</time>
      </trkpt>
      <trkpt lat="46.52194" lon="0.65344">
        <ele>95.00403879676</ele>
        <time>2021-11-17T14:08:22Z</time>
      </trkpt>
      <trkpt lat="46.52193" lon="0.65341">
        <ele>94.961046949029</ele>
        <time>2021-11-17T14:08:24Z</time>
      </trkpt>
      <trkpt lat="46.52193" lon="0.65337">
        <ele>95.295507193543</ele>
        <time>2021-11-17T14:08:26Z</time>
      </trkpt>
      <trkpt lat="46.52192" lon="0.65335">
        <ele>94.752737903967</ele>
        <time>2021-11-17T14:08:27Z</time>
      </trkpt>
      <trkpt lat="46.52192" lon="0.65331">
        <ele>95.031353975646</ele>
        <time>2021-11-17T14:08:29Z</time>
      </trkpt>
      <trkpt lat="46.52191" lon="0.65326">
        <ele>94.931429849938</ele>
        <time>2021-11-17T14:08:31Z</time>
      </trkpt>
      <trkpt lat="46.5219" lon="0.65323">
        <ele>95.255997381173</ele>
        <time>2021-11-17T14:08:33Z</time>
      </trkpt>
      <trkpt lat="46.5219" lon="0.65319">
        <ele>95.169013815932</ele>
        <time>2021-11-17T14:08:35Z</time>
      </trkpt>
      <trkpt lat="46.5219" lon="0.65316">
        <ele>95.12651693821</ele>
        <time>2021-11-17T14:08:37Z</time>
      </trkpt>
      <trkpt lat="46.5219" lon="0.65311">
        <ele>95.031543139368</ele>
        <time>2021-11-17T14:08:40Z</time>
      </trkpt>
      <trkpt lat="46.52189" lon="0.65308">
        <ele>95.210359455086</ele>
        <time>2021-11-17T14:08:41Z</time>
      </trkpt>
      <trkpt lat="46.52189" lon="0.65305">
        <ele>94.921700130217</ele>
        <time>2021-11-17T14:08:43Z</time>
      </trkpt>
      <trkpt lat="46.52189" lon="0.65302">
        <ele>95.135493397713</ele>
        <time>2021-11-17T14:08:45Z</time>
      </trkpt>
      <trkpt lat="46.52189" lon="0.65298">
        <ele>94.862742011435</ele>
        <time>2021-11-17T14:08:47Z</time>
      </trkpt>
      <trkpt lat="46.52189" lon="0.65295">
        <ele>95.313257797621</ele>
        <time>2021-11-17T14:08:49Z</time>
      </trkpt>
      <trkpt lat="46.52189" lon="0.65292">
        <ele>95.428688300774</ele>
        <time>2021-11-17T14:08:50Z</time>
      </trkpt>
      <trkpt lat="46.52188" lon="0.65288">
        <ele>95.15426312387</ele>
        <time>2021-11-17T14:08:53Z</time>
      </trkpt>
      <trkpt lat="46.52188" lon="0.65284">
        <ele>95.184651760384</ele>
        <time>2021-11-17T14:08:55Z</time>
      </trkpt>
      <trkpt lat="46.52187" lon="0.6528">
        <ele>95.259932027198</ele>
        <time>2021-11-17T14:08:57Z</time>
      </trkpt>
      <trkpt lat="46.52186" lon="0.65276">
        <ele>95.002255971543</ele>
        <time>2021-11-17T14:08:59Z</time>
      </trkpt>
      <trkpt lat="46.52186" lon="0.65274">
        <ele>95.181466060691</ele>
        <time>2021-11-17T14:09:01Z</time>
      </trkpt>
      <trkpt lat="46.52186" lon="0.6527">
        <ele>94.884544031695</ele>
        <time>2021-11-17T14:09:03Z</time>
      </trkpt>
      <trkpt lat="46.52185" lon="0.65266">
        <ele>94.426491092891</ele>
        <time>2021-11-17T14:09:05Z</time>
      </trkpt>
      <trkpt lat="46.52185" lon="0.65263">
        <ele>94.011537278071</ele>
        <time>2021-11-17T14:09:06Z</time>
      </trkpt>
      <trkpt lat="46.52185" lon="0.6526">
        <ele>94.499485831708</ele>
        <time>2021-11-17T14:09:08Z</time>
      </trkpt>
      <trkpt lat="46.52184" lon="0.65257">
        <ele>94.618897336535</ele>
        <time>2021-11-17T14:09:10Z</time>
      </trkpt>
      <trkpt lat="46.52184" lon="0.65253">
        <ele>94.383308039978</ele>
        <time>2021-11-17T14:09:12Z</time>
      </trkpt>
      <trkpt lat="46.52183" lon="0.65249">
        <ele>94.393805003725</ele>
        <time>2021-11-17T14:09:14Z</time>
      </trkpt>
      <trkpt lat="46.52183" lon="0.65246">
        <ele>94.282599478029</ele>
        <time>2021-11-17T14:09:15Z</time>
      </trkpt>
      <trkpt lat="46.52182" lon="0.65244">
        <ele>93.540767148137</ele>
        <time>2021-11-17T14:09:16Z</time>
      </trkpt>
      <trkpt lat="46.52181" lon="0.65239">
        <ele>93.345992327668</ele>
        <time>2021-11-17T14:09:18Z</time>
      </trkpt>
      <trkpt lat="46.52181" lon="0.65235">
        <ele>94.158679796383</ele>
        <time>2021-11-17T14:09:20Z</time>
      </trkpt>
      <trkpt lat="46.5218" lon="0.6523">
        <ele>92.917766763829</ele>
        <time>2021-11-17T14:09:22Z</time>
      </trkpt>
      <trkpt lat="46.5218" lon="0.65226">
        <ele>93.273315905593</ele>
        <time>2021-11-17T14:09:24Z</time>
      </trkpt>
      <trkpt lat="46.52179" lon="0.65222">
        <ele>93.624141152017</ele>
        <time>2021-11-17T14:09:26Z</time>
      </trkpt>
      <trkpt lat="46.52179" lon="0.65219">
        <ele>93.726263123564</ele>
        <time>2021-11-17T14:09:29Z</time>
      </trkpt>
      <trkpt lat="46.52179" lon="0.65215">
        <ele>93.750542680733</ele>
        <time>2021-11-17T14:09:30Z</time>
      </trkpt>
      <trkpt lat="46.52178" lon="0.65211">
        <ele>93.763786675408</ele>
        <time>2021-11-17T14:09:33Z</time>
      </trkpt>
      <trkpt lat="46.52177" lon="0.65209">
        <ele>93.949916223995</ele>
        <time>2021-11-17T14:09:35Z</time>
      </trkpt>
      <trkpt lat="46.52177" lon="0.65205">
        <ele>93.519976291806</ele>
        <time>2021-11-17T14:09:37Z</time>
      </trkpt>
      <trkpt lat="46.52176" lon="0.65203">
        <ele>93.820531031117</ele>
        <time>2021-11-17T14:09:38Z</time>
      </trkpt>
      <trkpt lat="46.52176" lon="0.652">
        <ele>93.890923283994</ele>
        <time>2021-11-17T14:09:40Z</time>
      </trkpt>
      <trkpt lat="46.52175" lon="0.65196">
        <ele>93.774812504649</ele>
        <time>2021-11-17T14:09:42Z</time>
      </trkpt>
      <trkpt lat="46.52174" lon="0.65193">
        <ele>93.986598989926</ele>
        <time>2021-11-17T14:09:44Z</time>
      </trkpt>
      <trkpt lat="46.52173" lon="0.6519">
        <ele>93.665613087825</ele>
        <time>2021-11-17T14:09:46Z</time>
      </trkpt>
      <trkpt lat="46.52173" lon="0.65186">
        <ele>93.646872657351</ele>
        <time>2021-11-17T14:09:48Z</time>
      </trkpt>
      <trkpt lat="46.52172" lon="0.65184">
        <ele>93.524733661674</ele>
        <time>2021-11-17T14:09:49Z</time>
      </trkpt>
      <trkpt lat="46.52171" lon="0.6518">
        <ele>93.432147706859</ele>
        <time>2021-11-17T14:09:51Z</time>
      </trkpt>
      <trkpt lat="46.52171" lon="0.65177">
        <ele>93.167818651535</ele>
        <time>2021-11-17T14:09:52Z</time>
      </trkpt>
      <trkpt lat="46.52171" lon="0.65173">
        <ele>93.287968194112</ele>
        <time>2021-11-17T14:09:55Z</time>
      </trkpt>
      <trkpt lat="46.5217" lon="0.6517">
        <ele>93.008748429827</ele>
        <time>2021-11-17T14:09:56Z</time>
      </trkpt>
      <trkpt lat="46.52169" lon="0.65167">
        <ele>93.221811890602</ele>
        <time>2021-11-17T14:09:58Z</time>
      </trkpt>
      <trkpt lat="46.52168" lon="0.65162">
        <ele>93.154856662266</ele>
        <time>2021-11-17T14:10:00Z</time>
      </trkpt>
      <trkpt lat="46.52168" lon="0.65157">
        <ele>93.02523420006</ele>
        <time>2021-11-17T14:10:02Z</time>
      </trkpt>
      <trkpt lat="46.52167" lon="0.65154">
        <ele>92.500334366225</ele>
        <time>2021-11-17T14:10:04Z</time>
      </trkpt>
      <trkpt lat="46.52166" lon="0.65151">
        <ele>91.799884303473</ele>
        <time>2021-11-17T14:10:06Z</time>
      </trkpt>
      <trkpt lat="46.52165" lon="0.65147">
        <ele>92.396915156394</ele>
        <time>2021-11-17T14:10:08Z</time>
      </trkpt>
      <trkpt lat="46.52165" lon="0.65143">
        <ele>92.286705502309</ele>
        <time>2021-11-17T14:10:10Z</time>
      </trkpt>
      <trkpt lat="46.52164" lon="0.6514">
        <ele>92.518695189618</ele>
        <time>2021-11-17T14:10:12Z</time>
      </trkpt>
      <trkpt lat="46.52162" lon="0.65136">
        <ele>91.998322610743</ele>
        <time>2021-11-17T14:10:14Z</time>
      </trkpt>
      <trkpt lat="46.52162" lon="0.65133">
        <ele>92.128291128203</ele>
        <time>2021-11-17T14:10:16Z</time>
      </trkpt>
      <trkpt lat="46.52161" lon="0.6513">
        <ele>91.864298695698</ele>
        <time>2021-11-17T14:10:18Z</time>
      </trkpt>
      <trkpt lat="46.52159" lon="0.65126">
        <ele>92.08573357109</ele>
        <time>2021-11-17T14:10:20Z</time>
      </trkpt>
      <trkpt lat="46.52158" lon="0.65123">
        <ele>92.381309624761</ele>
        <time>2021-11-17T14:10:22Z</time>
      </trkpt>
      <trkpt lat="46.52156" lon="0.6512">
        <ele>91.458656585775</ele>
        <time>2021-11-17T14:10:24Z</time>
      </trkpt>
      <trkpt lat="46.52153" lon="0.65117">
        <ele>91.533450416289</ele>
        <time>2021-11-17T14:10:26Z</time>
      </trkpt>
      <trkpt lat="46.52152" lon="0.65114">
        <ele>91.755286798812</ele>
        <time>2021-11-17T14:10:28Z</time>
      </trkpt>
      <trkpt lat="46.52149" lon="0.65111">
        <ele>91.687647904269</ele>
        <time>2021-11-17T14:10:30Z</time>
      </trkpt>
      <trkpt lat="46.52148" lon="0.65108">
        <ele>90.883384120651</ele>
        <time>2021-11-17T14:10:32Z</time>
      </trkpt>
      <trkpt lat="46.52145" lon="0.65106">
        <ele>90.857740662061</ele>
        <time>2021-11-17T14:10:34Z</time>
      </trkpt>
      <trkpt lat="46.52143" lon="0.65103">
        <ele>90.84814189747</ele>
        <time>2021-11-17T14:10:36Z</time>
      </trkpt>
      <trkpt lat="46.52141" lon="0.65101">
        <ele>91.366543725133</ele>
        <time>2021-11-17T14:10:38Z</time>
      </trkpt>
      <trkpt lat="46.5214" lon="0.65098">
        <ele>90.084366602823</ele>
        <time>2021-11-17T14:10:40Z</time>
      </trkpt>
      <trkpt lat="46.52138" lon="0.65096">
        <ele>90.296415003017</ele>
        <time>2021-11-17T14:10:42Z</time>
      </trkpt>
      <trkpt lat="46.52136" lon="0.65093">
        <ele>90.514144894667</ele>
        <time>2021-11-17T14:10:44Z</time>
      </trkpt>
      <trkpt lat="46.52133" lon="0.65091">
        <ele>90.46789058391</ele>
        <time>2021-11-17T14:10:46Z</time>
      </trkpt>
      <trkpt lat="46.52131" lon="0.65089">
        <ele>90.124274396338</ele>
        <time>2021-11-17T14:10:48Z</time>
      </trkpt>
      <trkpt lat="46.52129" lon="0.65087">
        <ele>89.829496311024</ele>
        <time>2021-11-17T14:10:50Z</time>
      </trkpt>
      <trkpt lat="46.52127" lon="0.65084">
        <ele>89.584736341611</ele>
        <time>2021-11-17T14:10:52Z</time>
      </trkpt>
      <trkpt lat="46.52125" lon="0.65081">
        <ele>89.185471874662</ele>
        <time>2021-11-17T14:10:54Z</time>
      </trkpt>
      <trkpt lat="46.52123" lon="0.6508">
        <ele>89.461660673842</ele>
        <time>2021-11-17T14:10:55Z</time>
      </trkpt>
      <trkpt lat="46.5212" lon="0.65078">
        <ele>89.534971692599</ele>
        <time>2021-11-17T14:10:57Z</time>
      </trkpt>
      <trkpt lat="46.52119" lon="0.65076">
        <ele>89.310287415981</ele>
        <time>2021-11-17T14:10:59Z</time>
      </trkpt>
      <trkpt lat="46.52117" lon="0.65075">
        <ele>89.385942326859</ele>
        <time>2021-11-17T14:11:01Z</time>
      </trkpt>
      <trkpt lat="46.52116" lon="0.65073">
        <ele>89.333412883803</ele>
        <time>2021-11-17T14:11:03Z</time>
      </trkpt>
      <trkpt lat="46.52114" lon="0.65071">
        <ele>88.961542189121</ele>
        <time>2021-11-17T14:11:05Z</time>
      </trkpt>
      <trkpt lat="46.52112" lon="0.6507">
        <ele>89.229327280074</ele>
        <time>2021-11-17T14:11:07Z</time>
      </trkpt>
      <trkpt lat="46.5211" lon="0.65068">
        <ele>89.348319910467</ele>
        <time>2021-11-17T14:11:09Z</time>
      </trkpt>
      <trkpt lat="46.52108" lon="0.65067">
        <ele>88.926039307378</ele>
        <time>2021-11-17T14:11:11Z</time>
      </trkpt>
      <trkpt lat="46.52106" lon="0.65065">
        <ele>88.977673734538</ele>
        <time>2021-11-17T14:11:14Z</time>
      </trkpt>
      <trkpt lat="46.52104" lon="0.65063">
        <ele>88.736668748781</ele>
        <time>2021-11-17T14:11:16Z</time>
      </trkpt>
      <trkpt lat="46.52102" lon="0.65061">
        <ele>88.908807823434</ele>
        <time>2021-11-17T14:11:18Z</time>
      </trkpt>
      <trkpt lat="46.521" lon="0.65057">
        <ele>88.648619182408</ele>
        <time>2021-11-17T14:11:22Z</time>
      </trkpt>
      <trkpt lat="46.52098" lon="0.65054">
        <ele>88.680600731634</ele>
        <time>2021-11-17T14:11:24Z</time>
      </trkpt>
      <trkpt lat="46.521" lon="0.65053">
        <ele>88.944836936891</ele>
        <time>2021-11-17T14:11:30Z</time>
      </trkpt>
      <trkpt lat="46.52102" lon="0.65056">
        <ele>89.31604599487</ele>
        <time>2021-11-17T14:11:34Z</time>
      </trkpt>
      <trkpt lat="46.52101" lon="0.65053">
        <ele>89.117795524187</ele>
        <time>2021-11-17T14:11:47Z</time>
      </trkpt>
      <trkpt lat="46.52099" lon="0.65051">
        <ele>89.172979527153</ele>
        <time>2021-11-17T14:11:52Z</time>
      </trkpt>
      <trkpt lat="46.52097" lon="0.65051">
        <ele>89.153734593652</ele>
        <time>2021-11-17T14:11:55Z</time>
      </trkpt>
      <trkpt lat="46.52095" lon="0.6505">
        <ele>89.012968654744</ele>
        <time>2021-11-17T14:11:59Z</time>
      </trkpt>
      <trkpt lat="46.52093" lon="0.65048">
        <ele>88.995053726248</ele>
        <time>2021-11-17T14:12:04Z</time>
      </trkpt>
      <trkpt lat="46.52097" lon="0.65048">
        <ele>88.722910759971</ele>
        <time>2021-11-17T14:12:19Z</time>
      </trkpt>
      <trkpt lat="46.521" lon="0.65047">
        <ele>88.935304742306</ele>
        <time>2021-11-17T14:12:28Z</time>
      </trkpt>
      <trkpt lat="46.521" lon="0.65052">
        <ele>89.118417051621</ele>
        <time>2021-11-17T14:12:33Z</time>
      </trkpt>
      <trkpt lat="46.52098" lon="0.65053">
        <ele>89.220129145309</ele>
        <time>2021-11-17T14:12:36Z</time>
      </trkpt>
      <trkpt lat="46.52096" lon="0.65054">
        <ele>89.105722215027</ele>
        <time>2021-11-17T14:12:38Z</time>
      </trkpt>
      <trkpt lat="46.52098" lon="0.65053">
        <ele>89.261130345054</ele>
        <time>2021-11-17T14:12:41Z</time>
      </trkpt>
      <trkpt lat="46.521" lon="0.6505">
        <ele>89.57406595815</ele>
        <time>2021-11-17T14:12:47Z</time>
      </trkpt>
      <trkpt lat="46.52101" lon="0.65052">
        <ele>89.122850714251</ele>
        <time>2021-11-17T14:12:52Z</time>
      </trkpt>
      <trkpt lat="46.52102" lon="0.6505">
        <ele>89.150451722555</ele>
        <time>2021-11-17T14:12:57Z</time>
      </trkpt>
      <trkpt lat="46.52103" lon="0.65048">
        <ele>89.167362947948</ele>
        <time>2021-11-17T14:13:01Z</time>
      </trkpt>
      <trkpt lat="46.52105" lon="0.65046">
        <ele>89.33612733148</ele>
        <time>2021-11-17T14:13:25Z</time>
      </trkpt>
      <trkpt lat="46.52102" lon="0.65049">
        <ele>89.408051356673</ele>
        <time>2021-11-17T14:13:36Z</time>
      </trkpt>
      <trkpt lat="46.52103" lon="0.65048">
        <ele>89.498381942511</ele>
        <time>2021-11-17T14:13:41Z</time>
      </trkpt>
      <trkpt lat="46.52103" lon="0.65045">
        <ele>89.823907201178</ele>
        <time>2021-11-17T14:13:51Z</time>
      </trkpt>
      <trkpt lat="46.521" lon="0.65045">
        <ele>89.434710595757</ele>
        <time>2021-11-17T14:14:19Z</time>
      </trkpt>
      <trkpt lat="46.52098" lon="0.65045">
        <ele>89.323167883791</ele>
        <time>2021-11-17T14:15:06Z</time>
      </trkpt>
      <trkpt lat="46.52096" lon="0.65043">
        <ele>88.931704218499</ele>
        <time>2021-11-17T14:15:09Z</time>
      </trkpt>
      <trkpt lat="46.52094" lon="0.65042">
        <ele>89.178788923658</ele>
        <time>2021-11-17T14:15:13Z</time>
      </trkpt>
      <trkpt lat="46.52092" lon="0.65041">
        <ele>88.250887077302</ele>
        <time>2021-11-17T14:15:15Z</time>
      </trkpt>
      <trkpt lat="46.5209" lon="0.65039">
        <ele>88.365546219982</ele>
        <time>2021-11-17T14:15:17Z</time>
      </trkpt>
      <trkpt lat="46.52088" lon="0.65037">
        <ele>88.559478802606</ele>
        <time>2021-11-17T14:15:19Z</time>
      </trkpt>
      <trkpt lat="46.52087" lon="0.65034">
        <ele>88.704006758519</ele>
        <time>2021-11-17T14:15:22Z</time>
      </trkpt>
      <trkpt lat="46.52086" lon="0.65031">
        <ele>88.008368146606</ele>
        <time>2021-11-17T14:15:24Z</time>
      </trkpt>
      <trkpt lat="46.52084" lon="0.65028">
        <ele>87.500149266794</ele>
        <time>2021-11-17T14:15:26Z</time>
      </trkpt>
      <trkpt lat="46.52083" lon="0.65026">
        <ele>87.022499323823</ele>
        <time>2021-11-17T14:15:28Z</time>
      </trkpt>
      <trkpt lat="46.52081" lon="0.65023">
        <ele>87.610411711037</ele>
        <time>2021-11-17T14:15:30Z</time>
      </trkpt>
      <trkpt lat="46.5208" lon="0.6502">
        <ele>87.546478884295</ele>
        <time>2021-11-17T14:15:32Z</time>
      </trkpt>
      <trkpt lat="46.52079" lon="0.65016">
        <ele>87.153003470041</ele>
        <time>2021-11-17T14:15:34Z</time>
      </trkpt>
      <trkpt lat="46.52077" lon="0.65013">
        <ele>87.462309467606</ele>
        <time>2021-11-17T14:15:36Z</time>
      </trkpt>
      <trkpt lat="46.52076" lon="0.6501">
        <ele>87.591641512699</ele>
        <time>2021-11-17T14:15:38Z</time>
      </trkpt>
      <trkpt lat="46.52075" lon="0.65006">
        <ele>87.356378837489</ele>
        <time>2021-11-17T14:15:40Z</time>
      </trkpt>
      <trkpt lat="46.52073" lon="0.65003">
        <ele>86.912625561468</ele>
        <time>2021-11-17T14:15:42Z</time>
      </trkpt>
      <trkpt lat="46.52072" lon="0.65">
        <ele>87.511574332602</ele>
        <time>2021-11-17T14:15:44Z</time>
      </trkpt>
      <trkpt lat="46.52071" lon="0.64997">
        <ele>87.068151203915</ele>
        <time>2021-11-17T14:15:46Z</time>
      </trkpt>
      <trkpt lat="46.5207" lon="0.64994">
        <ele>87.171502089128</ele>
        <time>2021-11-17T14:15:48Z</time>
      </trkpt>
      <trkpt lat="46.52069" lon="0.6499">
        <ele>86.770713971928</ele>
        <time>2021-11-17T14:15:50Z</time>
      </trkpt>
      <trkpt lat="46.52067" lon="0.64986">
        <ele>87.461057691835</ele>
        <time>2021-11-17T14:15:52Z</time>
      </trkpt>
      <trkpt lat="46.52067" lon="0.64983">
        <ele>86.484871232882</ele>
        <time>2021-11-17T14:15:54Z</time>
      </trkpt>
      <trkpt lat="46.52066" lon="0.6498">
        <ele>86.206421919167</ele>
        <time>2021-11-17T14:15:56Z</time>
      </trkpt>
      <trkpt lat="46.52064" lon="0.64977">
        <ele>86.845802627504</ele>
        <time>2021-11-17T14:15:58Z</time>
      </trkpt>
      <trkpt lat="46.52062" lon="0.64974">
        <ele>86.340593971312</ele>
        <time>2021-11-17T14:16:00Z</time>
      </trkpt>
      <trkpt lat="46.52061" lon="0.64971">
        <ele>86.028343163431</ele>
        <time>2021-11-17T14:16:01Z</time>
      </trkpt>
      <trkpt lat="46.52061" lon="0.64968">
        <ele>86.55983361695</ele>
        <time>2021-11-17T14:16:03Z</time>
      </trkpt>
      <trkpt lat="46.52059" lon="0.64964">
        <ele>85.742446867749</ele>
        <time>2021-11-17T14:16:05Z</time>
      </trkpt>
      <trkpt lat="46.52058" lon="0.64961">
        <ele>86.155969666317</ele>
        <time>2021-11-17T14:16:06Z</time>
      </trkpt>
      <trkpt lat="46.52057" lon="0.64958">
        <ele>85.972223925404</ele>
        <time>2021-11-17T14:16:08Z</time>
      </trkpt>
      <trkpt lat="46.52056" lon="0.64955">
        <ele>85.888441514224</ele>
        <time>2021-11-17T14:16:10Z</time>
      </trkpt>
      <trkpt lat="46.52055" lon="0.64952">
        <ele>85.513169706799</ele>
        <time>2021-11-17T14:16:12Z</time>
      </trkpt>
      <trkpt lat="46.52054" lon="0.64948">
        <ele>85.539240173064</ele>
        <time>2021-11-17T14:16:14Z</time>
      </trkpt>
      <trkpt lat="46.52052" lon="0.64945">
        <ele>85.832826536149</ele>
        <time>2021-11-17T14:16:16Z</time>
      </trkpt>
      <trkpt lat="46.52051" lon="0.64941">
        <ele>84.288471517153</ele>
        <time>2021-11-17T14:16:18Z</time>
      </trkpt>
      <trkpt lat="46.5205" lon="0.64938">
        <ele>84.614703295752</ele>
        <time>2021-11-17T14:16:20Z</time>
      </trkpt>
      <trkpt lat="46.52049" lon="0.64935">
        <ele>85.024779388681</ele>
        <time>2021-11-17T14:16:22Z</time>
      </trkpt>
      <trkpt lat="46.52048" lon="0.6493">
        <ele>84.890633320436</ele>
        <time>2021-11-17T14:16:25Z</time>
      </trkpt>
      <trkpt lat="46.52048" lon="0.64928">
        <ele>85.13742854353</ele>
        <time>2021-11-17T14:16:27Z</time>
      </trkpt>
      <trkpt lat="46.52047" lon="0.64925">
        <ele>84.914108936675</ele>
        <time>2021-11-17T14:16:29Z</time>
      </trkpt>
      <trkpt lat="46.52046" lon="0.64922">
        <ele>84.968713621609</ele>
        <time>2021-11-17T14:16:31Z</time>
      </trkpt>
      <trkpt lat="46.52045" lon="0.64918">
        <ele>85.374640841968</ele>
        <time>2021-11-17T14:16:33Z</time>
      </trkpt>
      <trkpt lat="46.52044" lon="0.64914">
        <ele>85.004332718439</ele>
        <time>2021-11-17T14:16:35Z</time>
      </trkpt>
      <trkpt lat="46.52043" lon="0.64911">
        <ele>85.233537691645</ele>
        <time>2021-11-17T14:16:37Z</time>
      </trkpt>
      <trkpt lat="46.52043" lon="0.64908">
        <ele>85.127576453611</ele>
        <time>2021-11-17T14:16:39Z</time>
      </trkpt>
      <trkpt lat="46.52042" lon="0.64905">
        <ele>84.889694846235</ele>
        <time>2021-11-17T14:16:41Z</time>
      </trkpt>
      <trkpt lat="46.52041" lon="0.64902">
        <ele>84.818433943205</ele>
        <time>2021-11-17T14:16:43Z</time>
      </trkpt>
      <trkpt lat="46.5204" lon="0.64899">
        <ele>84.662078027613</ele>
        <time>2021-11-17T14:16:45Z</time>
      </trkpt>
      <trkpt lat="46.52038" lon="0.64895">
        <ele>84.276692784391</ele>
        <time>2021-11-17T14:16:47Z</time>
      </trkpt>
      <trkpt lat="46.52038" lon="0.64892">
        <ele>84.207190285437</ele>
        <time>2021-11-17T14:16:49Z</time>
      </trkpt>
      <trkpt lat="46.52037" lon="0.64889">
        <ele>84.515971554443</ele>
        <time>2021-11-17T14:16:51Z</time>
      </trkpt>
      <trkpt lat="46.52037" lon="0.64886">
        <ele>84.333701493219</ele>
        <time>2021-11-17T14:16:52Z</time>
      </trkpt>
      <trkpt lat="46.52036" lon="0.64883">
        <ele>84.386115971953</ele>
        <time>2021-11-17T14:16:54Z</time>
      </trkpt>
      <trkpt lat="46.52035" lon="0.6488">
        <ele>84.116339281201</ele>
        <time>2021-11-17T14:16:56Z</time>
      </trkpt>
      <trkpt lat="46.52033" lon="0.64876">
        <ele>84.04173603747</ele>
        <time>2021-11-17T14:16:58Z</time>
      </trkpt>
      <trkpt lat="46.52033" lon="0.64872">
        <ele>83.387893419713</ele>
        <time>2021-11-17T14:17:01Z</time>
      </trkpt>
      <trkpt lat="46.52032" lon="0.6487">
        <ele>83.183054186404</ele>
        <time>2021-11-17T14:17:02Z</time>
      </trkpt>
      <trkpt lat="46.52031" lon="0.64867">
        <ele>82.911718931049</ele>
        <time>2021-11-17T14:17:04Z</time>
      </trkpt>
      <trkpt lat="46.5203" lon="0.64864">
        <ele>82.856775471941</ele>
        <time>2021-11-17T14:17:06Z</time>
      </trkpt>
      <trkpt lat="46.52029" lon="0.6486">
        <ele>83.146469934843</ele>
        <time>2021-11-17T14:17:08Z</time>
      </trkpt>
      <trkpt lat="46.52028" lon="0.64858">
        <ele>82.91260854993</ele>
        <time>2021-11-17T14:17:09Z</time>
      </trkpt>
      <trkpt lat="46.52027" lon="0.64855">
        <ele>81.936369697563</ele>
        <time>2021-11-17T14:17:11Z</time>
      </trkpt>
      <trkpt lat="46.52025" lon="0.64852">
        <ele>82.001388549805</ele>
        <time>2021-11-17T14:17:13Z</time>
      </trkpt>
      <trkpt lat="46.52024" lon="0.64847">
        <ele>81.331927449442</ele>
        <time>2021-11-17T14:17:15Z</time>
      </trkpt>
      <trkpt lat="46.52023" lon="0.64844">
        <ele>79.779769768007</ele>
        <time>2021-11-17T14:17:18Z</time>
      </trkpt>
      <trkpt lat="46.52023" lon="0.64841">
        <ele>80.73138770368</ele>
        <time>2021-11-17T14:17:19Z</time>
      </trkpt>
      <trkpt lat="46.52022" lon="0.64838">
        <ele>79.949906260706</ele>
        <time>2021-11-17T14:17:21Z</time>
      </trkpt>
      <trkpt lat="46.52021" lon="0.64833">
        <ele>80.246876415797</ele>
        <time>2021-11-17T14:17:23Z</time>
      </trkpt>
      <trkpt lat="46.52021" lon="0.64829">
        <ele>80.20218545571</ele>
        <time>2021-11-17T14:17:25Z</time>
      </trkpt>
      <trkpt lat="46.52022" lon="0.64825">
        <ele>80.727001888677</ele>
        <time>2021-11-17T14:17:27Z</time>
      </trkpt>
      <trkpt lat="46.52023" lon="0.64821">
        <ele>80.435660632327</ele>
        <time>2021-11-17T14:17:29Z</time>
      </trkpt>
      <trkpt lat="46.52024" lon="0.64818">
        <ele>79.846031390131</ele>
        <time>2021-11-17T14:17:31Z</time>
      </trkpt>
      <trkpt lat="46.52026" lon="0.64814">
        <ele>79.372823761776</ele>
        <time>2021-11-17T14:17:33Z</time>
      </trkpt>
      <trkpt lat="46.52027" lon="0.64811">
        <ele>78.535930852406</ele>
        <time>2021-11-17T14:17:35Z</time>
      </trkpt>
      <trkpt lat="46.52028" lon="0.64809">
        <ele>78.158971437253</ele>
        <time>2021-11-17T14:17:37Z</time>
      </trkpt>
      <trkpt lat="46.52029" lon="0.64805">
        <ele>78.322732789442</ele>
        <time>2021-11-17T14:17:39Z</time>
      </trkpt>
      <trkpt lat="46.5203" lon="0.64802">
        <ele>78.233622560278</ele>
        <time>2021-11-17T14:17:41Z</time>
      </trkpt>
      <trkpt lat="46.52031" lon="0.64798">
        <ele>77.688394728117</ele>
        <time>2021-11-17T14:17:43Z</time>
      </trkpt>
      <trkpt lat="46.52033" lon="0.64795">
        <ele>77.600098798983</ele>
        <time>2021-11-17T14:17:45Z</time>
      </trkpt>
      <trkpt lat="46.52034" lon="0.64792">
        <ele>77.174896439537</ele>
        <time>2021-11-17T14:17:47Z</time>
      </trkpt>
      <trkpt lat="46.52035" lon="0.64788">
        <ele>77.173407391645</ele>
        <time>2021-11-17T14:17:49Z</time>
      </trkpt>
      <trkpt lat="46.52036" lon="0.64785">
        <ele>76.51007758081</ele>
        <time>2021-11-17T14:17:51Z</time>
      </trkpt>
      <trkpt lat="46.52038" lon="0.64783">
        <ele>76.373525784351</ele>
        <time>2021-11-17T14:17:53Z</time>
      </trkpt>
      <trkpt lat="46.5204" lon="0.64779">
        <ele>75.769252520986</ele>
        <time>2021-11-17T14:17:55Z</time>
      </trkpt>
      <trkpt lat="46.52041" lon="0.64777">
        <ele>75.675720511004</ele>
        <time>2021-11-17T14:17:58Z</time>
      </trkpt>
      <trkpt lat="46.52043" lon="0.64774">
        <ele>74.887739240192</ele>
        <time>2021-11-17T14:18:00Z</time>
      </trkpt>
      <trkpt lat="46.52043" lon="0.64771">
        <ele>74.652649546973</ele>
        <time>2021-11-17T14:18:02Z</time>
      </trkpt>
      <trkpt lat="46.52043" lon="0.64767">
        <ele>74.1029881211</ele>
        <time>2021-11-17T14:18:04Z</time>
      </trkpt>
      <trkpt lat="46.52043" lon="0.64763">
        <ele>73.711789785884</ele>
        <time>2021-11-17T14:18:06Z</time>
      </trkpt>
      <trkpt lat="46.52042" lon="0.64761">
        <ele>73.620206447318</ele>
        <time>2021-11-17T14:18:08Z</time>
      </trkpt>
      <trkpt lat="46.52041" lon="0.64758">
        <ele>73.525591159239</ele>
        <time>2021-11-17T14:18:10Z</time>
      </trkpt>
      <trkpt lat="46.52039" lon="0.64756">
        <ele>73.758330463432</ele>
        <time>2021-11-17T14:18:13Z</time>
      </trkpt>
      <trkpt lat="46.52037" lon="0.64754">
        <ele>72.905593395233</ele>
        <time>2021-11-17T14:18:14Z</time>
      </trkpt>
      <trkpt lat="46.52035" lon="0.64753">
        <ele>71.714509445243</ele>
        <time>2021-11-17T14:18:15Z</time>
      </trkpt>
      <trkpt lat="46.52033" lon="0.64752">
        <ele>72.894414998591</ele>
        <time>2021-11-17T14:18:17Z</time>
      </trkpt>
      <trkpt lat="46.52031" lon="0.6475">
        <ele>72.66468146909</ele>
        <time>2021-11-17T14:18:19Z</time>
      </trkpt>
      <trkpt lat="46.52028" lon="0.64749">
        <ele>72.466117942706</ele>
        <time>2021-11-17T14:18:21Z</time>
      </trkpt>
      <trkpt lat="46.52026" lon="0.64748">
        <ele>72.068870469928</ele>
        <time>2021-11-17T14:18:22Z</time>
      </trkpt>
      <trkpt lat="46.52024" lon="0.64746">
        <ele>72.20394245442</ele>
        <time>2021-11-17T14:18:24Z</time>
      </trkpt>
      <trkpt lat="46.52021" lon="0.64744">
        <ele>72.307660305873</ele>
        <time>2021-11-17T14:18:26Z</time>
      </trkpt>
      <trkpt lat="46.52019" lon="0.64743">
        <ele>72.047648737207</ele>
        <time>2021-11-17T14:18:27Z</time>
      </trkpt>
      <trkpt lat="46.52017" lon="0.6474">
        <ele>72.922122329473</ele>
        <time>2021-11-17T14:18:29Z</time>
      </trkpt>
      <trkpt lat="46.52014" lon="0.64738">
        <ele>72.105492794886</ele>
        <time>2021-11-17T14:18:31Z</time>
      </trkpt>
      <trkpt lat="46.52012" lon="0.64735">
        <ele>71.320868411101</ele>
        <time>2021-11-17T14:18:33Z</time>
      </trkpt>
      <trkpt lat="46.5201" lon="0.64734">
        <ele>70.995750833303</ele>
        <time>2021-11-17T14:18:34Z</time>
      </trkpt>
      <trkpt lat="46.52008" lon="0.64732">
        <ele>72.636126291938</ele>
        <time>2021-11-17T14:18:36Z</time>
      </trkpt>
      <trkpt lat="46.52006" lon="0.64731">
        <ele>72.298943120055</ele>
        <time>2021-11-17T14:18:38Z</time>
      </trkpt>
      <trkpt lat="46.52004" lon="0.64729">
        <ele>72.514503097162</ele>
        <time>2021-11-17T14:18:40Z</time>
      </trkpt>
      <trkpt lat="46.52002" lon="0.64727">
        <ele>72.374227717519</ele>
        <time>2021-11-17T14:18:42Z</time>
      </trkpt>
      <trkpt lat="46.52" lon="0.64726">
        <ele>72.238160777837</ele>
        <time>2021-11-17T14:18:44Z</time>
      </trkpt>
      <trkpt lat="46.51997" lon="0.64724">
        <ele>72.36711878702</ele>
        <time>2021-11-17T14:18:46Z</time>
      </trkpt>
      <trkpt lat="46.51995" lon="0.64722">
        <ele>72.277870898135</ele>
        <time>2021-11-17T14:18:47Z</time>
      </trkpt>
      <trkpt lat="46.51994" lon="0.6472">
        <ele>72.307183743455</ele>
        <time>2021-11-17T14:18:49Z</time>
      </trkpt>
      <trkpt lat="46.51991" lon="0.64718">
        <ele>72.156070281751</ele>
        <time>2021-11-17T14:18:51Z</time>
      </trkpt>
      <trkpt lat="46.51989" lon="0.64716">
        <ele>72.644887772389</ele>
        <time>2021-11-17T14:18:53Z</time>
      </trkpt>
      <trkpt lat="46.51986" lon="0.64713">
        <ele>72.243371061981</ele>
        <time>2021-11-17T14:18:55Z</time>
      </trkpt>
      <trkpt lat="46.51985" lon="0.64712">
        <ele>72.022955007851</ele>
        <time>2021-11-17T14:18:57Z</time>
      </trkpt>
      <trkpt lat="46.51983" lon="0.6471">
        <ele>72.220449069515</ele>
        <time>2021-11-17T14:18:59Z</time>
      </trkpt>
      <trkpt lat="46.5198" lon="0.64708">
        <ele>71.830248820595</ele>
        <time>2021-11-17T14:19:01Z</time>
      </trkpt>
      <trkpt lat="46.51978" lon="0.64707">
        <ele>72.099773740396</ele>
        <time>2021-11-17T14:19:03Z</time>
      </trkpt>
      <trkpt lat="46.51977" lon="0.64706">
        <ele>71.739981253631</ele>
        <time>2021-11-17T14:19:05Z</time>
      </trkpt>
      <trkpt lat="46.51974" lon="0.64704">
        <ele>71.953960806131</ele>
        <time>2021-11-17T14:19:07Z</time>
      </trkpt>
      <trkpt lat="46.51972" lon="0.64702">
        <ele>72.239807480946</ele>
        <time>2021-11-17T14:19:09Z</time>
      </trkpt>
      <trkpt lat="46.5197" lon="0.647">
        <ele>71.867589508183</ele>
        <time>2021-11-17T14:19:11Z</time>
      </trkpt>
      <trkpt lat="46.51968" lon="0.64698">
        <ele>71.950107359327</ele>
        <time>2021-11-17T14:19:13Z</time>
      </trkpt>
      <trkpt lat="46.51966" lon="0.64696">
        <ele>72.091701016761</ele>
        <time>2021-11-17T14:19:15Z</time>
      </trkpt>
      <trkpt lat="46.51963" lon="0.64694">
        <ele>72.475130593404</ele>
        <time>2021-11-17T14:19:17Z</time>
      </trkpt>
      <trkpt lat="46.51961" lon="0.64692">
        <ele>71.481630668975</ele>
        <time>2021-11-17T14:19:19Z</time>
      </trkpt>
      <trkpt lat="46.51959" lon="0.64691">
        <ele>71.535617318936</ele>
        <time>2021-11-17T14:19:21Z</time>
      </trkpt>
      <trkpt lat="46.51957" lon="0.64689">
        <ele>71.424615019932</ele>
        <time>2021-11-17T14:19:22Z</time>
      </trkpt>
      <trkpt lat="46.51954" lon="0.64687">
        <ele>72.730962025002</ele>
        <time>2021-11-17T14:19:24Z</time>
      </trkpt>
      <trkpt lat="46.51952" lon="0.64686">
        <ele>72.390164816752</ele>
        <time>2021-11-17T14:19:26Z</time>
      </trkpt>
      <trkpt lat="46.5195" lon="0.64684">
        <ele>72.469502774067</ele>
        <time>2021-11-17T14:19:28Z</time>
      </trkpt>
      <trkpt lat="46.51948" lon="0.64683">
        <ele>72.485289412551</ele>
        <time>2021-11-17T14:19:29Z</time>
      </trkpt>
      <trkpt lat="46.51945" lon="0.64682">
        <ele>72.355393367819</ele>
        <time>2021-11-17T14:19:32Z</time>
      </trkpt>
      <trkpt lat="46.51943" lon="0.6468">
        <ele>72.423481636681</ele>
        <time>2021-11-17T14:19:34Z</time>
      </trkpt>
      <trkpt lat="46.5194" lon="0.64678">
        <ele>73.031880121678</ele>
        <time>2021-11-17T14:19:36Z</time>
      </trkpt>
      <trkpt lat="46.51939" lon="0.64676">
        <ele>72.791589278728</ele>
        <time>2021-11-17T14:19:38Z</time>
      </trkpt>
      <trkpt lat="46.51936" lon="0.64673">
        <ele>73.526567153633</ele>
        <time>2021-11-17T14:19:40Z</time>
      </trkpt>
      <trkpt lat="46.51934" lon="0.64671">
        <ele>73.143625174649</ele>
        <time>2021-11-17T14:19:42Z</time>
      </trkpt>
      <trkpt lat="46.51932" lon="0.64669">
        <ele>72.548802814446</ele>
        <time>2021-11-17T14:19:44Z</time>
      </trkpt>
      <trkpt lat="46.51931" lon="0.64667">
        <ele>72.383855864406</ele>
        <time>2021-11-17T14:19:45Z</time>
      </trkpt>
      <trkpt lat="46.5193" lon="0.64664">
        <ele>73.309266593307</ele>
        <time>2021-11-17T14:19:47Z</time>
      </trkpt>
      <trkpt lat="46.51928" lon="0.64662">
        <ele>73.513674214482</ele>
        <time>2021-11-17T14:19:49Z</time>
      </trkpt>
      <trkpt lat="46.51926" lon="0.64661">
        <ele>73.024648326449</ele>
        <time>2021-11-17T14:19:51Z</time>
      </trkpt>
      <trkpt lat="46.51924" lon="0.64659">
        <ele>73.800820006989</ele>
        <time>2021-11-17T14:19:53Z</time>
      </trkpt>
      <trkpt lat="46.51921" lon="0.64658">
        <ele>73.131046972238</ele>
        <time>2021-11-17T14:19:55Z</time>
      </trkpt>
      <trkpt lat="46.51919" lon="0.64657">
        <ele>73.478512641042</ele>
        <time>2021-11-17T14:19:57Z</time>
      </trkpt>
      <trkpt lat="46.51917" lon="0.64655">
        <ele>73.5627229698</ele>
        <time>2021-11-17T14:19:59Z</time>
      </trkpt>
      <trkpt lat="46.51915" lon="0.64653">
        <ele>74.062346042134</ele>
        <time>2021-11-17T14:20:01Z</time>
      </trkpt>
      <trkpt lat="46.51913" lon="0.64651">
        <ele>73.639643258415</ele>
        <time>2021-11-17T14:20:03Z</time>
      </trkpt>
      <trkpt lat="46.51909" lon="0.64648">
        <ele>73.804138629697</ele>
        <time>2021-11-17T14:20:05Z</time>
      </trkpt>
      <trkpt lat="46.51907" lon="0.64646">
        <ele>73.662671064958</ele>
        <time>2021-11-17T14:20:07Z</time>
      </trkpt>
      <trkpt lat="46.51904" lon="0.64644">
        <ele>73.839341376908</ele>
        <time>2021-11-17T14:20:09Z</time>
      </trkpt>
      <trkpt lat="46.51902" lon="0.64642">
        <ele>73.593411974609</ele>
        <time>2021-11-17T14:20:11Z</time>
      </trkpt>
      <trkpt lat="46.519" lon="0.6464">
        <ele>73.776627669111</ele>
        <time>2021-11-17T14:20:14Z</time>
      </trkpt>
      <trkpt lat="46.51898" lon="0.6464">
        <ele>74.128977267072</ele>
        <time>2021-11-17T14:20:16Z</time>
      </trkpt>
      <trkpt lat="46.51895" lon="0.64638">
        <ele>74.009767113253</ele>
        <time>2021-11-17T14:20:18Z</time>
      </trkpt>
      <trkpt lat="46.51893" lon="0.64636">
        <ele>74.118358190171</ele>
        <time>2021-11-17T14:20:20Z</time>
      </trkpt>
      <trkpt lat="46.51891" lon="0.64635">
        <ele>74.327521254309</ele>
        <time>2021-11-17T14:20:22Z</time>
      </trkpt>
      <trkpt lat="46.51889" lon="0.64633">
        <ele>73.82571152132</ele>
        <time>2021-11-17T14:20:24Z</time>
      </trkpt>
      <trkpt lat="46.51886" lon="0.64633">
        <ele>73.916925322264</ele>
        <time>2021-11-17T14:20:26Z</time>
      </trkpt>
      <trkpt lat="46.51884" lon="0.64631">
        <ele>73.746133892797</ele>
        <time>2021-11-17T14:20:28Z</time>
      </trkpt>
      <trkpt lat="46.51883" lon="0.6463">
        <ele>74.359937539324</ele>
        <time>2021-11-17T14:20:30Z</time>
      </trkpt>
      <trkpt lat="46.5188" lon="0.64629">
        <ele>74.510907792486</ele>
        <time>2021-11-17T14:20:32Z</time>
      </trkpt>
      <trkpt lat="46.51878" lon="0.64627">
        <ele>74.330397563055</ele>
        <time>2021-11-17T14:20:34Z</time>
      </trkpt>
      <trkpt lat="46.51875" lon="0.64626">
        <ele>74.323005083948</ele>
        <time>2021-11-17T14:20:36Z</time>
      </trkpt>
      <trkpt lat="46.51872" lon="0.64625">
        <ele>74.454928466119</ele>
        <time>2021-11-17T14:20:38Z</time>
      </trkpt>
      <trkpt lat="46.5187" lon="0.64624">
        <ele>74.867826347239</ele>
        <time>2021-11-17T14:20:41Z</time>
      </trkpt>
      <trkpt lat="46.51868" lon="0.64623">
        <ele>74.926922903396</ele>
        <time>2021-11-17T14:20:43Z</time>
      </trkpt>
      <trkpt lat="46.51866" lon="0.64622">
        <ele>74.627985928208</ele>
        <time>2021-11-17T14:20:45Z</time>
      </trkpt>
      <trkpt lat="46.51863" lon="0.64622">
        <ele>74.677162264474</ele>
        <time>2021-11-17T14:20:48Z</time>
      </trkpt>
      <trkpt lat="46.5186" lon="0.64622">
        <ele>75.314481589943</ele>
        <time>2021-11-17T14:20:50Z</time>
      </trkpt>
      <trkpt lat="46.51859" lon="0.64623">
        <ele>74.815463024192</ele>
        <time>2021-11-17T14:20:52Z</time>
      </trkpt>
      <trkpt lat="46.51856" lon="0.64623">
        <ele>75.199970268644</ele>
        <time>2021-11-17T14:20:54Z</time>
      </trkpt>
      <trkpt lat="46.51854" lon="0.64622">
        <ele>75.410505454056</ele>
        <time>2021-11-17T14:20:57Z</time>
      </trkpt>
      <trkpt lat="46.51851" lon="0.64623">
        <ele>75.659747574478</ele>
        <time>2021-11-17T14:20:59Z</time>
      </trkpt>
      <trkpt lat="46.51848" lon="0.64624">
        <ele>75.917063532397</ele>
        <time>2021-11-17T14:21:01Z</time>
      </trkpt>
      <trkpt lat="46.51845" lon="0.64624">
        <ele>75.482433393598</ele>
        <time>2021-11-17T14:21:04Z</time>
      </trkpt>
      <trkpt lat="46.51842" lon="0.64623">
        <ele>75.801198597997</ele>
        <time>2021-11-17T14:21:06Z</time>
      </trkpt>
      <trkpt lat="46.5184" lon="0.64622">
        <ele>76.383504424244</ele>
        <time>2021-11-17T14:21:08Z</time>
      </trkpt>
      <trkpt lat="46.51837" lon="0.64622">
        <ele>75.561747889034</ele>
        <time>2021-11-17T14:21:10Z</time>
      </trkpt>
      <trkpt lat="46.51835" lon="0.64622">
        <ele>76.848200775683</ele>
        <time>2021-11-17T14:21:12Z</time>
      </trkpt>
      <trkpt lat="46.51833" lon="0.64622">
        <ele>75.522623582743</ele>
        <time>2021-11-17T14:21:14Z</time>
      </trkpt>
      <trkpt lat="46.51831" lon="0.6462">
        <ele>76.267672074027</ele>
        <time>2021-11-17T14:21:16Z</time>
      </trkpt>
      <trkpt lat="46.51828" lon="0.64619">
        <ele>76.016201144084</ele>
        <time>2021-11-17T14:21:18Z</time>
      </trkpt>
      <trkpt lat="46.51825" lon="0.64619">
        <ele>76.559535600245</ele>
        <time>2021-11-17T14:21:20Z</time>
      </trkpt>
      <trkpt lat="46.51824" lon="0.64619">
        <ele>76.729570378549</ele>
        <time>2021-11-17T14:21:22Z</time>
      </trkpt>
      <trkpt lat="46.51821" lon="0.64619">
        <ele>75.987470816821</ele>
        <time>2021-11-17T14:21:24Z</time>
      </trkpt>
      <trkpt lat="46.51819" lon="0.64618">
        <ele>76.074710197747</ele>
        <time>2021-11-17T14:21:26Z</time>
      </trkpt>
      <trkpt lat="46.51817" lon="0.64618">
        <ele>76.544573843479</ele>
        <time>2021-11-17T14:21:28Z</time>
      </trkpt>
      <trkpt lat="46.51814" lon="0.64618">
        <ele>76.224707944319</ele>
        <time>2021-11-17T14:21:30Z</time>
      </trkpt>
      <trkpt lat="46.51811" lon="0.64618">
        <ele>76.734600911848</ele>
        <time>2021-11-17T14:21:32Z</time>
      </trkpt>
      <trkpt lat="46.51809" lon="0.64618">
        <ele>76.752017480321</ele>
        <time>2021-11-17T14:21:34Z</time>
      </trkpt>
      <trkpt lat="46.51807" lon="0.64618">
        <ele>76.75344257988</ele>
        <time>2021-11-17T14:21:36Z</time>
      </trkpt>
      <trkpt lat="46.51804" lon="0.64617">
        <ele>77.232241506688</ele>
        <time>2021-11-17T14:21:38Z</time>
      </trkpt>
      <trkpt lat="46.51802" lon="0.64616">
        <ele>77.047463373281</ele>
        <time>2021-11-17T14:21:40Z</time>
      </trkpt>
      <trkpt lat="46.51799" lon="0.64616">
        <ele>76.815099919215</ele>
        <time>2021-11-17T14:21:42Z</time>
      </trkpt>
      <trkpt lat="46.51797" lon="0.64615">
        <ele>76.725463553332</ele>
        <time>2021-11-17T14:21:44Z</time>
      </trkpt>
      <trkpt lat="46.51794" lon="0.64614">
        <ele>76.817853718065</ele>
        <time>2021-11-17T14:21:46Z</time>
      </trkpt>
      <trkpt lat="46.51792" lon="0.64614">
        <ele>77.04170089867</ele>
        <time>2021-11-17T14:21:48Z</time>
      </trkpt>
      <trkpt lat="46.51789" lon="0.64613">
        <ele>76.582560911775</ele>
        <time>2021-11-17T14:21:50Z</time>
      </trkpt>
      <trkpt lat="46.51787" lon="0.64612">
        <ele>76.7794288164</ele>
        <time>2021-11-17T14:21:52Z</time>
      </trkpt>
      <trkpt lat="46.51785" lon="0.64612">
        <ele>76.406592323445</ele>
        <time>2021-11-17T14:21:54Z</time>
      </trkpt>
      <trkpt lat="46.51782" lon="0.64611">
        <ele>76.440528726205</ele>
        <time>2021-11-17T14:21:56Z</time>
      </trkpt>
      <trkpt lat="46.5178" lon="0.64611">
        <ele>76.685060321353</ele>
        <time>2021-11-17T14:21:58Z</time>
      </trkpt>
      <trkpt lat="46.51778" lon="0.64611">
        <ele>76.475583583117</ele>
        <time>2021-11-17T14:22:01Z</time>
      </trkpt>
      <trkpt lat="46.51775" lon="0.6461">
        <ele>76.380250445567</ele>
        <time>2021-11-17T14:22:03Z</time>
      </trkpt>
      <trkpt lat="46.51773" lon="0.64611">
        <ele>76.96263708733</ele>
        <time>2021-11-17T14:22:05Z</time>
      </trkpt>
      <trkpt lat="46.51771" lon="0.64611">
        <ele>76.537589189596</ele>
        <time>2021-11-17T14:22:07Z</time>
      </trkpt>
      <trkpt lat="46.51769" lon="0.64611">
        <ele>76.5546482848</ele>
        <time>2021-11-17T14:22:09Z</time>
      </trkpt>
      <trkpt lat="46.51766" lon="0.64611">
        <ele>76.437461903319</ele>
        <time>2021-11-17T14:22:11Z</time>
      </trkpt>
      <trkpt lat="46.51764" lon="0.64612">
        <ele>76.885840165429</ele>
        <time>2021-11-17T14:22:13Z</time>
      </trkpt>
      <trkpt lat="46.51762" lon="0.64613">
        <ele>76.219614344649</ele>
        <time>2021-11-17T14:22:15Z</time>
      </trkpt>
      <trkpt lat="46.51761" lon="0.64616">
        <ele>76.195406686515</ele>
        <time>2021-11-17T14:22:17Z</time>
      </trkpt>
      <trkpt lat="46.51758" lon="0.64618">
        <ele>76.394164985977</ele>
        <time>2021-11-17T14:22:19Z</time>
      </trkpt>
      <trkpt lat="46.51756" lon="0.6462">
        <ele>75.986723013222</ele>
        <time>2021-11-17T14:22:21Z</time>
      </trkpt>
      <trkpt lat="46.51753" lon="0.64621">
        <ele>75.879326655529</ele>
        <time>2021-11-17T14:22:23Z</time>
      </trkpt>
      <trkpt lat="46.51751" lon="0.64621">
        <ele>76.636522006243</ele>
        <time>2021-11-17T14:22:25Z</time>
      </trkpt>
      <trkpt lat="46.51748" lon="0.64621">
        <ele>75.807339874096</ele>
        <time>2021-11-17T14:22:27Z</time>
      </trkpt>
      <trkpt lat="46.51745" lon="0.64621">
        <ele>75.855517953634</ele>
        <time>2021-11-17T14:22:29Z</time>
      </trkpt>
      <trkpt lat="46.51743" lon="0.64621">
        <ele>75.800424645655</ele>
        <time>2021-11-17T14:22:31Z</time>
      </trkpt>
      <trkpt lat="46.5174" lon="0.64622">
        <ele>75.791753989644</ele>
        <time>2021-11-17T14:22:33Z</time>
      </trkpt>
      <trkpt lat="46.51738" lon="0.64622">
        <ele>75.338353848085</ele>
        <time>2021-11-17T14:22:35Z</time>
      </trkpt>
      <trkpt lat="46.51735" lon="0.64623">
        <ele>75.622793261893</ele>
        <time>2021-11-17T14:22:37Z</time>
      </trkpt>
      <trkpt lat="46.51733" lon="0.64623">
        <ele>75.483146400191</ele>
        <time>2021-11-17T14:22:39Z</time>
      </trkpt>
      <trkpt lat="46.51732" lon="0.64624">
        <ele>75.63181785401</ele>
        <time>2021-11-17T14:22:41Z</time>
      </trkpt>
      <trkpt lat="46.5173" lon="0.64627">
        <ele>75.03689237684</ele>
        <time>2021-11-17T14:22:43Z</time>
      </trkpt>
      <trkpt lat="46.51728" lon="0.64627">
        <ele>75.229819352739</ele>
        <time>2021-11-17T14:22:45Z</time>
      </trkpt>
      <trkpt lat="46.51726" lon="0.64628">
        <ele>75.244197485037</ele>
        <time>2021-11-17T14:22:47Z</time>
      </trkpt>
      <trkpt lat="46.51724" lon="0.6463">
        <ele>75.496049526148</ele>
        <time>2021-11-17T14:22:49Z</time>
      </trkpt>
      <trkpt lat="46.51722" lon="0.64632">
        <ele>75.320728167892</ele>
        <time>2021-11-17T14:22:51Z</time>
      </trkpt>
      <trkpt lat="46.5172" lon="0.64634">
        <ele>75.062039388344</ele>
        <time>2021-11-17T14:22:53Z</time>
      </trkpt>
      <trkpt lat="46.51718" lon="0.64635">
        <ele>75.189359511249</ele>
        <time>2021-11-17T14:22:54Z</time>
      </trkpt>
      <trkpt lat="46.51716" lon="0.64636">
        <ele>74.735983570106</ele>
        <time>2021-11-17T14:22:56Z</time>
      </trkpt>
      <trkpt lat="46.51713" lon="0.64638">
        <ele>74.835495924577</ele>
        <time>2021-11-17T14:22:58Z</time>
      </trkpt>
      <trkpt lat="46.51711" lon="0.64639">
        <ele>74.872262758203</ele>
        <time>2021-11-17T14:23:00Z</time>
      </trkpt>
      <trkpt lat="46.51709" lon="0.64639">
        <ele>74.72668125201</ele>
        <time>2021-11-17T14:23:01Z</time>
      </trkpt>
      <trkpt lat="46.51707" lon="0.6464">
        <ele>74.844891742803</ele>
        <time>2021-11-17T14:23:03Z</time>
      </trkpt>
      <trkpt lat="46.51704" lon="0.6464">
        <ele>75.023376933299</ele>
        <time>2021-11-17T14:23:05Z</time>
      </trkpt>
      <trkpt lat="46.51702" lon="0.64639">
        <ele>75.055446063168</ele>
        <time>2021-11-17T14:23:07Z</time>
      </trkpt>
      <trkpt lat="46.51699" lon="0.64637">
        <ele>74.933498021215</ele>
        <time>2021-11-17T14:23:09Z</time>
      </trkpt>
      <trkpt lat="46.51697" lon="0.64635">
        <ele>75.13475820981</ele>
        <time>2021-11-17T14:23:11Z</time>
      </trkpt>
      <trkpt lat="46.51694" lon="0.64632">
        <ele>75.081042139791</ele>
        <time>2021-11-17T14:23:13Z</time>
      </trkpt>
      <trkpt lat="46.51692" lon="0.6463">
        <ele>75.278610540554</ele>
        <time>2021-11-17T14:23:15Z</time>
      </trkpt>
      <trkpt lat="46.5169" lon="0.64627">
        <ele>75.159759319387</ele>
        <time>2021-11-17T14:23:17Z</time>
      </trkpt>
      <trkpt lat="46.51689" lon="0.64624">
        <ele>75.362461771816</ele>
        <time>2021-11-17T14:23:19Z</time>
      </trkpt>
      <trkpt lat="46.51687" lon="0.64622">
        <ele>75.10995171126</ele>
        <time>2021-11-17T14:23:21Z</time>
      </trkpt>
      <trkpt lat="46.51685" lon="0.64618">
        <ele>75.290744096041</ele>
        <time>2021-11-17T14:23:23Z</time>
      </trkpt>
      <trkpt lat="46.51683" lon="0.64616">
        <ele>75.546539071016</ele>
        <time>2021-11-17T14:23:25Z</time>
      </trkpt>
      <trkpt lat="46.51682" lon="0.64614">
        <ele>75.663297606632</ele>
        <time>2021-11-17T14:23:26Z</time>
      </trkpt>
      <trkpt lat="46.5168" lon="0.64611">
        <ele>75.823240583763</ele>
        <time>2021-11-17T14:23:29Z</time>
      </trkpt>
      <trkpt lat="46.51677" lon="0.64609">
        <ele>75.886391612701</ele>
        <time>2021-11-17T14:23:31Z</time>
      </trkpt>
      <trkpt lat="46.51676" lon="0.64606">
        <ele>75.473064236343</ele>
        <time>2021-11-17T14:23:33Z</time>
      </trkpt>
      <trkpt lat="46.51674" lon="0.64603">
        <ele>74.375417163596</ele>
        <time>2021-11-17T14:23:35Z</time>
      </trkpt>
      <trkpt lat="46.51672" lon="0.646">
        <ele>75.630658360198</ele>
        <time>2021-11-17T14:23:37Z</time>
      </trkpt>
      <trkpt lat="46.51669" lon="0.64597">
        <ele>75.715500615537</ele>
        <time>2021-11-17T14:23:39Z</time>
      </trkpt>
      <trkpt lat="46.51667" lon="0.64593">
        <ele>76.989292341284</ele>
        <time>2021-11-17T14:23:42Z</time>
      </trkpt>
      <trkpt lat="46.51666" lon="0.6459">
        <ele>76.384572485462</ele>
        <time>2021-11-17T14:23:44Z</time>
      </trkpt>
      <trkpt lat="46.51664" lon="0.64587">
        <ele>76.466179852374</ele>
        <time>2021-11-17T14:23:46Z</time>
      </trkpt>
      <trkpt lat="46.51663" lon="0.64584">
        <ele>76.371320028789</ele>
        <time>2021-11-17T14:23:48Z</time>
      </trkpt>
      <trkpt lat="46.51661" lon="0.64582">
        <ele>76.765312535688</ele>
        <time>2021-11-17T14:23:50Z</time>
      </trkpt>
      <trkpt lat="46.51659" lon="0.64579">
        <ele>76.826246713288</ele>
        <time>2021-11-17T14:23:52Z</time>
      </trkpt>
      <trkpt lat="46.51658" lon="0.64577">
        <ele>76.842961814255</ele>
        <time>2021-11-17T14:23:53Z</time>
      </trkpt>
      <trkpt lat="46.51657" lon="0.64575">
        <ele>77.274274352938</ele>
        <time>2021-11-17T14:23:55Z</time>
      </trkpt>
      <trkpt lat="46.51655" lon="0.64572">
        <ele>77.327301505022</ele>
        <time>2021-11-17T14:23:57Z</time>
      </trkpt>
      <trkpt lat="46.51653" lon="0.6457">
        <ele>77.495844605379</ele>
        <time>2021-11-17T14:24:00Z</time>
      </trkpt>
      <trkpt lat="46.51651" lon="0.64568">
        <ele>77.346705128439</ele>
        <time>2021-11-17T14:24:02Z</time>
      </trkpt>
      <trkpt lat="46.51648" lon="0.64566">
        <ele>77.301395932212</ele>
        <time>2021-11-17T14:24:05Z</time>
      </trkpt>
      <trkpt lat="46.51647" lon="0.64563">
        <ele>77.353099615313</ele>
        <time>2021-11-17T14:24:06Z</time>
      </trkpt>
      <trkpt lat="46.51645" lon="0.6456">
        <ele>77.561399762519</ele>
        <time>2021-11-17T14:24:08Z</time>
      </trkpt>
      <trkpt lat="46.51644" lon="0.64558">
        <ele>78.231843052432</ele>
        <time>2021-11-17T14:24:10Z</time>
      </trkpt>
      <trkpt lat="46.51641" lon="0.64555">
        <ele>77.660794573836</ele>
        <time>2021-11-17T14:24:12Z</time>
      </trkpt>
      <trkpt lat="46.5164" lon="0.64553">
        <ele>78.102870117873</ele>
        <time>2021-11-17T14:24:14Z</time>
      </trkpt>
      <trkpt lat="46.51638" lon="0.64551">
        <ele>78.307050662115</ele>
        <time>2021-11-17T14:24:16Z</time>
      </trkpt>
      <trkpt lat="46.51636" lon="0.6455">
        <ele>78.520692360587</ele>
        <time>2021-11-17T14:24:18Z</time>
      </trkpt>
      <trkpt lat="46.51635" lon="0.64548">
        <ele>78.171045911498</ele>
        <time>2021-11-17T14:24:20Z</time>
      </trkpt>
      <trkpt lat="46.51633" lon="0.64546">
        <ele>78.749550333247</ele>
        <time>2021-11-17T14:24:22Z</time>
      </trkpt>
      <trkpt lat="46.51631" lon="0.64544">
        <ele>79.213252027519</ele>
        <time>2021-11-17T14:24:24Z</time>
      </trkpt>
      <trkpt lat="46.51629" lon="0.64542">
        <ele>79.219773942605</ele>
        <time>2021-11-17T14:24:26Z</time>
      </trkpt>
      <trkpt lat="46.51626" lon="0.64539">
        <ele>80.029289169237</ele>
        <time>2021-11-17T14:24:28Z</time>
      </trkpt>
      <trkpt lat="46.51624" lon="0.64537">
        <ele>79.929436580278</ele>
        <time>2021-11-17T14:24:30Z</time>
      </trkpt>
      <trkpt lat="46.51623" lon="0.64535">
        <ele>80.230918153189</ele>
        <time>2021-11-17T14:24:32Z</time>
      </trkpt>
      <trkpt lat="46.5162" lon="0.64534">
        <ele>80.325076566078</ele>
        <time>2021-11-17T14:24:34Z</time>
      </trkpt>
      <trkpt lat="46.51618" lon="0.64533">
        <ele>80.698992989957</ele>
        <time>2021-11-17T14:24:36Z</time>
      </trkpt>
      <trkpt lat="46.51615" lon="0.64531">
        <ele>80.150328122079</ele>
        <time>2021-11-17T14:24:38Z</time>
      </trkpt>
      <trkpt lat="46.51613" lon="0.6453">
        <ele>81.06192604173</ele>
        <time>2021-11-17T14:24:40Z</time>
      </trkpt>
      <trkpt lat="46.51611" lon="0.64528">
        <ele>81.224302768707</ele>
        <time>2021-11-17T14:24:42Z</time>
      </trkpt>
      <trkpt lat="46.51608" lon="0.64526">
        <ele>81.368783583865</ele>
        <time>2021-11-17T14:24:44Z</time>
      </trkpt>
      <trkpt lat="46.51606" lon="0.64525">
        <ele>81.90206476301</ele>
        <time>2021-11-17T14:24:46Z</time>
      </trkpt>
      <trkpt lat="46.51605" lon="0.64524">
        <ele>81.151100174524</ele>
        <time>2021-11-17T14:24:48Z</time>
      </trkpt>
      <trkpt lat="46.51602" lon="0.64522">
        <ele>81.52113553416</ele>
        <time>2021-11-17T14:24:50Z</time>
      </trkpt>
      <trkpt lat="46.516" lon="0.64521">
        <ele>81.833856258541</ele>
        <time>2021-11-17T14:24:52Z</time>
      </trkpt>
      <trkpt lat="46.51599" lon="0.6452">
        <ele>81.905652148649</ele>
        <time>2021-11-17T14:24:54Z</time>
      </trkpt>
      <trkpt lat="46.51596" lon="0.64518">
        <ele>81.191824083216</ele>
        <time>2021-11-17T14:24:57Z</time>
      </trkpt>
      <trkpt lat="46.51594" lon="0.6452">
        <ele>82.575873259455</ele>
        <time>2021-11-17T14:24:59Z</time>
      </trkpt>
      <trkpt lat="46.51592" lon="0.64518">
        <ele>82.377338686027</ele>
        <time>2021-11-17T14:25:01Z</time>
      </trkpt>
      <trkpt lat="46.51589" lon="0.64517">
        <ele>82.391592786647</ele>
        <time>2021-11-17T14:25:03Z</time>
      </trkpt>
      <trkpt lat="46.51587" lon="0.64516">
        <ele>82.328193279915</ele>
        <time>2021-11-17T14:25:05Z</time>
      </trkpt>
      <trkpt lat="46.51585" lon="0.64514">
        <ele>82.694783808663</ele>
        <time>2021-11-17T14:25:07Z</time>
      </trkpt>
      <trkpt lat="46.51583" lon="0.64513">
        <ele>82.918508775532</ele>
        <time>2021-11-17T14:25:09Z</time>
      </trkpt>
      <trkpt lat="46.51581" lon="0.64512">
        <ele>82.948737586848</ele>
        <time>2021-11-17T14:25:11Z</time>
      </trkpt>
      <trkpt lat="46.51579" lon="0.6451">
        <ele>82.914354505017</ele>
        <time>2021-11-17T14:25:13Z</time>
      </trkpt>
      <trkpt lat="46.51577" lon="0.64509">
        <ele>83.246397740208</ele>
        <time>2021-11-17T14:25:15Z</time>
      </trkpt>
      <trkpt lat="46.51574" lon="0.64507">
        <ele>83.371270153672</ele>
        <time>2021-11-17T14:25:17Z</time>
      </trkpt>
      <trkpt lat="46.51572" lon="0.64506">
        <ele>83.613620609045</ele>
        <time>2021-11-17T14:25:19Z</time>
      </trkpt>
      <trkpt lat="46.5157" lon="0.64503">
        <ele>83.771430101246</ele>
        <time>2021-11-17T14:25:21Z</time>
      </trkpt>
      <trkpt lat="46.51567" lon="0.64501">
        <ele>83.751453207806</ele>
        <time>2021-11-17T14:25:23Z</time>
      </trkpt>
      <trkpt lat="46.51565" lon="0.64499">
        <ele>83.318357430398</ele>
        <time>2021-11-17T14:25:25Z</time>
      </trkpt>
      <trkpt lat="46.51562" lon="0.64496">
        <ele>84.00097963959</ele>
        <time>2021-11-17T14:25:28Z</time>
      </trkpt>
      <trkpt lat="46.5156" lon="0.64494">
        <ele>83.533931678161</ele>
        <time>2021-11-17T14:25:30Z</time>
      </trkpt>
      <trkpt lat="46.51558" lon="0.64492">
        <ele>83.627445969731</ele>
        <time>2021-11-17T14:25:32Z</time>
      </trkpt>
      <trkpt lat="46.51556" lon="0.64489">
        <ele>83.484588344581</ele>
        <time>2021-11-17T14:25:34Z</time>
      </trkpt>
      <trkpt lat="46.51554" lon="0.64487">
        <ele>84.286530713551</ele>
        <time>2021-11-17T14:25:36Z</time>
      </trkpt>
      <trkpt lat="46.51552" lon="0.64485">
        <ele>83.961894324981</ele>
        <time>2021-11-17T14:25:38Z</time>
      </trkpt>
      <trkpt lat="46.51551" lon="0.64482">
        <ele>82.793498181738</ele>
        <time>2021-11-17T14:25:40Z</time>
      </trkpt>
      <trkpt lat="46.51549" lon="0.64479">
        <ele>83.813148085959</ele>
        <time>2021-11-17T14:25:42Z</time>
      </trkpt>
      <trkpt lat="46.51547" lon="0.64476">
        <ele>84.070734373294</ele>
        <time>2021-11-17T14:25:44Z</time>
      </trkpt>
      <trkpt lat="46.51546" lon="0.64474">
        <ele>83.853247473016</ele>
        <time>2021-11-17T14:25:46Z</time>
      </trkpt>
      <trkpt lat="46.51544" lon="0.64472">
        <ele>83.784960737452</ele>
        <time>2021-11-17T14:25:48Z</time>
      </trkpt>
      <trkpt lat="46.51542" lon="0.6447">
        <ele>84.013222927228</ele>
        <time>2021-11-17T14:25:49Z</time>
      </trkpt>
      <trkpt lat="46.51541" lon="0.64467">
        <ele>84.484876442701</ele>
        <time>2021-11-17T14:25:51Z</time>
      </trkpt>
      <trkpt lat="46.51539" lon="0.64464">
        <ele>84.386716965586</ele>
        <time>2021-11-17T14:25:53Z</time>
      </trkpt>
      <trkpt lat="46.51538" lon="0.64461">
        <ele>84.650712970644</ele>
        <time>2021-11-17T14:25:55Z</time>
      </trkpt>
      <trkpt lat="46.51536" lon="0.64458">
        <ele>84.179834262468</ele>
        <time>2021-11-17T14:25:57Z</time>
      </trkpt>
      <trkpt lat="46.51534" lon="0.64455">
        <ele>84.344407633878</ele>
        <time>2021-11-17T14:25:59Z</time>
      </trkpt>
      <trkpt lat="46.51533" lon="0.64452">
        <ele>84.162337071262</ele>
        <time>2021-11-17T14:26:01Z</time>
      </trkpt>
      <trkpt lat="46.51531" lon="0.64449">
        <ele>84.015223926865</ele>
        <time>2021-11-17T14:26:03Z</time>
      </trkpt>
      <trkpt lat="46.5153" lon="0.64445">
        <ele>83.832578469068</ele>
        <time>2021-11-17T14:26:05Z</time>
      </trkpt>
      <trkpt lat="46.51528" lon="0.64443">
        <ele>83.789404987358</ele>
        <time>2021-11-17T14:26:07Z</time>
      </trkpt>
      <trkpt lat="46.51526" lon="0.6444">
        <ele>83.964885214344</ele>
        <time>2021-11-17T14:26:09Z</time>
      </trkpt>
      <trkpt lat="46.51524" lon="0.64437">
        <ele>83.906291132793</ele>
        <time>2021-11-17T14:26:11Z</time>
      </trkpt>
      <trkpt lat="46.51523" lon="0.64434">
        <ele>83.711920550093</ele>
        <time>2021-11-17T14:26:13Z</time>
      </trkpt>
      <trkpt lat="46.51521" lon="0.64431">
        <ele>83.691612894647</ele>
        <time>2021-11-17T14:26:15Z</time>
      </trkpt>
      <trkpt lat="46.51519" lon="0.64429">
        <ele>83.813591794111</ele>
        <time>2021-11-17T14:26:17Z</time>
      </trkpt>
      <trkpt lat="46.51517" lon="0.64425">
        <ele>83.756802228279</ele>
        <time>2021-11-17T14:26:19Z</time>
      </trkpt>
      <trkpt lat="46.51516" lon="0.64423">
        <ele>83.692650225945</ele>
        <time>2021-11-17T14:26:21Z</time>
      </trkpt>
      <trkpt lat="46.51515" lon="0.64421">
        <ele>83.857120808214</ele>
        <time>2021-11-17T14:26:23Z</time>
      </trkpt>
      <trkpt lat="46.51512" lon="0.64418">
        <ele>84.105020655319</ele>
        <time>2021-11-17T14:26:25Z</time>
      </trkpt>
      <trkpt lat="46.51511" lon="0.64415">
        <ele>84.101972269826</ele>
        <time>2021-11-17T14:26:27Z</time>
      </trkpt>
      <trkpt lat="46.51509" lon="0.64412">
        <ele>83.903964382596</ele>
        <time>2021-11-17T14:26:29Z</time>
      </trkpt>
      <trkpt lat="46.51506" lon="0.64409">
        <ele>84.128529922105</ele>
        <time>2021-11-17T14:26:31Z</time>
      </trkpt>
      <trkpt lat="46.51504" lon="0.64406">
        <ele>84.545925148763</ele>
        <time>2021-11-17T14:26:33Z</time>
      </trkpt>
      <trkpt lat="46.51503" lon="0.64404">
        <ele>84.153051109053</ele>
        <time>2021-11-17T14:26:35Z</time>
      </trkpt>
      <trkpt lat="46.51501" lon="0.64401">
        <ele>83.147553689778</ele>
        <time>2021-11-17T14:26:37Z</time>
      </trkpt>
      <trkpt lat="46.51499" lon="0.64399">
        <ele>83.733656541444</ele>
        <time>2021-11-17T14:26:38Z</time>
      </trkpt>
      <trkpt lat="46.51497" lon="0.64397">
        <ele>84.39184342511</ele>
        <time>2021-11-17T14:26:40Z</time>
      </trkpt>
      <trkpt lat="46.51495" lon="0.64395">
        <ele>84.312426783144</ele>
        <time>2021-11-17T14:26:42Z</time>
      </trkpt>
      <trkpt lat="46.51493" lon="0.64393">
        <ele>83.768892141059</ele>
        <time>2021-11-17T14:26:44Z</time>
      </trkpt>
      <trkpt lat="46.51491" lon="0.64391">
        <ele>83.886980347335</ele>
        <time>2021-11-17T14:26:46Z</time>
      </trkpt>
      <trkpt lat="46.51488" lon="0.64389">
        <ele>83.736196871847</ele>
        <time>2021-11-17T14:26:48Z</time>
      </trkpt>
      <trkpt lat="46.51486" lon="0.64387">
        <ele>83.728290006518</ele>
        <time>2021-11-17T14:26:50Z</time>
      </trkpt>
      <trkpt lat="46.51484" lon="0.64384">
        <ele>83.953894966282</ele>
        <time>2021-11-17T14:26:52Z</time>
      </trkpt>
      <trkpt lat="46.51482" lon="0.64382">
        <ele>83.683472309262</ele>
        <time>2021-11-17T14:26:54Z</time>
      </trkpt>
      <trkpt lat="46.51481" lon="0.64379">
        <ele>83.632338155992</ele>
        <time>2021-11-17T14:26:56Z</time>
      </trkpt>
      <trkpt lat="46.51479" lon="0.64377">
        <ele>83.549581803381</ele>
        <time>2021-11-17T14:26:58Z</time>
      </trkpt>
      <trkpt lat="46.51477" lon="0.64375">
        <ele>83.534896279685</ele>
        <time>2021-11-17T14:27:00Z</time>
      </trkpt>
      <trkpt lat="46.51475" lon="0.64375">
        <ele>83.728112512268</ele>
        <time>2021-11-17T14:27:02Z</time>
      </trkpt>
      <trkpt lat="46.51472" lon="0.64373">
        <ele>83.052408767864</ele>
        <time>2021-11-17T14:27:05Z</time>
      </trkpt>
      <trkpt lat="46.5147" lon="0.6437">
        <ele>83.883472148329</ele>
        <time>2021-11-17T14:27:08Z</time>
      </trkpt>
      <trkpt lat="46.51468" lon="0.64367">
        <ele>83.52014108561</ele>
        <time>2021-11-17T14:27:11Z</time>
      </trkpt>
      <trkpt lat="46.51465" lon="0.64364">
        <ele>83.417108016089</ele>
        <time>2021-11-17T14:27:14Z</time>
      </trkpt>
      <trkpt lat="46.51463" lon="0.64363">
        <ele>83.49855433125</ele>
        <time>2021-11-17T14:27:16Z</time>
      </trkpt>
      <trkpt lat="46.51461" lon="0.64362">
        <ele>83.655724234879</ele>
        <time>2021-11-17T14:27:18Z</time>
      </trkpt>
      <trkpt lat="46.51459" lon="0.6436">
        <ele>83.222138214856</ele>
        <time>2021-11-17T14:27:19Z</time>
      </trkpt>
      <trkpt lat="46.51457" lon="0.64358">
        <ele>83.471300014295</ele>
        <time>2021-11-17T14:27:21Z</time>
      </trkpt>
      <trkpt lat="46.51456" lon="0.64356">
        <ele>83.454718793742</ele>
        <time>2021-11-17T14:27:23Z</time>
      </trkpt>
      <trkpt lat="46.51453" lon="0.64354">
        <ele>83.437985251658</ele>
        <time>2021-11-17T14:27:25Z</time>
      </trkpt>
      <trkpt lat="46.51451" lon="0.64352">
        <ele>83.240582843311</ele>
        <time>2021-11-17T14:27:27Z</time>
      </trkpt>
      <trkpt lat="46.51449" lon="0.6435">
        <ele>83.216939230449</ele>
        <time>2021-11-17T14:27:29Z</time>
      </trkpt>
      <trkpt lat="46.51447" lon="0.64348">
        <ele>83.324029534124</ele>
        <time>2021-11-17T14:27:31Z</time>
      </trkpt>
      <trkpt lat="46.51445" lon="0.64347">
        <ele>83.271965688094</ele>
        <time>2021-11-17T14:27:33Z</time>
      </trkpt>
      <trkpt lat="46.51442" lon="0.64346">
        <ele>83.462352503091</ele>
        <time>2021-11-17T14:27:35Z</time>
      </trkpt>
      <trkpt lat="46.5144" lon="0.64344">
        <ele>83.694368365221</ele>
        <time>2021-11-17T14:27:37Z</time>
      </trkpt>
      <trkpt lat="46.51437" lon="0.64341">
        <ele>83.54213295877</ele>
        <time>2021-11-17T14:27:39Z</time>
      </trkpt>
      <trkpt lat="46.51435" lon="0.6434">
        <ele>83.951534766704</ele>
        <time>2021-11-17T14:27:41Z</time>
      </trkpt>
      <trkpt lat="46.51433" lon="0.64339">
        <ele>83.856851918623</ele>
        <time>2021-11-17T14:27:42Z</time>
      </trkpt>
      <trkpt lat="46.5143" lon="0.64337">
        <ele>84.032105679624</ele>
        <time>2021-11-17T14:27:44Z</time>
      </trkpt>
      <trkpt lat="46.51428" lon="0.64335">
        <ele>83.560682267882</ele>
        <time>2021-11-17T14:27:46Z</time>
      </trkpt>
      <trkpt lat="46.51426" lon="0.64334">
        <ele>83.598450046964</ele>
        <time>2021-11-17T14:27:48Z</time>
      </trkpt>
      <trkpt lat="46.51424" lon="0.64331">
        <ele>83.600857065059</ele>
        <time>2021-11-17T14:27:50Z</time>
      </trkpt>
      <trkpt lat="46.51422" lon="0.6433">
        <ele>83.198936097324</ele>
        <time>2021-11-17T14:27:52Z</time>
      </trkpt>
      <trkpt lat="46.5142" lon="0.64328">
        <ele>83.121589442715</ele>
        <time>2021-11-17T14:27:54Z</time>
      </trkpt>
      <trkpt lat="46.51418" lon="0.64326">
        <ele>82.550580093637</ele>
        <time>2021-11-17T14:27:55Z</time>
      </trkpt>
      <trkpt lat="46.51417" lon="0.64325">
        <ele>82.279919467866</ele>
        <time>2021-11-17T14:27:56Z</time>
      </trkpt>
      <trkpt lat="46.51416" lon="0.64323">
        <ele>82.566688385792</ele>
        <time>2021-11-17T14:27:58Z</time>
      </trkpt>
      <trkpt lat="46.51414" lon="0.64321">
        <ele>83.299521154724</ele>
        <time>2021-11-17T14:28:00Z</time>
      </trkpt>
      <trkpt lat="46.51411" lon="0.64319">
        <ele>82.975356196053</ele>
        <time>2021-11-17T14:28:02Z</time>
      </trkpt>
      <trkpt lat="46.51409" lon="0.64317">
        <ele>83.080282540992</ele>
        <time>2021-11-17T14:28:04Z</time>
      </trkpt>
      <trkpt lat="46.51406" lon="0.64315">
        <ele>83.177570692264</ele>
        <time>2021-11-17T14:28:06Z</time>
      </trkpt>
      <trkpt lat="46.51403" lon="0.64314">
        <ele>82.994345906191</ele>
        <time>2021-11-17T14:28:08Z</time>
      </trkpt>
      <trkpt lat="46.51401" lon="0.64312">
        <ele>83.455188388936</ele>
        <time>2021-11-17T14:28:10Z</time>
      </trkpt>
      <trkpt lat="46.51399" lon="0.6431">
        <ele>83.196572435088</ele>
        <time>2021-11-17T14:28:12Z</time>
      </trkpt>
      <trkpt lat="46.51396" lon="0.64309">
        <ele>83.38719529286</ele>
        <time>2021-11-17T14:28:14Z</time>
      </trkpt>
      <trkpt lat="46.51393" lon="0.64306">
        <ele>83.276474450715</ele>
        <time>2021-11-17T14:28:16Z</time>
      </trkpt>
      <trkpt lat="46.51391" lon="0.64305">
        <ele>83.41153052263</ele>
        <time>2021-11-17T14:28:18Z</time>
      </trkpt>
      <trkpt lat="46.51389" lon="0.64304">
        <ele>83.320065843873</ele>
        <time>2021-11-17T14:28:19Z</time>
      </trkpt>
      <trkpt lat="46.51385" lon="0.64304">
        <ele>83.377151823603</ele>
        <time>2021-11-17T14:28:21Z</time>
      </trkpt>
      <trkpt lat="46.51383" lon="0.64303">
        <ele>83.040502736345</ele>
        <time>2021-11-17T14:28:23Z</time>
      </trkpt>
      <trkpt lat="46.5138" lon="0.64302">
        <ele>83.076123558916</ele>
        <time>2021-11-17T14:28:25Z</time>
      </trkpt>
      <trkpt lat="46.51377" lon="0.64301">
        <ele>83.059369971976</ele>
        <time>2021-11-17T14:28:27Z</time>
      </trkpt>
      <trkpt lat="46.51374" lon="0.643">
        <ele>82.676057005301</ele>
        <time>2021-11-17T14:28:29Z</time>
      </trkpt>
      <trkpt lat="46.51371" lon="0.643">
        <ele>83.066763634793</ele>
        <time>2021-11-17T14:28:31Z</time>
      </trkpt>
      <trkpt lat="46.51369" lon="0.643">
        <ele>82.76985944435</ele>
        <time>2021-11-17T14:28:33Z</time>
      </trkpt>
      <trkpt lat="46.51367" lon="0.64299">
        <ele>83.061070230789</ele>
        <time>2021-11-17T14:28:35Z</time>
      </trkpt>
      <trkpt lat="46.51364" lon="0.64298">
        <ele>83.138138662092</ele>
        <time>2021-11-17T14:28:37Z</time>
      </trkpt>
      <trkpt lat="46.51361" lon="0.64298">
        <ele>82.981658192351</ele>
        <time>2021-11-17T14:28:39Z</time>
      </trkpt>
      <trkpt lat="46.51359" lon="0.64297">
        <ele>82.925761841238</ele>
        <time>2021-11-17T14:28:41Z</time>
      </trkpt>
      <trkpt lat="46.51356" lon="0.64296">
        <ele>82.955487892032</ele>
        <time>2021-11-17T14:28:43Z</time>
      </trkpt>
      <trkpt lat="46.51353" lon="0.64296">
        <ele>82.982089302503</ele>
        <time>2021-11-17T14:28:45Z</time>
      </trkpt>
      <trkpt lat="46.51351" lon="0.64295">
        <ele>83.051966343075</ele>
        <time>2021-11-17T14:28:47Z</time>
      </trkpt>
      <trkpt lat="46.51348" lon="0.64295">
        <ele>83.310892901383</ele>
        <time>2021-11-17T14:28:49Z</time>
      </trkpt>
      <trkpt lat="46.51345" lon="0.64295">
        <ele>82.822459870949</ele>
        <time>2021-11-17T14:28:51Z</time>
      </trkpt>
      <trkpt lat="46.51342" lon="0.64294">
        <ele>83.233314584941</ele>
        <time>2021-11-17T14:28:53Z</time>
      </trkpt>
      <trkpt lat="46.5134" lon="0.64293">
        <ele>83.149695646949</ele>
        <time>2021-11-17T14:28:55Z</time>
      </trkpt>
      <trkpt lat="46.51337" lon="0.64293">
        <ele>83.482566510327</ele>
        <time>2021-11-17T14:28:57Z</time>
      </trkpt>
      <trkpt lat="46.51334" lon="0.64292">
        <ele>83.414554115385</ele>
        <time>2021-11-17T14:28:59Z</time>
      </trkpt>
      <trkpt lat="46.51331" lon="0.64292">
        <ele>83.182502276264</ele>
        <time>2021-11-17T14:29:01Z</time>
      </trkpt>
      <trkpt lat="46.51329" lon="0.64292">
        <ele>83.583873433992</ele>
        <time>2021-11-17T14:29:03Z</time>
      </trkpt>
      <trkpt lat="46.51326" lon="0.64291">
        <ele>83.459731973708</ele>
        <time>2021-11-17T14:29:05Z</time>
      </trkpt>
      <trkpt lat="46.51323" lon="0.64291">
        <ele>83.168476982042</ele>
        <time>2021-11-17T14:29:07Z</time>
      </trkpt>
      <trkpt lat="46.51322" lon="0.6429">
        <ele>83.193710356951</ele>
        <time>2021-11-17T14:29:08Z</time>
      </trkpt>
      <trkpt lat="46.5132" lon="0.64289">
        <ele>82.895267218351</ele>
        <time>2021-11-17T14:29:10Z</time>
      </trkpt>
      <trkpt lat="46.51318" lon="0.64289">
        <ele>83.122817046009</ele>
        <time>2021-11-17T14:29:11Z</time>
      </trkpt>
      <trkpt lat="46.51314" lon="0.64289">
        <ele>83.043645555153</ele>
        <time>2021-11-17T14:29:13Z</time>
      </trkpt>
      <trkpt lat="46.51312" lon="0.64288">
        <ele>82.843887623399</ele>
        <time>2021-11-17T14:29:15Z</time>
      </trkpt>
      <trkpt lat="46.5131" lon="0.64288">
        <ele>82.804027792066</ele>
        <time>2021-11-17T14:29:17Z</time>
      </trkpt>
      <trkpt lat="46.51307" lon="0.64288">
        <ele>82.721497398801</ele>
        <time>2021-11-17T14:29:19Z</time>
      </trkpt>
      <trkpt lat="46.51305" lon="0.64288">
        <ele>82.919267238118</ele>
        <time>2021-11-17T14:29:21Z</time>
      </trkpt>
      <trkpt lat="46.51303" lon="0.64287">
        <ele>83.078333612531</ele>
        <time>2021-11-17T14:29:22Z</time>
      </trkpt>
      <trkpt lat="46.513" lon="0.64287">
        <ele>82.783533350565</ele>
        <time>2021-11-17T14:29:24Z</time>
      </trkpt>
      <trkpt lat="46.51298" lon="0.64287">
        <ele>82.99943430908</ele>
        <time>2021-11-17T14:29:26Z</time>
      </trkpt>
      <trkpt lat="46.51295" lon="0.64287">
        <ele>82.786412951536</ele>
        <time>2021-11-17T14:29:28Z</time>
      </trkpt>
      <trkpt lat="46.51293" lon="0.64286">
        <ele>82.976631470025</ele>
        <time>2021-11-17T14:29:30Z</time>
      </trkpt>
      <trkpt lat="46.51289" lon="0.64285">
        <ele>83.081459046341</ele>
        <time>2021-11-17T14:29:32Z</time>
      </trkpt>
      <trkpt lat="46.51287" lon="0.64285">
        <ele>83.151409832761</ele>
        <time>2021-11-17T14:29:34Z</time>
      </trkpt>
      <trkpt lat="46.51284" lon="0.64285">
        <ele>83.349172172137</ele>
        <time>2021-11-17T14:29:36Z</time>
      </trkpt>
      <trkpt lat="46.51281" lon="0.64284">
        <ele>83.673928853124</ele>
        <time>2021-11-17T14:29:38Z</time>
      </trkpt>
      <trkpt lat="46.51279" lon="0.64285">
        <ele>83.324697304517</ele>
        <time>2021-11-17T14:29:40Z</time>
      </trkpt>
      <trkpt lat="46.51277" lon="0.64285">
        <ele>82.962639534846</ele>
        <time>2021-11-17T14:29:42Z</time>
      </trkpt>
      <trkpt lat="46.51274" lon="0.64285">
        <ele>83.718296349049</ele>
        <time>2021-11-17T14:29:44Z</time>
      </trkpt>
      <trkpt lat="46.51272" lon="0.64285">
        <ele>83.511477182619</ele>
        <time>2021-11-17T14:29:46Z</time>
      </trkpt>
      <trkpt lat="46.51269" lon="0.64284">
        <ele>83.517033547163</ele>
        <time>2021-11-17T14:29:48Z</time>
      </trkpt>
      <trkpt lat="46.51267" lon="0.64283">
        <ele>83.678294559009</ele>
        <time>2021-11-17T14:29:50Z</time>
      </trkpt>
      <trkpt lat="46.51265" lon="0.64283">
        <ele>83.879544326104</ele>
        <time>2021-11-17T14:29:52Z</time>
      </trkpt>
      <trkpt lat="46.51263" lon="0.64283">
        <ele>83.560906353407</ele>
        <time>2021-11-17T14:29:54Z</time>
      </trkpt>
      <trkpt lat="46.5126" lon="0.64282">
        <ele>83.549778792076</ele>
        <time>2021-11-17T14:29:56Z</time>
      </trkpt>
      <trkpt lat="46.51258" lon="0.64281">
        <ele>83.380908790044</ele>
        <time>2021-11-17T14:29:58Z</time>
      </trkpt>
      <trkpt lat="46.51256" lon="0.6428">
        <ele>83.739077862352</ele>
        <time>2021-11-17T14:30:00Z</time>
      </trkpt>
      <trkpt lat="46.51253" lon="0.6428">
        <ele>83.485498127528</ele>
        <time>2021-11-17T14:30:02Z</time>
      </trkpt>
      <trkpt lat="46.5125" lon="0.6428">
        <ele>83.597143231891</ele>
        <time>2021-11-17T14:30:04Z</time>
      </trkpt>
      <trkpt lat="46.51247" lon="0.64281">
        <ele>83.601928160526</ele>
        <time>2021-11-17T14:30:06Z</time>
      </trkpt>
      <trkpt lat="46.51244" lon="0.64281">
        <ele>83.610732275993</ele>
        <time>2021-11-17T14:30:08Z</time>
      </trkpt>
      <trkpt lat="46.51242" lon="0.64281">
        <ele>83.905529230833</ele>
        <time>2021-11-17T14:30:10Z</time>
      </trkpt>
      <trkpt lat="46.51239" lon="0.64283">
        <ele>83.161720087752</ele>
        <time>2021-11-17T14:30:12Z</time>
      </trkpt>
      <trkpt lat="46.51237" lon="0.64283">
        <ele>83.343888593838</ele>
        <time>2021-11-17T14:30:13Z</time>
      </trkpt>
      <trkpt lat="46.51234" lon="0.64284">
        <ele>82.830596697517</ele>
        <time>2021-11-17T14:30:15Z</time>
      </trkpt>
      <trkpt lat="46.51231" lon="0.64285">
        <ele>83.372458264232</ele>
        <time>2021-11-17T14:30:17Z</time>
      </trkpt>
      <trkpt lat="46.51229" lon="0.64284">
        <ele>83.289913755842</ele>
        <time>2021-11-17T14:30:19Z</time>
      </trkpt>
      <trkpt lat="46.51226" lon="0.64285">
        <ele>83.204839695245</ele>
        <time>2021-11-17T14:30:21Z</time>
      </trkpt>
      <trkpt lat="46.51223" lon="0.64285">
        <ele>82.965537658893</ele>
        <time>2021-11-17T14:30:23Z</time>
      </trkpt>
      <trkpt lat="46.5122" lon="0.64285">
        <ele>82.843078308739</ele>
        <time>2021-11-17T14:30:25Z</time>
      </trkpt>
      <trkpt lat="46.51217" lon="0.64285">
        <ele>82.926847931929</ele>
        <time>2021-11-17T14:30:27Z</time>
      </trkpt>
      <trkpt lat="46.51215" lon="0.64284">
        <ele>82.727299271151</ele>
        <time>2021-11-17T14:30:29Z</time>
      </trkpt>
      <trkpt lat="46.51212" lon="0.64285">
        <ele>82.706531217322</ele>
        <time>2021-11-17T14:30:31Z</time>
      </trkpt>
      <trkpt lat="46.5121" lon="0.64284">
        <ele>81.944557487965</ele>
        <time>2021-11-17T14:30:33Z</time>
      </trkpt>
      <trkpt lat="46.51207" lon="0.64285">
        <ele>81.795351113193</ele>
        <time>2021-11-17T14:30:35Z</time>
      </trkpt>
      <trkpt lat="46.51205" lon="0.64286">
        <ele>81.200851242989</ele>
        <time>2021-11-17T14:30:37Z</time>
      </trkpt>
      <trkpt lat="46.51202" lon="0.64285">
        <ele>81.545274778269</ele>
        <time>2021-11-17T14:30:40Z</time>
      </trkpt>
      <trkpt lat="46.51199" lon="0.64285">
        <ele>81.864863336086</ele>
        <time>2021-11-17T14:30:42Z</time>
      </trkpt>
      <trkpt lat="46.51197" lon="0.64286">
        <ele>81.209465672262</ele>
        <time>2021-11-17T14:30:44Z</time>
      </trkpt>
      <trkpt lat="46.51194" lon="0.64286">
        <ele>80.958699319512</ele>
        <time>2021-11-17T14:30:46Z</time>
      </trkpt>
      <trkpt lat="46.51191" lon="0.64286">
        <ele>80.79105920624</ele>
        <time>2021-11-17T14:30:48Z</time>
      </trkpt>
      <trkpt lat="46.51189" lon="0.64286">
        <ele>80.918138066307</ele>
        <time>2021-11-17T14:30:50Z</time>
      </trkpt>
      <trkpt lat="46.51186" lon="0.64287">
        <ele>80.978008845821</ele>
        <time>2021-11-17T14:30:52Z</time>
      </trkpt>
      <trkpt lat="46.51183" lon="0.64287">
        <ele>80.899664342403</ele>
        <time>2021-11-17T14:30:54Z</time>
      </trkpt>
      <trkpt lat="46.51181" lon="0.64287">
        <ele>80.908441931941</ele>
        <time>2021-11-17T14:30:56Z</time>
      </trkpt>
      <trkpt lat="46.51178" lon="0.64288">
        <ele>81.16149408184</ele>
        <time>2021-11-17T14:30:58Z</time>
      </trkpt>
      <trkpt lat="46.51175" lon="0.64287">
        <ele>80.889577046968</ele>
        <time>2021-11-17T14:31:00Z</time>
      </trkpt>
      <trkpt lat="46.51173" lon="0.64288">
        <ele>80.659121023491</ele>
        <time>2021-11-17T14:31:02Z</time>
      </trkpt>
      <trkpt lat="46.5117" lon="0.64288">
        <ele>80.832562766969</ele>
        <time>2021-11-17T14:31:04Z</time>
      </trkpt>
      <trkpt lat="46.51168" lon="0.64288">
        <ele>79.668634203263</ele>
        <time>2021-11-17T14:31:06Z</time>
      </trkpt>
      <trkpt lat="46.51165" lon="0.64288">
        <ele>80.61444284115</ele>
        <time>2021-11-17T14:31:08Z</time>
      </trkpt>
      <trkpt lat="46.51163" lon="0.64288">
        <ele>80.591564754024</ele>
        <time>2021-11-17T14:31:10Z</time>
      </trkpt>
      <trkpt lat="46.5116" lon="0.64288">
        <ele>80.64394448977</ele>
        <time>2021-11-17T14:31:12Z</time>
      </trkpt>
      <trkpt lat="46.51158" lon="0.64288">
        <ele>80.876290893182</ele>
        <time>2021-11-17T14:31:14Z</time>
      </trkpt>
      <trkpt lat="46.51156" lon="0.64288">
        <ele>80.79600260593</ele>
        <time>2021-11-17T14:31:16Z</time>
      </trkpt>
      <trkpt lat="46.51153" lon="0.64288">
        <ele>80.632432780229</ele>
        <time>2021-11-17T14:31:18Z</time>
      </trkpt>
      <trkpt lat="46.5115" lon="0.64289">
        <ele>81.02814847976</ele>
        <time>2021-11-17T14:31:20Z</time>
      </trkpt>
      <trkpt lat="46.51148" lon="0.64289">
        <ele>80.743253594264</ele>
        <time>2021-11-17T14:31:22Z</time>
      </trkpt>
      <trkpt lat="46.51145" lon="0.64289">
        <ele>81.417481889948</ele>
        <time>2021-11-17T14:31:24Z</time>
      </trkpt>
      <trkpt lat="46.51143" lon="0.6429">
        <ele>81.513740047812</ele>
        <time>2021-11-17T14:31:26Z</time>
      </trkpt>
      <trkpt lat="46.51141" lon="0.64291">
        <ele>81.403073859401</ele>
        <time>2021-11-17T14:31:29Z</time>
      </trkpt>
      <trkpt lat="46.51139" lon="0.64292">
        <ele>81.512078182772</ele>
        <time>2021-11-17T14:31:30Z</time>
      </trkpt>
      <trkpt lat="46.51136" lon="0.64292">
        <ele>81.877393231727</ele>
        <time>2021-11-17T14:31:32Z</time>
      </trkpt>
      <trkpt lat="46.51134" lon="0.64291">
        <ele>81.617809108458</ele>
        <time>2021-11-17T14:31:34Z</time>
      </trkpt>
      <trkpt lat="46.51131" lon="0.64292">
        <ele>81.246897667646</ele>
        <time>2021-11-17T14:31:36Z</time>
      </trkpt>
      <trkpt lat="46.51129" lon="0.64291">
        <ele>82.120523937047</ele>
        <time>2021-11-17T14:31:38Z</time>
      </trkpt>
      <trkpt lat="46.51126" lon="0.6429">
        <ele>81.825789207593</ele>
        <time>2021-11-17T14:31:40Z</time>
      </trkpt>
      <trkpt lat="46.51123" lon="0.6429">
        <ele>82.3780682832</ele>
        <time>2021-11-17T14:31:42Z</time>
      </trkpt>
      <trkpt lat="46.5112" lon="0.6429">
        <ele>82.264602300711</ele>
        <time>2021-11-17T14:31:44Z</time>
      </trkpt>
      <trkpt lat="46.51118" lon="0.64289">
        <ele>82.336167125031</ele>
        <time>2021-11-17T14:31:46Z</time>
      </trkpt>
      <trkpt lat="46.51115" lon="0.64289">
        <ele>82.186049952172</ele>
        <time>2021-11-17T14:31:48Z</time>
      </trkpt>
      <trkpt lat="46.51113" lon="0.64289">
        <ele>82.475264184177</ele>
        <time>2021-11-17T14:31:50Z</time>
      </trkpt>
      <trkpt lat="46.5111" lon="0.64289">
        <ele>82.197620701045</ele>
        <time>2021-11-17T14:31:52Z</time>
      </trkpt>
      <trkpt lat="46.51108" lon="0.64289">
        <ele>82.636627547443</ele>
        <time>2021-11-17T14:31:54Z</time>
      </trkpt>
      <trkpt lat="46.51106" lon="0.64289">
        <ele>82.278087641113</ele>
        <time>2021-11-17T14:31:56Z</time>
      </trkpt>
      <trkpt lat="46.51104" lon="0.64289">
        <ele>82.241042990237</ele>
        <time>2021-11-17T14:31:57Z</time>
      </trkpt>
      <trkpt lat="46.51101" lon="0.64288">
        <ele>82.450884485617</ele>
        <time>2021-11-17T14:31:59Z</time>
      </trkpt>
      <trkpt lat="46.51099" lon="0.64288">
        <ele>82.804134493694</ele>
        <time>2021-11-17T14:32:01Z</time>
      </trkpt>
      <trkpt lat="46.51096" lon="0.64289">
        <ele>82.689073669724</ele>
        <time>2021-11-17T14:32:03Z</time>
      </trkpt>
      <trkpt lat="46.51094" lon="0.64288">
        <ele>82.745658002794</ele>
        <time>2021-11-17T14:32:05Z</time>
      </trkpt>
      <trkpt lat="46.51091" lon="0.64288">
        <ele>83.049342050217</ele>
        <time>2021-11-17T14:32:07Z</time>
      </trkpt>
      <trkpt lat="46.51089" lon="0.64288">
        <ele>83.447625149973</ele>
        <time>2021-11-17T14:32:09Z</time>
      </trkpt>
      <trkpt lat="46.51087" lon="0.64288">
        <ele>82.977447655052</ele>
        <time>2021-11-17T14:32:11Z</time>
      </trkpt>
      <trkpt lat="46.51084" lon="0.64287">
        <ele>83.052901202813</ele>
        <time>2021-11-17T14:32:13Z</time>
      </trkpt>
      <trkpt lat="46.51082" lon="0.64287">
        <ele>83.3990424769</ele>
        <time>2021-11-17T14:32:15Z</time>
      </trkpt>
      <trkpt lat="46.51079" lon="0.64288">
        <ele>83.531267889775</ele>
        <time>2021-11-17T14:32:17Z</time>
      </trkpt>
      <trkpt lat="46.51076" lon="0.64288">
        <ele>83.604160928167</ele>
        <time>2021-11-17T14:32:19Z</time>
      </trkpt>
      <trkpt lat="46.51074" lon="0.64288">
        <ele>83.373682501726</ele>
        <time>2021-11-17T14:32:21Z</time>
      </trkpt>
      <trkpt lat="46.51072" lon="0.64287">
        <ele>83.711410168558</ele>
        <time>2021-11-17T14:32:23Z</time>
      </trkpt>
      <trkpt lat="46.5107" lon="0.64288">
        <ele>83.511697793379</ele>
        <time>2021-11-17T14:32:24Z</time>
      </trkpt>
      <trkpt lat="46.51067" lon="0.64288">
        <ele>83.858065783978</ele>
        <time>2021-11-17T14:32:26Z</time>
      </trkpt>
      <trkpt lat="46.51064" lon="0.64288">
        <ele>83.781861783005</ele>
        <time>2021-11-17T14:32:28Z</time>
      </trkpt>
      <trkpt lat="46.51062" lon="0.64288">
        <ele>84.079723438248</ele>
        <time>2021-11-17T14:32:30Z</time>
      </trkpt>
      <trkpt lat="46.51059" lon="0.64288">
        <ele>84.446415867656</ele>
        <time>2021-11-17T14:32:32Z</time>
      </trkpt>
      <trkpt lat="46.51057" lon="0.64288">
        <ele>83.554062325507</ele>
        <time>2021-11-17T14:32:34Z</time>
      </trkpt>
      <trkpt lat="46.51055" lon="0.64288">
        <ele>83.843512571417</ele>
        <time>2021-11-17T14:32:36Z</time>
      </trkpt>
      <trkpt lat="46.51052" lon="0.64289">
        <ele>84.525021952577</ele>
        <time>2021-11-17T14:32:38Z</time>
      </trkpt>
      <trkpt lat="46.51049" lon="0.64289">
        <ele>84.3738012705</ele>
        <time>2021-11-17T14:32:40Z</time>
      </trkpt>
      <trkpt lat="46.51047" lon="0.64289">
        <ele>84.266532086767</ele>
        <time>2021-11-17T14:32:42Z</time>
      </trkpt>
      <trkpt lat="46.51044" lon="0.6429">
        <ele>84.858104774728</ele>
        <time>2021-11-17T14:32:44Z</time>
      </trkpt>
      <trkpt lat="46.51042" lon="0.64289">
        <ele>84.297262461856</ele>
        <time>2021-11-17T14:32:46Z</time>
      </trkpt>
      <trkpt lat="46.51039" lon="0.64289">
        <ele>84.062153886072</ele>
        <time>2021-11-17T14:32:48Z</time>
      </trkpt>
      <trkpt lat="46.51037" lon="0.6429">
        <ele>84.635612357408</ele>
        <time>2021-11-17T14:32:50Z</time>
      </trkpt>
      <trkpt lat="46.51034" lon="0.64289">
        <ele>84.507016249932</ele>
        <time>2021-11-17T14:32:52Z</time>
      </trkpt>
      <trkpt lat="46.51031" lon="0.64289">
        <ele>84.623893408105</ele>
        <time>2021-11-17T14:32:54Z</time>
      </trkpt>
      <trkpt lat="46.51027" lon="0.64289">
        <ele>84.557371165603</ele>
        <time>2021-11-17T14:32:56Z</time>
      </trkpt>
      <trkpt lat="46.51025" lon="0.64288">
        <ele>84.807076535188</ele>
        <time>2021-11-17T14:32:58Z</time>
      </trkpt>
      <trkpt lat="46.51022" lon="0.64289">
        <ele>84.65886086598</ele>
        <time>2021-11-17T14:33:00Z</time>
      </trkpt>
      <trkpt lat="46.5102" lon="0.64289">
        <ele>85.06362117175</ele>
        <time>2021-11-17T14:33:02Z</time>
      </trkpt>
      <trkpt lat="46.51018" lon="0.6429">
        <ele>84.744534597732</ele>
        <time>2021-11-17T14:33:04Z</time>
      </trkpt>
      <trkpt lat="46.51015" lon="0.6429">
        <ele>84.28816169966</ele>
        <time>2021-11-17T14:33:06Z</time>
      </trkpt>
      <trkpt lat="46.51013" lon="0.64289">
        <ele>84.731320057064</ele>
        <time>2021-11-17T14:33:08Z</time>
      </trkpt>
      <trkpt lat="46.51011" lon="0.64288">
        <ele>85.174682051875</ele>
        <time>2021-11-17T14:33:11Z</time>
      </trkpt>
      <trkpt lat="46.51009" lon="0.64287">
        <ele>85.114451026544</ele>
        <time>2021-11-17T14:33:14Z</time>
      </trkpt>
      <trkpt lat="46.51007" lon="0.64288">
        <ele>85.314741868526</ele>
        <time>2021-11-17T14:33:18Z</time>
      </trkpt>
      <trkpt lat="46.51005" lon="0.64289">
        <ele>85.701324759051</ele>
        <time>2021-11-17T14:33:20Z</time>
      </trkpt>
      <trkpt lat="46.51003" lon="0.6429">
        <ele>85.733166635036</ele>
        <time>2021-11-17T14:33:22Z</time>
      </trkpt>
      <trkpt lat="46.51001" lon="0.64291">
        <ele>85.617144742049</ele>
        <time>2021-11-17T14:33:24Z</time>
      </trkpt>
      <trkpt lat="46.50999" lon="0.64291">
        <ele>85.946689755656</ele>
        <time>2021-11-17T14:33:26Z</time>
      </trkpt>
      <trkpt lat="46.50996" lon="0.64292">
        <ele>86.433971148916</ele>
        <time>2021-11-17T14:33:28Z</time>
      </trkpt>
      <trkpt lat="46.50994" lon="0.64293">
        <ele>86.057882955298</ele>
        <time>2021-11-17T14:33:30Z</time>
      </trkpt>
      <trkpt lat="46.50996" lon="0.64293">
        <ele>85.956286126748</ele>
        <time>2021-11-17T14:33:36Z</time>
      </trkpt>
      <trkpt lat="46.50998" lon="0.64293">
        <ele>85.635702804662</ele>
        <time>2021-11-17T14:33:38Z</time>
      </trkpt>
      <trkpt lat="46.51001" lon="0.64293">
        <ele>85.977808270603</ele>
        <time>2021-11-17T14:33:40Z</time>
      </trkpt>
      <trkpt lat="46.51003" lon="0.64293">
        <ele>85.67791069299</ele>
        <time>2021-11-17T14:33:42Z</time>
      </trkpt>
      <trkpt lat="46.51005" lon="0.64291">
        <ele>85.616950601339</ele>
        <time>2021-11-17T14:33:44Z</time>
      </trkpt>
      <trkpt lat="46.51006" lon="0.64289">
        <ele>85.124088699929</ele>
        <time>2021-11-17T14:33:45Z</time>
      </trkpt>
      <trkpt lat="46.51006" lon="0.64285">
        <ele>85.163853620179</ele>
        <time>2021-11-17T14:33:48Z</time>
      </trkpt>
      <trkpt lat="46.51007" lon="0.64282">
        <ele>85.183283584192</ele>
        <time>2021-11-17T14:33:50Z</time>
      </trkpt>
      <trkpt lat="46.51008" lon="0.64278">
        <ele>84.897180587053</ele>
        <time>2021-11-17T14:33:52Z</time>
      </trkpt>
      <trkpt lat="46.51008" lon="0.64275">
        <ele>84.884770978242</ele>
        <time>2021-11-17T14:33:54Z</time>
      </trkpt>
      <trkpt lat="46.51008" lon="0.64272">
        <ele>84.605722141452</ele>
        <time>2021-11-17T14:33:56Z</time>
      </trkpt>
      <trkpt lat="46.51008" lon="0.64268">
        <ele>84.59052113723</ele>
        <time>2021-11-17T14:33:58Z</time>
      </trkpt>
      <trkpt lat="46.51008" lon="0.64265">
        <ele>84.429702011868</ele>
        <time>2021-11-17T14:34:00Z</time>
      </trkpt>
      <trkpt lat="46.51008" lon="0.64262">
        <ele>84.328581568785</ele>
        <time>2021-11-17T14:34:02Z</time>
      </trkpt>
      <trkpt lat="46.51008" lon="0.64259">
        <ele>84.096397923306</ele>
        <time>2021-11-17T14:34:04Z</time>
      </trkpt>
      <trkpt lat="46.51008" lon="0.64256">
        <ele>83.801249071956</ele>
        <time>2021-11-17T14:34:06Z</time>
      </trkpt>
      <trkpt lat="46.51008" lon="0.64253">
        <ele>83.611995798536</ele>
        <time>2021-11-17T14:34:08Z</time>
      </trkpt>
      <trkpt lat="46.51007" lon="0.64249">
        <ele>83.333381363191</ele>
        <time>2021-11-17T14:34:10Z</time>
      </trkpt>
      <trkpt lat="46.51007" lon="0.64245">
        <ele>83.009005640633</ele>
        <time>2021-11-17T14:34:12Z</time>
      </trkpt>
      <trkpt lat="46.51007" lon="0.64241">
        <ele>82.833379121497</ele>
        <time>2021-11-17T14:34:14Z</time>
      </trkpt>
      <trkpt lat="46.51007" lon="0.64238">
        <ele>82.710888287984</ele>
        <time>2021-11-17T14:34:16Z</time>
      </trkpt>
      <trkpt lat="46.51007" lon="0.64235">
        <ele>82.196203936823</ele>
        <time>2021-11-17T14:34:18Z</time>
      </trkpt>
      <trkpt lat="46.51006" lon="0.64231">
        <ele>81.965045435354</ele>
        <time>2021-11-17T14:34:20Z</time>
      </trkpt>
      <trkpt lat="46.51006" lon="0.64227">
        <ele>82.428269602358</ele>
        <time>2021-11-17T14:34:22Z</time>
      </trkpt>
      <trkpt lat="46.51006" lon="0.64224">
        <ele>81.776740551926</ele>
        <time>2021-11-17T14:34:24Z</time>
      </trkpt>
      <trkpt lat="46.51006" lon="0.64221">
        <ele>80.700222720392</ele>
        <time>2021-11-17T14:34:26Z</time>
      </trkpt>
      <trkpt lat="46.51006" lon="0.64217">
        <ele>80.954237768427</ele>
        <time>2021-11-17T14:34:28Z</time>
      </trkpt>
      <trkpt lat="46.51006" lon="0.64214">
        <ele>81.214891237207</ele>
        <time>2021-11-17T14:34:30Z</time>
      </trkpt>
      <trkpt lat="46.51006" lon="0.6421">
        <ele>80.987098874524</ele>
        <time>2021-11-17T14:34:32Z</time>
      </trkpt>
      <trkpt lat="46.51005" lon="0.64207">
        <ele>80.570779836737</ele>
        <time>2021-11-17T14:34:34Z</time>
      </trkpt>
      <trkpt lat="46.51005" lon="0.64204">
        <ele>80.090507994406</ele>
        <time>2021-11-17T14:34:36Z</time>
      </trkpt>
      <trkpt lat="46.51006" lon="0.642">
        <ele>79.655597842298</ele>
        <time>2021-11-17T14:34:38Z</time>
      </trkpt>
      <trkpt lat="46.51006" lon="0.64197">
        <ele>79.722720824182</ele>
        <time>2021-11-17T14:34:40Z</time>
      </trkpt>
      <trkpt lat="46.51006" lon="0.64193">
        <ele>79.614424034953</ele>
        <time>2021-11-17T14:34:42Z</time>
      </trkpt>
      <trkpt lat="46.51006" lon="0.6419">
        <ele>78.955105692148</ele>
        <time>2021-11-17T14:34:44Z</time>
      </trkpt>
      <trkpt lat="46.51006" lon="0.64186">
        <ele>78.900353242643</ele>
        <time>2021-11-17T14:34:46Z</time>
      </trkpt>
      <trkpt lat="46.51005" lon="0.64183">
        <ele>78.438058914617</ele>
        <time>2021-11-17T14:34:49Z</time>
      </trkpt>
      <trkpt lat="46.51005" lon="0.64179">
        <ele>78.145355477929</ele>
        <time>2021-11-17T14:34:51Z</time>
      </trkpt>
      <trkpt lat="46.51005" lon="0.64176">
        <ele>78.391232691705</ele>
        <time>2021-11-17T14:34:53Z</time>
      </trkpt>
      <trkpt lat="46.51005" lon="0.64173">
        <ele>78.355238581076</ele>
        <time>2021-11-17T14:34:55Z</time>
      </trkpt>
      <trkpt lat="46.51004" lon="0.64169">
        <ele>78.247632980347</ele>
        <time>2021-11-17T14:34:57Z</time>
      </trkpt>
      <trkpt lat="46.51004" lon="0.64166">
        <ele>77.9269162938</ele>
        <time>2021-11-17T14:34:59Z</time>
      </trkpt>
      <trkpt lat="46.51004" lon="0.64162">
        <ele>77.975125663914</ele>
        <time>2021-11-17T14:35:01Z</time>
      </trkpt>
      <trkpt lat="46.51003" lon="0.64159">
        <ele>77.434389253147</ele>
        <time>2021-11-17T14:35:03Z</time>
      </trkpt>
      <trkpt lat="46.51003" lon="0.64155">
        <ele>77.732290505432</ele>
        <time>2021-11-17T14:35:05Z</time>
      </trkpt>
      <trkpt lat="46.51003" lon="0.64152">
        <ele>76.9533163663</ele>
        <time>2021-11-17T14:35:07Z</time>
      </trkpt>
      <trkpt lat="46.51003" lon="0.64148">
        <ele>77.4253963558</ele>
        <time>2021-11-17T14:35:09Z</time>
      </trkpt>
      <trkpt lat="46.51003" lon="0.64145">
        <ele>77.416109580547</ele>
        <time>2021-11-17T14:35:11Z</time>
      </trkpt>
      <trkpt lat="46.51003" lon="0.64142">
        <ele>77.201463218778</ele>
        <time>2021-11-17T14:35:13Z</time>
      </trkpt>
      <trkpt lat="46.51002" lon="0.64139">
        <ele>76.878729776479</ele>
        <time>2021-11-17T14:35:15Z</time>
      </trkpt>
      <trkpt lat="46.51003" lon="0.64135">
        <ele>77.033328763209</ele>
        <time>2021-11-17T14:35:17Z</time>
      </trkpt>
      <trkpt lat="46.51002" lon="0.64132">
        <ele>76.281868088059</ele>
        <time>2021-11-17T14:35:19Z</time>
      </trkpt>
      <trkpt lat="46.51002" lon="0.64129">
        <ele>77.412697558291</ele>
        <time>2021-11-17T14:35:21Z</time>
      </trkpt>
      <trkpt lat="46.51002" lon="0.64126">
        <ele>76.095564538613</ele>
        <time>2021-11-17T14:35:23Z</time>
      </trkpt>
      <trkpt lat="46.51002" lon="0.64123">
        <ele>76.655893694609</ele>
        <time>2021-11-17T14:35:24Z</time>
      </trkpt>
      <trkpt lat="46.51001" lon="0.6412">
        <ele>76.388742212206</ele>
        <time>2021-11-17T14:35:26Z</time>
      </trkpt>
      <trkpt lat="46.51" lon="0.64117">
        <ele>76.214038698934</ele>
        <time>2021-11-17T14:35:28Z</time>
      </trkpt>
      <trkpt lat="46.51" lon="0.64113">
        <ele>76.390349920839</ele>
        <time>2021-11-17T14:35:30Z</time>
      </trkpt>
      <trkpt lat="46.51" lon="0.6411">
        <ele>76.034346017987</ele>
        <time>2021-11-17T14:35:32Z</time>
      </trkpt>
      <trkpt lat="46.50999" lon="0.64106">
        <ele>75.557878885418</ele>
        <time>2021-11-17T14:35:34Z</time>
      </trkpt>
      <trkpt lat="46.50999" lon="0.64103">
        <ele>75.853370010853</ele>
        <time>2021-11-17T14:35:35Z</time>
      </trkpt>
      <trkpt lat="46.50999" lon="0.641">
        <ele>75.653741004877</ele>
        <time>2021-11-17T14:35:37Z</time>
      </trkpt>
      <trkpt lat="46.50999" lon="0.64097">
        <ele>76.040125010535</ele>
        <time>2021-11-17T14:35:39Z</time>
      </trkpt>
      <trkpt lat="46.50999" lon="0.64093">
        <ele>76.061637726612</ele>
        <time>2021-11-17T14:35:41Z</time>
      </trkpt>
      <trkpt lat="46.51" lon="0.6409">
        <ele>75.765809897333</ele>
        <time>2021-11-17T14:35:43Z</time>
      </trkpt>
      <trkpt lat="46.50999" lon="0.64087">
        <ele>75.040653082542</ele>
        <time>2021-11-17T14:35:45Z</time>
      </trkpt>
      <trkpt lat="46.50999" lon="0.64082">
        <ele>74.46591484081</ele>
        <time>2021-11-17T14:35:47Z</time>
      </trkpt>
      <trkpt lat="46.50999" lon="0.6408">
        <ele>75.179301970638</ele>
        <time>2021-11-17T14:35:49Z</time>
      </trkpt>
      <trkpt lat="46.50998" lon="0.64075">
        <ele>74.996237144805</ele>
        <time>2021-11-17T14:35:51Z</time>
      </trkpt>
      <trkpt lat="46.50997" lon="0.64071">
        <ele>75.00432098005</ele>
        <time>2021-11-17T14:35:53Z</time>
      </trkpt>
      <trkpt lat="46.50997" lon="0.64068">
        <ele>75.079717274755</ele>
        <time>2021-11-17T14:35:55Z</time>
      </trkpt>
      <trkpt lat="46.50996" lon="0.64064">
        <ele>74.872579401359</ele>
        <time>2021-11-17T14:35:57Z</time>
      </trkpt>
      <trkpt lat="46.50996" lon="0.6406">
        <ele>74.689271707088</ele>
        <time>2021-11-17T14:35:59Z</time>
      </trkpt>
      <trkpt lat="46.50996" lon="0.64057">
        <ele>74.739037522115</ele>
        <time>2021-11-17T14:36:01Z</time>
      </trkpt>
      <trkpt lat="46.50995" lon="0.64053">
        <ele>74.822912749834</ele>
        <time>2021-11-17T14:36:03Z</time>
      </trkpt>
      <trkpt lat="46.50995" lon="0.6405">
        <ele>74.777748440392</ele>
        <time>2021-11-17T14:36:05Z</time>
      </trkpt>
      <trkpt lat="46.50995" lon="0.64046">
        <ele>75.303756582551</ele>
        <time>2021-11-17T14:36:07Z</time>
      </trkpt>
      <trkpt lat="46.50994" lon="0.64041">
        <ele>74.040667194873</ele>
        <time>2021-11-17T14:36:10Z</time>
      </trkpt>
      <trkpt lat="46.50994" lon="0.64037">
        <ele>74.781759935431</ele>
        <time>2021-11-17T14:36:12Z</time>
      </trkpt>
      <trkpt lat="46.50994" lon="0.64033">
        <ele>74.805085127242</ele>
        <time>2021-11-17T14:36:14Z</time>
      </trkpt>
      <trkpt lat="46.50993" lon="0.64029">
        <ele>74.234287447296</ele>
        <time>2021-11-17T14:36:17Z</time>
      </trkpt>
      <trkpt lat="46.50992" lon="0.64026">
        <ele>74.256660594605</ele>
        <time>2021-11-17T14:36:19Z</time>
      </trkpt>
      <trkpt lat="46.50992" lon="0.64022">
        <ele>74.038336944766</ele>
        <time>2021-11-17T14:36:21Z</time>
      </trkpt>
      <trkpt lat="46.50991" lon="0.64018">
        <ele>74.587534029037</ele>
        <time>2021-11-17T14:36:23Z</time>
      </trkpt>
      <trkpt lat="46.50991" lon="0.64014">
        <ele>73.867057638243</ele>
        <time>2021-11-17T14:36:26Z</time>
      </trkpt>
      <trkpt lat="46.50991" lon="0.64011">
        <ele>74.120271192864</ele>
        <time>2021-11-17T14:36:29Z</time>
      </trkpt>
      <trkpt lat="46.50991" lon="0.64008">
        <ele>74.062957914546</ele>
        <time>2021-11-17T14:36:31Z</time>
      </trkpt>
      <trkpt lat="46.5099" lon="0.64004">
        <ele>74.193085924722</ele>
        <time>2021-11-17T14:36:33Z</time>
      </trkpt>
      <trkpt lat="46.50989" lon="0.64001">
        <ele>74.545012833551</ele>
        <time>2021-11-17T14:36:35Z</time>
      </trkpt>
      <trkpt lat="46.50989" lon="0.63997">
        <ele>74.284748326987</ele>
        <time>2021-11-17T14:36:37Z</time>
      </trkpt>
      <trkpt lat="46.50988" lon="0.63994">
        <ele>74.108500038274</ele>
        <time>2021-11-17T14:36:39Z</time>
      </trkpt>
      <trkpt lat="46.50987" lon="0.6399">
        <ele>74.42692097649</ele>
        <time>2021-11-17T14:36:41Z</time>
      </trkpt>
      <trkpt lat="46.50987" lon="0.63987">
        <ele>74.014774232171</ele>
        <time>2021-11-17T14:36:43Z</time>
      </trkpt>
      <trkpt lat="46.50987" lon="0.63983">
        <ele>74.176696923561</ele>
        <time>2021-11-17T14:36:45Z</time>
      </trkpt>
      <trkpt lat="46.50986" lon="0.63979">
        <ele>74.255919762887</ele>
        <time>2021-11-17T14:36:47Z</time>
      </trkpt>
      <trkpt lat="46.50983" lon="0.63977">
        <ele>74.093361379579</ele>
        <time>2021-11-17T14:36:49Z</time>
      </trkpt>
      <trkpt lat="46.50982" lon="0.63972">
        <ele>73.911508596502</ele>
        <time>2021-11-17T14:36:51Z</time>
      </trkpt>
      <trkpt lat="46.50981" lon="0.63969">
        <ele>73.758497904055</ele>
        <time>2021-11-17T14:36:53Z</time>
      </trkpt>
      <trkpt lat="46.50981" lon="0.63966">
        <ele>73.749246952124</ele>
        <time>2021-11-17T14:36:55Z</time>
      </trkpt>
      <trkpt lat="46.50982" lon="0.63961">
        <ele>74.26431068778</ele>
        <time>2021-11-17T14:36:57Z</time>
      </trkpt>
      <trkpt lat="46.50982" lon="0.63959">
        <ele>74.20447629597</ele>
        <time>2021-11-17T14:36:59Z</time>
      </trkpt>
      <trkpt lat="46.50984" lon="0.63954">
        <ele>73.093177349307</ele>
        <time>2021-11-17T14:37:02Z</time>
      </trkpt>
      <trkpt lat="46.50984" lon="0.63951">
        <ele>74.131672959775</ele>
        <time>2021-11-17T14:37:04Z</time>
      </trkpt>
      <trkpt lat="46.50984" lon="0.63947">
        <ele>74.085200957954</ele>
        <time>2021-11-17T14:37:06Z</time>
      </trkpt>
      <trkpt lat="46.50984" lon="0.63942">
        <ele>74.133975932375</ele>
        <time>2021-11-17T14:37:08Z</time>
      </trkpt>
      <trkpt lat="46.50985" lon="0.6394">
        <ele>73.77819199115</ele>
        <time>2021-11-17T14:37:10Z</time>
      </trkpt>
      <trkpt lat="46.50984" lon="0.63935">
        <ele>73.957703506574</ele>
        <time>2021-11-17T14:37:12Z</time>
      </trkpt>
      <trkpt lat="46.50983" lon="0.63931">
        <ele>73.792414964177</ele>
        <time>2021-11-17T14:37:14Z</time>
      </trkpt>
      <trkpt lat="46.50982" lon="0.63927">
        <ele>74.016110409051</ele>
        <time>2021-11-17T14:37:16Z</time>
      </trkpt>
      <trkpt lat="46.50982" lon="0.63924">
        <ele>73.728087928146</ele>
        <time>2021-11-17T14:37:18Z</time>
      </trkpt>
      <trkpt lat="46.50982" lon="0.6392">
        <ele>74.254406087101</ele>
        <time>2021-11-17T14:37:20Z</time>
      </trkpt>
      <trkpt lat="46.50982" lon="0.63917">
        <ele>73.53721726872</ele>
        <time>2021-11-17T14:37:22Z</time>
      </trkpt>
      <trkpt lat="46.50981" lon="0.63912">
        <ele>73.713876991533</ele>
        <time>2021-11-17T14:37:24Z</time>
      </trkpt>
      <trkpt lat="46.50981" lon="0.63909">
        <ele>74.191692030057</ele>
        <time>2021-11-17T14:37:26Z</time>
      </trkpt>
      <trkpt lat="46.50981" lon="0.63906">
        <ele>74.251394793391</ele>
        <time>2021-11-17T14:37:28Z</time>
      </trkpt>
      <trkpt lat="46.50981" lon="0.63902">
        <ele>73.952426657081</ele>
        <time>2021-11-17T14:37:30Z</time>
      </trkpt>
      <trkpt lat="46.50981" lon="0.63898">
        <ele>74.046977733262</ele>
        <time>2021-11-17T14:37:32Z</time>
      </trkpt>
      <trkpt lat="46.5098" lon="0.63895">
        <ele>74.426353831775</ele>
        <time>2021-11-17T14:37:34Z</time>
      </trkpt>
      <trkpt lat="46.5098" lon="0.63891">
        <ele>74.013715049252</ele>
        <time>2021-11-17T14:37:36Z</time>
      </trkpt>
      <trkpt lat="46.5098" lon="0.63887">
        <ele>74.509285488166</ele>
        <time>2021-11-17T14:37:38Z</time>
      </trkpt>
      <trkpt lat="46.5098" lon="0.63884">
        <ele>74.332165135071</ele>
        <time>2021-11-17T14:37:40Z</time>
      </trkpt>
      <trkpt lat="46.5098" lon="0.63881">
        <ele>73.633739442565</ele>
        <time>2021-11-17T14:37:42Z</time>
      </trkpt>
      <trkpt lat="46.5098" lon="0.63877">
        <ele>74.472339902073</ele>
        <time>2021-11-17T14:37:44Z</time>
      </trkpt>
      <trkpt lat="46.50979" lon="0.63874">
        <ele>73.907873038203</ele>
        <time>2021-11-17T14:37:46Z</time>
      </trkpt>
      <trkpt lat="46.50978" lon="0.6387">
        <ele>73.827780260704</ele>
        <time>2021-11-17T14:37:48Z</time>
      </trkpt>
      <trkpt lat="46.50977" lon="0.63866">
        <ele>74.104826337658</ele>
        <time>2021-11-17T14:37:50Z</time>
      </trkpt>
      <trkpt lat="46.50977" lon="0.63863">
        <ele>74.141875776462</ele>
        <time>2021-11-17T14:37:52Z</time>
      </trkpt>
      <trkpt lat="46.50977" lon="0.6386">
        <ele>74.333670072258</ele>
        <time>2021-11-17T14:37:53Z</time>
      </trkpt>
      <trkpt lat="46.50977" lon="0.63855">
        <ele>73.843406958506</ele>
        <time>2021-11-17T14:37:56Z</time>
      </trkpt>
      <trkpt lat="46.50977" lon="0.63851">
        <ele>74.141288670711</ele>
        <time>2021-11-17T14:37:58Z</time>
      </trkpt>
      <trkpt lat="46.50977" lon="0.63847">
        <ele>74.061820553616</ele>
        <time>2021-11-17T14:38:00Z</time>
      </trkpt>
      <trkpt lat="46.50977" lon="0.63844">
        <ele>74.183766371571</ele>
        <time>2021-11-17T14:38:02Z</time>
      </trkpt>
      <trkpt lat="46.50977" lon="0.6384">
        <ele>74.606139662676</ele>
        <time>2021-11-17T14:38:04Z</time>
      </trkpt>
      <trkpt lat="46.50977" lon="0.63837">
        <ele>74.953086363152</ele>
        <time>2021-11-17T14:38:05Z</time>
      </trkpt>
      <trkpt lat="46.50977" lon="0.63833">
        <ele>73.638737697154</ele>
        <time>2021-11-17T14:38:08Z</time>
      </trkpt>
      <trkpt lat="46.50976" lon="0.63828">
        <ele>74.282004155219</ele>
        <time>2021-11-17T14:38:10Z</time>
      </trkpt>
      <trkpt lat="46.50976" lon="0.63825">
        <ele>74.680192154832</ele>
        <time>2021-11-17T14:38:12Z</time>
      </trkpt>
      <trkpt lat="46.50976" lon="0.63821">
        <ele>74.890418504365</ele>
        <time>2021-11-17T14:38:14Z</time>
      </trkpt>
      <trkpt lat="46.50974" lon="0.63818">
        <ele>74.664865002967</ele>
        <time>2021-11-17T14:38:16Z</time>
      </trkpt>
      <trkpt lat="46.50975" lon="0.63815">
        <ele>74.401152430102</ele>
        <time>2021-11-17T14:38:18Z</time>
      </trkpt>
      <trkpt lat="46.50974" lon="0.63811">
        <ele>74.609569817781</ele>
        <time>2021-11-17T14:38:20Z</time>
      </trkpt>
      <trkpt lat="46.50974" lon="0.63807">
        <ele>74.360488824546</ele>
        <time>2021-11-17T14:38:22Z</time>
      </trkpt>
      <trkpt lat="46.50973" lon="0.63803">
        <ele>74.133614539169</ele>
        <time>2021-11-17T14:38:24Z</time>
      </trkpt>
      <trkpt lat="46.50973" lon="0.638">
        <ele>74.407375349663</ele>
        <time>2021-11-17T14:38:26Z</time>
      </trkpt>
      <trkpt lat="46.50973" lon="0.63796">
        <ele>74.346273549832</ele>
        <time>2021-11-17T14:38:28Z</time>
      </trkpt>
      <trkpt lat="46.50972" lon="0.63792">
        <ele>74.249071257189</ele>
        <time>2021-11-17T14:38:30Z</time>
      </trkpt>
      <trkpt lat="46.50972" lon="0.63789">
        <ele>74.482539592311</ele>
        <time>2021-11-17T14:38:32Z</time>
      </trkpt>
      <trkpt lat="46.50971" lon="0.63785">
        <ele>74.418696157634</ele>
        <time>2021-11-17T14:38:34Z</time>
      </trkpt>
      <trkpt lat="46.50971" lon="0.63782">
        <ele>74.274914700538</ele>
        <time>2021-11-17T14:38:36Z</time>
      </trkpt>
      <trkpt lat="46.50971" lon="0.63777">
        <ele>74.160089314915</ele>
        <time>2021-11-17T14:38:38Z</time>
      </trkpt>
      <trkpt lat="46.50971" lon="0.63775">
        <ele>74.132765357383</ele>
        <time>2021-11-17T14:38:39Z</time>
      </trkpt>
      <trkpt lat="46.50971" lon="0.63772">
        <ele>73.741198192351</ele>
        <time>2021-11-17T14:38:41Z</time>
      </trkpt>
      <trkpt lat="46.50971" lon="0.63768">
        <ele>73.873002705164</ele>
        <time>2021-11-17T14:38:43Z</time>
      </trkpt>
      <trkpt lat="46.50971" lon="0.63766">
        <ele>74.191899718717</ele>
        <time>2021-11-17T14:38:45Z</time>
      </trkpt>
      <trkpt lat="46.5097" lon="0.63762">
        <ele>73.523572579958</ele>
        <time>2021-11-17T14:38:47Z</time>
      </trkpt>
      <trkpt lat="46.50969" lon="0.63757">
        <ele>73.923337985761</ele>
        <time>2021-11-17T14:38:49Z</time>
      </trkpt>
      <trkpt lat="46.50969" lon="0.63754">
        <ele>74.019130776636</ele>
        <time>2021-11-17T14:38:51Z</time>
      </trkpt>
      <trkpt lat="46.50969" lon="0.6375">
        <ele>73.910966412164</ele>
        <time>2021-11-17T14:38:53Z</time>
      </trkpt>
      <trkpt lat="46.50969" lon="0.63747">
        <ele>73.897500000894</ele>
        <time>2021-11-17T14:38:55Z</time>
      </trkpt>
      <trkpt lat="46.50969" lon="0.63743">
        <ele>73.957683707587</ele>
        <time>2021-11-17T14:38:57Z</time>
      </trkpt>
      <trkpt lat="46.5097" lon="0.63739">
        <ele>73.908165332861</ele>
        <time>2021-11-17T14:38:59Z</time>
      </trkpt>
      <trkpt lat="46.50969" lon="0.63737">
        <ele>74.231510060839</ele>
        <time>2021-11-17T14:39:02Z</time>
      </trkpt>
      <trkpt lat="46.50969" lon="0.63734">
        <ele>73.185846815817</ele>
        <time>2021-11-17T14:39:04Z</time>
      </trkpt>
      <trkpt lat="46.50969" lon="0.63729">
        <ele>74.075570201501</ele>
        <time>2021-11-17T14:39:06Z</time>
      </trkpt>
      <trkpt lat="46.5097" lon="0.63725">
        <ele>73.883973713964</ele>
        <time>2021-11-17T14:39:08Z</time>
      </trkpt>
      <trkpt lat="46.50969" lon="0.63721">
        <ele>74.507384718396</ele>
        <time>2021-11-17T14:39:10Z</time>
      </trkpt>
      <trkpt lat="46.50969" lon="0.63718">
        <ele>73.885606277734</ele>
        <time>2021-11-17T14:39:12Z</time>
      </trkpt>
      <trkpt lat="46.50969" lon="0.63714">
        <ele>73.539445838891</ele>
        <time>2021-11-17T14:39:14Z</time>
      </trkpt>
      <trkpt lat="46.50968" lon="0.63712">
        <ele>73.420843370259</ele>
        <time>2021-11-17T14:39:16Z</time>
      </trkpt>
      <trkpt lat="46.50968" lon="0.63709">
        <ele>73.661377152428</ele>
        <time>2021-11-17T14:39:18Z</time>
      </trkpt>
      <trkpt lat="46.50968" lon="0.63705">
        <ele>73.176994945854</ele>
        <time>2021-11-17T14:39:20Z</time>
      </trkpt>
      <trkpt lat="46.50967" lon="0.63701">
        <ele>73.815786390565</ele>
        <time>2021-11-17T14:39:22Z</time>
      </trkpt>
      <trkpt lat="46.50967" lon="0.63697">
        <ele>73.553828286938</ele>
        <time>2021-11-17T14:39:24Z</time>
      </trkpt>
      <trkpt lat="46.50966" lon="0.63694">
        <ele>72.41745018959</ele>
        <time>2021-11-17T14:39:26Z</time>
      </trkpt>
      <trkpt lat="46.50966" lon="0.6369">
        <ele>73.126127198339</ele>
        <time>2021-11-17T14:39:28Z</time>
      </trkpt>
      <trkpt lat="46.50965" lon="0.63685">
        <ele>72.747965463437</ele>
        <time>2021-11-17T14:39:30Z</time>
      </trkpt>
      <trkpt lat="46.50965" lon="0.63682">
        <ele>73.079046138562</ele>
        <time>2021-11-17T14:39:33Z</time>
      </trkpt>
      <trkpt lat="46.50964" lon="0.63678">
        <ele>72.984320128337</ele>
        <time>2021-11-17T14:39:35Z</time>
      </trkpt>
      <trkpt lat="46.50965" lon="0.63674">
        <ele>72.323570185341</ele>
        <time>2021-11-17T14:39:37Z</time>
      </trkpt>
      <trkpt lat="46.50964" lon="0.63671">
        <ele>72.767262029462</ele>
        <time>2021-11-17T14:39:39Z</time>
      </trkpt>
      <trkpt lat="46.50964" lon="0.63668">
        <ele>73.027902199887</ele>
        <time>2021-11-17T14:39:41Z</time>
      </trkpt>
      <trkpt lat="46.50964" lon="0.63663">
        <ele>73.037666126154</ele>
        <time>2021-11-17T14:39:43Z</time>
      </trkpt>
      <trkpt lat="46.50964" lon="0.6366">
        <ele>73.256098055281</ele>
        <time>2021-11-17T14:39:45Z</time>
      </trkpt>
      <trkpt lat="46.50963" lon="0.63656">
        <ele>73.002113019116</ele>
        <time>2021-11-17T14:39:47Z</time>
      </trkpt>
      <trkpt lat="46.50963" lon="0.63652">
        <ele>73.113645876758</ele>
        <time>2021-11-17T14:39:49Z</time>
      </trkpt>
      <trkpt lat="46.50963" lon="0.63649">
        <ele>73.064005739987</ele>
        <time>2021-11-17T14:39:51Z</time>
      </trkpt>
      <trkpt lat="46.50962" lon="0.63646">
        <ele>73.150080958381</ele>
        <time>2021-11-17T14:39:53Z</time>
      </trkpt>
      <trkpt lat="46.50962" lon="0.63642">
        <ele>72.228903578594</ele>
        <time>2021-11-17T14:39:55Z</time>
      </trkpt>
      <trkpt lat="46.50962" lon="0.63638">
        <ele>72.009243657812</ele>
        <time>2021-11-17T14:39:57Z</time>
      </trkpt>
      <trkpt lat="46.50962" lon="0.63634">
        <ele>73.060458117165</ele>
        <time>2021-11-17T14:39:59Z</time>
      </trkpt>
      <trkpt lat="46.50961" lon="0.63631">
        <ele>72.981546751224</ele>
        <time>2021-11-17T14:40:01Z</time>
      </trkpt>
      <trkpt lat="46.5096" lon="0.63627">
        <ele>72.919138169847</ele>
        <time>2021-11-17T14:40:03Z</time>
      </trkpt>
      <trkpt lat="46.50959" lon="0.63623">
        <ele>72.847742916085</ele>
        <time>2021-11-17T14:40:05Z</time>
      </trkpt>
      <trkpt lat="46.50958" lon="0.6362">
        <ele>72.876138363034</ele>
        <time>2021-11-17T14:40:07Z</time>
      </trkpt>
      <trkpt lat="46.50956" lon="0.63619">
        <ele>72.463482656516</ele>
        <time>2021-11-17T14:40:09Z</time>
      </trkpt>
      <trkpt lat="46.50954" lon="0.63616">
        <ele>72.30888867192</ele>
        <time>2021-11-17T14:40:12Z</time>
      </trkpt>
      <trkpt lat="46.50955" lon="0.63614">
        <ele>72.39870971255</ele>
        <time>2021-11-17T14:40:15Z</time>
      </trkpt>
      <trkpt lat="46.50954" lon="0.63611">
        <ele>71.536342319101</ele>
        <time>2021-11-17T14:40:17Z</time>
      </trkpt>
      <trkpt lat="46.50955" lon="0.63607">
        <ele>72.022460863926</ele>
        <time>2021-11-17T14:40:19Z</time>
      </trkpt>
      <trkpt lat="46.50955" lon="0.63603">
        <ele>72.66959987767</ele>
        <time>2021-11-17T14:40:21Z</time>
      </trkpt>
      <trkpt lat="46.50955" lon="0.636">
        <ele>72.23193786107</ele>
        <time>2021-11-17T14:40:23Z</time>
      </trkpt>
      <trkpt lat="46.50957" lon="0.63597">
        <ele>72.461704385467</ele>
        <time>2021-11-17T14:40:25Z</time>
      </trkpt>
      <trkpt lat="46.50958" lon="0.63594">
        <ele>72.36858065147</ele>
        <time>2021-11-17T14:40:27Z</time>
      </trkpt>
      <trkpt lat="46.50958" lon="0.63591">
        <ele>72.457397799008</ele>
        <time>2021-11-17T14:40:29Z</time>
      </trkpt>
      <trkpt lat="46.50959" lon="0.63588">
        <ele>72.445151010528</ele>
        <time>2021-11-17T14:40:31Z</time>
      </trkpt>
      <trkpt lat="46.50959" lon="0.63585">
        <ele>72.776450807229</ele>
        <time>2021-11-17T14:40:33Z</time>
      </trkpt>
      <trkpt lat="46.5096" lon="0.63581">
        <ele>71.971607436426</ele>
        <time>2021-11-17T14:40:36Z</time>
      </trkpt>
      <trkpt lat="46.50961" lon="0.63577">
        <ele>72.588193005882</ele>
        <time>2021-11-17T14:40:38Z</time>
      </trkpt>
      <trkpt lat="46.50961" lon="0.63573">
        <ele>72.513645176776</ele>
        <time>2021-11-17T14:40:40Z</time>
      </trkpt>
      <trkpt lat="46.50962" lon="0.63569">
        <ele>71.882915255614</ele>
        <time>2021-11-17T14:40:42Z</time>
      </trkpt>
      <trkpt lat="46.50963" lon="0.63566">
        <ele>72.300973680802</ele>
        <time>2021-11-17T14:40:44Z</time>
      </trkpt>
      <trkpt lat="46.50964" lon="0.63562">
        <ele>72.062086314894</ele>
        <time>2021-11-17T14:40:47Z</time>
      </trkpt>
      <trkpt lat="46.50962" lon="0.63558">
        <ele>72.128623724915</ele>
        <time>2021-11-17T14:40:49Z</time>
      </trkpt>
      <trkpt lat="46.50962" lon="0.63555">
        <ele>72.243092970923</ele>
        <time>2021-11-17T14:40:52Z</time>
      </trkpt>
      <trkpt lat="46.50961" lon="0.63551">
        <ele>72.517155821435</ele>
        <time>2021-11-17T14:40:54Z</time>
      </trkpt>
      <trkpt lat="46.50961" lon="0.63549">
        <ele>71.523529936559</ele>
        <time>2021-11-17T14:40:56Z</time>
      </trkpt>
      <trkpt lat="46.50961" lon="0.63546">
        <ele>71.872959224507</ele>
        <time>2021-11-17T14:40:57Z</time>
      </trkpt>
      <trkpt lat="46.50961" lon="0.63542">
        <ele>71.687871737406</ele>
        <time>2021-11-17T14:40:59Z</time>
      </trkpt>
      <trkpt lat="46.50956" lon="0.6354">
        <ele>71.65773579292</ele>
        <time>2021-11-17T14:41:01Z</time>
      </trkpt>
      <trkpt lat="46.50954" lon="0.63542">
        <ele>71.225741509348</ele>
        <time>2021-11-17T14:41:02Z</time>
      </trkpt>
      <trkpt lat="46.50952" lon="0.63542">
        <ele>71.55557051301</ele>
        <time>2021-11-17T14:41:03Z</time>
      </trkpt>
      <trkpt lat="46.5095" lon="0.63542">
        <ele>71.420037738979</ele>
        <time>2021-11-17T14:41:04Z</time>
      </trkpt>
      <trkpt lat="46.50948" lon="0.63543">
        <ele>71.491280773655</ele>
        <time>2021-11-17T14:41:05Z</time>
      </trkpt>
      <trkpt lat="46.50946" lon="0.63542">
        <ele>71.600734657608</ele>
        <time>2021-11-17T14:41:06Z</time>
      </trkpt>
      <trkpt lat="46.50942" lon="0.63542">
        <ele>71.000618107617</ele>
        <time>2021-11-17T14:41:08Z</time>
      </trkpt>
      <trkpt lat="46.5094" lon="0.63542">
        <ele>70.94145945739</ele>
        <time>2021-11-17T14:41:10Z</time>
      </trkpt>
      <trkpt lat="46.50937" lon="0.63542">
        <ele>70.93804406561</ele>
        <time>2021-11-17T14:41:12Z</time>
      </trkpt>
      <trkpt lat="46.50934" lon="0.63541">
        <ele>71.576435898431</ele>
        <time>2021-11-17T14:41:14Z</time>
      </trkpt>
      <trkpt lat="46.50931" lon="0.63541">
        <ele>70.580518478528</ele>
        <time>2021-11-17T14:41:16Z</time>
      </trkpt>
      <trkpt lat="46.50929" lon="0.6354">
        <ele>71.020915074274</ele>
        <time>2021-11-17T14:41:18Z</time>
      </trkpt>
      <trkpt lat="46.50925" lon="0.6354">
        <ele>71.281055329368</ele>
        <time>2021-11-17T14:41:20Z</time>
      </trkpt>
      <trkpt lat="46.50924" lon="0.63539">
        <ele>71.053967515938</ele>
        <time>2021-11-17T14:41:22Z</time>
      </trkpt>
      <trkpt lat="46.50921" lon="0.63538">
        <ele>71.115472196601</ele>
        <time>2021-11-17T14:41:24Z</time>
      </trkpt>
      <trkpt lat="46.5092" lon="0.63536">
        <ele>71.3296868857</ele>
        <time>2021-11-17T14:41:28Z</time>
      </trkpt>
      <trkpt lat="46.50918" lon="0.63534">
        <ele>71.450841336511</ele>
        <time>2021-11-17T14:41:31Z</time>
      </trkpt>
      <trkpt lat="46.50916" lon="0.63531">
        <ele>71.083699165843</ele>
        <time>2021-11-17T14:41:33Z</time>
      </trkpt>
      <trkpt lat="46.50917" lon="0.63528">
        <ele>70.992870101705</ele>
        <time>2021-11-17T14:41:35Z</time>
      </trkpt>
      <trkpt lat="46.50917" lon="0.63525">
        <ele>71.339566622861</ele>
        <time>2021-11-17T14:41:37Z</time>
      </trkpt>
      <trkpt lat="46.50917" lon="0.6352">
        <ele>70.886698893271</ele>
        <time>2021-11-17T14:41:40Z</time>
      </trkpt>
      <trkpt lat="46.50919" lon="0.63517">
        <ele>70.961051711813</ele>
        <time>2021-11-17T14:41:43Z</time>
      </trkpt>
      <trkpt lat="46.50919" lon="0.63513">
        <ele>71.109323906712</ele>
        <time>2021-11-17T14:41:45Z</time>
      </trkpt>
      <trkpt lat="46.50919" lon="0.6351">
        <ele>71.314106059261</ele>
        <time>2021-11-17T14:41:47Z</time>
      </trkpt>
      <trkpt lat="46.50918" lon="0.63508">
        <ele>71.376320939511</ele>
        <time>2021-11-17T14:41:49Z</time>
      </trkpt>
      <trkpt lat="46.50917" lon="0.63505">
        <ele>70.868750483729</ele>
        <time>2021-11-17T14:41:51Z</time>
      </trkpt>
      <trkpt lat="46.50917" lon="0.63501">
        <ele>71.015067774802</ele>
        <time>2021-11-17T14:41:53Z</time>
      </trkpt>
      <trkpt lat="46.50918" lon="0.63498">
        <ele>70.908452712931</ele>
        <time>2021-11-17T14:41:55Z</time>
      </trkpt>
      <trkpt lat="46.50918" lon="0.63495">
        <ele>71.004298169166</ele>
        <time>2021-11-17T14:41:57Z</time>
      </trkpt>
      <trkpt lat="46.50919" lon="0.63491">
        <ele>71.239267953672</ele>
        <time>2021-11-17T14:41:59Z</time>
      </trkpt>
      <trkpt lat="46.50918" lon="0.63488">
        <ele>71.146476299502</ele>
        <time>2021-11-17T14:42:01Z</time>
      </trkpt>
      <trkpt lat="46.50918" lon="0.63485">
        <ele>71.246406823397</ele>
        <time>2021-11-17T14:42:03Z</time>
      </trkpt>
      <trkpt lat="46.50917" lon="0.63483">
        <ele>71.141942045651</ele>
        <time>2021-11-17T14:42:05Z</time>
      </trkpt>
      <trkpt lat="46.50917" lon="0.63479">
        <ele>71.177174289711</ele>
        <time>2021-11-17T14:42:07Z</time>
      </trkpt>
      <trkpt lat="46.50916" lon="0.63477">
        <ele>71.286339495331</ele>
        <time>2021-11-17T14:42:10Z</time>
      </trkpt>
      <trkpt lat="46.50913" lon="0.63475">
        <ele>71.349607479759</ele>
        <time>2021-11-17T14:42:13Z</time>
      </trkpt>
      <trkpt lat="46.50912" lon="0.63475">
        <ele>71.39408988785</ele>
        <time>2021-11-17T14:42:15Z</time>
      </trkpt>
      <trkpt lat="46.50909" lon="0.63474">
        <ele>71.490921892226</ele>
        <time>2021-11-17T14:42:17Z</time>
      </trkpt>
      <trkpt lat="46.50906" lon="0.63474">
        <ele>71.215380827896</ele>
        <time>2021-11-17T14:42:19Z</time>
      </trkpt>
      <trkpt lat="46.50904" lon="0.63473">
        <ele>71.389180583879</ele>
        <time>2021-11-17T14:42:21Z</time>
      </trkpt>
      <trkpt lat="46.50902" lon="0.63473">
        <ele>71.240912045352</ele>
        <time>2021-11-17T14:42:23Z</time>
      </trkpt>
      <trkpt lat="46.509" lon="0.63472">
        <ele>71.180729831569</ele>
        <time>2021-11-17T14:42:25Z</time>
      </trkpt>
      <trkpt lat="46.50898" lon="0.63472">
        <ele>71.091902555898</ele>
        <time>2021-11-17T14:42:27Z</time>
      </trkpt>
      <trkpt lat="46.50896" lon="0.63473">
        <ele>71.25990398787</ele>
        <time>2021-11-17T14:42:29Z</time>
      </trkpt>
      <trkpt lat="46.50894" lon="0.63474">
        <ele>71.22385637369</ele>
        <time>2021-11-17T14:42:32Z</time>
      </trkpt>
      <trkpt lat="46.50893" lon="0.63477">
        <ele>71.539754638448</ele>
        <time>2021-11-17T14:42:48Z</time>
      </trkpt>
      <trkpt lat="46.50892" lon="0.63475">
        <ele>71.398818784393</ele>
        <time>2021-11-17T14:43:16Z</time>
      </trkpt>
      <trkpt lat="46.50894" lon="0.63475">
        <ele>71.391716563143</ele>
        <time>2021-11-17T14:43:29Z</time>
      </trkpt>
      <trkpt lat="46.50895" lon="0.63472">
        <ele>71.719732798636</ele>
        <time>2021-11-17T14:43:50Z</time>
      </trkpt>
      <trkpt lat="46.50893" lon="0.63474">
        <ele>71.632631297223</ele>
        <time>2021-11-17T14:44:32Z</time>
      </trkpt>
      <trkpt lat="46.50891" lon="0.63476">
        <ele>71.609431887977</ele>
        <time>2021-11-17T14:44:54Z</time>
      </trkpt>
      <trkpt lat="46.50892" lon="0.63473">
        <ele>71.671082335524</ele>
        <time>2021-11-17T14:45:41Z</time>
      </trkpt>
      <trkpt lat="46.50892" lon="0.63476">
        <ele>71.588255807757</ele>
        <time>2021-11-17T14:45:51Z</time>
      </trkpt>
      <trkpt lat="46.50894" lon="0.63474">
        <ele>71.405556343496</ele>
        <time>2021-11-17T14:45:54Z</time>
      </trkpt>
      <trkpt lat="46.50896" lon="0.63474">
        <ele>71.523669945076</ele>
        <time>2021-11-17T14:46:01Z</time>
      </trkpt>
      <trkpt lat="46.50896" lon="0.63477">
        <ele>71.738228909671</ele>
        <time>2021-11-17T14:46:25Z</time>
      </trkpt>
      <trkpt lat="46.50894" lon="0.63477">
        <ele>71.473404359072</ele>
        <time>2021-11-17T14:47:16Z</time>
      </trkpt>
      <trkpt lat="46.50894" lon="0.63475">
        <ele>71.553019206971</ele>
        <time>2021-11-17T14:48:08Z</time>
      </trkpt>
      <trkpt lat="46.50897" lon="0.63477">
        <ele>71.515822202899</ele>
        <time>2021-11-17T14:48:15Z</time>
      </trkpt>
      <trkpt lat="46.50899" lon="0.63477">
        <ele>71.745558350347</ele>
        <time>2021-11-17T14:48:16Z</time>
      </trkpt>
    </trkseg>
  </trk>
</gpx>